<?xml version='1.0' encoding='UTF-8'?><gpx version="1.1" creator="JPX - https://github.com/jenetics/jpx" xmlns="http://www.topografix.com/GPX/1/1"><trk><trkseg><trkpt lat="42.21154080380893" lon="13.824414829350143"><ele>324.0</ele><time>2026-04-27T08:17:31.999Z</time></trkpt><trkpt lat="42.21160106278744" lon="13.824463911694687"><ele>324.0</ele><time>2026-04-27T08:19:05.999Z</time></trkpt><trkpt lat="42.21166177827908" lon="13.824413874540173"><ele>324.0</ele><time>2026-04-27T08:19:07.999Z</time></trkpt><trkpt lat="42.21170257907888" lon="13.824330963237557"><ele>324.0</ele><time>2026-04-27T08:19:11.999Z</time></trkpt><trkpt lat="42.21174871334901" lon="13.824238719729356"><ele>324.0</ele><time>2026-04-27T08:19:13.999Z</time></trkpt><trkpt lat="42.21180265968593" lon="13.824173993312867"><ele>324.0</ele><time>2026-04-27T08:19:15.999Z</time></trkpt><trkpt lat="42.21181453929396" lon="13.824000308392915"><ele>322.6666666666667</ele><time>2026-04-27T08:19:17.999Z</time></trkpt><trkpt lat="42.21179319236432" lon="13.823917793008656"><ele>321.3333333333333</ele><time>2026-04-27T08:19:18.999Z</time></trkpt><trkpt lat="42.211763556647426" lon="13.82382504613152"><ele>320.0</ele><time>2026-04-27T08:19:19.999Z</time></trkpt><trkpt lat="42.21174178884042" lon="13.823716947818982"><ele>318.66666666666663</ele><time>2026-04-27T08:19:20.999Z</time></trkpt><trkpt lat="42.21172324414925" lon="13.823607593995925"><ele>317.3333333333333</ele><time>2026-04-27T08:19:21.999Z</time></trkpt><trkpt lat="42.21170439232327" lon="13.823504215145839"><ele>316.0</ele><time>2026-04-27T08:19:22.999Z</time></trkpt><trkpt lat="42.21168712168005" lon="13.823416800322708"><ele>315.7142857142857</ele><time>2026-04-27T08:19:23.999Z</time></trkpt><trkpt lat="42.21167343913232" lon="13.823332895779052"><ele>315.42857142857144</ele><time>2026-04-27T08:19:24.999Z</time></trkpt><trkpt lat="42.21165776159403" lon="13.82324532852023"><ele>315.1428571428571</ele><time>2026-04-27T08:19:25.999Z</time></trkpt><trkpt lat="42.211624981831534" lon="13.823097736925032"><ele>314.8571428571429</ele><time>2026-04-27T08:19:27.999Z</time></trkpt><trkpt lat="42.21161257059793" lon="13.823013793049238"><ele>314.57142857142856</ele><time>2026-04-27T08:19:29.999Z</time></trkpt><trkpt lat="42.21160295785374" lon="13.822929287970135"><ele>314.2857142857143</ele><time>2026-04-27T08:19:37.999Z</time></trkpt><trkpt lat="42.21159343061219" lon="13.822836187577806"><ele>314.0</ele><time>2026-04-27T08:19:39.999Z</time></trkpt><trkpt lat="42.21168124138653" lon="13.822779149948751"><ele>314.0</ele><time>2026-04-27T08:19:40.999Z</time></trkpt><trkpt lat="42.211753067156096" lon="13.82275341541879"><ele>314.0</ele><time>2026-04-27T08:19:41.999Z</time></trkpt><trkpt lat="42.21183365715129" lon="13.822735429006995"><ele>314.0</ele><time>2026-04-27T08:19:42.999Z</time></trkpt><trkpt lat="42.21190055136955" lon="13.822711385078312"><ele>314.0</ele><time>2026-04-27T08:19:43.999Z</time></trkpt><trkpt lat="42.21196947836527" lon="13.822689128612659"><ele>314.0</ele><time>2026-04-27T08:19:44.999Z</time></trkpt><trkpt lat="42.21204930537979" lon="13.822663300321473"><ele>314.0</ele><time>2026-04-27T08:19:45.999Z</time></trkpt><trkpt lat="42.21214079930879" lon="13.822657774905235"><ele>314.2</ele><time>2026-04-27T08:19:46.999Z</time></trkpt><trkpt lat="42.21223784767103" lon="13.822613947351211"><ele>314.4</ele><time>2026-04-27T08:19:47.999Z</time></trkpt><trkpt lat="42.21232646178236" lon="13.822581958270817"><ele>314.6</ele><time>2026-04-27T08:19:48.999Z</time></trkpt><trkpt lat="42.21241263254884" lon="13.822552496624679"><ele>314.8</ele><time>2026-04-27T08:19:49.999Z</time></trkpt><trkpt lat="42.21251143527506" lon="13.822515023668139"><ele>315.0</ele><time>2026-04-27T08:19:50.999Z</time></trkpt><trkpt lat="42.212620851644296" lon="13.822473093862436"><ele>315.0</ele><time>2026-04-27T08:19:51.999Z</time></trkpt><trkpt lat="42.21272506230532" lon="13.822435259353748"><ele>315.0</ele><time>2026-04-27T08:19:52.999Z</time></trkpt><trkpt lat="42.212812470462" lon="13.822413208980583"><ele>315.0</ele><time>2026-04-27T08:19:53.999Z</time></trkpt><trkpt lat="42.21290386607269" lon="13.822392605474574"><ele>315.0</ele><time>2026-04-27T08:19:54.999Z</time></trkpt><trkpt lat="42.21299439931085" lon="13.822381746345705"><ele>315.0</ele><time>2026-04-27T08:19:55.999Z</time></trkpt><trkpt lat="42.213082886513156" lon="13.822353510634725"><ele>315.4</ele><time>2026-04-27T08:19:56.999Z</time></trkpt><trkpt lat="42.21318487886299" lon="13.822320587929186"><ele>315.8</ele><time>2026-04-27T08:19:57.999Z</time></trkpt><trkpt lat="42.21329092421261" lon="13.822286291045431"><ele>316.2</ele><time>2026-04-27T08:19:58.999Z</time></trkpt><trkpt lat="42.2133834529729" lon="13.822256432801462"><ele>316.6</ele><time>2026-04-27T08:19:59.999Z</time></trkpt><trkpt lat="42.213462715289005" lon="13.822230855508437"><ele>317.0</ele><time>2026-04-27T08:20:01Z</time></trkpt><trkpt lat="42.2135427680696" lon="13.822206012963877"><ele>317.0</ele><time>2026-04-27T08:20:02Z</time></trkpt><trkpt lat="42.21363043643148" lon="13.822179565354594"><ele>317.0</ele><time>2026-04-27T08:20:03Z</time></trkpt><trkpt lat="42.21371207857439" lon="13.822154935734519"><ele>317.0</ele><time>2026-04-27T08:20:04Z</time></trkpt><trkpt lat="42.21382804392349" lon="13.822119951462104"><ele>317.0</ele><time>2026-04-27T08:20:06Z</time></trkpt><trkpt lat="42.213922589457106" lon="13.822070834715948"><ele>317.0</ele><time>2026-04-27T08:20:08Z</time></trkpt><trkpt lat="42.2139358597689" lon="13.822207327651823"><ele>317.0</ele><time>2026-04-27T08:20:11Z</time></trkpt><trkpt lat="42.21403200663127" lon="13.822230472880005"><ele>317.0</ele><time>2026-04-27T08:20:12Z</time></trkpt><trkpt lat="42.21411418512433" lon="13.822370527966356"><ele>317.0</ele><time>2026-04-27T08:20:14Z</time></trkpt><trkpt lat="42.21415505238575" lon="13.82245938042029"><ele>317.0</ele><time>2026-04-27T08:20:15Z</time></trkpt><trkpt lat="42.21421129598448" lon="13.822566557316707"><ele>317.0</ele><time>2026-04-27T08:20:16Z</time></trkpt><trkpt lat="42.21428833483676" lon="13.822674667518841"><ele>317.0</ele><time>2026-04-27T08:20:17Z</time></trkpt><trkpt lat="42.21437278271923" lon="13.82276340461517"><ele>317.0</ele><time>2026-04-27T08:20:18Z</time></trkpt><trkpt lat="42.21443935090438" lon="13.822793083305948"><ele>317.0</ele><time>2026-04-27T08:20:19Z</time></trkpt><trkpt lat="42.214483077602864" lon="13.822888758790791"><ele>317.0</ele><time>2026-04-27T08:20:31Z</time></trkpt><trkpt lat="42.21453049735488" lon="13.822810525411573"><ele>317.0</ele><time>2026-04-27T08:20:32Z</time></trkpt><trkpt lat="42.21452988021779" lon="13.822685672517492"><ele>317.0</ele><time>2026-04-27T08:20:34Z</time></trkpt><trkpt lat="42.21448804707714" lon="13.822622039311435"><ele>317.0</ele><time>2026-04-27T08:20:35Z</time></trkpt><trkpt lat="42.21442003230088" lon="13.822610268053786"><ele>317.0</ele><time>2026-04-27T08:20:36Z</time></trkpt><trkpt lat="42.21436062616829" lon="13.822645465939036"><ele>317.0</ele><time>2026-04-27T08:20:37Z</time></trkpt><trkpt lat="42.21425795812309" lon="13.822625273820407"><ele>317.0</ele><time>2026-04-27T08:20:39Z</time></trkpt><trkpt lat="42.21420340264658" lon="13.82256311177518"><ele>317.0</ele><time>2026-04-27T08:20:40Z</time></trkpt><trkpt lat="42.214146637548325" lon="13.82245377373721"><ele>317.0</ele><time>2026-04-27T08:20:42Z</time></trkpt><trkpt lat="42.21410393101459" lon="13.822377561914367"><ele>317.0</ele><time>2026-04-27T08:20:43Z</time></trkpt><trkpt lat="42.214062569171794" lon="13.822291671410225"><ele>317.0</ele><time>2026-04-27T08:20:44Z</time></trkpt><trkpt lat="42.21404327808298" lon="13.822201984315605"><ele>317.0</ele><time>2026-04-27T08:20:45Z</time></trkpt><trkpt lat="42.21404487106455" lon="13.822091355627933"><ele>317.0</ele><time>2026-04-27T08:20:47Z</time></trkpt><trkpt lat="42.21412491465857" lon="13.82197092163478"><ele>317.0</ele><time>2026-04-27T08:20:50Z</time></trkpt><trkpt lat="42.214198490864064" lon="13.8219341481867"><ele>317.0</ele><time>2026-04-27T08:20:52Z</time></trkpt><trkpt lat="42.21427281344164" lon="13.821848533334245"><ele>317.33333333333337</ele><time>2026-04-27T08:20:54Z</time></trkpt><trkpt lat="42.214323440120914" lon="13.821763298455283"><ele>317.6666666666667</ele><time>2026-04-27T08:20:55Z</time></trkpt><trkpt lat="42.21437922434667" lon="13.82168439354899"><ele>318.0</ele><time>2026-04-27T08:20:56Z</time></trkpt><trkpt lat="42.214433977680386" lon="13.821614359693799"><ele>318.3333333333333</ele><time>2026-04-27T08:20:57Z</time></trkpt><trkpt lat="42.21449323904452" lon="13.821526146986056"><ele>318.66666666666663</ele><time>2026-04-27T08:20:58Z</time></trkpt><trkpt lat="42.214564751815885" lon="13.821420239766267"><ele>319.0</ele><time>2026-04-27T08:20:59Z</time></trkpt><trkpt lat="42.21463826817332" lon="13.82131548782719"><ele>319.0</ele><time>2026-04-27T08:21:00Z</time></trkpt><trkpt lat="42.214713734152696" lon="13.82121198082212"><ele>319.0</ele><time>2026-04-27T08:21:01Z</time></trkpt><trkpt lat="42.21479200200117" lon="13.82109758812286"><ele>319.0</ele><time>2026-04-27T08:21:02Z</time></trkpt><trkpt lat="42.214865537974475" lon="13.820983088506296"><ele>319.0</ele><time>2026-04-27T08:21:02.999Z</time></trkpt><trkpt lat="42.21493611069984" lon="13.820868287514458"><ele>319.0</ele><time>2026-04-27T08:21:03.999Z</time></trkpt><trkpt lat="42.21500672051653" lon="13.820757212123343"><ele>319.0</ele><time>2026-04-27T08:21:04.999Z</time></trkpt><trkpt lat="42.21508700384982" lon="13.820635034176664"><ele>319.0</ele><time>2026-04-27T08:21:05.999Z</time></trkpt><trkpt lat="42.21517937359539" lon="13.820509198912996"><ele>319.0</ele><time>2026-04-27T08:21:06.999Z</time></trkpt><trkpt lat="42.215268224699955" lon="13.820375253903816"><ele>319.0</ele><time>2026-04-27T08:21:07.999Z</time></trkpt><trkpt lat="42.21535823517008" lon="13.820235292133553"><ele>319.0</ele><time>2026-04-27T08:21:08.999Z</time></trkpt><trkpt lat="42.21544761767014" lon="13.820097896817284"><ele>319.0</ele><time>2026-04-27T08:21:09.999Z</time></trkpt><trkpt lat="42.21553341659533" lon="13.819971599194082"><ele>319.0</ele><time>2026-04-27T08:21:10.999Z</time></trkpt><trkpt lat="42.21561042323541" lon="13.81984825809554"><ele>319.0</ele><time>2026-04-27T08:21:11.999Z</time></trkpt><trkpt lat="42.215695314497495" lon="13.819723403828565"><ele>319.0</ele><time>2026-04-27T08:21:12.999Z</time></trkpt><trkpt lat="42.21577912808115" lon="13.819598674970303"><ele>319.0</ele><time>2026-04-27T08:21:13.999Z</time></trkpt><trkpt lat="42.215863925464355" lon="13.819469424707389"><ele>319.0</ele><time>2026-04-27T08:21:14.999Z</time></trkpt><trkpt lat="42.21594904588242" lon="13.81934319834331"><ele>319.0</ele><time>2026-04-27T08:21:15.999Z</time></trkpt><trkpt lat="42.21602650206949" lon="13.819236775774145"><ele>319.2</ele><time>2026-04-27T08:21:16.999Z</time></trkpt><trkpt lat="42.21609357824654" lon="13.819138167765104"><ele>319.4</ele><time>2026-04-27T08:21:17.999Z</time></trkpt><trkpt lat="42.216155465428834" lon="13.819036762534378"><ele>319.6</ele><time>2026-04-27T08:21:18.999Z</time></trkpt><trkpt lat="42.21620719438709" lon="13.818923971140945"><ele>319.8</ele><time>2026-04-27T08:21:19.999Z</time></trkpt><trkpt lat="42.21623192128134" lon="13.818781477926112"><ele>320.0</ele><time>2026-04-27T08:21:20.999Z</time></trkpt><trkpt lat="42.216218828709245" lon="13.818631746641728"><ele>320.0</ele><time>2026-04-27T08:21:21.999Z</time></trkpt><trkpt lat="42.2162013267985" lon="13.81850499462698"><ele>320.0</ele><time>2026-04-27T08:21:22.999Z</time></trkpt><trkpt lat="42.21620688578231" lon="13.818408982354388"><ele>320.0</ele><time>2026-04-27T08:21:23.999Z</time></trkpt><trkpt lat="42.21623559992725" lon="13.818329559943335"><ele>320.0</ele><time>2026-04-27T08:21:24.999Z</time></trkpt><trkpt lat="42.21625198073118" lon="13.81821957609156"><ele>320.0</ele><time>2026-04-27T08:21:25.999Z</time></trkpt><trkpt lat="42.21636786231417" lon="13.81814863409759"><ele>320.0</ele><time>2026-04-27T08:21:26.999Z</time></trkpt><trkpt lat="42.216463826647114" lon="13.818060566985823"><ele>319.5</ele><time>2026-04-27T08:21:27.999Z</time></trkpt><trkpt lat="42.21656494525478" lon="13.817961690543243"><ele>319.0</ele><time>2026-04-27T08:21:28.999Z</time></trkpt><trkpt lat="42.21666768337295" lon="13.817861563552434"><ele>318.5</ele><time>2026-04-27T08:21:29.999Z</time></trkpt><trkpt lat="42.21677310866853" lon="13.817772754655888"><ele>318.0</ele><time>2026-04-27T08:21:30.999Z</time></trkpt><trkpt lat="42.21689368708917" lon="13.817683276194854"><ele>318.25</ele><time>2026-04-27T08:21:31.999Z</time></trkpt><trkpt lat="42.21702304222615" lon="13.817601470672066"><ele>318.5</ele><time>2026-04-27T08:21:32.999Z</time></trkpt><trkpt lat="42.217163786213106" lon="13.81753036132674"><ele>318.75</ele><time>2026-04-27T08:21:33.999Z</time></trkpt><trkpt lat="42.2173078065234" lon="13.817464168644138"><ele>319.0</ele><time>2026-04-27T08:21:34.999Z</time></trkpt><trkpt lat="42.2174479262514" lon="13.817411386411905"><ele>319.0</ele><time>2026-04-27T08:21:35.999Z</time></trkpt><trkpt lat="42.21758660643388" lon="13.817373109523523"><ele>319.0</ele><time>2026-04-27T08:21:36.999Z</time></trkpt><trkpt lat="42.217726977329896" lon="13.817342675404596"><ele>319.0</ele><time>2026-04-27T08:21:37.999Z</time></trkpt><trkpt lat="42.217864401628105" lon="13.817317015269992"><ele>319.0</ele><time>2026-04-27T08:21:38.999Z</time></trkpt><trkpt lat="42.21800090219399" lon="13.817291382886513"><ele>319.0</ele><time>2026-04-27T08:21:39.999Z</time></trkpt><trkpt lat="42.21814021013131" lon="13.817265587643513"><ele>319.0</ele><time>2026-04-27T08:21:40.999Z</time></trkpt><trkpt lat="42.21828519442326" lon="13.817237908844243"><ele>319.0</ele><time>2026-04-27T08:21:41.999Z</time></trkpt><trkpt lat="42.218432991392255" lon="13.81720953609006"><ele>319.0</ele><time>2026-04-27T08:21:42.999Z</time></trkpt><trkpt lat="42.21858444566489" lon="13.817182911124346"><ele>319.0</ele><time>2026-04-27T08:21:43.999Z</time></trkpt><trkpt lat="42.218738734715586" lon="13.81715558919843"><ele>319.0</ele><time>2026-04-27T08:21:44.999Z</time></trkpt><trkpt lat="42.21889452686136" lon="13.81713062600917"><ele>319.0</ele><time>2026-04-27T08:21:45.999Z</time></trkpt><trkpt lat="42.21904897937605" lon="13.817108863532502"><ele>319.0</ele><time>2026-04-27T08:21:46.999Z</time></trkpt><trkpt lat="42.219193134743065" lon="13.81708804697342"><ele>319.0</ele><time>2026-04-27T08:21:47.999Z</time></trkpt><trkpt lat="42.21934686324258" lon="13.817065011976338"><ele>319.0</ele><time>2026-04-27T08:21:48.999Z</time></trkpt><trkpt lat="42.21950591718832" lon="13.817044098262935"><ele>319.0</ele><time>2026-04-27T08:21:49.999Z</time></trkpt><trkpt lat="42.21965881351137" lon="13.817032431316303"><ele>319.0</ele><time>2026-04-27T08:21:50.999Z</time></trkpt><trkpt lat="42.21979110562709" lon="13.817030111847036"><ele>319.0</ele><time>2026-04-27T08:21:51.999Z</time></trkpt><trkpt lat="42.21992259737006" lon="13.817040771702624"><ele>319.0</ele><time>2026-04-27T08:21:52.999Z</time></trkpt><trkpt lat="42.22005694650088" lon="13.817063632718844"><ele>318.66666666666663</ele><time>2026-04-27T08:21:53.999Z</time></trkpt><trkpt lat="42.22019932071366" lon="13.817095669894998"><ele>318.3333333333333</ele><time>2026-04-27T08:21:54.999Z</time></trkpt><trkpt lat="42.22034792003627" lon="13.817133847750798"><ele>318.0</ele><time>2026-04-27T08:21:55.999Z</time></trkpt><trkpt lat="42.220501326442886" lon="13.817176996848934"><ele>317.6666666666667</ele><time>2026-04-27T08:21:56.999Z</time></trkpt><trkpt lat="42.220659386598726" lon="13.81722336523932"><ele>317.33333333333337</ele><time>2026-04-27T08:21:57.999Z</time></trkpt><trkpt lat="42.220818655442706" lon="13.817269969982124"><ele>317.0</ele><time>2026-04-27T08:21:58.999Z</time></trkpt><trkpt lat="42.22098061444947" lon="13.817316140653443"><ele>317.0</ele><time>2026-04-27T08:21:59.999Z</time></trkpt><trkpt lat="42.221144472837096" lon="13.817360650214598"><ele>317.0</ele><time>2026-04-27T08:22:00.999Z</time></trkpt><trkpt lat="42.22130514755058" lon="13.817403555196043"><ele>317.0</ele><time>2026-04-27T08:22:01.999Z</time></trkpt><trkpt lat="42.221465611407474" lon="13.817444050054771"><ele>317.0</ele><time>2026-04-27T08:22:02.999Z</time></trkpt><trkpt lat="42.22162826674191" lon="13.817468329787914"><ele>317.0</ele><time>2026-04-27T08:22:03.999Z</time></trkpt><trkpt lat="42.22179029404953" lon="13.817473051384825"><ele>317.0</ele><time>2026-04-27T08:22:04.999Z</time></trkpt><trkpt lat="42.22195272600721" lon="13.8174697618179"><ele>317.0</ele><time>2026-04-27T08:22:05.999Z</time></trkpt><trkpt lat="42.22211479879263" lon="13.817453322083342"><ele>317.0</ele><time>2026-04-27T08:22:07Z</time></trkpt><trkpt lat="42.222275564954614" lon="13.817422462202503"><ele>317.0</ele><time>2026-04-27T08:22:08Z</time></trkpt><trkpt lat="42.22243703547667" lon="13.817379564778374"><ele>318.0</ele><time>2026-04-27T08:22:09Z</time></trkpt><trkpt lat="42.2225973649646" lon="13.817320878478688"><ele>319.0</ele><time>2026-04-27T08:22:10Z</time></trkpt><trkpt lat="42.22275461771819" lon="13.817253439927448"><ele>320.0</ele><time>2026-04-27T08:22:11Z</time></trkpt><trkpt lat="42.22290602274351" lon="13.817173243224973"><ele>320.0</ele><time>2026-04-27T08:22:12Z</time></trkpt><trkpt lat="42.22305102334498" lon="13.817080714905066"><ele>320.0</ele><time>2026-04-27T08:22:13Z</time></trkpt><trkpt lat="42.223192775571235" lon="13.816983195258048"><ele>320.0</ele><time>2026-04-27T08:22:14Z</time></trkpt><trkpt lat="42.223334790031565" lon="13.816882680432206"><ele>320.33333333333337</ele><time>2026-04-27T08:22:15Z</time></trkpt><trkpt lat="42.22347101442463" lon="13.816773240078843"><ele>320.6666666666667</ele><time>2026-04-27T08:22:16Z</time></trkpt><trkpt lat="42.22360705111973" lon="13.816656999167959"><ele>321.0</ele><time>2026-04-27T08:22:17Z</time></trkpt><trkpt lat="42.22374107917813" lon="13.816542875969915"><ele>321.0</ele><time>2026-04-27T08:22:18Z</time></trkpt><trkpt lat="42.22386465505368" lon="13.816441720471614"><ele>321.0</ele><time>2026-04-27T08:22:19Z</time></trkpt><trkpt lat="42.2239907117408" lon="13.816334687744183"><ele>321.0</ele><time>2026-04-27T08:22:20Z</time></trkpt><trkpt lat="42.22411997960538" lon="13.816228658860858"><ele>321.0</ele><time>2026-04-27T08:22:21Z</time></trkpt><trkpt lat="42.22424984298898" lon="13.816122336966815"><ele>320.6666666666667</ele><time>2026-04-27T08:22:22Z</time></trkpt><trkpt lat="42.22438061205297" lon="13.816014956057678"><ele>320.33333333333337</ele><time>2026-04-27T08:22:23Z</time></trkpt><trkpt lat="42.22450949495597" lon="13.815904965372592"><ele>320.0</ele><time>2026-04-27T08:22:24Z</time></trkpt><trkpt lat="42.224638712749574" lon="13.815798419632193"><ele>320.0</ele><time>2026-04-27T08:22:25Z</time></trkpt><trkpt lat="42.22477132231176" lon="13.815699327956986"><ele>320.0</ele><time>2026-04-27T08:22:26Z</time></trkpt><trkpt lat="42.22491152007443" lon="13.815621308801486"><ele>320.0</ele><time>2026-04-27T08:22:27Z</time></trkpt><trkpt lat="42.225054599145146" lon="13.815551809369751"><ele>319.0</ele><time>2026-04-27T08:22:28Z</time></trkpt><trkpt lat="42.225198269648004" lon="13.815484730202067"><ele>318.0</ele><time>2026-04-27T08:22:29Z</time></trkpt><trkpt lat="42.225345537783056" lon="13.815427858202208"><ele>317.0</ele><time>2026-04-27T08:22:30Z</time></trkpt><trkpt lat="42.22549505532095" lon="13.815380945995308"><ele>317.0</ele><time>2026-04-27T08:22:31Z</time></trkpt><trkpt lat="42.22564655062604" lon="13.81534389604372"><ele>317.0</ele><time>2026-04-27T08:22:32Z</time></trkpt><trkpt lat="42.22579854090143" lon="13.815310525839498"><ele>317.0</ele><time>2026-04-27T08:22:33Z</time></trkpt><trkpt lat="42.22595031917971" lon="13.815270906588543"><ele>317.0</ele><time>2026-04-27T08:22:34Z</time></trkpt><trkpt lat="42.226099375476196" lon="13.815224137784472"><ele>317.0</ele><time>2026-04-27T08:22:35Z</time></trkpt><trkpt lat="42.22625133260297" lon="13.815179224050198"><ele>317.0</ele><time>2026-04-27T08:22:36Z</time></trkpt><trkpt lat="42.22640508254516" lon="13.815141498910005"><ele>319.0</ele><time>2026-04-27T08:22:37Z</time></trkpt><trkpt lat="42.22656118224165" lon="13.815098154391707"><ele>321.0</ele><time>2026-04-27T08:22:38Z</time></trkpt><trkpt lat="42.226724705104516" lon="13.81504903006792"><ele>323.0</ele><time>2026-04-27T08:22:39Z</time></trkpt><trkpt lat="42.2268933949217" lon="13.81500516060389"><ele>323.0</ele><time>2026-04-27T08:22:40Z</time></trkpt><trkpt lat="42.227065574185175" lon="13.814964243720123"><ele>323.0</ele><time>2026-04-27T08:22:41Z</time></trkpt><trkpt lat="42.227239218812024" lon="13.814929603180735"><ele>323.0</ele><time>2026-04-27T08:22:42Z</time></trkpt><trkpt lat="42.227416102011816" lon="13.814900856567755"><ele>321.6666666666667</ele><time>2026-04-27T08:22:43Z</time></trkpt><trkpt lat="42.22759423135165" lon="13.814875860714626"><ele>320.3333333333333</ele><time>2026-04-27T08:22:44Z</time></trkpt><trkpt lat="42.227774858061316" lon="13.814857573796164"><ele>319.0</ele><time>2026-04-27T08:22:45Z</time></trkpt><trkpt lat="42.22795674712162" lon="13.814838415696936"><ele>319.0</ele><time>2026-04-27T08:22:46Z</time></trkpt><trkpt lat="42.22813795631405" lon="13.81481634827832"><ele>319.0</ele><time>2026-04-27T08:22:47Z</time></trkpt><trkpt lat="42.2283026465283" lon="13.81479529261428"><ele>319.0</ele><time>2026-04-27T08:22:48Z</time></trkpt><trkpt lat="42.228438901125955" lon="13.814784082264389"><ele>319.0</ele><time>2026-04-27T08:22:49Z</time></trkpt><trkpt lat="42.2285465568607" lon="13.814790012727023"><ele>319.0</ele><time>2026-04-27T08:22:50Z</time></trkpt><trkpt lat="42.2286306264476" lon="13.81480918011947"><ele>319.0</ele><time>2026-04-27T08:22:51Z</time></trkpt><trkpt lat="42.22870834234106" lon="13.814837300829709"><ele>319.0</ele><time>2026-04-27T08:22:53Z</time></trkpt><trkpt lat="42.228785893326375" lon="13.814865758201567"><ele>319.0</ele><time>2026-04-27T08:22:55Z</time></trkpt><trkpt lat="42.22884901045686" lon="13.814888661095758"><ele>319.0</ele><time>2026-04-27T08:22:56Z</time></trkpt><trkpt lat="42.22892656015435" lon="13.814923908264163"><ele>319.4</ele><time>2026-04-27T08:22:57Z</time></trkpt><trkpt lat="42.22901817706517" lon="13.814964115963335"><ele>319.79999999999995</ele><time>2026-04-27T08:22:58Z</time></trkpt><trkpt lat="42.22910992149618" lon="13.815037295042112"><ele>320.20000000000005</ele><time>2026-04-27T08:22:59Z</time></trkpt><trkpt lat="42.22920908919008" lon="13.815082110642159"><ele>320.6</ele><time>2026-04-27T08:23:00Z</time></trkpt><trkpt lat="42.2292968094931" lon="13.815124061117457"><ele>321.0</ele><time>2026-04-27T08:23:01Z</time></trkpt><trkpt lat="42.22936895812044" lon="13.815152122036292"><ele>320.25</ele><time>2026-04-27T08:23:02Z</time></trkpt><trkpt lat="42.22948100424439" lon="13.815188553134993"><ele>319.5</ele><time>2026-04-27T08:23:03.999Z</time></trkpt><trkpt lat="42.22956370992643" lon="13.81533723410474"><ele>318.75</ele><time>2026-04-27T08:23:05.999Z</time></trkpt><trkpt lat="42.229627597905406" lon="13.815432193047025"><ele>318.0</ele><time>2026-04-27T08:23:06.999Z</time></trkpt><trkpt lat="42.229694175282596" lon="13.81554035544652"><ele>318.0</ele><time>2026-04-27T08:23:07.999Z</time></trkpt><trkpt lat="42.22976725212721" lon="13.815626948807191"><ele>318.0</ele><time>2026-04-27T08:23:08.999Z</time></trkpt><trkpt lat="42.22982391230223" lon="13.815731369962219"><ele>318.0</ele><time>2026-04-27T08:23:09.999Z</time></trkpt><trkpt lat="42.22988397294487" lon="13.81583939672657"><ele>318.0</ele><time>2026-04-27T08:23:10.999Z</time></trkpt><trkpt lat="42.22993050207899" lon="13.815948612200037"><ele>318.0</ele><time>2026-04-27T08:23:11.999Z</time></trkpt><trkpt lat="42.22994419440558" lon="13.816060191974419"><ele>317.6</ele><time>2026-04-27T08:23:12.999Z</time></trkpt><trkpt lat="42.22993503276167" lon="13.816177689838113"><ele>317.20000000000005</ele><time>2026-04-27T08:23:13.999Z</time></trkpt><trkpt lat="42.22990884213863" lon="13.816289891363306"><ele>316.8</ele><time>2026-04-27T08:23:14.999Z</time></trkpt><trkpt lat="42.22989876633868" lon="13.81642402459832"><ele>316.40000000000003</ele><time>2026-04-27T08:23:15.999Z</time></trkpt><trkpt lat="42.22987224583132" lon="13.816572107868394"><ele>316.0</ele><time>2026-04-27T08:23:16.999Z</time></trkpt><trkpt lat="42.229887686875394" lon="13.816704985754065"><ele>315.6</ele><time>2026-04-27T08:23:17.999Z</time></trkpt><trkpt lat="42.229908644905585" lon="13.816826389897042"><ele>315.20000000000005</ele><time>2026-04-27T08:23:18.999Z</time></trkpt><trkpt lat="42.22992660548332" lon="13.816947768566287"><ele>314.79999999999995</ele><time>2026-04-27T08:23:19.999Z</time></trkpt><trkpt lat="42.229944380142015" lon="13.817076861504747"><ele>314.4</ele><time>2026-04-27T08:23:20.999Z</time></trkpt><trkpt lat="42.22996036897898" lon="13.817216220717729"><ele>314.0</ele><time>2026-04-27T08:23:21.999Z</time></trkpt><trkpt lat="42.22997299679886" lon="13.817367503537193"><ele>314.0</ele><time>2026-04-27T08:23:22.999Z</time></trkpt><trkpt lat="42.22998679185657" lon="13.817541574052253"><ele>314.0</ele><time>2026-04-27T08:23:23.999Z</time></trkpt><trkpt lat="42.23000298240309" lon="13.817723761867661"><ele>314.0</ele><time>2026-04-27T08:23:24.999Z</time></trkpt><trkpt lat="42.23002425928194" lon="13.817918825578383"><ele>314.0</ele><time>2026-04-27T08:23:25.999Z</time></trkpt><trkpt lat="42.230044983424406" lon="13.818123236075449"><ele>314.33333333333337</ele><time>2026-04-27T08:23:26.999Z</time></trkpt><trkpt lat="42.23006109761793" lon="13.818331756334672"><ele>314.6666666666667</ele><time>2026-04-27T08:23:27.999Z</time></trkpt><trkpt lat="42.23007269150126" lon="13.818544467626566"><ele>315.0</ele><time>2026-04-27T08:23:28.999Z</time></trkpt><trkpt lat="42.230071845823474" lon="13.81875741484134"><ele>315.0</ele><time>2026-04-27T08:23:29.999Z</time></trkpt><trkpt lat="42.230072807745" lon="13.818961740897638"><ele>315.0</ele><time>2026-04-27T08:23:30.999Z</time></trkpt><trkpt lat="42.2300786685545" lon="13.81913237366946"><ele>315.0</ele><time>2026-04-27T08:23:31.999Z</time></trkpt><trkpt lat="42.23008738251149" lon="13.81927844235978"><ele>315.0</ele><time>2026-04-27T08:23:32.999Z</time></trkpt><trkpt lat="42.2300957158463" lon="13.819402303786907"><ele>315.5</ele><time>2026-04-27T08:23:33.999Z</time></trkpt><trkpt lat="42.23011912312026" lon="13.819506299514885"><ele>316.0</ele><time>2026-04-27T08:23:34.999Z</time></trkpt><trkpt lat="42.23012691584671" lon="13.819634152976974"><ele>316.5</ele><time>2026-04-27T08:23:36.999Z</time></trkpt><trkpt lat="42.23020756117671" lon="13.819696624595194"><ele>317.0</ele><time>2026-04-27T08:23:39.999Z</time></trkpt><trkpt lat="42.23029397434239" lon="13.819675260665882"><ele>317.5</ele><time>2026-04-27T08:23:40.999Z</time></trkpt><trkpt lat="42.230382217748314" lon="13.819641657070424"><ele>318.0</ele><time>2026-04-27T08:23:41.999Z</time></trkpt><trkpt lat="42.230466818078796" lon="13.819627748583768"><ele>318.0</ele><time>2026-04-27T08:23:42.999Z</time></trkpt><trkpt lat="42.2305534521193" lon="13.819615498372293"><ele>318.0</ele><time>2026-04-27T08:23:43.999Z</time></trkpt><trkpt lat="42.230665130281764" lon="13.819604515422647"><ele>318.0</ele><time>2026-04-27T08:23:44.999Z</time></trkpt><trkpt lat="42.23078968800347" lon="13.819600508430177"><ele>318.0</ele><time>2026-04-27T08:23:45.999Z</time></trkpt><trkpt lat="42.23092107120883" lon="13.819585297571619"><ele>317.75</ele><time>2026-04-27T08:23:46.999Z</time></trkpt><trkpt lat="42.23103892838687" lon="13.819547409766313"><ele>317.5</ele><time>2026-04-27T08:23:47.999Z</time></trkpt><trkpt lat="42.23115476174246" lon="13.819483023819062"><ele>317.25</ele><time>2026-04-27T08:23:48.999Z</time></trkpt><trkpt lat="42.23127505794348" lon="13.819396918439276"><ele>317.0</ele><time>2026-04-27T08:23:49.999Z</time></trkpt><trkpt lat="42.23139906102355" lon="13.819307439491427"><ele>318.0</ele><time>2026-04-27T08:23:50.999Z</time></trkpt><trkpt lat="42.231531935332306" lon="13.81922348769963"><ele>319.0</ele><time>2026-04-27T08:23:51.999Z</time></trkpt><trkpt lat="42.23167908518836" lon="13.819159229316933"><ele>320.0</ele><time>2026-04-27T08:23:52.999Z</time></trkpt><trkpt lat="42.23183496495121" lon="13.819121317251424"><ele>320.0</ele><time>2026-04-27T08:23:53.999Z</time></trkpt><trkpt lat="42.23199372815556" lon="13.819092488336135"><ele>320.0</ele><time>2026-04-27T08:23:54.999Z</time></trkpt><trkpt lat="42.232157977414836" lon="13.819074599399825"><ele>320.0</ele><time>2026-04-27T08:23:55.999Z</time></trkpt><trkpt lat="42.23232712099029" lon="13.81906740904503"><ele>320.33333333333337</ele><time>2026-04-27T08:23:56.999Z</time></trkpt><trkpt lat="42.23249205095194" lon="13.819062778906394"><ele>320.6666666666667</ele><time>2026-04-27T08:23:57.999Z</time></trkpt><trkpt lat="42.232660205726724" lon="13.819054029074481"><ele>321.0</ele><time>2026-04-27T08:23:58.999Z</time></trkpt><trkpt lat="42.23283637877642" lon="13.819033064948298"><ele>321.0</ele><time>2026-04-27T08:23:59.999Z</time></trkpt><trkpt lat="42.23300990460286" lon="13.81896814639328"><ele>321.0</ele><time>2026-04-27T08:24:00.999Z</time></trkpt><trkpt lat="42.233186751969285" lon="13.818892406867926"><ele>321.0</ele><time>2026-04-27T08:24:01.999Z</time></trkpt><trkpt lat="42.23335894458356" lon="13.818807618725835"><ele>324.3333333333333</ele><time>2026-04-27T08:24:02.999Z</time></trkpt><trkpt lat="42.23353636431844" lon="13.818716107740144"><ele>327.66666666666663</ele><time>2026-04-27T08:24:03.999Z</time></trkpt><trkpt lat="42.2337118503227" lon="13.818616186956094"><ele>331.0</ele><time>2026-04-27T08:24:04.999Z</time></trkpt><trkpt lat="42.23388671730978" lon="13.81850797046829"><ele>329.3333333333333</ele><time>2026-04-27T08:24:05.999Z</time></trkpt><trkpt lat="42.234062740848664" lon="13.818400024259352"><ele>327.6666666666667</ele><time>2026-04-27T08:24:06.999Z</time></trkpt><trkpt lat="42.234231916275434" lon="13.818281115653543"><ele>326.0</ele><time>2026-04-27T08:24:07.999Z</time></trkpt><trkpt lat="42.23440013938455" lon="13.818139444988034"><ele>326.0</ele><time>2026-04-27T08:24:08.999Z</time></trkpt><trkpt lat="42.23455130806205" lon="13.81798028714228"><ele>326.0</ele><time>2026-04-27T08:24:09.999Z</time></trkpt><trkpt lat="42.23469629330937" lon="13.817804557346037"><ele>326.0</ele><time>2026-04-27T08:24:10.999Z</time></trkpt><trkpt lat="42.23483164365572" lon="13.817610420350078"><ele>324.33333333333337</ele><time>2026-04-27T08:24:11.999Z</time></trkpt><trkpt lat="42.2349512170451" lon="13.817399438047467"><ele>322.6666666666667</ele><time>2026-04-27T08:24:13Z</time></trkpt><trkpt lat="42.23505788251803" lon="13.81718517836284"><ele>321.0</ele><time>2026-04-27T08:24:14Z</time></trkpt><trkpt lat="42.23514936227233" lon="13.81698931750679"><ele>320.25</ele><time>2026-04-27T08:24:15Z</time></trkpt><trkpt lat="42.23522976678482" lon="13.816813219632802"><ele>319.5</ele><time>2026-04-27T08:24:16Z</time></trkpt><trkpt lat="42.235299314725594" lon="13.816652467395397"><ele>318.75</ele><time>2026-04-27T08:24:17Z</time></trkpt><trkpt lat="42.23537460798393" lon="13.816517716368477"><ele>318.0</ele><time>2026-04-27T08:24:18Z</time></trkpt><trkpt lat="42.23546291122114" lon="13.816405705633619"><ele>318.0</ele><time>2026-04-27T08:24:19Z</time></trkpt><trkpt lat="42.23557209935376" lon="13.816307119639864"><ele>318.0</ele><time>2026-04-27T08:24:20Z</time></trkpt><trkpt lat="42.23569620829731" lon="13.816243776785846"><ele>318.0</ele><time>2026-04-27T08:24:21Z</time></trkpt><trkpt lat="42.23583155082489" lon="13.816217755193195"><ele>318.0</ele><time>2026-04-27T08:24:22Z</time></trkpt><trkpt lat="42.23596247183036" lon="13.816234000801506"><ele>318.5</ele><time>2026-04-27T08:24:23Z</time></trkpt><trkpt lat="42.23608850080124" lon="13.816295360245933"><ele>319.0</ele><time>2026-04-27T08:24:24Z</time></trkpt><trkpt lat="42.23620158063485" lon="13.81641966204418"><ele>319.5</ele><time>2026-04-27T08:24:25Z</time></trkpt><trkpt lat="42.23633989095203" lon="13.816514966180787"><ele>320.0</ele><time>2026-04-27T08:24:26Z</time></trkpt><trkpt lat="42.236477917243775" lon="13.816619562637403"><ele>320.0</ele><time>2026-04-27T08:24:27Z</time></trkpt><trkpt lat="42.23662823806468" lon="13.816692558179215"><ele>320.0</ele><time>2026-04-27T08:24:28Z</time></trkpt><trkpt lat="42.236784848574885" lon="13.816741444299053"><ele>320.0</ele><time>2026-04-27T08:24:29Z</time></trkpt><trkpt lat="42.236940161414786" lon="13.816760293514143"><ele>320.0</ele><time>2026-04-27T08:24:30Z</time></trkpt><trkpt lat="42.23709810638341" lon="13.816746860650767"><ele>320.0</ele><time>2026-04-27T08:24:31Z</time></trkpt><trkpt lat="42.2372527041287" lon="13.816702217566382"><ele>320.0</ele><time>2026-04-27T08:24:32Z</time></trkpt><trkpt lat="42.237395319465506" lon="13.816636926908009"><ele>319.6666666666667</ele><time>2026-04-27T08:24:33Z</time></trkpt><trkpt lat="42.23754590709211" lon="13.816560943458404"><ele>319.3333333333333</ele><time>2026-04-27T08:24:34Z</time></trkpt><trkpt lat="42.23770439247626" lon="13.816483573247593"><ele>319.0</ele><time>2026-04-27T08:24:35Z</time></trkpt><trkpt lat="42.23786619069212" lon="13.816406758229926"><ele>319.0</ele><time>2026-04-27T08:24:36Z</time></trkpt><trkpt lat="42.238026616921346" lon="13.816327231560326"><ele>319.0</ele><time>2026-04-27T08:24:37Z</time></trkpt><trkpt lat="42.23818491232486" lon="13.816253568839535"><ele>319.0</ele><time>2026-04-27T08:24:38Z</time></trkpt><trkpt lat="42.238324679732784" lon="13.816187833770927"><ele>319.0</ele><time>2026-04-27T08:24:39Z</time></trkpt><trkpt lat="42.238451565880005" lon="13.816128808787854"><ele>319.0</ele><time>2026-04-27T08:24:40Z</time></trkpt><trkpt lat="42.23857484811931" lon="13.816095214418025"><ele>319.0</ele><time>2026-04-27T08:24:41Z</time></trkpt><trkpt lat="42.238712782154174" lon="13.816093956260485"><ele>319.0</ele><time>2026-04-27T08:24:42Z</time></trkpt><trkpt lat="42.238852169338124" lon="13.816121087657317"><ele>319.79999999999995</ele><time>2026-04-27T08:24:43Z</time></trkpt><trkpt lat="42.238978569689664" lon="13.816138569871553"><ele>320.59999999999997</ele><time>2026-04-27T08:24:44Z</time></trkpt><trkpt lat="42.239081601694124" lon="13.816172769711965"><ele>321.4</ele><time>2026-04-27T08:24:45Z</time></trkpt><trkpt lat="42.239178251783954" lon="13.81616588477305"><ele>322.2</ele><time>2026-04-27T08:24:46Z</time></trkpt><trkpt lat="42.23925917138787" lon="13.816180414796209"><ele>323.0</ele><time>2026-04-27T08:24:47Z</time></trkpt><trkpt lat="42.23932927344013" lon="13.816210737425374"><ele>323.0</ele><time>2026-04-27T08:24:48Z</time></trkpt><trkpt lat="42.23939355802398" lon="13.8163778523711"><ele>323.0</ele><time>2026-04-27T08:24:50Z</time></trkpt><trkpt lat="42.2394408064057" lon="13.816459942579078"><ele>323.0</ele><time>2026-04-27T08:24:51Z</time></trkpt><trkpt lat="42.23949324621756" lon="13.816508792381313"><ele>323.0</ele><time>2026-04-27T08:24:52Z</time></trkpt><trkpt lat="42.239566291498576" lon="13.816505507785985"><ele>323.0</ele><time>2026-04-27T08:24:53Z</time></trkpt><trkpt lat="42.239648738183305" lon="13.816504664836582"><ele>323.0</ele><time>2026-04-27T08:24:54Z</time></trkpt><trkpt lat="42.23975793614493" lon="13.816477694016116"><ele>324.0</ele><time>2026-04-27T08:24:55Z</time></trkpt><trkpt lat="42.2398762496032" lon="13.816429181740283"><ele>325.0</ele><time>2026-04-27T08:24:56Z</time></trkpt><trkpt lat="42.239983320824436" lon="13.816371780653403"><ele>326.0</ele><time>2026-04-27T08:24:57Z</time></trkpt><trkpt lat="42.24008654163138" lon="13.816335595296973"><ele>327.0</ele><time>2026-04-27T08:24:58Z</time></trkpt><trkpt lat="42.24021411238758" lon="13.816325314209854"><ele>327.0</ele><time>2026-04-27T08:24:59Z</time></trkpt><trkpt lat="42.240351774660546" lon="13.816322902928576"><ele>327.0</ele><time>2026-04-27T08:25:00Z</time></trkpt><trkpt lat="42.24049981366828" lon="13.816309850005629"><ele>327.0</ele><time>2026-04-27T08:25:01Z</time></trkpt><trkpt lat="42.240654043567325" lon="13.816324615546552"><ele>327.0</ele><time>2026-04-27T08:25:02Z</time></trkpt><trkpt lat="42.240813211841854" lon="13.816321379234724"><ele>327.5</ele><time>2026-04-27T08:25:03Z</time></trkpt><trkpt lat="42.24097041668469" lon="13.8162982059375"><ele>328.0</ele><time>2026-04-27T08:25:04Z</time></trkpt><trkpt lat="42.24110758974745" lon="13.816283241164237"><ele>328.5</ele><time>2026-04-27T08:25:05Z</time></trkpt><trkpt lat="42.24122605509147" lon="13.816253674244832"><ele>329.0</ele><time>2026-04-27T08:25:06Z</time></trkpt><trkpt lat="42.24133051353681" lon="13.816214760202723"><ele>329.0</ele><time>2026-04-27T08:25:07Z</time></trkpt><trkpt lat="42.24143269125836" lon="13.816146480895558"><ele>329.0</ele><time>2026-04-27T08:25:08Z</time></trkpt><trkpt lat="42.24155049720185" lon="13.816035415462435"><ele>329.0</ele><time>2026-04-27T08:25:08.999Z</time></trkpt><trkpt lat="42.24164699603171" lon="13.815906352652496"><ele>329.0</ele><time>2026-04-27T08:25:09.999Z</time></trkpt><trkpt lat="42.24170037395702" lon="13.815796040432067"><ele>327.4</ele><time>2026-04-27T08:25:10.999Z</time></trkpt><trkpt lat="42.24171068482006" lon="13.815697968416666"><ele>325.79999999999995</ele><time>2026-04-27T08:25:11.999Z</time></trkpt><trkpt lat="42.241693500061196" lon="13.815584434497055"><ele>324.20000000000005</ele><time>2026-04-27T08:25:12.999Z</time></trkpt><trkpt lat="42.24169044038896" lon="13.815449773606169"><ele>322.6</ele><time>2026-04-27T08:25:13.999Z</time></trkpt><trkpt lat="42.241721946949184" lon="13.815302118978641"><ele>321.0</ele><time>2026-04-27T08:25:14.999Z</time></trkpt><trkpt lat="42.2417911863923" lon="13.815157613873897"><ele>320.6666666666667</ele><time>2026-04-27T08:25:15.999Z</time></trkpt><trkpt lat="42.24185445373117" lon="13.815052502509348"><ele>320.3333333333333</ele><time>2026-04-27T08:25:16.999Z</time></trkpt><trkpt lat="42.241907064430286" lon="13.814966122754136"><ele>320.0</ele><time>2026-04-27T08:25:17.999Z</time></trkpt><trkpt lat="42.241942546773856" lon="13.814810094417737"><ele>319.66666666666663</ele><time>2026-04-27T08:25:18.999Z</time></trkpt><trkpt lat="42.24194885303532" lon="13.814725427966067"><ele>319.3333333333333</ele><time>2026-04-27T08:25:19.999Z</time></trkpt><trkpt lat="42.24197324978179" lon="13.81464052683938"><ele>319.0</ele><time>2026-04-27T08:25:20.999Z</time></trkpt><trkpt lat="42.24205451979319" lon="13.814552647019536"><ele>319.0</ele><time>2026-04-27T08:25:22.999Z</time></trkpt><trkpt lat="42.24217992295981" lon="13.814508954593133"><ele>319.0</ele><time>2026-04-27T08:25:24.999Z</time></trkpt><trkpt lat="42.24230462079529" lon="13.814467671364067"><ele>319.0</ele><time>2026-04-27T08:25:25.999Z</time></trkpt><trkpt lat="42.24240444262455" lon="13.814360973947995"><ele>319.0</ele><time>2026-04-27T08:25:26.999Z</time></trkpt><trkpt lat="42.242503218142026" lon="13.814245122663102"><ele>319.25</ele><time>2026-04-27T08:25:27.999Z</time></trkpt><trkpt lat="42.2426079513186" lon="13.81412164351143"><ele>319.5</ele><time>2026-04-27T08:25:28.999Z</time></trkpt><trkpt lat="42.24274921085666" lon="13.814045092147369"><ele>319.75</ele><time>2026-04-27T08:25:29.999Z</time></trkpt><trkpt lat="42.242861364329585" lon="13.813924248065069"><ele>320.0</ele><time>2026-04-27T08:25:30.999Z</time></trkpt><trkpt lat="42.24297265962342" lon="13.81379875074621"><ele>320.0</ele><time>2026-04-27T08:25:31.999Z</time></trkpt><trkpt lat="42.24306444165268" lon="13.813660515638107"><ele>320.0</ele><time>2026-04-27T08:25:32.999Z</time></trkpt><trkpt lat="42.24317448816035" lon="13.813549900761203"><ele>320.0</ele><time>2026-04-27T08:25:33.999Z</time></trkpt><trkpt lat="42.24326091154099" lon="13.813429464108323"><ele>320.0</ele><time>2026-04-27T08:25:34.999Z</time></trkpt><trkpt lat="42.24335091446482" lon="13.813307789160188"><ele>321.25</ele><time>2026-04-27T08:25:35.999Z</time></trkpt><trkpt lat="42.243449082035966" lon="13.813199299666412"><ele>322.5</ele><time>2026-04-27T08:25:36.999Z</time></trkpt><trkpt lat="42.24354775501485" lon="13.813092625741895"><ele>323.75</ele><time>2026-04-27T08:25:37.999Z</time></trkpt><trkpt lat="42.2436400688561" lon="13.81299903514093"><ele>325.0</ele><time>2026-04-27T08:25:38.999Z</time></trkpt><trkpt lat="42.24373376847169" lon="13.812955255644184"><ele>325.0</ele><time>2026-04-27T08:25:39.999Z</time></trkpt><trkpt lat="42.243834544593156" lon="13.81292062009226"><ele>325.0</ele><time>2026-04-27T08:25:40.999Z</time></trkpt><trkpt lat="42.243968090591196" lon="13.812881227767354"><ele>325.0</ele><time>2026-04-27T08:25:41.999Z</time></trkpt><trkpt lat="42.24410267147111" lon="13.812829738361375"><ele>325.0</ele><time>2026-04-27T08:25:42.999Z</time></trkpt><trkpt lat="42.24422167046628" lon="13.812775708890314"><ele>324.0</ele><time>2026-04-27T08:25:43.999Z</time></trkpt><trkpt lat="42.244350428623186" lon="13.812726106741602"><ele>323.0</ele><time>2026-04-27T08:25:44.999Z</time></trkpt><trkpt lat="42.24446586503" lon="13.812680779251819"><ele>322.0</ele><time>2026-04-27T08:25:45.999Z</time></trkpt><trkpt lat="42.24458694806104" lon="13.81263323455098"><ele>321.0</ele><time>2026-04-27T08:25:46.999Z</time></trkpt><trkpt lat="42.244701367654024" lon="13.812574535941147"><ele>321.0</ele><time>2026-04-27T08:25:47.999Z</time></trkpt><trkpt lat="42.24479093368475" lon="13.812502480209368"><ele>321.0</ele><time>2026-04-27T08:25:48.999Z</time></trkpt><trkpt lat="42.244885265514185" lon="13.812419679164368"><ele>321.0</ele><time>2026-04-27T08:25:49.999Z</time></trkpt><trkpt lat="42.244973181859" lon="13.812317188734044"><ele>321.0</ele><time>2026-04-27T08:25:50.999Z</time></trkpt><trkpt lat="42.245035486233725" lon="13.812171227798395"><ele>321.75</ele><time>2026-04-27T08:25:51.999Z</time></trkpt><trkpt lat="42.24505479725775" lon="13.81200839915302"><ele>322.5</ele><time>2026-04-27T08:25:52.999Z</time></trkpt><trkpt lat="42.24507029113451" lon="13.811829335504303"><ele>323.25</ele><time>2026-04-27T08:25:53.999Z</time></trkpt><trkpt lat="42.24511070902942" lon="13.811684342406432"><ele>324.0</ele><time>2026-04-27T08:25:54.999Z</time></trkpt><trkpt lat="42.245161749625865" lon="13.811536855886374"><ele>324.0</ele><time>2026-04-27T08:25:55.999Z</time></trkpt><trkpt lat="42.24522257477556" lon="13.811419275682544"><ele>324.0</ele><time>2026-04-27T08:25:56.999Z</time></trkpt><trkpt lat="42.245319345748484" lon="13.81135319567323"><ele>324.0</ele><time>2026-04-27T08:25:57.999Z</time></trkpt><trkpt lat="42.245415364506336" lon="13.811247282853826"><ele>324.0</ele><time>2026-04-27T08:25:58.999Z</time></trkpt><trkpt lat="42.24552298497522" lon="13.81115756652178"><ele>324.0</ele><time>2026-04-27T08:25:59.999Z</time></trkpt><trkpt lat="42.24561745238127" lon="13.81104860577456"><ele>324.0</ele><time>2026-04-27T08:26:00.999Z</time></trkpt><trkpt lat="42.245736871214696" lon="13.81092088995769"><ele>324.0</ele><time>2026-04-27T08:26:01.999Z</time></trkpt><trkpt lat="42.24583065049484" lon="13.810809130605389"><ele>324.0</ele><time>2026-04-27T08:26:02.999Z</time></trkpt><trkpt lat="42.24593293608162" lon="13.81068591551784"><ele>324.25</ele><time>2026-04-27T08:26:03.999Z</time></trkpt><trkpt lat="42.24601246526383" lon="13.810591228918847"><ele>324.5</ele><time>2026-04-27T08:26:04.999Z</time></trkpt><trkpt lat="42.24612073976264" lon="13.81044011109467"><ele>324.75</ele><time>2026-04-27T08:26:05.999Z</time></trkpt><trkpt lat="42.24621910394518" lon="13.810314361332125"><ele>325.0</ele><time>2026-04-27T08:26:06.999Z</time></trkpt><trkpt lat="42.24629961835735" lon="13.810200474136101"><ele>325.0</ele><time>2026-04-27T08:26:07.999Z</time></trkpt><trkpt lat="42.24636970301036" lon="13.810074087308255"><ele>325.0</ele><time>2026-04-27T08:26:08.999Z</time></trkpt><trkpt lat="42.246434634433456" lon="13.809925098200454"><ele>325.0</ele><time>2026-04-27T08:26:09.999Z</time></trkpt><trkpt lat="42.246482660463684" lon="13.809751320793527"><ele>325.0</ele><time>2026-04-27T08:26:10.999Z</time></trkpt><trkpt lat="42.24653097262388" lon="13.809574146404204"><ele>325.0</ele><time>2026-04-27T08:26:11.999Z</time></trkpt><trkpt lat="42.24657598777421" lon="13.809392984701146"><ele>325.0</ele><time>2026-04-27T08:26:12.999Z</time></trkpt><trkpt lat="42.24662533001621" lon="13.809216724004832"><ele>325.0</ele><time>2026-04-27T08:26:13.999Z</time></trkpt><trkpt lat="42.246672013042094" lon="13.809040761518661"><ele>325.0</ele><time>2026-04-27T08:26:14.999Z</time></trkpt><trkpt lat="42.24672228442266" lon="13.808854794099394"><ele>325.0</ele><time>2026-04-27T08:26:15.999Z</time></trkpt><trkpt lat="42.246770518843796" lon="13.808674706859316"><ele>325.0</ele><time>2026-04-27T08:26:16.999Z</time></trkpt><trkpt lat="42.24680545963901" lon="13.808506746397295"><ele>325.0</ele><time>2026-04-27T08:26:17.999Z</time></trkpt><trkpt lat="42.24682893710225" lon="13.808353509884912"><ele>325.0</ele><time>2026-04-27T08:26:19Z</time></trkpt><trkpt lat="42.24685695558486" lon="13.808206442726382"><ele>325.0</ele><time>2026-04-27T08:26:20Z</time></trkpt><trkpt lat="42.24689880636132" lon="13.808061238949854"><ele>325.0</ele><time>2026-04-27T08:26:21Z</time></trkpt><trkpt lat="42.246979557916596" lon="13.807939974571788"><ele>325.0</ele><time>2026-04-27T08:26:22Z</time></trkpt><trkpt lat="42.24706976413467" lon="13.807817771506803"><ele>325.0</ele><time>2026-04-27T08:26:23Z</time></trkpt><trkpt lat="42.24718433871749" lon="13.807723382175162"><ele>324.5</ele><time>2026-04-27T08:26:24Z</time></trkpt><trkpt lat="42.247291400615595" lon="13.807625141989316"><ele>324.0</ele><time>2026-04-27T08:26:25Z</time></trkpt><trkpt lat="42.24739980126242" lon="13.80753978933896"><ele>323.5</ele><time>2026-04-27T08:26:26Z</time></trkpt><trkpt lat="42.24751739767046" lon="13.807455109347398"><ele>323.0</ele><time>2026-04-27T08:26:27Z</time></trkpt><trkpt lat="42.24762014693947" lon="13.807356853983595"><ele>323.59999999999997</ele><time>2026-04-27T08:26:28Z</time></trkpt><trkpt lat="42.247695879840585" lon="13.807233162011697"><ele>324.2</ele><time>2026-04-27T08:26:29Z</time></trkpt><trkpt lat="42.247727203014776" lon="13.80710278613769"><ele>324.8</ele><time>2026-04-27T08:26:30Z</time></trkpt><trkpt lat="42.2477421977776" lon="13.806987975670891"><ele>325.4</ele><time>2026-04-27T08:26:31Z</time></trkpt><trkpt lat="42.2477554891293" lon="13.806842946392912"><ele>326.0</ele><time>2026-04-27T08:26:32Z</time></trkpt><trkpt lat="42.247788995549094" lon="13.80667884060786"><ele>326.0</ele><time>2026-04-27T08:26:33Z</time></trkpt><trkpt lat="42.247826841516016" lon="13.806532847977701"><ele>326.0</ele><time>2026-04-27T08:26:34Z</time></trkpt><trkpt lat="42.24787102835156" lon="13.806402184485629"><ele>326.0</ele><time>2026-04-27T08:26:35Z</time></trkpt><trkpt lat="42.247942303196396" lon="13.806277246421665"><ele>326.0</ele><time>2026-04-27T08:26:36Z</time></trkpt><trkpt lat="42.248021042444044" lon="13.80613394313087"><ele>326.5</ele><time>2026-04-27T08:26:37Z</time></trkpt><trkpt lat="42.24809457818205" lon="13.80598577314952"><ele>327.0</ele><time>2026-04-27T08:26:38Z</time></trkpt><trkpt lat="42.24814360066985" lon="13.805837754418635"><ele>327.5</ele><time>2026-04-27T08:26:39Z</time></trkpt><trkpt lat="42.24824121918026" lon="13.805715509872542"><ele>328.0</ele><time>2026-04-27T08:26:40Z</time></trkpt><trkpt lat="42.24831565210736" lon="13.805597257173105"><ele>329.4</ele><time>2026-04-27T08:26:41Z</time></trkpt><trkpt lat="42.24837836850085" lon="13.805481988889746"><ele>330.79999999999995</ele><time>2026-04-27T08:26:42Z</time></trkpt><trkpt lat="42.248450835270944" lon="13.805381305660937"><ele>332.2</ele><time>2026-04-27T08:26:43Z</time></trkpt><trkpt lat="42.248536476835866" lon="13.805308184401925"><ele>333.6</ele><time>2026-04-27T08:26:44Z</time></trkpt><trkpt lat="42.24863051057133" lon="13.805248062027058"><ele>335.0</ele><time>2026-04-27T08:26:45Z</time></trkpt><trkpt lat="42.24874117786948" lon="13.805234755039159"><ele>335.0</ele><time>2026-04-27T08:26:46Z</time></trkpt><trkpt lat="42.24884877790111" lon="13.805191282384754"><ele>335.0</ele><time>2026-04-27T08:26:47Z</time></trkpt><trkpt lat="42.248959979916" lon="13.805187319697419"><ele>335.0</ele><time>2026-04-27T08:26:48Z</time></trkpt><trkpt lat="42.24906947741985" lon="13.805143022631317"><ele>335.0</ele><time>2026-04-27T08:26:49Z</time></trkpt><trkpt lat="42.24917082898101" lon="13.805060789252932"><ele>335.4</ele><time>2026-04-27T08:26:50Z</time></trkpt><trkpt lat="42.24924445361557" lon="13.804979627326025"><ele>335.8</ele><time>2026-04-27T08:26:51Z</time></trkpt><trkpt lat="42.24930356095429" lon="13.80487018478109"><ele>336.20000000000005</ele><time>2026-04-27T08:26:52Z</time></trkpt><trkpt lat="42.24936697793133" lon="13.804803636652615"><ele>336.6</ele><time>2026-04-27T08:26:53Z</time></trkpt><trkpt lat="42.24943338518282" lon="13.80476237348005"><ele>337.0</ele><time>2026-04-27T08:26:54Z</time></trkpt><trkpt lat="42.24952703106556" lon="13.804867281457335"><ele>337.0</ele><time>2026-04-27T08:26:56Z</time></trkpt><trkpt lat="42.24960287685265" lon="13.804928574130939"><ele>337.0</ele><time>2026-04-27T08:26:57Z</time></trkpt><trkpt lat="42.24969303061565" lon="13.804985841001987"><ele>337.0</ele><time>2026-04-27T08:26:58Z</time></trkpt><trkpt lat="42.24979207567672" lon="13.805045772258978"><ele>337.0</ele><time>2026-04-27T08:26:59Z</time></trkpt><trkpt lat="42.24991119976921" lon="13.805063200210272"><ele>337.0</ele><time>2026-04-27T08:27:00Z</time></trkpt><trkpt lat="42.25003695317651" lon="13.805047879613568"><ele>337.40000000000003</ele><time>2026-04-27T08:27:01Z</time></trkpt><trkpt lat="42.25016098638329" lon="13.805027692263028"><ele>337.8</ele><time>2026-04-27T08:27:02Z</time></trkpt><trkpt lat="42.250280185196864" lon="13.805010387460188"><ele>338.2</ele><time>2026-04-27T08:27:03Z</time></trkpt><trkpt lat="42.25038447961999" lon="13.804999035109748"><ele>338.6</ele><time>2026-04-27T08:27:04Z</time></trkpt><trkpt lat="42.25047204156932" lon="13.80498861185005"><ele>339.0</ele><time>2026-04-27T08:27:05Z</time></trkpt><trkpt lat="42.25055138366395" lon="13.804982879424271"><ele>340.6666666666667</ele><time>2026-04-27T08:27:06Z</time></trkpt><trkpt lat="42.25062560092995" lon="13.804978013638175"><ele>342.3333333333333</ele><time>2026-04-27T08:27:07Z</time></trkpt><trkpt lat="42.25073522246601" lon="13.804968839761841"><ele>344.0</ele><time>2026-04-27T08:27:09Z</time></trkpt><trkpt lat="42.25083302742693" lon="13.804963620616297"><ele>345.66666666666663</ele><time>2026-04-27T08:27:11Z</time></trkpt><trkpt lat="42.25089879854845" lon="13.804967921919896"><ele>347.3333333333333</ele><time>2026-04-27T08:27:13.999Z</time></trkpt><trkpt lat="42.250968800191814" lon="13.804988949039926"><ele>349.0</ele><time>2026-04-27T08:27:15.999Z</time></trkpt><trkpt lat="42.25104124401032" lon="13.805042580347934"><ele>349.0</ele><time>2026-04-27T08:27:17.999Z</time></trkpt><trkpt lat="42.25111430767043" lon="13.80511411652886"><ele>349.0</ele><time>2026-04-27T08:27:19.999Z</time></trkpt><trkpt lat="42.25116440951286" lon="13.805247620415381"><ele>349.0</ele><time>2026-04-27T08:27:21.999Z</time></trkpt><trkpt lat="42.25116605320989" lon="13.805338320555554"><ele>349.0</ele><time>2026-04-27T08:27:22.999Z</time></trkpt><trkpt lat="42.251174452205895" lon="13.805456873122036"><ele>349.0</ele><time>2026-04-27T08:27:23.999Z</time></trkpt><trkpt lat="42.2511875586708" lon="13.80558811977872"><ele>349.0</ele><time>2026-04-27T08:27:24.999Z</time></trkpt><trkpt lat="42.251199877286126" lon="13.805711477000498"><ele>349.0</ele><time>2026-04-27T08:27:25.999Z</time></trkpt><trkpt lat="42.251221465132744" lon="13.80586040376236"><ele>349.0</ele><time>2026-04-27T08:27:26.999Z</time></trkpt><trkpt lat="42.25125753620876" lon="13.806019787394877"><ele>349.0</ele><time>2026-04-27T08:27:27.999Z</time></trkpt><trkpt lat="42.25132673205419" lon="13.806177434894154"><ele>349.0</ele><time>2026-04-27T08:27:28.999Z</time></trkpt><trkpt lat="42.2513927552739" lon="13.806336068215128"><ele>349.0</ele><time>2026-04-27T08:27:29.999Z</time></trkpt><trkpt lat="42.25146076440043" lon="13.806483933273144"><ele>349.0</ele><time>2026-04-27T08:27:30.999Z</time></trkpt><trkpt lat="42.25153466452954" lon="13.80664263590361"><ele>349.0</ele><time>2026-04-27T08:27:31.999Z</time></trkpt><trkpt lat="42.25161312374233" lon="13.80681543455313"><ele>351.66666666666663</ele><time>2026-04-27T08:27:32.999Z</time></trkpt><trkpt lat="42.25168892542512" lon="13.807000039435197"><ele>354.3333333333333</ele><time>2026-04-27T08:27:33.999Z</time></trkpt><trkpt lat="42.25176886659039" lon="13.807185802039555"><ele>357.0</ele><time>2026-04-27T08:27:34.999Z</time></trkpt><trkpt lat="42.25185799674695" lon="13.807367927304517"><ele>357.0</ele><time>2026-04-27T08:27:35.999Z</time></trkpt><trkpt lat="42.25194394639522" lon="13.807554693881157"><ele>357.0</ele><time>2026-04-27T08:27:36.999Z</time></trkpt><trkpt lat="42.252016096537396" lon="13.807752458432269"><ele>357.0</ele><time>2026-04-27T08:27:37.999Z</time></trkpt><trkpt lat="42.25210166627838" lon="13.807937560604223"><ele>357.0</ele><time>2026-04-27T08:27:38.999Z</time></trkpt><trkpt lat="42.25219830792098" lon="13.808114143127565"><ele>357.0</ele><time>2026-04-27T08:27:39.999Z</time></trkpt><trkpt lat="42.25231215868148" lon="13.808277766141313"><ele>357.0</ele><time>2026-04-27T08:27:40.999Z</time></trkpt><trkpt lat="42.252412321783616" lon="13.808448214867362"><ele>359.25</ele><time>2026-04-27T08:27:41.999Z</time></trkpt><trkpt lat="42.25249731464273" lon="13.80858828556191"><ele>361.5</ele><time>2026-04-27T08:27:42.999Z</time></trkpt><trkpt lat="42.25257481538074" lon="13.808720652342132"><ele>363.75</ele><time>2026-04-27T08:27:43.999Z</time></trkpt><trkpt lat="42.25263769659362" lon="13.80883512678688"><ele>366.0</ele><time>2026-04-27T08:27:44.999Z</time></trkpt><trkpt lat="42.252694070583246" lon="13.808946391149988"><ele>366.0</ele><time>2026-04-27T08:27:45.999Z</time></trkpt><trkpt lat="42.25275125026374" lon="13.809038241397278"><ele>366.0</ele><time>2026-04-27T08:27:46.999Z</time></trkpt><trkpt lat="42.252769884012956" lon="13.809153489597447"><ele>366.0</ele><time>2026-04-27T08:27:47.999Z</time></trkpt><trkpt lat="42.252838254164445" lon="13.809262744097794"><ele>366.0</ele><time>2026-04-27T08:27:48.999Z</time></trkpt><trkpt lat="42.25291798884051" lon="13.809385059076746"><ele>366.0</ele><time>2026-04-27T08:27:49.999Z</time></trkpt><trkpt lat="42.25301260163428" lon="13.809511267130047"><ele>366.5</ele><time>2026-04-27T08:27:50.999Z</time></trkpt><trkpt lat="42.25310872530164" lon="13.809647592549462"><ele>367.0</ele><time>2026-04-27T08:27:51.999Z</time></trkpt><trkpt lat="42.25321624884881" lon="13.809781735538554"><ele>367.5</ele><time>2026-04-27T08:27:52.999Z</time></trkpt><trkpt lat="42.25332964843969" lon="13.809918976212176"><ele>368.0</ele><time>2026-04-27T08:27:53.999Z</time></trkpt><trkpt lat="42.253459431862815" lon="13.81003825016262"><ele>370.0</ele><time>2026-04-27T08:27:54.999Z</time></trkpt><trkpt lat="42.25359327893354" lon="13.8101536618017"><ele>372.0</ele><time>2026-04-27T08:27:55.999Z</time></trkpt><trkpt lat="42.253728832881876" lon="13.810270791725497"><ele>374.0</ele><time>2026-04-27T08:27:56.999Z</time></trkpt><trkpt lat="42.25383041050284" lon="13.810432347610408"><ele>374.0</ele><time>2026-04-27T08:27:57.999Z</time></trkpt><trkpt lat="42.2539403162795" lon="13.810589125342581"><ele>374.0</ele><time>2026-04-27T08:27:58.999Z</time></trkpt><trkpt lat="42.25405300042483" lon="13.810743466502123"><ele>374.0</ele><time>2026-04-27T08:27:59.999Z</time></trkpt><trkpt lat="42.254177240469545" lon="13.810881836655815"><ele>376.0</ele><time>2026-04-27T08:28:00.999Z</time></trkpt><trkpt lat="42.2543205508482" lon="13.810979958604422"><ele>378.0</ele><time>2026-04-27T08:28:01.999Z</time></trkpt><trkpt lat="42.25441447310123" lon="13.811147910239393"><ele>380.0</ele><time>2026-04-27T08:28:02.999Z</time></trkpt><trkpt lat="42.254506908699675" lon="13.811308440224416"><ele>380.2</ele><time>2026-04-27T08:28:03.999Z</time></trkpt><trkpt lat="42.25456886587065" lon="13.811458221988806"><ele>380.4</ele><time>2026-04-27T08:28:04.999Z</time></trkpt><trkpt lat="42.25459907901774" lon="13.811592524601044"><ele>380.6</ele><time>2026-04-27T08:28:05.999Z</time></trkpt><trkpt lat="42.254630058041506" lon="13.811707259413996"><ele>380.8</ele><time>2026-04-27T08:28:06.999Z</time></trkpt><trkpt lat="42.254655415637814" lon="13.811799469915625"><ele>381.0</ele><time>2026-04-27T08:28:07.999Z</time></trkpt><trkpt lat="42.25481991407247" lon="13.811723217946053"><ele>382.6</ele><time>2026-04-27T08:28:10.999Z</time></trkpt><trkpt lat="42.25487412887204" lon="13.811625561850109"><ele>384.20000000000005</ele><time>2026-04-27T08:28:11.999Z</time></trkpt><trkpt lat="42.25493285465541" lon="13.811527642448793"><ele>385.79999999999995</ele><time>2026-04-27T08:28:12.999Z</time></trkpt><trkpt lat="42.25499271661975" lon="13.811403507292145"><ele>387.4</ele><time>2026-04-27T08:28:13.999Z</time></trkpt><trkpt lat="42.25505695367432" lon="13.811269182751621"><ele>389.0</ele><time>2026-04-27T08:28:14.999Z</time></trkpt><trkpt lat="42.255129202189345" lon="13.81112737257511"><ele>388.5</ele><time>2026-04-27T08:28:15.999Z</time></trkpt><trkpt lat="42.255209348284964" lon="13.810973284711144"><ele>388.0</ele><time>2026-04-27T08:28:16.999Z</time></trkpt><trkpt lat="42.25527008990711" lon="13.8108144847341"><ele>387.5</ele><time>2026-04-27T08:28:17.999Z</time></trkpt><trkpt lat="42.25532468627211" lon="13.81065947078831"><ele>387.0</ele><time>2026-04-27T08:28:18.999Z</time></trkpt><trkpt lat="42.255390352369986" lon="13.810524213463212"><ele>387.0</ele><time>2026-04-27T08:28:19.999Z</time></trkpt><trkpt lat="42.2554591839907" lon="13.810381584858682"><ele>387.0</ele><time>2026-04-27T08:28:20.999Z</time></trkpt><trkpt lat="42.25554956751427" lon="13.810244329346382"><ele>387.0</ele><time>2026-04-27T08:28:21.999Z</time></trkpt><trkpt lat="42.25565059884075" lon="13.81011416088715"><ele>387.0</ele><time>2026-04-27T08:28:22.999Z</time></trkpt><trkpt lat="42.25575153689595" lon="13.80997973222562"><ele>387.33333333333337</ele><time>2026-04-27T08:28:23.998Z</time></trkpt><trkpt lat="42.25584849246006" lon="13.809826238846341"><ele>387.6666666666667</ele><time>2026-04-27T08:28:25Z</time></trkpt><trkpt lat="42.25593817022407" lon="13.809656874859645"><ele>388.0</ele><time>2026-04-27T08:28:26Z</time></trkpt><trkpt lat="42.25602923098919" lon="13.809488661996532"><ele>387.33333333333337</ele><time>2026-04-27T08:28:27Z</time></trkpt><trkpt lat="42.256122426193684" lon="13.809313088790226"><ele>386.66666666666663</ele><time>2026-04-27T08:28:28Z</time></trkpt><trkpt lat="42.2562187706118" lon="13.809142796603023"><ele>386.0</ele><time>2026-04-27T08:28:29Z</time></trkpt><trkpt lat="42.25632217283611" lon="13.80899707480594"><ele>386.0</ele><time>2026-04-27T08:28:30Z</time></trkpt><trkpt lat="42.256442512224545" lon="13.808871848156272"><ele>386.0</ele><time>2026-04-27T08:28:31Z</time></trkpt><trkpt lat="42.25656033684448" lon="13.808744720475996"><ele>386.0</ele><time>2026-04-27T08:28:32Z</time></trkpt><trkpt lat="42.25666631002272" lon="13.80862836824409"><ele>386.0</ele><time>2026-04-27T08:28:33Z</time></trkpt><trkpt lat="42.25677256684801" lon="13.80853601199176"><ele>385.0</ele><time>2026-04-27T08:28:34Z</time></trkpt><trkpt lat="42.256878412449495" lon="13.808488895328447"><ele>384.0</ele><time>2026-04-27T08:28:35Z</time></trkpt><trkpt lat="42.25696770269265" lon="13.808395507362802"><ele>383.0</ele><time>2026-04-27T08:28:36Z</time></trkpt><trkpt lat="42.25707609226319" lon="13.808298199657537"><ele>382.0</ele><time>2026-04-27T08:28:37Z</time></trkpt><trkpt lat="42.25719787028024" lon="13.808184626558354"><ele>382.5</ele><time>2026-04-27T08:28:38Z</time></trkpt><trkpt lat="42.25730432987515" lon="13.80807867757603"><ele>383.0</ele><time>2026-04-27T08:28:39Z</time></trkpt><trkpt lat="42.257421333780044" lon="13.80797619767346"><ele>383.5</ele><time>2026-04-27T08:28:40Z</time></trkpt><trkpt lat="42.257538652032004" lon="13.807896916333782"><ele>384.0</ele><time>2026-04-27T08:28:41Z</time></trkpt><trkpt lat="42.25765337128729" lon="13.807818002514718"><ele>384.0</ele><time>2026-04-27T08:28:42Z</time></trkpt><trkpt lat="42.25776466780555" lon="13.807736418218242"><ele>384.0</ele><time>2026-04-27T08:28:43Z</time></trkpt><trkpt lat="42.25786871862333" lon="13.807640292986669"><ele>384.0</ele><time>2026-04-27T08:28:44Z</time></trkpt><trkpt lat="42.257976597889645" lon="13.8075336416547"><ele>384.0</ele><time>2026-04-27T08:28:45Z</time></trkpt><trkpt lat="42.25808461541125" lon="13.807434700968207"><ele>382.5</ele><time>2026-04-27T08:28:46Z</time></trkpt><trkpt lat="42.25821092272171" lon="13.80733979378865"><ele>381.0</ele><time>2026-04-27T08:28:47Z</time></trkpt><trkpt lat="42.25834206901121" lon="13.80727183858272"><ele>379.5</ele><time>2026-04-27T08:28:48Z</time></trkpt><trkpt lat="42.25848312642399" lon="13.807218884995182"><ele>378.0</ele><time>2026-04-27T08:28:49Z</time></trkpt><trkpt lat="42.258622928858955" lon="13.807194231529708"><ele>378.0</ele><time>2026-04-27T08:28:50Z</time></trkpt><trkpt lat="42.25875668006662" lon="13.80715489162434"><ele>378.0</ele><time>2026-04-27T08:28:51Z</time></trkpt><trkpt lat="42.25887935370039" lon="13.807101145177116"><ele>378.0</ele><time>2026-04-27T08:28:52Z</time></trkpt><trkpt lat="42.259004928795925" lon="13.807046209891624"><ele>378.0</ele><time>2026-04-27T08:28:53Z</time></trkpt><trkpt lat="42.25912781302055" lon="13.80698704554389"><ele>377.75</ele><time>2026-04-27T08:28:54Z</time></trkpt><trkpt lat="42.259243089017325" lon="13.806907211631447"><ele>377.5</ele><time>2026-04-27T08:28:55Z</time></trkpt><trkpt lat="42.25937047208271" lon="13.806809175007281"><ele>377.25</ele><time>2026-04-27T08:28:56Z</time></trkpt><trkpt lat="42.259510830784656" lon="13.806719023791425"><ele>377.0</ele><time>2026-04-27T08:28:57Z</time></trkpt><trkpt lat="42.259651746891706" lon="13.80665546412891"><ele>377.0</ele><time>2026-04-27T08:28:58Z</time></trkpt><trkpt lat="42.25978317289483" lon="13.806592417745597"><ele>377.0</ele><time>2026-04-27T08:28:59Z</time></trkpt><trkpt lat="42.259917691611854" lon="13.806522508336633"><ele>377.0</ele><time>2026-04-27T08:29:00Z</time></trkpt><trkpt lat="42.26004399055478" lon="13.806448706617774"><ele>377.0</ele><time>2026-04-27T08:29:01Z</time></trkpt><trkpt lat="42.26016076003556" lon="13.806359669905135"><ele>377.0</ele><time>2026-04-27T08:29:02Z</time></trkpt><trkpt lat="42.2602728969999" lon="13.806234930133119"><ele>377.0</ele><time>2026-04-27T08:29:03Z</time></trkpt><trkpt lat="42.26040326409808" lon="13.806148203161094"><ele>377.0</ele><time>2026-04-27T08:29:04Z</time></trkpt><trkpt lat="42.260525927323854" lon="13.80607214657104"><ele>377.0</ele><time>2026-04-27T08:29:05Z</time></trkpt><trkpt lat="42.26065104238315" lon="13.805990406991759"><ele>376.40000000000003</ele><time>2026-04-27T08:29:06Z</time></trkpt><trkpt lat="42.26076880051199" lon="13.805912678013302"><ele>375.8</ele><time>2026-04-27T08:29:07Z</time></trkpt><trkpt lat="42.260876770941984" lon="13.805846501131677"><ele>375.2</ele><time>2026-04-27T08:29:08Z</time></trkpt><trkpt lat="42.260966570254105" lon="13.80579896976137"><ele>374.6</ele><time>2026-04-27T08:29:09Z</time></trkpt><trkpt lat="42.261046544882184" lon="13.805754146629365"><ele>374.0</ele><time>2026-04-27T08:29:10Z</time></trkpt><trkpt lat="42.26113728478367" lon="13.805725764356783"><ele>374.0</ele><time>2026-04-27T08:29:11Z</time></trkpt><trkpt lat="42.26124121789535" lon="13.805676953057715"><ele>374.0</ele><time>2026-04-27T08:29:12Z</time></trkpt><trkpt lat="42.26136143118227" lon="13.805620495715363"><ele>374.0</ele><time>2026-04-27T08:29:13Z</time></trkpt><trkpt lat="42.26148511273606" lon="13.805563211629709"><ele>374.0</ele><time>2026-04-27T08:29:14Z</time></trkpt><trkpt lat="42.261609109298384" lon="13.805495157008995"><ele>373.25</ele><time>2026-04-27T08:29:15Z</time></trkpt><trkpt lat="42.26173925084137" lon="13.805442912356376"><ele>372.5</ele><time>2026-04-27T08:29:15.999Z</time></trkpt><trkpt lat="42.26187444325804" lon="13.80540795807017"><ele>371.75</ele><time>2026-04-27T08:29:16.999Z</time></trkpt><trkpt lat="42.261995336868196" lon="13.805362840425236"><ele>371.0</ele><time>2026-04-27T08:29:17.999Z</time></trkpt><trkpt lat="42.26209977068714" lon="13.80532700258971"><ele>371.0</ele><time>2026-04-27T08:29:18.999Z</time></trkpt><trkpt lat="42.262191120684776" lon="13.805303689534645"><ele>371.0</ele><time>2026-04-27T08:29:19.999Z</time></trkpt><trkpt lat="42.262254026048105" lon="13.805299707067379"><ele>371.0</ele><time>2026-04-27T08:29:20.999Z</time></trkpt><trkpt lat="42.26232330407591" lon="13.805293022631561"><ele>371.0</ele><time>2026-04-27T08:29:23.999Z</time></trkpt><trkpt lat="42.26244451603894" lon="13.805329139670956"><ele>371.0</ele><time>2026-04-27T08:29:25.999Z</time></trkpt><trkpt lat="42.26252960606263" lon="13.805331302516375"><ele>371.0</ele><time>2026-04-27T08:29:26.999Z</time></trkpt><trkpt lat="42.26265129115209" lon="13.805327544577205"><ele>370.75</ele><time>2026-04-27T08:29:27.999Z</time></trkpt><trkpt lat="42.26278290954945" lon="13.805295970086604"><ele>370.5</ele><time>2026-04-27T08:29:28.999Z</time></trkpt><trkpt lat="42.2629177258078" lon="13.805264581007217"><ele>370.25</ele><time>2026-04-27T08:29:29.999Z</time></trkpt><trkpt lat="42.26307774619722" lon="13.805230444498733"><ele>370.0</ele><time>2026-04-27T08:29:30.999Z</time></trkpt><trkpt lat="42.26323644455819" lon="13.80519693920101"><ele>368.3333333333333</ele><time>2026-04-27T08:29:31.999Z</time></trkpt><trkpt lat="42.26339730227965" lon="13.80515969417402"><ele>366.6666666666667</ele><time>2026-04-27T08:29:32.999Z</time></trkpt><trkpt lat="42.26356534696493" lon="13.80511821808581"><ele>365.0</ele><time>2026-04-27T08:29:33.999Z</time></trkpt><trkpt lat="42.26372930547311" lon="13.8050639047438"><ele>365.0</ele><time>2026-04-27T08:29:34.999Z</time></trkpt><trkpt lat="42.26387832848132" lon="13.805034590366754"><ele>365.0</ele><time>2026-04-27T08:29:35.999Z</time></trkpt><trkpt lat="42.26402974501446" lon="13.805051164974055"><ele>365.0</ele><time>2026-04-27T08:29:36.999Z</time></trkpt><trkpt lat="42.26418573300041" lon="13.805052574276123"><ele>364.0</ele><time>2026-04-27T08:29:37.999Z</time></trkpt><trkpt lat="42.264349355767784" lon="13.805042705196186"><ele>363.0</ele><time>2026-04-27T08:29:38.999Z</time></trkpt><trkpt lat="42.26451395944404" lon="13.80500335431089"><ele>362.0</ele><time>2026-04-27T08:29:39.999Z</time></trkpt><trkpt lat="42.26467910916598" lon="13.804975208775062"><ele>361.0</ele><time>2026-04-27T08:29:40.999Z</time></trkpt><trkpt lat="42.264824280066286" lon="13.80494071522432"><ele>360.0</ele><time>2026-04-27T08:29:41.999Z</time></trkpt><trkpt lat="42.264957189537526" lon="13.8049028815377"><ele>359.0</ele><time>2026-04-27T08:29:42.999Z</time></trkpt><trkpt lat="42.26508217661235" lon="13.804865600525918"><ele>358.0</ele><time>2026-04-27T08:29:43.999Z</time></trkpt><trkpt lat="42.2652071326701" lon="13.804820024974745"><ele>358.0</ele><time>2026-04-27T08:29:44.999Z</time></trkpt><trkpt lat="42.265327971962286" lon="13.804775596122383"><ele>358.0</ele><time>2026-04-27T08:29:45.999Z</time></trkpt><trkpt lat="42.26545160813252" lon="13.8047293853566"><ele>358.0</ele><time>2026-04-27T08:29:46.999Z</time></trkpt><trkpt lat="42.265580433901356" lon="13.804678881576214"><ele>358.0</ele><time>2026-04-27T08:29:47.999Z</time></trkpt><trkpt lat="42.265716819664846" lon="13.804624735701385"><ele>357.5</ele><time>2026-04-27T08:29:48.999Z</time></trkpt><trkpt lat="42.26586475329341" lon="13.804566563101947"><ele>357.0</ele><time>2026-04-27T08:29:49.999Z</time></trkpt><trkpt lat="42.265997937112076" lon="13.804519313637371"><ele>356.5</ele><time>2026-04-27T08:29:50.999Z</time></trkpt><trkpt lat="42.266131485626666" lon="13.804475701061403"><ele>356.0</ele><time>2026-04-27T08:29:51.999Z</time></trkpt><trkpt lat="42.266263399509164" lon="13.804416179409102"><ele>356.0</ele><time>2026-04-27T08:29:52.999Z</time></trkpt><trkpt lat="42.26639303078876" lon="13.804334403574364"><ele>356.0</ele><time>2026-04-27T08:29:53.999Z</time></trkpt><trkpt lat="42.26652509705738" lon="13.804251188318853"><ele>356.0</ele><time>2026-04-27T08:29:54.999Z</time></trkpt><trkpt lat="42.2666398193597" lon="13.80414987660838"><ele>356.0</ele><time>2026-04-27T08:29:55.999Z</time></trkpt><trkpt lat="42.26674156288917" lon="13.804033689228115"><ele>355.75</ele><time>2026-04-27T08:29:56.999Z</time></trkpt><trkpt lat="42.26684681587743" lon="13.80391491740402"><ele>355.5</ele><time>2026-04-27T08:29:57.999Z</time></trkpt><trkpt lat="42.26695343538339" lon="13.803797278113558"><ele>355.25</ele><time>2026-04-27T08:29:58.999Z</time></trkpt><trkpt lat="42.26703717756491" lon="13.803664460014158"><ele>355.0</ele><time>2026-04-27T08:29:59.999Z</time></trkpt><trkpt lat="42.267109968401506" lon="13.803535206496687"><ele>355.4</ele><time>2026-04-27T08:30:00.999Z</time></trkpt><trkpt lat="42.2671716195635" lon="13.803410714068555"><ele>355.8</ele><time>2026-04-27T08:30:01.999Z</time></trkpt><trkpt lat="42.26722878358498" lon="13.803289968665228"><ele>356.20000000000005</ele><time>2026-04-27T08:30:02.999Z</time></trkpt><trkpt lat="42.26727834375901" lon="13.803180071897723"><ele>356.6</ele><time>2026-04-27T08:30:03.999Z</time></trkpt><trkpt lat="42.26732438220765" lon="13.803079840241187"><ele>357.0</ele><time>2026-04-27T08:30:04.999Z</time></trkpt><trkpt lat="42.2673748043178" lon="13.802978734203597"><ele>357.0</ele><time>2026-04-27T08:30:05.999Z</time></trkpt><trkpt lat="42.26742339575215" lon="13.802881299406021"><ele>357.0</ele><time>2026-04-27T08:30:06.999Z</time></trkpt><trkpt lat="42.267461308946" lon="13.80280012008268"><ele>357.0</ele><time>2026-04-27T08:30:07.999Z</time></trkpt><trkpt lat="42.267498437395915" lon="13.80271157060669"><ele>357.0</ele><time>2026-04-27T08:30:09.999Z</time></trkpt><trkpt lat="42.26751371246194" lon="13.802627092818236"><ele>357.0</ele><time>2026-04-27T08:30:11.999Z</time></trkpt><trkpt lat="42.267489987310064" lon="13.802535430881408"><ele>357.0</ele><time>2026-04-27T08:30:12.999Z</time></trkpt><trkpt lat="42.26754684975608" lon="13.802476611765497"><ele>357.0</ele><time>2026-04-27T08:30:13.999Z</time></trkpt><trkpt lat="42.26760122634823" lon="13.802384925621775"><ele>356.25</ele><time>2026-04-27T08:30:14.999Z</time></trkpt><trkpt lat="42.26766498101438" lon="13.802259782753074"><ele>355.5</ele><time>2026-04-27T08:30:15.999Z</time></trkpt><trkpt lat="42.26776957760419" lon="13.802164856463824"><ele>354.75</ele><time>2026-04-27T08:30:16.999Z</time></trkpt><trkpt lat="42.26786704679494" lon="13.80205411696354"><ele>354.0</ele><time>2026-04-27T08:30:17.999Z</time></trkpt><trkpt lat="42.26797509557641" lon="13.801929313510866"><ele>353.6666666666667</ele><time>2026-04-27T08:30:18.999Z</time></trkpt><trkpt lat="42.26807834676689" lon="13.801789555573444"><ele>353.33333333333337</ele><time>2026-04-27T08:30:19.999Z</time></trkpt><trkpt lat="42.2681958052112" lon="13.8016598291309"><ele>353.0</ele><time>2026-04-27T08:30:20.999Z</time></trkpt><trkpt lat="42.26831994808449" lon="13.8015220198099"><ele>353.0</ele><time>2026-04-27T08:30:21.999Z</time></trkpt><trkpt lat="42.26845000483079" lon="13.801390916827797"><ele>353.0</ele><time>2026-04-27T08:30:22.999Z</time></trkpt><trkpt lat="42.26858009648874" lon="13.801250318863463"><ele>353.0</ele><time>2026-04-27T08:30:23.999Z</time></trkpt><trkpt lat="42.268712316744555" lon="13.801106743854072"><ele>352.6666666666667</ele><time>2026-04-27T08:30:24.998Z</time></trkpt><trkpt lat="42.26884045407903" lon="13.800969592105892"><ele>352.3333333333333</ele><time>2026-04-27T08:30:25.998Z</time></trkpt><trkpt lat="42.26896977483691" lon="13.800873963736448"><ele>352.0</ele><time>2026-04-27T08:30:26.998Z</time></trkpt><trkpt lat="42.26909810167407" lon="13.800767860630087"><ele>352.0</ele><time>2026-04-27T08:30:27.998Z</time></trkpt><trkpt lat="42.26923076281032" lon="13.800682887093272"><ele>352.0</ele><time>2026-04-27T08:30:28.998Z</time></trkpt><trkpt lat="42.26934894294784" lon="13.800630951056263"><ele>352.0</ele><time>2026-04-27T08:30:29.998Z</time></trkpt><trkpt lat="42.26948205223314" lon="13.800580319221092"><ele>352.0</ele><time>2026-04-27T08:30:31Z</time></trkpt><trkpt lat="42.2696058658896" lon="13.800503094777072"><ele>352.0</ele><time>2026-04-27T08:30:32Z</time></trkpt><trkpt lat="42.26973040110525" lon="13.800425490777112"><ele>352.0</ele><time>2026-04-27T08:30:33Z</time></trkpt><trkpt lat="42.26984829754951" lon="13.800291588614812"><ele>352.0</ele><time>2026-04-27T08:30:34Z</time></trkpt><trkpt lat="42.26995826204119" lon="13.800136903801516"><ele>350.3333333333333</ele><time>2026-04-27T08:30:35Z</time></trkpt><trkpt lat="42.27007691336636" lon="13.799992208462779"><ele>348.6666666666667</ele><time>2026-04-27T08:30:36Z</time></trkpt><trkpt lat="42.2701969695799" lon="13.799858868095415"><ele>347.0</ele><time>2026-04-27T08:30:37Z</time></trkpt><trkpt lat="42.27032254364508" lon="13.799770658589551"><ele>347.0</ele><time>2026-04-27T08:30:38Z</time></trkpt><trkpt lat="42.27044392368578" lon="13.799672208327584"><ele>347.0</ele><time>2026-04-27T08:30:39Z</time></trkpt><trkpt lat="42.27057065224162" lon="13.799578581094535"><ele>347.0</ele><time>2026-04-27T08:30:40Z</time></trkpt><trkpt lat="42.27069253117989" lon="13.799511103400842"><ele>347.0</ele><time>2026-04-27T08:30:41Z</time></trkpt><trkpt lat="42.27082357679858" lon="13.79945880925273"><ele>348.0</ele><time>2026-04-27T08:30:42Z</time></trkpt><trkpt lat="42.27097287756733" lon="13.799390945512567"><ele>349.0</ele><time>2026-04-27T08:30:43Z</time></trkpt><trkpt lat="42.27113275118204" lon="13.79933885480604"><ele>350.0</ele><time>2026-04-27T08:30:44Z</time></trkpt><trkpt lat="42.27129264900583" lon="13.799273302161787"><ele>349.33333333333337</ele><time>2026-04-27T08:30:45Z</time></trkpt><trkpt lat="42.27144391468564" lon="13.799186621970176"><ele>348.6666666666667</ele><time>2026-04-27T08:30:46Z</time></trkpt><trkpt lat="42.27159898690824" lon="13.799105376267855"><ele>348.0</ele><time>2026-04-27T08:30:47Z</time></trkpt><trkpt lat="42.27175880843372" lon="13.799047014845977"><ele>348.0</ele><time>2026-04-27T08:30:48Z</time></trkpt><trkpt lat="42.271917511933964" lon="13.798955794354272"><ele>348.0</ele><time>2026-04-27T08:30:49Z</time></trkpt><trkpt lat="42.272059869230496" lon="13.79885046258734"><ele>348.0</ele><time>2026-04-27T08:30:50Z</time></trkpt><trkpt lat="42.272197735483076" lon="13.798771832093761"><ele>347.6666666666667</ele><time>2026-04-27T08:30:51Z</time></trkpt><trkpt lat="42.2723369368548" lon="13.798688022072842"><ele>347.33333333333337</ele><time>2026-04-27T08:30:52Z</time></trkpt><trkpt lat="42.27246217648341" lon="13.798593322000889"><ele>347.0</ele><time>2026-04-27T08:30:53Z</time></trkpt><trkpt lat="42.272598007852466" lon="13.798472053573052"><ele>347.0</ele><time>2026-04-27T08:30:54Z</time></trkpt><trkpt lat="42.272732935552625" lon="13.798355347357882"><ele>347.0</ele><time>2026-04-27T08:30:55Z</time></trkpt><trkpt lat="42.27286453417867" lon="13.79824790287851"><ele>347.0</ele><time>2026-04-27T08:30:56Z</time></trkpt><trkpt lat="42.272993644341334" lon="13.798141878916885"><ele>348.25</ele><time>2026-04-27T08:30:57Z</time></trkpt><trkpt lat="42.27312103031491" lon="13.798077682601614"><ele>349.5</ele><time>2026-04-27T08:30:58Z</time></trkpt><trkpt lat="42.27325976268934" lon="13.798004031279472"><ele>350.75</ele><time>2026-04-27T08:30:59Z</time></trkpt><trkpt lat="42.27339026337062" lon="13.797898543624582"><ele>352.0</ele><time>2026-04-27T08:31:00Z</time></trkpt><trkpt lat="42.27353301164078" lon="13.797817050801228"><ele>352.0</ele><time>2026-04-27T08:31:01Z</time></trkpt><trkpt lat="42.27367525449377" lon="13.79772653718281"><ele>352.0</ele><time>2026-04-27T08:31:02Z</time></trkpt><trkpt lat="42.27381959073687" lon="13.797619815623184"><ele>352.0</ele><time>2026-04-27T08:31:03Z</time></trkpt><trkpt lat="42.273956362671285" lon="13.797518747789221"><ele>350.75</ele><time>2026-04-27T08:31:04Z</time></trkpt><trkpt lat="42.27409394196646" lon="13.797438625895849"><ele>349.5</ele><time>2026-04-27T08:31:05Z</time></trkpt><trkpt lat="42.27419954245359" lon="13.79733986891482"><ele>348.25</ele><time>2026-04-27T08:31:06Z</time></trkpt><trkpt lat="42.27430346618317" lon="13.797228813733673"><ele>347.0</ele><time>2026-04-27T08:31:07Z</time></trkpt><trkpt lat="42.274404902270796" lon="13.797105367576775"><ele>347.0</ele><time>2026-04-27T08:31:08Z</time></trkpt><trkpt lat="42.27452765079461" lon="13.797028393328162"><ele>347.0</ele><time>2026-04-27T08:31:09Z</time></trkpt><trkpt lat="42.274647711614556" lon="13.79694578420759"><ele>347.0</ele><time>2026-04-27T08:31:10Z</time></trkpt><trkpt lat="42.27477012358921" lon="13.796856522792284"><ele>347.0</ele><time>2026-04-27T08:31:11Z</time></trkpt><trkpt lat="42.27488948629284" lon="13.796767227217762"><ele>347.0</ele><time>2026-04-27T08:31:12Z</time></trkpt><trkpt lat="42.27498335200538" lon="13.79667690725518"><ele>347.0</ele><time>2026-04-27T08:31:13Z</time></trkpt><trkpt lat="42.27508451978844" lon="13.796629040120035"><ele>347.0</ele><time>2026-04-27T08:31:14Z</time></trkpt><trkpt lat="42.27516562832255" lon="13.796517597472075"><ele>347.0</ele><time>2026-04-27T08:31:15Z</time></trkpt><trkpt lat="42.27524791277996" lon="13.79640153372784"><ele>347.0</ele><time>2026-04-27T08:31:15.999Z</time></trkpt><trkpt lat="42.275349618489756" lon="13.796318926709946"><ele>347.0</ele><time>2026-04-27T08:31:16.999Z</time></trkpt><trkpt lat="42.27546101893843" lon="13.79626096207626"><ele>347.0</ele><time>2026-04-27T08:31:17.999Z</time></trkpt><trkpt lat="42.275581191984585" lon="13.796233217880268"><ele>347.0</ele><time>2026-04-27T08:31:18.999Z</time></trkpt><trkpt lat="42.27569591122574" lon="13.796180168956594"><ele>347.0</ele><time>2026-04-27T08:31:19.999Z</time></trkpt><trkpt lat="42.27580661320005" lon="13.796132079221648"><ele>347.0</ele><time>2026-04-27T08:31:20.999Z</time></trkpt><trkpt lat="42.2759018818533" lon="13.796025250695264"><ele>347.0</ele><time>2026-04-27T08:31:21.999Z</time></trkpt><trkpt lat="42.27599803590704" lon="13.795921892102482"><ele>347.0</ele><time>2026-04-27T08:31:22.999Z</time></trkpt><trkpt lat="42.276099440088" lon="13.795804555959535"><ele>347.0</ele><time>2026-04-27T08:31:23.999Z</time></trkpt><trkpt lat="42.27620326143881" lon="13.795679208996807"><ele>347.0</ele><time>2026-04-27T08:31:24.999Z</time></trkpt><trkpt lat="42.276306132483136" lon="13.795565650702182"><ele>347.0</ele><time>2026-04-27T08:31:25.999Z</time></trkpt><trkpt lat="42.2764050117029" lon="13.79545207946899"><ele>347.0</ele><time>2026-04-27T08:31:26.999Z</time></trkpt><trkpt lat="42.27652571090534" lon="13.79537916714692"><ele>347.25</ele><time>2026-04-27T08:31:27.999Z</time></trkpt><trkpt lat="42.27664254324125" lon="13.79531255828951"><ele>347.5</ele><time>2026-04-27T08:31:28.999Z</time></trkpt><trkpt lat="42.276760286238854" lon="13.795263145189528"><ele>347.75</ele><time>2026-04-27T08:31:29.999Z</time></trkpt><trkpt lat="42.2768900047489" lon="13.795198002549029"><ele>348.0</ele><time>2026-04-27T08:31:30.999Z</time></trkpt><trkpt lat="42.27701840766488" lon="13.79516208349191"><ele>348.0</ele><time>2026-04-27T08:31:31.999Z</time></trkpt><trkpt lat="42.27715589094404" lon="13.795156564308206"><ele>348.0</ele><time>2026-04-27T08:31:32.999Z</time></trkpt><trkpt lat="42.27728760248381" lon="13.79512182036863"><ele>348.0</ele><time>2026-04-27T08:31:33.999Z</time></trkpt><trkpt lat="42.27741791053159" lon="13.795113715305533"><ele>348.0</ele><time>2026-04-27T08:31:34.999Z</time></trkpt><trkpt lat="42.27754592667752" lon="13.795086970191406"><ele>348.25</ele><time>2026-04-27T08:31:35.999Z</time></trkpt><trkpt lat="42.27766923790008" lon="13.795070941991376"><ele>348.5</ele><time>2026-04-27T08:31:36.999Z</time></trkpt><trkpt lat="42.277797894690984" lon="13.79510840131348"><ele>348.75</ele><time>2026-04-27T08:31:37.999Z</time></trkpt><trkpt lat="42.277919529546644" lon="13.795140030208946"><ele>349.0</ele><time>2026-04-27T08:31:38.999Z</time></trkpt><trkpt lat="42.27804896408955" lon="13.795183475279659"><ele>350.5</ele><time>2026-04-27T08:31:39.999Z</time></trkpt><trkpt lat="42.278182852917226" lon="13.795202699767655"><ele>352.0</ele><time>2026-04-27T08:31:40.999Z</time></trkpt><trkpt lat="42.27831913968771" lon="13.795238876192569"><ele>353.5</ele><time>2026-04-27T08:31:41.999Z</time></trkpt><trkpt lat="42.27846131300184" lon="13.795266980941454"><ele>355.0</ele><time>2026-04-27T08:31:42.999Z</time></trkpt><trkpt lat="42.2785932885232" lon="13.79529544768765"><ele>355.0</ele><time>2026-04-27T08:31:43.999Z</time></trkpt><trkpt lat="42.27870952196027" lon="13.795305452120258"><ele>355.0</ele><time>2026-04-27T08:31:44.999Z</time></trkpt><trkpt lat="42.278820192781055" lon="13.79530655378488"><ele>355.0</ele><time>2026-04-27T08:31:45.999Z</time></trkpt><trkpt lat="42.27892613481354" lon="13.79527892833792"><ele>355.0</ele><time>2026-04-27T08:31:46.999Z</time></trkpt><trkpt lat="42.27904740872909" lon="13.79522734575983"><ele>354.25</ele><time>2026-04-27T08:31:47.999Z</time></trkpt><trkpt lat="42.27917366888038" lon="13.795202377790224"><ele>353.5</ele><time>2026-04-27T08:31:48.999Z</time></trkpt><trkpt lat="42.279292487825636" lon="13.795161645236734"><ele>352.75</ele><time>2026-04-27T08:31:49.999Z</time></trkpt><trkpt lat="42.27941209356862" lon="13.7951199794336"><ele>352.0</ele><time>2026-04-27T08:31:50.999Z</time></trkpt><trkpt lat="42.27952645144095" lon="13.795048035157395"><ele>350.0</ele><time>2026-04-27T08:31:51.999Z</time></trkpt><trkpt lat="42.2796131714964" lon="13.794951653590548"><ele>348.0</ele><time>2026-04-27T08:31:52.999Z</time></trkpt><trkpt lat="42.27970015455842" lon="13.794876756429524"><ele>346.0</ele><time>2026-04-27T08:31:53.999Z</time></trkpt><trkpt lat="42.27979115056182" lon="13.794790385481177"><ele>344.0</ele><time>2026-04-27T08:31:54.999Z</time></trkpt><trkpt lat="42.27988640687559" lon="13.794698332643518"><ele>342.0</ele><time>2026-04-27T08:31:55.999Z</time></trkpt><trkpt lat="42.27998855230809" lon="13.794606261125853"><ele>342.0</ele><time>2026-04-27T08:31:56.999Z</time></trkpt><trkpt lat="42.28009572568937" lon="13.794512647202023"><ele>342.0</ele><time>2026-04-27T08:31:57.999Z</time></trkpt><trkpt lat="42.28020781765289" lon="13.794411162632692"><ele>342.0</ele><time>2026-04-27T08:31:58.999Z</time></trkpt><trkpt lat="42.280321314204876" lon="13.794310022763284"><ele>342.0</ele><time>2026-04-27T08:31:59.999Z</time></trkpt><trkpt lat="42.280437869045095" lon="13.794203861416017"><ele>342.0</ele><time>2026-04-27T08:32:00.999Z</time></trkpt><trkpt lat="42.28055415307482" lon="13.79409966646951"><ele>342.0</ele><time>2026-04-27T08:32:01.999Z</time></trkpt><trkpt lat="42.28067242304693" lon="13.79400303595812"><ele>342.0</ele><time>2026-04-27T08:32:02.999Z</time></trkpt><trkpt lat="42.28080351184069" lon="13.793933764597167"><ele>342.0</ele><time>2026-04-27T08:32:03.999Z</time></trkpt><trkpt lat="42.280928503789916" lon="13.793853748829461"><ele>342.0</ele><time>2026-04-27T08:32:04.999Z</time></trkpt><trkpt lat="42.28105655052179" lon="13.793782961850068"><ele>342.0</ele><time>2026-04-27T08:32:05.999Z</time></trkpt><trkpt lat="42.28118169337604" lon="13.79370038898297"><ele>342.0</ele><time>2026-04-27T08:32:06.999Z</time></trkpt><trkpt lat="42.2813101551746" lon="13.79364126732405"><ele>342.0</ele><time>2026-04-27T08:32:07.999Z</time></trkpt><trkpt lat="42.28143561527618" lon="13.793569881546462"><ele>342.0</ele><time>2026-04-27T08:32:08.999Z</time></trkpt><trkpt lat="42.281560154869545" lon="13.793499035294722"><ele>342.0</ele><time>2026-04-27T08:32:09.999Z</time></trkpt><trkpt lat="42.281684992471824" lon="13.7934270161907"><ele>342.0</ele><time>2026-04-27T08:32:10.999Z</time></trkpt><trkpt lat="42.28180968972407" lon="13.793340545557193"><ele>342.0</ele><time>2026-04-27T08:32:11.999Z</time></trkpt><trkpt lat="42.28193279074597" lon="13.793234111374915"><ele>342.0</ele><time>2026-04-27T08:32:12.999Z</time></trkpt><trkpt lat="42.28205199630378" lon="13.793136960654644"><ele>342.0</ele><time>2026-04-27T08:32:13.999Z</time></trkpt><trkpt lat="42.282167248706756" lon="13.793030219516156"><ele>342.0</ele><time>2026-04-27T08:32:14.999Z</time></trkpt><trkpt lat="42.28227598812453" lon="13.792930404349343"><ele>342.0</ele><time>2026-04-27T08:32:15.999Z</time></trkpt><trkpt lat="42.282378281921304" lon="13.792815074987933"><ele>342.25</ele><time>2026-04-27T08:32:16.999Z</time></trkpt><trkpt lat="42.282466666772955" lon="13.792695034204584"><ele>342.5</ele><time>2026-04-27T08:32:17.999Z</time></trkpt><trkpt lat="42.28254852490335" lon="13.792585587850024"><ele>342.75</ele><time>2026-04-27T08:32:18.999Z</time></trkpt><trkpt lat="42.28260638445588" lon="13.792457151827461"><ele>343.0</ele><time>2026-04-27T08:32:19.999Z</time></trkpt><trkpt lat="42.28263795124818" lon="13.792325774987754"><ele>343.0</ele><time>2026-04-27T08:32:20.999Z</time></trkpt><trkpt lat="42.28267150197342" lon="13.792216043314701"><ele>343.0</ele><time>2026-04-27T08:32:21.999Z</time></trkpt><trkpt lat="42.28272846152981" lon="13.79213825626995"><ele>343.0</ele><time>2026-04-27T08:32:22.998Z</time></trkpt><trkpt lat="42.28278663597229" lon="13.792076808875239"><ele>343.0</ele><time>2026-04-27T08:32:23.998Z</time></trkpt><trkpt lat="42.28287095846932" lon="13.791992669294782"><ele>343.0</ele><time>2026-04-27T08:32:25.998Z</time></trkpt><trkpt lat="42.282956350613574" lon="13.791938359266886"><ele>343.0</ele><time>2026-04-27T08:32:27.998Z</time></trkpt><trkpt lat="42.28304871038772" lon="13.79182973729257"><ele>343.66666666666663</ele><time>2026-04-27T08:32:29.998Z</time></trkpt><trkpt lat="42.2831470374054" lon="13.791769241941997"><ele>344.3333333333333</ele><time>2026-04-27T08:32:31.998Z</time></trkpt><trkpt lat="42.28323200318248" lon="13.791697995036055"><ele>345.0</ele><time>2026-04-27T08:32:33.998Z</time></trkpt><trkpt lat="42.28328679214466" lon="13.791653097112587"><ele>345.6666666666667</ele><time>2026-04-27T08:32:34.998Z</time></trkpt><trkpt lat="42.28334138996996" lon="13.791608567360214"><ele>346.33333333333337</ele><time>2026-04-27T08:32:35.998Z</time></trkpt><trkpt lat="42.28342284972653" lon="13.791542129104874"><ele>347.0</ele><time>2026-04-27T08:32:38Z</time></trkpt><trkpt lat="42.28350558253545" lon="13.791474652554122"><ele>347.0</ele><time>2026-04-27T08:32:40Z</time></trkpt><trkpt lat="42.28355949964587" lon="13.791430677944403"><ele>347.0</ele><time>2026-04-27T08:32:41Z</time></trkpt><trkpt lat="42.28364434026805" lon="13.791361482290785"><ele>347.0</ele><time>2026-04-27T08:32:43Z</time></trkpt><trkpt lat="42.28369549441105" lon="13.791295237503935"><ele>347.0</ele><time>2026-04-27T08:32:46Z</time></trkpt><trkpt lat="42.283758298040794" lon="13.791270124431634"><ele>347.0</ele><time>2026-04-27T08:32:48Z</time></trkpt><trkpt lat="42.283633611510695" lon="13.79108139227142"><ele>347.20000000000005</ele><time>2026-04-27T08:32:50Z</time></trkpt><trkpt lat="42.28355999780471" lon="13.791000628286822"><ele>347.4</ele><time>2026-04-27T08:32:51Z</time></trkpt><trkpt lat="42.283474961097205" lon="13.79094593516755"><ele>347.6</ele><time>2026-04-27T08:32:52Z</time></trkpt><trkpt lat="42.283385039467625" lon="13.79085044202949"><ele>347.79999999999995</ele><time>2026-04-27T08:32:53Z</time></trkpt><trkpt lat="42.2832887831588" lon="13.790740108035264"><ele>348.0</ele><time>2026-04-27T08:32:54Z</time></trkpt><trkpt lat="42.28321899827812" lon="13.790606408783121"><ele>348.0</ele><time>2026-04-27T08:32:55Z</time></trkpt><trkpt lat="42.28315249082135" lon="13.790508905179964"><ele>348.0</ele><time>2026-04-27T08:32:56Z</time></trkpt><trkpt lat="42.283088711206766" lon="13.790437327784161"><ele>348.0</ele><time>2026-04-27T08:32:57Z</time></trkpt><trkpt lat="42.28305224165989" lon="13.790363364603458"><ele>348.0</ele><time>2026-04-27T08:32:58Z</time></trkpt><trkpt lat="42.283059651320386" lon="13.790218356851362"><ele>348.0</ele><time>2026-04-27T08:33:00Z</time></trkpt><trkpt lat="42.283073248214976" lon="13.790129316909699"><ele>348.0</ele><time>2026-04-27T08:33:01Z</time></trkpt><trkpt lat="42.28307248534485" lon="13.790009485604525"><ele>348.0</ele><time>2026-04-27T08:33:02Z</time></trkpt><trkpt lat="42.28308070659062" lon="13.78988983306304"><ele>348.0</ele><time>2026-04-27T08:33:03Z</time></trkpt><trkpt lat="42.28308808367873" lon="13.789791898619637"><ele>348.0</ele><time>2026-04-27T08:33:04Z</time></trkpt><trkpt lat="42.28309280991262" lon="13.789697478038482"><ele>348.0</ele><time>2026-04-27T08:33:05Z</time></trkpt><trkpt lat="42.283122328821044" lon="13.789584579706736"><ele>348.0</ele><time>2026-04-27T08:33:06Z</time></trkpt><trkpt lat="42.2830545630765" lon="13.789521186023276"><ele>348.0</ele><time>2026-04-27T08:33:07Z</time></trkpt><trkpt lat="42.28303738759573" lon="13.789416978637218"><ele>347.25</ele><time>2026-04-27T08:33:08Z</time></trkpt><trkpt lat="42.28296982964634" lon="13.789400324101768"><ele>346.5</ele><time>2026-04-27T08:33:09Z</time></trkpt><trkpt lat="42.28295402219302" lon="13.789307276602381"><ele>345.75</ele><time>2026-04-27T08:33:10Z</time></trkpt><trkpt lat="42.28293970751695" lon="13.789209078688758"><ele>345.0</ele><time>2026-04-27T08:33:11Z</time></trkpt><trkpt lat="42.28329276737469" lon="13.788942709508213"><ele>345.0</ele><time>2026-04-27T08:33:12Z</time></trkpt><trkpt lat="42.28333252424258" lon="13.788823595866841"><ele>345.0</ele><time>2026-04-27T08:33:13Z</time></trkpt><trkpt lat="42.28335754948206" lon="13.788702392102591"><ele>345.0</ele><time>2026-04-27T08:33:14Z</time></trkpt><trkpt lat="42.28337874385991" lon="13.788572172233968"><ele>345.0</ele><time>2026-04-27T08:33:15Z</time></trkpt><trkpt lat="42.28339448746517" lon="13.788436072987178"><ele>345.0</ele><time>2026-04-27T08:33:16Z</time></trkpt><trkpt lat="42.28340475020555" lon="13.788312409172764"><ele>344.0</ele><time>2026-04-27T08:33:17Z</time></trkpt><trkpt lat="42.28339869223269" lon="13.788163975610425"><ele>343.0</ele><time>2026-04-27T08:33:18Z</time></trkpt><trkpt lat="42.283375331347294" lon="13.78800424325746"><ele>342.0</ele><time>2026-04-27T08:33:19Z</time></trkpt><trkpt lat="42.28333290695063" lon="13.787849022189743"><ele>341.0</ele><time>2026-04-27T08:33:19.999Z</time></trkpt><trkpt lat="42.283274969629545" lon="13.787697879654159"><ele>341.0</ele><time>2026-04-27T08:33:20.999Z</time></trkpt><trkpt lat="42.283208500242196" lon="13.787574507473963"><ele>341.0</ele><time>2026-04-27T08:33:21.999Z</time></trkpt><trkpt lat="42.28314438051311" lon="13.787475282244097"><ele>341.0</ele><time>2026-04-27T08:33:22.999Z</time></trkpt><trkpt lat="42.28308882974654" lon="13.78738809571438"><ele>341.0</ele><time>2026-04-27T08:33:23.999Z</time></trkpt><trkpt lat="42.283035474864526" lon="13.78730671535062"><ele>341.0</ele><time>2026-04-27T08:33:24.999Z</time></trkpt><trkpt lat="42.28299298740664" lon="13.787227098698674"><ele>341.0</ele><time>2026-04-27T08:33:25.999Z</time></trkpt><trkpt lat="42.28294704949679" lon="13.78713492645481"><ele>341.0</ele><time>2026-04-27T08:33:26.999Z</time></trkpt><trkpt lat="42.282891460638375" lon="13.78702501445431"><ele>341.0</ele><time>2026-04-27T08:33:27.999Z</time></trkpt><trkpt lat="42.28283115761102" lon="13.786906285842397"><ele>341.0</ele><time>2026-04-27T08:33:28.999Z</time></trkpt><trkpt lat="42.28277336594012" lon="13.786772393154788"><ele>341.0</ele><time>2026-04-27T08:33:29.999Z</time></trkpt><trkpt lat="42.28271082327679" lon="13.786634409911922"><ele>341.0</ele><time>2026-04-27T08:33:30.999Z</time></trkpt><trkpt lat="42.28265321616847" lon="13.786494578782744"><ele>341.0</ele><time>2026-04-27T08:33:31.999Z</time></trkpt><trkpt lat="42.282595628433" lon="13.786335792639868"><ele>341.0</ele><time>2026-04-27T08:33:32.999Z</time></trkpt><trkpt lat="42.28253101739734" lon="13.786151337744414"><ele>341.0</ele><time>2026-04-27T08:33:33.999Z</time></trkpt><trkpt lat="42.282467845567005" lon="13.785947924720054"><ele>341.0</ele><time>2026-04-27T08:33:34.999Z</time></trkpt><trkpt lat="42.28239453406392" lon="13.785736508508661"><ele>340.6666666666667</ele><time>2026-04-27T08:33:35.999Z</time></trkpt><trkpt lat="42.28232667817649" lon="13.785527561662954"><ele>340.3333333333333</ele><time>2026-04-27T08:33:36.999Z</time></trkpt><trkpt lat="42.28226841439711" lon="13.785304862743766"><ele>340.0</ele><time>2026-04-27T08:33:37.999Z</time></trkpt><trkpt lat="42.28220599723023" lon="13.78506777187004"><ele>340.0</ele><time>2026-04-27T08:33:38.999Z</time></trkpt><trkpt lat="42.28214447253317" lon="13.784824488335216"><ele>340.0</ele><time>2026-04-27T08:33:39.999Z</time></trkpt><trkpt lat="42.28208579740414" lon="13.784579448599011"><ele>340.0</ele><time>2026-04-27T08:33:40.999Z</time></trkpt><trkpt lat="42.28202292677206" lon="13.784326073135572"><ele>340.0</ele><time>2026-04-27T08:33:41.999Z</time></trkpt><trkpt lat="42.281960583147" lon="13.784069324531913"><ele>340.0</ele><time>2026-04-27T08:33:42.999Z</time></trkpt><trkpt lat="42.281898534355975" lon="13.783811323487784"><ele>340.0</ele><time>2026-04-27T08:33:43.999Z</time></trkpt><trkpt lat="42.28183727187704" lon="13.783554059294111"><ele>339.66666666666663</ele><time>2026-04-27T08:33:44.999Z</time></trkpt><trkpt lat="42.28177254313201" lon="13.783295948274926"><ele>339.3333333333333</ele><time>2026-04-27T08:33:45.999Z</time></trkpt><trkpt lat="42.281692793736646" lon="13.783036962203896"><ele>339.0</ele><time>2026-04-27T08:33:46.999Z</time></trkpt><trkpt lat="42.28160897568054" lon="13.78278139014619"><ele>340.0</ele><time>2026-04-27T08:33:47.999Z</time></trkpt><trkpt lat="42.281515946676144" lon="13.782528828309855"><ele>341.0</ele><time>2026-04-27T08:33:48.999Z</time></trkpt><trkpt lat="42.2814209192136" lon="13.782278830887197"><ele>342.0</ele><time>2026-04-27T08:33:49.999Z</time></trkpt><trkpt lat="42.281332460782345" lon="13.782023090331503"><ele>342.0</ele><time>2026-04-27T08:33:50.999Z</time></trkpt><trkpt lat="42.281250075159726" lon="13.781769918026374"><ele>342.0</ele><time>2026-04-27T08:33:51.999Z</time></trkpt><trkpt lat="42.28117367233351" lon="13.78153290766258"><ele>342.0</ele><time>2026-04-27T08:33:52.999Z</time></trkpt><trkpt lat="42.281097212434965" lon="13.781300539563027"><ele>342.0</ele><time>2026-04-27T08:33:53.999Z</time></trkpt><trkpt lat="42.28102002613358" lon="13.781062521116178"><ele>342.0</ele><time>2026-04-27T08:33:54.999Z</time></trkpt><trkpt lat="42.280957597202274" lon="13.780812065624804"><ele>342.0</ele><time>2026-04-27T08:33:55.999Z</time></trkpt><trkpt lat="42.28089300212716" lon="13.780554569541147"><ele>341.6666666666667</ele><time>2026-04-27T08:33:56.999Z</time></trkpt><trkpt lat="42.28083728754736" lon="13.780322676804158"><ele>341.33333333333337</ele><time>2026-04-27T08:33:57.999Z</time></trkpt><trkpt lat="42.28079151712779" lon="13.78011538913044"><ele>341.0</ele><time>2026-04-27T08:33:58.999Z</time></trkpt><trkpt lat="42.280748502590555" lon="13.779926720430964"><ele>342.0</ele><time>2026-04-27T08:33:59.999Z</time></trkpt><trkpt lat="42.2806850276152" lon="13.779742741082924"><ele>343.0</ele><time>2026-04-27T08:34:00.999Z</time></trkpt><trkpt lat="42.28060618463661" lon="13.779545351412253"><ele>344.0</ele><time>2026-04-27T08:34:01.999Z</time></trkpt><trkpt lat="42.28051839401199" lon="13.779349432561228"><ele>344.5</ele><time>2026-04-27T08:34:02.999Z</time></trkpt><trkpt lat="42.28044984576876" lon="13.77916852912779"><ele>345.0</ele><time>2026-04-27T08:34:03.999Z</time></trkpt><trkpt lat="42.280408388359156" lon="13.77901085918086"><ele>345.5</ele><time>2026-04-27T08:34:04.999Z</time></trkpt><trkpt lat="42.2803808621127" lon="13.778833987325916"><ele>346.0</ele><time>2026-04-27T08:34:05.999Z</time></trkpt><trkpt lat="42.28035704207521" lon="13.778644491948176"><ele>345.66666666666663</ele><time>2026-04-27T08:34:06.999Z</time></trkpt><trkpt lat="42.280327758357814" lon="13.778430910349224"><ele>345.3333333333333</ele><time>2026-04-27T08:34:07.999Z</time></trkpt><trkpt lat="42.28030560566846" lon="13.778224591721568"><ele>345.0</ele><time>2026-04-27T08:34:08.999Z</time></trkpt><trkpt lat="42.28028543415649" lon="13.778004061042145"><ele>345.0</ele><time>2026-04-27T08:34:09.999Z</time></trkpt><trkpt lat="42.28026533321052" lon="13.777774200052953"><ele>345.0</ele><time>2026-04-27T08:34:10.999Z</time></trkpt><trkpt lat="42.28023161324941" lon="13.777542976900865"><ele>345.0</ele><time>2026-04-27T08:34:11.999Z</time></trkpt><trkpt lat="42.28019587176821" lon="13.777315168354036"><ele>345.3333333333333</ele><time>2026-04-27T08:34:12.999Z</time></trkpt><trkpt lat="42.280163144941156" lon="13.777088410103891"><ele>345.66666666666663</ele><time>2026-04-27T08:34:13.999Z</time></trkpt><trkpt lat="42.28011871420738" lon="13.776865342026506"><ele>346.0</ele><time>2026-04-27T08:34:14.999Z</time></trkpt><trkpt lat="42.2800700051218" lon="13.776644968452961"><ele>346.0</ele><time>2026-04-27T08:34:15.999Z</time></trkpt><trkpt lat="42.28002657626302" lon="13.776412036385624"><ele>346.0</ele><time>2026-04-27T08:34:16.999Z</time></trkpt><trkpt lat="42.27999463208019" lon="13.776189217946797"><ele>346.0</ele><time>2026-04-27T08:34:17.999Z</time></trkpt><trkpt lat="42.27997184719471" lon="13.77598804959397"><ele>346.25</ele><time>2026-04-27T08:34:18.999Z</time></trkpt><trkpt lat="42.279959854837074" lon="13.77580163746681"><ele>346.5</ele><time>2026-04-27T08:34:19.999Z</time></trkpt><trkpt lat="42.279961904491124" lon="13.775631436585597"><ele>346.75</ele><time>2026-04-27T08:34:20.999Z</time></trkpt><trkpt lat="42.27997442993905" lon="13.775485385444439"><ele>347.0</ele><time>2026-04-27T08:34:21.999Z</time></trkpt><trkpt lat="42.28001270704252" lon="13.775379350084476"><ele>347.0</ele><time>2026-04-27T08:34:23.999Z</time></trkpt><trkpt lat="42.28006826914759" lon="13.775338512805543"><ele>347.0</ele><time>2026-04-27T08:34:24.998Z</time></trkpt><trkpt lat="42.28014396031155" lon="13.775286221555492"><ele>347.0</ele><time>2026-04-27T08:34:25.998Z</time></trkpt><trkpt lat="42.28023671403211" lon="13.775239948412645"><ele>347.0</ele><time>2026-04-27T08:34:26.998Z</time></trkpt><trkpt lat="42.28033634469824" lon="13.775182567965961"><ele>347.0</ele><time>2026-04-27T08:34:27.998Z</time></trkpt><trkpt lat="42.280435227115305" lon="13.77511551579708"><ele>347.0</ele><time>2026-04-27T08:34:28.998Z</time></trkpt><trkpt lat="42.28054542679872" lon="13.775041616496884"><ele>347.0</ele><time>2026-04-27T08:34:29.998Z</time></trkpt><trkpt lat="42.28066336433246" lon="13.774960058210896"><ele>347.0</ele><time>2026-04-27T08:34:30.998Z</time></trkpt><trkpt lat="42.280788142783" lon="13.77487942618831"><ele>347.0</ele><time>2026-04-27T08:34:31.998Z</time></trkpt><trkpt lat="42.28091728671333" lon="13.77479322224353"><ele>347.0</ele><time>2026-04-27T08:34:32.998Z</time></trkpt><trkpt lat="42.281042398972396" lon="13.77470720713967"><ele>347.0</ele><time>2026-04-27T08:34:33.998Z</time></trkpt><trkpt lat="42.28116753022549" lon="13.774621971704507"><ele>347.0</ele><time>2026-04-27T08:34:34.998Z</time></trkpt><trkpt lat="42.281281225801244" lon="13.77455189876728"><ele>347.0</ele><time>2026-04-27T08:34:35.998Z</time></trkpt><trkpt lat="42.281380848734734" lon="13.774496581245492"><ele>347.33333333333337</ele><time>2026-04-27T08:34:36.998Z</time></trkpt><trkpt lat="42.281466215624754" lon="13.774446164172408"><ele>347.6666666666667</ele><time>2026-04-27T08:34:37.998Z</time></trkpt><trkpt lat="42.28153046656082" lon="13.774408406461278"><ele>348.0</ele><time>2026-04-27T08:34:38.998Z</time></trkpt><trkpt lat="42.281599782862536" lon="13.774377221777549"><ele>348.3333333333333</ele><time>2026-04-27T08:34:40.998Z</time></trkpt><trkpt lat="42.28169054318437" lon="13.774430961757767"><ele>348.66666666666663</ele><time>2026-04-27T08:34:43Z</time></trkpt><trkpt lat="42.2817478638439" lon="13.774540098234537"><ele>349.0</ele><time>2026-04-27T08:34:44Z</time></trkpt><trkpt lat="42.281840495496105" lon="13.774554801546206"><ele>349.0</ele><time>2026-04-27T08:34:45Z</time></trkpt><trkpt lat="42.28191486007212" lon="13.774581939105005"><ele>349.0</ele><time>2026-04-27T08:34:46Z</time></trkpt><trkpt lat="42.282000099506924" lon="13.7746088426546"><ele>349.0</ele><time>2026-04-27T08:34:47Z</time></trkpt><trkpt lat="42.28209542727749" lon="13.774628763816589"><ele>349.0</ele><time>2026-04-27T08:34:48Z</time></trkpt><trkpt lat="42.28218854480737" lon="13.774630738514078"><ele>349.0</ele><time>2026-04-27T08:34:49Z</time></trkpt><trkpt lat="42.2822781637435" lon="13.774659381728059"><ele>349.0</ele><time>2026-04-27T08:34:50Z</time></trkpt><trkpt lat="42.28238019648345" lon="13.774696691046218"><ele>348.8333333333333</ele><time>2026-04-27T08:34:51Z</time></trkpt><trkpt lat="42.282464022452096" lon="13.774716287934039"><ele>348.66666666666663</ele><time>2026-04-27T08:34:52Z</time></trkpt><trkpt lat="42.28255928050018" lon="13.774781982950785"><ele>348.5</ele><time>2026-04-27T08:34:54Z</time></trkpt><trkpt lat="42.28262839750381" lon="13.774682443864233"><ele>348.3333333333333</ele><time>2026-04-27T08:34:55Z</time></trkpt><trkpt lat="42.282687794270245" lon="13.774627907050046"><ele>348.1666666666667</ele><time>2026-04-27T08:34:56Z</time></trkpt><trkpt lat="42.28275063849566" lon="13.774577167563375"><ele>348.0</ele><time>2026-04-27T08:34:57Z</time></trkpt><trkpt lat="42.28282103017382" lon="13.774532946209542"><ele>348.0</ele><time>2026-04-27T08:34:58Z</time></trkpt><trkpt lat="42.282888833770464" lon="13.774479221852753"><ele>348.0</ele><time>2026-04-27T08:34:59Z</time></trkpt><trkpt lat="42.28294486257923" lon="13.774438824586463"><ele>348.0</ele><time>2026-04-27T08:35:00Z</time></trkpt><trkpt lat="42.28302434876164" lon="13.774395546152803"><ele>348.0</ele><time>2026-04-27T08:35:02Z</time></trkpt><trkpt lat="42.283047660818234" lon="13.774180296727142"><ele>348.0</ele><time>2026-04-27T08:35:04Z</time></trkpt><trkpt lat="42.2830778254876" lon="13.774079269440557"><ele>348.5</ele><time>2026-04-27T08:35:05Z</time></trkpt><trkpt lat="42.28310936670354" lon="13.773971608628713"><ele>349.0</ele><time>2026-04-27T08:35:06Z</time></trkpt><trkpt lat="42.28312014702987" lon="13.773870805542662"><ele>349.5</ele><time>2026-04-27T08:35:07Z</time></trkpt><trkpt lat="42.28312776871656" lon="13.77378629824059"><ele>350.0</ele><time>2026-04-27T08:35:08Z</time></trkpt><trkpt lat="42.28316309153544" lon="13.773699970684603"><ele>350.5</ele><time>2026-04-27T08:35:09Z</time></trkpt><trkpt lat="42.28319764741765" lon="13.773612683814482"><ele>351.0</ele><time>2026-04-27T08:35:10Z</time></trkpt><trkpt lat="42.283251147616454" lon="13.773450063841835"><ele>354.0</ele><time>2026-04-27T08:35:12Z</time></trkpt><trkpt lat="42.28329120521084" lon="13.773336105388962"><ele>357.0</ele><time>2026-04-27T08:35:13Z</time></trkpt><trkpt lat="42.28332716342181" lon="13.773208496203862"><ele>360.0</ele><time>2026-04-27T08:35:14Z</time></trkpt><trkpt lat="42.28336804469791" lon="13.773080471483626"><ele>363.0</ele><time>2026-04-27T08:35:15Z</time></trkpt><trkpt lat="42.28338697511094" lon="13.77295927753466"><ele>366.0</ele><time>2026-04-27T08:35:16Z</time></trkpt><trkpt lat="42.283416020772904" lon="13.772836728131379"><ele>366.0</ele><time>2026-04-27T08:35:17Z</time></trkpt><trkpt lat="42.283445430669374" lon="13.772708657107799"><ele>366.0</ele><time>2026-04-27T08:35:18Z</time></trkpt><trkpt lat="42.28347305097094" lon="13.772582693937638"><ele>366.0</ele><time>2026-04-27T08:35:19Z</time></trkpt><trkpt lat="42.28349957785722" lon="13.77246552332555"><ele>366.0</ele><time>2026-04-27T08:35:20Z</time></trkpt><trkpt lat="42.283524277283725" lon="13.772349386712868"><ele>366.0</ele><time>2026-04-27T08:35:20.999Z</time></trkpt><trkpt lat="42.283541148905705" lon="13.772234857314693"><ele>368.20000000000005</ele><time>2026-04-27T08:35:21.999Z</time></trkpt><trkpt lat="42.28354581913469" lon="13.772117515675363"><ele>370.40000000000003</ele><time>2026-04-27T08:35:22.999Z</time></trkpt><trkpt lat="42.28354212372717" lon="13.77199526213359"><ele>372.6</ele><time>2026-04-27T08:35:23.999Z</time></trkpt><trkpt lat="42.28354936465599" lon="13.771871522125036"><ele>374.8</ele><time>2026-04-27T08:35:24.999Z</time></trkpt><trkpt lat="42.283560384945204" lon="13.771738503186048"><ele>377.0</ele><time>2026-04-27T08:35:25.999Z</time></trkpt><trkpt lat="42.28357043650983" lon="13.7716155844223"><ele>377.5</ele><time>2026-04-27T08:35:26.999Z</time></trkpt><trkpt lat="42.28357499488588" lon="13.771509424364226"><ele>378.0</ele><time>2026-04-27T08:35:27.999Z</time></trkpt><trkpt lat="42.28355516086381" lon="13.771425802591526"><ele>378.5</ele><time>2026-04-27T08:35:28.999Z</time></trkpt><trkpt lat="42.283519526764834" lon="13.771278692576956"><ele>379.0</ele><time>2026-04-27T08:35:30.999Z</time></trkpt><trkpt lat="42.28350130992315" lon="13.771125860866608"><ele>379.5</ele><time>2026-04-27T08:35:32.999Z</time></trkpt><trkpt lat="42.28348641657662" lon="13.771033080440592"><ele>380.0</ele><time>2026-04-27T08:35:33.999Z</time></trkpt><trkpt lat="42.28348039232244" lon="13.770941811428866"><ele>380.0</ele><time>2026-04-27T08:35:34.999Z</time></trkpt><trkpt lat="42.28346506233305" lon="13.770855098893234"><ele>380.0</ele><time>2026-04-27T08:35:35.999Z</time></trkpt><trkpt lat="42.28346607363882" lon="13.77070172219485"><ele>380.0</ele><time>2026-04-27T08:35:37.999Z</time></trkpt><trkpt lat="42.28348651752709" lon="13.770523963096128"><ele>380.0</ele><time>2026-04-27T08:35:39.999Z</time></trkpt><trkpt lat="42.28349609535085" lon="13.770398562037485"><ele>380.0</ele><time>2026-04-27T08:35:40.999Z</time></trkpt><trkpt lat="42.28349315415566" lon="13.770263176111188"><ele>379.6</ele><time>2026-04-27T08:35:41.999Z</time></trkpt><trkpt lat="42.283477162965944" lon="13.770138046775815"><ele>379.2</ele><time>2026-04-27T08:35:42.999Z</time></trkpt><trkpt lat="42.28344448536603" lon="13.770031009888502"><ele>378.79999999999995</ele><time>2026-04-27T08:35:43.999Z</time></trkpt><trkpt lat="42.28339674521723" lon="13.769923917921531"><ele>378.4</ele><time>2026-04-27T08:35:44.999Z</time></trkpt><trkpt lat="42.283369603734684" lon="13.76980800200481"><ele>378.0</ele><time>2026-04-27T08:35:45.999Z</time></trkpt><trkpt lat="42.28338830889486" lon="13.769686457010764"><ele>378.0</ele><time>2026-04-27T08:35:46.999Z</time></trkpt><trkpt lat="42.283410735795435" lon="13.76954000257555"><ele>378.0</ele><time>2026-04-27T08:35:47.999Z</time></trkpt><trkpt lat="42.283387460629115" lon="13.769381090457781"><ele>378.0</ele><time>2026-04-27T08:35:48.999Z</time></trkpt><trkpt lat="42.28336971354546" lon="13.769234024034342"><ele>378.0</ele><time>2026-04-27T08:35:49.999Z</time></trkpt><trkpt lat="42.28335995359136" lon="13.769094336500705"><ele>378.0</ele><time>2026-04-27T08:35:50.999Z</time></trkpt><trkpt lat="42.28335823187354" lon="13.76896734062096"><ele>379.6666666666667</ele><time>2026-04-27T08:35:51.999Z</time></trkpt><trkpt lat="42.283351430905796" lon="13.768859542808817"><ele>381.33333333333337</ele><time>2026-04-27T08:35:52.999Z</time></trkpt><trkpt lat="42.28332863544394" lon="13.768770593585922"><ele>383.0</ele><time>2026-04-27T08:35:53.999Z</time></trkpt><trkpt lat="42.283307221320115" lon="13.768663714540471"><ele>384.6666666666667</ele><time>2026-04-27T08:35:54.999Z</time></trkpt><trkpt lat="42.28331389566747" lon="13.768528793949903"><ele>386.33333333333337</ele><time>2026-04-27T08:35:55.999Z</time></trkpt><trkpt lat="42.2833116507295" lon="13.768409003096945"><ele>388.0</ele><time>2026-04-27T08:35:56.999Z</time></trkpt><trkpt lat="42.28329887467774" lon="13.768301680264075"><ele>390.59999999999997</ele><time>2026-04-27T08:35:57.999Z</time></trkpt><trkpt lat="42.28328703319466" lon="13.768181830446158"><ele>393.2</ele><time>2026-04-27T08:35:58.999Z</time></trkpt><trkpt lat="42.28329725004397" lon="13.768055189410255"><ele>395.8</ele><time>2026-04-27T08:35:59.999Z</time></trkpt><trkpt lat="42.28331372241155" lon="13.76792404323736"><ele>398.4</ele><time>2026-04-27T08:36:00.999Z</time></trkpt><trkpt lat="42.28332863512183" lon="13.767801606226648"><ele>401.0</ele><time>2026-04-27T08:36:01.999Z</time></trkpt><trkpt lat="42.28334382757628" lon="13.767701273895153"><ele>401.8</ele><time>2026-04-27T08:36:02.999Z</time></trkpt><trkpt lat="42.28336573827001" lon="13.767586155144295"><ele>402.6</ele><time>2026-04-27T08:36:04.999Z</time></trkpt><trkpt lat="42.28338383463571" lon="13.767425741949866"><ele>403.4</ele><time>2026-04-27T08:36:06.999Z</time></trkpt><trkpt lat="42.28340262215144" lon="13.767335749662095"><ele>404.2</ele><time>2026-04-27T08:36:07.999Z</time></trkpt><trkpt lat="42.283428849604896" lon="13.76718299536793"><ele>405.0</ele><time>2026-04-27T08:36:09.999Z</time></trkpt><trkpt lat="42.28342323777962" lon="13.767087948532538"><ele>405.0</ele><time>2026-04-27T08:36:10.999Z</time></trkpt><trkpt lat="42.28343278584393" lon="13.766976296361992"><ele>405.0</ele><time>2026-04-27T08:36:11.999Z</time></trkpt><trkpt lat="42.28344804390189" lon="13.76684846936619"><ele>405.0</ele><time>2026-04-27T08:36:12.999Z</time></trkpt><trkpt lat="42.28347261734825" lon="13.766721211757316"><ele>405.0</ele><time>2026-04-27T08:36:13.999Z</time></trkpt><trkpt lat="42.283501364446316" lon="13.766575175099447"><ele>405.0</ele><time>2026-04-27T08:36:14.999Z</time></trkpt><trkpt lat="42.28351907855731" lon="13.766419869318115"><ele>403.0</ele><time>2026-04-27T08:36:15.999Z</time></trkpt><trkpt lat="42.28353289128213" lon="13.766249541435517"><ele>401.0</ele><time>2026-04-27T08:36:16.999Z</time></trkpt><trkpt lat="42.283543339114495" lon="13.766030454603163"><ele>399.0</ele><time>2026-04-27T08:36:17.999Z</time></trkpt><trkpt lat="42.28355953169143" lon="13.765791349843365"><ele>396.0</ele><time>2026-04-27T08:36:18.999Z</time></trkpt><trkpt lat="42.283576150141606" lon="13.765522553808564"><ele>393.0</ele><time>2026-04-27T08:36:19.999Z</time></trkpt><trkpt lat="42.28358800789786" lon="13.765310211237933"><ele>390.0</ele><time>2026-04-27T08:36:20.999Z</time></trkpt><trkpt lat="42.28361047906712" lon="13.765173926625364"><ele>388.75</ele><time>2026-04-27T08:36:21.999Z</time></trkpt><trkpt lat="42.28362384486062" lon="13.765025725225984"><ele>387.5</ele><time>2026-04-27T08:36:22.999Z</time></trkpt><trkpt lat="42.28364795707592" lon="13.764880236876367"><ele>386.25</ele><time>2026-04-27T08:36:23.999Z</time></trkpt><trkpt lat="42.283701230975524" lon="13.764721026343707"><ele>385.0</ele><time>2026-04-27T08:36:24.998Z</time></trkpt><trkpt lat="42.28380706037675" lon="13.764543876987052"><ele>385.5</ele><time>2026-04-27T08:36:25.998Z</time></trkpt><trkpt lat="42.283945671922" lon="13.764343804719989"><ele>386.0</ele><time>2026-04-27T08:36:26.998Z</time></trkpt><trkpt lat="42.28404213063747" lon="13.764213005849768"><ele>386.5</ele><time>2026-04-27T08:36:27.998Z</time></trkpt><trkpt lat="42.28411639693747" lon="13.764112536435906"><ele>387.0</ele><time>2026-04-27T08:36:28.998Z</time></trkpt><trkpt lat="42.2841711135581" lon="13.764023143621142"><ele>387.0</ele><time>2026-04-27T08:36:29.998Z</time></trkpt><trkpt lat="42.28421518969175" lon="13.763935336608176"><ele>387.0</ele><time>2026-04-27T08:36:30.998Z</time></trkpt><trkpt lat="42.2842530073897" lon="13.763854770166983"><ele>387.0</ele><time>2026-04-27T08:36:32.998Z</time></trkpt><trkpt lat="42.28421666864187" lon="13.763772229256844"><ele>387.0</ele><time>2026-04-27T08:36:35.998Z</time></trkpt><trkpt lat="42.28410283118726" lon="13.76377389848906"><ele>387.0</ele><time>2026-04-27T08:36:37.998Z</time></trkpt><trkpt lat="42.28398178401956" lon="13.7637698170556"><ele>387.0</ele><time>2026-04-27T08:36:39.998Z</time></trkpt><trkpt lat="42.28385433990214" lon="13.763759718915678"><ele>387.0</ele><time>2026-04-27T08:36:41.998Z</time></trkpt><trkpt lat="42.283775589061236" lon="13.76375354969371"><ele>387.0</ele><time>2026-04-27T08:36:42.998Z</time></trkpt><trkpt lat="42.28369257363871" lon="13.763750363609356"><ele>387.0</ele><time>2026-04-27T08:36:43.998Z</time></trkpt><trkpt lat="42.28360677578915" lon="13.763738926333522"><ele>387.0</ele><time>2026-04-27T08:36:44.998Z</time></trkpt><trkpt lat="42.28352364528333" lon="13.763725542460966"><ele>387.0</ele><time>2026-04-27T08:36:45.998Z</time></trkpt><trkpt lat="42.28344214188002" lon="13.763719313635088"><ele>387.0</ele><time>2026-04-27T08:36:46.998Z</time></trkpt><trkpt lat="42.283357859472936" lon="13.763720662560454"><ele>387.0</ele><time>2026-04-27T08:36:47.998Z</time></trkpt><trkpt lat="42.28327064374689" lon="13.763708105518802"><ele>387.0</ele><time>2026-04-27T08:36:49Z</time></trkpt><trkpt lat="42.28318364576632" lon="13.763704397859918"><ele>387.0</ele><time>2026-04-27T08:36:50Z</time></trkpt><trkpt lat="42.283091797032974" lon="13.763700494515493"><ele>387.0</ele><time>2026-04-27T08:36:51Z</time></trkpt><trkpt lat="42.28299093024537" lon="13.76369076143492"><ele>387.8</ele><time>2026-04-27T08:36:52Z</time></trkpt><trkpt lat="42.28288733449355" lon="13.763701859651476"><ele>388.6</ele><time>2026-04-27T08:36:53Z</time></trkpt><trkpt lat="42.28279757049916" lon="13.763726403506226"><ele>389.40000000000003</ele><time>2026-04-27T08:36:54Z</time></trkpt><trkpt lat="42.28273859780734" lon="13.763766718095303"><ele>390.20000000000005</ele><time>2026-04-27T08:36:55Z</time></trkpt><trkpt lat="42.28263270314034" lon="13.763838190576434"><ele>391.0</ele><time>2026-04-27T08:36:57Z</time></trkpt><trkpt lat="42.28243702194222" lon="13.763598524565174"><ele>391.0</ele><time>2026-04-27T08:36:58Z</time></trkpt><trkpt lat="42.282314000620666" lon="13.763550284668876"><ele>391.0</ele><time>2026-04-27T08:36:59Z</time></trkpt><trkpt lat="42.282186421198276" lon="13.763514220513223"><ele>391.0</ele><time>2026-04-27T08:37:00Z</time></trkpt><trkpt lat="42.28206333644337" lon="13.763536716796366"><ele>391.0</ele><time>2026-04-27T08:37:01Z</time></trkpt><trkpt lat="42.281933666631204" lon="13.763581024593151"><ele>394.5</ele><time>2026-04-27T08:37:02Z</time></trkpt><trkpt lat="42.2817889643323" lon="13.763591243518912"><ele>398.0</ele><time>2026-04-27T08:37:03Z</time></trkpt><trkpt lat="42.28164904831455" lon="13.763572652392059"><ele>401.5</ele><time>2026-04-27T08:37:04Z</time></trkpt><trkpt lat="42.281491606432716" lon="13.763581623236128"><ele>405.0</ele><time>2026-04-27T08:37:05Z</time></trkpt><trkpt lat="42.28132916338649" lon="13.763606448577342"><ele>409.75</ele><time>2026-04-27T08:37:06Z</time></trkpt><trkpt lat="42.28119438253465" lon="13.76362588234402"><ele>414.5</ele><time>2026-04-27T08:37:07Z</time></trkpt><trkpt lat="42.2810637843332" lon="13.763647625299866"><ele>419.25</ele><time>2026-04-27T08:37:08Z</time></trkpt><trkpt lat="42.28096472969276" lon="13.763605209264355"><ele>424.0</ele><time>2026-04-27T08:37:09Z</time></trkpt><trkpt lat="42.28085240879581" lon="13.763538214772966"><ele>422.25</ele><time>2026-04-27T08:37:10Z</time></trkpt><trkpt lat="42.28074265913737" lon="13.763489563184221"><ele>420.5</ele><time>2026-04-27T08:37:11Z</time></trkpt><trkpt lat="42.280622969922625" lon="13.763455430527397"><ele>418.75</ele><time>2026-04-27T08:37:12Z</time></trkpt><trkpt lat="42.28048779823216" lon="13.76341181820742"><ele>417.0</ele><time>2026-04-27T08:37:13Z</time></trkpt><trkpt lat="42.28034753425737" lon="13.76336837673866"><ele>423.75</ele><time>2026-04-27T08:37:14Z</time></trkpt><trkpt lat="42.28021615023452" lon="13.763323811664927"><ele>430.5</ele><time>2026-04-27T08:37:15Z</time></trkpt><trkpt lat="42.280099513412964" lon="13.763267543356378"><ele>437.25</ele><time>2026-04-27T08:37:16Z</time></trkpt><trkpt lat="42.28001138961683" lon="13.763183099392915"><ele>444.0</ele><time>2026-04-27T08:37:17Z</time></trkpt><trkpt lat="42.27992384625418" lon="13.76305564869295"><ele>444.0</ele><time>2026-04-27T08:37:18Z</time></trkpt><trkpt lat="42.27982229284491" lon="13.762919680896907"><ele>444.0</ele><time>2026-04-27T08:37:19Z</time></trkpt><trkpt lat="42.27972732341092" lon="13.762808724462246"><ele>444.0</ele><time>2026-04-27T08:37:20Z</time></trkpt><trkpt lat="42.27961684934906" lon="13.762695760769844"><ele>444.0</ele><time>2026-04-27T08:37:21Z</time></trkpt><trkpt lat="42.279522535350445" lon="13.762603796663875"><ele>448.0</ele><time>2026-04-27T08:37:22Z</time></trkpt><trkpt lat="42.279408807556294" lon="13.762540261977758"><ele>452.0</ele><time>2026-04-27T08:37:22.999Z</time></trkpt><trkpt lat="42.27928321735506" lon="13.762498026896953"><ele>456.0</ele><time>2026-04-27T08:37:23.999Z</time></trkpt><trkpt lat="42.27914350590833" lon="13.762460961376153"><ele>460.0</ele><time>2026-04-27T08:37:24.999Z</time></trkpt><trkpt lat="42.27901209831442" lon="13.76240377973931"><ele>462.25</ele><time>2026-04-27T08:37:25.999Z</time></trkpt><trkpt lat="42.278876826504195" lon="13.762335520994364"><ele>464.5</ele><time>2026-04-27T08:37:26.999Z</time></trkpt><trkpt lat="42.278760895941865" lon="13.762278839495409"><ele>466.75</ele><time>2026-04-27T08:37:27.999Z</time></trkpt><trkpt lat="42.278631109563385" lon="13.76222301685817"><ele>469.0</ele><time>2026-04-27T08:37:28.999Z</time></trkpt><trkpt lat="42.27849078700137" lon="13.762175465077068"><ele>469.0</ele><time>2026-04-27T08:37:29.999Z</time></trkpt><trkpt lat="42.27837462394247" lon="13.76212162367241"><ele>469.0</ele><time>2026-04-27T08:37:30.999Z</time></trkpt><trkpt lat="42.27828925040926" lon="13.762032905351587"><ele>469.0</ele><time>2026-04-27T08:37:31.999Z</time></trkpt><trkpt lat="42.27820130065866" lon="13.761875128850765"><ele>469.0</ele><time>2026-04-27T08:37:32.999Z</time></trkpt><trkpt lat="42.278114622372335" lon="13.761752191653692"><ele>471.0</ele><time>2026-04-27T08:37:33.999Z</time></trkpt><trkpt lat="42.27800579636256" lon="13.761715624337198"><ele>473.0</ele><time>2026-04-27T08:37:34.999Z</time></trkpt><trkpt lat="42.27788518347118" lon="13.761710275783118"><ele>475.0</ele><time>2026-04-27T08:37:35.999Z</time></trkpt><trkpt lat="42.27773918271669" lon="13.761698604737216"><ele>477.0</ele><time>2026-04-27T08:37:36.999Z</time></trkpt><trkpt lat="42.277628357956544" lon="13.761686048432079"><ele>477.0</ele><time>2026-04-27T08:37:37.999Z</time></trkpt><trkpt lat="42.277527307146805" lon="13.761715196798812"><ele>477.0</ele><time>2026-04-27T08:37:38.999Z</time></trkpt><trkpt lat="42.27741847906602" lon="13.761771300278019"><ele>477.0</ele><time>2026-04-27T08:37:39.999Z</time></trkpt><trkpt lat="42.27728234855986" lon="13.761802005504144"><ele>477.0</ele><time>2026-04-27T08:37:40.999Z</time></trkpt><trkpt lat="42.27714757967039" lon="13.761789918836438"><ele>479.25</ele><time>2026-04-27T08:37:41.999Z</time></trkpt><trkpt lat="42.27701909179126" lon="13.761769764355398"><ele>481.5</ele><time>2026-04-27T08:37:42.999Z</time></trkpt><trkpt lat="42.276891089771794" lon="13.761750487417306"><ele>483.75</ele><time>2026-04-27T08:37:43.999Z</time></trkpt><trkpt lat="42.27676424954395" lon="13.761744611566696"><ele>486.0</ele><time>2026-04-27T08:37:44.999Z</time></trkpt><trkpt lat="42.27664162299121" lon="13.761748994051635"><ele>486.0</ele><time>2026-04-27T08:37:45.999Z</time></trkpt><trkpt lat="42.27652545680647" lon="13.761728066467539"><ele>486.0</ele><time>2026-04-27T08:37:46.999Z</time></trkpt><trkpt lat="42.276411913713204" lon="13.76166568153134"><ele>486.0</ele><time>2026-04-27T08:37:47.999Z</time></trkpt><trkpt lat="42.27629323700296" lon="13.761569793783922"><ele>486.0</ele><time>2026-04-27T08:37:48.999Z</time></trkpt><trkpt lat="42.2761589926513" lon="13.761487037556485"><ele>489.25</ele><time>2026-04-27T08:37:49.999Z</time></trkpt><trkpt lat="42.276029708993" lon="13.761424797266748"><ele>492.5</ele><time>2026-04-27T08:37:50.999Z</time></trkpt><trkpt lat="42.27590702496069" lon="13.761334524152948"><ele>495.75</ele><time>2026-04-27T08:37:51.999Z</time></trkpt><trkpt lat="42.275785791940855" lon="13.761230180517968"><ele>499.0</ele><time>2026-04-27T08:37:52.999Z</time></trkpt><trkpt lat="42.27566245948756" lon="13.761125049278062"><ele>500.0</ele><time>2026-04-27T08:37:53.999Z</time></trkpt><trkpt lat="42.27553681565537" lon="13.761030508492793"><ele>501.0</ele><time>2026-04-27T08:37:54.999Z</time></trkpt><trkpt lat="42.27540809173233" lon="13.760941768902336"><ele>502.0</ele><time>2026-04-27T08:37:55.999Z</time></trkpt><trkpt lat="42.27527549009256" lon="13.760853367000408"><ele>503.0</ele><time>2026-04-27T08:37:56.999Z</time></trkpt><trkpt lat="42.27513994348529" lon="13.760770004617376"><ele>503.0</ele><time>2026-04-27T08:37:57.999Z</time></trkpt><trkpt lat="42.27500590129667" lon="13.760687449277409"><ele>502.99999999999994</ele><time>2026-04-27T08:37:58.999Z</time></trkpt><trkpt lat="42.274893703690445" lon="13.760619196063333"><ele>502.99999999999994</ele><time>2026-04-27T08:37:59.999Z</time></trkpt><trkpt lat="42.274808163280966" lon="13.760572377930528"><ele>503.0</ele><time>2026-04-27T08:38:00.999Z</time></trkpt><trkpt lat="42.27474360556711" lon="13.760537120949083"><ele>503.0</ele><time>2026-04-27T08:38:01.999Z</time></trkpt><trkpt lat="42.27468715961767" lon="13.760486301315057"><ele>502.99999999999994</ele><time>2026-04-27T08:38:03.999Z</time></trkpt><trkpt lat="42.27473350877006" lon="13.760407096272974"><ele>503.0</ele><time>2026-04-27T08:38:06.999Z</time></trkpt><trkpt lat="42.274784562540816" lon="13.760345348840294"><ele>503.0</ele><time>2026-04-27T08:38:10.999Z</time></trkpt><trkpt lat="42.27487434951845" lon="13.760235694390266"><ele>503.0</ele><time>2026-04-27T08:39:05Z</time></trkpt><trkpt lat="42.274926408789064" lon="13.760148917417537"><ele>502.99999999999994</ele><time>2026-04-27T08:39:06Z</time></trkpt><trkpt lat="42.27498648305554" lon="13.760069564181826"><ele>503.0</ele><time>2026-04-27T08:39:07Z</time></trkpt><trkpt lat="42.27505322115456" lon="13.759975569910079"><ele>503.0</ele><time>2026-04-27T08:39:08Z</time></trkpt><trkpt lat="42.275134342724506" lon="13.759855557563627"><ele>503.0</ele><time>2026-04-27T08:39:09Z</time></trkpt><trkpt lat="42.27521431164273" lon="13.759732867098005"><ele>503.0</ele><time>2026-04-27T08:39:10Z</time></trkpt><trkpt lat="42.27529276154494" lon="13.75960682874827"><ele>503.0</ele><time>2026-04-27T08:39:11Z</time></trkpt><trkpt lat="42.27536727265541" lon="13.759490405774605"><ele>503.0</ele><time>2026-04-27T08:39:12Z</time></trkpt><trkpt lat="42.27543484744551" lon="13.759377765320494"><ele>502.99999999999994</ele><time>2026-04-27T08:39:13Z</time></trkpt><trkpt lat="42.275498439593115" lon="13.759275770498604"><ele>502.99999999999994</ele><time>2026-04-27T08:39:14Z</time></trkpt><trkpt lat="42.27556774400999" lon="13.75917224268385"><ele>503.0</ele><time>2026-04-27T08:39:15Z</time></trkpt><trkpt lat="42.27564129984735" lon="13.759065897144334"><ele>503.0</ele><time>2026-04-27T08:39:16Z</time></trkpt><trkpt lat="42.275709538998285" lon="13.758971664966566"><ele>500.59999999999997</ele><time>2026-04-27T08:39:17Z</time></trkpt><trkpt lat="42.2757682541461" lon="13.75889465797082"><ele>498.19999999999993</ele><time>2026-04-27T08:39:18Z</time></trkpt><trkpt lat="42.27582024668373" lon="13.758831474129572"><ele>495.8</ele><time>2026-04-27T08:39:19Z</time></trkpt><trkpt lat="42.275900695655636" lon="13.758724659037801"><ele>493.4</ele><time>2026-04-27T08:39:21Z</time></trkpt><trkpt lat="42.27579546319332" lon="13.758624194701762"><ele>491.0</ele><time>2026-04-27T08:39:24.999Z</time></trkpt><trkpt lat="42.27571287466767" lon="13.758648551676758"><ele>490.99999999999994</ele><time>2026-04-27T08:39:25.999Z</time></trkpt><trkpt lat="42.27563923248953" lon="13.758671307593236"><ele>491.0</ele><time>2026-04-27T08:39:26.999Z</time></trkpt><trkpt lat="42.27554656195099" lon="13.758692389495426"><ele>491.0</ele><time>2026-04-27T08:39:27.999Z</time></trkpt><trkpt lat="42.27546011518917" lon="13.758710376004323"><ele>491.0</ele><time>2026-04-27T08:39:28.999Z</time></trkpt><trkpt lat="42.275374375018025" lon="13.758733323954266"><ele>490.99999999999994</ele><time>2026-04-27T08:39:29.999Z</time></trkpt><trkpt lat="42.275277306373276" lon="13.758760687169083"><ele>491.0</ele><time>2026-04-27T08:39:30.999Z</time></trkpt><trkpt lat="42.27518744175213" lon="13.758774202178794"><ele>494.0</ele><time>2026-04-27T08:39:31.999Z</time></trkpt><trkpt lat="42.27509537898775" lon="13.75878842809714"><ele>497.0</ele><time>2026-04-27T08:39:32.999Z</time></trkpt><trkpt lat="42.274994260115726" lon="13.758813540885846"><ele>500.0</ele><time>2026-04-27T08:39:33.999Z</time></trkpt><trkpt lat="42.2748872491013" lon="13.758838503583451"><ele>503.0</ele><time>2026-04-27T08:39:34.999Z</time></trkpt><trkpt lat="42.27477713165081" lon="13.758852320276192"><ele>506.0</ele><time>2026-04-27T08:39:35.999Z</time></trkpt><trkpt lat="42.274664986294724" lon="13.758867507432457"><ele>507.8</ele><time>2026-04-27T08:39:36.999Z</time></trkpt><trkpt lat="42.27455943439226" lon="13.758902416088413"><ele>509.6</ele><time>2026-04-27T08:39:37.999Z</time></trkpt><trkpt lat="42.274460111100694" lon="13.758936670816214"><ele>511.4</ele><time>2026-04-27T08:39:38.999Z</time></trkpt><trkpt lat="42.27436267798859" lon="13.758956646529327"><ele>513.2</ele><time>2026-04-27T08:39:39.999Z</time></trkpt><trkpt lat="42.27427433630164" lon="13.758969011664728"><ele>515.0</ele><time>2026-04-27T08:39:40.999Z</time></trkpt><trkpt lat="42.27418677571424" lon="13.758987521550516"><ele>515.0</ele><time>2026-04-27T08:39:41.999Z</time></trkpt><trkpt lat="42.27409350380206" lon="13.759026694567499"><ele>515.0</ele><time>2026-04-27T08:39:42.999Z</time></trkpt><trkpt lat="42.27401014796378" lon="13.759097690966438"><ele>515.0</ele><time>2026-04-27T08:39:43.999Z</time></trkpt><trkpt lat="42.273947202637466" lon="13.75913724030005"><ele>515.0</ele><time>2026-04-27T08:39:44.999Z</time></trkpt><trkpt lat="42.27395084579898" lon="13.759239366483637"><ele>515.0</ele><time>2026-04-27T08:39:47.999Z</time></trkpt><trkpt lat="42.27395821575386" lon="13.759324801852907"><ele>515.0</ele><time>2026-04-27T08:39:48.999Z</time></trkpt><trkpt lat="42.27392291068423" lon="13.759418556446498"><ele>516.8</ele><time>2026-04-27T08:39:50.999Z</time></trkpt><trkpt lat="42.2738843501588" lon="13.759507304857475"><ele>518.6</ele><time>2026-04-27T08:39:52.999Z</time></trkpt><trkpt lat="42.273831023616076" lon="13.75963723369599"><ele>520.4</ele><time>2026-04-27T08:39:54.999Z</time></trkpt><trkpt lat="42.27373050273007" lon="13.759738332819111"><ele>522.2</ele><time>2026-04-27T08:39:56.999Z</time></trkpt><trkpt lat="42.27360175217162" lon="13.759756852077043"><ele>524.0</ele><time>2026-04-27T08:39:58.999Z</time></trkpt><trkpt lat="42.27353315306481" lon="13.759741189265933"><ele>524.0</ele><time>2026-04-27T08:39:59.999Z</time></trkpt><trkpt lat="42.27347599105493" lon="13.759701260291957"><ele>524.0</ele><time>2026-04-27T08:40:00.999Z</time></trkpt><trkpt lat="42.273361324777674" lon="13.759700352443705"><ele>524.0</ele><time>2026-04-27T08:40:02.999Z</time></trkpt><trkpt lat="42.273240608030584" lon="13.759734349413321"><ele>524.0</ele><time>2026-04-27T08:40:04.999Z</time></trkpt><trkpt lat="42.273167589323585" lon="13.759751394077975"><ele>524.0</ele><time>2026-04-27T08:40:05.999Z</time></trkpt><trkpt lat="42.27310004591314" lon="13.759767349668397"><ele>524.0</ele><time>2026-04-27T08:40:06.999Z</time></trkpt><trkpt lat="42.273037982916705" lon="13.759783455574182"><ele>524.6</ele><time>2026-04-27T08:40:07.999Z</time></trkpt><trkpt lat="42.272902719467304" lon="13.759781272942645"><ele>525.2</ele><time>2026-04-27T08:40:09.999Z</time></trkpt><trkpt lat="42.272812135586946" lon="13.759758151183114"><ele>525.8000000000001</ele><time>2026-04-27T08:40:10.999Z</time></trkpt><trkpt lat="42.272719739426755" lon="13.759720029106472"><ele>526.4</ele><time>2026-04-27T08:40:11.999Z</time></trkpt><trkpt lat="42.272634902919684" lon="13.759683810381302"><ele>527.0</ele><time>2026-04-27T08:40:12.999Z</time></trkpt><trkpt lat="42.27255569602217" lon="13.759655366239375"><ele>527.0</ele><time>2026-04-27T08:40:13.999Z</time></trkpt><trkpt lat="42.27248076548821" lon="13.759621628024096"><ele>527.0</ele><time>2026-04-27T08:40:14.999Z</time></trkpt><trkpt lat="42.27239241541948" lon="13.759579763403053"><ele>527.0</ele><time>2026-04-27T08:40:15.999Z</time></trkpt><trkpt lat="42.272297026335146" lon="13.759534454865765"><ele>527.0</ele><time>2026-04-27T08:40:16.999Z</time></trkpt><trkpt lat="42.2721967098699" lon="13.759491728421407"><ele>527.0</ele><time>2026-04-27T08:40:17.999Z</time></trkpt><trkpt lat="42.272096830951824" lon="13.759440794210395"><ele>527.4</ele><time>2026-04-27T08:40:18.999Z</time></trkpt><trkpt lat="42.272020829967076" lon="13.759371543999078"><ele>527.8000000000001</ele><time>2026-04-27T08:40:19.999Z</time></trkpt><trkpt lat="42.27196197173168" lon="13.759260156966805"><ele>528.2</ele><time>2026-04-27T08:40:20.999Z</time></trkpt><trkpt lat="42.27191991244205" lon="13.759125520326632"><ele>528.6</ele><time>2026-04-27T08:40:21.999Z</time></trkpt><trkpt lat="42.27188192854449" lon="13.758996823062612"><ele>529.0</ele><time>2026-04-27T08:40:22.999Z</time></trkpt><trkpt lat="42.27180660806259" lon="13.75889403440201"><ele>529.5</ele><time>2026-04-27T08:40:23.998Z</time></trkpt><trkpt lat="42.27169661040554" lon="13.758828016606241"><ele>530.0</ele><time>2026-04-27T08:40:24.998Z</time></trkpt><trkpt lat="42.27158137499975" lon="13.758776654345457"><ele>530.5</ele><time>2026-04-27T08:40:25.998Z</time></trkpt><trkpt lat="42.2714625062597" lon="13.758740692914131"><ele>531.0</ele><time>2026-04-27T08:40:26.998Z</time></trkpt><trkpt lat="42.27133832420587" lon="13.758717337567022"><ele>531.0</ele><time>2026-04-27T08:40:27.998Z</time></trkpt><trkpt lat="42.271197136055825" lon="13.758706604863368"><ele>531.0</ele><time>2026-04-27T08:40:28.998Z</time></trkpt><trkpt lat="42.27104950971523" lon="13.758693018040773"><ele>531.0</ele><time>2026-04-27T08:40:29.998Z</time></trkpt><trkpt lat="42.270898637500196" lon="13.75868898415952"><ele>531.0</ele><time>2026-04-27T08:40:30.998Z</time></trkpt><trkpt lat="42.27074804424825" lon="13.758692615417283"><ele>531.3333333333334</ele><time>2026-04-27T08:40:31.998Z</time></trkpt><trkpt lat="42.27059192066947" lon="13.758705531384315"><ele>531.6666666666667</ele><time>2026-04-27T08:40:32.998Z</time></trkpt><trkpt lat="42.2704293651103" lon="13.758723208316985"><ele>532.0</ele><time>2026-04-27T08:40:33.998Z</time></trkpt><trkpt lat="42.27026714916683" lon="13.758749269642626"><ele>532.0</ele><time>2026-04-27T08:40:34.998Z</time></trkpt><trkpt lat="42.27010905015555" lon="13.75878149949008"><ele>532.0</ele><time>2026-04-27T08:40:35.998Z</time></trkpt><trkpt lat="42.26995235975757" lon="13.758826387090906"><ele>532.0</ele><time>2026-04-27T08:40:36.998Z</time></trkpt><trkpt lat="42.269793689860855" lon="13.758869433687918"><ele>532.3333333333334</ele><time>2026-04-27T08:40:37.998Z</time></trkpt><trkpt lat="42.26963389971711" lon="13.758941978667622"><ele>532.6666666666666</ele><time>2026-04-27T08:40:38.998Z</time></trkpt><trkpt lat="42.269482049506856" lon="13.759037619867357"><ele>533.0</ele><time>2026-04-27T08:40:39.998Z</time></trkpt><trkpt lat="42.269339820531904" lon="13.75910886437904"><ele>533.0</ele><time>2026-04-27T08:40:40.998Z</time></trkpt><trkpt lat="42.26921022408951" lon="13.75916275530702"><ele>533.0</ele><time>2026-04-27T08:40:41.998Z</time></trkpt><trkpt lat="42.26909896583614" lon="13.759209053989064"><ele>533.0</ele><time>2026-04-27T08:40:42.998Z</time></trkpt><trkpt lat="42.2690042384625" lon="13.759269785388549"><ele>533.0</ele><time>2026-04-27T08:40:43.998Z</time></trkpt><trkpt lat="42.2689158337563" lon="13.759287515613149"><ele>533.0</ele><time>2026-04-27T08:40:44.998Z</time></trkpt><trkpt lat="42.268850908004964" lon="13.7593384465829"><ele>532.6</ele><time>2026-04-27T08:40:45.998Z</time></trkpt><trkpt lat="42.26875808586277" lon="13.75936688776017"><ele>532.1999999999999</ele><time>2026-04-27T08:40:47.998Z</time></trkpt><trkpt lat="42.26867717626745" lon="13.759355649064554"><ele>531.8</ele><time>2026-04-27T08:40:49.998Z</time></trkpt><trkpt lat="42.26859993631936" lon="13.759375349856517"><ele>531.4</ele><time>2026-04-27T08:40:51.998Z</time></trkpt><trkpt lat="42.26848651537579" lon="13.759351895077446"><ele>531.0</ele><time>2026-04-27T08:40:54.998Z</time></trkpt><trkpt lat="42.26841128187725" lon="13.759403920259976"><ele>534.5</ele><time>2026-04-27T08:40:56.998Z</time></trkpt><trkpt lat="42.26841638084597" lon="13.759976981783325"><ele>538.0</ele><time>2026-04-27T08:40:58.998Z</time></trkpt><trkpt lat="42.26834050283216" lon="13.760139684088527"><ele>537.8333333333334</ele><time>2026-04-27T08:41:01Z</time></trkpt><trkpt lat="42.26828482476761" lon="13.760209211891517"><ele>537.6666666666667</ele><time>2026-04-27T08:41:02Z</time></trkpt><trkpt lat="42.26822434268374" lon="13.76028292818089"><ele>537.5</ele><time>2026-04-27T08:41:03Z</time></trkpt><trkpt lat="42.26816716765166" lon="13.760368693974385"><ele>537.3333333333334</ele><time>2026-04-27T08:41:04Z</time></trkpt><trkpt lat="42.26810218614198" lon="13.760442300127657"><ele>537.1666666666666</ele><time>2026-04-27T08:41:05Z</time></trkpt><trkpt lat="42.26804275737761" lon="13.760509861925136"><ele>537.0</ele><time>2026-04-27T08:41:06Z</time></trkpt><trkpt lat="42.267986043004164" lon="13.760604402768312"><ele>537.8000000000001</ele><time>2026-04-27T08:41:07Z</time></trkpt><trkpt lat="42.2679224431891" lon="13.76068428480222"><ele>538.6</ele><time>2026-04-27T08:41:08Z</time></trkpt><trkpt lat="42.267850163115604" lon="13.760764487635983"><ele>539.4000000000001</ele><time>2026-04-27T08:41:09Z</time></trkpt><trkpt lat="42.26778061789875" lon="13.760851171611987"><ele>540.2</ele><time>2026-04-27T08:41:10Z</time></trkpt><trkpt lat="42.26771497557695" lon="13.760948426497391"><ele>541.0</ele><time>2026-04-27T08:41:11Z</time></trkpt><trkpt lat="42.26764269905095" lon="13.76104742036233"><ele>541.0</ele><time>2026-04-27T08:41:12Z</time></trkpt><trkpt lat="42.26758417959006" lon="13.761137323745896"><ele>541.0</ele><time>2026-04-27T08:41:13Z</time></trkpt><trkpt lat="42.26752810584814" lon="13.761234322342574"><ele>541.0</ele><time>2026-04-27T08:41:14Z</time></trkpt><trkpt lat="42.267471679573276" lon="13.761346550258502"><ele>541.0</ele><time>2026-04-27T08:41:15Z</time></trkpt><trkpt lat="42.2674049415786" lon="13.76146350795329"><ele>541.0</ele><time>2026-04-27T08:41:16Z</time></trkpt><trkpt lat="42.26733565969936" lon="13.761557038270837"><ele>540.8333333333334</ele><time>2026-04-27T08:41:17Z</time></trkpt><trkpt lat="42.26725612325425" lon="13.76163033125189"><ele>540.6666666666667</ele><time>2026-04-27T08:41:18Z</time></trkpt><trkpt lat="42.26716895771831" lon="13.761682219924097"><ele>540.5</ele><time>2026-04-27T08:41:19Z</time></trkpt><trkpt lat="42.26709263002122" lon="13.76172726962488"><ele>540.3333333333334</ele><time>2026-04-27T08:41:20Z</time></trkpt><trkpt lat="42.26703615847439" lon="13.76177976632976"><ele>540.1666666666666</ele><time>2026-04-27T08:41:21Z</time></trkpt><trkpt lat="42.266962933711575" lon="13.761882032707826"><ele>540.0</ele><time>2026-04-27T08:41:23Z</time></trkpt><trkpt lat="42.26689222314639" lon="13.762037448060259"><ele>541.6</ele><time>2026-04-27T08:41:24.999Z</time></trkpt><trkpt lat="42.26685431467095" lon="13.762133920648102"><ele>543.2</ele><time>2026-04-27T08:41:25.999Z</time></trkpt><trkpt lat="42.26681040239342" lon="13.762235518619306"><ele>544.8</ele><time>2026-04-27T08:41:26.999Z</time></trkpt><trkpt lat="42.26672468363252" lon="13.762309340132001"><ele>546.4</ele><time>2026-04-27T08:41:27.999Z</time></trkpt><trkpt lat="42.26667277704236" lon="13.76241733651705"><ele>548.0</ele><time>2026-04-27T08:41:28.999Z</time></trkpt><trkpt lat="42.26661779817964" lon="13.762515292658811"><ele>548.0</ele><time>2026-04-27T08:41:29.999Z</time></trkpt><trkpt lat="42.26654616711072" lon="13.762586979049193"><ele>548.0</ele><time>2026-04-27T08:41:30.999Z</time></trkpt><trkpt lat="42.26646129222813" lon="13.762640713132974"><ele>548.0</ele><time>2026-04-27T08:41:31.999Z</time></trkpt><trkpt lat="42.26637913564834" lon="13.762714090549009"><ele>548.0</ele><time>2026-04-27T08:41:32.999Z</time></trkpt><trkpt lat="42.266328475216895" lon="13.762840776619392"><ele>548.0</ele><time>2026-04-27T08:41:33.999Z</time></trkpt><trkpt lat="42.266242494333156" lon="13.762917794719188"><ele>549.4</ele><time>2026-04-27T08:41:34.999Z</time></trkpt><trkpt lat="42.266159256103464" lon="13.762983996148412"><ele>550.8</ele><time>2026-04-27T08:41:35.999Z</time></trkpt><trkpt lat="42.26606620022646" lon="13.763027860530569"><ele>552.2</ele><time>2026-04-27T08:41:36.999Z</time></trkpt><trkpt lat="42.26597220247196" lon="13.763060496502733"><ele>553.6</ele><time>2026-04-27T08:41:37.999Z</time></trkpt><trkpt lat="42.265876105166505" lon="13.763084810796402"><ele>555.0</ele><time>2026-04-27T08:41:38.999Z</time></trkpt><trkpt lat="42.265772040812585" lon="13.76310184692866"><ele>555.0</ele><time>2026-04-27T08:41:39.999Z</time></trkpt><trkpt lat="42.265660885461145" lon="13.763135551529363"><ele>555.0</ele><time>2026-04-27T08:41:40.999Z</time></trkpt><trkpt lat="42.2655527053952" lon="13.763195424103062"><ele>555.0</ele><time>2026-04-27T08:41:41.999Z</time></trkpt><trkpt lat="42.265446182279334" lon="13.763275061818002"><ele>555.0</ele><time>2026-04-27T08:41:42.999Z</time></trkpt><trkpt lat="42.26533700281066" lon="13.763337641711404"><ele>557.0</ele><time>2026-04-27T08:41:43.999Z</time></trkpt><trkpt lat="42.265217600301455" lon="13.763361362390059"><ele>559.0</ele><time>2026-04-27T08:41:44.999Z</time></trkpt><trkpt lat="42.26509419712511" lon="13.763338567700798"><ele>561.0</ele><time>2026-04-27T08:41:45.999Z</time></trkpt><trkpt lat="42.26496586662374" lon="13.763325063310504"><ele>563.0</ele><time>2026-04-27T08:41:46.999Z</time></trkpt><trkpt lat="42.26483818593748" lon="13.763327160673978"><ele>563.25</ele><time>2026-04-27T08:41:47.999Z</time></trkpt><trkpt lat="42.264709957009686" lon="13.763322047709861"><ele>563.5</ele><time>2026-04-27T08:41:48.999Z</time></trkpt><trkpt lat="42.26457650996863" lon="13.76332289175213"><ele>563.75</ele><time>2026-04-27T08:41:49.999Z</time></trkpt><trkpt lat="42.264448183699116" lon="13.763395300469812"><ele>564.0</ele><time>2026-04-27T08:41:50.999Z</time></trkpt><trkpt lat="42.26431238256556" lon="13.763436060817627"><ele>564.0</ele><time>2026-04-27T08:41:51.999Z</time></trkpt><trkpt lat="42.264183654579554" lon="13.76350387886184"><ele>564.0</ele><time>2026-04-27T08:41:52.999Z</time></trkpt><trkpt lat="42.26405638075715" lon="13.763576946500304"><ele>564.0</ele><time>2026-04-27T08:41:53.999Z</time></trkpt><trkpt lat="42.26393044346845" lon="13.763658175987988"><ele>564.0</ele><time>2026-04-27T08:41:54.999Z</time></trkpt><trkpt lat="42.263807077887186" lon="13.763748045513491"><ele>567.25</ele><time>2026-04-27T08:41:55.999Z</time></trkpt><trkpt lat="42.26368779437169" lon="13.763842093972402"><ele>570.5</ele><time>2026-04-27T08:41:56.999Z</time></trkpt><trkpt lat="42.26356889614639" lon="13.76394143241351"><ele>573.75</ele><time>2026-04-27T08:41:57.999Z</time></trkpt><trkpt lat="42.263446376839006" lon="13.764045407643572"><ele>577.0</ele><time>2026-04-27T08:41:58.999Z</time></trkpt><trkpt lat="42.26331578568837" lon="13.764143121318847"><ele>577.0</ele><time>2026-04-27T08:41:59.999Z</time></trkpt><trkpt lat="42.26318033062578" lon="13.764235775135663"><ele>577.0</ele><time>2026-04-27T08:42:00.999Z</time></trkpt><trkpt lat="42.263055308958165" lon="13.764327090900029"><ele>577.0</ele><time>2026-04-27T08:42:01.999Z</time></trkpt><trkpt lat="42.262928994760955" lon="13.764415268763242"><ele>577.0</ele><time>2026-04-27T08:42:02.999Z</time></trkpt><trkpt lat="42.262792751778115" lon="13.764495138262108"><ele>582.0</ele><time>2026-04-27T08:42:03.999Z</time></trkpt><trkpt lat="42.26265052172367" lon="13.764564789174234"><ele>587.0</ele><time>2026-04-27T08:42:04.999Z</time></trkpt><trkpt lat="42.262503442934864" lon="13.764592688693597"><ele>592.0</ele><time>2026-04-27T08:42:05.999Z</time></trkpt><trkpt lat="42.26234908297994" lon="13.764619069383414"><ele>592.3333333333334</ele><time>2026-04-27T08:42:06.999Z</time></trkpt><trkpt lat="42.262201461077275" lon="13.764682093187508"><ele>592.6666666666666</ele><time>2026-04-27T08:42:07.999Z</time></trkpt><trkpt lat="42.26205075649658" lon="13.76473852006539"><ele>593.0</ele><time>2026-04-27T08:42:08.999Z</time></trkpt><trkpt lat="42.26190335768732" lon="13.764801714993762"><ele>593.0</ele><time>2026-04-27T08:42:09.999Z</time></trkpt><trkpt lat="42.2617546876893" lon="13.764867976920865"><ele>593.0</ele><time>2026-04-27T08:42:10.999Z</time></trkpt><trkpt lat="42.26160203276794" lon="13.76491771861737"><ele>593.0</ele><time>2026-04-27T08:42:11.999Z</time></trkpt><trkpt lat="42.261448180006376" lon="13.764955015624167"><ele>591.0</ele><time>2026-04-27T08:42:12.999Z</time></trkpt><trkpt lat="42.2612942879497" lon="13.76499502351832"><ele>589.0</ele><time>2026-04-27T08:42:13.999Z</time></trkpt><trkpt lat="42.2611426021417" lon="13.765036643051761"><ele>587.0</ele><time>2026-04-27T08:42:14.999Z</time></trkpt><trkpt lat="42.260989431149184" lon="13.765073074701776"><ele>587.0</ele><time>2026-04-27T08:42:15.999Z</time></trkpt><trkpt lat="42.26083786995517" lon="13.76511078223277"><ele>587.0</ele><time>2026-04-27T08:42:16.999Z</time></trkpt><trkpt lat="42.26069001291814" lon="13.7651633560899"><ele>587.0</ele><time>2026-04-27T08:42:17.999Z</time></trkpt><trkpt lat="42.2605463732411" lon="13.765225684738631"><ele>593.0</ele><time>2026-04-27T08:42:18.999Z</time></trkpt><trkpt lat="42.260403038247446" lon="13.76528611268082"><ele>599.0</ele><time>2026-04-27T08:42:19.999Z</time></trkpt><trkpt lat="42.26025445215545" lon="13.765317907608003"><ele>605.0</ele><time>2026-04-27T08:42:20.999Z</time></trkpt><trkpt lat="42.26011193075766" lon="13.765375371604692"><ele>611.0</ele><time>2026-04-27T08:42:21.999Z</time></trkpt><trkpt lat="42.259980444386784" lon="13.765436258471642"><ele>611.0</ele><time>2026-04-27T08:42:22.999Z</time></trkpt><trkpt lat="42.25987006679542" lon="13.765496955388862"><ele>611.0</ele><time>2026-04-27T08:42:23.999Z</time></trkpt><trkpt lat="42.259757005456095" lon="13.765550270999357"><ele>611.0</ele><time>2026-04-27T08:42:24.999Z</time></trkpt><trkpt lat="42.25964234336745" lon="13.765592247260836"><ele>611.0</ele><time>2026-04-27T08:42:25.999Z</time></trkpt><trkpt lat="42.25953241435798" lon="13.76561266146748"><ele>610.6</ele><time>2026-04-27T08:42:26.998Z</time></trkpt><trkpt lat="42.259424227330406" lon="13.765602879370073"><ele>610.2</ele><time>2026-04-27T08:42:27.998Z</time></trkpt><trkpt lat="42.25931268227032" lon="13.765568537774664"><ele>609.8</ele><time>2026-04-27T08:42:28.998Z</time></trkpt><trkpt lat="42.259197390729426" lon="13.76554220766394"><ele>609.4</ele><time>2026-04-27T08:42:29.998Z</time></trkpt><trkpt lat="42.25909128602835" lon="13.76550755769062"><ele>609.0</ele><time>2026-04-27T08:42:30.998Z</time></trkpt><trkpt lat="42.25898273450788" lon="13.765457613512389"><ele>608.75</ele><time>2026-04-27T08:42:31.998Z</time></trkpt><trkpt lat="42.258859238400255" lon="13.765434472978713"><ele>608.5</ele><time>2026-04-27T08:42:32.998Z</time></trkpt><trkpt lat="42.25873193995562" lon="13.765431262395278"><ele>608.25</ele><time>2026-04-27T08:42:33.998Z</time></trkpt><trkpt lat="42.25861648590564" lon="13.765399489822517"><ele>608.0</ele><time>2026-04-27T08:42:34.998Z</time></trkpt><trkpt lat="42.258516120910585" lon="13.765380887865886"><ele>608.0</ele><time>2026-04-27T08:42:35.998Z</time></trkpt><trkpt lat="42.25841670129353" lon="13.765372892349014"><ele>608.0</ele><time>2026-04-27T08:42:36.998Z</time></trkpt><trkpt lat="42.25831646642674" lon="13.765353212971384"><ele>608.0</ele><time>2026-04-27T08:42:37.998Z</time></trkpt><trkpt lat="42.25822063068401" lon="13.765326395753505"><ele>608.0</ele><time>2026-04-27T08:42:38.998Z</time></trkpt><trkpt lat="42.258118858601904" lon="13.765279849350595"><ele>608.0</ele><time>2026-04-27T08:42:39.998Z</time></trkpt><trkpt lat="42.2580219347146" lon="13.76522460608936"><ele>610.0</ele><time>2026-04-27T08:42:40.998Z</time></trkpt><trkpt lat="42.257932101433106" lon="13.76514159030714"><ele>612.0</ele><time>2026-04-27T08:42:41.998Z</time></trkpt><trkpt lat="42.257829997901155" lon="13.765069216902493"><ele>614.0</ele><time>2026-04-27T08:42:42.998Z</time></trkpt><trkpt lat="42.25772322362473" lon="13.76500557656203"><ele>616.0</ele><time>2026-04-27T08:42:43.998Z</time></trkpt><trkpt lat="42.25761479294257" lon="13.764950567728112"><ele>616.0</ele><time>2026-04-27T08:42:44.998Z</time></trkpt><trkpt lat="42.25750135558511" lon="13.764897097083887"><ele>616.0</ele><time>2026-04-27T08:42:45.998Z</time></trkpt><trkpt lat="42.257396311105985" lon="13.764848938803235"><ele>616.0</ele><time>2026-04-27T08:42:46.998Z</time></trkpt><trkpt lat="42.25729062826641" lon="13.764807522231095"><ele>616.0</ele><time>2026-04-27T08:42:47.998Z</time></trkpt><trkpt lat="42.25718373773654" lon="13.764783096438743"><ele>616.0</ele><time>2026-04-27T08:42:48.998Z</time></trkpt><trkpt lat="42.257081191247536" lon="13.764717276059542"><ele>616.8</ele><time>2026-04-27T08:42:49.998Z</time></trkpt><trkpt lat="42.2569953573092" lon="13.764667417244594"><ele>617.6</ele><time>2026-04-27T08:42:50.998Z</time></trkpt><trkpt lat="42.25690689384719" lon="13.764634864839357"><ele>618.4</ele><time>2026-04-27T08:42:51.998Z</time></trkpt><trkpt lat="42.25681549065671" lon="13.764644043204063"><ele>619.2</ele><time>2026-04-27T08:42:52.998Z</time></trkpt><trkpt lat="42.25671669756145" lon="13.764722642186278"><ele>620.0</ele><time>2026-04-27T08:42:53.998Z</time></trkpt><trkpt lat="42.256612604731714" lon="13.764754290432245"><ele>620.0</ele><time>2026-04-27T08:42:54.998Z</time></trkpt><trkpt lat="42.2565126938975" lon="13.764773173146823"><ele>620.0</ele><time>2026-04-27T08:42:55.998Z</time></trkpt><trkpt lat="42.256415858212534" lon="13.764787216427328"><ele>620.0</ele><time>2026-04-27T08:42:56.998Z</time></trkpt><trkpt lat="42.256324217181195" lon="13.76479293319661"><ele>620.0</ele><time>2026-04-27T08:42:57.998Z</time></trkpt><trkpt lat="42.25623983420128" lon="13.764792801056146"><ele>620.0</ele><time>2026-04-27T08:42:58.998Z</time></trkpt><trkpt lat="42.25615041929262" lon="13.764795347908668"><ele>621.6</ele><time>2026-04-27T08:42:59.998Z</time></trkpt><trkpt lat="42.256059050355844" lon="13.764779061545479"><ele>623.2</ele><time>2026-04-27T08:43:00.998Z</time></trkpt><trkpt lat="42.255966345566556" lon="13.764755900036388"><ele>624.8</ele><time>2026-04-27T08:43:01.998Z</time></trkpt><trkpt lat="42.25586307008179" lon="13.76474474352469"><ele>626.4</ele><time>2026-04-27T08:43:02.998Z</time></trkpt><trkpt lat="42.2557482360939" lon="13.76473969752935"><ele>628.0</ele><time>2026-04-27T08:43:03.998Z</time></trkpt><trkpt lat="42.25563777684211" lon="13.764727341408474"><ele>629.25</ele><time>2026-04-27T08:43:04.998Z</time></trkpt><trkpt lat="42.25551991956204" lon="13.764704690978455"><ele>630.5</ele><time>2026-04-27T08:43:05.998Z</time></trkpt><trkpt lat="42.25540717766448" lon="13.764657960462898"><ele>631.75</ele><time>2026-04-27T08:43:07Z</time></trkpt><trkpt lat="42.25529273895881" lon="13.764642653738782"><ele>633.0</ele><time>2026-04-27T08:43:08Z</time></trkpt><trkpt lat="42.25519683436284" lon="13.764585486996054"><ele>633.0</ele><time>2026-04-27T08:43:09Z</time></trkpt><trkpt lat="42.25510547789176" lon="13.764516176887268"><ele>633.0</ele><time>2026-04-27T08:43:10Z</time></trkpt><trkpt lat="42.2550010081147" lon="13.76450098250872"><ele>633.0</ele><time>2026-04-27T08:43:11Z</time></trkpt><trkpt lat="42.25489006612994" lon="13.764535572877582"><ele>633.0</ele><time>2026-04-27T08:43:12Z</time></trkpt><trkpt lat="42.25478885928758" lon="13.764573738814777"><ele>633.0</ele><time>2026-04-27T08:43:13Z</time></trkpt><trkpt lat="42.254690026216934" lon="13.764575070578843"><ele>635.2</ele><time>2026-04-27T08:43:14Z</time></trkpt><trkpt lat="42.25458718489175" lon="13.764552723190441"><ele>637.4</ele><time>2026-04-27T08:43:15Z</time></trkpt><trkpt lat="42.254488365425644" lon="13.764532096757918"><ele>639.6</ele><time>2026-04-27T08:43:16Z</time></trkpt><trkpt lat="42.254388479277715" lon="13.76450269343181"><ele>641.8000000000001</ele><time>2026-04-27T08:43:17Z</time></trkpt><trkpt lat="42.25428440173396" lon="13.764476624471678"><ele>644.0</ele><time>2026-04-27T08:43:18Z</time></trkpt><trkpt lat="42.25417023969762" lon="13.764484333927976"><ele>644.0</ele><time>2026-04-27T08:43:19Z</time></trkpt><trkpt lat="42.25406916992293" lon="13.764426743017193"><ele>644.0</ele><time>2026-04-27T08:43:20Z</time></trkpt><trkpt lat="42.25397861073134" lon="13.764397166607992"><ele>644.0</ele><time>2026-04-27T08:43:21Z</time></trkpt><trkpt lat="42.25390586558482" lon="13.764370688571214"><ele>644.0</ele><time>2026-04-27T08:43:22Z</time></trkpt><trkpt lat="42.25384157510629" lon="13.764341467932468"><ele>644.0</ele><time>2026-04-27T08:43:23Z</time></trkpt><trkpt lat="42.25377505066086" lon="13.76431038216816"><ele>644.0</ele><time>2026-04-27T08:43:24Z</time></trkpt><trkpt lat="42.2536999494657" lon="13.764271166128777"><ele>645.4000000000001</ele><time>2026-04-27T08:43:25Z</time></trkpt><trkpt lat="42.2536239720484" lon="13.764213327219032"><ele>646.8</ele><time>2026-04-27T08:43:26Z</time></trkpt><trkpt lat="42.25355131403658" lon="13.764134342791117"><ele>648.2</ele><time>2026-04-27T08:43:27Z</time></trkpt><trkpt lat="42.253501379695095" lon="13.764032503395882"><ele>649.5999999999999</ele><time>2026-04-27T08:43:27.999Z</time></trkpt><trkpt lat="42.25344113538496" lon="13.763911752719116"><ele>651.0</ele><time>2026-04-27T08:43:28.999Z</time></trkpt><trkpt lat="42.2533667031313" lon="13.763796649315065"><ele>651.0</ele><time>2026-04-27T08:43:29.999Z</time></trkpt><trkpt lat="42.25327900277786" lon="13.763685135202817"><ele>651.0</ele><time>2026-04-27T08:43:30.999Z</time></trkpt><trkpt lat="42.253182390183476" lon="13.763599997901691"><ele>651.0</ele><time>2026-04-27T08:43:31.999Z</time></trkpt><trkpt lat="42.25307258554098" lon="13.76353394359699"><ele>651.0</ele><time>2026-04-27T08:43:32.999Z</time></trkpt><trkpt lat="42.25295466404146" lon="13.763484125058572"><ele>652.75</ele><time>2026-04-27T08:43:33.999Z</time></trkpt><trkpt lat="42.25284348758748" lon="13.763447079009605"><ele>654.5</ele><time>2026-04-27T08:43:34.999Z</time></trkpt><trkpt lat="42.252724405469756" lon="13.763422367110053"><ele>656.25</ele><time>2026-04-27T08:43:35.999Z</time></trkpt><trkpt lat="42.252598713609935" lon="13.763408382376635"><ele>658.0</ele><time>2026-04-27T08:43:36.999Z</time></trkpt><trkpt lat="42.25247182431189" lon="13.763394497151443"><ele>658.0</ele><time>2026-04-27T08:43:37.999Z</time></trkpt><trkpt lat="42.25235595544449" lon="13.763372465540018"><ele>658.0</ele><time>2026-04-27T08:43:38.999Z</time></trkpt><trkpt lat="42.252252913138676" lon="13.763339349177542"><ele>658.0</ele><time>2026-04-27T08:43:39.999Z</time></trkpt><trkpt lat="42.252150081865494" lon="13.763292946264308"><ele>658.0</ele><time>2026-04-27T08:43:40.999Z</time></trkpt><trkpt lat="42.25205157951597" lon="13.763235733789212"><ele>658.0</ele><time>2026-04-27T08:43:41.999Z</time></trkpt><trkpt lat="42.25195547905802" lon="13.763176711740336"><ele>657.4</ele><time>2026-04-27T08:43:42.999Z</time></trkpt><trkpt lat="42.251867574887385" lon="13.76310665715851"><ele>656.8</ele><time>2026-04-27T08:43:43.999Z</time></trkpt><trkpt lat="42.25179043782472" lon="13.76301060276161"><ele>656.2</ele><time>2026-04-27T08:43:44.999Z</time></trkpt><trkpt lat="42.25170949647834" lon="13.762926983947933"><ele>655.6</ele><time>2026-04-27T08:43:45.999Z</time></trkpt><trkpt lat="42.25165419307956" lon="13.762828513620898"><ele>655.0</ele><time>2026-04-27T08:43:46.999Z</time></trkpt><trkpt lat="42.25158955587902" lon="13.762738829532871"><ele>659.5</ele><time>2026-04-27T08:43:47.999Z</time></trkpt><trkpt lat="42.25150540363293" lon="13.762659357635465"><ele>664.0</ele><time>2026-04-27T08:43:48.999Z</time></trkpt><trkpt lat="42.25140860224264" lon="13.76258916732468"><ele>668.5</ele><time>2026-04-27T08:43:49.999Z</time></trkpt><trkpt lat="42.251305715775906" lon="13.762509064406453"><ele>673.0</ele><time>2026-04-27T08:43:50.999Z</time></trkpt><trkpt lat="42.25120802158711" lon="13.762416271544664"><ele>673.0</ele><time>2026-04-27T08:43:51.999Z</time></trkpt><trkpt lat="42.251117167072906" lon="13.76233927448308"><ele>673.0</ele><time>2026-04-27T08:43:52.999Z</time></trkpt><trkpt lat="42.2510248235233" lon="13.762281542075604"><ele>673.0</ele><time>2026-04-27T08:43:53.999Z</time></trkpt><trkpt lat="42.250929230487095" lon="13.762241410945139"><ele>673.0</ele><time>2026-04-27T08:43:54.999Z</time></trkpt><trkpt lat="42.25083707424671" lon="13.762212558269066"><ele>673.0</ele><time>2026-04-27T08:43:55.999Z</time></trkpt><trkpt lat="42.250759591243465" lon="13.76219643050658"><ele>673.0</ele><time>2026-04-27T08:43:56.999Z</time></trkpt><trkpt lat="42.250656085786055" lon="13.762286559753118"><ele>673.0</ele><time>2026-04-27T08:43:58.999Z</time></trkpt><trkpt lat="42.250628840051554" lon="13.762449800310307"><ele>673.0</ele><time>2026-04-27T08:44:00.999Z</time></trkpt><trkpt lat="42.25054532023527" lon="13.762583570965703"><ele>673.0</ele><time>2026-04-27T08:44:02.999Z</time></trkpt><trkpt lat="42.250474625147085" lon="13.762630536328318"><ele>672.3333333333334</ele><time>2026-04-27T08:44:03.999Z</time></trkpt><trkpt lat="42.2504028521087" lon="13.762658112042056"><ele>671.6666666666667</ele><time>2026-04-27T08:44:04.999Z</time></trkpt><trkpt lat="42.2503255444211" lon="13.762686174578343"><ele>671.0</ele><time>2026-04-27T08:44:05.999Z</time></trkpt><trkpt lat="42.2502450351389" lon="13.762709764693268"><ele>670.3333333333334</ele><time>2026-04-27T08:44:06.999Z</time></trkpt><trkpt lat="42.25016536124148" lon="13.762726393337482"><ele>669.6666666666666</ele><time>2026-04-27T08:44:07.999Z</time></trkpt><trkpt lat="42.25007428817754" lon="13.762740839514185"><ele>669.0</ele><time>2026-04-27T08:44:08.999Z</time></trkpt><trkpt lat="42.249984162178144" lon="13.7627615388366"><ele>669.0</ele><time>2026-04-27T08:44:09.999Z</time></trkpt><trkpt lat="42.24988665244166" lon="13.762793605599313"><ele>669.0</ele><time>2026-04-27T08:44:10.999Z</time></trkpt><trkpt lat="42.24979195501677" lon="13.762836268975608"><ele>669.0</ele><time>2026-04-27T08:44:11.999Z</time></trkpt><trkpt lat="42.249699019737704" lon="13.762887230357745"><ele>669.0</ele><time>2026-04-27T08:44:12.999Z</time></trkpt><trkpt lat="42.24960897348754" lon="13.762961563754239"><ele>669.0</ele><time>2026-04-27T08:44:13.999Z</time></trkpt><trkpt lat="42.24952501480843" lon="13.763057825622239"><ele>672.0</ele><time>2026-04-27T08:44:14.999Z</time></trkpt><trkpt lat="42.24944615177153" lon="13.76314983457414"><ele>675.0</ele><time>2026-04-27T08:44:15.999Z</time></trkpt><trkpt lat="42.24937791320828" lon="13.763223718194242"><ele>678.0</ele><time>2026-04-27T08:44:16.999Z</time></trkpt><trkpt lat="42.24931286156515" lon="13.763282117122419"><ele>681.0</ele><time>2026-04-27T08:44:17.999Z</time></trkpt><trkpt lat="42.24921842983397" lon="13.763347234322575"><ele>684.0</ele><time>2026-04-27T08:44:18.999Z</time></trkpt><trkpt lat="42.24911698266097" lon="13.763401663633"><ele>684.0</ele><time>2026-04-27T08:44:19.999Z</time></trkpt><trkpt lat="42.249012803650615" lon="13.76345629762385"><ele>684.0</ele><time>2026-04-27T08:44:20.999Z</time></trkpt><trkpt lat="42.2489096392453" lon="13.763518717205969"><ele>684.0</ele><time>2026-04-27T08:44:21.999Z</time></trkpt><trkpt lat="42.24880639843421" lon="13.763589497285828"><ele>684.0</ele><time>2026-04-27T08:44:22.999Z</time></trkpt><trkpt lat="42.24871316133435" lon="13.76366575700375"><ele>685.0</ele><time>2026-04-27T08:44:23.999Z</time></trkpt><trkpt lat="42.24862552026644" lon="13.763757410730417"><ele>686.0</ele><time>2026-04-27T08:44:24.999Z</time></trkpt><trkpt lat="42.24853916283112" lon="13.763853729021688"><ele>687.0</ele><time>2026-04-27T08:44:25.999Z</time></trkpt><trkpt lat="42.248445516279794" lon="13.763976913379771"><ele>688.0</ele><time>2026-04-27T08:44:26.999Z</time></trkpt><trkpt lat="42.24836752100534" lon="13.764065401196534"><ele>688.0</ele><time>2026-04-27T08:44:27.999Z</time></trkpt><trkpt lat="42.2482841351798" lon="13.764156633237354"><ele>688.0</ele><time>2026-04-27T08:44:28.999Z</time></trkpt><trkpt lat="42.24819257592434" lon="13.764257183029175"><ele>688.0</ele><time>2026-04-27T08:44:29.998Z</time></trkpt><trkpt lat="42.24809890207434" lon="13.764360131017929"><ele>688.0</ele><time>2026-04-27T08:44:30.998Z</time></trkpt><trkpt lat="42.24800396645494" lon="13.764464124607224"><ele>689.5999999999999</ele><time>2026-04-27T08:44:31.998Z</time></trkpt><trkpt lat="42.24790473190783" lon="13.764572590347086"><ele>691.1999999999999</ele><time>2026-04-27T08:44:32.998Z</time></trkpt><trkpt lat="42.247825540343996" lon="13.764668099202222"><ele>692.8</ele><time>2026-04-27T08:44:33.998Z</time></trkpt><trkpt lat="42.24776949852338" lon="13.764760959847909"><ele>694.4</ele><time>2026-04-27T08:44:34.998Z</time></trkpt><trkpt lat="42.24773814144696" lon="13.764848514185271"><ele>696.0</ele><time>2026-04-27T08:44:35.998Z</time></trkpt><trkpt lat="42.2477131455556" lon="13.76492763673349"><ele>696.0</ele><time>2026-04-27T08:44:36.998Z</time></trkpt><trkpt lat="42.247658961833544" lon="13.764996122372958"><ele>696.0</ele><time>2026-04-27T08:44:37.998Z</time></trkpt><trkpt lat="42.24760241781059" lon="13.765074773927324"><ele>696.0</ele><time>2026-04-27T08:44:38.998Z</time></trkpt><trkpt lat="42.24753416151561" lon="13.765160244681924"><ele>696.0</ele><time>2026-04-27T08:44:39.998Z</time></trkpt><trkpt lat="42.247460836460434" lon="13.76522775436551"><ele>696.0</ele><time>2026-04-27T08:44:40.998Z</time></trkpt><trkpt lat="42.24737242846143" lon="13.76528894255185"><ele>696.0</ele><time>2026-04-27T08:44:41.998Z</time></trkpt><trkpt lat="42.24728377342899" lon="13.765349527221225"><ele>699.1999999999999</ele><time>2026-04-27T08:44:42.998Z</time></trkpt><trkpt lat="42.24719689718623" lon="13.765415142743132"><ele>702.4</ele><time>2026-04-27T08:44:43.998Z</time></trkpt><trkpt lat="42.24710460185518" lon="13.765464478493431"><ele>705.6</ele><time>2026-04-27T08:44:44.998Z</time></trkpt><trkpt lat="42.247021832868256" lon="13.765490900324222"><ele>708.8</ele><time>2026-04-27T08:44:45.998Z</time></trkpt><trkpt lat="42.2469401802537" lon="13.765517412440312"><ele>712.0</ele><time>2026-04-27T08:44:46.998Z</time></trkpt><trkpt lat="42.24686207810194" lon="13.765564457619416"><ele>712.0</ele><time>2026-04-27T08:44:47.998Z</time></trkpt><trkpt lat="42.24678646398618" lon="13.76563161342756"><ele>712.0</ele><time>2026-04-27T08:44:48.998Z</time></trkpt><trkpt lat="42.24670455322442" lon="13.765692048983146"><ele>712.0</ele><time>2026-04-27T08:44:49.998Z</time></trkpt><trkpt lat="42.24662602178241" lon="13.765761571840272"><ele>712.0</ele><time>2026-04-27T08:44:50.998Z</time></trkpt><trkpt lat="42.24655419823043" lon="13.765831695946943"><ele>712.0</ele><time>2026-04-27T08:44:51.998Z</time></trkpt><trkpt lat="42.246476683155976" lon="13.765888324277405"><ele>713.6</ele><time>2026-04-27T08:44:52.998Z</time></trkpt><trkpt lat="42.246406723231125" lon="13.765976705706528"><ele>715.2</ele><time>2026-04-27T08:44:53.998Z</time></trkpt><trkpt lat="42.24634564636308" lon="13.766085922203962"><ele>716.8</ele><time>2026-04-27T08:44:54.998Z</time></trkpt><trkpt lat="42.246287108358345" lon="13.766184355449578"><ele>718.4</ele><time>2026-04-27T08:44:55.998Z</time></trkpt><trkpt lat="42.246226702867176" lon="13.766274910425425"><ele>720.0</ele><time>2026-04-27T08:44:56.998Z</time></trkpt><trkpt lat="42.24615707384898" lon="13.766360817384532"><ele>720.0</ele><time>2026-04-27T08:44:57.998Z</time></trkpt><trkpt lat="42.24609127937605" lon="13.766440576197091"><ele>720.0</ele><time>2026-04-27T08:44:58.998Z</time></trkpt><trkpt lat="42.24603408176156" lon="13.766507207234072"><ele>720.0</ele><time>2026-04-27T08:44:59.998Z</time></trkpt><trkpt lat="42.245970471658616" lon="13.76655413231918"><ele>720.0</ele><time>2026-04-27T08:45:00.998Z</time></trkpt><trkpt lat="42.24589823894908" lon="13.766563100933213"><ele>720.0</ele><time>2026-04-27T08:45:01.998Z</time></trkpt><trkpt lat="42.245819524421975" lon="13.766547949669343"><ele>720.0</ele><time>2026-04-27T08:45:02.998Z</time></trkpt><trkpt lat="42.24572648340305" lon="13.766555321354847"><ele>720.0</ele><time>2026-04-27T08:45:03.998Z</time></trkpt><trkpt lat="42.24563148798231" lon="13.766618192792967"><ele>720.0</ele><time>2026-04-27T08:45:04.998Z</time></trkpt><trkpt lat="42.24553232982067" lon="13.76666673341692"><ele>720.0</ele><time>2026-04-27T08:45:05.998Z</time></trkpt><trkpt lat="42.24543925113766" lon="13.76671654566521"><ele>720.0</ele><time>2026-04-27T08:45:06.998Z</time></trkpt><trkpt lat="42.245347874259075" lon="13.766782741027578"><ele>720.0</ele><time>2026-04-27T08:45:07.998Z</time></trkpt><trkpt lat="42.245270216066935" lon="13.766842607785685"><ele>719.8</ele><time>2026-04-27T08:45:08.998Z</time></trkpt><trkpt lat="42.24519152492271" lon="13.766872183087031"><ele>719.6</ele><time>2026-04-27T08:45:09.998Z</time></trkpt><trkpt lat="42.2451041922915" lon="13.766881831453203"><ele>719.4000000000001</ele><time>2026-04-27T08:45:10.998Z</time></trkpt><trkpt lat="42.24499951038822" lon="13.766897319428683"><ele>719.2</ele><time>2026-04-27T08:45:11.998Z</time></trkpt><trkpt lat="42.24489195771172" lon="13.766934938653401"><ele>719.0</ele><time>2026-04-27T08:45:13Z</time></trkpt><trkpt lat="42.24478650879209" lon="13.76697045836317"><ele>721.0</ele><time>2026-04-27T08:45:14Z</time></trkpt><trkpt lat="42.244698495177715" lon="13.767006401705967"><ele>723.0</ele><time>2026-04-27T08:45:15Z</time></trkpt><trkpt lat="42.24460680415084" lon="13.767048729470005"><ele>725.0</ele><time>2026-04-27T08:45:16Z</time></trkpt><trkpt lat="42.244502530667454" lon="13.767073352420962"><ele>727.0</ele><time>2026-04-27T08:45:17Z</time></trkpt><trkpt lat="42.24439670921516" lon="13.76708615608815"><ele>729.0</ele><time>2026-04-27T08:45:18Z</time></trkpt><trkpt lat="42.24429367518513" lon="13.767095289253547"><ele>729.0</ele><time>2026-04-27T08:45:19Z</time></trkpt><trkpt lat="42.24420453081088" lon="13.767094132935616"><ele>729.0</ele><time>2026-04-27T08:45:20Z</time></trkpt><trkpt lat="42.24412290991692" lon="13.767105914580403"><ele>729.0</ele><time>2026-04-27T08:45:21Z</time></trkpt><trkpt lat="42.24404057473095" lon="13.767133066864348"><ele>729.0</ele><time>2026-04-27T08:45:22Z</time></trkpt><trkpt lat="42.24395620507544" lon="13.767168720630227"><ele>729.0</ele><time>2026-04-27T08:45:23Z</time></trkpt><trkpt lat="42.24387321762475" lon="13.767184600111383"><ele>729.0</ele><time>2026-04-27T08:45:24Z</time></trkpt><trkpt lat="42.24378185678324" lon="13.767201842193604"><ele>732.0</ele><time>2026-04-27T08:45:25Z</time></trkpt><trkpt lat="42.24369109760349" lon="13.767235688311677"><ele>735.0</ele><time>2026-04-27T08:45:26Z</time></trkpt><trkpt lat="42.24360658846001" lon="13.76726848482001"><ele>738.0</ele><time>2026-04-27T08:45:27Z</time></trkpt><trkpt lat="42.243518372158036" lon="13.76729147166737"><ele>741.0</ele><time>2026-04-27T08:45:28Z</time></trkpt><trkpt lat="42.243429457149055" lon="13.767287784946232"><ele>744.0</ele><time>2026-04-27T08:45:29Z</time></trkpt><trkpt lat="42.243328853477855" lon="13.767294734631276"><ele>744.0</ele><time>2026-04-27T08:45:30Z</time></trkpt><trkpt lat="42.24322673395312" lon="13.767317022337467"><ele>744.0</ele><time>2026-04-27T08:45:30.999Z</time></trkpt><trkpt lat="42.24312647607558" lon="13.76732876236747"><ele>744.0</ele><time>2026-04-27T08:45:31.999Z</time></trkpt><trkpt lat="42.24304645758805" lon="13.767340748029461"><ele>744.0</ele><time>2026-04-27T08:45:32.999Z</time></trkpt><trkpt lat="42.24295230641938" lon="13.767351644538962"><ele>744.0</ele><time>2026-04-27T08:45:33.999Z</time></trkpt><trkpt lat="42.24285332360586" lon="13.767357270575225"><ele>746.6</ele><time>2026-04-27T08:45:34.999Z</time></trkpt><trkpt lat="42.242748521604696" lon="13.767368565198458"><ele>749.2</ele><time>2026-04-27T08:45:35.999Z</time></trkpt><trkpt lat="42.24264148899524" lon="13.76739118083423"><ele>751.8000000000001</ele><time>2026-04-27T08:45:36.999Z</time></trkpt><trkpt lat="42.24254209228561" lon="13.767425611972508"><ele>754.4000000000001</ele><time>2026-04-27T08:45:37.999Z</time></trkpt><trkpt lat="42.242444706668614" lon="13.76745535107946"><ele>757.0</ele><time>2026-04-27T08:45:38.999Z</time></trkpt><trkpt lat="42.242348396520235" lon="13.767487840801548"><ele>757.0</ele><time>2026-04-27T08:45:39.999Z</time></trkpt><trkpt lat="42.24225427205992" lon="13.767525441709626"><ele>757.0</ele><time>2026-04-27T08:45:40.999Z</time></trkpt><trkpt lat="42.24215827586132" lon="13.767555910743589"><ele>757.0</ele><time>2026-04-27T08:45:41.999Z</time></trkpt><trkpt lat="42.242055931590166" lon="13.767584874431506"><ele>757.0</ele><time>2026-04-27T08:45:42.999Z</time></trkpt><trkpt lat="42.241966357802596" lon="13.767640670818528"><ele>757.0</ele><time>2026-04-27T08:45:43.999Z</time></trkpt><trkpt lat="42.241871305409276" lon="13.7677206659556"><ele>757.0</ele><time>2026-04-27T08:45:44.999Z</time></trkpt><trkpt lat="42.24178589593812" lon="13.767784337526832"><ele>757.0</ele><time>2026-04-27T08:45:45.999Z</time></trkpt><trkpt lat="42.24169545959057" lon="13.767854187229394"><ele>757.0</ele><time>2026-04-27T08:45:46.999Z</time></trkpt><trkpt lat="42.24161488308489" lon="13.767936081664269"><ele>757.0</ele><time>2026-04-27T08:45:47.999Z</time></trkpt><trkpt lat="42.24153274315292" lon="13.768032713699167"><ele>757.0</ele><time>2026-04-27T08:45:48.999Z</time></trkpt><trkpt lat="42.24145915404868" lon="13.768145300275556"><ele>761.5</ele><time>2026-04-27T08:45:49.999Z</time></trkpt><trkpt lat="42.24138437493051" lon="13.768267915096315"><ele>766.0</ele><time>2026-04-27T08:45:50.999Z</time></trkpt><trkpt lat="42.24131025793975" lon="13.768409034240099"><ele>770.5</ele><time>2026-04-27T08:45:51.999Z</time></trkpt><trkpt lat="42.24123606169597" lon="13.768545225920212"><ele>775.0</ele><time>2026-04-27T08:45:52.999Z</time></trkpt><trkpt lat="42.24114969078928" lon="13.768668393948541"><ele>775.0</ele><time>2026-04-27T08:45:53.999Z</time></trkpt><trkpt lat="42.241061775643885" lon="13.768782042453324"><ele>775.0</ele><time>2026-04-27T08:45:54.999Z</time></trkpt><trkpt lat="42.24098095812042" lon="13.7688991921963"><ele>775.0</ele><time>2026-04-27T08:45:55.999Z</time></trkpt><trkpt lat="42.24092086636184" lon="13.76900988827154"><ele>775.0</ele><time>2026-04-27T08:45:56.999Z</time></trkpt><trkpt lat="42.24085795713024" lon="13.769118908145925"><ele>775.0</ele><time>2026-04-27T08:45:57.999Z</time></trkpt><trkpt lat="42.24081543067468" lon="13.769219430914855"><ele>774.9999999999999</ele><time>2026-04-27T08:45:58.999Z</time></trkpt><trkpt lat="42.24077374439856" lon="13.769310212554284"><ele>775.0</ele><time>2026-04-27T08:45:59.999Z</time></trkpt><trkpt lat="42.24067215577349" lon="13.769334226936886"><ele>775.0</ele><time>2026-04-27T08:46:01.999Z</time></trkpt><trkpt lat="42.24060202008875" lon="13.769331387730038"><ele>775.0</ele><time>2026-04-27T08:46:02.999Z</time></trkpt><trkpt lat="42.24052001381901" lon="13.769305234076622"><ele>774.9999999999999</ele><time>2026-04-27T08:46:03.999Z</time></trkpt><trkpt lat="42.24042797743201" lon="13.769265696675134"><ele>775.0</ele><time>2026-04-27T08:46:04.999Z</time></trkpt><trkpt lat="42.24032559406376" lon="13.769240263967435"><ele>777.8</ele><time>2026-04-27T08:46:05.999Z</time></trkpt><trkpt lat="42.24022980480943" lon="13.769214008392817"><ele>780.6</ele><time>2026-04-27T08:46:06.999Z</time></trkpt><trkpt lat="42.24012186311518" lon="13.769188152452186"><ele>783.4000000000001</ele><time>2026-04-27T08:46:07.999Z</time></trkpt><trkpt lat="42.24001199209891" lon="13.7691817130316"><ele>786.2</ele><time>2026-04-27T08:46:08.999Z</time></trkpt><trkpt lat="42.23990825674387" lon="13.769176146376896"><ele>789.0</ele><time>2026-04-27T08:46:09.999Z</time></trkpt><trkpt lat="42.23980442319376" lon="13.76916151830791"><ele>792.2</ele><time>2026-04-27T08:46:10.999Z</time></trkpt><trkpt lat="42.239695247698045" lon="13.769136600955257"><ele>795.4000000000001</ele><time>2026-04-27T08:46:11.999Z</time></trkpt><trkpt lat="42.23960090212756" lon="13.76910099175662"><ele>798.6</ele><time>2026-04-27T08:46:12.999Z</time></trkpt><trkpt lat="42.239511287403964" lon="13.76907514983351"><ele>801.8</ele><time>2026-04-27T08:46:13.999Z</time></trkpt><trkpt lat="42.239423814430474" lon="13.769082479994893"><ele>805.0</ele><time>2026-04-27T08:46:14.999Z</time></trkpt><trkpt lat="42.23933883089918" lon="13.76906438779563"><ele>805.0</ele><time>2026-04-27T08:46:15.999Z</time></trkpt><trkpt lat="42.23928121888098" lon="13.769144264112366"><ele>805.0</ele><time>2026-04-27T08:46:16.999Z</time></trkpt><trkpt lat="42.239183204098076" lon="13.769217545367212"><ele>805.0</ele><time>2026-04-27T08:46:18.999Z</time></trkpt><trkpt lat="42.239060101282014" lon="13.769316981549364"><ele>805.0</ele><time>2026-04-27T08:46:20.999Z</time></trkpt><trkpt lat="42.238998322831655" lon="13.76934786290664"><ele>805.0</ele><time>2026-04-27T08:46:21.999Z</time></trkpt><trkpt lat="42.23889728930515" lon="13.769373172487851"><ele>804.8333333333333</ele><time>2026-04-27T08:46:23.999Z</time></trkpt><trkpt lat="42.238832461847835" lon="13.769377890029894"><ele>804.6666666666666</ele><time>2026-04-27T08:46:24.999Z</time></trkpt><trkpt lat="42.238705095282434" lon="13.769404127863595"><ele>804.5</ele><time>2026-04-27T08:46:26.999Z</time></trkpt><trkpt lat="42.23863787925073" lon="13.769405470832604"><ele>804.3333333333333</ele><time>2026-04-27T08:46:27.999Z</time></trkpt><trkpt lat="42.23854890457307" lon="13.76939678790891"><ele>804.1666666666666</ele><time>2026-04-27T08:46:28.999Z</time></trkpt><trkpt lat="42.23846023739194" lon="13.769416687265945"><ele>804.0</ele><time>2026-04-27T08:46:29.999Z</time></trkpt><trkpt lat="42.238373700199325" lon="13.76944425157127"><ele>804.0</ele><time>2026-04-27T08:46:30.999Z</time></trkpt><trkpt lat="42.238280911851895" lon="13.769479037692328"><ele>804.0</ele><time>2026-04-27T08:46:31.998Z</time></trkpt><trkpt lat="42.23818370297409" lon="13.769518266042448"><ele>804.0</ele><time>2026-04-27T08:46:32.998Z</time></trkpt><trkpt lat="42.23808907019688" lon="13.769568413942144"><ele>804.0</ele><time>2026-04-27T08:46:33.998Z</time></trkpt><trkpt lat="42.23800248973222" lon="13.76962889217961"><ele>804.0</ele><time>2026-04-27T08:46:34.998Z</time></trkpt><trkpt lat="42.23791834492837" lon="13.76968762123516"><ele>807.4000000000001</ele><time>2026-04-27T08:46:35.998Z</time></trkpt><trkpt lat="42.237831713760144" lon="13.769743163492704"><ele>810.8</ele><time>2026-04-27T08:46:36.998Z</time></trkpt><trkpt lat="42.237740934078516" lon="13.769792539569238"><ele>814.2</ele><time>2026-04-27T08:46:37.998Z</time></trkpt><trkpt lat="42.23764832671703" lon="13.769829444324712"><ele>817.5999999999999</ele><time>2026-04-27T08:46:38.998Z</time></trkpt><trkpt lat="42.23755447441785" lon="13.769857645214332"><ele>821.0</ele><time>2026-04-27T08:46:39.998Z</time></trkpt><trkpt lat="42.23746271395179" lon="13.769871699512732"><ele>821.0</ele><time>2026-04-27T08:46:40.998Z</time></trkpt><trkpt lat="42.23735912332532" lon="13.769894787620757"><ele>821.0</ele><time>2026-04-27T08:46:41.998Z</time></trkpt><trkpt lat="42.23726701758175" lon="13.769923423915763"><ele>821.0</ele><time>2026-04-27T08:46:42.998Z</time></trkpt><trkpt lat="42.23717835282567" lon="13.76995383056261"><ele>821.0</ele><time>2026-04-27T08:46:43.998Z</time></trkpt><trkpt lat="42.23709986550548" lon="13.769993935193078"><ele>821.0</ele><time>2026-04-27T08:46:44.998Z</time></trkpt><trkpt lat="42.237014637170006" lon="13.77005678263959"><ele>822.4</ele><time>2026-04-27T08:46:45.998Z</time></trkpt><trkpt lat="42.236935702632294" lon="13.77016101510611"><ele>823.8</ele><time>2026-04-27T08:46:46.998Z</time></trkpt><trkpt lat="42.23686454592476" lon="13.770254082894278"><ele>825.1999999999999</ele><time>2026-04-27T08:46:47.998Z</time></trkpt><trkpt lat="42.23679680694805" lon="13.770325423826671"><ele>826.5999999999999</ele><time>2026-04-27T08:46:48.998Z</time></trkpt><trkpt lat="42.236718673239565" lon="13.770382638283804"><ele>828.0</ele><time>2026-04-27T08:46:49.998Z</time></trkpt><trkpt lat="42.23663257251934" lon="13.770431602186862"><ele>828.0</ele><time>2026-04-27T08:46:50.998Z</time></trkpt><trkpt lat="42.23655099924495" lon="13.770459608962037"><ele>828.0</ele><time>2026-04-27T08:46:51.998Z</time></trkpt><trkpt lat="42.23645942274986" lon="13.770486725177992"><ele>828.0</ele><time>2026-04-27T08:46:52.998Z</time></trkpt><trkpt lat="42.236371187254285" lon="13.770510485896672"><ele>828.0</ele><time>2026-04-27T08:46:53.998Z</time></trkpt><trkpt lat="42.23627005241302" lon="13.770537806032246"><ele>828.0</ele><time>2026-04-27T08:46:54.998Z</time></trkpt><trkpt lat="42.23616630472518" lon="13.770563820379682"><ele>829.4</ele><time>2026-04-27T08:46:55.998Z</time></trkpt><trkpt lat="42.23607296551008" lon="13.770592244195734"><ele>830.8</ele><time>2026-04-27T08:46:56.998Z</time></trkpt><trkpt lat="42.23599892668447" lon="13.77061904268994"><ele>832.2</ele><time>2026-04-27T08:46:57.998Z</time></trkpt><trkpt lat="42.235890750934615" lon="13.770660998258453"><ele>833.6</ele><time>2026-04-27T08:46:59.998Z</time></trkpt><trkpt lat="42.235820430439766" lon="13.770706821451133"><ele>835.0</ele><time>2026-04-27T08:47:03.998Z</time></trkpt><trkpt lat="42.23583942314502" lon="13.770997140521844"><ele>836.0</ele><time>2026-04-27T08:47:05.998Z</time></trkpt><trkpt lat="42.23586149040881" lon="13.771110469868622"><ele>837.0</ele><time>2026-04-27T08:47:06.998Z</time></trkpt><trkpt lat="42.235885964026934" lon="13.771237121921228"><ele>838.0</ele><time>2026-04-27T08:47:07.998Z</time></trkpt><trkpt lat="42.235901889706376" lon="13.771384426044797"><ele>839.0</ele><time>2026-04-27T08:47:08.998Z</time></trkpt><trkpt lat="42.235910593919115" lon="13.771531400690634"><ele>840.0</ele><time>2026-04-27T08:47:09.998Z</time></trkpt><trkpt lat="42.23591556291218" lon="13.771661874248151"><ele>840.0</ele><time>2026-04-27T08:47:10.998Z</time></trkpt><trkpt lat="42.23591748127685" lon="13.771780317244813"><ele>840.0</ele><time>2026-04-27T08:47:11.998Z</time></trkpt><trkpt lat="42.23589269498254" lon="13.771913973711463"><ele>840.0</ele><time>2026-04-27T08:47:12.998Z</time></trkpt><trkpt lat="42.23584293434919" lon="13.772049840787194"><ele>840.0</ele><time>2026-04-27T08:47:13.998Z</time></trkpt><trkpt lat="42.23577234322988" lon="13.77217840851712"><ele>840.0</ele><time>2026-04-27T08:47:14.998Z</time></trkpt><trkpt lat="42.23569061599801" lon="13.77229072867204"><ele>840.0</ele><time>2026-04-27T08:47:15.998Z</time></trkpt><trkpt lat="42.23561271451082" lon="13.772389071106256"><ele>840.0</ele><time>2026-04-27T08:47:16.998Z</time></trkpt><trkpt lat="42.235552555589656" lon="13.77249384235484"><ele>840.0</ele><time>2026-04-27T08:47:17.998Z</time></trkpt><trkpt lat="42.235498225524424" lon="13.77262511250246"><ele>840.0</ele><time>2026-04-27T08:47:19Z</time></trkpt><trkpt lat="42.235437457394134" lon="13.772758812525604"><ele>840.0</ele><time>2026-04-27T08:47:20Z</time></trkpt><trkpt lat="42.235351111034866" lon="13.772850774907363"><ele>840.0</ele><time>2026-04-27T08:47:20.999Z</time></trkpt><trkpt lat="42.23525419556877" lon="13.772932020636292"><ele>840.0</ele><time>2026-04-27T08:47:22Z</time></trkpt><trkpt lat="42.2351655734066" lon="13.773023915614468"><ele>840.0</ele><time>2026-04-27T08:47:23Z</time></trkpt><trkpt lat="42.23508992675479" lon="13.773137771069402"><ele>840.0</ele><time>2026-04-27T08:47:23.999Z</time></trkpt><trkpt lat="42.23503863786613" lon="13.773265150125267"><ele>840.0</ele><time>2026-04-27T08:47:25Z</time></trkpt><trkpt lat="42.235019458383164" lon="13.773387398430826"><ele>840.0</ele><time>2026-04-27T08:47:26Z</time></trkpt><trkpt lat="42.23501969210394" lon="13.773518310667859"><ele>840.0</ele><time>2026-04-27T08:47:26.999Z</time></trkpt><trkpt lat="42.23504751624334" lon="13.773643773301407"><ele>840.0</ele><time>2026-04-27T08:47:28Z</time></trkpt><trkpt lat="42.23508373411639" lon="13.773785044150227"><ele>840.0</ele><time>2026-04-27T08:47:29Z</time></trkpt><trkpt lat="42.23512750930231" lon="13.773911637001667"><ele>840.0</ele><time>2026-04-27T08:47:29.999Z</time></trkpt><trkpt lat="42.235190279178276" lon="13.774023791385067"><ele>840.8</ele><time>2026-04-27T08:47:31Z</time></trkpt><trkpt lat="42.23527717516863" lon="13.774111670756113"><ele>841.6</ele><time>2026-04-27T08:47:32Z</time></trkpt><trkpt lat="42.23536148489513" lon="13.774191452970927"><ele>842.4000000000001</ele><time>2026-04-27T08:47:32.999Z</time></trkpt><trkpt lat="42.2354205134661" lon="13.774287038530169"><ele>843.2</ele><time>2026-04-27T08:47:33.999Z</time></trkpt><trkpt lat="42.235459862159495" lon="13.77438680841476"><ele>844.0</ele><time>2026-04-27T08:47:34.999Z</time></trkpt><trkpt lat="42.23549089634361" lon="13.7744938499176"><ele>843.6</ele><time>2026-04-27T08:47:35.999Z</time></trkpt><trkpt lat="42.235507761845355" lon="13.774605358544465"><ele>843.2</ele><time>2026-04-27T08:47:36.999Z</time></trkpt><trkpt lat="42.235531520975066" lon="13.774732804176534"><ele>842.8000000000001</ele><time>2026-04-27T08:47:37.999Z</time></trkpt><trkpt lat="42.23555490914028" lon="13.774875022488311"><ele>842.4000000000001</ele><time>2026-04-27T08:47:38.999Z</time></trkpt><trkpt lat="42.23557368074627" lon="13.775031073707927"><ele>842.0</ele><time>2026-04-27T08:47:39.999Z</time></trkpt><trkpt lat="42.23555363973828" lon="13.775189803405171"><ele>842.0</ele><time>2026-04-27T08:47:40.999Z</time></trkpt><trkpt lat="42.23552092379588" lon="13.775351660562158"><ele>842.0</ele><time>2026-04-27T08:47:41.999Z</time></trkpt><trkpt lat="42.23548871460674" lon="13.775504278059108"><ele>842.0</ele><time>2026-04-27T08:47:42.999Z</time></trkpt><trkpt lat="42.23544910904785" lon="13.775645851420169"><ele>842.0</ele><time>2026-04-27T08:47:43.999Z</time></trkpt><trkpt lat="42.2353888823639" lon="13.775777728406743"><ele>842.0</ele><time>2026-04-27T08:47:44.999Z</time></trkpt><trkpt lat="42.23530748140002" lon="13.775900026511916"><ele>842.0</ele><time>2026-04-27T08:47:45.999Z</time></trkpt><trkpt lat="42.235209593018226" lon="13.775987235895197"><ele>842.0</ele><time>2026-04-27T08:47:46.999Z</time></trkpt><trkpt lat="42.23510042326483" lon="13.776060967670407"><ele>842.0</ele><time>2026-04-27T08:47:47.999Z</time></trkpt><trkpt lat="42.23498605498569" lon="13.776111468724581"><ele>844.5</ele><time>2026-04-27T08:47:48.999Z</time></trkpt><trkpt lat="42.23487203702118" lon="13.77613802261078"><ele>847.0</ele><time>2026-04-27T08:47:49.999Z</time></trkpt><trkpt lat="42.23475202841621" lon="13.776160013457925"><ele>849.5</ele><time>2026-04-27T08:47:50.999Z</time></trkpt><trkpt lat="42.234640892294884" lon="13.776198645589067"><ele>852.0</ele><time>2026-04-27T08:47:51.999Z</time></trkpt><trkpt lat="42.23454444428018" lon="13.77622192501775"><ele>852.0</ele><time>2026-04-27T08:47:52.999Z</time></trkpt><trkpt lat="42.23445728747522" lon="13.776250083612071"><ele>852.0</ele><time>2026-04-27T08:47:53.999Z</time></trkpt><trkpt lat="42.23439718726309" lon="13.776317024863296"><ele>852.0</ele><time>2026-04-27T08:47:54.999Z</time></trkpt><trkpt lat="42.23436673043474" lon="13.77644399525069"><ele>852.0</ele><time>2026-04-27T08:47:55.999Z</time></trkpt><trkpt lat="42.234373178432755" lon="13.776566149309428"><ele>852.0</ele><time>2026-04-27T08:47:56.999Z</time></trkpt><trkpt lat="42.23441800873497" lon="13.776688799037526"><ele>852.0</ele><time>2026-04-27T08:47:57.999Z</time></trkpt><trkpt lat="42.23450265734073" lon="13.776804316682377"><ele>852.0</ele><time>2026-04-27T08:47:58.999Z</time></trkpt><trkpt lat="42.23456647487124" lon="13.776930397048483"><ele>852.0</ele><time>2026-04-27T08:47:59.999Z</time></trkpt><trkpt lat="42.23461962162264" lon="13.777008296710257"><ele>852.0</ele><time>2026-04-27T08:48:00.999Z</time></trkpt><trkpt lat="42.23464996296564" lon="13.777092253112686"><ele>852.0</ele><time>2026-04-27T08:48:01.999Z</time></trkpt><trkpt lat="42.23470025097747" lon="13.777144515351752"><ele>852.0</ele><time>2026-04-27T08:48:02.999Z</time></trkpt><trkpt lat="42.23475538420036" lon="13.777218410578886"><ele>849.6</ele><time>2026-04-27T08:48:04.999Z</time></trkpt><trkpt lat="42.23481292915406" lon="13.77729683808552"><ele>847.2</ele><time>2026-04-27T08:48:06.999Z</time></trkpt><trkpt lat="42.23489450616261" lon="13.777418082660752"><ele>844.8</ele><time>2026-04-27T08:48:08.999Z</time></trkpt><trkpt lat="42.23493888061114" lon="13.777495539832834"><ele>842.4</ele><time>2026-04-27T08:48:09.999Z</time></trkpt><trkpt lat="42.2350016811762" lon="13.777575931873312"><ele>840.0</ele><time>2026-04-27T08:48:10.999Z</time></trkpt><trkpt lat="42.23507179705817" lon="13.777674807708907"><ele>842.0</ele><time>2026-04-27T08:48:11.999Z</time></trkpt><trkpt lat="42.2351379253069" lon="13.777758815066267"><ele>844.0</ele><time>2026-04-27T08:48:12.999Z</time></trkpt><trkpt lat="42.2352073463767" lon="13.777858062893356"><ele>846.0</ele><time>2026-04-27T08:48:13.999Z</time></trkpt><trkpt lat="42.23526691739156" lon="13.777992392738948"><ele>848.0</ele><time>2026-04-27T08:48:14.999Z</time></trkpt><trkpt lat="42.235306765089646" lon="13.778128375951892"><ele>850.0</ele><time>2026-04-27T08:48:15.999Z</time></trkpt><trkpt lat="42.23533319521177" lon="13.778268630124748"><ele>850.0</ele><time>2026-04-27T08:48:16.999Z</time></trkpt><trkpt lat="42.23533641339447" lon="13.778437526510514"><ele>850.0</ele><time>2026-04-27T08:48:17.999Z</time></trkpt><trkpt lat="42.235323957343255" lon="13.778618603177176"><ele>850.0</ele><time>2026-04-27T08:48:18.999Z</time></trkpt><trkpt lat="42.235277882977954" lon="13.778764284330103"><ele>850.0</ele><time>2026-04-27T08:48:19.999Z</time></trkpt><trkpt lat="42.23520102929967" lon="13.77889971699793"><ele>849.75</ele><time>2026-04-27T08:48:20.999Z</time></trkpt><trkpt lat="42.235107392549814" lon="13.779028619945173"><ele>849.5</ele><time>2026-04-27T08:48:21.999Z</time></trkpt><trkpt lat="42.23500283344726" lon="13.779128593818212"><ele>849.25</ele><time>2026-04-27T08:48:22.999Z</time></trkpt><trkpt lat="42.23489785037822" lon="13.779242346756725"><ele>849.0</ele><time>2026-04-27T08:48:23.999Z</time></trkpt><trkpt lat="42.23479196058571" lon="13.779356067767592"><ele>848.75</ele><time>2026-04-27T08:48:24.999Z</time></trkpt><trkpt lat="42.23467221006143" lon="13.77946749519414"><ele>848.5</ele><time>2026-04-27T08:48:25.999Z</time></trkpt><trkpt lat="42.23454919821681" lon="13.779567177857356"><ele>848.25</ele><time>2026-04-27T08:48:26.999Z</time></trkpt><trkpt lat="42.23442626557888" lon="13.779673004114459"><ele>848.0</ele><time>2026-04-27T08:48:27.999Z</time></trkpt><trkpt lat="42.23430511262003" lon="13.779776602956835"><ele>848.0</ele><time>2026-04-27T08:48:28.999Z</time></trkpt><trkpt lat="42.234190326115616" lon="13.779859397560916"><ele>848.0</ele><time>2026-04-27T08:48:29.999Z</time></trkpt><trkpt lat="42.23408611451616" lon="13.779913729449211"><ele>848.0</ele><time>2026-04-27T08:48:30.999Z</time></trkpt><trkpt lat="42.23398991205133" lon="13.779953973307176"><ele>848.0</ele><time>2026-04-27T08:48:32Z</time></trkpt><trkpt lat="42.23391054378612" lon="13.78000814085299"><ele>848.0</ele><time>2026-04-27T08:48:33Z</time></trkpt><trkpt lat="42.23387420757397" lon="13.780078925427773"><ele>847.0</ele><time>2026-04-27T08:48:34Z</time></trkpt><trkpt lat="42.23385716824285" lon="13.78017223888772"><ele>846.0</ele><time>2026-04-27T08:48:35Z</time></trkpt><trkpt lat="42.23388807577407" lon="13.780273394125388"><ele>845.0</ele><time>2026-04-27T08:48:35.999Z</time></trkpt><trkpt lat="42.23395035341056" lon="13.780362959238795"><ele>844.0</ele><time>2026-04-27T08:48:36.999Z</time></trkpt><trkpt lat="42.23400508746641" lon="13.780493863839837"><ele>843.0</ele><time>2026-04-27T08:48:37.999Z</time></trkpt><trkpt lat="42.2340337843254" lon="13.780646964561441"><ele>843.0</ele><time>2026-04-27T08:48:38.999Z</time></trkpt><trkpt lat="42.234030967814306" lon="13.780794781135105"><ele>843.0</ele><time>2026-04-27T08:48:39.999Z</time></trkpt><trkpt lat="42.234026800995345" lon="13.78096396767832"><ele>843.0</ele><time>2026-04-27T08:48:40.999Z</time></trkpt><trkpt lat="42.234014867362355" lon="13.78113387753906"><ele>843.0</ele><time>2026-04-27T08:48:41.999Z</time></trkpt><trkpt lat="42.2340164430668" lon="13.781288890460974"><ele>843.1666666666666</ele><time>2026-04-27T08:48:42.999Z</time></trkpt><trkpt lat="42.23402096242016" lon="13.781421826707223"><ele>843.3333333333333</ele><time>2026-04-27T08:48:43.999Z</time></trkpt><trkpt lat="42.234034698742825" lon="13.781555691686846"><ele>843.5</ele><time>2026-04-27T08:48:44.999Z</time></trkpt><trkpt lat="42.23406208039915" lon="13.781675615725694"><ele>843.6666666666666</ele><time>2026-04-27T08:48:45.999Z</time></trkpt><trkpt lat="42.234049396897916" lon="13.781782399024276"><ele>843.8333333333333</ele><time>2026-04-27T08:48:47.999Z</time></trkpt><trkpt lat="42.23399824550441" lon="13.78172788823833"><ele>844.0</ele><time>2026-04-27T08:48:49.999Z</time></trkpt><trkpt lat="42.233957732732506" lon="13.781588902748512"><ele>843.9999999999999</ele><time>2026-04-27T08:48:51.999Z</time></trkpt><trkpt lat="42.233929408725544" lon="13.781498066032691"><ele>844.0</ele><time>2026-04-27T08:48:53.999Z</time></trkpt><trkpt lat="42.233891378667" lon="13.781396935726665"><ele>844.0</ele><time>2026-04-27T08:48:54.999Z</time></trkpt><trkpt lat="42.23384905650858" lon="13.781313197654413"><ele>844.0</ele><time>2026-04-27T08:48:55.999Z</time></trkpt><trkpt lat="42.23379597951729" lon="13.78121529589501"><ele>843.9999999999999</ele><time>2026-04-27T08:48:56.999Z</time></trkpt><trkpt lat="42.23372479963195" lon="13.781107623347005"><ele>844.0</ele><time>2026-04-27T08:48:57.999Z</time></trkpt><trkpt lat="42.23363427174364" lon="13.780967933645874"><ele>847.6666666666666</ele><time>2026-04-27T08:48:58.999Z</time></trkpt><trkpt lat="42.23353361312538" lon="13.780801023559523"><ele>851.3333333333333</ele><time>2026-04-27T08:48:59.999Z</time></trkpt><trkpt lat="42.23340427168418" lon="13.780602408220947"><ele>855.0</ele><time>2026-04-27T08:49:00.999Z</time></trkpt><trkpt lat="42.23328416248418" lon="13.780451945042788"><ele>855.0</ele><time>2026-04-27T08:49:01.999Z</time></trkpt><trkpt lat="42.23316212359837" lon="13.780341600977483"><ele>855.0</ele><time>2026-04-27T08:49:02.999Z</time></trkpt><trkpt lat="42.233067232455724" lon="13.780212918283478"><ele>855.0</ele><time>2026-04-27T08:49:03.999Z</time></trkpt><trkpt lat="42.232989597065725" lon="13.780059521955083"><ele>855.0</ele><time>2026-04-27T08:49:04.999Z</time></trkpt><trkpt lat="42.2329080333284" lon="13.779902400420777"><ele>859.25</ele><time>2026-04-27T08:49:05.999Z</time></trkpt><trkpt lat="42.23281382118852" lon="13.779770764880467"><ele>863.5</ele><time>2026-04-27T08:49:06.999Z</time></trkpt><trkpt lat="42.23272225457344" lon="13.779687477651168"><ele>867.75</ele><time>2026-04-27T08:49:07.999Z</time></trkpt><trkpt lat="42.2326225050866" lon="13.779595994650293"><ele>872.0</ele><time>2026-04-27T08:49:08.999Z</time></trkpt><trkpt lat="42.23251107775278" lon="13.779520387293912"><ele>872.0</ele><time>2026-04-27T08:49:09.999Z</time></trkpt><trkpt lat="42.23241017126" lon="13.779466312708848"><ele>872.0</ele><time>2026-04-27T08:49:10.999Z</time></trkpt><trkpt lat="42.23229515106739" lon="13.779427415353545"><ele>872.0</ele><time>2026-04-27T08:49:11.999Z</time></trkpt><trkpt lat="42.232171457951466" lon="13.779392623095125"><ele>872.0</ele><time>2026-04-27T08:49:12.999Z</time></trkpt><trkpt lat="42.2320566842919" lon="13.779348018103583"><ele>875.75</ele><time>2026-04-27T08:49:13.999Z</time></trkpt><trkpt lat="42.23192996911283" lon="13.779303555375073"><ele>879.5</ele><time>2026-04-27T08:49:14.999Z</time></trkpt><trkpt lat="42.23181058687762" lon="13.779256938681721"><ele>883.25</ele><time>2026-04-27T08:49:15.999Z</time></trkpt><trkpt lat="42.23167917312657" lon="13.779187845048646"><ele>887.0</ele><time>2026-04-27T08:49:16.999Z</time></trkpt><trkpt lat="42.23153334052229" lon="13.779064993299759"><ele>888.75</ele><time>2026-04-27T08:49:17.999Z</time></trkpt><trkpt lat="42.231381945371275" lon="13.778934915089309"><ele>890.5</ele><time>2026-04-27T08:49:18.999Z</time></trkpt><trkpt lat="42.231260373381176" lon="13.77881460899874"><ele>892.25</ele><time>2026-04-27T08:49:19.999Z</time></trkpt><trkpt lat="42.231180749449365" lon="13.778723208713977"><ele>894.0</ele><time>2026-04-27T08:49:20.999Z</time></trkpt><trkpt lat="42.231122164645036" lon="13.778617430011906"><ele>894.0</ele><time>2026-04-27T08:49:21.999Z</time></trkpt><trkpt lat="42.23103713809486" lon="13.778506237164242"><ele>894.0000000000001</ele><time>2026-04-27T08:49:22.999Z</time></trkpt><trkpt lat="42.230959169478965" lon="13.778456751316464"><ele>894.0000000000001</ele><time>2026-04-27T08:49:23.999Z</time></trkpt><trkpt lat="42.23088124905561" lon="13.778470129096501"><ele>894.0</ele><time>2026-04-27T08:49:25Z</time></trkpt><trkpt lat="42.23079386466264" lon="13.778520448046635"><ele>894.0</ele><time>2026-04-27T08:49:26Z</time></trkpt><trkpt lat="42.23070646667094" lon="13.778527037085757"><ele>898.0</ele><time>2026-04-27T08:49:27Z</time></trkpt><trkpt lat="42.23062905321064" lon="13.778499866956906"><ele>902.0000000000001</ele><time>2026-04-27T08:49:28Z</time></trkpt><trkpt lat="42.23053758268018" lon="13.778420098567054"><ele>906.0000000000001</ele><time>2026-04-27T08:49:29Z</time></trkpt><trkpt lat="42.230425127813405" lon="13.77834539062216"><ele>910.0</ele><time>2026-04-27T08:49:30Z</time></trkpt><trkpt lat="42.23032277824092" lon="13.77829582948614"><ele>914.0</ele><time>2026-04-27T08:49:31Z</time></trkpt><trkpt lat="42.23024690723317" lon="13.778268636063459"><ele>914.0</ele><time>2026-04-27T08:49:32Z</time></trkpt><trkpt lat="42.23015634575929" lon="13.778251745086838"><ele>914.0000000000001</ele><time>2026-04-27T08:49:33Z</time></trkpt><trkpt lat="42.23005211896825" lon="13.778256038928328"><ele>914.0000000000001</ele><time>2026-04-27T08:49:34Z</time></trkpt><trkpt lat="42.22994621095327" lon="13.77826594392026"><ele>914.0</ele><time>2026-04-27T08:49:35Z</time></trkpt><trkpt lat="42.22986066333965" lon="13.778239776242142"><ele>914.0</ele><time>2026-04-27T08:49:36Z</time></trkpt><trkpt lat="42.229769420149864" lon="13.778180086216004"><ele>914.6</ele><time>2026-04-27T08:49:37Z</time></trkpt><trkpt lat="42.22967942536718" lon="13.778097953673527"><ele>915.2</ele><time>2026-04-27T08:49:38Z</time></trkpt><trkpt lat="42.22959081881822" lon="13.778012842548279"><ele>915.8000000000001</ele><time>2026-04-27T08:49:39Z</time></trkpt><trkpt lat="42.229485762606096" lon="13.777936807687853"><ele>916.4000000000001</ele><time>2026-04-27T08:49:40Z</time></trkpt><trkpt lat="42.229389567580895" lon="13.777879641874632"><ele>917.0</ele><time>2026-04-27T08:49:41Z</time></trkpt><trkpt lat="42.229300962394575" lon="13.777856283583292"><ele>917.0000000000001</ele><time>2026-04-27T08:49:42Z</time></trkpt><trkpt lat="42.22922286269277" lon="13.777861216552141"><ele>917.0</ele><time>2026-04-27T08:49:43Z</time></trkpt><trkpt lat="42.2291543454512" lon="13.777900887320506"><ele>917.0</ele><time>2026-04-27T08:49:44Z</time></trkpt><trkpt lat="42.22907891163718" lon="13.77794197008159"><ele>917.0</ele><time>2026-04-27T08:49:45Z</time></trkpt><trkpt lat="42.22899297331014" lon="13.777962181019989"><ele>917.0000000000001</ele><time>2026-04-27T08:49:46Z</time></trkpt><trkpt lat="42.228918544854736" lon="13.777958529434931"><ele>917.0</ele><time>2026-04-27T08:49:47Z</time></trkpt><trkpt lat="42.228853907545414" lon="13.777924528458666"><ele>917.1666666666667</ele><time>2026-04-27T08:49:48Z</time></trkpt><trkpt lat="42.22878269248124" lon="13.777864417018215"><ele>917.3333333333334</ele><time>2026-04-27T08:49:49Z</time></trkpt><trkpt lat="42.228723708526196" lon="13.77777401561266"><ele>917.5</ele><time>2026-04-27T08:49:50Z</time></trkpt><trkpt lat="42.22868346048573" lon="13.777683134572976"><ele>917.6666666666667</ele><time>2026-04-27T08:49:51Z</time></trkpt><trkpt lat="42.22864522096197" lon="13.777606130719517"><ele>917.8333333333334</ele><time>2026-04-27T08:49:52Z</time></trkpt><trkpt lat="42.228599967709165" lon="13.77753341854715"><ele>918.0</ele><time>2026-04-27T08:49:53Z</time></trkpt><trkpt lat="42.228542770125465" lon="13.777488946257195"><ele>918.0</ele><time>2026-04-27T08:49:54Z</time></trkpt><trkpt lat="42.22848128736741" lon="13.777470050757076"><ele>918.0</ele><time>2026-04-27T08:49:55Z</time></trkpt><trkpt lat="42.2284021063472" lon="13.777463306350203"><ele>918.0</ele><time>2026-04-27T08:49:56Z</time></trkpt><trkpt lat="42.228323543411456" lon="13.777476458006719"><ele>918.0</ele><time>2026-04-27T08:49:57Z</time></trkpt><trkpt lat="42.22824153738027" lon="13.77749448025684"><ele>918.0</ele><time>2026-04-27T08:49:58Z</time></trkpt><trkpt lat="42.22816757521604" lon="13.77751106703928"><ele>918.0</ele><time>2026-04-27T08:49:59Z</time></trkpt><trkpt lat="42.228043035953284" lon="13.777540172329449"><ele>918.0</ele><time>2026-04-27T08:50:01Z</time></trkpt><trkpt lat="42.22797885158109" lon="13.777559506178562"><ele>918.0</ele><time>2026-04-27T08:50:02Z</time></trkpt><trkpt lat="42.227915438509314" lon="13.777588946481982"><ele>918.0</ele><time>2026-04-27T08:50:03Z</time></trkpt><trkpt lat="42.22784349769962" lon="13.777633377105737"><ele>918.0</ele><time>2026-04-27T08:50:04Z</time></trkpt><trkpt lat="42.22777532714373" lon="13.777676807477016"><ele>918.0</ele><time>2026-04-27T08:50:05Z</time></trkpt><trkpt lat="42.227714526933426" lon="13.777726919679573"><ele>918.0</ele><time>2026-04-27T08:50:06Z</time></trkpt><trkpt lat="42.22765633912009" lon="13.777780410507258"><ele>918.0</ele><time>2026-04-27T08:50:07Z</time></trkpt><trkpt lat="42.227595079918395" lon="13.777832114536233"><ele>918.1666666666666</ele><time>2026-04-27T08:50:08Z</time></trkpt><trkpt lat="42.22752950945034" lon="13.777893750753762"><ele>918.3333333333333</ele><time>2026-04-27T08:50:09Z</time></trkpt><trkpt lat="42.22745977714844" lon="13.777952760292616"><ele>918.5</ele><time>2026-04-27T08:50:10Z</time></trkpt><trkpt lat="42.22739292025014" lon="13.778011745017208"><ele>918.6666666666666</ele><time>2026-04-27T08:50:11Z</time></trkpt><trkpt lat="42.22731577281174" lon="13.778078276011598"><ele>918.8333333333333</ele><time>2026-04-27T08:50:12Z</time></trkpt><trkpt lat="42.227242470522455" lon="13.778152075573407"><ele>919.0</ele><time>2026-04-27T08:50:13Z</time></trkpt><trkpt lat="42.22716542781765" lon="13.778235906870774"><ele>919.0</ele><time>2026-04-27T08:50:14Z</time></trkpt><trkpt lat="42.227084252034054" lon="13.778312953667642"><ele>919.0000000000001</ele><time>2026-04-27T08:50:15Z</time></trkpt><trkpt lat="42.22699858849949" lon="13.778389761876674"><ele>919.0000000000001</ele><time>2026-04-27T08:50:16Z</time></trkpt><trkpt lat="42.22692119845524" lon="13.77845769837641"><ele>919.0</ele><time>2026-04-27T08:50:17Z</time></trkpt><trkpt lat="42.22684797948135" lon="13.77852046196762"><ele>919.0</ele><time>2026-04-27T08:50:18Z</time></trkpt><trkpt lat="42.22677527196179" lon="13.778582120793313"><ele>919.5</ele><time>2026-04-27T08:50:19Z</time></trkpt><trkpt lat="42.226670562806014" lon="13.7786246588614"><ele>920.0</ele><time>2026-04-27T08:50:20Z</time></trkpt><trkpt lat="42.2265791248309" lon="13.778705062163803"><ele>920.5</ele><time>2026-04-27T08:50:21Z</time></trkpt><trkpt lat="42.22648183715323" lon="13.778793798389525"><ele>921.0</ele><time>2026-04-27T08:50:22Z</time></trkpt><trkpt lat="42.2263868167425" lon="13.77888401029268"><ele>920.1999999999999</ele><time>2026-04-27T08:50:23Z</time></trkpt><trkpt lat="42.22629831831122" lon="13.77897654290625"><ele>919.3999999999999</ele><time>2026-04-27T08:50:24Z</time></trkpt><trkpt lat="42.226215821393346" lon="13.779071530104503"><ele>918.6</ele><time>2026-04-27T08:50:25Z</time></trkpt><trkpt lat="42.22613493851995" lon="13.7791717980293"><ele>917.8</ele><time>2026-04-27T08:50:26Z</time></trkpt><trkpt lat="42.2260625993883" lon="13.779296264288243"><ele>917.0</ele><time>2026-04-27T08:50:27Z</time></trkpt><trkpt lat="42.22598007733145" lon="13.779414016834176"><ele>917.0</ele><time>2026-04-27T08:50:28Z</time></trkpt><trkpt lat="42.225901454539866" lon="13.779543182557836"><ele>917.0</ele><time>2026-04-27T08:50:29Z</time></trkpt><trkpt lat="42.225811904984816" lon="13.77965722153794"><ele>917.0</ele><time>2026-04-27T08:50:30Z</time></trkpt><trkpt lat="42.22573039118985" lon="13.779779380506747"><ele>917.0</ele><time>2026-04-27T08:50:31Z</time></trkpt><trkpt lat="42.22564812295394" lon="13.779899605623308"><ele>914.5</ele><time>2026-04-27T08:50:32Z</time></trkpt><trkpt lat="42.225567764183594" lon="13.780014455112685"><ele>912.0</ele><time>2026-04-27T08:50:33Z</time></trkpt><trkpt lat="42.22548598430964" lon="13.78013071050686"><ele>909.5</ele><time>2026-04-27T08:50:34Z</time></trkpt><trkpt lat="42.2253987406334" lon="13.780266923821873"><ele>907.0</ele><time>2026-04-27T08:50:35Z</time></trkpt><trkpt lat="42.22531600218722" lon="13.780416611628103"><ele>907.0</ele><time>2026-04-27T08:50:36Z</time></trkpt><trkpt lat="42.22523109326764" lon="13.780583621075746"><ele>907.0</ele><time>2026-04-27T08:50:37Z</time></trkpt><trkpt lat="42.225146831885795" lon="13.780758062483825"><ele>907.0</ele><time>2026-04-27T08:50:38Z</time></trkpt><trkpt lat="42.22504849430619" lon="13.780906906237753"><ele>907.5</ele><time>2026-04-27T08:50:38.999Z</time></trkpt><trkpt lat="42.22494518625831" lon="13.781034971729254"><ele>908.0</ele><time>2026-04-27T08:50:39.999Z</time></trkpt><trkpt lat="42.22485185913828" lon="13.78115119452418"><ele>908.5</ele><time>2026-04-27T08:50:40.999Z</time></trkpt><trkpt lat="42.224771598209074" lon="13.781254450953519"><ele>909.0</ele><time>2026-04-27T08:50:41.999Z</time></trkpt><trkpt lat="42.224700398087734" lon="13.781357462516146"><ele>903.75</ele><time>2026-04-27T08:50:42.999Z</time></trkpt><trkpt lat="42.22465358761694" lon="13.781495553416752"><ele>898.5</ele><time>2026-04-27T08:50:43.999Z</time></trkpt><trkpt lat="42.224635166829245" lon="13.781658083724666"><ele>893.25</ele><time>2026-04-27T08:50:44.999Z</time></trkpt><trkpt lat="42.22460218187031" lon="13.781815846590638"><ele>888.0</ele><time>2026-04-27T08:50:45.999Z</time></trkpt><trkpt lat="42.22454394023102" lon="13.781956196417834"><ele>887.5</ele><time>2026-04-27T08:50:46.999Z</time></trkpt><trkpt lat="42.22446942715081" lon="13.782072108587322"><ele>887.0</ele><time>2026-04-27T08:50:47.999Z</time></trkpt><trkpt lat="42.22440724358144" lon="13.782211765392212"><ele>886.5</ele><time>2026-04-27T08:50:48.999Z</time></trkpt><trkpt lat="42.22435521102355" lon="13.78234695315014"><ele>886.0</ele><time>2026-04-27T08:50:49.999Z</time></trkpt><trkpt lat="42.22431111092086" lon="13.782490607962936"><ele>886.0</ele><time>2026-04-27T08:50:50.999Z</time></trkpt><trkpt lat="42.22428162475949" lon="13.782627300980321"><ele>885.9999999999999</ele><time>2026-04-27T08:50:51.999Z</time></trkpt><trkpt lat="42.22426821906524" lon="13.782754030061437"><ele>885.9999999999999</ele><time>2026-04-27T08:50:52.999Z</time></trkpt><trkpt lat="42.22426572639291" lon="13.7828554126865"><ele>886.0</ele><time>2026-04-27T08:50:53.999Z</time></trkpt><trkpt lat="42.224236149671384" lon="13.78296515417243"><ele>886.0</ele><time>2026-04-27T08:50:55.999Z</time></trkpt><trkpt lat="42.22413397845426" lon="13.7828486699924"><ele>886.0</ele><time>2026-04-27T08:50:57.999Z</time></trkpt><trkpt lat="42.22409078649057" lon="13.782726834883913"><ele>886.0</ele><time>2026-04-27T08:50:58.999Z</time></trkpt><trkpt lat="42.224009895757746" lon="13.782600287973352"><ele>886.0</ele><time>2026-04-27T08:50:59.999Z</time></trkpt><trkpt lat="42.2239451997553" lon="13.782440637469186"><ele>886.0</ele><time>2026-04-27T08:51:00.999Z</time></trkpt><trkpt lat="42.223897507106045" lon="13.78229167918243"><ele>880.4</ele><time>2026-04-27T08:51:01.999Z</time></trkpt><trkpt lat="42.223851176970854" lon="13.782158121311808"><ele>874.8</ele><time>2026-04-27T08:51:02.999Z</time></trkpt><trkpt lat="42.22380656852603" lon="13.782041758896222"><ele>869.1999999999999</ele><time>2026-04-27T08:51:03.999Z</time></trkpt><trkpt lat="42.22376054883722" lon="13.78195242142155"><ele>863.5999999999999</ele><time>2026-04-27T08:51:04.999Z</time></trkpt><trkpt lat="42.223740106462095" lon="13.781868788727232"><ele>858.0</ele><time>2026-04-27T08:51:05.999Z</time></trkpt><trkpt lat="42.22363907843292" lon="13.781849261603552"><ele>858.0</ele><time>2026-04-27T08:51:07.999Z</time></trkpt><trkpt lat="42.22361808582926" lon="13.78200238097228"><ele>858.0</ele><time>2026-04-27T08:51:08.999Z</time></trkpt><trkpt lat="42.22361633441104" lon="13.782118988924053"><ele>858.0</ele><time>2026-04-27T08:51:09.999Z</time></trkpt><trkpt lat="42.22359122683337" lon="13.782249488408441"><ele>858.0</ele><time>2026-04-27T08:51:10.999Z</time></trkpt><trkpt lat="42.223575789089665" lon="13.78238922195113"><ele>858.0</ele><time>2026-04-27T08:51:11.999Z</time></trkpt><trkpt lat="42.22356424411635" lon="13.782507984472655"><ele>858.0</ele><time>2026-04-27T08:51:12.999Z</time></trkpt><trkpt lat="42.22355181028492" lon="13.782592232754467"><ele>858.0</ele><time>2026-04-27T08:51:13.999Z</time></trkpt><trkpt lat="42.2234838693739" lon="13.782570566318864"><ele>858.0</ele><time>2026-04-27T08:51:16.999Z</time></trkpt><trkpt lat="42.223444569383176" lon="13.782491960937886"><ele>858.0</ele><time>2026-04-27T08:51:17.999Z</time></trkpt><trkpt lat="42.22338982487761" lon="13.782377479794775"><ele>858.0</ele><time>2026-04-27T08:51:18.999Z</time></trkpt><trkpt lat="42.2233580874915" lon="13.782269624645426"><ele>858.0</ele><time>2026-04-27T08:51:19.999Z</time></trkpt><trkpt lat="42.22333169547861" lon="13.782174896271645"><ele>858.0</ele><time>2026-04-27T08:51:20.999Z</time></trkpt><trkpt lat="42.22330902391434" lon="13.782091470195029"><ele>858.0</ele><time>2026-04-27T08:51:21.999Z</time></trkpt><trkpt lat="42.22325847266871" lon="13.781978759649132"><ele>858.0</ele><time>2026-04-27T08:51:23.999Z</time></trkpt><trkpt lat="42.22316023927306" lon="13.78196387731719"><ele>858.0</ele><time>2026-04-27T08:51:24.999Z</time></trkpt><trkpt lat="42.22308214573218" lon="13.78214982583298"><ele>858.0</ele><time>2026-04-27T08:51:25.999Z</time></trkpt><trkpt lat="42.2230099350506" lon="13.78227327440384"><ele>857.0</ele><time>2026-04-27T08:51:26.999Z</time></trkpt><trkpt lat="42.22294503071319" lon="13.78238158517433"><ele>856.0</ele><time>2026-04-27T08:51:27.999Z</time></trkpt><trkpt lat="42.222896352569755" lon="13.782481355218696"><ele>855.0</ele><time>2026-04-27T08:51:28.999Z</time></trkpt><trkpt lat="42.22282079026485" lon="13.782517954330356"><ele>854.0</ele><time>2026-04-27T08:51:29.999Z</time></trkpt><trkpt lat="42.222748088115324" lon="13.78251082144162"><ele>853.0</ele><time>2026-04-27T08:51:31Z</time></trkpt><trkpt lat="42.22269172592026" lon="13.782426274648211"><ele>852.0</ele><time>2026-04-27T08:51:32Z</time></trkpt><trkpt lat="42.22262649580425" lon="13.78239954786342"><ele>852.0</ele><time>2026-04-27T08:51:33Z</time></trkpt><trkpt lat="42.22258327754699" lon="13.782329392035576"><ele>852.0</ele><time>2026-04-27T08:51:35Z</time></trkpt><trkpt lat="42.22252130472224" lon="13.782288301783288"><ele>852.0</ele><time>2026-04-27T08:51:36Z</time></trkpt><trkpt lat="42.22244278055691" lon="13.782236236936253"><ele>852.0</ele><time>2026-04-27T08:51:37Z</time></trkpt><trkpt lat="42.22236043774058" lon="13.782181640159468"><ele>852.0</ele><time>2026-04-27T08:51:38Z</time></trkpt><trkpt lat="42.22231576645" lon="13.782056123953868"><ele>852.0</ele><time>2026-04-27T08:51:39Z</time></trkpt><trkpt lat="42.222240713470896" lon="13.782004850102282"><ele>852.8333333333334</ele><time>2026-04-27T08:51:40Z</time></trkpt><trkpt lat="42.222176229763015" lon="13.781920380858987"><ele>853.6666666666667</ele><time>2026-04-27T08:51:41Z</time></trkpt><trkpt lat="42.22210675439427" lon="13.781837252372421"><ele>854.5</ele><time>2026-04-27T08:51:42Z</time></trkpt><trkpt lat="42.22204318632324" lon="13.781756550947776"><ele>855.3333333333334</ele><time>2026-04-27T08:51:43Z</time></trkpt><trkpt lat="42.22199964931458" lon="13.78166701375104"><ele>856.1666666666667</ele><time>2026-04-27T08:51:44Z</time></trkpt><trkpt lat="42.22196864634791" lon="13.781566291828767"><ele>857.0</ele><time>2026-04-27T08:51:45Z</time></trkpt><trkpt lat="42.2219353784882" lon="13.781463910215482"><ele>857.0000000000001</ele><time>2026-04-27T08:51:46Z</time></trkpt><trkpt lat="42.22190052425268" lon="13.78136008610924"><ele>857.0</ele><time>2026-04-27T08:51:47Z</time></trkpt><trkpt lat="42.22186901464475" lon="13.781264347985786"><ele>857.0</ele><time>2026-04-27T08:51:48Z</time></trkpt><trkpt lat="42.22184147134479" lon="13.781172353593917"><ele>857.0</ele><time>2026-04-27T08:51:49Z</time></trkpt><trkpt lat="42.2218074272287" lon="13.781072772387478"><ele>857.0000000000001</ele><time>2026-04-27T08:51:50Z</time></trkpt><trkpt lat="42.22177690627285" lon="13.780964392094265"><ele>857.0</ele><time>2026-04-27T08:51:51Z</time></trkpt><trkpt lat="42.221755046357885" lon="13.780855268404215"><ele>856.3333333333334</ele><time>2026-04-27T08:51:52Z</time></trkpt><trkpt lat="42.22174162480477" lon="13.780744738093912"><ele>855.6666666666667</ele><time>2026-04-27T08:51:53Z</time></trkpt><trkpt lat="42.22171843891055" lon="13.780635897428711"><ele>855.0</ele><time>2026-04-27T08:51:54Z</time></trkpt><trkpt lat="42.22168043759781" lon="13.78053737890281"><ele>854.3333333333333</ele><time>2026-04-27T08:51:55Z</time></trkpt><trkpt lat="42.22164906001105" lon="13.780434456355394"><ele>853.6666666666666</ele><time>2026-04-27T08:51:56Z</time></trkpt><trkpt lat="42.221616505077925" lon="13.780328933041773"><ele>853.0</ele><time>2026-04-27T08:51:57Z</time></trkpt><trkpt lat="42.22158096648388" lon="13.780229895476214"><ele>852.1428571428571</ele><time>2026-04-27T08:51:58Z</time></trkpt><trkpt lat="42.22154577180692" lon="13.780136903043612"><ele>851.2857142857143</ele><time>2026-04-27T08:51:59Z</time></trkpt><trkpt lat="42.221511830966186" lon="13.780044253562018"><ele>850.4285714285714</ele><time>2026-04-27T08:52:00Z</time></trkpt><trkpt lat="42.221482347299194" lon="13.779949745084036"><ele>849.5714285714286</ele><time>2026-04-27T08:52:01Z</time></trkpt><trkpt lat="42.22144847011281" lon="13.779859499071575"><ele>848.7142857142858</ele><time>2026-04-27T08:52:02Z</time></trkpt><trkpt lat="42.22140986037935" lon="13.779778892164217"><ele>847.8571428571429</ele><time>2026-04-27T08:52:03Z</time></trkpt><trkpt lat="42.22137422457545" lon="13.779700178879263"><ele>847.0</ele><time>2026-04-27T08:52:05Z</time></trkpt><trkpt lat="42.22125196923835" lon="13.779773704620984"><ele>845.2</ele><time>2026-04-27T08:52:06Z</time></trkpt><trkpt lat="42.22118175562906" lon="13.779823662534838"><ele>843.4000000000001</ele><time>2026-04-27T08:52:07Z</time></trkpt><trkpt lat="42.22109970486946" lon="13.779888718591558"><ele>841.5999999999999</ele><time>2026-04-27T08:52:08Z</time></trkpt><trkpt lat="42.221003175562586" lon="13.779968912549899"><ele>839.8</ele><time>2026-04-27T08:52:09Z</time></trkpt><trkpt lat="42.22090201880037" lon="13.780028446977845"><ele>838.0</ele><time>2026-04-27T08:52:10Z</time></trkpt><trkpt lat="42.220817070829305" lon="13.780121245420514"><ele>837.75</ele><time>2026-04-27T08:52:11Z</time></trkpt><trkpt lat="42.22070398479509" lon="13.780183888777866"><ele>837.5</ele><time>2026-04-27T08:52:12Z</time></trkpt><trkpt lat="42.220603327925694" lon="13.780260814655502"><ele>837.25</ele><time>2026-04-27T08:52:13Z</time></trkpt><trkpt lat="42.22049876732973" lon="13.780336630738832"><ele>837.0</ele><time>2026-04-27T08:52:14Z</time></trkpt><trkpt lat="42.22038503360111" lon="13.78040032448212"><ele>837.0</ele><time>2026-04-27T08:52:15Z</time></trkpt><trkpt lat="42.220259565492924" lon="13.780449838243053"><ele>837.0</ele><time>2026-04-27T08:52:16Z</time></trkpt><trkpt lat="42.22014618123724" lon="13.780499067699322"><ele>837.0</ele><time>2026-04-27T08:52:17Z</time></trkpt><trkpt lat="42.22003995614634" lon="13.780490614338342"><ele>837.0</ele><time>2026-04-27T08:52:18Z</time></trkpt><trkpt lat="42.219941143762355" lon="13.780491073008113"><ele>837.0</ele><time>2026-04-27T08:52:19Z</time></trkpt><trkpt lat="42.21982864511541" lon="13.780432045138937"><ele>837.0</ele><time>2026-04-27T08:52:20Z</time></trkpt><trkpt lat="42.219714583513365" lon="13.780393187968677"><ele>837.0</ele><time>2026-04-27T08:52:21Z</time></trkpt><trkpt lat="42.21960952739263" lon="13.780341427614587"><ele>837.0</ele><time>2026-04-27T08:52:22Z</time></trkpt><trkpt lat="42.21951206961315" lon="13.780274571426677"><ele>834.75</ele><time>2026-04-27T08:52:23Z</time></trkpt><trkpt lat="42.2194265755595" lon="13.78018889239097"><ele>832.5</ele><time>2026-04-27T08:52:24Z</time></trkpt><trkpt lat="42.219350038409196" lon="13.78008208706323"><ele>830.25</ele><time>2026-04-27T08:52:25Z</time></trkpt><trkpt lat="42.219269059389674" lon="13.779964177098853"><ele>828.0</ele><time>2026-04-27T08:52:26Z</time></trkpt><trkpt lat="42.21918812355848" lon="13.779850557644707"><ele>822.5</ele><time>2026-04-27T08:52:27Z</time></trkpt><trkpt lat="42.21910870621309" lon="13.779749101217467"><ele>817.0</ele><time>2026-04-27T08:52:28Z</time></trkpt><trkpt lat="42.21902422205618" lon="13.779675415168054"><ele>811.5</ele><time>2026-04-27T08:52:29Z</time></trkpt><trkpt lat="42.21891947701656" lon="13.779611225013394"><ele>806.0</ele><time>2026-04-27T08:52:30Z</time></trkpt><trkpt lat="42.21879551147372" lon="13.779579970463764"><ele>802.5</ele><time>2026-04-27T08:52:31Z</time></trkpt><trkpt lat="42.21867833357827" lon="13.779601701672968"><ele>799.0</ele><time>2026-04-27T08:52:32Z</time></trkpt><trkpt lat="42.21855610273434" lon="13.779603161322902"><ele>795.5</ele><time>2026-04-27T08:52:33Z</time></trkpt><trkpt lat="42.21843142537726" lon="13.77966088177901"><ele>792.0</ele><time>2026-04-27T08:52:34Z</time></trkpt><trkpt lat="42.21830731908808" lon="13.779722151325327"><ele>792.0</ele><time>2026-04-27T08:52:35Z</time></trkpt><trkpt lat="42.21817380720138" lon="13.779776313085458"><ele>792.0</ele><time>2026-04-27T08:52:36Z</time></trkpt><trkpt lat="42.218044512744214" lon="13.779823063974261"><ele>792.0</ele><time>2026-04-27T08:52:37Z</time></trkpt><trkpt lat="42.21792729789299" lon="13.779864652992364"><ele>792.0</ele><time>2026-04-27T08:52:38Z</time></trkpt><trkpt lat="42.21783795470022" lon="13.77991452393757"><ele>790.8</ele><time>2026-04-27T08:52:39Z</time></trkpt><trkpt lat="42.21775170475141" lon="13.77992030882076"><ele>789.6</ele><time>2026-04-27T08:52:40Z</time></trkpt><trkpt lat="42.2176605292139" lon="13.779884014336657"><ele>788.4</ele><time>2026-04-27T08:52:41Z</time></trkpt><trkpt lat="42.21758098039219" lon="13.779776277358277"><ele>787.1999999999999</ele><time>2026-04-27T08:52:42Z</time></trkpt><trkpt lat="42.217519065844826" lon="13.779647911836834"><ele>786.0</ele><time>2026-04-27T08:52:42.999Z</time></trkpt><trkpt lat="42.217491124411545" lon="13.77950192161026"><ele>786.0</ele><time>2026-04-27T08:52:43.999Z</time></trkpt><trkpt lat="42.21747135105158" lon="13.779355721507683"><ele>786.0</ele><time>2026-04-27T08:52:44.999Z</time></trkpt><trkpt lat="42.21745655162149" lon="13.779198487547744"><ele>786.0</ele><time>2026-04-27T08:52:45.999Z</time></trkpt><trkpt lat="42.21743105607893" lon="13.779050441610547"><ele>786.0</ele><time>2026-04-27T08:52:46.999Z</time></trkpt><trkpt lat="42.21739776656856" lon="13.77889162296056"><ele>783.0</ele><time>2026-04-27T08:52:47.999Z</time></trkpt><trkpt lat="42.217353445465314" lon="13.778748725022533"><ele>780.0</ele><time>2026-04-27T08:52:48.999Z</time></trkpt><trkpt lat="42.217299817850076" lon="13.778595945544573"><ele>777.0</ele><time>2026-04-27T08:52:49.999Z</time></trkpt><trkpt lat="42.21723807279129" lon="13.778453039375309"><ele>774.0</ele><time>2026-04-27T08:52:50.999Z</time></trkpt><trkpt lat="42.21716870074373" lon="13.77829619199749"><ele>769.5</ele><time>2026-04-27T08:52:51.999Z</time></trkpt><trkpt lat="42.21710274286586" lon="13.77813385914033"><ele>765.0</ele><time>2026-04-27T08:52:52.999Z</time></trkpt><trkpt lat="42.21703818498183" lon="13.777979232023203"><ele>760.5</ele><time>2026-04-27T08:52:53.999Z</time></trkpt><trkpt lat="42.216975007423464" lon="13.777835333148612"><ele>756.0</ele><time>2026-04-27T08:52:54.999Z</time></trkpt><trkpt lat="42.21691296165652" lon="13.77772684593167"><ele>751.5</ele><time>2026-04-27T08:52:55.999Z</time></trkpt><trkpt lat="42.21683497971311" lon="13.777636527613362"><ele>747.0</ele><time>2026-04-27T08:52:56.999Z</time></trkpt><trkpt lat="42.216735641959154" lon="13.777561099409223"><ele>742.5</ele><time>2026-04-27T08:52:57.999Z</time></trkpt><trkpt lat="42.21662550304535" lon="13.777495947727514"><ele>738.0</ele><time>2026-04-27T08:52:58.999Z</time></trkpt><trkpt lat="42.21650494433192" lon="13.777436991230331"><ele>735.75</ele><time>2026-04-27T08:52:59.999Z</time></trkpt><trkpt lat="42.216380867778796" lon="13.777375547851118"><ele>733.5</ele><time>2026-04-27T08:53:00.999Z</time></trkpt><trkpt lat="42.216252306702216" lon="13.777300137726968"><ele>731.25</ele><time>2026-04-27T08:53:01.999Z</time></trkpt><trkpt lat="42.21612724095201" lon="13.777213987873479"><ele>729.0</ele><time>2026-04-27T08:53:02.999Z</time></trkpt><trkpt lat="42.21600096302208" lon="13.777126251966052"><ele>729.0</ele><time>2026-04-27T08:53:03.999Z</time></trkpt><trkpt lat="42.215874929342284" lon="13.777044059100433"><ele>729.0</ele><time>2026-04-27T08:53:04.999Z</time></trkpt><trkpt lat="42.215747344762" lon="13.776962309309571"><ele>729.0</ele><time>2026-04-27T08:53:05.999Z</time></trkpt><trkpt lat="42.21561441120198" lon="13.776882870652937"><ele>729.0</ele><time>2026-04-27T08:53:06.999Z</time></trkpt><trkpt lat="42.215482375596665" lon="13.776816587312828"><ele>725.0</ele><time>2026-04-27T08:53:07.999Z</time></trkpt><trkpt lat="42.215360169265125" lon="13.776759721189862"><ele>721.0</ele><time>2026-04-27T08:53:08.999Z</time></trkpt><trkpt lat="42.21525174934187" lon="13.776720760580844"><ele>717.0</ele><time>2026-04-27T08:53:09.999Z</time></trkpt><trkpt lat="42.21514423697493" lon="13.77669840377251"><ele>713.0</ele><time>2026-04-27T08:53:10.999Z</time></trkpt><trkpt lat="42.21505312375031" lon="13.776678076842785"><ele>709.0</ele><time>2026-04-27T08:53:11.999Z</time></trkpt><trkpt lat="42.214969096702056" lon="13.776708561076353"><ele>709.0</ele><time>2026-04-27T08:53:12.999Z</time></trkpt><trkpt lat="42.214900229305464" lon="13.776792206604698"><ele>709.0</ele><time>2026-04-27T08:53:13.999Z</time></trkpt><trkpt lat="42.21486538610301" lon="13.776910168017901"><ele>709.0</ele><time>2026-04-27T08:53:14.999Z</time></trkpt><trkpt lat="42.21482469198785" lon="13.777004004326356"><ele>709.0</ele><time>2026-04-27T08:53:15.999Z</time></trkpt><trkpt lat="42.21478663145943" lon="13.777101274790038"><ele>709.0</ele><time>2026-04-27T08:53:17.999Z</time></trkpt><trkpt lat="42.21478423804266" lon="13.776905180164066"><ele>709.0</ele><time>2026-04-27T08:53:21.999Z</time></trkpt><trkpt lat="42.21483284934104" lon="13.776816211334742"><ele>709.0</ele><time>2026-04-27T08:53:22.999Z</time></trkpt><trkpt lat="42.21486640461889" lon="13.776717639310819"><ele>709.0</ele><time>2026-04-27T08:53:23.999Z</time></trkpt><trkpt lat="42.21489812357952" lon="13.776623989721674"><ele>709.0</ele><time>2026-04-27T08:53:24.999Z</time></trkpt><trkpt lat="42.21492616928658" lon="13.776517834907091"><ele>709.0</ele><time>2026-04-27T08:53:25.999Z</time></trkpt><trkpt lat="42.214925760155076" lon="13.776410371878578"><ele>709.0</ele><time>2026-04-27T08:53:26.999Z</time></trkpt><trkpt lat="42.21489165828435" lon="13.776326977364459"><ele>706.4000000000001</ele><time>2026-04-27T08:53:27.999Z</time></trkpt><trkpt lat="42.21481202214713" lon="13.776304660519742"><ele>703.8</ele><time>2026-04-27T08:53:28.999Z</time></trkpt><trkpt lat="42.21473842791203" lon="13.776353846151467"><ele>701.2</ele><time>2026-04-27T08:53:29.999Z</time></trkpt><trkpt lat="42.214676816314515" lon="13.776465528126744"><ele>698.5999999999999</ele><time>2026-04-27T08:53:30.999Z</time></trkpt><trkpt lat="42.21463093026562" lon="13.776607701770487"><ele>696.0</ele><time>2026-04-27T08:53:31.999Z</time></trkpt><trkpt lat="42.21458324858324" lon="13.776752130777535"><ele>697.0</ele><time>2026-04-27T08:53:32.999Z</time></trkpt><trkpt lat="42.21453518004013" lon="13.77687876272835"><ele>698.0</ele><time>2026-04-27T08:53:33.999Z</time></trkpt><trkpt lat="42.21448190297584" lon="13.777008532981831"><ele>699.0</ele><time>2026-04-27T08:53:34.999Z</time></trkpt><trkpt lat="42.21442423946518" lon="13.777142847577608"><ele>700.0</ele><time>2026-04-27T08:53:35.999Z</time></trkpt><trkpt lat="42.214365175823474" lon="13.777277024481585"><ele>701.0</ele><time>2026-04-27T08:53:37Z</time></trkpt><trkpt lat="42.21430860394425" lon="13.77739108219808"><ele>701.0</ele><time>2026-04-27T08:53:38Z</time></trkpt><trkpt lat="42.214257811490405" lon="13.77747509079"><ele>701.0</ele><time>2026-04-27T08:53:39Z</time></trkpt><trkpt lat="42.21415400865423" lon="13.777488803990297"><ele>701.0</ele><time>2026-04-27T08:53:41Z</time></trkpt><trkpt lat="42.21412402265102" lon="13.77741139856009"><ele>701.0</ele><time>2026-04-27T08:53:42Z</time></trkpt><trkpt lat="42.214137628820275" lon="13.777310532144723"><ele>701.0</ele><time>2026-04-27T08:53:43Z</time></trkpt><trkpt lat="42.21419475755127" lon="13.777202774553405"><ele>701.0</ele><time>2026-04-27T08:53:44Z</time></trkpt><trkpt lat="42.214219099758" lon="13.77705686784645"><ele>701.0</ele><time>2026-04-27T08:53:45Z</time></trkpt><trkpt lat="42.214258366514635" lon="13.77690982656056"><ele>701.0</ele><time>2026-04-27T08:53:46Z</time></trkpt><trkpt lat="42.214290264898466" lon="13.776765788911845"><ele>701.0</ele><time>2026-04-27T08:53:47Z</time></trkpt><trkpt lat="42.214313278377155" lon="13.77664838842646"><ele>701.0</ele><time>2026-04-27T08:53:48Z</time></trkpt><trkpt lat="42.21432859512594" lon="13.776564857552632"><ele>701.0</ele><time>2026-04-27T08:53:49Z</time></trkpt><trkpt lat="42.214242970649785" lon="13.776527093683159"><ele>700.0</ele><time>2026-04-27T08:53:52Z</time></trkpt><trkpt lat="42.21414750417179" lon="13.776636734210813"><ele>699.0</ele><time>2026-04-27T08:53:54Z</time></trkpt><trkpt lat="42.2140742260769" lon="13.776692687588573"><ele>698.0</ele><time>2026-04-27T08:53:55Z</time></trkpt><trkpt lat="42.21399520749593" lon="13.776735561131416"><ele>697.0</ele><time>2026-04-27T08:53:56Z</time></trkpt><trkpt lat="42.2139125422507" lon="13.77670589472107"><ele>696.0</ele><time>2026-04-27T08:53:57Z</time></trkpt><trkpt lat="42.21381051196164" lon="13.776709875059362"><ele>694.8</ele><time>2026-04-27T08:53:58Z</time></trkpt><trkpt lat="42.21369902596857" lon="13.776708460972005"><ele>693.5999999999999</ele><time>2026-04-27T08:53:59Z</time></trkpt><trkpt lat="42.21359180542719" lon="13.776695781167495"><ele>692.4</ele><time>2026-04-27T08:54:00Z</time></trkpt><trkpt lat="42.21349042547874" lon="13.776660027896078"><ele>691.2</ele><time>2026-04-27T08:54:01Z</time></trkpt><trkpt lat="42.21339653088254" lon="13.776594939317546"><ele>690.0</ele><time>2026-04-27T08:54:02Z</time></trkpt><trkpt lat="42.213288865623305" lon="13.776515886782175"><ele>690.0</ele><time>2026-04-27T08:54:03Z</time></trkpt><trkpt lat="42.213190494849364" lon="13.77643784473276"><ele>690.0</ele><time>2026-04-27T08:54:04Z</time></trkpt><trkpt lat="42.21308291109875" lon="13.77638055845944"><ele>690.0</ele><time>2026-04-27T08:54:05Z</time></trkpt><trkpt lat="42.21298720176645" lon="13.776326053313563"><ele>690.0</ele><time>2026-04-27T08:54:06Z</time></trkpt><trkpt lat="42.21289577007219" lon="13.776321870740167"><ele>690.0</ele><time>2026-04-27T08:54:07Z</time></trkpt><trkpt lat="42.212800477691474" lon="13.776381415762184"><ele>690.0</ele><time>2026-04-27T08:54:08Z</time></trkpt><trkpt lat="42.212697444445645" lon="13.776476921823022"><ele>690.0</ele><time>2026-04-27T08:54:09Z</time></trkpt><trkpt lat="42.212595608686975" lon="13.776583192329825"><ele>690.0</ele><time>2026-04-27T08:54:10Z</time></trkpt><trkpt lat="42.212502121849155" lon="13.776701920078672"><ele>690.0</ele><time>2026-04-27T08:54:11Z</time></trkpt><trkpt lat="42.21240546327492" lon="13.776797864538935"><ele>688.0</ele><time>2026-04-27T08:54:12Z</time></trkpt><trkpt lat="42.212311208581596" lon="13.776884592019025"><ele>686.0</ele><time>2026-04-27T08:54:13Z</time></trkpt><trkpt lat="42.21220966775913" lon="13.776969609337305"><ele>684.0</ele><time>2026-04-27T08:54:14Z</time></trkpt><trkpt lat="42.212105988116285" lon="13.777048511135234"><ele>682.0</ele><time>2026-04-27T08:54:15Z</time></trkpt><trkpt lat="42.21200458423124" lon="13.777117273289326"><ele>682.0</ele><time>2026-04-27T08:54:16Z</time></trkpt><trkpt lat="42.21191922513359" lon="13.7771679311574"><ele>682.0</ele><time>2026-04-27T08:54:17Z</time></trkpt><trkpt lat="42.21183725211568" lon="13.777193962260128"><ele>682.0</ele><time>2026-04-27T08:54:18Z</time></trkpt><trkpt lat="42.211736620696115" lon="13.777174884825945"><ele>682.0</ele><time>2026-04-27T08:54:19Z</time></trkpt><trkpt lat="42.21161060737208" lon="13.777141548538532"><ele>682.0</ele><time>2026-04-27T08:54:20Z</time></trkpt><trkpt lat="42.211493110591434" lon="13.777084837173685"><ele>681.75</ele><time>2026-04-27T08:54:21Z</time></trkpt><trkpt lat="42.21139015997341" lon="13.776988405009648"><ele>681.5</ele><time>2026-04-27T08:54:22Z</time></trkpt><trkpt lat="42.211288231372954" lon="13.7768819112954"><ele>681.25</ele><time>2026-04-27T08:54:23Z</time></trkpt><trkpt lat="42.211185323168905" lon="13.776769762844506"><ele>681.0</ele><time>2026-04-27T08:54:24Z</time></trkpt><trkpt lat="42.21108250561821" lon="13.776673791111664"><ele>681.0</ele><time>2026-04-27T08:54:25Z</time></trkpt><trkpt lat="42.21099442271619" lon="13.776572235692111"><ele>681.0</ele><time>2026-04-27T08:54:26Z</time></trkpt><trkpt lat="42.2109085745032" lon="13.77647919582083"><ele>681.0</ele><time>2026-04-27T08:54:27Z</time></trkpt><trkpt lat="42.21083883551092" lon="13.776369667657692"><ele>681.0</ele><time>2026-04-27T08:54:28Z</time></trkpt><trkpt lat="42.21076579120731" lon="13.776265663250605"><ele>681.0</ele><time>2026-04-27T08:54:29Z</time></trkpt><trkpt lat="42.21069607848545" lon="13.776166402534377"><ele>680.5999999999999</ele><time>2026-04-27T08:54:30Z</time></trkpt><trkpt lat="42.21057212619731" lon="13.776162454786702"><ele>680.2</ele><time>2026-04-27T08:54:31Z</time></trkpt><trkpt lat="42.210493276147645" lon="13.776065970480817"><ele>679.8</ele><time>2026-04-27T08:54:32Z</time></trkpt><trkpt lat="42.21039346092063" lon="13.776036566026702"><ele>679.4000000000001</ele><time>2026-04-27T08:54:33Z</time></trkpt><trkpt lat="42.21029879772357" lon="13.77600208861519"><ele>679.0</ele><time>2026-04-27T08:54:34Z</time></trkpt><trkpt lat="42.21020848026486" lon="13.775954131613513"><ele>679.0</ele><time>2026-04-27T08:54:35Z</time></trkpt><trkpt lat="42.21011485251371" lon="13.77590122335026"><ele>679.0</ele><time>2026-04-27T08:54:36Z</time></trkpt><trkpt lat="42.21002002369378" lon="13.775850590458518"><ele>679.0</ele><time>2026-04-27T08:54:37Z</time></trkpt><trkpt lat="42.20992501880454" lon="13.775803637705161"><ele>679.0</ele><time>2026-04-27T08:54:38Z</time></trkpt><trkpt lat="42.20982932928037" lon="13.77576205594346"><ele>679.0</ele><time>2026-04-27T08:54:39Z</time></trkpt><trkpt lat="42.209726504484756" lon="13.77572514220228"><ele>679.0</ele><time>2026-04-27T08:54:40Z</time></trkpt><trkpt lat="42.209618458271244" lon="13.77568289884415"><ele>679.0</ele><time>2026-04-27T08:54:41Z</time></trkpt><trkpt lat="42.209507632615704" lon="13.775633436469077"><ele>679.0</ele><time>2026-04-27T08:54:42Z</time></trkpt><trkpt lat="42.209394091128274" lon="13.775584875264784"><ele>679.0</ele><time>2026-04-27T08:54:43Z</time></trkpt><trkpt lat="42.2092779703319" lon="13.775552925226908"><ele>679.0</ele><time>2026-04-27T08:54:44Z</time></trkpt><trkpt lat="42.2091502346443" lon="13.775515497291625"><ele>679.0</ele><time>2026-04-27T08:54:45Z</time></trkpt><trkpt lat="42.2090206026837" lon="13.775482691997015"><ele>679.0</ele><time>2026-04-27T08:54:46Z</time></trkpt><trkpt lat="42.208907060840595" lon="13.775473982296244"><ele>679.0</ele><time>2026-04-27T08:54:46.999Z</time></trkpt><trkpt lat="42.208795955204415" lon="13.775498531604779"><ele>678.8000000000001</ele><time>2026-04-27T08:54:47.999Z</time></trkpt><trkpt lat="42.20869912220361" lon="13.775547776042139"><ele>678.6</ele><time>2026-04-27T08:54:48.999Z</time></trkpt><trkpt lat="42.20860255384881" lon="13.775597911249443"><ele>678.4</ele><time>2026-04-27T08:54:49.999Z</time></trkpt><trkpt lat="42.20851269516069" lon="13.775629465237104"><ele>678.2</ele><time>2026-04-27T08:54:50.999Z</time></trkpt><trkpt lat="42.208433779646164" lon="13.775631060927273"><ele>678.0</ele><time>2026-04-27T08:54:51.999Z</time></trkpt><trkpt lat="42.20836507247617" lon="13.775596187400122"><ele>678.0</ele><time>2026-04-27T08:54:52.999Z</time></trkpt><trkpt lat="42.208288136094126" lon="13.775533513510638"><ele>678.0</ele><time>2026-04-27T08:54:53.999Z</time></trkpt><trkpt lat="42.2081960029674" lon="13.775456153555002"><ele>678.0</ele><time>2026-04-27T08:54:54.999Z</time></trkpt><trkpt lat="42.20809394354935" lon="13.775364404263081"><ele>678.0</ele><time>2026-04-27T08:54:55.999Z</time></trkpt><trkpt lat="42.20798481561752" lon="13.775268249391665"><ele>678.0</ele><time>2026-04-27T08:54:56.999Z</time></trkpt><trkpt lat="42.20786695035845" lon="13.77516594338271"><ele>678.0</ele><time>2026-04-27T08:54:57.999Z</time></trkpt><trkpt lat="42.20774277723727" lon="13.77505420862261"><ele>678.0</ele><time>2026-04-27T08:54:58.999Z</time></trkpt><trkpt lat="42.20762116301543" lon="13.77493642319693"><ele>678.0</ele><time>2026-04-27T08:54:59.999Z</time></trkpt><trkpt lat="42.20752268249912" lon="13.774837068768433"><ele>678.0</ele><time>2026-04-27T08:55:00.999Z</time></trkpt><trkpt lat="42.20742191954306" lon="13.774750021471384"><ele>678.0</ele><time>2026-04-27T08:55:01.999Z</time></trkpt><trkpt lat="42.20733526750964" lon="13.774670889006027"><ele>678.0</ele><time>2026-04-27T08:55:02.999Z</time></trkpt><trkpt lat="42.20727794352666" lon="13.774617254156793"><ele>678.0</ele><time>2026-04-27T08:55:03.999Z</time></trkpt><trkpt lat="42.2072091995841" lon="13.774530787363853"><ele>678.0</ele><time>2026-04-27T08:55:05.999Z</time></trkpt><trkpt lat="42.20715445923059" lon="13.774488605164661"><ele>678.75</ele><time>2026-04-27T08:55:07.999Z</time></trkpt><trkpt lat="42.207027992891476" lon="13.774570590018058"><ele>679.5</ele><time>2026-04-27T08:55:09.999Z</time></trkpt><trkpt lat="42.206929811115" lon="13.774619108662009"><ele>680.25</ele><time>2026-04-27T08:55:10.999Z</time></trkpt><trkpt lat="42.20682908518583" lon="13.774668899305889"><ele>681.0</ele><time>2026-04-27T08:55:11.999Z</time></trkpt><trkpt lat="42.20672111934051" lon="13.774735638574093"><ele>681.0</ele><time>2026-04-27T08:55:12.999Z</time></trkpt><trkpt lat="42.20661284770982" lon="13.77479887676651"><ele>681.0</ele><time>2026-04-27T08:55:13.999Z</time></trkpt><trkpt lat="42.20649432239034" lon="13.774866841546348"><ele>681.0</ele><time>2026-04-27T08:55:14.999Z</time></trkpt><trkpt lat="42.206365831241115" lon="13.774935811130732"><ele>681.0</ele><time>2026-04-27T08:55:15.999Z</time></trkpt><trkpt lat="42.20622865826991" lon="13.77501285675849"><ele>681.0</ele><time>2026-04-27T08:55:16.999Z</time></trkpt><trkpt lat="42.2060946261841" lon="13.775087197158172"><ele>681.0</ele><time>2026-04-27T08:55:17.999Z</time></trkpt><trkpt lat="42.205959743646666" lon="13.775161693509514"><ele>681.0</ele><time>2026-04-27T08:55:18.999Z</time></trkpt><trkpt lat="42.20581943053137" lon="13.775244525960405"><ele>681.0</ele><time>2026-04-27T08:55:19.999Z</time></trkpt><trkpt lat="42.20566986552099" lon="13.775330826675045"><ele>682.0</ele><time>2026-04-27T08:55:20.999Z</time></trkpt><trkpt lat="42.2055166220572" lon="13.775416785702474"><ele>683.0</ele><time>2026-04-27T08:55:21.999Z</time></trkpt><trkpt lat="42.20535916797163" lon="13.775503580118517"><ele>684.0</ele><time>2026-04-27T08:55:22.999Z</time></trkpt><trkpt lat="42.205200782812014" lon="13.775593399307217"><ele>684.0</ele><time>2026-04-27T08:55:23.999Z</time></trkpt><trkpt lat="42.2050417420325" lon="13.775686528012331"><ele>684.0</ele><time>2026-04-27T08:55:24.999Z</time></trkpt><trkpt lat="42.20488360573439" lon="13.775779126487723"><ele>684.0</ele><time>2026-04-27T08:55:25.999Z</time></trkpt><trkpt lat="42.20472540469136" lon="13.775869160360207"><ele>684.3333333333334</ele><time>2026-04-27T08:55:26.999Z</time></trkpt><trkpt lat="42.20456906488512" lon="13.775956411659651"><ele>684.6666666666667</ele><time>2026-04-27T08:55:27.999Z</time></trkpt><trkpt lat="42.20441405956842" lon="13.77604174866386"><ele>685.0</ele><time>2026-04-27T08:55:28.999Z</time></trkpt><trkpt lat="42.20425930654911" lon="13.776133490062291"><ele>685.0</ele><time>2026-04-27T08:55:29.999Z</time></trkpt><trkpt lat="42.2040991237582" lon="13.77622097832126"><ele>685.0</ele><time>2026-04-27T08:55:30.999Z</time></trkpt><trkpt lat="42.20394354866385" lon="13.776309300084522"><ele>685.0</ele><time>2026-04-27T08:55:31.999Z</time></trkpt><trkpt lat="42.20378290386558" lon="13.776398377132265"><ele>686.6666666666667</ele><time>2026-04-27T08:55:32.999Z</time></trkpt><trkpt lat="42.203625259191035" lon="13.77648800101745"><ele>688.3333333333334</ele><time>2026-04-27T08:55:33.999Z</time></trkpt><trkpt lat="42.20346758443942" lon="13.776577424711729"><ele>690.0</ele><time>2026-04-27T08:55:34.999Z</time></trkpt><trkpt lat="42.20331082489417" lon="13.776665736362721"><ele>691.6666666666666</ele><time>2026-04-27T08:55:35.999Z</time></trkpt><trkpt lat="42.203155379505276" lon="13.776752420517665"><ele>693.3333333333333</ele><time>2026-04-27T08:55:36.999Z</time></trkpt><trkpt lat="42.20299751720932" lon="13.776843345774266"><ele>695.0</ele><time>2026-04-27T08:55:37.999Z</time></trkpt><trkpt lat="42.20283760805423" lon="13.776933435579297"><ele>698.0</ele><time>2026-04-27T08:55:38.999Z</time></trkpt><trkpt lat="42.202677962550055" lon="13.777021081383307"><ele>701.0</ele><time>2026-04-27T08:55:39.999Z</time></trkpt><trkpt lat="42.20252413806381" lon="13.777105272479002"><ele>704.0</ele><time>2026-04-27T08:55:40.999Z</time></trkpt><trkpt lat="42.202397459514614" lon="13.77719347290047"><ele>703.25</ele><time>2026-04-27T08:55:42Z</time></trkpt><trkpt lat="42.202307146636926" lon="13.777309669618646"><ele>702.5</ele><time>2026-04-27T08:55:43Z</time></trkpt><trkpt lat="42.20225353488877" lon="13.77745307028531"><ele>701.75</ele><time>2026-04-27T08:55:44Z</time></trkpt><trkpt lat="42.202219127930675" lon="13.777615294569461"><ele>701.0</ele><time>2026-04-27T08:55:45Z</time></trkpt><trkpt lat="42.20219329788721" lon="13.777782810938492"><ele>701.0</ele><time>2026-04-27T08:55:46Z</time></trkpt><trkpt lat="42.20216367184342" lon="13.777945543629604"><ele>701.0</ele><time>2026-04-27T08:55:47Z</time></trkpt><trkpt lat="42.202128784922635" lon="13.778112772753301"><ele>701.0</ele><time>2026-04-27T08:55:48Z</time></trkpt><trkpt lat="42.20209324432742" lon="13.778286791041209"><ele>701.0</ele><time>2026-04-27T08:55:49Z</time></trkpt><trkpt lat="42.20205624549453" lon="13.77846484246103"><ele>702.5</ele><time>2026-04-27T08:55:50Z</time></trkpt><trkpt lat="42.202016809457845" lon="13.778650190385447"><ele>704.0</ele><time>2026-04-27T08:55:51Z</time></trkpt><trkpt lat="42.20197499437172" lon="13.778840460988095"><ele>705.5</ele><time>2026-04-27T08:55:52Z</time></trkpt><trkpt lat="42.201933415056786" lon="13.779033921129422"><ele>707.0</ele><time>2026-04-27T08:55:53Z</time></trkpt><trkpt lat="42.20189545432942" lon="13.779228953433416"><ele>710.0</ele><time>2026-04-27T08:55:54Z</time></trkpt><trkpt lat="42.20185926352978" lon="13.779423323079248"><ele>713.0</ele><time>2026-04-27T08:55:55Z</time></trkpt><trkpt lat="42.2018201836046" lon="13.779619535277599"><ele>716.0</ele><time>2026-04-27T08:55:56Z</time></trkpt><trkpt lat="42.201780827413224" lon="13.779820878886543"><ele>716.0</ele><time>2026-04-27T08:55:57Z</time></trkpt><trkpt lat="42.20174506654455" lon="13.780021854440156"><ele>716.0</ele><time>2026-04-27T08:55:58Z</time></trkpt><trkpt lat="42.20171061604524" lon="13.780224464038367"><ele>716.0</ele><time>2026-04-27T08:55:59Z</time></trkpt><trkpt lat="42.20168209865131" lon="13.7804313888081"><ele>718.0</ele><time>2026-04-27T08:56:00Z</time></trkpt><trkpt lat="42.201662910586634" lon="13.780645065334985"><ele>720.0</ele><time>2026-04-27T08:56:01Z</time></trkpt><trkpt lat="42.20165626389843" lon="13.780863063454637"><ele>722.0</ele><time>2026-04-27T08:56:02Z</time></trkpt><trkpt lat="42.2016605720942" lon="13.781083319930408"><ele>723.3333333333333</ele><time>2026-04-27T08:56:03Z</time></trkpt><trkpt lat="42.201673848568724" lon="13.781303945691223"><ele>724.6666666666666</ele><time>2026-04-27T08:56:04Z</time></trkpt><trkpt lat="42.20169425819618" lon="13.7815237799042"><ele>726.0</ele><time>2026-04-27T08:56:05Z</time></trkpt><trkpt lat="42.20171412207386" lon="13.781742305468379"><ele>728.6666666666666</ele><time>2026-04-27T08:56:06Z</time></trkpt><trkpt lat="42.20171494757769" lon="13.781953798936968"><ele>731.3333333333333</ele><time>2026-04-27T08:56:07Z</time></trkpt><trkpt lat="42.20168769498032" lon="13.782150261075367"><ele>734.0</ele><time>2026-04-27T08:56:08Z</time></trkpt><trkpt lat="42.201633438038165" lon="13.782335548874967"><ele>734.0</ele><time>2026-04-27T08:56:09Z</time></trkpt><trkpt lat="42.20156643852599" lon="13.782515447833859"><ele>734.0</ele><time>2026-04-27T08:56:10Z</time></trkpt><trkpt lat="42.20150023201791" lon="13.782702572000396"><ele>734.0</ele><time>2026-04-27T08:56:11Z</time></trkpt><trkpt lat="42.2014354039207" lon="13.782895548836578"><ele>733.3333333333333</ele><time>2026-04-27T08:56:12Z</time></trkpt><trkpt lat="42.20136662667494" lon="13.783088813583326"><ele>732.6666666666666</ele><time>2026-04-27T08:56:13Z</time></trkpt><trkpt lat="42.201294073377376" lon="13.783280505737983"><ele>732.0</ele><time>2026-04-27T08:56:14Z</time></trkpt><trkpt lat="42.20121410523867" lon="13.783468734452466"><ele>737.0</ele><time>2026-04-27T08:56:15Z</time></trkpt><trkpt lat="42.201128948018585" lon="13.783653431543707"><ele>742.0</ele><time>2026-04-27T08:56:16Z</time></trkpt><trkpt lat="42.2010410904787" lon="13.783834967561198"><ele>747.0</ele><time>2026-04-27T08:56:17Z</time></trkpt><trkpt lat="42.20095556248826" lon="13.78401811447967"><ele>747.0</ele><time>2026-04-27T08:56:18Z</time></trkpt><trkpt lat="42.20087203993376" lon="13.78420233360494"><ele>747.0</ele><time>2026-04-27T08:56:19Z</time></trkpt><trkpt lat="42.20078522933128" lon="13.784384853889575"><ele>747.0</ele><time>2026-04-27T08:56:20Z</time></trkpt><trkpt lat="42.20069037664723" lon="13.78456403678558"><ele>749.25</ele><time>2026-04-27T08:56:21Z</time></trkpt><trkpt lat="42.20059461422988" lon="13.78473319653068"><ele>751.5</ele><time>2026-04-27T08:56:22Z</time></trkpt><trkpt lat="42.20050961993106" lon="13.784861683251204"><ele>753.75</ele><time>2026-04-27T08:56:23Z</time></trkpt><trkpt lat="42.20042382281169" lon="13.784979744063554"><ele>756.0</ele><time>2026-04-27T08:56:24Z</time></trkpt><trkpt lat="42.20034621732508" lon="13.785083027145326"><ele>756.0</ele><time>2026-04-27T08:56:25Z</time></trkpt><trkpt lat="42.200281099207935" lon="13.785162240064096"><ele>756.0</ele><time>2026-04-27T08:56:26Z</time></trkpt><trkpt lat="42.20019955729716" lon="13.785215681205312"><ele>756.0</ele><time>2026-04-27T08:56:28Z</time></trkpt><trkpt lat="42.20016765311056" lon="13.785071115129305"><ele>756.0</ele><time>2026-04-27T08:56:30Z</time></trkpt><trkpt lat="42.20015302489484" lon="13.78494186786588"><ele>756.0</ele><time>2026-04-27T08:56:31Z</time></trkpt><trkpt lat="42.20014332677869" lon="13.784826066750433"><ele>756.0</ele><time>2026-04-27T08:56:32Z</time></trkpt><trkpt lat="42.2001233931651" lon="13.784697177091802"><ele>756.0</ele><time>2026-04-27T08:56:33Z</time></trkpt><trkpt lat="42.20008413962738" lon="13.784548617449655"><ele>756.0</ele><time>2026-04-27T08:56:34Z</time></trkpt><trkpt lat="42.200033818958005" lon="13.784391347767675"><ele>756.0</ele><time>2026-04-27T08:56:35Z</time></trkpt><trkpt lat="42.19997287094423" lon="13.784227322899213"><ele>755.75</ele><time>2026-04-27T08:56:36Z</time></trkpt><trkpt lat="42.19991439817414" lon="13.784082263985596"><ele>755.5</ele><time>2026-04-27T08:56:37Z</time></trkpt><trkpt lat="42.199849641359194" lon="13.783934289694601"><ele>755.25</ele><time>2026-04-27T08:56:38Z</time></trkpt><trkpt lat="42.19979327137605" lon="13.783761817647365"><ele>755.0</ele><time>2026-04-27T08:56:39Z</time></trkpt><trkpt lat="42.19975984632303" lon="13.78357033209231"><ele>758.25</ele><time>2026-04-27T08:56:40Z</time></trkpt><trkpt lat="42.199755659145474" lon="13.783373064219905"><ele>761.5</ele><time>2026-04-27T08:56:41Z</time></trkpt><trkpt lat="42.1997404153802" lon="13.783208314714647"><ele>764.75</ele><time>2026-04-27T08:56:42Z</time></trkpt><trkpt lat="42.19967704546957" lon="13.783069306868391"><ele>768.0</ele><time>2026-04-27T08:56:43Z</time></trkpt><trkpt lat="42.19954978530362" lon="13.782991313812271"><ele>768.0</ele><time>2026-04-27T08:56:44Z</time></trkpt><trkpt lat="42.19942325911778" lon="13.782903295546529"><ele>768.0</ele><time>2026-04-27T08:56:45Z</time></trkpt><trkpt lat="42.199279469721056" lon="13.782851579518503"><ele>768.0</ele><time>2026-04-27T08:56:46Z</time></trkpt><trkpt lat="42.199131600862984" lon="13.782828033695639"><ele>768.0</ele><time>2026-04-27T08:56:47Z</time></trkpt><trkpt lat="42.19897614635785" lon="13.782841920766524"><ele>769.6666666666667</ele><time>2026-04-27T08:56:48Z</time></trkpt><trkpt lat="42.19882096034424" lon="13.782852366964487"><ele>771.3333333333334</ele><time>2026-04-27T08:56:48.999Z</time></trkpt><trkpt lat="42.198667032530984" lon="13.782812140018157"><ele>773.0</ele><time>2026-04-27T08:56:49.999Z</time></trkpt><trkpt lat="42.19851536122828" lon="13.782746147380871"><ele>773.0</ele><time>2026-04-27T08:56:50.999Z</time></trkpt><trkpt lat="42.19836548732268" lon="13.782693090680615"><ele>773.0</ele><time>2026-04-27T08:56:51.999Z</time></trkpt><trkpt lat="42.19820816398758" lon="13.782669955477074"><ele>773.0</ele><time>2026-04-27T08:56:52.999Z</time></trkpt><trkpt lat="42.19804799919659" lon="13.782672968746052"><ele>774.3333333333334</ele><time>2026-04-27T08:56:53.999Z</time></trkpt><trkpt lat="42.197890617924614" lon="13.782692097940744"><ele>775.6666666666667</ele><time>2026-04-27T08:56:54.999Z</time></trkpt><trkpt lat="42.197732694695205" lon="13.782718740890594"><ele>777.0</ele><time>2026-04-27T08:56:55.999Z</time></trkpt><trkpt lat="42.197575956391255" lon="13.782740246017486"><ele>777.0</ele><time>2026-04-27T08:56:56.999Z</time></trkpt><trkpt lat="42.19742145487389" lon="13.782742210664559"><ele>777.0</ele><time>2026-04-27T08:56:57.999Z</time></trkpt><trkpt lat="42.19727184232289" lon="13.782712354050162"><ele>777.0</ele><time>2026-04-27T08:56:58.999Z</time></trkpt><trkpt lat="42.197132551103934" lon="13.782651810053036"><ele>776.25</ele><time>2026-04-27T08:56:59.999Z</time></trkpt><trkpt lat="42.197023674276885" lon="13.782550604703577"><ele>775.5</ele><time>2026-04-27T08:57:00.999Z</time></trkpt><trkpt lat="42.196934914726604" lon="13.782409095269115"><ele>774.75</ele><time>2026-04-27T08:57:01.999Z</time></trkpt><trkpt lat="42.19685903928466" lon="13.782256624100944"><ele>774.0</ele><time>2026-04-27T08:57:02.999Z</time></trkpt><trkpt lat="42.19677129143904" lon="13.782118514200873"><ele>774.0</ele><time>2026-04-27T08:57:03.999Z</time></trkpt><trkpt lat="42.19665784867175" lon="13.782023413569272"><ele>774.0</ele><time>2026-04-27T08:57:04.999Z</time></trkpt><trkpt lat="42.19652051900702" lon="13.781968703163749"><ele>774.0</ele><time>2026-04-27T08:57:05.999Z</time></trkpt><trkpt lat="42.196373300731224" lon="13.781948653240994"><ele>774.0</ele><time>2026-04-27T08:57:06.999Z</time></trkpt><trkpt lat="42.19622133270293" lon="13.781932436009658"><ele>774.6666666666667</ele><time>2026-04-27T08:57:07.999Z</time></trkpt><trkpt lat="42.19606930992078" lon="13.781907418578573"><ele>775.3333333333334</ele><time>2026-04-27T08:57:08.999Z</time></trkpt><trkpt lat="42.19591469555016" lon="13.781873582261145"><ele>776.0</ele><time>2026-04-27T08:57:09.999Z</time></trkpt><trkpt lat="42.19575966201258" lon="13.781841040555982"><ele>777.6666666666667</ele><time>2026-04-27T08:57:10.999Z</time></trkpt><trkpt lat="42.19560923373279" lon="13.78180365568842"><ele>779.3333333333333</ele><time>2026-04-27T08:57:11.999Z</time></trkpt><trkpt lat="42.19546332978956" lon="13.781764150840159"><ele>781.0</ele><time>2026-04-27T08:57:12.999Z</time></trkpt><trkpt lat="42.195316320031296" lon="13.781733342729842"><ele>781.0</ele><time>2026-04-27T08:57:13.999Z</time></trkpt><trkpt lat="42.19516513178204" lon="13.78170875622305"><ele>781.0</ele><time>2026-04-27T08:57:14.999Z</time></trkpt><trkpt lat="42.19501133308721" lon="13.78169980259559"><ele>781.0</ele><time>2026-04-27T08:57:15.999Z</time></trkpt><trkpt lat="42.19485753250557" lon="13.78171554746274"><ele>782.5</ele><time>2026-04-27T08:57:16.999Z</time></trkpt><trkpt lat="42.194702499880655" lon="13.78173566725348"><ele>784.0</ele><time>2026-04-27T08:57:17.999Z</time></trkpt><trkpt lat="42.19455589883243" lon="13.781739348785479"><ele>785.5</ele><time>2026-04-27T08:57:18.999Z</time></trkpt><trkpt lat="42.19441479382976" lon="13.781711991897833"><ele>787.0</ele><time>2026-04-27T08:57:19.999Z</time></trkpt><trkpt lat="42.19427786145422" lon="13.781655563307732"><ele>787.0</ele><time>2026-04-27T08:57:20.999Z</time></trkpt><trkpt lat="42.194166812733854" lon="13.781569161988845"><ele>787.0</ele><time>2026-04-27T08:57:21.999Z</time></trkpt><trkpt lat="42.19408684133374" lon="13.781458408343227"><ele>787.0</ele><time>2026-04-27T08:57:22.999Z</time></trkpt><trkpt lat="42.19402591681059" lon="13.781308675144246"><ele>787.0</ele><time>2026-04-27T08:57:23.999Z</time></trkpt><trkpt lat="42.19398879418048" lon="13.781131950424601"><ele>791.5</ele><time>2026-04-27T08:57:24.999Z</time></trkpt><trkpt lat="42.19397539352447" lon="13.780938580764378"><ele>796.0</ele><time>2026-04-27T08:57:25.999Z</time></trkpt><trkpt lat="42.19396513976503" lon="13.78073891567181"><ele>800.5</ele><time>2026-04-27T08:57:26.999Z</time></trkpt><trkpt lat="42.19396673758181" lon="13.780532272062253"><ele>805.0</ele><time>2026-04-27T08:57:27.999Z</time></trkpt><trkpt lat="42.193982656653056" lon="13.780323959013277"><ele>801.5</ele><time>2026-04-27T08:57:28.999Z</time></trkpt><trkpt lat="42.194012874546814" lon="13.780118398697896"><ele>798.0</ele><time>2026-04-27T08:57:29.999Z</time></trkpt><trkpt lat="42.194054125920346" lon="13.77992432847411"><ele>794.5</ele><time>2026-04-27T08:57:30.999Z</time></trkpt><trkpt lat="42.194091892390134" lon="13.77973856234209"><ele>791.0</ele><time>2026-04-27T08:57:31.999Z</time></trkpt><trkpt lat="42.19412929252005" lon="13.779552805170784"><ele>791.0</ele><time>2026-04-27T08:57:32.999Z</time></trkpt><trkpt lat="42.19415950350153" lon="13.779368312132467"><ele>791.0</ele><time>2026-04-27T08:57:33.999Z</time></trkpt><trkpt lat="42.194179043082315" lon="13.779179411827117"><ele>791.0</ele><time>2026-04-27T08:57:34.999Z</time></trkpt><trkpt lat="42.19417402833548" lon="13.778992271075065"><ele>791.0</ele><time>2026-04-27T08:57:35.999Z</time></trkpt><trkpt lat="42.194149305991914" lon="13.778806904121087"><ele>792.25</ele><time>2026-04-27T08:57:36.999Z</time></trkpt><trkpt lat="42.19412675994805" lon="13.778620177152872"><ele>793.5</ele><time>2026-04-27T08:57:37.999Z</time></trkpt><trkpt lat="42.194116173030764" lon="13.778433242286381"><ele>794.75</ele><time>2026-04-27T08:57:38.999Z</time></trkpt><trkpt lat="42.194113662372224" lon="13.778242309575996"><ele>796.0</ele><time>2026-04-27T08:57:39.999Z</time></trkpt><trkpt lat="42.19412617178669" lon="13.778050401581492"><ele>798.25</ele><time>2026-04-27T08:57:40.999Z</time></trkpt><trkpt lat="42.19414967690864" lon="13.777856458304719"><ele>800.5</ele><time>2026-04-27T08:57:41.999Z</time></trkpt><trkpt lat="42.19417435681729" lon="13.77766326218207"><ele>802.75</ele><time>2026-04-27T08:57:42.999Z</time></trkpt><trkpt lat="42.19420031256492" lon="13.777466732358183"><ele>805.0</ele><time>2026-04-27T08:57:43.999Z</time></trkpt><trkpt lat="42.194233658758534" lon="13.777267289829547"><ele>808.3333333333333</ele><time>2026-04-27T08:57:44.999Z</time></trkpt><trkpt lat="42.194281596314234" lon="13.777072877929417"><ele>811.6666666666667</ele><time>2026-04-27T08:57:45.999Z</time></trkpt><trkpt lat="42.19434347593687" lon="13.776882154190107"><ele>815.0</ele><time>2026-04-27T08:57:46.999Z</time></trkpt><trkpt lat="42.194417805051856" lon="13.776698107236605"><ele>817.6666666666667</ele><time>2026-04-27T08:57:48Z</time></trkpt><trkpt lat="42.194501180589974" lon="13.776517686667802"><ele>820.3333333333333</ele><time>2026-04-27T08:57:49Z</time></trkpt><trkpt lat="42.194586064711096" lon="13.776338691074983"><ele>823.0</ele><time>2026-04-27T08:57:50Z</time></trkpt><trkpt lat="42.19466268523464" lon="13.776158427099816"><ele>821.0</ele><time>2026-04-27T08:57:51Z</time></trkpt><trkpt lat="42.194724002687714" lon="13.77597136779751"><ele>819.0</ele><time>2026-04-27T08:57:52Z</time></trkpt><trkpt lat="42.194778391484164" lon="13.775785358645955"><ele>817.0</ele><time>2026-04-27T08:57:53Z</time></trkpt><trkpt lat="42.194852581601694" lon="13.77561407094842"><ele>815.0</ele><time>2026-04-27T08:57:54Z</time></trkpt><trkpt lat="42.194949805073904" lon="13.775464392108928"><ele>815.0</ele><time>2026-04-27T08:57:55Z</time></trkpt><trkpt lat="42.19505493444213" lon="13.775326658338948"><ele>815.0</ele><time>2026-04-27T08:57:56Z</time></trkpt><trkpt lat="42.19515750040139" lon="13.775185857102583"><ele>815.0</ele><time>2026-04-27T08:57:57Z</time></trkpt><trkpt lat="42.195254472181915" lon="13.775032005575747"><ele>815.0</ele><time>2026-04-27T08:57:58Z</time></trkpt><trkpt lat="42.195362467831465" lon="13.77488162040386"><ele>818.6666666666667</ele><time>2026-04-27T08:57:59Z</time></trkpt><trkpt lat="42.19545785269193" lon="13.774712595641915"><ele>822.3333333333333</ele><time>2026-04-27T08:58:00Z</time></trkpt><trkpt lat="42.19554137735151" lon="13.77452923370993"><ele>826.0</ele><time>2026-04-27T08:58:01Z</time></trkpt><trkpt lat="42.195643158812956" lon="13.774360837694529"><ele>827.0</ele><time>2026-04-27T08:58:02Z</time></trkpt><trkpt lat="42.19574322855864" lon="13.774195649572981"><ele>828.0</ele><time>2026-04-27T08:58:03Z</time></trkpt><trkpt lat="42.19583949298861" lon="13.774027344925585"><ele>829.0</ele><time>2026-04-27T08:58:04Z</time></trkpt><trkpt lat="42.19593241289912" lon="13.77385931937809"><ele>829.0</ele><time>2026-04-27T08:58:05Z</time></trkpt><trkpt lat="42.19601262193576" lon="13.773689887361893"><ele>829.0</ele><time>2026-04-27T08:58:06Z</time></trkpt><trkpt lat="42.196054557160224" lon="13.7735065571908"><ele>829.0</ele><time>2026-04-27T08:58:07Z</time></trkpt><trkpt lat="42.19606443497203" lon="13.773304792581836"><ele>829.0</ele><time>2026-04-27T08:58:08Z</time></trkpt><trkpt lat="42.19605379915272" lon="13.77309246437127"><ele>832.6666666666666</ele><time>2026-04-27T08:58:09Z</time></trkpt><trkpt lat="42.196048272663504" lon="13.772875552359286"><ele>836.3333333333333</ele><time>2026-04-27T08:58:10Z</time></trkpt><trkpt lat="42.19605856341595" lon="13.772655415923373"><ele>840.0</ele><time>2026-04-27T08:58:11Z</time></trkpt><trkpt lat="42.196086957032556" lon="13.772439556512936"><ele>841.0</ele><time>2026-04-27T08:58:12Z</time></trkpt><trkpt lat="42.19612090437342" lon="13.7722383425706"><ele>842.0</ele><time>2026-04-27T08:58:13Z</time></trkpt><trkpt lat="42.196146224248615" lon="13.772029080490743"><ele>843.0</ele><time>2026-04-27T08:58:14Z</time></trkpt><trkpt lat="42.196145819409466" lon="13.771816549760175"><ele>843.0</ele><time>2026-04-27T08:58:15Z</time></trkpt><trkpt lat="42.19612017803337" lon="13.771641300129824"><ele>843.0</ele><time>2026-04-27T08:58:16Z</time></trkpt><trkpt lat="42.19606911828516" lon="13.77150899308006"><ele>843.0</ele><time>2026-04-27T08:58:17Z</time></trkpt><trkpt lat="42.19598775324584" lon="13.771421907660864"><ele>843.0</ele><time>2026-04-27T08:58:18Z</time></trkpt><trkpt lat="42.195871174284456" lon="13.771366947702134"><ele>843.0</ele><time>2026-04-27T08:58:19Z</time></trkpt><trkpt lat="42.19573973579353" lon="13.771343841084779"><ele>843.0</ele><time>2026-04-27T08:58:20Z</time></trkpt><trkpt lat="42.19559793652795" lon="13.771344378659277"><ele>843.0</ele><time>2026-04-27T08:58:21Z</time></trkpt><trkpt lat="42.195449656528794" lon="13.771361999508384"><ele>843.0</ele><time>2026-04-27T08:58:22Z</time></trkpt><trkpt lat="42.19530055708403" lon="13.771384930212763"><ele>845.75</ele><time>2026-04-27T08:58:23Z</time></trkpt><trkpt lat="42.19516642253073" lon="13.771365190205717"><ele>848.5</ele><time>2026-04-27T08:58:24Z</time></trkpt><trkpt lat="42.19505029798748" lon="13.771347495874963"><ele>851.25</ele><time>2026-04-27T08:58:25Z</time></trkpt><trkpt lat="42.19496414700927" lon="13.771269927901871"><ele>854.0</ele><time>2026-04-27T08:58:26Z</time></trkpt><trkpt lat="42.194928074238874" lon="13.771144439552815"><ele>853.0</ele><time>2026-04-27T08:58:27Z</time></trkpt><trkpt lat="42.194921531085875" lon="13.771001697148268"><ele>852.0</ele><time>2026-04-27T08:58:28Z</time></trkpt><trkpt lat="42.194899628551106" lon="13.77083892193174"><ele>851.0</ele><time>2026-04-27T08:58:29Z</time></trkpt><trkpt lat="42.19488076695495" lon="13.770670699487969"><ele>850.0</ele><time>2026-04-27T08:58:30Z</time></trkpt><trkpt lat="42.19484609169104" lon="13.770492588699081"><ele>852.75</ele><time>2026-04-27T08:58:31Z</time></trkpt><trkpt lat="42.19478860251956" lon="13.770315888655963"><ele>855.5</ele><time>2026-04-27T08:58:32Z</time></trkpt><trkpt lat="42.1947103567074" lon="13.770140157337636"><ele>858.25</ele><time>2026-04-27T08:58:33Z</time></trkpt><trkpt lat="42.194626021611874" lon="13.769967578152636"><ele>861.0</ele><time>2026-04-27T08:58:34Z</time></trkpt><trkpt lat="42.19455118147323" lon="13.769794706768534"><ele>861.0</ele><time>2026-04-27T08:58:35Z</time></trkpt><trkpt lat="42.19448369047546" lon="13.769651126975004"><ele>861.0</ele><time>2026-04-27T08:58:36Z</time></trkpt><trkpt lat="42.19439503214734" lon="13.769567505680342"><ele>861.0</ele><time>2026-04-27T08:58:37Z</time></trkpt><trkpt lat="42.19427085184701" lon="13.769527326411062"><ele>861.0</ele><time>2026-04-27T08:58:38Z</time></trkpt><trkpt lat="42.19412850890128" lon="13.769545991115141"><ele>864.3333333333333</ele><time>2026-04-27T08:58:39Z</time></trkpt><trkpt lat="42.19398724105833" lon="13.769599575525158"><ele>867.6666666666666</ele><time>2026-04-27T08:58:40Z</time></trkpt><trkpt lat="42.19383899648985" lon="13.769621752179187"><ele>871.0</ele><time>2026-04-27T08:58:41Z</time></trkpt><trkpt lat="42.19368734087873" lon="13.769659759832912"><ele>871.0</ele><time>2026-04-27T08:58:42Z</time></trkpt><trkpt lat="42.19352900337893" lon="13.769607123319972"><ele>871.0</ele><time>2026-04-27T08:58:43Z</time></trkpt><trkpt lat="42.19336196942068" lon="13.769589129009175"><ele>871.0</ele><time>2026-04-27T08:58:44Z</time></trkpt><trkpt lat="42.19319432152283" lon="13.769594705759852"><ele>872.0</ele><time>2026-04-27T08:58:45Z</time></trkpt><trkpt lat="42.19303583326369" lon="13.76958775265071"><ele>873.0</ele><time>2026-04-27T08:58:46Z</time></trkpt><trkpt lat="42.19286939779134" lon="13.76958541256123"><ele>874.0</ele><time>2026-04-27T08:58:47Z</time></trkpt><trkpt lat="42.19269548427029" lon="13.769572465797287"><ele>874.0</ele><time>2026-04-27T08:58:48Z</time></trkpt><trkpt lat="42.19251744987285" lon="13.769541332641017"><ele>874.0</ele><time>2026-04-27T08:58:49Z</time></trkpt><trkpt lat="42.19234382439" lon="13.76948695312881"><ele>874.0</ele><time>2026-04-27T08:58:50Z</time></trkpt><trkpt lat="42.19220293181232" lon="13.769437295605059"><ele>873.75</ele><time>2026-04-27T08:58:51Z</time></trkpt><trkpt lat="42.19206997062223" lon="13.769396650297052"><ele>873.5</ele><time>2026-04-27T08:58:52Z</time></trkpt><trkpt lat="42.191927949964885" lon="13.769379487385335"><ele>873.25</ele><time>2026-04-27T08:58:52.999Z</time></trkpt><trkpt lat="42.191777840742446" lon="13.769382847813496"><ele>873.0</ele><time>2026-04-27T08:58:53.999Z</time></trkpt><trkpt lat="42.19162777262004" lon="13.769385523677345"><ele>872.75</ele><time>2026-04-27T08:58:54.999Z</time></trkpt><trkpt lat="42.19149183623122" lon="13.769377031981978"><ele>872.5</ele><time>2026-04-27T08:58:55.999Z</time></trkpt><trkpt lat="42.19137568123993" lon="13.769347353726062"><ele>872.25</ele><time>2026-04-27T08:58:56.999Z</time></trkpt><trkpt lat="42.19127740086501" lon="13.769276153793855"><ele>872.0</ele><time>2026-04-27T08:58:57.999Z</time></trkpt><trkpt lat="42.19119068212051" lon="13.769157726661446"><ele>872.0</ele><time>2026-04-27T08:58:58.999Z</time></trkpt><trkpt lat="42.191116492004056" lon="13.76901998854304"><ele>872.0</ele><time>2026-04-27T08:58:59.999Z</time></trkpt><trkpt lat="42.19104953782222" lon="13.768897886617845"><ele>872.0</ele><time>2026-04-27T08:59:00.999Z</time></trkpt><trkpt lat="42.19098944948422" lon="13.768809369235884"><ele>872.0</ele><time>2026-04-27T08:59:01.999Z</time></trkpt><trkpt lat="42.19093625699727" lon="13.768750573231342"><ele>872.0</ele><time>2026-04-27T08:59:02.999Z</time></trkpt><trkpt lat="42.19087416990867" lon="13.768666840902192"><ele>872.0</ele><time>2026-04-27T08:59:04.999Z</time></trkpt><trkpt lat="42.190956262913666" lon="13.768553580009756"><ele>872.0</ele><time>2026-04-27T08:59:08.999Z</time></trkpt><trkpt lat="42.1910707139355" lon="13.76847973430484"><ele>872.0</ele><time>2026-04-27T08:59:10.999Z</time></trkpt><trkpt lat="42.19113046572206" lon="13.76842100965634"><ele>872.0</ele><time>2026-04-27T08:59:11.999Z</time></trkpt><trkpt lat="42.19117308238858" lon="13.7683582184215"><ele>872.0</ele><time>2026-04-27T08:59:12.999Z</time></trkpt><trkpt lat="42.191214688899" lon="13.76827877819754"><ele>872.2</ele><time>2026-04-27T08:59:13.999Z</time></trkpt><trkpt lat="42.191262821203374" lon="13.768184214064993"><ele>872.4000000000001</ele><time>2026-04-27T08:59:14.999Z</time></trkpt><trkpt lat="42.19131759329407" lon="13.76808775650105"><ele>872.5999999999999</ele><time>2026-04-27T08:59:15.999Z</time></trkpt><trkpt lat="42.191384486601905" lon="13.76798781676166"><ele>872.8</ele><time>2026-04-27T08:59:16.999Z</time></trkpt><trkpt lat="42.19146321761355" lon="13.767887562884825"><ele>873.0</ele><time>2026-04-27T08:59:17.999Z</time></trkpt><trkpt lat="42.191546733396414" lon="13.767793021064282"><ele>873.0</ele><time>2026-04-27T08:59:18.999Z</time></trkpt><trkpt lat="42.19162340777832" lon="13.767696492654121"><ele>873.0</ele><time>2026-04-27T08:59:19.999Z</time></trkpt><trkpt lat="42.19169189430376" lon="13.767613615760828"><ele>873.0</ele><time>2026-04-27T08:59:20.999Z</time></trkpt><trkpt lat="42.19175700223403" lon="13.767550632488007"><ele>873.0</ele><time>2026-04-27T08:59:21.999Z</time></trkpt><trkpt lat="42.191809345848895" lon="13.76748457056108"><ele>873.0</ele><time>2026-04-27T08:59:22.999Z</time></trkpt><trkpt lat="42.19185473821734" lon="13.767370671848044"><ele>873.0</ele><time>2026-04-27T08:59:23.999Z</time></trkpt><trkpt lat="42.191899989064524" lon="13.767246445871804"><ele>876.0</ele><time>2026-04-27T08:59:24.999Z</time></trkpt><trkpt lat="42.191950768623684" lon="13.767127481144081"><ele>879.0</ele><time>2026-04-27T08:59:25.999Z</time></trkpt><trkpt lat="42.191988634838765" lon="13.7669925798607"><ele>882.0</ele><time>2026-04-27T08:59:26.999Z</time></trkpt><trkpt lat="42.19201379747601" lon="13.76686202382204"><ele>885.0</ele><time>2026-04-27T08:59:27.999Z</time></trkpt><trkpt lat="42.192054806168564" lon="13.76674315616664"><ele>888.0</ele><time>2026-04-27T08:59:28.999Z</time></trkpt><trkpt lat="42.19211070645234" lon="13.766629233640865"><ele>889.2</ele><time>2026-04-27T08:59:29.999Z</time></trkpt><trkpt lat="42.192168941435156" lon="13.766514174877207"><ele>890.4</ele><time>2026-04-27T08:59:30.999Z</time></trkpt><trkpt lat="42.19223532263214" lon="13.766401419760248"><ele>891.6000000000001</ele><time>2026-04-27T08:59:31.999Z</time></trkpt><trkpt lat="42.19230514066757" lon="13.766291789600004"><ele>892.8000000000001</ele><time>2026-04-27T08:59:32.999Z</time></trkpt><trkpt lat="42.19237167847664" lon="13.766180812472573"><ele>894.0</ele><time>2026-04-27T08:59:33.999Z</time></trkpt><trkpt lat="42.1924485707329" lon="13.766047821733244"><ele>897.0</ele><time>2026-04-27T08:59:34.999Z</time></trkpt><trkpt lat="42.192527592252155" lon="13.765917285193282"><ele>900.0</ele><time>2026-04-27T08:59:35.999Z</time></trkpt><trkpt lat="42.192619359711976" lon="13.765807307411356"><ele>903.0</ele><time>2026-04-27T08:59:36.999Z</time></trkpt><trkpt lat="42.1927086464359" lon="13.765687537454472"><ele>906.0</ele><time>2026-04-27T08:59:37.999Z</time></trkpt><trkpt lat="42.192797443795655" lon="13.765543609316175"><ele>906.0</ele><time>2026-04-27T08:59:38.999Z</time></trkpt><trkpt lat="42.19290124459158" lon="13.76540936544699"><ele>906.0</ele><time>2026-04-27T08:59:39.999Z</time></trkpt><trkpt lat="42.19299928259363" lon="13.765280883558665"><ele>906.0</ele><time>2026-04-27T08:59:40.999Z</time></trkpt><trkpt lat="42.19310078153196" lon="13.765163260729409"><ele>906.0</ele><time>2026-04-27T08:59:41.999Z</time></trkpt><trkpt lat="42.19319588389264" lon="13.76502035243472"><ele>906.75</ele><time>2026-04-27T08:59:42.999Z</time></trkpt><trkpt lat="42.19328371124712" lon="13.764867302854968"><ele>907.5</ele><time>2026-04-27T08:59:43.999Z</time></trkpt><trkpt lat="42.19337498857724" lon="13.764718740599546"><ele>908.25</ele><time>2026-04-27T08:59:44.999Z</time></trkpt><trkpt lat="42.1934825603987" lon="13.764585888117523"><ele>909.0</ele><time>2026-04-27T08:59:45.999Z</time></trkpt><trkpt lat="42.19360868678047" lon="13.764498165015787"><ele>909.0</ele><time>2026-04-27T08:59:46.999Z</time></trkpt><trkpt lat="42.19371728921899" lon="13.76443043578963"><ele>909.0000000000001</ele><time>2026-04-27T08:59:47.999Z</time></trkpt><trkpt lat="42.19381603956506" lon="13.764402278858553"><ele>909.0000000000001</ele><time>2026-04-27T08:59:48.999Z</time></trkpt><trkpt lat="42.193913041623496" lon="13.764330779504435"><ele>909.0</ele><time>2026-04-27T08:59:49.999Z</time></trkpt><trkpt lat="42.1939997807075" lon="13.764240911543835"><ele>909.0</ele><time>2026-04-27T08:59:50.999Z</time></trkpt><trkpt lat="42.19406765318773" lon="13.764122067729737"><ele>909.8000000000001</ele><time>2026-04-27T08:59:51.999Z</time></trkpt><trkpt lat="42.19411028121331" lon="13.763991025829817"><ele>910.6000000000001</ele><time>2026-04-27T08:59:52.999Z</time></trkpt><trkpt lat="42.19414294298494" lon="13.763873104080579"><ele>911.4</ele><time>2026-04-27T08:59:54Z</time></trkpt><trkpt lat="42.19420648381232" lon="13.763754712707978"><ele>912.2</ele><time>2026-04-27T08:59:55Z</time></trkpt><trkpt lat="42.194261754127126" lon="13.763620064754512"><ele>913.0</ele><time>2026-04-27T08:59:56Z</time></trkpt><trkpt lat="42.194315051881304" lon="13.763484028045145"><ele>916.0</ele><time>2026-04-27T08:59:57Z</time></trkpt><trkpt lat="42.19439871378511" lon="13.763365284453219"><ele>919.0</ele><time>2026-04-27T08:59:58Z</time></trkpt><trkpt lat="42.19448704788147" lon="13.763242831600062"><ele>922.0</ele><time>2026-04-27T08:59:59Z</time></trkpt><trkpt lat="42.194567624297164" lon="13.763135602221462"><ele>925.0</ele><time>2026-04-27T09:00:00Z</time></trkpt><trkpt lat="42.194638585577884" lon="13.763029840209734"><ele>925.0</ele><time>2026-04-27T09:00:01Z</time></trkpt><trkpt lat="42.19470670317533" lon="13.762937300366868"><ele>925.0</ele><time>2026-04-27T09:00:02Z</time></trkpt><trkpt lat="42.19478937674886" lon="13.762873598885182"><ele>925.0</ele><time>2026-04-27T09:00:03Z</time></trkpt><trkpt lat="42.19485523734181" lon="13.762795226237715"><ele>925.0</ele><time>2026-04-27T09:00:04Z</time></trkpt><trkpt lat="42.19495189013368" lon="13.762746705033575"><ele>925.0</ele><time>2026-04-27T09:00:05Z</time></trkpt><trkpt lat="42.19505429363567" lon="13.762696655490995"><ele>924.4</ele><time>2026-04-27T09:00:06Z</time></trkpt><trkpt lat="42.19516455883008" lon="13.762651082178257"><ele>923.8</ele><time>2026-04-27T09:00:07Z</time></trkpt><trkpt lat="42.19526067261083" lon="13.762615647957894"><ele>923.2</ele><time>2026-04-27T09:00:08Z</time></trkpt><trkpt lat="42.195325138649984" lon="13.762590629766164"><ele>922.6</ele><time>2026-04-27T09:00:09Z</time></trkpt><trkpt lat="42.19540549713583" lon="13.762518752461455"><ele>922.0</ele><time>2026-04-27T09:07:15.999Z</time></trkpt><trkpt lat="42.195465420942064" lon="13.762448586423416"><ele>922.0</ele><time>2026-04-27T09:07:16.999Z</time></trkpt><trkpt lat="42.19552473807695" lon="13.762366409547475"><ele>922.0</ele><time>2026-04-27T09:07:17.999Z</time></trkpt><trkpt lat="42.19558324001986" lon="13.762267951036995"><ele>922.0</ele><time>2026-04-27T09:07:18.999Z</time></trkpt><trkpt lat="42.19564492889294" lon="13.76216564976328"><ele>922.0</ele><time>2026-04-27T09:07:19.999Z</time></trkpt><trkpt lat="42.19570415514566" lon="13.762057722691695"><ele>922.0</ele><time>2026-04-27T09:07:20.999Z</time></trkpt><trkpt lat="42.195742554085456" lon="13.761967601789374"><ele>922.0</ele><time>2026-04-27T09:07:21.999Z</time></trkpt><trkpt lat="42.195790363178" lon="13.761854586297314"><ele>922.0</ele><time>2026-04-27T09:07:23.999Z</time></trkpt><trkpt lat="42.195867318990906" lon="13.761695838510667"><ele>922.0</ele><time>2026-04-27T09:07:25.999Z</time></trkpt><trkpt lat="42.195914622502755" lon="13.761581001979163"><ele>922.0</ele><time>2026-04-27T09:07:26.999Z</time></trkpt><trkpt lat="42.19598217193484" lon="13.761481808325112"><ele>922.0</ele><time>2026-04-27T09:07:27.999Z</time></trkpt><trkpt lat="42.19602412953269" lon="13.761377328572973"><ele>921.9999999999999</ele><time>2026-04-27T09:07:29.999Z</time></trkpt><trkpt lat="42.196079127427225" lon="13.761331552188455"><ele>922.0</ele><time>2026-04-27T09:07:32.999Z</time></trkpt><trkpt lat="42.1961199838092" lon="13.761239446227425"><ele>922.0</ele><time>2026-04-27T09:07:35.999Z</time></trkpt><trkpt lat="42.19619721253016" lon="13.761123873997496"><ele>922.0</ele><time>2026-04-27T09:07:38.999Z</time></trkpt><trkpt lat="42.19625781156139" lon="13.76102878425706"><ele>921.9999999999999</ele><time>2026-04-27T09:07:39.999Z</time></trkpt><trkpt lat="42.19630745518389" lon="13.760946710725445"><ele>922.0</ele><time>2026-04-27T09:07:40.999Z</time></trkpt><trkpt lat="42.1963648661029" lon="13.760844395839905"><ele>922.0</ele><time>2026-04-27T09:07:41.999Z</time></trkpt><trkpt lat="42.19642720381403" lon="13.760728213518085"><ele>922.0</ele><time>2026-04-27T09:07:42.999Z</time></trkpt><trkpt lat="42.19648555740137" lon="13.760608257876756"><ele>922.0</ele><time>2026-04-27T09:07:43.999Z</time></trkpt><trkpt lat="42.196548892932825" lon="13.760485070995975"><ele>922.0</ele><time>2026-04-27T09:07:44.999Z</time></trkpt><trkpt lat="42.196618628393615" lon="13.760350681221444"><ele>922.0</ele><time>2026-04-27T09:07:45.999Z</time></trkpt><trkpt lat="42.19669096459867" lon="13.76020380964825"><ele>924.25</ele><time>2026-04-27T09:07:46.999Z</time></trkpt><trkpt lat="42.19675742907611" lon="13.760047750148177"><ele>926.5</ele><time>2026-04-27T09:07:47.999Z</time></trkpt><trkpt lat="42.196813778517814" lon="13.75990744437007"><ele>928.75</ele><time>2026-04-27T09:07:48.999Z</time></trkpt><trkpt lat="42.19687162595313" lon="13.759783770355025"><ele>931.0</ele><time>2026-04-27T09:07:49.999Z</time></trkpt><trkpt lat="42.19692363640262" lon="13.759671262673915"><ele>931.0</ele><time>2026-04-27T09:07:50.999Z</time></trkpt><trkpt lat="42.19695171316251" lon="13.759549229013695"><ele>931.0</ele><time>2026-04-27T09:07:51.999Z</time></trkpt><trkpt lat="42.19695390154145" lon="13.759396689535116"><ele>931.0</ele><time>2026-04-27T09:07:52.999Z</time></trkpt><trkpt lat="42.19694029239029" lon="13.759215156123446"><ele>931.0</ele><time>2026-04-27T09:07:53.999Z</time></trkpt><trkpt lat="42.19691045933156" lon="13.75903000181457"><ele>932.0</ele><time>2026-04-27T09:07:54.999Z</time></trkpt><trkpt lat="42.196886393285176" lon="13.758869179978047"><ele>932.9999999999999</ele><time>2026-04-27T09:07:55.999Z</time></trkpt><trkpt lat="42.19685605775181" lon="13.75871836386181"><ele>933.9999999999999</ele><time>2026-04-27T09:07:56.999Z</time></trkpt><trkpt lat="42.1968367652625" lon="13.758580019762155"><ele>935.0</ele><time>2026-04-27T09:07:57.999Z</time></trkpt><trkpt lat="42.196832766741174" lon="13.758465786044294"><ele>936.0</ele><time>2026-04-27T09:07:58.999Z</time></trkpt><trkpt lat="42.19685210750254" lon="13.75835440539096"><ele>936.4</ele><time>2026-04-27T09:07:59.999Z</time></trkpt><trkpt lat="42.196896187106624" lon="13.75822920070558"><ele>936.8</ele><time>2026-04-27T09:08:00.999Z</time></trkpt><trkpt lat="42.196948285136955" lon="13.758106607180991"><ele>937.1999999999999</ele><time>2026-04-27T09:08:01.999Z</time></trkpt><trkpt lat="42.19698608497039" lon="13.758000811020551"><ele>937.5999999999999</ele><time>2026-04-27T09:08:02.999Z</time></trkpt><trkpt lat="42.19701770004727" lon="13.757917924688455"><ele>938.0</ele><time>2026-04-27T09:08:03.999Z</time></trkpt><trkpt lat="42.19710829418313" lon="13.757765210955515"><ele>939.5999999999999</ele><time>2026-04-27T09:08:05.999Z</time></trkpt><trkpt lat="42.19717016931945" lon="13.757664792108898"><ele>941.1999999999999</ele><time>2026-04-27T09:08:06.999Z</time></trkpt><trkpt lat="42.19720447304761" lon="13.757539730122927"><ele>942.8</ele><time>2026-04-27T09:08:07.999Z</time></trkpt><trkpt lat="42.19723639405224" lon="13.757423489299997"><ele>944.4</ele><time>2026-04-27T09:08:08.999Z</time></trkpt><trkpt lat="42.19725402081111" lon="13.757308937988183"><ele>946.0</ele><time>2026-04-27T09:08:09.999Z</time></trkpt><trkpt lat="42.19726073264401" lon="13.757187371140802"><ele>946.0</ele><time>2026-04-27T09:08:10.998Z</time></trkpt><trkpt lat="42.19723140519601" lon="13.757066005597647"><ele>945.9999999999999</ele><time>2026-04-27T09:08:11.998Z</time></trkpt><trkpt lat="42.19719579796923" lon="13.756951618457798"><ele>945.9999999999999</ele><time>2026-04-27T09:08:12.998Z</time></trkpt><trkpt lat="42.19715216064201" lon="13.756841218097465"><ele>946.0</ele><time>2026-04-27T09:08:13.998Z</time></trkpt><trkpt lat="42.19713198919434" lon="13.756723841512233"><ele>946.0</ele><time>2026-04-27T09:08:14.998Z</time></trkpt><trkpt lat="42.19713286436899" lon="13.756610696066463"><ele>947.1999999999999</ele><time>2026-04-27T09:08:15.998Z</time></trkpt><trkpt lat="42.19713620478637" lon="13.756493572230736"><ele>948.3999999999999</ele><time>2026-04-27T09:08:16.998Z</time></trkpt><trkpt lat="42.19714657079375" lon="13.756381776822753"><ele>949.6</ele><time>2026-04-27T09:08:18Z</time></trkpt><trkpt lat="42.197153264719134" lon="13.75628135429053"><ele>950.8</ele><time>2026-04-27T09:08:19Z</time></trkpt><trkpt lat="42.19714973046132" lon="13.756137264162534"><ele>952.0</ele><time>2026-04-27T09:08:21Z</time></trkpt><trkpt lat="42.19714771544465" lon="13.755989612511225"><ele>954.25</ele><time>2026-04-27T09:08:23Z</time></trkpt><trkpt lat="42.19715169613201" lon="13.755852701437682"><ele>956.5</ele><time>2026-04-27T09:08:25Z</time></trkpt><trkpt lat="42.197141093205474" lon="13.755708398342788"><ele>958.75</ele><time>2026-04-27T09:08:28Z</time></trkpt><trkpt lat="42.19710712437836" lon="13.75555051434245"><ele>961.0</ele><time>2026-04-27T09:08:30Z</time></trkpt><trkpt lat="42.19708826282744" lon="13.755361627584675"><ele>960.9999999999999</ele><time>2026-04-27T09:08:32Z</time></trkpt><trkpt lat="42.19706674266664" lon="13.75526306713435"><ele>961.0</ele><time>2026-04-27T09:08:33Z</time></trkpt><trkpt lat="42.19704556445055" lon="13.75517043325332"><ele>961.0</ele><time>2026-04-27T09:08:34Z</time></trkpt><trkpt lat="42.1970247543253" lon="13.755080183294703"><ele>961.0</ele><time>2026-04-27T09:08:35Z</time></trkpt><trkpt lat="42.19700205826053" lon="13.754997346658365"><ele>960.9999999999999</ele><time>2026-04-27T09:08:36Z</time></trkpt><trkpt lat="42.196978557722154" lon="13.754864501180988"><ele>961.0</ele><time>2026-04-27T09:08:38Z</time></trkpt><trkpt lat="42.19695353417892" lon="13.754707241520546"><ele>963.0</ele><time>2026-04-27T09:08:40Z</time></trkpt><trkpt lat="42.19692638471917" lon="13.754548104653358"><ele>964.9999999999999</ele><time>2026-04-27T09:08:42Z</time></trkpt><trkpt lat="42.19689639364669" lon="13.754464621436583"><ele>966.9999999999999</ele><time>2026-04-27T09:08:43Z</time></trkpt><trkpt lat="42.19688281872502" lon="13.754312194102843"><ele>969.0</ele><time>2026-04-27T09:08:45Z</time></trkpt><trkpt lat="42.1968520067693" lon="13.754195732099324"><ele>971.0</ele><time>2026-04-27T09:08:47Z</time></trkpt><trkpt lat="42.196793620436566" lon="13.754042908148644"><ele>972.8333333333334</ele><time>2026-04-27T09:08:49Z</time></trkpt><trkpt lat="42.196751174561186" lon="13.753971971976563"><ele>974.6666666666667</ele><time>2026-04-27T09:08:50Z</time></trkpt><trkpt lat="42.196702104593065" lon="13.753898115710724"><ele>976.5</ele><time>2026-04-27T09:08:51Z</time></trkpt><trkpt lat="42.196628853491106" lon="13.753826858445278"><ele>978.3333333333333</ele><time>2026-04-27T09:08:53Z</time></trkpt><trkpt lat="42.196558822872646" lon="13.75374429619411"><ele>980.1666666666666</ele><time>2026-04-27T09:08:55Z</time></trkpt><trkpt lat="42.19652546192027" lon="13.753637338279326"><ele>982.0</ele><time>2026-04-27T09:08:57Z</time></trkpt><trkpt lat="42.19653268980147" lon="13.753494548343777"><ele>983.8333333333333</ele><time>2026-04-27T09:08:59Z</time></trkpt><trkpt lat="42.19655910059318" lon="13.753408635596973"><ele>985.6666666666666</ele><time>2026-04-27T09:09:00Z</time></trkpt><trkpt lat="42.196587880000656" lon="13.753314482321857"><ele>987.5</ele><time>2026-04-27T09:09:01Z</time></trkpt><trkpt lat="42.196618607789" lon="13.753208394523707"><ele>989.3333333333333</ele><time>2026-04-27T09:09:02Z</time></trkpt><trkpt lat="42.19667063124595" lon="13.753113763563993"><ele>991.1666666666666</ele><time>2026-04-27T09:09:03Z</time></trkpt><trkpt lat="42.19675842309058" lon="13.753081237591077"><ele>993.0</ele><time>2026-04-27T09:09:04Z</time></trkpt><trkpt lat="42.196835927760226" lon="13.753031461251735"><ele>993.0</ele><time>2026-04-27T09:09:05Z</time></trkpt><trkpt lat="42.19691711590158" lon="13.753001510638809"><ele>993.0</ele><time>2026-04-27T09:09:06Z</time></trkpt><trkpt lat="42.196993948008576" lon="13.752949746848818"><ele>993.0</ele><time>2026-04-27T09:09:07Z</time></trkpt><trkpt lat="42.19706952267343" lon="13.752901720164678"><ele>993.0</ele><time>2026-04-27T09:09:08Z</time></trkpt><trkpt lat="42.19714391241956" lon="13.752807793771188"><ele>993.0</ele><time>2026-04-27T09:09:08.999Z</time></trkpt><trkpt lat="42.19721255354859" lon="13.752695676172031"><ele>994.2</ele><time>2026-04-27T09:09:09.999Z</time></trkpt><trkpt lat="42.19727194480715" lon="13.752588666190611"><ele>995.4</ele><time>2026-04-27T09:09:10.999Z</time></trkpt><trkpt lat="42.19731862144582" lon="13.752465214237713"><ele>996.6000000000001</ele><time>2026-04-27T09:09:11.999Z</time></trkpt><trkpt lat="42.197358494290114" lon="13.752323235349147"><ele>997.8000000000001</ele><time>2026-04-27T09:09:12.999Z</time></trkpt><trkpt lat="42.197411189875375" lon="13.75219061770558"><ele>999.0</ele><time>2026-04-27T09:09:13.999Z</time></trkpt><trkpt lat="42.197458332053024" lon="13.7520596089366"><ele>999.0</ele><time>2026-04-27T09:09:14.999Z</time></trkpt><trkpt lat="42.19750909413775" lon="13.751942825424239"><ele>999.0000000000001</ele><time>2026-04-27T09:09:15.999Z</time></trkpt><trkpt lat="42.197566606467845" lon="13.75183158121964"><ele>999.0000000000001</ele><time>2026-04-27T09:09:16.999Z</time></trkpt><trkpt lat="42.19763643189439" lon="13.751750173334909"><ele>999.0</ele><time>2026-04-27T09:09:17.999Z</time></trkpt><trkpt lat="42.197704141461756" lon="13.75165122421951"><ele>999.0</ele><time>2026-04-27T09:09:18.999Z</time></trkpt><trkpt lat="42.19778116598277" lon="13.751574773657335"><ele>1001.4000000000001</ele><time>2026-04-27T09:09:19.999Z</time></trkpt><trkpt lat="42.19785914892601" lon="13.751481670545994"><ele>1003.8000000000001</ele><time>2026-04-27T09:09:20.999Z</time></trkpt><trkpt lat="42.197936451956465" lon="13.751387189895206"><ele>1006.1999999999999</ele><time>2026-04-27T09:09:21.999Z</time></trkpt><trkpt lat="42.19800161740319" lon="13.751275300162645"><ele>1008.5999999999999</ele><time>2026-04-27T09:09:22.999Z</time></trkpt><trkpt lat="42.19808356180115" lon="13.751179520906488"><ele>1011.0</ele><time>2026-04-27T09:09:23.999Z</time></trkpt><trkpt lat="42.19815946681992" lon="13.751068605958748"><ele>1013.0</ele><time>2026-04-27T09:09:24.999Z</time></trkpt><trkpt lat="42.19824121678586" lon="13.750948948551219"><ele>1014.9999999999999</ele><time>2026-04-27T09:09:25.999Z</time></trkpt><trkpt lat="42.19831451935945" lon="13.750840411605372"><ele>1016.9999999999999</ele><time>2026-04-27T09:09:26.999Z</time></trkpt><trkpt lat="42.19838642529366" lon="13.750733821043022"><ele>1019.0</ele><time>2026-04-27T09:09:27.999Z</time></trkpt><trkpt lat="42.19846924308821" lon="13.750650454643061"><ele>1021.0</ele><time>2026-04-27T09:09:28.999Z</time></trkpt><trkpt lat="42.19854268372626" lon="13.750548116230384"><ele>1021.0</ele><time>2026-04-27T09:09:29.999Z</time></trkpt><trkpt lat="42.19861142340976" lon="13.750448713722843"><ele>1020.9999999999999</ele><time>2026-04-27T09:09:30.999Z</time></trkpt><trkpt lat="42.1986557857468" lon="13.750351157041104"><ele>1020.9999999999999</ele><time>2026-04-27T09:09:31.999Z</time></trkpt><trkpt lat="42.19870655511683" lon="13.750266494501997"><ele>1021.0</ele><time>2026-04-27T09:09:32.999Z</time></trkpt><trkpt lat="42.19874562887142" lon="13.75018613569419"><ele>1021.0</ele><time>2026-04-27T09:09:33.999Z</time></trkpt><trkpt lat="42.19877083058651" lon="13.750015693531035"><ele>1022.5714285714286</ele><time>2026-04-27T09:09:35.999Z</time></trkpt><trkpt lat="42.19876352933233" lon="13.749906946916747"><ele>1024.142857142857</ele><time>2026-04-27T09:09:36.999Z</time></trkpt><trkpt lat="42.19876800168268" lon="13.749797804212537"><ele>1025.7142857142858</ele><time>2026-04-27T09:09:37.999Z</time></trkpt><trkpt lat="42.19877846888255" lon="13.749704993770091"><ele>1027.2857142857142</ele><time>2026-04-27T09:09:38.999Z</time></trkpt><trkpt lat="42.19877238155448" lon="13.749613589256507"><ele>1028.857142857143</ele><time>2026-04-27T09:09:39.999Z</time></trkpt><trkpt lat="42.198764157472205" lon="13.749527370059916"><ele>1030.4285714285713</ele><time>2026-04-27T09:09:40.999Z</time></trkpt><trkpt lat="42.19878277077744" lon="13.749446085827648"><ele>1032.0</ele><time>2026-04-27T09:09:41.999Z</time></trkpt><trkpt lat="42.19879874975032" lon="13.749243164490434"><ele>1033.0</ele><time>2026-04-27T09:09:43.999Z</time></trkpt><trkpt lat="42.1987156942538" lon="13.749110013225769"><ele>1034.0</ele><time>2026-04-27T09:09:44.999Z</time></trkpt><trkpt lat="42.198709969091375" lon="13.748975026834591"><ele>1035.0</ele><time>2026-04-27T09:09:45.999Z</time></trkpt><trkpt lat="42.198684802313636" lon="13.74884320433434"><ele>1036.0</ele><time>2026-04-27T09:09:46.999Z</time></trkpt><trkpt lat="42.198652829701885" lon="13.748715705477927"><ele>1037.0</ele><time>2026-04-27T09:09:47.999Z</time></trkpt><trkpt lat="42.19863214513316" lon="13.74859845792365"><ele>1037.4</ele><time>2026-04-27T09:09:48.999Z</time></trkpt><trkpt lat="42.19863636164104" lon="13.748477664857077"><ele>1037.8000000000002</ele><time>2026-04-27T09:09:49.999Z</time></trkpt><trkpt lat="42.19865556057026" lon="13.748356042939587"><ele>1038.2</ele><time>2026-04-27T09:09:50.999Z</time></trkpt><trkpt lat="42.198662230036675" lon="13.748229973172224"><ele>1038.6000000000001</ele><time>2026-04-27T09:09:51.999Z</time></trkpt><trkpt lat="42.19866781393272" lon="13.748094459939082"><ele>1039.0</ele><time>2026-04-27T09:09:52.999Z</time></trkpt><trkpt lat="42.19866962410773" lon="13.747953725547971"><ele>1039.0</ele><time>2026-04-27T09:09:53.999Z</time></trkpt><trkpt lat="42.19867133246654" lon="13.747809579024313"><ele>1039.0</ele><time>2026-04-27T09:09:54.999Z</time></trkpt><trkpt lat="42.19867054041218" lon="13.747662989271074"><ele>1039.0</ele><time>2026-04-27T09:09:55.999Z</time></trkpt><trkpt lat="42.19867192477861" lon="13.747519134585444"><ele>1039.0</ele><time>2026-04-27T09:09:56.999Z</time></trkpt><trkpt lat="42.19867606351148" lon="13.747371196074075"><ele>1039.0</ele><time>2026-04-27T09:09:57.999Z</time></trkpt><trkpt lat="42.198689993130536" lon="13.74722524073449"><ele>1040.4</ele><time>2026-04-27T09:09:58.999Z</time></trkpt><trkpt lat="42.19871266632079" lon="13.74708782942779"><ele>1041.8000000000002</ele><time>2026-04-27T09:09:59.999Z</time></trkpt><trkpt lat="42.198750965429035" lon="13.746967149931766"><ele>1043.1999999999998</ele><time>2026-04-27T09:10:00.999Z</time></trkpt><trkpt lat="42.19879350222187" lon="13.746853490166814"><ele>1044.6</ele><time>2026-04-27T09:10:01.999Z</time></trkpt><trkpt lat="42.198830844186396" lon="13.74674125325664"><ele>1046.0</ele><time>2026-04-27T09:10:02.999Z</time></trkpt><trkpt lat="42.19882868575322" lon="13.746601523602441"><ele>1047.3999999999999</ele><time>2026-04-27T09:10:03.999Z</time></trkpt><trkpt lat="42.19882487875041" lon="13.7464646725292"><ele>1048.8</ele><time>2026-04-27T09:10:04.999Z</time></trkpt><trkpt lat="42.19882150981928" lon="13.746320716082677"><ele>1050.1999999999998</ele><time>2026-04-27T09:10:05.999Z</time></trkpt><trkpt lat="42.198828658106635" lon="13.746174470994672"><ele>1051.6</ele><time>2026-04-27T09:10:06.999Z</time></trkpt><trkpt lat="42.198852814449126" lon="13.746030706412187"><ele>1053.0</ele><time>2026-04-27T09:10:07.999Z</time></trkpt><trkpt lat="42.198894856864136" lon="13.745890478711237"><ele>1053.8</ele><time>2026-04-27T09:10:08.999Z</time></trkpt><trkpt lat="42.19893925691754" lon="13.74575410070407"><ele>1054.6</ele><time>2026-04-27T09:10:09.999Z</time></trkpt><trkpt lat="42.19897332019124" lon="13.745617074951992"><ele>1055.4</ele><time>2026-04-27T09:10:10.998Z</time></trkpt><trkpt lat="42.19900791784582" lon="13.745473071027932"><ele>1056.2</ele><time>2026-04-27T09:10:11.998Z</time></trkpt><trkpt lat="42.199054776555265" lon="13.745335989388987"><ele>1057.0</ele><time>2026-04-27T09:10:12.998Z</time></trkpt><trkpt lat="42.199123869659886" lon="13.745227012033485"><ele>1057.5</ele><time>2026-04-27T09:10:13.998Z</time></trkpt><trkpt lat="42.19920809563764" lon="13.745135414094705"><ele>1058.0</ele><time>2026-04-27T09:10:14.998Z</time></trkpt><trkpt lat="42.199283649176415" lon="13.745024230398371"><ele>1058.5</ele><time>2026-04-27T09:10:15.998Z</time></trkpt><trkpt lat="42.19933897609413" lon="13.744880818561912"><ele>1059.0</ele><time>2026-04-27T09:10:16.998Z</time></trkpt><trkpt lat="42.199384484286604" lon="13.744739720275685"><ele>1059.0</ele><time>2026-04-27T09:10:17.998Z</time></trkpt><trkpt lat="42.199420503170025" lon="13.744613974314849"><ele>1059.0</ele><time>2026-04-27T09:10:18.998Z</time></trkpt><trkpt lat="42.199457216002784" lon="13.74450158627704"><ele>1059.0</ele><time>2026-04-27T09:10:19.998Z</time></trkpt><trkpt lat="42.19951314920859" lon="13.744402853294105"><ele>1059.0</ele><time>2026-04-27T09:10:20.998Z</time></trkpt><trkpt lat="42.19957743627729" lon="13.744329371778079"><ele>1059.0</ele><time>2026-04-27T09:10:21.998Z</time></trkpt><trkpt lat="42.199649324947664" lon="13.744283291491756"><ele>1059.0</ele><time>2026-04-27T09:10:22.998Z</time></trkpt><trkpt lat="42.19971733340142" lon="13.744263053960214"><ele>1059.6666666666667</ele><time>2026-04-27T09:10:24Z</time></trkpt><trkpt lat="42.19978738512376" lon="13.744236805584736"><ele>1060.3333333333333</ele><time>2026-04-27T09:10:25Z</time></trkpt><trkpt lat="42.199861121113635" lon="13.744210492032634"><ele>1061.0</ele><time>2026-04-27T09:10:26Z</time></trkpt><trkpt lat="42.199947322825714" lon="13.744167725479674"><ele>1061.6666666666665</ele><time>2026-04-27T09:10:27Z</time></trkpt><trkpt lat="42.20003182248737" lon="13.744121078517722"><ele>1062.3333333333333</ele><time>2026-04-27T09:10:28Z</time></trkpt><trkpt lat="42.20010444059453" lon="13.744088709755077"><ele>1063.0</ele><time>2026-04-27T09:10:29Z</time></trkpt><trkpt lat="42.200204596251446" lon="13.744012949975382"><ele>1061.8333333333333</ele><time>2026-04-27T09:10:31Z</time></trkpt><trkpt lat="42.20029516951998" lon="13.743912954772764"><ele>1060.6666666666665</ele><time>2026-04-27T09:10:33Z</time></trkpt><trkpt lat="42.20036534267132" lon="13.743788893022883"><ele>1059.5</ele><time>2026-04-27T09:10:35Z</time></trkpt><trkpt lat="42.200403123548305" lon="13.743717063089825"><ele>1058.3333333333333</ele><time>2026-04-27T09:10:36Z</time></trkpt><trkpt lat="42.20043386882573" lon="13.743630533338507"><ele>1057.1666666666667</ele><time>2026-04-27T09:10:37Z</time></trkpt><trkpt lat="42.20047246080064" lon="13.74355396393266"><ele>1056.0</ele><time>2026-04-27T09:10:38Z</time></trkpt><trkpt lat="42.20051037160016" lon="13.743470510558572"><ele>1056.0</ele><time>2026-04-27T09:10:39Z</time></trkpt><trkpt lat="42.20055215637818" lon="13.743386503867612"><ele>1056.0</ele><time>2026-04-27T09:10:40Z</time></trkpt><trkpt lat="42.20058939786789" lon="13.743294666328435"><ele>1056.0</ele><time>2026-04-27T09:10:41Z</time></trkpt><trkpt lat="42.20062892335872" lon="13.743188319964897"><ele>1056.0</ele><time>2026-04-27T09:10:42Z</time></trkpt><trkpt lat="42.200663168131555" lon="13.743073559164724"><ele>1056.0</ele><time>2026-04-27T09:10:43Z</time></trkpt><trkpt lat="42.20070791522668" lon="13.742951977216523"><ele>1056.0</ele><time>2026-04-27T09:10:44Z</time></trkpt><trkpt lat="42.20076163602062" lon="13.742832587982043"><ele>1052.3999999999999</ele><time>2026-04-27T09:10:45Z</time></trkpt><trkpt lat="42.20082863630748" lon="13.742731269775344"><ele>1048.8</ele><time>2026-04-27T09:10:46Z</time></trkpt><trkpt lat="42.20089497507552" lon="13.742633778937353"><ele>1045.1999999999998</ele><time>2026-04-27T09:10:47Z</time></trkpt><trkpt lat="42.20094680414243" lon="13.74254622148501"><ele>1041.6</ele><time>2026-04-27T09:10:48Z</time></trkpt><trkpt lat="42.20099893900084" lon="13.742451784899755"><ele>1038.0</ele><time>2026-04-27T09:10:49Z</time></trkpt><trkpt lat="42.20104807499208" lon="13.742362472437858"><ele>1038.0</ele><time>2026-04-27T09:10:50Z</time></trkpt><trkpt lat="42.201135774614755" lon="13.742277970183649"><ele>1038.0</ele><time>2026-04-27T09:10:51Z</time></trkpt><trkpt lat="42.201210583121195" lon="13.742182908129234"><ele>1038.0</ele><time>2026-04-27T09:10:52Z</time></trkpt><trkpt lat="42.20129252927323" lon="13.74209227798117"><ele>1038.0</ele><time>2026-04-27T09:10:53Z</time></trkpt><trkpt lat="42.201364619540044" lon="13.74200644610199"><ele>1038.0</ele><time>2026-04-27T09:10:54Z</time></trkpt><trkpt lat="42.20141952359149" lon="13.741923430543945"><ele>1040.0</ele><time>2026-04-27T09:10:55Z</time></trkpt><trkpt lat="42.20147486573769" lon="13.74183249292949"><ele>1042.0</ele><time>2026-04-27T09:10:56Z</time></trkpt><trkpt lat="42.201514690611866" lon="13.74175297907282"><ele>1044.0</ele><time>2026-04-27T09:10:57Z</time></trkpt><trkpt lat="42.20156278052908" lon="13.741661896138515"><ele>1046.0</ele><time>2026-04-27T09:10:58Z</time></trkpt><trkpt lat="42.20164021572908" lon="13.741573020007927"><ele>1048.0</ele><time>2026-04-27T09:10:59Z</time></trkpt><trkpt lat="42.20172011734011" lon="13.741482431139929"><ele>1050.0</ele><time>2026-04-27T09:11:00Z</time></trkpt><trkpt lat="42.20180757523663" lon="13.741398268669327"><ele>1044.8</ele><time>2026-04-27T09:11:01Z</time></trkpt><trkpt lat="42.20191455283169" lon="13.741330908862011"><ele>1039.6</ele><time>2026-04-27T09:11:02Z</time></trkpt><trkpt lat="42.20200457112371" lon="13.74128974165917"><ele>1034.4</ele><time>2026-04-27T09:11:03Z</time></trkpt><trkpt lat="42.202101324701474" lon="13.741287307950044"><ele>1029.2</ele><time>2026-04-27T09:11:04Z</time></trkpt><trkpt lat="42.2022139688021" lon="13.741282402960596"><ele>1024.0</ele><time>2026-04-27T09:11:05Z</time></trkpt><trkpt lat="42.20232216730708" lon="13.741268001460902"><ele>1017.75</ele><time>2026-04-27T09:11:06Z</time></trkpt><trkpt lat="42.202438502908464" lon="13.741243898430254"><ele>1011.5</ele><time>2026-04-27T09:11:07Z</time></trkpt><trkpt lat="42.20254510669044" lon="13.74121666188688"><ele>1005.25</ele><time>2026-04-27T09:11:08Z</time></trkpt><trkpt lat="42.20265605761084" lon="13.741181349466213"><ele>999.0</ele><time>2026-04-27T09:11:09Z</time></trkpt><trkpt lat="42.20276600114861" lon="13.74114838241971"><ele>999.0</ele><time>2026-04-27T09:11:10Z</time></trkpt><trkpt lat="42.20287198098938" lon="13.741105656595614"><ele>999.0000000000001</ele><time>2026-04-27T09:11:11Z</time></trkpt><trkpt lat="42.20297133387499" lon="13.741061092830297"><ele>999.0000000000001</ele><time>2026-04-27T09:11:11.999Z</time></trkpt><trkpt lat="42.203074746875195" lon="13.741018313151745"><ele>999.0</ele><time>2026-04-27T09:11:12.999Z</time></trkpt><trkpt lat="42.20317931799658" lon="13.741000689346889"><ele>999.0</ele><time>2026-04-27T09:11:13.999Z</time></trkpt><trkpt lat="42.20328543644626" lon="13.740966616851216"><ele>1000.1666666666666</ele><time>2026-04-27T09:11:14.999Z</time></trkpt><trkpt lat="42.203364609846375" lon="13.740919658651729"><ele>1001.3333333333333</ele><time>2026-04-27T09:11:15.999Z</time></trkpt><trkpt lat="42.203450282903255" lon="13.740875558157933"><ele>1002.5</ele><time>2026-04-27T09:11:16.999Z</time></trkpt><trkpt lat="42.203526598660766" lon="13.740835286085389"><ele>1003.6666666666666</ele><time>2026-04-27T09:11:17.999Z</time></trkpt><trkpt lat="42.20359168691707" lon="13.740792799939374"><ele>1004.8333333333333</ele><time>2026-04-27T09:11:18.999Z</time></trkpt><trkpt lat="42.20363636576086" lon="13.740728504377618"><ele>1006.0</ele><time>2026-04-27T09:11:19.999Z</time></trkpt><trkpt lat="42.203686422874576" lon="13.740650532156076"><ele>1005.9999999999999</ele><time>2026-04-27T09:11:20.999Z</time></trkpt><trkpt lat="42.20372700353063" lon="13.740547721215648"><ele>1006.0</ele><time>2026-04-27T09:11:21.999Z</time></trkpt><trkpt lat="42.203782395238235" lon="13.74045677881799"><ele>1006.0</ele><time>2026-04-27T09:11:22.999Z</time></trkpt><trkpt lat="42.203839534727244" lon="13.740371037243552"><ele>1006.0</ele><time>2026-04-27T09:11:23.999Z</time></trkpt><trkpt lat="42.20388772159101" lon="13.740269088432834"><ele>1005.9999999999999</ele><time>2026-04-27T09:11:24.999Z</time></trkpt><trkpt lat="42.20393283639154" lon="13.74016376403026"><ele>1006.0</ele><time>2026-04-27T09:11:25.999Z</time></trkpt><trkpt lat="42.20400221783081" lon="13.740055810869036"><ele>1004.8</ele><time>2026-04-27T09:11:26.999Z</time></trkpt><trkpt lat="42.204090378355936" lon="13.739994705209673"><ele>1003.5999999999999</ele><time>2026-04-27T09:11:27.999Z</time></trkpt><trkpt lat="42.204175512499866" lon="13.739931066035703"><ele>1002.4</ele><time>2026-04-27T09:11:28.999Z</time></trkpt><trkpt lat="42.20426896525702" lon="13.739852817298477"><ele>1001.2</ele><time>2026-04-27T09:11:29.999Z</time></trkpt><trkpt lat="42.20434733175087" lon="13.73977703379581"><ele>1000.0</ele><time>2026-04-27T09:11:30.999Z</time></trkpt><trkpt lat="42.204422198093596" lon="13.739703154909815"><ele>1000.0</ele><time>2026-04-27T09:11:31.999Z</time></trkpt><trkpt lat="42.204499889814336" lon="13.739643823006963"><ele>1000.0</ele><time>2026-04-27T09:11:32.999Z</time></trkpt><trkpt lat="42.204586334730365" lon="13.739613116052796"><ele>1000.0</ele><time>2026-04-27T09:11:33.999Z</time></trkpt><trkpt lat="42.204686116438" lon="13.739573160135734"><ele>1000.0</ele><time>2026-04-27T09:11:34.999Z</time></trkpt><trkpt lat="42.204787484877016" lon="13.739545220508091"><ele>1000.0</ele><time>2026-04-27T09:11:35.999Z</time></trkpt><trkpt lat="42.20488698910194" lon="13.739515864804229"><ele>998.1666666666666</ele><time>2026-04-27T09:11:36.999Z</time></trkpt><trkpt lat="42.20497398433383" lon="13.739466053907027"><ele>996.3333333333333</ele><time>2026-04-27T09:11:37.999Z</time></trkpt><trkpt lat="42.20505297964121" lon="13.73939092112803"><ele>994.5</ele><time>2026-04-27T09:11:38.999Z</time></trkpt><trkpt lat="42.20511313843914" lon="13.739294173997083"><ele>992.6666666666667</ele><time>2026-04-27T09:11:39.999Z</time></trkpt><trkpt lat="42.20513441370405" lon="13.73920243878125"><ele>990.8333333333334</ele><time>2026-04-27T09:11:40.999Z</time></trkpt><trkpt lat="42.205164869866145" lon="13.739113819560622"><ele>989.0</ele><time>2026-04-27T09:11:41.999Z</time></trkpt><trkpt lat="42.2052742785285" lon="13.739010575473621"><ele>989.0</ele><time>2026-04-27T09:11:43.999Z</time></trkpt><trkpt lat="42.20536372425006" lon="13.73898877793375"><ele>989.0000000000001</ele><time>2026-04-27T09:11:44.999Z</time></trkpt><trkpt lat="42.20544368931619" lon="13.738963402631297"><ele>989.0000000000001</ele><time>2026-04-27T09:11:45.999Z</time></trkpt><trkpt lat="42.205530088531326" lon="13.738946689561477"><ele>989.0</ele><time>2026-04-27T09:11:46.999Z</time></trkpt><trkpt lat="42.20563716732315" lon="13.738922014776229"><ele>989.0</ele><time>2026-04-27T09:11:47.999Z</time></trkpt><trkpt lat="42.20575179365485" lon="13.738916840465135"><ele>987.6</ele><time>2026-04-27T09:11:48.999Z</time></trkpt><trkpt lat="42.20584679206225" lon="13.738873515593768"><ele>986.2</ele><time>2026-04-27T09:11:49.999Z</time></trkpt><trkpt lat="42.2059378465504" lon="13.738824815201253"><ele>984.8000000000001</ele><time>2026-04-27T09:11:50.999Z</time></trkpt><trkpt lat="42.20602175232556" lon="13.73876976657486"><ele>983.4000000000001</ele><time>2026-04-27T09:11:51.999Z</time></trkpt><trkpt lat="42.206121322369015" lon="13.738709356976935"><ele>982.0</ele><time>2026-04-27T09:11:52.999Z</time></trkpt><trkpt lat="42.20621933632409" lon="13.738657819679242"><ele>982.0</ele><time>2026-04-27T09:11:53.999Z</time></trkpt><trkpt lat="42.20630304858962" lon="13.738674989556193"><ele>982.0</ele><time>2026-04-27T09:11:54.999Z</time></trkpt><trkpt lat="42.206393300259" lon="13.73872277814094"><ele>982.0</ele><time>2026-04-27T09:11:55.999Z</time></trkpt><trkpt lat="42.206483980701684" lon="13.738778082980206"><ele>982.0</ele><time>2026-04-27T09:11:56.999Z</time></trkpt><trkpt lat="42.20658540236981" lon="13.738812857675077"><ele>982.0</ele><time>2026-04-27T09:11:57.999Z</time></trkpt><trkpt lat="42.20669540107482" lon="13.738821669956762"><ele>982.0</ele><time>2026-04-27T09:11:58.999Z</time></trkpt><trkpt lat="42.20681130427372" lon="13.738814146280264"><ele>982.0</ele><time>2026-04-27T09:11:59.999Z</time></trkpt><trkpt lat="42.206929290440726" lon="13.738806952657429"><ele>982.0</ele><time>2026-04-27T09:12:00.999Z</time></trkpt><trkpt lat="42.207043792797016" lon="13.738811830596642"><ele>982.0</ele><time>2026-04-27T09:12:01.999Z</time></trkpt><trkpt lat="42.207141272472164" lon="13.7388145888268"><ele>982.0</ele><time>2026-04-27T09:12:02.999Z</time></trkpt><trkpt lat="42.207231531784004" lon="13.738771854085625"><ele>982.0</ele><time>2026-04-27T09:12:03.999Z</time></trkpt><trkpt lat="42.20730869008271" lon="13.738711642443219"><ele>982.0</ele><time>2026-04-27T09:12:04.999Z</time></trkpt><trkpt lat="42.207403369872644" lon="13.738634692341785"><ele>982.0</ele><time>2026-04-27T09:12:05.999Z</time></trkpt><trkpt lat="42.20749325224997" lon="13.738542345791938"><ele>982.0</ele><time>2026-04-27T09:12:06.999Z</time></trkpt><trkpt lat="42.207569609933415" lon="13.738433961855922"><ele>982.0</ele><time>2026-04-27T09:12:07.999Z</time></trkpt><trkpt lat="42.20764193971662" lon="13.73832077930285"><ele>984.75</ele><time>2026-04-27T09:12:08.999Z</time></trkpt><trkpt lat="42.207718090216694" lon="13.738200201739328"><ele>987.5</ele><time>2026-04-27T09:12:09.999Z</time></trkpt><trkpt lat="42.207794856991875" lon="13.738083502156655"><ele>990.25</ele><time>2026-04-27T09:12:10.999Z</time></trkpt><trkpt lat="42.20788914410965" lon="13.737981060086218"><ele>993.0</ele><time>2026-04-27T09:12:11.999Z</time></trkpt><trkpt lat="42.20799127369791" lon="13.737900105770343"><ele>993.0</ele><time>2026-04-27T09:12:12.999Z</time></trkpt><trkpt lat="42.2081087175305" lon="13.737814970425879"><ele>993.0</ele><time>2026-04-27T09:12:13.999Z</time></trkpt><trkpt lat="42.20821309532063" lon="13.737735792183189"><ele>993.0</ele><time>2026-04-27T09:12:14.998Z</time></trkpt><trkpt lat="42.208319207043616" lon="13.737667356410325"><ele>993.0</ele><time>2026-04-27T09:12:15.998Z</time></trkpt><trkpt lat="42.20843776768022" lon="13.737607420002401"><ele>994.0</ele><time>2026-04-27T09:12:16.998Z</time></trkpt><trkpt lat="42.20856236395933" lon="13.737548513250701"><ele>995.0</ele><time>2026-04-27T09:12:17.998Z</time></trkpt><trkpt lat="42.20868771257882" lon="13.737492267130392"><ele>996.0</ele><time>2026-04-27T09:12:18.998Z</time></trkpt><trkpt lat="42.20881773535465" lon="13.73742359363377"><ele>997.0</ele><time>2026-04-27T09:12:19.998Z</time></trkpt><trkpt lat="42.208943911499155" lon="13.737358467569237"><ele>993.5</ele><time>2026-04-27T09:12:20.998Z</time></trkpt><trkpt lat="42.20906101803242" lon="13.737299174671508"><ele>990.0</ele><time>2026-04-27T09:12:21.998Z</time></trkpt><trkpt lat="42.20917871739355" lon="13.737249060761457"><ele>986.5</ele><time>2026-04-27T09:12:22.998Z</time></trkpt><trkpt lat="42.20927612790619" lon="13.737202065935199"><ele>983.0</ele><time>2026-04-27T09:12:23.998Z</time></trkpt><trkpt lat="42.20937383327803" lon="13.737155886698662"><ele>983.0000000000001</ele><time>2026-04-27T09:12:24.998Z</time></trkpt><trkpt lat="42.20945709572203" lon="13.737108372884608"><ele>983.0</ele><time>2026-04-27T09:12:25.998Z</time></trkpt><trkpt lat="42.209531354706016" lon="13.737066676047773"><ele>983.0</ele><time>2026-04-27T09:12:26.998Z</time></trkpt><trkpt lat="42.2095945791012" lon="13.737038573618726"><ele>983.0</ele><time>2026-04-27T09:12:27.998Z</time></trkpt><trkpt lat="42.20964899039932" lon="13.736988447500616"><ele>983.0000000000001</ele><time>2026-04-27T09:12:28.998Z</time></trkpt><trkpt lat="42.20968077475487" lon="13.736905444067371"><ele>983.0</ele><time>2026-04-27T09:12:30Z</time></trkpt><trkpt lat="42.20972612027265" lon="13.736808066649568"><ele>983.2</ele><time>2026-04-27T09:12:31Z</time></trkpt><trkpt lat="42.2097960736035" lon="13.736724864648798"><ele>983.4</ele><time>2026-04-27T09:12:32Z</time></trkpt><trkpt lat="42.20988990097198" lon="13.736647137095936"><ele>983.6000000000001</ele><time>2026-04-27T09:12:33Z</time></trkpt><trkpt lat="42.209985293304584" lon="13.736568037943325"><ele>983.8000000000001</ele><time>2026-04-27T09:12:34Z</time></trkpt><trkpt lat="42.210039450525024" lon="13.736518927880299"><ele>984.0</ele><time>2026-04-27T09:12:35Z</time></trkpt><trkpt lat="42.210128043737136" lon="13.736436115080652"><ele>984.0</ele><time>2026-04-27T09:12:38Z</time></trkpt><trkpt lat="42.2102033203412" lon="13.736373672332133"><ele>984.0</ele><time>2026-04-27T09:12:39Z</time></trkpt><trkpt lat="42.210287542347395" lon="13.7362846272351"><ele>984.0</ele><time>2026-04-27T09:12:40Z</time></trkpt><trkpt lat="42.210357271383046" lon="13.73624119589848"><ele>984.0</ele><time>2026-04-27T09:12:41Z</time></trkpt><trkpt lat="42.210409386660984" lon="13.736167489170755"><ele>984.0</ele><time>2026-04-27T09:12:43Z</time></trkpt><trkpt lat="42.21034940476116" lon="13.736079578908523"><ele>984.0</ele><time>2026-04-27T09:12:46Z</time></trkpt><trkpt lat="42.21022855063253" lon="13.736053454136506"><ele>985.1666666666666</ele><time>2026-04-27T09:12:48Z</time></trkpt><trkpt lat="42.21016577630801" lon="13.736029283839423"><ele>986.3333333333333</ele><time>2026-04-27T09:12:49Z</time></trkpt><trkpt lat="42.21011649445828" lon="13.735941162879039"><ele>987.5</ele><time>2026-04-27T09:12:50Z</time></trkpt><trkpt lat="42.21005587717277" lon="13.735901304540045"><ele>988.6666666666666</ele><time>2026-04-27T09:12:51Z</time></trkpt><trkpt lat="42.209980103727126" lon="13.735844889841509"><ele>989.8333333333333</ele><time>2026-04-27T09:12:52Z</time></trkpt><trkpt lat="42.209900980667214" lon="13.735780015380241"><ele>991.0</ele><time>2026-04-27T09:12:53Z</time></trkpt><trkpt lat="42.20982689436495" lon="13.735712982668058"><ele>995.0</ele><time>2026-04-27T09:12:54Z</time></trkpt><trkpt lat="42.20975042882324" lon="13.735640123625732"><ele>998.9999999999999</ele><time>2026-04-27T09:12:55Z</time></trkpt><trkpt lat="42.20967315651619" lon="13.735557717725067"><ele>1002.9999999999999</ele><time>2026-04-27T09:12:56Z</time></trkpt><trkpt lat="42.20960155967136" lon="13.73545933753883"><ele>1007.0</ele><time>2026-04-27T09:12:57Z</time></trkpt><trkpt lat="42.20952958514769" lon="13.73535662294042"><ele>1011.0</ele><time>2026-04-27T09:12:58Z</time></trkpt><trkpt lat="42.2094551988964" lon="13.735264009276202"><ele>1010.1999999999999</ele><time>2026-04-27T09:12:59Z</time></trkpt><trkpt lat="42.2093886216432" lon="13.73518797011059"><ele>1009.3999999999999</ele><time>2026-04-27T09:13:00Z</time></trkpt><trkpt lat="42.2092988048051" lon="13.735107423575412"><ele>1008.6</ele><time>2026-04-27T09:13:01Z</time></trkpt><trkpt lat="42.209200892970394" lon="13.73506514305094"><ele>1007.8</ele><time>2026-04-27T09:13:02Z</time></trkpt><trkpt lat="42.20910478772011" lon="13.735040823655675"><ele>1007.0</ele><time>2026-04-27T09:13:03Z</time></trkpt><trkpt lat="42.209005112492314" lon="13.735030216401679"><ele>1011.4000000000001</ele><time>2026-04-27T09:13:04Z</time></trkpt><trkpt lat="42.20890294524842" lon="13.735027789825658"><ele>1015.8000000000001</ele><time>2026-04-27T09:13:05Z</time></trkpt><trkpt lat="42.20880485412547" lon="13.735032614820646"><ele>1020.2</ele><time>2026-04-27T09:13:06Z</time></trkpt><trkpt lat="42.20870330815056" lon="13.735044967427731"><ele>1024.6000000000001</ele><time>2026-04-27T09:13:07Z</time></trkpt><trkpt lat="42.20859481459142" lon="13.73506512696063"><ele>1029.0</ele><time>2026-04-27T09:13:08Z</time></trkpt><trkpt lat="42.208496056005266" lon="13.735113466561858"><ele>1029.0</ele><time>2026-04-27T09:13:09Z</time></trkpt><trkpt lat="42.20839109566138" lon="13.73514006376225"><ele>1029.0</ele><time>2026-04-27T09:13:10Z</time></trkpt><trkpt lat="42.208305334674804" lon="13.73523313997668"><ele>1029.0</ele><time>2026-04-27T09:13:11Z</time></trkpt><trkpt lat="42.20822643109687" lon="13.735331680450424"><ele>1029.0</ele><time>2026-04-27T09:13:12Z</time></trkpt><trkpt lat="42.20813955553852" lon="13.735454945725616"><ele>1031.75</ele><time>2026-04-27T09:13:13Z</time></trkpt><trkpt lat="42.20806930790543" lon="13.73561198648525"><ele>1034.5</ele><time>2026-04-27T09:13:14Z</time></trkpt><trkpt lat="42.20800895514581" lon="13.735781987118795"><ele>1037.25</ele><time>2026-04-27T09:13:15Z</time></trkpt><trkpt lat="42.20793612508951" lon="13.735947463077357"><ele>1040.0</ele><time>2026-04-27T09:13:15.999Z</time></trkpt><trkpt lat="42.20786115217179" lon="13.736112696567115"><ele>1040.0</ele><time>2026-04-27T09:13:16.999Z</time></trkpt><trkpt lat="42.20778512064632" lon="13.736279042909642"><ele>1040.0</ele><time>2026-04-27T09:13:17.999Z</time></trkpt><trkpt lat="42.20769728045123" lon="13.736426626142737"><ele>1040.0</ele><time>2026-04-27T09:13:18.999Z</time></trkpt><trkpt lat="42.20759868703503" lon="13.736559471925016"><ele>1040.0</ele><time>2026-04-27T09:13:19.999Z</time></trkpt><trkpt lat="42.20749993542891" lon="13.736684574482732"><ele>1040.0</ele><time>2026-04-27T09:13:20.999Z</time></trkpt><trkpt lat="42.20740224406986" lon="13.736788327736017"><ele>1040.0</ele><time>2026-04-27T09:13:21.999Z</time></trkpt><trkpt lat="42.207311234134785" lon="13.736860090433648"><ele>1040.0</ele><time>2026-04-27T09:13:22.999Z</time></trkpt><trkpt lat="42.20722754097752" lon="13.73691213468881"><ele>1040.0</ele><time>2026-04-27T09:13:23.999Z</time></trkpt><trkpt lat="42.20716383141492" lon="13.736945131735586"><ele>1040.0</ele><time>2026-04-27T09:13:24.999Z</time></trkpt><trkpt lat="42.2070971876442" lon="13.7369116586662"><ele>1040.2</ele><time>2026-04-27T09:13:26.999Z</time></trkpt><trkpt lat="42.2070237985404" lon="13.736799748940319"><ele>1040.4</ele><time>2026-04-27T09:13:28.999Z</time></trkpt><trkpt lat="42.20699368557897" lon="13.736694942858858"><ele>1040.6</ele><time>2026-04-27T09:13:29.999Z</time></trkpt><trkpt lat="42.20694740595428" lon="13.736588239747133"><ele>1040.8</ele><time>2026-04-27T09:13:30.999Z</time></trkpt><trkpt lat="42.20692172337427" lon="13.736468494371135"><ele>1041.0</ele><time>2026-04-27T09:13:31.999Z</time></trkpt><trkpt lat="42.206896540907636" lon="13.736340906767639"><ele>1041.0</ele><time>2026-04-27T09:13:32.999Z</time></trkpt><trkpt lat="42.206879460484096" lon="13.73620641760577"><ele>1041.0</ele><time>2026-04-27T09:13:33.999Z</time></trkpt><trkpt lat="42.206848967712126" lon="13.736069868202282"><ele>1041.0</ele><time>2026-04-27T09:13:34.999Z</time></trkpt><trkpt lat="42.20681614897053" lon="13.73593191080979"><ele>1041.0</ele><time>2026-04-27T09:13:35.999Z</time></trkpt><trkpt lat="42.206805547609385" lon="13.735794910415082"><ele>1041.0</ele><time>2026-04-27T09:13:36.999Z</time></trkpt><trkpt lat="42.206805419811396" lon="13.735649269021772"><ele>1043.3999999999999</ele><time>2026-04-27T09:13:37.999Z</time></trkpt><trkpt lat="42.20679058466099" lon="13.735518938432039"><ele>1045.8</ele><time>2026-04-27T09:13:38.999Z</time></trkpt><trkpt lat="42.206758489218835" lon="13.735385205921165"><ele>1048.1999999999998</ele><time>2026-04-27T09:13:39.999Z</time></trkpt><trkpt lat="42.206701302734494" lon="13.735274700023961"><ele>1050.6</ele><time>2026-04-27T09:13:40.999Z</time></trkpt><trkpt lat="42.20664324971492" lon="13.73517625390397"><ele>1053.0</ele><time>2026-04-27T09:13:41.999Z</time></trkpt><trkpt lat="42.20662186197715" lon="13.735061662183034"><ele>1055.4</ele><time>2026-04-27T09:13:42.999Z</time></trkpt><trkpt lat="42.20658026929527" lon="13.734948612616769"><ele>1057.8</ele><time>2026-04-27T09:13:43.999Z</time></trkpt><trkpt lat="42.20656281422372" lon="13.734810531062047"><ele>1060.2</ele><time>2026-04-27T09:13:44.999Z</time></trkpt><trkpt lat="42.20654707938086" lon="13.734674707559941"><ele>1062.6</ele><time>2026-04-27T09:13:45.999Z</time></trkpt><trkpt lat="42.20656656846087" lon="13.734545522731533"><ele>1065.0</ele><time>2026-04-27T09:13:46.999Z</time></trkpt><trkpt lat="42.20657623413486" lon="13.734411025479332"><ele>1066.75</ele><time>2026-04-27T09:13:47.999Z</time></trkpt><trkpt lat="42.206591518225814" lon="13.734266094328502"><ele>1068.5</ele><time>2026-04-27T09:13:48.999Z</time></trkpt><trkpt lat="42.20660484309469" lon="13.73411509872968"><ele>1070.25</ele><time>2026-04-27T09:13:49.999Z</time></trkpt><trkpt lat="42.20663075903657" lon="13.733966725859746"><ele>1072.0</ele><time>2026-04-27T09:13:50.999Z</time></trkpt><trkpt lat="42.206655425048424" lon="13.733806729435967"><ele>1072.0</ele><time>2026-04-27T09:13:51.999Z</time></trkpt><trkpt lat="42.2066595463888" lon="13.733636335913156"><ele>1072.0</ele><time>2026-04-27T09:13:52.999Z</time></trkpt><trkpt lat="42.206642913574775" lon="13.733467003234177"><ele>1072.0</ele><time>2026-04-27T09:13:53.999Z</time></trkpt><trkpt lat="42.2066075888071" lon="13.733302354241522"><ele>1072.0</ele><time>2026-04-27T09:13:54.999Z</time></trkpt><trkpt lat="42.20654897889504" lon="13.733145215852499"><ele>1075.2</ele><time>2026-04-27T09:13:55.999Z</time></trkpt><trkpt lat="42.2064864673743" lon="13.733007428563269"><ele>1078.4</ele><time>2026-04-27T09:13:56.999Z</time></trkpt><trkpt lat="42.20642221953081" lon="13.732869905095914"><ele>1081.6</ele><time>2026-04-27T09:13:57.999Z</time></trkpt><trkpt lat="42.20636210866135" lon="13.732738488585863"><ele>1084.8</ele><time>2026-04-27T09:13:58.999Z</time></trkpt><trkpt lat="42.2063098170227" lon="13.732635667824425"><ele>1088.0</ele><time>2026-04-27T09:13:59.999Z</time></trkpt><trkpt lat="42.20623900490955" lon="13.732570905363865"><ele>1089.4</ele><time>2026-04-27T09:14:00.999Z</time></trkpt><trkpt lat="42.20618681720928" lon="13.732509362337199"><ele>1090.8</ele><time>2026-04-27T09:14:01.999Z</time></trkpt><trkpt lat="42.20614752938153" lon="13.732354399090244"><ele>1092.2</ele><time>2026-04-27T09:14:03.999Z</time></trkpt><trkpt lat="42.20613610864992" lon="13.732245762002028"><ele>1093.6</ele><time>2026-04-27T09:14:04.999Z</time></trkpt><trkpt lat="42.206120701913115" lon="13.732121811324037"><ele>1095.0</ele><time>2026-04-27T09:14:05.999Z</time></trkpt><trkpt lat="42.20610836589768" lon="13.73198865698405"><ele>1097.6</ele><time>2026-04-27T09:14:06.999Z</time></trkpt><trkpt lat="42.20609622612903" lon="13.73184151741049"><ele>1100.2</ele><time>2026-04-27T09:14:07.999Z</time></trkpt><trkpt lat="42.20608450396106" lon="13.731688310442172"><ele>1102.8</ele><time>2026-04-27T09:14:08.999Z</time></trkpt><trkpt lat="42.206064421437965" lon="13.73153526559503"><ele>1105.4</ele><time>2026-04-27T09:14:09.999Z</time></trkpt><trkpt lat="42.20601627951354" lon="13.731402486014963"><ele>1108.0</ele><time>2026-04-27T09:14:10.999Z</time></trkpt><trkpt lat="42.20597478052924" lon="13.731268728953085"><ele>1108.0</ele><time>2026-04-27T09:14:11.999Z</time></trkpt><trkpt lat="42.20593945872856" lon="13.731124236298717"><ele>1108.0</ele><time>2026-04-27T09:14:12.999Z</time></trkpt><trkpt lat="42.20588884432465" lon="13.730988416185708"><ele>1108.0</ele><time>2026-04-27T09:14:13.999Z</time></trkpt><trkpt lat="42.205842182135925" lon="13.73085868238401"><ele>1108.0</ele><time>2026-04-27T09:14:14.999Z</time></trkpt><trkpt lat="42.20579763472162" lon="13.730728600537786"><ele>1108.0</ele><time>2026-04-27T09:14:15.999Z</time></trkpt><trkpt lat="42.205763291367305" lon="13.730603216057418"><ele>1110.2</ele><time>2026-04-27T09:14:16.999Z</time></trkpt><trkpt lat="42.20574166009181" lon="13.730493862556171"><ele>1112.4</ele><time>2026-04-27T09:14:17.999Z</time></trkpt><trkpt lat="42.2056926782889" lon="13.730409725320184"><ele>1114.6000000000001</ele><time>2026-04-27T09:14:18.999Z</time></trkpt><trkpt lat="42.20563616971722" lon="13.730320939008463"><ele>1116.8</ele><time>2026-04-27T09:14:19.998Z</time></trkpt><trkpt lat="42.20558385910606" lon="13.730197891380628"><ele>1119.0</ele><time>2026-04-27T09:14:20.998Z</time></trkpt><trkpt lat="42.20556095886029" lon="13.730061064276802"><ele>1121.6000000000001</ele><time>2026-04-27T09:14:21.998Z</time></trkpt><trkpt lat="42.20551356140004" lon="13.72997743730984"><ele>1124.2</ele><time>2026-04-27T09:14:22.998Z</time></trkpt><trkpt lat="42.2054671671912" lon="13.729870239193964"><ele>1126.8000000000002</ele><time>2026-04-27T09:14:23.998Z</time></trkpt><trkpt lat="42.205378769398635" lon="13.729755878427753"><ele>1129.4</ele><time>2026-04-27T09:14:24.998Z</time></trkpt><trkpt lat="42.20527316199626" lon="13.7296303534034"><ele>1132.0</ele><time>2026-04-27T09:14:25.998Z</time></trkpt><trkpt lat="42.20519378257728" lon="13.72945342333169"><ele>1131.25</ele><time>2026-04-27T09:14:26.998Z</time></trkpt><trkpt lat="42.20508915689298" lon="13.729292976384064"><ele>1130.5</ele><time>2026-04-27T09:14:27.998Z</time></trkpt><trkpt lat="42.20500181522391" lon="13.7291577483807"><ele>1129.75</ele><time>2026-04-27T09:14:28.998Z</time></trkpt><trkpt lat="42.204942994022076" lon="13.729057873898805"><ele>1129.0</ele><time>2026-04-27T09:14:29.998Z</time></trkpt><trkpt lat="42.204875919721005" lon="13.729007175136147"><ele>1130.2</ele><time>2026-04-27T09:14:30.998Z</time></trkpt><trkpt lat="42.20478258575401" lon="13.728925990496572"><ele>1131.4</ele><time>2026-04-27T09:14:32.998Z</time></trkpt><trkpt lat="42.204704495238445" lon="13.728929101876687"><ele>1132.6</ele><time>2026-04-27T09:14:33.998Z</time></trkpt><trkpt lat="42.20463402368732" lon="13.728880261930179"><ele>1133.8</ele><time>2026-04-27T09:14:34.998Z</time></trkpt><trkpt lat="42.20455264141611" lon="13.728845134910904"><ele>1135.0</ele><time>2026-04-27T09:14:36Z</time></trkpt><trkpt lat="42.204457762228095" lon="13.728804912985636"><ele>1135.0</ele><time>2026-04-27T09:14:37Z</time></trkpt><trkpt lat="42.20435799977571" lon="13.72875564750419"><ele>1135.0</ele><time>2026-04-27T09:14:38Z</time></trkpt><trkpt lat="42.20428159598942" lon="13.728701736026045"><ele>1135.0</ele><time>2026-04-27T09:14:39Z</time></trkpt><trkpt lat="42.20418150504769" lon="13.728620569727441"><ele>1135.0</ele><time>2026-04-27T09:14:41Z</time></trkpt><trkpt lat="42.20412456766261" lon="13.728568987092308"><ele>1135.0</ele><time>2026-04-27T09:14:42Z</time></trkpt><trkpt lat="42.204040730685975" lon="13.72848331507043"><ele>1134.2</ele><time>2026-04-27T09:14:43Z</time></trkpt><trkpt lat="42.20396050638828" lon="13.728416627875504"><ele>1133.4</ele><time>2026-04-27T09:14:44Z</time></trkpt><trkpt lat="42.20387774439231" lon="13.728383227103174"><ele>1132.6</ele><time>2026-04-27T09:14:45Z</time></trkpt><trkpt lat="42.203813326206586" lon="13.728335443072611"><ele>1131.8</ele><time>2026-04-27T09:14:46Z</time></trkpt><trkpt lat="42.20371709847526" lon="13.728372220818477"><ele>1131.0</ele><time>2026-04-27T09:14:47Z</time></trkpt><trkpt lat="42.20361250721784" lon="13.728408160329844"><ele>1131.0</ele><time>2026-04-27T09:14:48Z</time></trkpt><trkpt lat="42.20351605563394" lon="13.728446233389443"><ele>1131.0</ele><time>2026-04-27T09:14:49Z</time></trkpt><trkpt lat="42.20341588793275" lon="13.728473295993519"><ele>1131.0</ele><time>2026-04-27T09:14:50Z</time></trkpt><trkpt lat="42.203322675157416" lon="13.728498936501328"><ele>1131.0</ele><time>2026-04-27T09:14:51Z</time></trkpt><trkpt lat="42.203232264300745" lon="13.728525710226599"><ele>1131.0</ele><time>2026-04-27T09:14:52Z</time></trkpt><trkpt lat="42.20313221637874" lon="13.728530552813393"><ele>1132.25</ele><time>2026-04-27T09:14:53Z</time></trkpt><trkpt lat="42.203012802683084" lon="13.728528112838372"><ele>1133.5</ele><time>2026-04-27T09:14:54Z</time></trkpt><trkpt lat="42.20288793426724" lon="13.728533038004908"><ele>1134.75</ele><time>2026-04-27T09:14:55Z</time></trkpt><trkpt lat="42.20277199140185" lon="13.728545649139514"><ele>1136.0</ele><time>2026-04-27T09:14:56Z</time></trkpt><trkpt lat="42.202645603210335" lon="13.728568098951888"><ele>1136.25</ele><time>2026-04-27T09:14:57Z</time></trkpt><trkpt lat="42.20251832671713" lon="13.728591133867715"><ele>1136.5</ele><time>2026-04-27T09:14:58Z</time></trkpt><trkpt lat="42.20238666927446" lon="13.7285969655596"><ele>1136.75</ele><time>2026-04-27T09:14:59Z</time></trkpt><trkpt lat="42.20225685124737" lon="13.728573921562925"><ele>1137.0</ele><time>2026-04-27T09:15:00Z</time></trkpt><trkpt lat="42.20213004894865" lon="13.72852397157423"><ele>1137.0</ele><time>2026-04-27T09:15:01Z</time></trkpt><trkpt lat="42.202002573383254" lon="13.728471698325484"><ele>1137.0</ele><time>2026-04-27T09:15:02Z</time></trkpt><trkpt lat="42.20186922624348" lon="13.728449549099816"><ele>1137.0</ele><time>2026-04-27T09:15:03Z</time></trkpt><trkpt lat="42.201746478695384" lon="13.728484364303492"><ele>1137.0</ele><time>2026-04-27T09:15:04Z</time></trkpt><trkpt lat="42.20163979768217" lon="13.728480088855372"><ele>1137.0</ele><time>2026-04-27T09:15:05Z</time></trkpt><trkpt lat="42.201530943656145" lon="13.728499315972332"><ele>1137.0</ele><time>2026-04-27T09:15:06Z</time></trkpt><trkpt lat="42.20141992133266" lon="13.72851892599941"><ele>1137.0</ele><time>2026-04-27T09:15:07Z</time></trkpt><trkpt lat="42.20131839040895" lon="13.728537020482554"><ele>1137.0</ele><time>2026-04-27T09:15:08Z</time></trkpt><trkpt lat="42.201218782857616" lon="13.728554262776616"><ele>1137.0</ele><time>2026-04-27T09:15:09Z</time></trkpt><trkpt lat="42.201125290059636" lon="13.728567403332052"><ele>1137.8</ele><time>2026-04-27T09:15:10Z</time></trkpt><trkpt lat="42.20103027753656" lon="13.728567581390209"><ele>1138.6</ele><time>2026-04-27T09:15:11Z</time></trkpt><trkpt lat="42.20093189708783" lon="13.728556120565043"><ele>1139.3999999999999</ele><time>2026-04-27T09:15:12Z</time></trkpt><trkpt lat="42.200832128027066" lon="13.728545492654348"><ele>1140.2</ele><time>2026-04-27T09:15:13Z</time></trkpt><trkpt lat="42.200732936847494" lon="13.728541091271508"><ele>1141.0</ele><time>2026-04-27T09:15:14Z</time></trkpt><trkpt lat="42.20066642266529" lon="13.728517529424053"><ele>1137.8333333333333</ele><time>2026-04-27T09:15:15Z</time></trkpt><trkpt lat="42.2006178026834" lon="13.728457263918271"><ele>1134.6666666666665</ele><time>2026-04-27T09:15:16Z</time></trkpt><trkpt lat="42.200558122762025" lon="13.728417501730645"><ele>1131.5</ele><time>2026-04-27T09:15:17Z</time></trkpt><trkpt lat="42.200483059410644" lon="13.728382110113113"><ele>1128.3333333333333</ele><time>2026-04-27T09:15:18Z</time></trkpt><trkpt lat="42.20042698700762" lon="13.72830064145588"><ele>1125.1666666666667</ele><time>2026-04-27T09:15:19Z</time></trkpt><trkpt lat="42.200362474241075" lon="13.728206591751979"><ele>1122.0</ele><time>2026-04-27T09:15:19.999Z</time></trkpt><trkpt lat="42.20032092697522" lon="13.728090803016661"><ele>1122.0</ele><time>2026-04-27T09:15:20.999Z</time></trkpt><trkpt lat="42.20026656985479" lon="13.727972771028618"><ele>1122.0</ele><time>2026-04-27T09:15:21.999Z</time></trkpt><trkpt lat="42.20020206682546" lon="13.727867346594648"><ele>1122.0</ele><time>2026-04-27T09:15:22.999Z</time></trkpt><trkpt lat="42.20012901684846" lon="13.72778277685539"><ele>1122.0</ele><time>2026-04-27T09:15:23.999Z</time></trkpt><trkpt lat="42.20004945354362" lon="13.72770951939546"><ele>1122.0</ele><time>2026-04-27T09:15:24.999Z</time></trkpt><trkpt lat="42.199970606024294" lon="13.727644855554919"><ele>1120.3333333333333</ele><time>2026-04-27T09:15:25.999Z</time></trkpt><trkpt lat="42.19987053330302" lon="13.727572483398504"><ele>1118.6666666666667</ele><time>2026-04-27T09:15:26.999Z</time></trkpt><trkpt lat="42.199798981341424" lon="13.727495370878083"><ele>1117.0</ele><time>2026-04-27T09:15:27.999Z</time></trkpt><trkpt lat="42.199726158280164" lon="13.7274434367127"><ele>1115.3333333333335</ele><time>2026-04-27T09:15:28.999Z</time></trkpt><trkpt lat="42.19965926986008" lon="13.72739392571837"><ele>1113.6666666666667</ele><time>2026-04-27T09:15:29.999Z</time></trkpt><trkpt lat="42.199602958620304" lon="13.72733103004821"><ele>1112.0</ele><time>2026-04-27T09:15:30.999Z</time></trkpt><trkpt lat="42.19956841130796" lon="13.727220245257817"><ele>1111.2</ele><time>2026-04-27T09:15:31.999Z</time></trkpt><trkpt lat="42.1995241309825" lon="13.72714781291613"><ele>1110.4</ele><time>2026-04-27T09:15:32.999Z</time></trkpt><trkpt lat="42.19945002607596" lon="13.727077478279956"><ele>1109.6</ele><time>2026-04-27T09:15:33.999Z</time></trkpt><trkpt lat="42.199356677218915" lon="13.727041588885614"><ele>1108.8</ele><time>2026-04-27T09:15:34.999Z</time></trkpt><trkpt lat="42.19925655151778" lon="13.727000402575362"><ele>1108.0</ele><time>2026-04-27T09:15:35.999Z</time></trkpt><trkpt lat="42.19915341582996" lon="13.726978658676844"><ele>1108.0</ele><time>2026-04-27T09:15:36.999Z</time></trkpt><trkpt lat="42.19906393750922" lon="13.726978104274739"><ele>1108.0</ele><time>2026-04-27T09:15:37.999Z</time></trkpt><trkpt lat="42.19898421651404" lon="13.726993647691495"><ele>1108.0</ele><time>2026-04-27T09:15:38.999Z</time></trkpt><trkpt lat="42.198914436511934" lon="13.72699989789373"><ele>1108.0</ele><time>2026-04-27T09:15:39.999Z</time></trkpt><trkpt lat="42.19883901577846" lon="13.727001267062265"><ele>1108.0</ele><time>2026-04-27T09:15:40.999Z</time></trkpt><trkpt lat="42.19876082447565" lon="13.726984183082124"><ele>1108.0</ele><time>2026-04-27T09:15:41.999Z</time></trkpt><trkpt lat="42.198682268802365" lon="13.72693539709741"><ele>1105.4</ele><time>2026-04-27T09:15:42.999Z</time></trkpt><trkpt lat="42.19860196565979" lon="13.726873660600829"><ele>1102.8</ele><time>2026-04-27T09:15:43.999Z</time></trkpt><trkpt lat="42.19852225330969" lon="13.726809443192316"><ele>1100.2</ele><time>2026-04-27T09:15:44.999Z</time></trkpt><trkpt lat="42.198423857514975" lon="13.726768359953777"><ele>1097.6</ele><time>2026-04-27T09:15:45.999Z</time></trkpt><trkpt lat="42.198324319978745" lon="13.726712367527742"><ele>1095.0</ele><time>2026-04-27T09:15:46.999Z</time></trkpt><trkpt lat="42.19823608701984" lon="13.726639279448197"><ele>1094.0</ele><time>2026-04-27T09:15:47.999Z</time></trkpt><trkpt lat="42.198152461680515" lon="13.726588333238306"><ele>1093.0</ele><time>2026-04-27T09:15:48.999Z</time></trkpt><trkpt lat="42.19806982085938" lon="13.726576367231587"><ele>1092.0</ele><time>2026-04-27T09:15:49.999Z</time></trkpt><trkpt lat="42.19801605354695" lon="13.726528947259556"><ele>1091.0</ele><time>2026-04-27T09:15:50.999Z</time></trkpt><trkpt lat="42.197996351092506" lon="13.726444651323378"><ele>1090.0</ele><time>2026-04-27T09:15:51.999Z</time></trkpt><trkpt lat="42.197906166856754" lon="13.726346349450115"><ele>1089.0</ele><time>2026-04-27T09:15:53.999Z</time></trkpt><trkpt lat="42.19783160860238" lon="13.726325402162631"><ele>1089.0</ele><time>2026-04-27T09:15:54.999Z</time></trkpt><trkpt lat="42.19775621920474" lon="13.726384121028369"><ele>1089.0</ele><time>2026-04-27T09:15:55.999Z</time></trkpt><trkpt lat="42.197700566126585" lon="13.726447074304273"><ele>1089.0</ele><time>2026-04-27T09:15:56.999Z</time></trkpt><trkpt lat="42.19764585184423" lon="13.726519518805596"><ele>1089.0</ele><time>2026-04-27T09:15:57.999Z</time></trkpt><trkpt lat="42.19762147677779" lon="13.726637545356937"><ele>1089.0</ele><time>2026-04-27T09:15:58.999Z</time></trkpt><trkpt lat="42.19759387064825" lon="13.726752124571629"><ele>1089.0</ele><time>2026-04-27T09:15:59.999Z</time></trkpt><trkpt lat="42.197550899631516" lon="13.726846340573793"><ele>1089.6666666666667</ele><time>2026-04-27T09:16:00.999Z</time></trkpt><trkpt lat="42.19749185281313" lon="13.726898595691097"><ele>1090.3333333333333</ele><time>2026-04-27T09:16:01.999Z</time></trkpt><trkpt lat="42.1974154513715" lon="13.726932547539212"><ele>1091.0</ele><time>2026-04-27T09:16:02.999Z</time></trkpt><trkpt lat="42.1973368504898" lon="13.726974941802043"><ele>1091.6666666666665</ele><time>2026-04-27T09:16:03.999Z</time></trkpt><trkpt lat="42.19724174184283" lon="13.727011960283283"><ele>1092.3333333333333</ele><time>2026-04-27T09:16:04.999Z</time></trkpt><trkpt lat="42.19713427365291" lon="13.727043800987724"><ele>1093.0</ele><time>2026-04-27T09:16:05.999Z</time></trkpt><trkpt lat="42.197021844709305" lon="13.727075749565278"><ele>1091.0</ele><time>2026-04-27T09:16:06.999Z</time></trkpt><trkpt lat="42.19691113765942" lon="13.727113178680682"><ele>1089.0</ele><time>2026-04-27T09:16:07.999Z</time></trkpt><trkpt lat="42.19679611796113" lon="13.727156388281415"><ele>1087.0</ele><time>2026-04-27T09:16:08.999Z</time></trkpt><trkpt lat="42.196690584293464" lon="13.727196913617002"><ele>1085.0</ele><time>2026-04-27T09:16:09.999Z</time></trkpt><trkpt lat="42.19660262025617" lon="13.727233725772832"><ele>1083.0</ele><time>2026-04-27T09:16:10.999Z</time></trkpt><trkpt lat="42.19651861732823" lon="13.727271698093423"><ele>1082.8333333333333</ele><time>2026-04-27T09:16:11.999Z</time></trkpt><trkpt lat="42.19646282050732" lon="13.72732480071187"><ele>1082.6666666666667</ele><time>2026-04-27T09:16:12.999Z</time></trkpt><trkpt lat="42.196401799997325" lon="13.727209507017482"><ele>1082.5</ele><time>2026-04-27T09:16:17.999Z</time></trkpt><trkpt lat="42.19640041383159" lon="13.727123180903938"><ele>1082.3333333333335</ele><time>2026-04-27T09:16:18.999Z</time></trkpt><trkpt lat="42.19640014044567" lon="13.727023442709482"><ele>1082.1666666666667</ele><time>2026-04-27T09:16:19.999Z</time></trkpt><trkpt lat="42.19641236376795" lon="13.726924329145943"><ele>1082.0</ele><time>2026-04-27T09:16:20.999Z</time></trkpt><trkpt lat="42.19643642397333" lon="13.726819653316745"><ele>1083.2</ele><time>2026-04-27T09:16:21.999Z</time></trkpt><trkpt lat="42.196467417216006" lon="13.726707477710107"><ele>1084.4</ele><time>2026-04-27T09:16:22.999Z</time></trkpt><trkpt lat="42.19650020259317" lon="13.726576007918304"><ele>1085.6</ele><time>2026-04-27T09:16:23.998Z</time></trkpt><trkpt lat="42.1965279992739" lon="13.72643130932644"><ele>1086.8</ele><time>2026-04-27T09:16:24.998Z</time></trkpt><trkpt lat="42.19654847317525" lon="13.726277853065275"><ele>1088.0</ele><time>2026-04-27T09:16:25.998Z</time></trkpt><trkpt lat="42.19658006215821" lon="13.726111981539825"><ele>1089.0</ele><time>2026-04-27T09:16:26.998Z</time></trkpt><trkpt lat="42.19663122523377" lon="13.725946787877062"><ele>1090.0</ele><time>2026-04-27T09:16:27.998Z</time></trkpt><trkpt lat="42.19670776679777" lon="13.72582355860723"><ele>1091.0</ele><time>2026-04-27T09:16:28.998Z</time></trkpt><trkpt lat="42.19679063152512" lon="13.725754460238896"><ele>1092.0</ele><time>2026-04-27T09:16:29.998Z</time></trkpt><trkpt lat="42.19686611929639" lon="13.725713159324627"><ele>1093.0</ele><time>2026-04-27T09:16:30.998Z</time></trkpt><trkpt lat="42.19695720102303" lon="13.725555799000823"><ele>1093.0</ele><time>2026-04-27T09:16:32.998Z</time></trkpt><trkpt lat="42.19695281889758" lon="13.725420802863717"><ele>1093.0</ele><time>2026-04-27T09:16:33.998Z</time></trkpt><trkpt lat="42.19697296563403" lon="13.725270138919663"><ele>1093.0</ele><time>2026-04-27T09:16:34.998Z</time></trkpt><trkpt lat="42.19699710477862" lon="13.72511985458234"><ele>1093.0</ele><time>2026-04-27T09:16:35.998Z</time></trkpt><trkpt lat="42.1970278980491" lon="13.724955380882932"><ele>1093.25</ele><time>2026-04-27T09:16:36.998Z</time></trkpt><trkpt lat="42.19706069806579" lon="13.724781501292188"><ele>1093.5</ele><time>2026-04-27T09:16:37.998Z</time></trkpt><trkpt lat="42.19709028194246" lon="13.724601285922331"><ele>1093.75</ele><time>2026-04-27T09:16:38.998Z</time></trkpt><trkpt lat="42.197106887131156" lon="13.724420346091996"><ele>1094.0</ele><time>2026-04-27T09:16:39.998Z</time></trkpt><trkpt lat="42.19709726102342" lon="13.724228940219366"><ele>1095.5</ele><time>2026-04-27T09:16:40.998Z</time></trkpt><trkpt lat="42.19707994174449" lon="13.724033515708646"><ele>1097.0</ele><time>2026-04-27T09:16:42Z</time></trkpt><trkpt lat="42.197048943820484" lon="13.723846409885468"><ele>1098.5</ele><time>2026-04-27T09:16:43Z</time></trkpt><trkpt lat="42.1970141186724" lon="13.723691918761016"><ele>1100.0</ele><time>2026-04-27T09:16:44Z</time></trkpt><trkpt lat="42.19699506162133" lon="13.723542675667604"><ele>1100.0</ele><time>2026-04-27T09:16:45Z</time></trkpt><trkpt lat="42.197015585435146" lon="13.72336911241454"><ele>1100.0</ele><time>2026-04-27T09:16:46Z</time></trkpt><trkpt lat="42.197056110383876" lon="13.723178547097046"><ele>1100.0</ele><time>2026-04-27T09:16:47Z</time></trkpt><trkpt lat="42.197095908522456" lon="13.722979256455"><ele>1100.0</ele><time>2026-04-27T09:16:48Z</time></trkpt><trkpt lat="42.19714984972795" lon="13.722775710477169"><ele>1100.0</ele><time>2026-04-27T09:16:49Z</time></trkpt><trkpt lat="42.197224681494085" lon="13.722576911631768"><ele>1100.0</ele><time>2026-04-27T09:16:50Z</time></trkpt><trkpt lat="42.19731252042035" lon="13.722387457746143"><ele>1100.0</ele><time>2026-04-27T09:16:51Z</time></trkpt><trkpt lat="42.1974051751312" lon="13.72220269391423"><ele>1098.25</ele><time>2026-04-27T09:16:52Z</time></trkpt><trkpt lat="42.19748033811384" lon="13.722032412806504"><ele>1096.5</ele><time>2026-04-27T09:16:53Z</time></trkpt><trkpt lat="42.19754126411428" lon="13.721870795266577"><ele>1094.75</ele><time>2026-04-27T09:16:54Z</time></trkpt><trkpt lat="42.19761404436692" lon="13.721739966569784"><ele>1093.0</ele><time>2026-04-27T09:16:55Z</time></trkpt><trkpt lat="42.1977003415825" lon="13.721635180341815"><ele>1092.75</ele><time>2026-04-27T09:16:56Z</time></trkpt><trkpt lat="42.19780374698243" lon="13.721569289822105"><ele>1092.5</ele><time>2026-04-27T09:16:57Z</time></trkpt><trkpt lat="42.19790807689671" lon="13.721501113979285"><ele>1092.25</ele><time>2026-04-27T09:16:58Z</time></trkpt><trkpt lat="42.19802627338763" lon="13.7213958933333"><ele>1092.0</ele><time>2026-04-27T09:16:59Z</time></trkpt><trkpt lat="42.198150289785566" lon="13.721248147780342"><ele>1090.6666666666667</ele><time>2026-04-27T09:17:00Z</time></trkpt><trkpt lat="42.19827247252631" lon="13.721087494870355"><ele>1089.3333333333335</ele><time>2026-04-27T09:17:01Z</time></trkpt><trkpt lat="42.19839583862458" lon="13.72094344762667"><ele>1088.0</ele><time>2026-04-27T09:17:02Z</time></trkpt><trkpt lat="42.198514736830624" lon="13.720818496330947"><ele>1085.0</ele><time>2026-04-27T09:17:03Z</time></trkpt><trkpt lat="42.19863614432391" lon="13.720700107894077"><ele>1082.0</ele><time>2026-04-27T09:17:04Z</time></trkpt><trkpt lat="42.198760801668485" lon="13.72058193462614"><ele>1079.0</ele><time>2026-04-27T09:17:05Z</time></trkpt><trkpt lat="42.19889527814477" lon="13.720463873743082"><ele>1076.25</ele><time>2026-04-27T09:17:06Z</time></trkpt><trkpt lat="42.19902789347706" lon="13.720362634529256"><ele>1073.5</ele><time>2026-04-27T09:17:07Z</time></trkpt><trkpt lat="42.19914047256656" lon="13.720269037256575"><ele>1070.75</ele><time>2026-04-27T09:17:08Z</time></trkpt><trkpt lat="42.19923728870645" lon="13.720183775873233"><ele>1068.0</ele><time>2026-04-27T09:17:09Z</time></trkpt><trkpt lat="42.19931750287658" lon="13.720115896545082"><ele>1067.2</ele><time>2026-04-27T09:17:10Z</time></trkpt><trkpt lat="42.19937623611951" lon="13.72006737778927"><ele>1066.4</ele><time>2026-04-27T09:17:11Z</time></trkpt><trkpt lat="42.19944251914736" lon="13.719971915825399"><ele>1065.6000000000001</ele><time>2026-04-27T09:17:13Z</time></trkpt><trkpt lat="42.19945687344798" lon="13.719884977788738"><ele>1064.8</ele><time>2026-04-27T09:17:14Z</time></trkpt><trkpt lat="42.19947608307399" lon="13.719714994909832"><ele>1064.0</ele><time>2026-04-27T09:17:15Z</time></trkpt><trkpt lat="42.19952818249955" lon="13.719534978170763"><ele>1065.25</ele><time>2026-04-27T09:17:16Z</time></trkpt><trkpt lat="42.199597643726904" lon="13.719379696421779"><ele>1066.5</ele><time>2026-04-27T09:17:17Z</time></trkpt><trkpt lat="42.199665082517235" lon="13.71927831806481"><ele>1067.75</ele><time>2026-04-27T09:17:18Z</time></trkpt><trkpt lat="42.19970591040709" lon="13.719141193598729"><ele>1069.0</ele><time>2026-04-27T09:17:19Z</time></trkpt><trkpt lat="42.19975514185796" lon="13.718974286513541"><ele>1066.5</ele><time>2026-04-27T09:17:20Z</time></trkpt><trkpt lat="42.19983738835547" lon="13.718841774290494"><ele>1064.0</ele><time>2026-04-27T09:17:21Z</time></trkpt><trkpt lat="42.19990550717899" lon="13.718717892845936"><ele>1061.5</ele><time>2026-04-27T09:17:22Z</time></trkpt><trkpt lat="42.199991122174836" lon="13.718606505579743"><ele>1059.0</ele><time>2026-04-27T09:17:23Z</time></trkpt><trkpt lat="42.20005168380459" lon="13.718473252854675"><ele>1059.0</ele><time>2026-04-27T09:17:23.999Z</time></trkpt><trkpt lat="42.20011513257855" lon="13.718347629616906"><ele>1059.0</ele><time>2026-04-27T09:17:24.999Z</time></trkpt><trkpt lat="42.20016242128244" lon="13.718220820365701"><ele>1059.0</ele><time>2026-04-27T09:17:25.999Z</time></trkpt><trkpt lat="42.20020925090324" lon="13.71814076256739"><ele>1059.0</ele><time>2026-04-27T09:17:26.999Z</time></trkpt><trkpt lat="42.20024177387741" lon="13.718059919762528"><ele>1059.0</ele><time>2026-04-27T09:17:27.999Z</time></trkpt><trkpt lat="42.200262291632534" lon="13.717963441411595"><ele>1059.0</ele><time>2026-04-27T09:17:28.999Z</time></trkpt><trkpt lat="42.20026750326733" lon="13.717873213169154"><ele>1059.0</ele><time>2026-04-27T09:17:29.999Z</time></trkpt><trkpt lat="42.20030828974209" lon="13.717743477929128"><ele>1059.0</ele><time>2026-04-27T09:17:31.999Z</time></trkpt><trkpt lat="42.20029663787629" lon="13.717642929881643"><ele>1059.0</ele><time>2026-04-27T09:17:32.999Z</time></trkpt><trkpt lat="42.20025190520188" lon="13.717518610800918"><ele>1059.0</ele><time>2026-04-27T09:17:33.999Z</time></trkpt><trkpt lat="42.200192930375664" lon="13.717381556459385"><ele>1059.0</ele><time>2026-04-27T09:17:34.999Z</time></trkpt><trkpt lat="42.20013452333135" lon="13.717267480259572"><ele>1059.0</ele><time>2026-04-27T09:17:35.999Z</time></trkpt><trkpt lat="42.20008334476389" lon="13.717145985644056"><ele>1059.0</ele><time>2026-04-27T09:17:36.999Z</time></trkpt><trkpt lat="42.20005087520031" lon="13.717007434865012"><ele>1059.0</ele><time>2026-04-27T09:17:37.999Z</time></trkpt><trkpt lat="42.20002213430843" lon="13.71685998300429"><ele>1059.0</ele><time>2026-04-27T09:17:38.999Z</time></trkpt><trkpt lat="42.1999905455075" lon="13.716705704039647"><ele>1059.0</ele><time>2026-04-27T09:17:39.999Z</time></trkpt><trkpt lat="42.199952130023014" lon="13.71654909863272"><ele>1059.0</ele><time>2026-04-27T09:17:40.999Z</time></trkpt><trkpt lat="42.19992625749671" lon="13.716400064617329"><ele>1059.0</ele><time>2026-04-27T09:17:41.999Z</time></trkpt><trkpt lat="42.19992138795067" lon="13.716254977503837"><ele>1059.0</ele><time>2026-04-27T09:17:42.999Z</time></trkpt><trkpt lat="42.19994705288481" lon="13.716099502629236"><ele>1059.0</ele><time>2026-04-27T09:17:43.999Z</time></trkpt><trkpt lat="42.19999484206262" lon="13.715938817408542"><ele>1059.2</ele><time>2026-04-27T09:17:44.999Z</time></trkpt><trkpt lat="42.200057892307036" lon="13.715811772643399"><ele>1059.4</ele><time>2026-04-27T09:17:45.999Z</time></trkpt><trkpt lat="42.200129636711964" lon="13.715696338499889"><ele>1059.6</ele><time>2026-04-27T09:17:46.999Z</time></trkpt><trkpt lat="42.20018047722322" lon="13.715592052057733"><ele>1059.8</ele><time>2026-04-27T09:17:47.999Z</time></trkpt><trkpt lat="42.200228193590384" lon="13.715478031555682"><ele>1060.0</ele><time>2026-04-27T09:17:48.999Z</time></trkpt><trkpt lat="42.200265350688454" lon="13.715345442906695"><ele>1060.2</ele><time>2026-04-27T09:17:49.999Z</time></trkpt><trkpt lat="42.20028982251456" lon="13.715235093946168"><ele>1060.4</ele><time>2026-04-27T09:17:50.999Z</time></trkpt><trkpt lat="42.20031516977077" lon="13.715091500113138"><ele>1060.6</ele><time>2026-04-27T09:17:51.999Z</time></trkpt><trkpt lat="42.200345658840355" lon="13.714952609338981"><ele>1060.8</ele><time>2026-04-27T09:17:52.999Z</time></trkpt><trkpt lat="42.20036273845443" lon="13.714828484489862"><ele>1061.0</ele><time>2026-04-27T09:17:53.999Z</time></trkpt><trkpt lat="42.20038922999543" lon="13.714720010961216"><ele>1061.0</ele><time>2026-04-27T09:17:54.999Z</time></trkpt><trkpt lat="42.20041739708463" lon="13.714635783612527"><ele>1061.0</ele><time>2026-04-27T09:17:55.999Z</time></trkpt><trkpt lat="42.20045810596565" lon="13.714535545694593"><ele>1061.0</ele><time>2026-04-27T09:17:56.999Z</time></trkpt><trkpt lat="42.200464557684576" lon="13.714422304950572"><ele>1061.0</ele><time>2026-04-27T09:17:57.999Z</time></trkpt><trkpt lat="42.20048855017552" lon="13.714301874602413"><ele>1061.0</ele><time>2026-04-27T09:17:58.999Z</time></trkpt><trkpt lat="42.20049421387795" lon="13.714169783263777"><ele>1061.0</ele><time>2026-04-27T09:17:59.999Z</time></trkpt><trkpt lat="42.20051614282265" lon="13.714035238977706"><ele>1060.75</ele><time>2026-04-27T09:18:00.999Z</time></trkpt><trkpt lat="42.20053421613696" lon="13.713899627340457"><ele>1060.5</ele><time>2026-04-27T09:18:01.999Z</time></trkpt><trkpt lat="42.200538341378625" lon="13.713731216854299"><ele>1060.25</ele><time>2026-04-27T09:18:02.999Z</time></trkpt><trkpt lat="42.200557995903274" lon="13.713552513808926"><ele>1060.0</ele><time>2026-04-27T09:18:03.999Z</time></trkpt><trkpt lat="42.20058768187148" lon="13.713371534575318"><ele>1059.25</ele><time>2026-04-27T09:18:04.999Z</time></trkpt><trkpt lat="42.20061693168354" lon="13.713215424616028"><ele>1058.5</ele><time>2026-04-27T09:18:05.999Z</time></trkpt><trkpt lat="42.2006770956107" lon="13.713067330012962"><ele>1057.75</ele><time>2026-04-27T09:18:06.999Z</time></trkpt><trkpt lat="42.2007281731852" lon="13.712945986697411"><ele>1057.0</ele><time>2026-04-27T09:18:07.999Z</time></trkpt><trkpt lat="42.200778245642944" lon="13.712821517700272"><ele>1051.75</ele><time>2026-04-27T09:18:08.999Z</time></trkpt><trkpt lat="42.200831746274524" lon="13.712683056376752"><ele>1046.5</ele><time>2026-04-27T09:18:09.999Z</time></trkpt><trkpt lat="42.200894454393115" lon="13.712536529459324"><ele>1041.25</ele><time>2026-04-27T09:18:10.999Z</time></trkpt><trkpt lat="42.200947217284785" lon="13.71239519374234"><ele>1036.0</ele><time>2026-04-27T09:18:11.999Z</time></trkpt><trkpt lat="42.20099025603827" lon="13.71226259174271"><ele>1036.0</ele><time>2026-04-27T09:18:12.999Z</time></trkpt><trkpt lat="42.201019340803015" lon="13.712112028402139"><ele>1036.0</ele><time>2026-04-27T09:18:13.999Z</time></trkpt><trkpt lat="42.20104435416251" lon="13.711972500409658"><ele>1036.0</ele><time>2026-04-27T09:18:14.999Z</time></trkpt><trkpt lat="42.201067838554955" lon="13.711834321256138"><ele>1036.0</ele><time>2026-04-27T09:18:15.999Z</time></trkpt><trkpt lat="42.20111316195266" lon="13.71169593925397"><ele>1036.0</ele><time>2026-04-27T09:18:16.999Z</time></trkpt><trkpt lat="42.20114632643894" lon="13.711549807732299"><ele>1035.3999999999999</ele><time>2026-04-27T09:18:17.999Z</time></trkpt><trkpt lat="42.20115487057849" lon="13.711393960608412"><ele>1034.8</ele><time>2026-04-27T09:18:18.999Z</time></trkpt><trkpt lat="42.20113592774019" lon="13.711251005348561"><ele>1034.1999999999998</ele><time>2026-04-27T09:18:19.999Z</time></trkpt><trkpt lat="42.2011136088901" lon="13.711123187421684"><ele>1033.6</ele><time>2026-04-27T09:18:20.999Z</time></trkpt><trkpt lat="42.20108467433197" lon="13.710989805566147"><ele>1033.0</ele><time>2026-04-27T09:18:21.999Z</time></trkpt><trkpt lat="42.20106982119142" lon="13.710848321914968"><ele>1032.2</ele><time>2026-04-27T09:18:22.999Z</time></trkpt><trkpt lat="42.20105997017841" lon="13.710712194517132"><ele>1031.4</ele><time>2026-04-27T09:18:23.999Z</time></trkpt><trkpt lat="42.201058402320655" lon="13.71057016585558"><ele>1030.6000000000001</ele><time>2026-04-27T09:18:24.999Z</time></trkpt><trkpt lat="42.20108275202989" lon="13.710438341872791"><ele>1029.8</ele><time>2026-04-27T09:18:25.999Z</time></trkpt><trkpt lat="42.20111999902707" lon="13.710291453727269"><ele>1029.0</ele><time>2026-04-27T09:18:26.999Z</time></trkpt><trkpt lat="42.201137083563516" lon="13.710148920048704"><ele>1028.8</ele><time>2026-04-27T09:18:27.998Z</time></trkpt><trkpt lat="42.20116970250327" lon="13.710024987552591"><ele>1028.6000000000001</ele><time>2026-04-27T09:18:28.998Z</time></trkpt><trkpt lat="42.2011952405407" lon="13.709898434701973"><ele>1028.4</ele><time>2026-04-27T09:18:29.998Z</time></trkpt><trkpt lat="42.201220209999825" lon="13.70976177659771"><ele>1028.2</ele><time>2026-04-27T09:18:30.998Z</time></trkpt><trkpt lat="42.201249529311845" lon="13.709620199518131"><ele>1028.0</ele><time>2026-04-27T09:18:31.998Z</time></trkpt><trkpt lat="42.20127850255059" lon="13.709478402838188"><ele>1028.4</ele><time>2026-04-27T09:18:32.998Z</time></trkpt><trkpt lat="42.20131101037504" lon="13.709342682794864"><ele>1028.8</ele><time>2026-04-27T09:18:33.998Z</time></trkpt><trkpt lat="42.20133701242924" lon="13.709206357319985"><ele>1029.2</ele><time>2026-04-27T09:18:34.998Z</time></trkpt><trkpt lat="42.2013479592391" lon="13.709076027141409"><ele>1029.6</ele><time>2026-04-27T09:18:35.998Z</time></trkpt><trkpt lat="42.20136440295138" lon="13.708955808591645"><ele>1030.0</ele><time>2026-04-27T09:18:36.998Z</time></trkpt><trkpt lat="42.201390342428574" lon="13.70884304492516"><ele>1030.0</ele><time>2026-04-27T09:18:37.998Z</time></trkpt><trkpt lat="42.20142310474495" lon="13.708757220688957"><ele>1030.0</ele><time>2026-04-27T09:18:38.998Z</time></trkpt><trkpt lat="42.20146413446686" lon="13.708655890811125"><ele>1030.0</ele><time>2026-04-27T09:18:39.998Z</time></trkpt><trkpt lat="42.20149215448073" lon="13.70854435767249"><ele>1030.0</ele><time>2026-04-27T09:18:40.998Z</time></trkpt><trkpt lat="42.20151941720328" lon="13.708424915802038"><ele>1030.0</ele><time>2026-04-27T09:18:41.998Z</time></trkpt><trkpt lat="42.20154306579515" lon="13.708307648346585"><ele>1030.0</ele><time>2026-04-27T09:18:42.998Z</time></trkpt><trkpt lat="42.201562751249476" lon="13.708198696140089"><ele>1026.0</ele><time>2026-04-27T09:18:43.998Z</time></trkpt><trkpt lat="42.201570627020935" lon="13.708068086257535"><ele>1022.0</ele><time>2026-04-27T09:18:44.998Z</time></trkpt><trkpt lat="42.20157937146047" lon="13.707934984863506"><ele>1018.0</ele><time>2026-04-27T09:18:45.998Z</time></trkpt><trkpt lat="42.201591195931286" lon="13.707813598949459"><ele>1014.0</ele><time>2026-04-27T09:18:47Z</time></trkpt><trkpt lat="42.20160855834442" lon="13.707712731569044"><ele>1009.9999999999999</ele><time>2026-04-27T09:18:48Z</time></trkpt><trkpt lat="42.20163800394596" lon="13.707611072362628"><ele>1006.0</ele><time>2026-04-27T09:18:49Z</time></trkpt><trkpt lat="42.201670930653094" lon="13.707512148812702"><ele>1004.6666666666666</ele><time>2026-04-27T09:18:50Z</time></trkpt><trkpt lat="42.20170332631024" lon="13.707413302653237"><ele>1003.3333333333333</ele><time>2026-04-27T09:18:51Z</time></trkpt><trkpt lat="42.2017307613784" lon="13.70730111308118"><ele>1002.0</ele><time>2026-04-27T09:18:52Z</time></trkpt><trkpt lat="42.201740996688414" lon="13.707213295278102"><ele>1000.6666666666667</ele><time>2026-04-27T09:18:53Z</time></trkpt><trkpt lat="42.201737212102614" lon="13.707126073735981"><ele>999.3333333333334</ele><time>2026-04-27T09:18:54Z</time></trkpt><trkpt lat="42.20176359758299" lon="13.706984994656686"><ele>998.0</ele><time>2026-04-27T09:18:56Z</time></trkpt><trkpt lat="42.201801881007654" lon="13.706902233114839"><ele>996.5999999999999</ele><time>2026-04-27T09:18:57Z</time></trkpt><trkpt lat="42.2018345332462" lon="13.706824195849592"><ele>995.1999999999999</ele><time>2026-04-27T09:18:58Z</time></trkpt><trkpt lat="42.20187564712701" lon="13.70670401394201"><ele>993.8</ele><time>2026-04-27T09:19:00Z</time></trkpt><trkpt lat="42.20185810583655" lon="13.706554876327672"><ele>992.4</ele><time>2026-04-27T09:19:02Z</time></trkpt><trkpt lat="42.20182404357003" lon="13.706393304490595"><ele>991.0</ele><time>2026-04-27T09:19:04Z</time></trkpt><trkpt lat="42.201782909363175" lon="13.706230194959828"><ele>990.9999999999999</ele><time>2026-04-27T09:19:06Z</time></trkpt><trkpt lat="42.20169850002338" lon="13.706150510348321"><ele>991.0</ele><time>2026-04-27T09:19:08Z</time></trkpt><trkpt lat="42.20163122017489" lon="13.70611924679427"><ele>991.0</ele><time>2026-04-27T09:19:09Z</time></trkpt><trkpt lat="42.20156999253717" lon="13.706094778513668"><ele>991.0</ele><time>2026-04-27T09:19:10Z</time></trkpt><trkpt lat="42.201490978683104" lon="13.706008935829383"><ele>990.9999999999999</ele><time>2026-04-27T09:19:12Z</time></trkpt><trkpt lat="42.20149392241959" lon="13.70590677895764"><ele>991.0</ele><time>2026-04-27T09:19:14Z</time></trkpt><trkpt lat="42.20153022769197" lon="13.70578021294981"><ele>990.1999999999999</ele><time>2026-04-27T09:19:16Z</time></trkpt><trkpt lat="42.20152376167316" lon="13.705680582432766"><ele>989.3999999999999</ele><time>2026-04-27T09:19:18Z</time></trkpt><trkpt lat="42.201461569185994" lon="13.70554001272783"><ele>988.6</ele><time>2026-04-27T09:19:20Z</time></trkpt><trkpt lat="42.20143700399807" lon="13.705431554233849"><ele>987.8</ele><time>2026-04-27T09:19:21Z</time></trkpt><trkpt lat="42.20139354766579" lon="13.705299105038778"><ele>987.0</ele><time>2026-04-27T09:19:22Z</time></trkpt><trkpt lat="42.20136272763482" lon="13.705174313864747"><ele>985.2</ele><time>2026-04-27T09:19:23Z</time></trkpt><trkpt lat="42.20134886959875" lon="13.70509117502148"><ele>983.4000000000001</ele><time>2026-04-27T09:19:24Z</time></trkpt><trkpt lat="42.2013485936197" lon="13.704963448015215"><ele>981.5999999999999</ele><time>2026-04-27T09:19:26Z</time></trkpt><trkpt lat="42.20134944223846" lon="13.70483040936586"><ele>979.8</ele><time>2026-04-27T09:19:27.999Z</time></trkpt><trkpt lat="42.201353749020655" lon="13.704689260617403"><ele>978.0</ele><time>2026-04-27T09:19:29.999Z</time></trkpt><trkpt lat="42.20135917853593" lon="13.704539527249066"><ele>978.0</ele><time>2026-04-27T09:19:31.999Z</time></trkpt><trkpt lat="42.20134804787643" lon="13.704452227683241"><ele>978.0000000000001</ele><time>2026-04-27T09:19:32.999Z</time></trkpt><trkpt lat="42.20135392942092" lon="13.704359905639206"><ele>978.0</ele><time>2026-04-27T09:19:33.999Z</time></trkpt><trkpt lat="42.20135903894813" lon="13.704269670309216"><ele>978.0</ele><time>2026-04-27T09:19:34.999Z</time></trkpt><trkpt lat="42.201374360932874" lon="13.70417725179637"><ele>978.0000000000001</ele><time>2026-04-27T09:19:35.999Z</time></trkpt><trkpt lat="42.20137670766794" lon="13.704082611220661"><ele>978.0</ele><time>2026-04-27T09:19:36.999Z</time></trkpt><trkpt lat="42.201391438793394" lon="13.703974549671916"><ele>978.0</ele><time>2026-04-27T09:19:37.999Z</time></trkpt><trkpt lat="42.20140249095318" lon="13.703866616788002"><ele>977.3333333333334</ele><time>2026-04-27T09:19:38.999Z</time></trkpt><trkpt lat="42.20143711492749" lon="13.703755395573367"><ele>976.6666666666667</ele><time>2026-04-27T09:19:39.999Z</time></trkpt><trkpt lat="42.20146636761665" lon="13.703640530565833"><ele>976.0</ele><time>2026-04-27T09:19:40.999Z</time></trkpt><trkpt lat="42.201481502359506" lon="13.703515005815584"><ele>975.3333333333334</ele><time>2026-04-27T09:19:41.999Z</time></trkpt><trkpt lat="42.20149558995378" lon="13.703396936202498"><ele>974.6666666666667</ele><time>2026-04-27T09:19:42.999Z</time></trkpt><trkpt lat="42.201499387175765" lon="13.703286506267526"><ele>974.0</ele><time>2026-04-27T09:19:43.999Z</time></trkpt><trkpt lat="42.201505027328984" lon="13.703172664430541"><ele>967.8333333333334</ele><time>2026-04-27T09:19:44.999Z</time></trkpt><trkpt lat="42.20148815539578" lon="13.703059984412524"><ele>961.6666666666667</ele><time>2026-04-27T09:19:45.999Z</time></trkpt><trkpt lat="42.201443748206586" lon="13.702959638783941"><ele>955.5</ele><time>2026-04-27T09:19:46.999Z</time></trkpt><trkpt lat="42.20137893390119" lon="13.70287553088043"><ele>949.3333333333333</ele><time>2026-04-27T09:19:47.999Z</time></trkpt><trkpt lat="42.20130371955086" lon="13.702799058717412"><ele>943.1666666666666</ele><time>2026-04-27T09:19:48.999Z</time></trkpt><trkpt lat="42.20125212324531" lon="13.702694417730715"><ele>937.0</ele><time>2026-04-27T09:19:49.999Z</time></trkpt><trkpt lat="42.201159352639884" lon="13.702638136510705"><ele>937.0</ele><time>2026-04-27T09:19:50.999Z</time></trkpt><trkpt lat="42.20107513029828" lon="13.702569117710809"><ele>937.0</ele><time>2026-04-27T09:19:51.999Z</time></trkpt><trkpt lat="42.20100813738988" lon="13.70248319113973"><ele>937.0</ele><time>2026-04-27T09:19:52.999Z</time></trkpt><trkpt lat="42.200923386952326" lon="13.702439049752115"><ele>937.0</ele><time>2026-04-27T09:19:53.999Z</time></trkpt><trkpt lat="42.20083800904621" lon="13.702379996719635"><ele>937.0</ele><time>2026-04-27T09:19:54.999Z</time></trkpt><trkpt lat="42.200756411355634" lon="13.702336151125575"><ele>936.9999999999999</ele><time>2026-04-27T09:19:55.999Z</time></trkpt><trkpt lat="42.200681877077514" lon="13.70230193552938"><ele>937.0</ele><time>2026-04-27T09:19:56.999Z</time></trkpt><trkpt lat="42.200603225579165" lon="13.702279159035154"><ele>937.0</ele><time>2026-04-27T09:19:57.999Z</time></trkpt><trkpt lat="42.200530242077875" lon="13.70223208443163"><ele>937.0</ele><time>2026-04-27T09:19:58.999Z</time></trkpt><trkpt lat="42.200443268761994" lon="13.702207516069215"><ele>936.9999999999999</ele><time>2026-04-27T09:19:59.999Z</time></trkpt><trkpt lat="42.200358987759195" lon="13.702203329639444"><ele>937.0</ele><time>2026-04-27T09:20:00.999Z</time></trkpt><trkpt lat="42.20028021933657" lon="13.702209128775058"><ele>931.6</ele><time>2026-04-27T09:20:01.999Z</time></trkpt><trkpt lat="42.200215754586296" lon="13.702194942162782"><ele>926.2</ele><time>2026-04-27T09:20:02.999Z</time></trkpt><trkpt lat="42.2001397707016" lon="13.702088203778873"><ele>920.8</ele><time>2026-04-27T09:20:04.999Z</time></trkpt><trkpt lat="42.200132692250484" lon="13.701912731725914"><ele>915.4</ele><time>2026-04-27T09:20:06.999Z</time></trkpt><trkpt lat="42.20010148722355" lon="13.701826669993476"><ele>910.0</ele><time>2026-04-27T09:20:07.999Z</time></trkpt><trkpt lat="42.20006658194482" lon="13.701674866390524"><ele>910.0</ele><time>2026-04-27T09:20:09.999Z</time></trkpt><trkpt lat="42.2000173252332" lon="13.701532716071108"><ele>910.0</ele><time>2026-04-27T09:20:11.999Z</time></trkpt><trkpt lat="42.19997077849326" lon="13.701438791248245"><ele>910.0</ele><time>2026-04-27T09:20:13.999Z</time></trkpt><trkpt lat="42.20002550761399" lon="13.70132770794302"><ele>910.0</ele><time>2026-04-27T09:20:15.999Z</time></trkpt><trkpt lat="42.20002426390789" lon="13.701187590385022"><ele>910.0</ele><time>2026-04-27T09:20:17.999Z</time></trkpt><trkpt lat="42.200037203364396" lon="13.701036979751125"><ele>908.8</ele><time>2026-04-27T09:20:19.999Z</time></trkpt><trkpt lat="42.20005555924584" lon="13.700936521413276"><ele>907.6</ele><time>2026-04-27T09:20:21.999Z</time></trkpt><trkpt lat="42.20006940383958" lon="13.700812636750666"><ele>906.4000000000001</ele><time>2026-04-27T09:20:23.999Z</time></trkpt><trkpt lat="42.20008850866794" lon="13.700664426128892"><ele>905.2</ele><time>2026-04-27T09:20:25.999Z</time></trkpt><trkpt lat="42.200044789586364" lon="13.700526987148024"><ele>904.0</ele><time>2026-04-27T09:20:27.999Z</time></trkpt><trkpt lat="42.20002121982937" lon="13.70035602355723"><ele>903.9999999999999</ele><time>2026-04-27T09:20:29.999Z</time></trkpt><trkpt lat="42.20002836845691" lon="13.700264024355151"><ele>904.0</ele><time>2026-04-27T09:20:30.999Z</time></trkpt><trkpt lat="42.2000349418792" lon="13.70016713584808"><ele>904.0</ele><time>2026-04-27T09:20:31.998Z</time></trkpt><trkpt lat="42.200070595042675" lon="13.700087551747714"><ele>904.0</ele><time>2026-04-27T09:20:32.998Z</time></trkpt><trkpt lat="42.20006494399881" lon="13.69992833402293"><ele>903.9999999999999</ele><time>2026-04-27T09:20:34.998Z</time></trkpt><trkpt lat="42.1999831230017" lon="13.699887327174055"><ele>904.0</ele><time>2026-04-27T09:20:35.998Z</time></trkpt><trkpt lat="42.19990916655729" lon="13.699838256022872"><ele>903.8333333333333</ele><time>2026-04-27T09:20:36.998Z</time></trkpt><trkpt lat="42.19984397889246" lon="13.69979275929986"><ele>903.6666666666666</ele><time>2026-04-27T09:20:37.998Z</time></trkpt><trkpt lat="42.19976469019519" lon="13.699655343826091"><ele>903.5</ele><time>2026-04-27T09:20:39.998Z</time></trkpt><trkpt lat="42.19973823138583" lon="13.699562455224328"><ele>903.3333333333333</ele><time>2026-04-27T09:20:40.998Z</time></trkpt><trkpt lat="42.199706719930326" lon="13.699463884280997"><ele>903.1666666666666</ele><time>2026-04-27T09:20:41.998Z</time></trkpt><trkpt lat="42.199684116856076" lon="13.699381228359446"><ele>903.0</ele><time>2026-04-27T09:20:42.998Z</time></trkpt><trkpt lat="42.19966254403744" lon="13.699231388173338"><ele>894.3333333333334</ele><time>2026-04-27T09:20:44.998Z</time></trkpt><trkpt lat="42.199571496772016" lon="13.69910459409414"><ele>885.6666666666667</ele><time>2026-04-27T09:20:46.998Z</time></trkpt><trkpt lat="42.19953348491794" lon="13.699023837358355"><ele>877.0</ele><time>2026-04-27T09:20:47.998Z</time></trkpt><trkpt lat="42.19952161348672" lon="13.698916760221644"><ele>868.3333333333334</ele><time>2026-04-27T09:20:48.998Z</time></trkpt><trkpt lat="42.19950997416214" lon="13.698817277228105"><ele>859.6666666666667</ele><time>2026-04-27T09:20:49.998Z</time></trkpt><trkpt lat="42.19951289263772" lon="13.698717569782984"><ele>851.0</ele><time>2026-04-27T09:20:50.998Z</time></trkpt><trkpt lat="42.19951278272044" lon="13.698599883591472"><ele>851.5714285714286</ele><time>2026-04-27T09:20:51.998Z</time></trkpt><trkpt lat="42.19949290748347" lon="13.698495647736816"><ele>852.1428571428571</ele><time>2026-04-27T09:20:53Z</time></trkpt><trkpt lat="42.199481819606326" lon="13.698404209581993"><ele>852.7142857142858</ele><time>2026-04-27T09:20:54Z</time></trkpt><trkpt lat="42.19946270863533" lon="13.698318059769166"><ele>853.2857142857142</ele><time>2026-04-27T09:20:55Z</time></trkpt><trkpt lat="42.19945562264203" lon="13.698229179737519"><ele>853.8571428571428</ele><time>2026-04-27T09:20:56Z</time></trkpt><trkpt lat="42.1994671793583" lon="13.698129367680258"><ele>854.4285714285714</ele><time>2026-04-27T09:20:57Z</time></trkpt><trkpt lat="42.19948261086595" lon="13.698026336217108"><ele>855.0</ele><time>2026-04-27T09:20:58Z</time></trkpt><trkpt lat="42.19951729965946" lon="13.697933508370145"><ele>855.0</ele><time>2026-04-27T09:20:59Z</time></trkpt><trkpt lat="42.19954637004386" lon="13.697834301865386"><ele>855.0</ele><time>2026-04-27T09:21:00Z</time></trkpt><trkpt lat="42.19958433703222" lon="13.697726042449096"><ele>855.0</ele><time>2026-04-27T09:21:01Z</time></trkpt><trkpt lat="42.1996068548466" lon="13.697618907769153"><ele>855.0</ele><time>2026-04-27T09:21:02Z</time></trkpt><trkpt lat="42.1996519823787" lon="13.697520449688513"><ele>855.0</ele><time>2026-04-27T09:21:03Z</time></trkpt><trkpt lat="42.199691304302654" lon="13.697436749341893"><ele>855.0</ele><time>2026-04-27T09:21:04Z</time></trkpt><trkpt lat="42.19975187306527" lon="13.697374322303846"><ele>853.0</ele><time>2026-04-27T09:21:05Z</time></trkpt><trkpt lat="42.19978238923672" lon="13.697289075093936"><ele>851.0</ele><time>2026-04-27T09:21:06Z</time></trkpt><trkpt lat="42.19983015962211" lon="13.697218376562875"><ele>849.0</ele><time>2026-04-27T09:21:07Z</time></trkpt><trkpt lat="42.1998736346266" lon="13.697144899646577"><ele>847.0</ele><time>2026-04-27T09:21:08Z</time></trkpt><trkpt lat="42.20000217627558" lon="13.697123883147778"><ele>845.0</ele><time>2026-04-27T09:21:10Z</time></trkpt><trkpt lat="42.200100112173345" lon="13.697101754089205"><ele>843.0</ele><time>2026-04-27T09:21:11Z</time></trkpt><trkpt lat="42.2001992862099" lon="13.69704630079347"><ele>843.5999999999999</ele><time>2026-04-27T09:21:12Z</time></trkpt><trkpt lat="42.200292495477306" lon="13.69700735424177"><ele>844.1999999999999</ele><time>2026-04-27T09:21:13Z</time></trkpt><trkpt lat="42.20036898372838" lon="13.696966021691692"><ele>844.8</ele><time>2026-04-27T09:21:14Z</time></trkpt><trkpt lat="42.20043586369739" lon="13.696984697033093"><ele>845.4</ele><time>2026-04-27T09:21:15Z</time></trkpt><trkpt lat="42.20052886389842" lon="13.696949062588473"><ele>846.0</ele><time>2026-04-27T09:21:16Z</time></trkpt><trkpt lat="42.20062879758383" lon="13.696877092818614"><ele>849.4</ele><time>2026-04-27T09:21:17Z</time></trkpt><trkpt lat="42.20075370353469" lon="13.69680885786163"><ele>852.8</ele><time>2026-04-27T09:21:18Z</time></trkpt><trkpt lat="42.20082815365012" lon="13.696718551781997"><ele>856.1999999999999</ele><time>2026-04-27T09:21:19Z</time></trkpt><trkpt lat="42.20088366332194" lon="13.69663709947291"><ele>859.5999999999999</ele><time>2026-04-27T09:21:20Z</time></trkpt><trkpt lat="42.200846306945266" lon="13.696519815931458"><ele>863.0</ele><time>2026-04-27T09:21:22Z</time></trkpt><trkpt lat="42.200770537630454" lon="13.69650840421018"><ele>863.0</ele><time>2026-04-27T09:21:23Z</time></trkpt><trkpt lat="42.20069072924299" lon="13.696568388853676"><ele>863.0</ele><time>2026-04-27T09:21:24Z</time></trkpt><trkpt lat="42.20062246259596" lon="13.696560083284702"><ele>863.0</ele><time>2026-04-27T09:21:25Z</time></trkpt><trkpt lat="42.200565196134626" lon="13.696432680060203"><ele>863.0</ele><time>2026-04-27T09:21:27Z</time></trkpt><trkpt lat="42.20044932913567" lon="13.696505484795257"><ele>863.0</ele><time>2026-04-27T09:21:29Z</time></trkpt><trkpt lat="42.20037164283444" lon="13.69652191234988"><ele>859.5999999999999</ele><time>2026-04-27T09:21:29.999Z</time></trkpt><trkpt lat="42.200316371642785" lon="13.696442365519838"><ele>856.1999999999999</ele><time>2026-04-27T09:21:31.999Z</time></trkpt><trkpt lat="42.20025299350669" lon="13.69637546294009"><ele>852.8</ele><time>2026-04-27T09:21:32.999Z</time></trkpt><trkpt lat="42.20016778000875" lon="13.696285978828831"><ele>849.4</ele><time>2026-04-27T09:21:33.999Z</time></trkpt><trkpt lat="42.20010440126464" lon="13.696229125329548"><ele>846.0</ele><time>2026-04-27T09:21:34.999Z</time></trkpt><trkpt lat="42.199950246103924" lon="13.696247139585848"><ele>846.0</ele><time>2026-04-27T09:21:36.999Z</time></trkpt><trkpt lat="42.19987893259786" lon="13.69636692167187"><ele>846.0</ele><time>2026-04-27T09:21:37.999Z</time></trkpt><trkpt lat="42.19979278667767" lon="13.696391444675653"><ele>846.0</ele><time>2026-04-27T09:21:39.999Z</time></trkpt><trkpt lat="42.199739195077946" lon="13.696305846349876"><ele>846.0</ele><time>2026-04-27T09:21:40.999Z</time></trkpt><trkpt lat="42.19966665435262" lon="13.6962022809943"><ele>846.0</ele><time>2026-04-27T09:21:41.999Z</time></trkpt><trkpt lat="42.199603539911415" lon="13.696076749214283"><ele>835.5</ele><time>2026-04-27T09:21:42.999Z</time></trkpt><trkpt lat="42.19951983457567" lon="13.695937231539567"><ele>825.0</ele><time>2026-04-27T09:21:43.999Z</time></trkpt><trkpt lat="42.19942473487054" lon="13.69580120185214"><ele>814.5</ele><time>2026-04-27T09:21:44.999Z</time></trkpt><trkpt lat="42.19935960525591" lon="13.695710732214678"><ele>804.0</ele><time>2026-04-27T09:21:45.999Z</time></trkpt><trkpt lat="42.19929030135101" lon="13.695587965045728"><ele>804.0</ele><time>2026-04-27T09:21:46.999Z</time></trkpt><trkpt lat="42.19924082273521" lon="13.695474224484588"><ele>804.0</ele><time>2026-04-27T09:21:47.999Z</time></trkpt><trkpt lat="42.19920740147237" lon="13.695345926040831"><ele>804.0</ele><time>2026-04-27T09:21:48.999Z</time></trkpt><trkpt lat="42.199185469996344" lon="13.6952347661649"><ele>804.0</ele><time>2026-04-27T09:21:49.999Z</time></trkpt><trkpt lat="42.199159049722326" lon="13.695151322049508"><ele>804.0</ele><time>2026-04-27T09:21:50.999Z</time></trkpt><trkpt lat="42.19911864797369" lon="13.695070909129873"><ele>804.0</ele><time>2026-04-27T09:21:51.999Z</time></trkpt><trkpt lat="42.19907387564032" lon="13.695001949374028"><ele>804.8333333333334</ele><time>2026-04-27T09:21:52.999Z</time></trkpt><trkpt lat="42.19902624564878" lon="13.694945023267808"><ele>805.6666666666667</ele><time>2026-04-27T09:21:53.999Z</time></trkpt><trkpt lat="42.19892168589619" lon="13.694902883699394"><ele>806.5</ele><time>2026-04-27T09:21:55.999Z</time></trkpt><trkpt lat="42.19886590720717" lon="13.694953601826592"><ele>807.3333333333334</ele><time>2026-04-27T09:21:56.999Z</time></trkpt><trkpt lat="42.1988194797291" lon="13.695035311346578"><ele>808.1666666666667</ele><time>2026-04-27T09:21:57.999Z</time></trkpt><trkpt lat="42.19879142994557" lon="13.69513623500114"><ele>809.0</ele><time>2026-04-27T09:21:58.999Z</time></trkpt><trkpt lat="42.19874686389076" lon="13.695237703936492"><ele>803.8000000000001</ele><time>2026-04-27T09:21:59.999Z</time></trkpt><trkpt lat="42.19869048641738" lon="13.69534010955839"><ele>798.6</ele><time>2026-04-27T09:22:00.999Z</time></trkpt><trkpt lat="42.198641801921276" lon="13.695427432851535"><ele>793.4</ele><time>2026-04-27T09:22:01.999Z</time></trkpt><trkpt lat="42.19856968486683" lon="13.695545924926876"><ele>788.2</ele><time>2026-04-27T09:22:03.999Z</time></trkpt><trkpt lat="42.198504238377915" lon="13.695601758083303"><ele>783.0</ele><time>2026-04-27T09:22:05.999Z</time></trkpt><trkpt lat="42.19841516235576" lon="13.69552932729946"><ele>783.0</ele><time>2026-04-27T09:22:07.999Z</time></trkpt><trkpt lat="42.19831838455391" lon="13.695472788135982"><ele>783.0</ele><time>2026-04-27T09:22:09.999Z</time></trkpt><trkpt lat="42.1982479084076" lon="13.695461597032383"><ele>783.0</ele><time>2026-04-27T09:22:10.999Z</time></trkpt><trkpt lat="42.198176903080096" lon="13.695471678134602"><ele>783.0</ele><time>2026-04-27T09:22:11.999Z</time></trkpt><trkpt lat="42.19811281634803" lon="13.695531463636199"><ele>783.0</ele><time>2026-04-27T09:22:12.999Z</time></trkpt><trkpt lat="42.19805931387677" lon="13.695598447284127"><ele>783.0</ele><time>2026-04-27T09:22:13.999Z</time></trkpt><trkpt lat="42.19800466105939" lon="13.695642415343988"><ele>779.2</ele><time>2026-04-27T09:22:14.999Z</time></trkpt><trkpt lat="42.19787764794578" lon="13.695695684967655"><ele>775.4</ele><time>2026-04-27T09:22:16.999Z</time></trkpt><trkpt lat="42.19779600794382" lon="13.69571632074117"><ele>771.6</ele><time>2026-04-27T09:22:17.999Z</time></trkpt><trkpt lat="42.19770511321292" lon="13.695738619244048"><ele>767.8000000000001</ele><time>2026-04-27T09:22:18.999Z</time></trkpt><trkpt lat="42.19762290890695" lon="13.69575878578625"><ele>764.0</ele><time>2026-04-27T09:22:19.999Z</time></trkpt><trkpt lat="42.19753664825723" lon="13.695781190658819"><ele>764.0</ele><time>2026-04-27T09:22:20.999Z</time></trkpt><trkpt lat="42.197457169521556" lon="13.695810542502594"><ele>764.0</ele><time>2026-04-27T09:22:21.999Z</time></trkpt><trkpt lat="42.197376272137454" lon="13.695839068595118"><ele>764.0</ele><time>2026-04-27T09:22:22.999Z</time></trkpt><trkpt lat="42.19729539097814" lon="13.69586722459997"><ele>764.0</ele><time>2026-04-27T09:22:23.999Z</time></trkpt><trkpt lat="42.19721294994801" lon="13.695889930926171"><ele>764.0</ele><time>2026-04-27T09:22:24.999Z</time></trkpt><trkpt lat="42.197130125540745" lon="13.695922722574592"><ele>764.0</ele><time>2026-04-27T09:22:25.999Z</time></trkpt><trkpt lat="42.19704766737534" lon="13.695959003060318"><ele>761.0</ele><time>2026-04-27T09:22:26.999Z</time></trkpt><trkpt lat="42.196965671685156" lon="13.695989365444674"><ele>758.0</ele><time>2026-04-27T09:22:27.999Z</time></trkpt><trkpt lat="42.19688602175551" lon="13.696014952140702"><ele>755.0</ele><time>2026-04-27T09:22:28.999Z</time></trkpt><trkpt lat="42.19680705086218" lon="13.696041037987964"><ele>752.0</ele><time>2026-04-27T09:22:29.999Z</time></trkpt><trkpt lat="42.1967294949676" lon="13.696066432535664"><ele>749.0</ele><time>2026-04-27T09:22:30.999Z</time></trkpt><trkpt lat="42.19665328797937" lon="13.696102023712283"><ele>746.0</ele><time>2026-04-27T09:22:31.999Z</time></trkpt><trkpt lat="42.196578822183604" lon="13.696121569905793"><ele>745.3333333333333</ele><time>2026-04-27T09:22:32.999Z</time></trkpt><trkpt lat="42.196519075339786" lon="13.696151236440047"><ele>744.6666666666666</ele><time>2026-04-27T09:22:33.998Z</time></trkpt><trkpt lat="42.196523276446264" lon="13.696279004429543"><ele>744.0</ele><time>2026-04-27T09:22:35.998Z</time></trkpt><trkpt lat="42.19646060776754" lon="13.696307813855617"><ele>743.3333333333334</ele><time>2026-04-27T09:22:38.998Z</time></trkpt><trkpt lat="42.19645946010839" lon="13.696209041318102"><ele>742.6666666666667</ele><time>2026-04-27T09:24:01.999Z</time></trkpt><trkpt lat="42.19643572763911" lon="13.696030576784059"><ele>742.0</ele><time>2026-04-27T09:24:03.999Z</time></trkpt><trkpt lat="42.19642684846306" lon="13.695911654578632"><ele>740.0</ele><time>2026-04-27T09:24:04.999Z</time></trkpt><trkpt lat="42.19641379488149" lon="13.695795473043773"><ele>738.0</ele><time>2026-04-27T09:24:05.999Z</time></trkpt><trkpt lat="42.196402716614934" lon="13.695704561162675"><ele>736.0</ele><time>2026-04-27T09:24:06.999Z</time></trkpt><trkpt lat="42.196389394826376" lon="13.695582082549985"><ele>734.0</ele><time>2026-04-27T09:24:08.999Z</time></trkpt><trkpt lat="42.196342986860586" lon="13.695453436085954"><ele>732.0</ele><time>2026-04-27T09:24:10.999Z</time></trkpt><trkpt lat="42.19632705678621" lon="13.6953622290843"><ele>730.0</ele><time>2026-04-27T09:24:11.999Z</time></trkpt><trkpt lat="42.19631144358573" lon="13.695260863242005"><ele>730.5</ele><time>2026-04-27T09:24:12.999Z</time></trkpt><trkpt lat="42.196299424629274" lon="13.695153775527219"><ele>731.0</ele><time>2026-04-27T09:24:13.999Z</time></trkpt><trkpt lat="42.196273708453816" lon="13.695051033444916"><ele>731.5</ele><time>2026-04-27T09:24:14.999Z</time></trkpt><trkpt lat="42.196265203533166" lon="13.694935812655064"><ele>732.0</ele><time>2026-04-27T09:24:15.999Z</time></trkpt><trkpt lat="42.19626474568831" lon="13.694838648540054"><ele>732.5</ele><time>2026-04-27T09:24:16.999Z</time></trkpt><trkpt lat="42.19625235802141" lon="13.694736356420243"><ele>733.0</ele><time>2026-04-27T09:24:17.999Z</time></trkpt><trkpt lat="42.196230563624425" lon="13.694609202148076"><ele>733.0</ele><time>2026-04-27T09:24:18.999Z</time></trkpt><trkpt lat="42.196191269230326" lon="13.694486293755952"><ele>733.0</ele><time>2026-04-27T09:24:19.999Z</time></trkpt><trkpt lat="42.196148862319085" lon="13.694375689167938"><ele>733.0</ele><time>2026-04-27T09:24:20.999Z</time></trkpt><trkpt lat="42.19611407485889" lon="13.694268418504855"><ele>733.0</ele><time>2026-04-27T09:24:21.999Z</time></trkpt><trkpt lat="42.19608564744562" lon="13.694176788737833"><ele>733.0</ele><time>2026-04-27T09:24:22.999Z</time></trkpt><trkpt lat="42.19605578032101" lon="13.694079412049042"><ele>733.0</ele><time>2026-04-27T09:24:23.999Z</time></trkpt><trkpt lat="42.1960282972772" lon="13.693965709457629"><ele>732.5999999999999</ele><time>2026-04-27T09:24:24.999Z</time></trkpt><trkpt lat="42.19598764159842" lon="13.69385312494285"><ele>732.1999999999999</ele><time>2026-04-27T09:24:25.999Z</time></trkpt><trkpt lat="42.19595161879773" lon="13.693743655205905"><ele>731.8</ele><time>2026-04-27T09:24:26.999Z</time></trkpt><trkpt lat="42.19595871072176" lon="13.693594403839098"><ele>731.4</ele><time>2026-04-27T09:24:27.999Z</time></trkpt><trkpt lat="42.19594353963822" lon="13.693473203148969"><ele>731.0</ele><time>2026-04-27T09:24:28.999Z</time></trkpt><trkpt lat="42.195935723509585" lon="13.693368455825714"><ele>729.8333333333333</ele><time>2026-04-27T09:24:29.999Z</time></trkpt><trkpt lat="42.19593100749852" lon="13.69324549757348"><ele>728.6666666666666</ele><time>2026-04-27T09:24:30.999Z</time></trkpt><trkpt lat="42.19591897646569" lon="13.69312908221385"><ele>727.5</ele><time>2026-04-27T09:24:31.999Z</time></trkpt><trkpt lat="42.19590133535939" lon="13.693015083073654"><ele>726.3333333333334</ele><time>2026-04-27T09:24:32.999Z</time></trkpt><trkpt lat="42.195879833973166" lon="13.692896460520567"><ele>725.1666666666667</ele><time>2026-04-27T09:24:33.999Z</time></trkpt><trkpt lat="42.195863043387504" lon="13.692780520611826"><ele>724.0</ele><time>2026-04-27T09:24:34.999Z</time></trkpt><trkpt lat="42.19585080017568" lon="13.692666891559421"><ele>721.5</ele><time>2026-04-27T09:24:35.999Z</time></trkpt><trkpt lat="42.19585694010856" lon="13.69254172612219"><ele>719.0</ele><time>2026-04-27T09:24:36.999Z</time></trkpt><trkpt lat="42.19585590726649" lon="13.692392143191295"><ele>716.5</ele><time>2026-04-27T09:24:37.999Z</time></trkpt><trkpt lat="42.195844176957266" lon="13.692193548610938"><ele>714.0</ele><time>2026-04-27T09:24:38.998Z</time></trkpt><trkpt lat="42.19585898781617" lon="13.692057124833093"><ele>712.6</ele><time>2026-04-27T09:24:39.998Z</time></trkpt><trkpt lat="42.195855438648096" lon="13.691908922016788"><ele>711.2</ele><time>2026-04-27T09:24:40.998Z</time></trkpt><trkpt lat="42.19585610653903" lon="13.691771301065701"><ele>709.8000000000001</ele><time>2026-04-27T09:24:41.998Z</time></trkpt><trkpt lat="42.195858392552964" lon="13.691631029825615"><ele>708.4000000000001</ele><time>2026-04-27T09:24:42.998Z</time></trkpt><trkpt lat="42.19585360879589" lon="13.691501561015484"><ele>707.0</ele><time>2026-04-27T09:24:43.998Z</time></trkpt><trkpt lat="42.19583352633867" lon="13.691393076668788"><ele>707.0</ele><time>2026-04-27T09:24:44.998Z</time></trkpt><trkpt lat="42.19580118210277" lon="13.691301659242857"><ele>707.0</ele><time>2026-04-27T09:24:45.998Z</time></trkpt><trkpt lat="42.195743778253835" lon="13.691229545015146"><ele>707.0</ele><time>2026-04-27T09:24:46.998Z</time></trkpt><trkpt lat="42.19571932086196" lon="13.691148295198417"><ele>707.0</ele><time>2026-04-27T09:24:47.998Z</time></trkpt><trkpt lat="42.195692028051205" lon="13.691048694575668"><ele>707.0</ele><time>2026-04-27T09:24:48.998Z</time></trkpt><trkpt lat="42.195630799220645" lon="13.690946940287075"><ele>707.0</ele><time>2026-04-27T09:24:49.998Z</time></trkpt><trkpt lat="42.195563188579335" lon="13.69086214539353"><ele>704.0</ele><time>2026-04-27T09:24:50.998Z</time></trkpt><trkpt lat="42.19547376778941" lon="13.690794152058157"><ele>701.0</ele><time>2026-04-27T09:24:51.998Z</time></trkpt><trkpt lat="42.19539262525353" lon="13.69075545788118"><ele>698.0</ele><time>2026-04-27T09:24:52.998Z</time></trkpt><trkpt lat="42.19530236837826" lon="13.690700889746743"><ele>695.0</ele><time>2026-04-27T09:24:53.998Z</time></trkpt><trkpt lat="42.195217455544906" lon="13.690702406232395"><ele>692.0</ele><time>2026-04-27T09:24:54.998Z</time></trkpt><trkpt lat="42.19511903687802" lon="13.6906695724615"><ele>692.0</ele><time>2026-04-27T09:24:55.998Z</time></trkpt><trkpt lat="42.19501832913626" lon="13.690621213247189"><ele>692.0</ele><time>2026-04-27T09:24:56.998Z</time></trkpt><trkpt lat="42.19490662965087" lon="13.69057670718787"><ele>692.0</ele><time>2026-04-27T09:24:57.998Z</time></trkpt><trkpt lat="42.19479034864305" lon="13.690548608970527"><ele>692.0</ele><time>2026-04-27T09:24:58.998Z</time></trkpt><trkpt lat="42.19468133046623" lon="13.690525694076872"><ele>689.6</ele><time>2026-04-27T09:24:59.998Z</time></trkpt><trkpt lat="42.19457320731673" lon="13.690494431043025"><ele>687.2</ele><time>2026-04-27T09:25:00.998Z</time></trkpt><trkpt lat="42.1944657311683" lon="13.690444150329137"><ele>684.8</ele><time>2026-04-27T09:25:01.998Z</time></trkpt><trkpt lat="42.19436889399074" lon="13.690376476760935"><ele>682.4</ele><time>2026-04-27T09:25:02.998Z</time></trkpt><trkpt lat="42.19428319732287" lon="13.690289063092413"><ele>680.0</ele><time>2026-04-27T09:25:03.998Z</time></trkpt><trkpt lat="42.19420967662575" lon="13.690186245367386"><ele>679.4</ele><time>2026-04-27T09:25:05Z</time></trkpt><trkpt lat="42.19413637354417" lon="13.690084263577603"><ele>678.8</ele><time>2026-04-27T09:25:06Z</time></trkpt><trkpt lat="42.19405877753777" lon="13.689973974152993"><ele>678.2</ele><time>2026-04-27T09:25:07Z</time></trkpt><trkpt lat="42.19399954647073" lon="13.689849869692626"><ele>677.6</ele><time>2026-04-27T09:25:08Z</time></trkpt><trkpt lat="42.193953165919226" lon="13.689726102824103"><ele>677.0</ele><time>2026-04-27T09:25:09Z</time></trkpt><trkpt lat="42.19391611067892" lon="13.689610435867149"><ele>675.0</ele><time>2026-04-27T09:25:10Z</time></trkpt><trkpt lat="42.193863301466266" lon="13.689519736391455"><ele>673.0</ele><time>2026-04-27T09:25:11Z</time></trkpt><trkpt lat="42.19379540270705" lon="13.689460494960532"><ele>671.0</ele><time>2026-04-27T09:25:12Z</time></trkpt><trkpt lat="42.193718003450854" lon="13.689430919518825"><ele>669.0</ele><time>2026-04-27T09:25:13Z</time></trkpt><trkpt lat="42.193644343030286" lon="13.689436105752334"><ele>667.0</ele><time>2026-04-27T09:25:14Z</time></trkpt><trkpt lat="42.19357690949052" lon="13.68944981549593"><ele>665.0</ele><time>2026-04-27T09:25:15Z</time></trkpt><trkpt lat="42.19347819030214" lon="13.68944897479356"><ele>665.2</ele><time>2026-04-27T09:25:17Z</time></trkpt><trkpt lat="42.193414442486166" lon="13.689352298733498"><ele>665.4</ele><time>2026-04-27T09:25:20Z</time></trkpt><trkpt lat="42.1933738490501" lon="13.68923659300434"><ele>665.5999999999999</ele><time>2026-04-27T09:25:22Z</time></trkpt><trkpt lat="42.19329525042176" lon="13.689124590165411"><ele>665.8</ele><time>2026-04-27T09:25:24Z</time></trkpt><trkpt lat="42.19320487374277" lon="13.689023037219615"><ele>666.0</ele><time>2026-04-27T09:25:26Z</time></trkpt><trkpt lat="42.193162664461674" lon="13.68895001658806"><ele>666.0</ele><time>2026-04-27T09:25:27Z</time></trkpt><trkpt lat="42.193130602989655" lon="13.688864280532659"><ele>666.0</ele><time>2026-04-27T09:25:28Z</time></trkpt><trkpt lat="42.19310738761621" lon="13.68875302728962"><ele>666.0</ele><time>2026-04-27T09:25:29Z</time></trkpt><trkpt lat="42.193086156783686" lon="13.688628375482285"><ele>666.0</ele><time>2026-04-27T09:25:30Z</time></trkpt><trkpt lat="42.19306310425817" lon="13.688498962001344"><ele>666.0</ele><time>2026-04-27T09:25:31Z</time></trkpt><trkpt lat="42.19304320023605" lon="13.688371296742236"><ele>666.0</ele><time>2026-04-27T09:25:32Z</time></trkpt><trkpt lat="42.19303706559166" lon="13.688234688698405"><ele>668.0</ele><time>2026-04-27T09:25:33Z</time></trkpt><trkpt lat="42.19304757448917" lon="13.68808728557368"><ele>670.0</ele><time>2026-04-27T09:25:34Z</time></trkpt><trkpt lat="42.19307644980237" lon="13.687952390369603"><ele>672.0</ele><time>2026-04-27T09:25:35Z</time></trkpt><trkpt lat="42.19308906757889" lon="13.687828222473039"><ele>674.0</ele><time>2026-04-27T09:25:36Z</time></trkpt><trkpt lat="42.19308910862633" lon="13.687723809183547"><ele>676.0</ele><time>2026-04-27T09:25:36.999Z</time></trkpt><trkpt lat="42.19305935389926" lon="13.687592847793912"><ele>676.1999999999999</ele><time>2026-04-27T09:25:37.999Z</time></trkpt><trkpt lat="42.19301127925371" lon="13.687454274256927"><ele>676.4</ele><time>2026-04-27T09:25:38.999Z</time></trkpt><trkpt lat="42.192969004669635" lon="13.687330863694449"><ele>676.6</ele><time>2026-04-27T09:25:39.999Z</time></trkpt><trkpt lat="42.19294834726145" lon="13.687221296473183"><ele>676.8</ele><time>2026-04-27T09:25:40.999Z</time></trkpt><trkpt lat="42.19293897054543" lon="13.687095366567503"><ele>677.0</ele><time>2026-04-27T09:25:41.999Z</time></trkpt><trkpt lat="42.19295435479002" lon="13.686965906560188"><ele>676.5</ele><time>2026-04-27T09:25:42.999Z</time></trkpt><trkpt lat="42.19298535895077" lon="13.686834812517398"><ele>676.0</ele><time>2026-04-27T09:25:43.999Z</time></trkpt><trkpt lat="42.19302552392372" lon="13.68669185065275"><ele>675.5</ele><time>2026-04-27T09:25:44.999Z</time></trkpt><trkpt lat="42.193060611552745" lon="13.686537173947876"><ele>675.0</ele><time>2026-04-27T09:25:45.999Z</time></trkpt><trkpt lat="42.193092821031215" lon="13.686375199785077"><ele>675.0</ele><time>2026-04-27T09:25:46.999Z</time></trkpt><trkpt lat="42.19313349298949" lon="13.686220025757066"><ele>675.0</ele><time>2026-04-27T09:25:47.999Z</time></trkpt><trkpt lat="42.19317700309619" lon="13.686076403535601"><ele>675.0</ele><time>2026-04-27T09:25:48.999Z</time></trkpt><trkpt lat="42.19320631533428" lon="13.685932902555887"><ele>675.0</ele><time>2026-04-27T09:25:49.999Z</time></trkpt><trkpt lat="42.19320783725404" lon="13.685799501062908"><ele>675.0</ele><time>2026-04-27T09:25:50.999Z</time></trkpt><trkpt lat="42.193189861430035" lon="13.685660421850006"><ele>674.8</ele><time>2026-04-27T09:25:51.999Z</time></trkpt><trkpt lat="42.193158377368796" lon="13.685527494438114"><ele>674.6</ele><time>2026-04-27T09:25:52.999Z</time></trkpt><trkpt lat="42.19314188346433" lon="13.685395859580888"><ele>674.4000000000001</ele><time>2026-04-27T09:25:53.999Z</time></trkpt><trkpt lat="42.19314899807926" lon="13.685244706048334"><ele>674.2</ele><time>2026-04-27T09:25:54.999Z</time></trkpt><trkpt lat="42.19317196026947" lon="13.685099146725346"><ele>674.0</ele><time>2026-04-27T09:25:55.999Z</time></trkpt><trkpt lat="42.193195955112664" lon="13.684955530839641"><ele>674.0</ele><time>2026-04-27T09:25:56.999Z</time></trkpt><trkpt lat="42.193201598104686" lon="13.684797768357836"><ele>674.0</ele><time>2026-04-27T09:25:57.999Z</time></trkpt><trkpt lat="42.19317467282863" lon="13.68464139560263"><ele>674.0</ele><time>2026-04-27T09:25:58.999Z</time></trkpt><trkpt lat="42.19313794879692" lon="13.684476544959153"><ele>674.0</ele><time>2026-04-27T09:25:59.999Z</time></trkpt><trkpt lat="42.19309478612131" lon="13.684311382477228"><ele>670.75</ele><time>2026-04-27T09:26:00.999Z</time></trkpt><trkpt lat="42.193054340203" lon="13.684144743798731"><ele>667.5</ele><time>2026-04-27T09:26:01.999Z</time></trkpt><trkpt lat="42.19301864945347" lon="13.68397448711321"><ele>664.25</ele><time>2026-04-27T09:26:02.999Z</time></trkpt><trkpt lat="42.19298585483639" lon="13.683810063031176"><ele>661.0</ele><time>2026-04-27T09:26:03.999Z</time></trkpt><trkpt lat="42.19294332219917" lon="13.683623717288135"><ele>661.75</ele><time>2026-04-27T09:26:04.999Z</time></trkpt><trkpt lat="42.19290809840585" lon="13.683479199345745"><ele>662.5</ele><time>2026-04-27T09:26:05.999Z</time></trkpt><trkpt lat="42.19287759160883" lon="13.683326344046039"><ele>663.25</ele><time>2026-04-27T09:26:06.999Z</time></trkpt><trkpt lat="42.19284960596897" lon="13.683155387917164"><ele>664.0</ele><time>2026-04-27T09:26:07.999Z</time></trkpt><trkpt lat="42.192829022199874" lon="13.682982920877812"><ele>664.0</ele><time>2026-04-27T09:26:08.999Z</time></trkpt><trkpt lat="42.19280239160237" lon="13.682814771889621"><ele>664.0</ele><time>2026-04-27T09:26:09.999Z</time></trkpt><trkpt lat="42.19277593553738" lon="13.68266112152097"><ele>664.0</ele><time>2026-04-27T09:26:10.999Z</time></trkpt><trkpt lat="42.19274905481852" lon="13.682519526581583"><ele>664.0</ele><time>2026-04-27T09:26:11.999Z</time></trkpt><trkpt lat="42.19272529155745" lon="13.682402076386515"><ele>664.0</ele><time>2026-04-27T09:26:12.999Z</time></trkpt><trkpt lat="42.19270470287703" lon="13.682310014418436"><ele>664.2</ele><time>2026-04-27T09:26:13.999Z</time></trkpt><trkpt lat="42.19267741347418" lon="13.682219859993515"><ele>664.4000000000001</ele><time>2026-04-27T09:26:14.999Z</time></trkpt><trkpt lat="42.19263549423162" lon="13.682074839629113"><ele>664.6</ele><time>2026-04-27T09:26:16.999Z</time></trkpt><trkpt lat="42.19265789352829" lon="13.681902547244256"><ele>664.8</ele><time>2026-04-27T09:26:18.999Z</time></trkpt><trkpt lat="42.19269960928025" lon="13.68179293528379"><ele>665.0</ele><time>2026-04-27T09:26:19.999Z</time></trkpt><trkpt lat="42.19272507942092" lon="13.681685861229823"><ele>665.0</ele><time>2026-04-27T09:26:20.999Z</time></trkpt><trkpt lat="42.192766546024124" lon="13.681543201584153"><ele>665.0</ele><time>2026-04-27T09:26:22.999Z</time></trkpt><trkpt lat="42.19275929934982" lon="13.681427814038564"><ele>665.0</ele><time>2026-04-27T09:26:24.999Z</time></trkpt><trkpt lat="42.19276999688146" lon="13.681339959804092"><ele>665.0</ele><time>2026-04-27T09:26:26.999Z</time></trkpt><trkpt lat="42.19277301658493" lon="13.681252898597988"><ele>665.0</ele><time>2026-04-27T09:26:27.999Z</time></trkpt><trkpt lat="42.19277061457224" lon="13.681164302317768"><ele>665.0</ele><time>2026-04-27T09:26:28.999Z</time></trkpt><trkpt lat="42.192821039541045" lon="13.681067346186271"><ele>662.4</ele><time>2026-04-27T09:26:30.999Z</time></trkpt><trkpt lat="42.1929372453945" lon="13.680968753573323"><ele>659.8</ele><time>2026-04-27T09:26:32.999Z</time></trkpt><trkpt lat="42.19299611322511" lon="13.680906764080374"><ele>657.2</ele><time>2026-04-27T09:26:33.999Z</time></trkpt><trkpt lat="42.19305306035051" lon="13.680837410412565"><ele>654.6</ele><time>2026-04-27T09:26:34.999Z</time></trkpt><trkpt lat="42.193107597116736" lon="13.68072279632528"><ele>652.0</ele><time>2026-04-27T09:26:36.999Z</time></trkpt><trkpt lat="42.19308138913814" lon="13.680635893076655"><ele>652.0</ele><time>2026-04-27T09:26:37.999Z</time></trkpt><trkpt lat="42.193047319702416" lon="13.68054852583332"><ele>652.0</ele><time>2026-04-27T09:26:38.999Z</time></trkpt><trkpt lat="42.193008751490005" lon="13.680470871185358"><ele>652.0</ele><time>2026-04-27T09:26:39.998Z</time></trkpt><trkpt lat="42.19298807136923" lon="13.680373473290544"><ele>652.0</ele><time>2026-04-27T09:26:40.998Z</time></trkpt><trkpt lat="42.19298034459929" lon="13.680276778139934"><ele>652.0</ele><time>2026-04-27T09:26:41.998Z</time></trkpt><trkpt lat="42.19298814283682" lon="13.68018240770569"><ele>652.0</ele><time>2026-04-27T09:26:42.998Z</time></trkpt><trkpt lat="42.1929912795624" lon="13.680095267058261"><ele>652.0</ele><time>2026-04-27T09:26:43.998Z</time></trkpt><trkpt lat="42.19296452210936" lon="13.679951498465803"><ele>649.2</ele><time>2026-04-27T09:26:45.998Z</time></trkpt><trkpt lat="42.192972088445515" lon="13.679858276074084"><ele>646.4000000000001</ele><time>2026-04-27T09:26:46.998Z</time></trkpt><trkpt lat="42.19299896977781" lon="13.679739972642171"><ele>643.5999999999999</ele><time>2026-04-27T09:26:47.998Z</time></trkpt><trkpt lat="42.19303475840389" lon="13.67961339626772"><ele>640.8</ele><time>2026-04-27T09:26:48.998Z</time></trkpt><trkpt lat="42.19308903942932" lon="13.679482892355843"><ele>638.0</ele><time>2026-04-27T09:26:49.998Z</time></trkpt><trkpt lat="42.193154135153335" lon="13.679353576563448"><ele>640.5</ele><time>2026-04-27T09:26:50.998Z</time></trkpt><trkpt lat="42.193235246955474" lon="13.679221286218167"><ele>643.0</ele><time>2026-04-27T09:26:51.998Z</time></trkpt><trkpt lat="42.19333155022331" lon="13.679073227189287"><ele>645.5</ele><time>2026-04-27T09:26:52.998Z</time></trkpt><trkpt lat="42.19343617902411" lon="13.678924349440619"><ele>648.0</ele><time>2026-04-27T09:26:53.998Z</time></trkpt><trkpt lat="42.193533677821435" lon="13.67877534926342"><ele>648.0</ele><time>2026-04-27T09:26:54.998Z</time></trkpt><trkpt lat="42.19363474220599" lon="13.678621141807023"><ele>648.0</ele><time>2026-04-27T09:26:55.998Z</time></trkpt><trkpt lat="42.193741541738476" lon="13.67846283454101"><ele>648.0</ele><time>2026-04-27T09:26:56.998Z</time></trkpt><trkpt lat="42.19385077804919" lon="13.678294725582521"><ele>649.3333333333334</ele><time>2026-04-27T09:26:57.998Z</time></trkpt><trkpt lat="42.19396102911155" lon="13.678124182145465"><ele>650.6666666666667</ele><time>2026-04-27T09:26:58.998Z</time></trkpt><trkpt lat="42.19407273768063" lon="13.677950716365961"><ele>652.0</ele><time>2026-04-27T09:26:59.998Z</time></trkpt><trkpt lat="42.19418778675201" lon="13.67777158456429"><ele>649.0</ele><time>2026-04-27T09:27:00.998Z</time></trkpt><trkpt lat="42.19430390147498" lon="13.677590157050362"><ele>646.0</ele><time>2026-04-27T09:27:01.998Z</time></trkpt><trkpt lat="42.19442114035597" lon="13.677405422782016"><ele>643.0</ele><time>2026-04-27T09:27:02.998Z</time></trkpt><trkpt lat="42.194539321840956" lon="13.677219819639566"><ele>643.0</ele><time>2026-04-27T09:27:03.998Z</time></trkpt><trkpt lat="42.19464921815185" lon="13.677028444026627"><ele>643.0</ele><time>2026-04-27T09:27:04.998Z</time></trkpt><trkpt lat="42.194751127458986" lon="13.676826962015243"><ele>643.0</ele><time>2026-04-27T09:27:05.998Z</time></trkpt><trkpt lat="42.194846353117164" lon="13.676619849128778"><ele>642.0</ele><time>2026-04-27T09:27:06.998Z</time></trkpt><trkpt lat="42.1949353559747" lon="13.676410727665543"><ele>641.0</ele><time>2026-04-27T09:27:07.998Z</time></trkpt><trkpt lat="42.195025836583234" lon="13.676205312300032"><ele>640.0</ele><time>2026-04-27T09:27:08.998Z</time></trkpt><trkpt lat="42.19511284857617" lon="13.676012750325473"><ele>640.0</ele><time>2026-04-27T09:27:09.998Z</time></trkpt><trkpt lat="42.19520716662224" lon="13.675834000017645"><ele>640.0</ele><time>2026-04-27T09:27:11Z</time></trkpt><trkpt lat="42.195320829850104" lon="13.675675430073628"><ele>640.0</ele><time>2026-04-27T09:27:12Z</time></trkpt><trkpt lat="42.195456023195725" lon="13.675544324549927"><ele>640.0</ele><time>2026-04-27T09:27:13Z</time></trkpt><trkpt lat="42.195598402092564" lon="13.675418072108535"><ele>640.0</ele><time>2026-04-27T09:27:14Z</time></trkpt><trkpt lat="42.195748672062805" lon="13.675295078805396"><ele>640.0</ele><time>2026-04-27T09:27:15Z</time></trkpt><trkpt lat="42.19589624898655" lon="13.67516911513748"><ele>639.6666666666667</ele><time>2026-04-27T09:27:16Z</time></trkpt><trkpt lat="42.196039716122044" lon="13.675020270053855"><ele>639.3333333333334</ele><time>2026-04-27T09:27:17Z</time></trkpt><trkpt lat="42.19617248865185" lon="13.674851326071593"><ele>639.0</ele><time>2026-04-27T09:27:18Z</time></trkpt><trkpt lat="42.19629461099736" lon="13.674661206108802"><ele>639.0</ele><time>2026-04-27T09:27:19Z</time></trkpt><trkpt lat="42.19641175541619" lon="13.674462886843587"><ele>639.0</ele><time>2026-04-27T09:27:20Z</time></trkpt><trkpt lat="42.19652911328456" lon="13.674263808909423"><ele>639.0</ele><time>2026-04-27T09:27:21Z</time></trkpt><trkpt lat="42.19664561262154" lon="13.674061514742275"><ele>638.0</ele><time>2026-04-27T09:27:22Z</time></trkpt><trkpt lat="42.19676513986968" lon="13.673857968825788"><ele>637.0</ele><time>2026-04-27T09:27:23Z</time></trkpt><trkpt lat="42.196890242831984" lon="13.673660750298623"><ele>636.0</ele><time>2026-04-27T09:27:24Z</time></trkpt><trkpt lat="42.19700752344716" lon="13.673464851163896"><ele>633.0</ele><time>2026-04-27T09:27:25Z</time></trkpt><trkpt lat="42.1970967047612" lon="13.673257205841649"><ele>630.0</ele><time>2026-04-27T09:27:26Z</time></trkpt><trkpt lat="42.19715907075355" lon="13.673062634880383"><ele>627.0</ele><time>2026-04-27T09:27:27Z</time></trkpt><trkpt lat="42.19721043380784" lon="13.672877698252744"><ele>628.0</ele><time>2026-04-27T09:27:28Z</time></trkpt><trkpt lat="42.19726940171351" lon="13.672710607880937"><ele>629.0</ele><time>2026-04-27T09:27:29Z</time></trkpt><trkpt lat="42.197352139014455" lon="13.672566163648577"><ele>630.0</ele><time>2026-04-27T09:27:30Z</time></trkpt><trkpt lat="42.19745358206713" lon="13.67244291307732"><ele>631.0</ele><time>2026-04-27T09:27:31Z</time></trkpt><trkpt lat="42.19757379544042" lon="13.672357886113536"><ele>631.0</ele><time>2026-04-27T09:27:32Z</time></trkpt><trkpt lat="42.1977034406881" lon="13.672319005446429"><ele>631.0</ele><time>2026-04-27T09:27:33Z</time></trkpt><trkpt lat="42.197831813155645" lon="13.67231697251185"><ele>631.0</ele><time>2026-04-27T09:27:34Z</time></trkpt><trkpt lat="42.19796663037917" lon="13.672355601408116"><ele>631.0</ele><time>2026-04-27T09:27:35Z</time></trkpt><trkpt lat="42.19810302843303" lon="13.672425826710182"><ele>632.5</ele><time>2026-04-27T09:27:36Z</time></trkpt><trkpt lat="42.19824737603221" lon="13.672477269819138"><ele>634.0</ele><time>2026-04-27T09:27:37Z</time></trkpt><trkpt lat="42.19838624690169" lon="13.672499089677551"><ele>635.5</ele><time>2026-04-27T09:27:38Z</time></trkpt><trkpt lat="42.19850454863556" lon="13.672488551005836"><ele>637.0</ele><time>2026-04-27T09:27:39Z</time></trkpt><trkpt lat="42.1986087599968" lon="13.672430312469231"><ele>637.0</ele><time>2026-04-27T09:27:39.999Z</time></trkpt><trkpt lat="42.1986981338647" lon="13.672330386569243"><ele>637.0</ele><time>2026-04-27T09:27:40.999Z</time></trkpt><trkpt lat="42.19874651777968" lon="13.672204692287071"><ele>637.0</ele><time>2026-04-27T09:27:41.999Z</time></trkpt><trkpt lat="42.19874158403342" lon="13.672049522389734"><ele>637.0</ele><time>2026-04-27T09:27:42.999Z</time></trkpt><trkpt lat="42.1987123034035" lon="13.671910651694471"><ele>637.0</ele><time>2026-04-27T09:27:43.999Z</time></trkpt><trkpt lat="42.198689433197266" lon="13.671767013876702"><ele>633.0</ele><time>2026-04-27T09:27:44.999Z</time></trkpt><trkpt lat="42.19870335012592" lon="13.671613290566842"><ele>629.0</ele><time>2026-04-27T09:27:45.999Z</time></trkpt><trkpt lat="42.198748946268246" lon="13.671461294065033"><ele>625.0</ele><time>2026-04-27T09:27:46.999Z</time></trkpt><trkpt lat="42.19881290323159" lon="13.671312673314885"><ele>621.0</ele><time>2026-04-27T09:27:47.999Z</time></trkpt><trkpt lat="42.1988951093978" lon="13.671179954590668"><ele>624.25</ele><time>2026-04-27T09:27:48.999Z</time></trkpt><trkpt lat="42.199002236040755" lon="13.671069761628926"><ele>627.5</ele><time>2026-04-27T09:27:49.999Z</time></trkpt><trkpt lat="42.199109953023715" lon="13.670950917866843"><ele>630.75</ele><time>2026-04-27T09:27:50.999Z</time></trkpt><trkpt lat="42.19919774865543" lon="13.670815280623614"><ele>634.0</ele><time>2026-04-27T09:27:51.999Z</time></trkpt><trkpt lat="42.19926965046525" lon="13.670645135646005"><ele>634.0</ele><time>2026-04-27T09:27:52.999Z</time></trkpt><trkpt lat="42.19933684143956" lon="13.670451812492182"><ele>634.0</ele><time>2026-04-27T09:27:53.999Z</time></trkpt><trkpt lat="42.199407146713945" lon="13.67024979617685"><ele>634.0</ele><time>2026-04-27T09:27:54.999Z</time></trkpt><trkpt lat="42.19949411176405" lon="13.670066165080557"><ele>629.3333333333334</ele><time>2026-04-27T09:27:55.999Z</time></trkpt><trkpt lat="42.199601709111974" lon="13.669901892883088"><ele>624.6666666666666</ele><time>2026-04-27T09:27:56.999Z</time></trkpt><trkpt lat="42.19972537924079" lon="13.669747811195696"><ele>620.0</ele><time>2026-04-27T09:27:57.999Z</time></trkpt><trkpt lat="42.19985449521726" lon="13.669598087162838"><ele>623.3333333333333</ele><time>2026-04-27T09:27:58.999Z</time></trkpt><trkpt lat="42.19998228510746" lon="13.669455081686698"><ele>626.6666666666666</ele><time>2026-04-27T09:27:59.999Z</time></trkpt><trkpt lat="42.20009687229846" lon="13.669325605372885"><ele>630.0</ele><time>2026-04-27T09:28:00.999Z</time></trkpt><trkpt lat="42.20019910974517" lon="13.669199213007918"><ele>630.0</ele><time>2026-04-27T09:28:01.999Z</time></trkpt><trkpt lat="42.200281591627025" lon="13.669053800068383"><ele>630.0</ele><time>2026-04-27T09:28:02.999Z</time></trkpt><trkpt lat="42.200339903694896" lon="13.668906663843348"><ele>630.0</ele><time>2026-04-27T09:28:03.999Z</time></trkpt><trkpt lat="42.2003883482189" lon="13.668770357004966"><ele>630.0</ele><time>2026-04-27T09:28:04.999Z</time></trkpt><trkpt lat="42.20042774864824" lon="13.668654525744282"><ele>630.0</ele><time>2026-04-27T09:28:05.999Z</time></trkpt><trkpt lat="42.20045202688114" lon="13.668559701631745"><ele>630.0</ele><time>2026-04-27T09:28:06.999Z</time></trkpt><trkpt lat="42.200442683046184" lon="13.668454102574723"><ele>630.0</ele><time>2026-04-27T09:28:08.999Z</time></trkpt><trkpt lat="42.20035553252993" lon="13.668438111163368"><ele>630.0</ele><time>2026-04-27T09:28:10.999Z</time></trkpt><trkpt lat="42.20027744968194" lon="13.6685116625043"><ele>630.0</ele><time>2026-04-27T09:28:11.999Z</time></trkpt><trkpt lat="42.200193458030206" lon="13.66856557564861"><ele>630.0</ele><time>2026-04-27T09:28:12.999Z</time></trkpt><trkpt lat="42.200100453540614" lon="13.668645111006105"><ele>630.0</ele><time>2026-04-27T09:28:13.999Z</time></trkpt><trkpt lat="42.20001581359199" lon="13.668740389777193"><ele>630.0</ele><time>2026-04-27T09:28:14.999Z</time></trkpt><trkpt lat="42.19992649350275" lon="13.668852422015705"><ele>630.0</ele><time>2026-04-27T09:28:15.999Z</time></trkpt><trkpt lat="42.199836709190926" lon="13.668984276839828"><ele>630.0</ele><time>2026-04-27T09:28:16.999Z</time></trkpt><trkpt lat="42.19974788866995" lon="13.669106530979919"><ele>628.3333333333334</ele><time>2026-04-27T09:28:17.999Z</time></trkpt><trkpt lat="42.19967912153564" lon="13.669216994237967"><ele>626.6666666666666</ele><time>2026-04-27T09:28:18.999Z</time></trkpt><trkpt lat="42.19962611991871" lon="13.669332232740125"><ele>625.0</ele><time>2026-04-27T09:28:19.999Z</time></trkpt><trkpt lat="42.19957497683861" lon="13.669428184213455"><ele>623.3333333333333</ele><time>2026-04-27T09:28:20.999Z</time></trkpt><trkpt lat="42.19952580261637" lon="13.669491645827362"><ele>621.6666666666666</ele><time>2026-04-27T09:28:21.999Z</time></trkpt><trkpt lat="42.19947338541059" lon="13.66954088423338"><ele>620.0</ele><time>2026-04-27T09:28:22.999Z</time></trkpt><trkpt lat="42.19940163059386" lon="13.66953144674567"><ele>620.0</ele><time>2026-04-27T09:28:24.999Z</time></trkpt><trkpt lat="42.199375905989974" lon="13.66945187323131"><ele>620.0</ele><time>2026-04-27T09:28:25.999Z</time></trkpt><trkpt lat="42.199373734444535" lon="13.669333223207541"><ele>620.0</ele><time>2026-04-27T09:28:26.999Z</time></trkpt><trkpt lat="42.19940321874935" lon="13.669180179635804"><ele>620.0</ele><time>2026-04-27T09:28:27.999Z</time></trkpt><trkpt lat="42.199425229738814" lon="13.669027904777243"><ele>620.0</ele><time>2026-04-27T09:28:28.999Z</time></trkpt><trkpt lat="42.19944555459632" lon="13.668856920537046"><ele>616.5</ele><time>2026-04-27T09:28:29.999Z</time></trkpt><trkpt lat="42.19944627626537" lon="13.668695484561509"><ele>613.0</ele><time>2026-04-27T09:28:30.999Z</time></trkpt><trkpt lat="42.19942547299347" lon="13.668523805963636"><ele>609.5</ele><time>2026-04-27T09:28:31.999Z</time></trkpt><trkpt lat="42.19938529221493" lon="13.66835415022321"><ele>606.0</ele><time>2026-04-27T09:28:32.999Z</time></trkpt><trkpt lat="42.19933216470758" lon="13.668187998878352"><ele>606.5</ele><time>2026-04-27T09:28:33.999Z</time></trkpt><trkpt lat="42.19927866406408" lon="13.668016877441875"><ele>607.0</ele><time>2026-04-27T09:28:34.999Z</time></trkpt><trkpt lat="42.1992387716911" lon="13.667842989277846"><ele>607.5</ele><time>2026-04-27T09:28:35.999Z</time></trkpt><trkpt lat="42.19920931537763" lon="13.6676743403683"><ele>608.0</ele><time>2026-04-27T09:28:36.999Z</time></trkpt><trkpt lat="42.19918307791349" lon="13.667515324001943"><ele>608.0</ele><time>2026-04-27T09:28:37.999Z</time></trkpt><trkpt lat="42.199161260886726" lon="13.66741642548401"><ele>608.0</ele><time>2026-04-27T09:28:38.999Z</time></trkpt><trkpt lat="42.19918744703762" lon="13.66731516587036"><ele>608.0</ele><time>2026-04-27T09:28:40.999Z</time></trkpt><trkpt lat="42.199236717721696" lon="13.667158626419235"><ele>608.0</ele><time>2026-04-27T09:28:42.999Z</time></trkpt><trkpt lat="42.1992571526415" lon="13.66703579974134"><ele>608.0</ele><time>2026-04-27T09:28:43.999Z</time></trkpt><trkpt lat="42.199269229356574" lon="13.666910587273978"><ele>608.1999999999999</ele><time>2026-04-27T09:28:44.998Z</time></trkpt><trkpt lat="42.19927308534081" lon="13.666796956565967"><ele>608.4</ele><time>2026-04-27T09:28:45.998Z</time></trkpt><trkpt lat="42.19926510795601" lon="13.66662997675308"><ele>608.5999999999999</ele><time>2026-04-27T09:28:46.998Z</time></trkpt><trkpt lat="42.19923947897079" lon="13.666494162702858"><ele>608.8</ele><time>2026-04-27T09:28:47.998Z</time></trkpt><trkpt lat="42.19925236464027" lon="13.666373920205439"><ele>609.0</ele><time>2026-04-27T09:28:48.998Z</time></trkpt><trkpt lat="42.19926638861809" lon="13.66625670403531"><ele>609.0</ele><time>2026-04-27T09:28:49.998Z</time></trkpt><trkpt lat="42.1992782777769" lon="13.666121929657557"><ele>609.0</ele><time>2026-04-27T09:28:50.998Z</time></trkpt><trkpt lat="42.19929879104993" lon="13.665997353095023"><ele>609.0</ele><time>2026-04-27T09:28:51.998Z</time></trkpt><trkpt lat="42.19934008117469" lon="13.66587791439886"><ele>609.0</ele><time>2026-04-27T09:28:52.998Z</time></trkpt><trkpt lat="42.19939325629618" lon="13.665747607195133"><ele>609.0</ele><time>2026-04-27T09:28:53.998Z</time></trkpt><trkpt lat="42.199455156653045" lon="13.665618975728519"><ele>608.2</ele><time>2026-04-27T09:28:54.998Z</time></trkpt><trkpt lat="42.19951704522588" lon="13.665529855408092"><ele>607.4</ele><time>2026-04-27T09:28:55.998Z</time></trkpt><trkpt lat="42.19956908193456" lon="13.66543979361833"><ele>606.6</ele><time>2026-04-27T09:28:56.998Z</time></trkpt><trkpt lat="42.199617874998076" lon="13.665328003869847"><ele>605.8</ele><time>2026-04-27T09:28:57.998Z</time></trkpt><trkpt lat="42.19967848765876" lon="13.66523647561413"><ele>605.0</ele><time>2026-04-27T09:28:58.998Z</time></trkpt><trkpt lat="42.19974879693908" lon="13.665160183824122"><ele>605.0</ele><time>2026-04-27T09:28:59.998Z</time></trkpt><trkpt lat="42.199821280522315" lon="13.665083284356859"><ele>605.0</ele><time>2026-04-27T09:29:00.998Z</time></trkpt><trkpt lat="42.19988958797737" lon="13.665016756316707"><ele>605.0</ele><time>2026-04-27T09:29:01.998Z</time></trkpt><trkpt lat="42.19996329892049" lon="13.664967895357579"><ele>605.0</ele><time>2026-04-27T09:29:02.998Z</time></trkpt><trkpt lat="42.200036001622415" lon="13.664917870515204"><ele>605.0</ele><time>2026-04-27T09:29:03.998Z</time></trkpt><trkpt lat="42.20011442549773" lon="13.664867737687722"><ele>605.0</ele><time>2026-04-27T09:29:04.998Z</time></trkpt><trkpt lat="42.20020538758027" lon="13.664815849514952"><ele>605.0</ele><time>2026-04-27T09:29:05.998Z</time></trkpt><trkpt lat="42.20030609470569" lon="13.664773582663488"><ele>605.0</ele><time>2026-04-27T09:29:06.998Z</time></trkpt><trkpt lat="42.20040669456259" lon="13.664744512085056"><ele>605.0</ele><time>2026-04-27T09:29:07.998Z</time></trkpt><trkpt lat="42.200506178801994" lon="13.664724561528056"><ele>605.0</ele><time>2026-04-27T09:29:08.998Z</time></trkpt><trkpt lat="42.200603163092985" lon="13.664678169582604"><ele>605.0</ele><time>2026-04-27T09:29:09.998Z</time></trkpt><trkpt lat="42.20069844052443" lon="13.664649656735705"><ele>604.0</ele><time>2026-04-27T09:29:10.998Z</time></trkpt><trkpt lat="42.20079137244735" lon="13.664589051578817"><ele>603.0</ele><time>2026-04-27T09:29:11.998Z</time></trkpt><trkpt lat="42.20087163996651" lon="13.664578063004294"><ele>602.0</ele><time>2026-04-27T09:29:12.998Z</time></trkpt><trkpt lat="42.200945783837156" lon="13.66452840123372"><ele>601.0</ele><time>2026-04-27T09:29:13.998Z</time></trkpt><trkpt lat="42.20100674979518" lon="13.664443693733041"><ele>600.0</ele><time>2026-04-27T09:29:14.998Z</time></trkpt><trkpt lat="42.201052722013806" lon="13.664315498854297"><ele>597.0</ele><time>2026-04-27T09:29:15.998Z</time></trkpt><trkpt lat="42.20112654523946" lon="13.664231306575347"><ele>594.0</ele><time>2026-04-27T09:29:17Z</time></trkpt><trkpt lat="42.20120595088101" lon="13.664140942384332"><ele>591.0</ele><time>2026-04-27T09:29:18Z</time></trkpt><trkpt lat="42.2012938236836" lon="13.664116523576734"><ele>588.0</ele><time>2026-04-27T09:29:19Z</time></trkpt><trkpt lat="42.20138943433516" lon="13.664069814443485"><ele>585.0</ele><time>2026-04-27T09:29:20Z</time></trkpt><trkpt lat="42.20151855205405" lon="13.664041119188195"><ele>584.2</ele><time>2026-04-27T09:29:21Z</time></trkpt><trkpt lat="42.20163292349697" lon="13.664014954576466"><ele>583.4</ele><time>2026-04-27T09:29:22Z</time></trkpt><trkpt lat="42.201748586137334" lon="13.66397247389278"><ele>582.6</ele><time>2026-04-27T09:29:23Z</time></trkpt><trkpt lat="42.20183174059029" lon="13.663933577862103"><ele>581.8</ele><time>2026-04-27T09:29:24Z</time></trkpt><trkpt lat="42.20188858185675" lon="13.663876379720701"><ele>581.0</ele><time>2026-04-27T09:29:25Z</time></trkpt><trkpt lat="42.201965011181" lon="13.663725058357636"><ele>581.0</ele><time>2026-04-27T09:29:27Z</time></trkpt><trkpt lat="42.202011606026986" lon="13.663618148643517"><ele>581.0</ele><time>2026-04-27T09:29:28Z</time></trkpt><trkpt lat="42.20204946210597" lon="13.663470530868983"><ele>581.0</ele><time>2026-04-27T09:29:29Z</time></trkpt><trkpt lat="42.20210427066005" lon="13.663327645287275"><ele>581.0</ele><time>2026-04-27T09:29:30Z</time></trkpt><trkpt lat="42.202161199243776" lon="13.663193064735806"><ele>581.0</ele><time>2026-04-27T09:29:31Z</time></trkpt><trkpt lat="42.20222094279231" lon="13.663059764319902"><ele>578.0</ele><time>2026-04-27T09:29:32Z</time></trkpt><trkpt lat="42.202276027933486" lon="13.662929631882447"><ele>575.0</ele><time>2026-04-27T09:29:33Z</time></trkpt><trkpt lat="42.20232063883447" lon="13.662789839199517"><ele>572.0</ele><time>2026-04-27T09:29:34Z</time></trkpt><trkpt lat="42.202357494855946" lon="13.662639447969841"><ele>569.0</ele><time>2026-04-27T09:29:35Z</time></trkpt><trkpt lat="42.20238829086288" lon="13.66249382508023"><ele>569.0</ele><time>2026-04-27T09:29:36Z</time></trkpt><trkpt lat="42.20242198557317" lon="13.66237059395481"><ele>569.0</ele><time>2026-04-27T09:29:37Z</time></trkpt><trkpt lat="42.202458892274436" lon="13.66223947045339"><ele>569.0</ele><time>2026-04-27T09:29:38Z</time></trkpt><trkpt lat="42.202504294648634" lon="13.662083402765637"><ele>569.0</ele><time>2026-04-27T09:29:39Z</time></trkpt><trkpt lat="42.20254521583665" lon="13.661920871375516"><ele>568.0</ele><time>2026-04-27T09:29:40Z</time></trkpt><trkpt lat="42.20258281007124" lon="13.661754739972388"><ele>567.0</ele><time>2026-04-27T09:29:41Z</time></trkpt><trkpt lat="42.20261484520776" lon="13.661594375703451"><ele>566.0</ele><time>2026-04-27T09:29:42Z</time></trkpt><trkpt lat="42.202657578111854" lon="13.661434371079773"><ele>565.0</ele><time>2026-04-27T09:29:42.999Z</time></trkpt><trkpt lat="42.202720230863356" lon="13.661302401884235"><ele>565.0</ele><time>2026-04-27T09:29:43.999Z</time></trkpt><trkpt lat="42.202790290226375" lon="13.661162622286156"><ele>565.0</ele><time>2026-04-27T09:29:44.999Z</time></trkpt><trkpt lat="42.20283871445311" lon="13.66099938135701"><ele>565.0</ele><time>2026-04-27T09:29:45.999Z</time></trkpt><trkpt lat="42.202879585809924" lon="13.660837755996369"><ele>565.0</ele><time>2026-04-27T09:29:46.999Z</time></trkpt><trkpt lat="42.20290631445802" lon="13.660694236834402"><ele>564.2</ele><time>2026-04-27T09:29:47.999Z</time></trkpt><trkpt lat="42.20292602438181" lon="13.660552497285815"><ele>563.4</ele><time>2026-04-27T09:29:48.999Z</time></trkpt><trkpt lat="42.20295284806352" lon="13.660413468124952"><ele>562.6</ele><time>2026-04-27T09:29:49.999Z</time></trkpt><trkpt lat="42.20297227653469" lon="13.660258866849968"><ele>561.8</ele><time>2026-04-27T09:29:50.999Z</time></trkpt><trkpt lat="42.20300057972633" lon="13.660116067833075"><ele>561.0</ele><time>2026-04-27T09:29:51.999Z</time></trkpt><trkpt lat="42.20303775404523" lon="13.65998335994152"><ele>559.75</ele><time>2026-04-27T09:29:52.999Z</time></trkpt><trkpt lat="42.20309059125715" lon="13.659837623799689"><ele>558.5</ele><time>2026-04-27T09:29:53.999Z</time></trkpt><trkpt lat="42.20315242658859" lon="13.659699775865716"><ele>557.25</ele><time>2026-04-27T09:29:54.999Z</time></trkpt><trkpt lat="42.20320220569892" lon="13.659552772911121"><ele>556.0</ele><time>2026-04-27T09:29:55.999Z</time></trkpt><trkpt lat="42.20323867798598" lon="13.659414356879687"><ele>553.6</ele><time>2026-04-27T09:29:56.999Z</time></trkpt><trkpt lat="42.203279870728075" lon="13.65928189753992"><ele>551.2</ele><time>2026-04-27T09:29:57.999Z</time></trkpt><trkpt lat="42.20332890513441" lon="13.659152649936669"><ele>548.8</ele><time>2026-04-27T09:29:58.999Z</time></trkpt><trkpt lat="42.20338116407332" lon="13.65903025250077"><ele>546.4</ele><time>2026-04-27T09:29:59.999Z</time></trkpt><trkpt lat="42.20343744334688" lon="13.658929677360536"><ele>544.0</ele><time>2026-04-27T09:30:00.999Z</time></trkpt><trkpt lat="42.203488947241695" lon="13.658839447475247"><ele>544.0</ele><time>2026-04-27T09:30:01.999Z</time></trkpt><trkpt lat="42.20354189577472" lon="13.6587561476534"><ele>544.0</ele><time>2026-04-27T09:30:02.999Z</time></trkpt><trkpt lat="42.2035659424686" lon="13.658643078048627"><ele>544.0</ele><time>2026-04-27T09:30:04.999Z</time></trkpt><trkpt lat="42.20354122909967" lon="13.658551853830977"><ele>544.0</ele><time>2026-04-27T09:30:07.999Z</time></trkpt><trkpt lat="42.20348403560239" lon="13.658502416960392"><ele>544.0</ele><time>2026-04-27T09:30:08.999Z</time></trkpt><trkpt lat="42.203388476601916" lon="13.658487047906348"><ele>544.0</ele><time>2026-04-27T09:30:10.999Z</time></trkpt><trkpt lat="42.2032878215727" lon="13.658456284965014"><ele>542.0</ele><time>2026-04-27T09:30:11.999Z</time></trkpt><trkpt lat="42.20322118973665" lon="13.658430544744874"><ele>540.0</ele><time>2026-04-27T09:30:12.999Z</time></trkpt><trkpt lat="42.20314612511121" lon="13.658404079296446"><ele>538.0</ele><time>2026-04-27T09:30:13.999Z</time></trkpt><trkpt lat="42.20306423820619" lon="13.65837367323032"><ele>536.0</ele><time>2026-04-27T09:30:14.999Z</time></trkpt><trkpt lat="42.20298220339063" lon="13.658340313434788"><ele>534.0</ele><time>2026-04-27T09:30:15.999Z</time></trkpt><trkpt lat="42.202896982862015" lon="13.658299997507802"><ele>532.0</ele><time>2026-04-27T09:30:16.999Z</time></trkpt><trkpt lat="42.20281074891783" lon="13.65824086280072"><ele>531.8000000000001</ele><time>2026-04-27T09:30:17.999Z</time></trkpt><trkpt lat="42.20274208833193" lon="13.658170137381484"><ele>531.6</ele><time>2026-04-27T09:30:18.999Z</time></trkpt><trkpt lat="42.20267336404139" lon="13.65809057535123"><ele>531.4000000000001</ele><time>2026-04-27T09:30:19.999Z</time></trkpt><trkpt lat="42.202607005718136" lon="13.658010028095335"><ele>531.2</ele><time>2026-04-27T09:30:20.999Z</time></trkpt><trkpt lat="42.20253426180639" lon="13.657931524843947"><ele>531.0</ele><time>2026-04-27T09:30:21.999Z</time></trkpt><trkpt lat="42.202461625589336" lon="13.657857025794202"><ele>528.4</ele><time>2026-04-27T09:30:22.999Z</time></trkpt><trkpt lat="42.20238768984318" lon="13.657781182763198"><ele>525.8</ele><time>2026-04-27T09:30:23.999Z</time></trkpt><trkpt lat="42.202310326363325" lon="13.657706656801963"><ele>523.1999999999999</ele><time>2026-04-27T09:30:24.999Z</time></trkpt><trkpt lat="42.20223239215931" lon="13.657631050110215"><ele>520.6</ele><time>2026-04-27T09:30:25.999Z</time></trkpt><trkpt lat="42.20215566455082" lon="13.657556949290617"><ele>518.0</ele><time>2026-04-27T09:30:26.999Z</time></trkpt><trkpt lat="42.202073294645146" lon="13.65750122194814"><ele>517.8</ele><time>2026-04-27T09:30:27.999Z</time></trkpt><trkpt lat="42.2019745190499" lon="13.657461684067577"><ele>517.5999999999999</ele><time>2026-04-27T09:30:28.999Z</time></trkpt><trkpt lat="42.2018740913169" lon="13.657447014642937"><ele>517.4000000000001</ele><time>2026-04-27T09:30:29.999Z</time></trkpt><trkpt lat="42.20177119260602" lon="13.657455642443281"><ele>517.2</ele><time>2026-04-27T09:30:30.999Z</time></trkpt><trkpt lat="42.20165690992966" lon="13.657469300565175"><ele>517.0</ele><time>2026-04-27T09:30:31.999Z</time></trkpt><trkpt lat="42.20152217788516" lon="13.657501597027359"><ele>514.0</ele><time>2026-04-27T09:30:32.999Z</time></trkpt><trkpt lat="42.2013838891112" lon="13.657537137679483"><ele>511.0</ele><time>2026-04-27T09:30:33.999Z</time></trkpt><trkpt lat="42.20124051480361" lon="13.657576425748056"><ele>508.0</ele><time>2026-04-27T09:30:34.999Z</time></trkpt><trkpt lat="42.20110037840421" lon="13.657639749190649"><ele>505.0</ele><time>2026-04-27T09:30:35.999Z</time></trkpt><trkpt lat="42.20097865323517" lon="13.657769353195734"><ele>506.0</ele><time>2026-04-27T09:30:36.999Z</time></trkpt><trkpt lat="42.200871975940835" lon="13.657937590620678"><ele>507.0</ele><time>2026-04-27T09:30:37.999Z</time></trkpt><trkpt lat="42.200756222200056" lon="13.65808960932743"><ele>508.0</ele><time>2026-04-27T09:30:38.999Z</time></trkpt><trkpt lat="42.20063977668126" lon="13.658196838053465"><ele>508.0</ele><time>2026-04-27T09:30:39.999Z</time></trkpt><trkpt lat="42.200508000346716" lon="13.658264237027534"><ele>508.0</ele><time>2026-04-27T09:30:40.999Z</time></trkpt><trkpt lat="42.20035732941387" lon="13.658296844306726"><ele>508.0</ele><time>2026-04-27T09:30:41.999Z</time></trkpt><trkpt lat="42.20019561635628" lon="13.658320705226807"><ele>508.0</ele><time>2026-04-27T09:30:42.999Z</time></trkpt><trkpt lat="42.20003224138037" lon="13.65834950524194"><ele>508.0</ele><time>2026-04-27T09:30:43.999Z</time></trkpt><trkpt lat="42.19986589807741" lon="13.658384098278121"><ele>508.0</ele><time>2026-04-27T09:30:44.999Z</time></trkpt><trkpt lat="42.199702616440184" lon="13.65843334100026"><ele>508.0</ele><time>2026-04-27T09:30:45.999Z</time></trkpt><trkpt lat="42.19955076733026" lon="13.658531544094638"><ele>508.0</ele><time>2026-04-27T09:30:46.999Z</time></trkpt><trkpt lat="42.19940896613613" lon="13.658664710248448"><ele>508.0</ele><time>2026-04-27T09:30:47.998Z</time></trkpt><trkpt lat="42.19927551364704" lon="13.658811983192413"><ele>508.0</ele><time>2026-04-27T09:30:48.998Z</time></trkpt><trkpt lat="42.19915526809148" lon="13.658953700294344"><ele>508.0</ele><time>2026-04-27T09:30:49.998Z</time></trkpt><trkpt lat="42.19903871402197" lon="13.659076196075576"><ele>508.0</ele><time>2026-04-27T09:30:50.998Z</time></trkpt><trkpt lat="42.19892449960435" lon="13.6591879774722"><ele>508.0</ele><time>2026-04-27T09:30:51.998Z</time></trkpt><trkpt lat="42.19881321761267" lon="13.659273827218552"><ele>505.25</ele><time>2026-04-27T09:30:52.998Z</time></trkpt><trkpt lat="42.19869709633" lon="13.659304444298938"><ele>502.5</ele><time>2026-04-27T09:30:53.998Z</time></trkpt><trkpt lat="42.19857497907904" lon="13.659297174995087"><ele>499.75</ele><time>2026-04-27T09:30:54.998Z</time></trkpt><trkpt lat="42.198445263022656" lon="13.659275908476703"><ele>497.0</ele><time>2026-04-27T09:30:55.998Z</time></trkpt><trkpt lat="42.19832602050368" lon="13.659241795642611"><ele>497.0</ele><time>2026-04-27T09:30:56.998Z</time></trkpt><trkpt lat="42.198233901255705" lon="13.659210022982547"><ele>497.00000000000006</ele><time>2026-04-27T09:30:57.998Z</time></trkpt><trkpt lat="42.19816928872743" lon="13.65920746220602"><ele>497.00000000000006</ele><time>2026-04-27T09:30:58.998Z</time></trkpt><trkpt lat="42.198147391357715" lon="13.659029662731495"><ele>497.0</ele><time>2026-04-27T09:30:59.998Z</time></trkpt><trkpt lat="42.1981129120518" lon="13.658952541608688"><ele>497.0</ele><time>2026-04-27T09:31:00.998Z</time></trkpt><trkpt lat="42.19807787321749" lon="13.658819825912902"><ele>496.5</ele><time>2026-04-27T09:31:01.998Z</time></trkpt><trkpt lat="42.19803254282179" lon="13.658676744782893"><ele>496.0</ele><time>2026-04-27T09:31:02.998Z</time></trkpt><trkpt lat="42.19798249567132" lon="13.658532505443011"><ele>495.5</ele><time>2026-04-27T09:31:03.998Z</time></trkpt><trkpt lat="42.197915402466855" lon="13.658385590260172"><ele>495.0</ele><time>2026-04-27T09:31:04.998Z</time></trkpt><trkpt lat="42.19783455269262" lon="13.658240376440366"><ele>494.5</ele><time>2026-04-27T09:31:05.998Z</time></trkpt><trkpt lat="42.19774352353238" lon="13.65809644658588"><ele>494.0</ele><time>2026-04-27T09:31:06.998Z</time></trkpt><trkpt lat="42.19764990697029" lon="13.657947414238649"><ele>493.5</ele><time>2026-04-27T09:31:07.998Z</time></trkpt><trkpt lat="42.19755788338603" lon="13.657800637827842"><ele>493.0</ele><time>2026-04-27T09:31:08.998Z</time></trkpt><trkpt lat="42.19746655280467" lon="13.657663375448383"><ele>493.0</ele><time>2026-04-27T09:31:09.998Z</time></trkpt><trkpt lat="42.19736523402668" lon="13.657511382414778"><ele>493.0</ele><time>2026-04-27T09:31:10.998Z</time></trkpt><trkpt lat="42.19725978986268" lon="13.657348592764768"><ele>493.0</ele><time>2026-04-27T09:31:11.998Z</time></trkpt><trkpt lat="42.19715340949686" lon="13.657179735361371"><ele>493.0</ele><time>2026-04-27T09:31:12.998Z</time></trkpt><trkpt lat="42.19704161519795" lon="13.657006954044325"><ele>493.0</ele><time>2026-04-27T09:31:13.998Z</time></trkpt><trkpt lat="42.19692748194379" lon="13.656828070525904"><ele>493.0</ele><time>2026-04-27T09:31:14.998Z</time></trkpt><trkpt lat="42.196812410494836" lon="13.656640899543255"><ele>493.0</ele><time>2026-04-27T09:31:15.998Z</time></trkpt><trkpt lat="42.19669390520279" lon="13.656452034974583"><ele>493.0</ele><time>2026-04-27T09:31:16.998Z</time></trkpt><trkpt lat="42.196575845702135" lon="13.656263923315446"><ele>493.0</ele><time>2026-04-27T09:31:17.998Z</time></trkpt><trkpt lat="42.19645867622997" lon="13.656075100968375"><ele>495.6666666666667</ele><time>2026-04-27T09:31:18.998Z</time></trkpt><trkpt lat="42.19633693949286" lon="13.6558874629837"><ele>498.33333333333337</ele><time>2026-04-27T09:31:19.998Z</time></trkpt><trkpt lat="42.196213441043376" lon="13.655698992202636"><ele>501.0</ele><time>2026-04-27T09:31:20.998Z</time></trkpt><trkpt lat="42.196091924563284" lon="13.65550495889468"><ele>501.0</ele><time>2026-04-27T09:31:21.998Z</time></trkpt><trkpt lat="42.19596659153707" lon="13.655311503140204"><ele>501.0</ele><time>2026-04-27T09:31:23Z</time></trkpt><trkpt lat="42.19584210067996" lon="13.65511936040798"><ele>501.0</ele><time>2026-04-27T09:31:24Z</time></trkpt><trkpt lat="42.195733002242726" lon="13.65491677828117"><ele>506.66666666666663</ele><time>2026-04-27T09:31:25Z</time></trkpt><trkpt lat="42.19564956622714" lon="13.654696680792739"><ele>512.3333333333333</ele><time>2026-04-27T09:31:26Z</time></trkpt><trkpt lat="42.19560249472543" lon="13.654457332070741"><ele>518.0</ele><time>2026-04-27T09:31:27Z</time></trkpt><trkpt lat="42.19559335337949" lon="13.654213456635906"><ele>519.0</ele><time>2026-04-27T09:31:28Z</time></trkpt><trkpt lat="42.19561922230218" lon="13.653974243246216"><ele>520.0</ele><time>2026-04-27T09:31:29Z</time></trkpt><trkpt lat="42.195665107208306" lon="13.653735995745079"><ele>521.0</ele><time>2026-04-27T09:31:30Z</time></trkpt><trkpt lat="42.19571210577845" lon="13.65349806826643"><ele>521.0</ele><time>2026-04-27T09:31:31Z</time></trkpt><trkpt lat="42.195753781652854" lon="13.653259309436283"><ele>521.0</ele><time>2026-04-27T09:31:32Z</time></trkpt><trkpt lat="42.19579158358797" lon="13.65301767357725"><ele>521.0</ele><time>2026-04-27T09:31:33Z</time></trkpt><trkpt lat="42.19583282211406" lon="13.65277616324099"><ele>522.6666666666666</ele><time>2026-04-27T09:31:34Z</time></trkpt><trkpt lat="42.19587276952487" lon="13.65253311657466"><ele>524.3333333333334</ele><time>2026-04-27T09:31:35Z</time></trkpt><trkpt lat="42.19591330429099" lon="13.652290140796373"><ele>526.0</ele><time>2026-04-27T09:31:36Z</time></trkpt><trkpt lat="42.195952250110494" lon="13.652047487056727"><ele>527.6666666666667</ele><time>2026-04-27T09:31:37Z</time></trkpt><trkpt lat="42.19599141945477" lon="13.651810753978415"><ele>529.3333333333334</ele><time>2026-04-27T09:31:38Z</time></trkpt><trkpt lat="42.196031118350746" lon="13.65157421035708"><ele>531.0</ele><time>2026-04-27T09:31:39Z</time></trkpt><trkpt lat="42.196071622035994" lon="13.651337677339724"><ele>532.3333333333334</ele><time>2026-04-27T09:31:40Z</time></trkpt><trkpt lat="42.19611194255916" lon="13.651099637640344"><ele>533.6666666666667</ele><time>2026-04-27T09:31:41Z</time></trkpt><trkpt lat="42.196151007926936" lon="13.650861448073474"><ele>535.0</ele><time>2026-04-27T09:31:42Z</time></trkpt><trkpt lat="42.19619053782482" lon="13.650619908870928"><ele>535.0</ele><time>2026-04-27T09:31:43Z</time></trkpt><trkpt lat="42.19623019153501" lon="13.650378887846784"><ele>535.0</ele><time>2026-04-27T09:31:44Z</time></trkpt><trkpt lat="42.19626938246078" lon="13.650136635942458"><ele>535.0</ele><time>2026-04-27T09:31:45Z</time></trkpt><trkpt lat="42.19630870525364" lon="13.649894210879745"><ele>537.3333333333334</ele><time>2026-04-27T09:31:45.999Z</time></trkpt><trkpt lat="42.19634769853317" lon="13.649650767093922"><ele>539.6666666666666</ele><time>2026-04-27T09:31:46.999Z</time></trkpt><trkpt lat="42.19638717446697" lon="13.649410199046178"><ele>542.0</ele><time>2026-04-27T09:31:47.999Z</time></trkpt><trkpt lat="42.19642554785338" lon="13.649177904610674"><ele>543.6666666666666</ele><time>2026-04-27T09:31:48.999Z</time></trkpt><trkpt lat="42.1964612461815" lon="13.648950870246885"><ele>545.3333333333334</ele><time>2026-04-27T09:31:49.999Z</time></trkpt><trkpt lat="42.1964970185162" lon="13.648733624675227"><ele>547.0</ele><time>2026-04-27T09:31:50.999Z</time></trkpt><trkpt lat="42.19653637337539" lon="13.648526544195459"><ele>547.0</ele><time>2026-04-27T09:31:51.999Z</time></trkpt><trkpt lat="42.196572037368504" lon="13.648346846731226"><ele>547.0</ele><time>2026-04-27T09:31:52.999Z</time></trkpt><trkpt lat="42.19660111373164" lon="13.648193438777726"><ele>547.0</ele><time>2026-04-27T09:31:53.999Z</time></trkpt><trkpt lat="42.196626601649356" lon="13.64805602091138"><ele>547.0</ele><time>2026-04-27T09:31:54.999Z</time></trkpt><trkpt lat="42.1966403975293" lon="13.647935485205426"><ele>547.0</ele><time>2026-04-27T09:31:55.999Z</time></trkpt><trkpt lat="42.19666778341001" lon="13.647855690248873"><ele>547.0</ele><time>2026-04-27T09:31:56.999Z</time></trkpt><trkpt lat="42.196673089631595" lon="13.647760306035165"><ele>547.0</ele><time>2026-04-27T09:31:59.999Z</time></trkpt><trkpt lat="42.19650725481017" lon="13.647739837266842"><ele>547.0</ele><time>2026-04-27T09:32:00.999Z</time></trkpt><trkpt lat="42.19641948306324" lon="13.647821608879463"><ele>547.0</ele><time>2026-04-27T09:32:01.999Z</time></trkpt><trkpt lat="42.19633296056209" lon="13.647923413949313"><ele>549.75</ele><time>2026-04-27T09:32:02.999Z</time></trkpt><trkpt lat="42.196235521374625" lon="13.648044156318875"><ele>552.5</ele><time>2026-04-27T09:32:03.999Z</time></trkpt><trkpt lat="42.196135537513456" lon="13.64816994225833"><ele>555.25</ele><time>2026-04-27T09:32:04.999Z</time></trkpt><trkpt lat="42.19602825714228" lon="13.648292085676818"><ele>558.0</ele><time>2026-04-27T09:32:05.999Z</time></trkpt><trkpt lat="42.19590671453657" lon="13.648409970861904"><ele>558.0</ele><time>2026-04-27T09:32:06.999Z</time></trkpt><trkpt lat="42.19577212243833" lon="13.648506015243248"><ele>558.0</ele><time>2026-04-27T09:32:07.999Z</time></trkpt><trkpt lat="42.19563100918765" lon="13.648587187890104"><ele>558.0</ele><time>2026-04-27T09:32:08.999Z</time></trkpt><trkpt lat="42.19549055016224" lon="13.648668162943675"><ele>561.6666666666666</ele><time>2026-04-27T09:32:09.999Z</time></trkpt><trkpt lat="42.19535213965717" lon="13.64875487107687"><ele>565.3333333333333</ele><time>2026-04-27T09:32:10.999Z</time></trkpt><trkpt lat="42.19523232698306" lon="13.648874033827221"><ele>569.0</ele><time>2026-04-27T09:32:11.999Z</time></trkpt><trkpt lat="42.19513514174287" lon="13.649036163914149"><ele>569.0</ele><time>2026-04-27T09:32:12.999Z</time></trkpt><trkpt lat="42.195053006108665" lon="13.649218435192383"><ele>569.0</ele><time>2026-04-27T09:32:13.999Z</time></trkpt><trkpt lat="42.19497420930798" lon="13.649394412770611"><ele>569.0</ele><time>2026-04-27T09:32:14.999Z</time></trkpt><trkpt lat="42.194896751162624" lon="13.649569957404422"><ele>574.3333333333333</ele><time>2026-04-27T09:32:15.999Z</time></trkpt><trkpt lat="42.19481550510819" lon="13.64974365902004"><ele>579.6666666666666</ele><time>2026-04-27T09:32:16.999Z</time></trkpt><trkpt lat="42.194718985472974" lon="13.649904275670393"><ele>585.0</ele><time>2026-04-27T09:32:17.999Z</time></trkpt><trkpt lat="42.194603766683336" lon="13.650044676649728"><ele>585.0</ele><time>2026-04-27T09:32:18.999Z</time></trkpt><trkpt lat="42.19447244599908" lon="13.650163167713014"><ele>585.0</ele><time>2026-04-27T09:32:19.999Z</time></trkpt><trkpt lat="42.19433519333331" lon="13.650254423035445"><ele>585.0</ele><time>2026-04-27T09:32:20.999Z</time></trkpt><trkpt lat="42.1942024958858" lon="13.650353690756273"><ele>587.3333333333334</ele><time>2026-04-27T09:32:21.999Z</time></trkpt><trkpt lat="42.19406829921677" lon="13.650453003831473"><ele>589.6666666666667</ele><time>2026-04-27T09:32:22.999Z</time></trkpt><trkpt lat="42.19393440572012" lon="13.650557567901895"><ele>592.0</ele><time>2026-04-27T09:32:23.999Z</time></trkpt><trkpt lat="42.193799735804745" lon="13.65066055748709"><ele>592.0</ele><time>2026-04-27T09:32:24.999Z</time></trkpt><trkpt lat="42.193667179564954" lon="13.65076746441231"><ele>592.0</ele><time>2026-04-27T09:32:25.999Z</time></trkpt><trkpt lat="42.193546776632196" lon="13.65089519478521"><ele>592.0</ele><time>2026-04-27T09:32:26.999Z</time></trkpt><trkpt lat="42.19343733916155" lon="13.651040813177412"><ele>588.3333333333334</ele><time>2026-04-27T09:32:27.999Z</time></trkpt><trkpt lat="42.193343776069646" lon="13.65120479775849"><ele>584.6666666666666</ele><time>2026-04-27T09:32:28.999Z</time></trkpt><trkpt lat="42.19327497609684" lon="13.65139026575097"><ele>581.0</ele><time>2026-04-27T09:32:29.999Z</time></trkpt><trkpt lat="42.193215228342765" lon="13.651575250890598"><ele>581.0</ele><time>2026-04-27T09:32:30.999Z</time></trkpt><trkpt lat="42.19323074653423" lon="13.651785513591912"><ele>581.0</ele><time>2026-04-27T09:32:31.999Z</time></trkpt><trkpt lat="42.193266435003096" lon="13.651974684657183"><ele>581.0</ele><time>2026-04-27T09:32:32.999Z</time></trkpt><trkpt lat="42.19331228191616" lon="13.652159432997623"><ele>581.0</ele><time>2026-04-27T09:32:33.999Z</time></trkpt><trkpt lat="42.1933063079307" lon="13.652351487447287"><ele>581.25</ele><time>2026-04-27T09:32:34.999Z</time></trkpt><trkpt lat="42.19329442366046" lon="13.652541555060923"><ele>581.5</ele><time>2026-04-27T09:32:35.999Z</time></trkpt><trkpt lat="42.19328399666648" lon="13.65273465811807"><ele>581.75</ele><time>2026-04-27T09:32:36.999Z</time></trkpt><trkpt lat="42.193251513206995" lon="13.65292854657718"><ele>582.0</ele><time>2026-04-27T09:32:37.999Z</time></trkpt><trkpt lat="42.193210770591854" lon="13.65307367597501"><ele>583.8333333333334</ele><time>2026-04-27T09:32:38.999Z</time></trkpt><trkpt lat="42.193158314568954" lon="13.653165637295794"><ele>585.6666666666666</ele><time>2026-04-27T09:32:39.999Z</time></trkpt><trkpt lat="42.19309833570094" lon="13.653207706775044"><ele>587.5</ele><time>2026-04-27T09:32:40.999Z</time></trkpt><trkpt lat="42.19303524299007" lon="13.653181807472265"><ele>589.3333333333333</ele><time>2026-04-27T09:32:41.999Z</time></trkpt><trkpt lat="42.19298537130287" lon="13.653102533581526"><ele>591.1666666666666</ele><time>2026-04-27T09:32:42.999Z</time></trkpt><trkpt lat="42.19296906268663" lon="13.652994462327355"><ele>593.0</ele><time>2026-04-27T09:32:43.999Z</time></trkpt><trkpt lat="42.192985131144596" lon="13.652864441443704"><ele>598.0</ele><time>2026-04-27T09:32:44.999Z</time></trkpt><trkpt lat="42.1930175987006" lon="13.652724730036201"><ele>603.0</ele><time>2026-04-27T09:32:45.999Z</time></trkpt><trkpt lat="42.19304723205631" lon="13.652581365510764"><ele>608.0</ele><time>2026-04-27T09:32:46.999Z</time></trkpt><trkpt lat="42.19306755066048" lon="13.65242272320717"><ele>613.0</ele><time>2026-04-27T09:32:47.999Z</time></trkpt><trkpt lat="42.193068085159155" lon="13.652272223999018"><ele>613.0</ele><time>2026-04-27T09:32:48.999Z</time></trkpt><trkpt lat="42.193035521309326" lon="13.6521493488728"><ele>613.0</ele><time>2026-04-27T09:32:49.999Z</time></trkpt><trkpt lat="42.19296874081598" lon="13.652102695355701"><ele>613.0</ele><time>2026-04-27T09:32:50.998Z</time></trkpt><trkpt lat="42.19289820056269" lon="13.652116906827695"><ele>613.0</ele><time>2026-04-27T09:32:51.998Z</time></trkpt><trkpt lat="42.192838437672606" lon="13.65219547628536"><ele>613.0</ele><time>2026-04-27T09:32:52.998Z</time></trkpt><trkpt lat="42.19281419876118" lon="13.652319466579403"><ele>613.0</ele><time>2026-04-27T09:32:53.998Z</time></trkpt><trkpt lat="42.19281467182034" lon="13.652460343210237"><ele>613.0</ele><time>2026-04-27T09:32:54.998Z</time></trkpt><trkpt lat="42.19278185825427" lon="13.652586124638933"><ele>613.0</ele><time>2026-04-27T09:32:55.998Z</time></trkpt><trkpt lat="42.19272305124462" lon="13.652707757006679"><ele>613.0</ele><time>2026-04-27T09:32:56.998Z</time></trkpt><trkpt lat="42.19264254798707" lon="13.652805342356768"><ele>613.0</ele><time>2026-04-27T09:32:57.998Z</time></trkpt><trkpt lat="42.192544949960485" lon="13.652879719589752"><ele>613.0</ele><time>2026-04-27T09:32:58.998Z</time></trkpt><trkpt lat="42.19246452716442" lon="13.652906559530647"><ele>613.0</ele><time>2026-04-27T09:32:59.998Z</time></trkpt><trkpt lat="42.19238904990508" lon="13.65289193434929"><ele>613.0</ele><time>2026-04-27T09:33:00.998Z</time></trkpt><trkpt lat="42.19234024992774" lon="13.652750417066018"><ele>613.0</ele><time>2026-04-27T09:33:02.998Z</time></trkpt><trkpt lat="42.19239045329619" lon="13.652662651870635"><ele>613.0</ele><time>2026-04-27T09:33:03.998Z</time></trkpt><trkpt lat="42.19246197986165" lon="13.652601911397372"><ele>613.0</ele><time>2026-04-27T09:33:04.998Z</time></trkpt><trkpt lat="42.19254720555891" lon="13.652549269642648"><ele>613.0</ele><time>2026-04-27T09:33:05.998Z</time></trkpt><trkpt lat="42.19262996768072" lon="13.652465832335897"><ele>613.0</ele><time>2026-04-27T09:33:06.998Z</time></trkpt><trkpt lat="42.192677053328765" lon="13.652347210158576"><ele>613.0</ele><time>2026-04-27T09:33:07.998Z</time></trkpt><trkpt lat="42.19266325200732" lon="13.652227558785567"><ele>613.0</ele><time>2026-04-27T09:33:08.998Z</time></trkpt><trkpt lat="42.19259755005174" lon="13.652150106655686"><ele>613.0</ele><time>2026-04-27T09:33:09.998Z</time></trkpt><trkpt lat="42.19250678058324" lon="13.652137160765765"><ele>613.0</ele><time>2026-04-27T09:33:10.998Z</time></trkpt><trkpt lat="42.19241926990838" lon="13.652193181874294"><ele>613.0</ele><time>2026-04-27T09:33:11.998Z</time></trkpt><trkpt lat="42.19234156219245" lon="13.652296504350945"><ele>613.0</ele><time>2026-04-27T09:33:12.998Z</time></trkpt><trkpt lat="42.19226635563966" lon="13.652404710191407"><ele>613.0</ele><time>2026-04-27T09:33:13.998Z</time></trkpt><trkpt lat="42.192176048424564" lon="13.652503786940489"><ele>613.0</ele><time>2026-04-27T09:33:14.998Z</time></trkpt><trkpt lat="42.192080450212245" lon="13.652597159979837"><ele>616.5</ele><time>2026-04-27T09:33:15.998Z</time></trkpt><trkpt lat="42.191978370750235" lon="13.652692277904798"><ele>620.0</ele><time>2026-04-27T09:33:16.998Z</time></trkpt><trkpt lat="42.191851550505866" lon="13.652711169581423"><ele>623.5</ele><time>2026-04-27T09:33:17.998Z</time></trkpt><trkpt lat="42.191709592741724" lon="13.652738846279133"><ele>627.0</ele><time>2026-04-27T09:33:18.998Z</time></trkpt><trkpt lat="42.1915562371907" lon="13.652755947528998"><ele>628.0</ele><time>2026-04-27T09:33:19.998Z</time></trkpt><trkpt lat="42.19140041619798" lon="13.652806176569777"><ele>629.0</ele><time>2026-04-27T09:33:20.998Z</time></trkpt><trkpt lat="42.191250542012995" lon="13.652868989338486"><ele>630.0</ele><time>2026-04-27T09:33:21.998Z</time></trkpt><trkpt lat="42.19110852313333" lon="13.652977959241058"><ele>630.0</ele><time>2026-04-27T09:33:22.998Z</time></trkpt><trkpt lat="42.190981139287494" lon="13.653137198901119"><ele>630.0</ele><time>2026-04-27T09:33:23.998Z</time></trkpt><trkpt lat="42.190848920329806" lon="13.653264993026587"><ele>630.0</ele><time>2026-04-27T09:33:24.998Z</time></trkpt><trkpt lat="42.19071183060908" lon="13.653375774796102"><ele>636.0</ele><time>2026-04-27T09:33:25.998Z</time></trkpt><trkpt lat="42.19055419121777" lon="13.6534402090699"><ele>642.0</ele><time>2026-04-27T09:33:26.998Z</time></trkpt><trkpt lat="42.19039360675121" lon="13.653533484775972"><ele>648.0</ele><time>2026-04-27T09:33:28Z</time></trkpt><trkpt lat="42.190224526737175" lon="13.653603662480435"><ele>649.3333333333334</ele><time>2026-04-27T09:33:29Z</time></trkpt><trkpt lat="42.1900546709088" lon="13.653674721528688"><ele>650.6666666666667</ele><time>2026-04-27T09:33:30Z</time></trkpt><trkpt lat="42.18990067938249" lon="13.653738345222877"><ele>652.0</ele><time>2026-04-27T09:33:31Z</time></trkpt><trkpt lat="42.189773624228984" lon="13.653786653219232"><ele>652.0</ele><time>2026-04-27T09:33:32Z</time></trkpt><trkpt lat="42.189680574937405" lon="13.65387159919669"><ele>652.0</ele><time>2026-04-27T09:33:33Z</time></trkpt><trkpt lat="42.189659259031615" lon="13.654003031190808"><ele>652.0</ele><time>2026-04-27T09:33:34Z</time></trkpt><trkpt lat="42.18965637810467" lon="13.65413856665143"><ele>652.0</ele><time>2026-04-27T09:33:35Z</time></trkpt><trkpt lat="42.18970630462087" lon="13.6543015200976"><ele>652.0</ele><time>2026-04-27T09:33:36Z</time></trkpt><trkpt lat="42.18978067011319" lon="13.654451167584897"><ele>649.75</ele><time>2026-04-27T09:33:37Z</time></trkpt><trkpt lat="42.189860509029266" lon="13.654612295872777"><ele>647.5</ele><time>2026-04-27T09:33:38Z</time></trkpt><trkpt lat="42.18990912425207" lon="13.654788185535944"><ele>645.25</ele><time>2026-04-27T09:33:39Z</time></trkpt><trkpt lat="42.189956838709776" lon="13.654940746250311"><ele>643.0</ele><time>2026-04-27T09:33:40Z</time></trkpt><trkpt lat="42.18997198078483" lon="13.655066818471196"><ele>643.0</ele><time>2026-04-27T09:33:41Z</time></trkpt><trkpt lat="42.189970729135894" lon="13.655173655002908"><ele>643.0</ele><time>2026-04-27T09:33:42Z</time></trkpt><trkpt lat="42.18991409641125" lon="13.65525860565219"><ele>643.0</ele><time>2026-04-27T09:33:43Z</time></trkpt><trkpt lat="42.18982069896256" lon="13.655263602608114"><ele>643.0</ele><time>2026-04-27T09:33:44Z</time></trkpt><trkpt lat="42.18971742455605" lon="13.655319150147555"><ele>643.0</ele><time>2026-04-27T09:33:45Z</time></trkpt><trkpt lat="42.189604783792404" lon="13.655391843444749"><ele>645.25</ele><time>2026-04-27T09:33:46Z</time></trkpt><trkpt lat="42.189478214107645" lon="13.655457090432456"><ele>647.5</ele><time>2026-04-27T09:33:47Z</time></trkpt><trkpt lat="42.18935579603094" lon="13.655528315156243"><ele>649.75</ele><time>2026-04-27T09:33:48Z</time></trkpt><trkpt lat="42.18922871358805" lon="13.655601697076076"><ele>652.0</ele><time>2026-04-27T09:33:48.999Z</time></trkpt><trkpt lat="42.189083211525926" lon="13.655656807857273"><ele>654.3333333333334</ele><time>2026-04-27T09:33:49.999Z</time></trkpt><trkpt lat="42.18893241870809" lon="13.655736017205001"><ele>656.6666666666666</ele><time>2026-04-27T09:33:50.999Z</time></trkpt><trkpt lat="42.18877798710479" lon="13.655803953317651"><ele>659.0</ele><time>2026-04-27T09:33:51.999Z</time></trkpt><trkpt lat="42.18861964579904" lon="13.655884009257537"><ele>659.0</ele><time>2026-04-27T09:33:52.999Z</time></trkpt><trkpt lat="42.18845935311178" lon="13.655935292455116"><ele>659.0</ele><time>2026-04-27T09:33:53.999Z</time></trkpt><trkpt lat="42.18832839588283" lon="13.655985990169883"><ele>659.0</ele><time>2026-04-27T09:33:54.999Z</time></trkpt><trkpt lat="42.188227871992495" lon="13.656040123313844"><ele>659.0</ele><time>2026-04-27T09:33:55.999Z</time></trkpt><trkpt lat="42.188148173067155" lon="13.656086201557175"><ele>660.2</ele><time>2026-04-27T09:33:56.999Z</time></trkpt><trkpt lat="42.188131497445475" lon="13.656221354931972"><ele>661.4000000000001</ele><time>2026-04-27T09:33:57.999Z</time></trkpt><trkpt lat="42.188188245562486" lon="13.656326069101594"><ele>662.6</ele><time>2026-04-27T09:33:58.999Z</time></trkpt><trkpt lat="42.188264949063104" lon="13.656375131093911"><ele>663.8</ele><time>2026-04-27T09:33:59.999Z</time></trkpt><trkpt lat="42.18836473048123" lon="13.656376867504665"><ele>665.0</ele><time>2026-04-27T09:34:00.999Z</time></trkpt><trkpt lat="42.188470926129646" lon="13.656354956317701"><ele>665.0</ele><time>2026-04-27T09:34:01.999Z</time></trkpt><trkpt lat="42.18859472413925" lon="13.656339577695192"><ele>665.0</ele><time>2026-04-27T09:34:02.999Z</time></trkpt><trkpt lat="42.18872763179785" lon="13.656326045433547"><ele>665.0</ele><time>2026-04-27T09:34:03.999Z</time></trkpt><trkpt lat="42.188869173322054" lon="13.656307704879898"><ele>665.0</ele><time>2026-04-27T09:34:04.999Z</time></trkpt><trkpt lat="42.18901445253493" lon="13.656290808840309"><ele>663.75</ele><time>2026-04-27T09:34:05.999Z</time></trkpt><trkpt lat="42.1891652028589" lon="13.656274246417746"><ele>662.5</ele><time>2026-04-27T09:34:06.999Z</time></trkpt><trkpt lat="42.18929576634982" lon="13.656263703008282"><ele>661.25</ele><time>2026-04-27T09:34:07.999Z</time></trkpt><trkpt lat="42.18940343293932" lon="13.656273196441912"><ele>660.0</ele><time>2026-04-27T09:34:08.999Z</time></trkpt><trkpt lat="42.18947474614432" lon="13.656326373402571"><ele>660.0</ele><time>2026-04-27T09:34:09.999Z</time></trkpt><trkpt lat="42.18950767192791" lon="13.656404988537265"><ele>660.0</ele><time>2026-04-27T09:34:10.999Z</time></trkpt><trkpt lat="42.18948326441464" lon="13.656489182620607"><ele>660.0</ele><time>2026-04-27T09:34:11.999Z</time></trkpt><trkpt lat="42.18941282197099" lon="13.656555171284076"><ele>660.0</ele><time>2026-04-27T09:34:12.999Z</time></trkpt><trkpt lat="42.189315547599" lon="13.65652479840828"><ele>660.0</ele><time>2026-04-27T09:34:13.999Z</time></trkpt><trkpt lat="42.18920296982142" lon="13.656524775499994"><ele>660.0</ele><time>2026-04-27T09:34:14.999Z</time></trkpt><trkpt lat="42.18907740277832" lon="13.656524005767912"><ele>661.25</ele><time>2026-04-27T09:34:15.999Z</time></trkpt><trkpt lat="42.18895345472631" lon="13.656524370844044"><ele>662.5</ele><time>2026-04-27T09:34:16.999Z</time></trkpt><trkpt lat="42.18882718622581" lon="13.65654267067618"><ele>663.75</ele><time>2026-04-27T09:34:17.999Z</time></trkpt><trkpt lat="42.18868530197417" lon="13.656544127646203"><ele>665.0</ele><time>2026-04-27T09:34:18.999Z</time></trkpt><trkpt lat="42.18853419691573" lon="13.656555309351193"><ele>665.0</ele><time>2026-04-27T09:34:19.999Z</time></trkpt><trkpt lat="42.18837321495293" lon="13.656569894729476"><ele>665.0</ele><time>2026-04-27T09:34:20.999Z</time></trkpt><trkpt lat="42.1882088195374" lon="13.656579498889027"><ele>665.0</ele><time>2026-04-27T09:34:21.999Z</time></trkpt><trkpt lat="42.1880545819211" lon="13.656593529877107"><ele>666.3333333333333</ele><time>2026-04-27T09:34:22.999Z</time></trkpt><trkpt lat="42.18788686210652" lon="13.656616352203867"><ele>667.6666666666666</ele><time>2026-04-27T09:34:23.999Z</time></trkpt><trkpt lat="42.18771695354285" lon="13.656650147833156"><ele>669.0</ele><time>2026-04-27T09:34:24.999Z</time></trkpt><trkpt lat="42.18754280897019" lon="13.656696912679157"><ele>669.0</ele><time>2026-04-27T09:34:25.999Z</time></trkpt><trkpt lat="42.18736196903607" lon="13.65672681618411"><ele>669.0</ele><time>2026-04-27T09:34:26.999Z</time></trkpt><trkpt lat="42.187183509299444" lon="13.656797191865529"><ele>669.0</ele><time>2026-04-27T09:34:27.999Z</time></trkpt><trkpt lat="42.186997884598675" lon="13.656839121460894"><ele>671.3333333333334</ele><time>2026-04-27T09:34:28.999Z</time></trkpt><trkpt lat="42.18680939530572" lon="13.656881146930479"><ele>673.6666666666667</ele><time>2026-04-27T09:34:29.999Z</time></trkpt><trkpt lat="42.18661878615166" lon="13.65692818243397"><ele>676.0</ele><time>2026-04-27T09:34:30.999Z</time></trkpt><trkpt lat="42.18642467845861" lon="13.656974984679012"><ele>682.6666666666667</ele><time>2026-04-27T09:34:31.999Z</time></trkpt><trkpt lat="42.186227346392364" lon="13.657021018960075"><ele>689.3333333333334</ele><time>2026-04-27T09:34:32.999Z</time></trkpt><trkpt lat="42.18602759603873" lon="13.657070293682159"><ele>696.0</ele><time>2026-04-27T09:34:33.999Z</time></trkpt><trkpt lat="42.18582800832249" lon="13.65712086118978"><ele>694.0</ele><time>2026-04-27T09:34:34.999Z</time></trkpt><trkpt lat="42.18563490793522" lon="13.657170659216654"><ele>692.0</ele><time>2026-04-27T09:34:35.999Z</time></trkpt><trkpt lat="42.18546537997635" lon="13.657217577408975"><ele>690.0</ele><time>2026-04-27T09:34:36.999Z</time></trkpt><trkpt lat="42.1853149942973" lon="13.657282682666228"><ele>690.0</ele><time>2026-04-27T09:34:37.999Z</time></trkpt><trkpt lat="42.18515538142067" lon="13.657360425403917"><ele>690.0</ele><time>2026-04-27T09:34:38.999Z</time></trkpt><trkpt lat="42.18502118850839" lon="13.657513088426908"><ele>690.0</ele><time>2026-04-27T09:34:39.999Z</time></trkpt><trkpt lat="42.18488228432311" lon="13.657656455842343"><ele>688.6666666666666</ele><time>2026-04-27T09:34:40.999Z</time></trkpt><trkpt lat="42.18473439123729" lon="13.657791950580426"><ele>687.3333333333333</ele><time>2026-04-27T09:34:41.999Z</time></trkpt><trkpt lat="42.184591563233" lon="13.657946551164102"><ele>686.0</ele><time>2026-04-27T09:34:42.999Z</time></trkpt><trkpt lat="42.1844528429212" lon="13.658096766679407"><ele>686.0</ele><time>2026-04-27T09:34:43.999Z</time></trkpt><trkpt lat="42.18432211337398" lon="13.658257906887345"><ele>686.0</ele><time>2026-04-27T09:34:44.999Z</time></trkpt><trkpt lat="42.18417275637829" lon="13.658394678474847"><ele>686.0</ele><time>2026-04-27T09:34:45.999Z</time></trkpt><trkpt lat="42.184016241986114" lon="13.658524113714941"><ele>684.3333333333333</ele><time>2026-04-27T09:34:46.999Z</time></trkpt><trkpt lat="42.18385078050626" lon="13.658635820801821"><ele>682.6666666666666</ele><time>2026-04-27T09:34:47.999Z</time></trkpt><trkpt lat="42.18367612419868" lon="13.658736977038508"><ele>681.0</ele><time>2026-04-27T09:34:48.999Z</time></trkpt><trkpt lat="42.183498870648336" lon="13.658833868271248"><ele>681.0</ele><time>2026-04-27T09:34:49.999Z</time></trkpt><trkpt lat="42.183317911926125" lon="13.658930223668646"><ele>681.0</ele><time>2026-04-27T09:34:50.999Z</time></trkpt><trkpt lat="42.18313360395492" lon="13.659030288551971"><ele>681.0</ele><time>2026-04-27T09:34:51.999Z</time></trkpt><trkpt lat="42.18294883876297" lon="13.659126997993823"><ele>683.3333333333334</ele><time>2026-04-27T09:34:52.998Z</time></trkpt><trkpt lat="42.18276417018591" lon="13.659225480885343"><ele>685.6666666666667</ele><time>2026-04-27T09:34:53.998Z</time></trkpt><trkpt lat="42.18257777076004" lon="13.65932743690706"><ele>688.0</ele><time>2026-04-27T09:34:54.998Z</time></trkpt><trkpt lat="42.182393032831925" lon="13.659433176175236"><ele>687.0</ele><time>2026-04-27T09:34:55.998Z</time></trkpt><trkpt lat="42.18221190913778" lon="13.659550885977882"><ele>686.0</ele><time>2026-04-27T09:34:56.998Z</time></trkpt><trkpt lat="42.18202932385282" lon="13.659671687176818"><ele>685.0</ele><time>2026-04-27T09:34:57.998Z</time></trkpt><trkpt lat="42.18187805934749" lon="13.659849436902338"><ele>685.0</ele><time>2026-04-27T09:34:58.998Z</time></trkpt><trkpt lat="42.18172294162739" lon="13.660019892027954"><ele>685.0</ele><time>2026-04-27T09:34:59.998Z</time></trkpt><trkpt lat="42.18156887691534" lon="13.660194579673703"><ele>685.0</ele><time>2026-04-27T09:35:00.998Z</time></trkpt><trkpt lat="42.18141745838733" lon="13.660371018008892"><ele>686.3333333333334</ele><time>2026-04-27T09:35:01.998Z</time></trkpt><trkpt lat="42.18127106962251" lon="13.660552024918777"><ele>687.6666666666666</ele><time>2026-04-27T09:35:02.998Z</time></trkpt><trkpt lat="42.18111899772799" lon="13.660719523571192"><ele>689.0</ele><time>2026-04-27T09:35:03.998Z</time></trkpt><trkpt lat="42.180995830939345" lon="13.660926433404832"><ele>689.0</ele><time>2026-04-27T09:35:04.998Z</time></trkpt><trkpt lat="42.180852079155116" lon="13.661108632082058"><ele>689.0</ele><time>2026-04-27T09:35:05.998Z</time></trkpt><trkpt lat="42.180721223448565" lon="13.661304334165305"><ele>689.0</ele><time>2026-04-27T09:35:06.998Z</time></trkpt><trkpt lat="42.18057990846646" lon="13.661486000834266"><ele>689.3333333333333</ele><time>2026-04-27T09:35:07.998Z</time></trkpt><trkpt lat="42.18042556526652" lon="13.66164531335443"><ele>689.6666666666666</ele><time>2026-04-27T09:35:08.998Z</time></trkpt><trkpt lat="42.180272953651084" lon="13.661810169198288"><ele>690.0</ele><time>2026-04-27T09:35:09.998Z</time></trkpt><trkpt lat="42.180113666612364" lon="13.661956290426382"><ele>688.6666666666666</ele><time>2026-04-27T09:35:10.998Z</time></trkpt><trkpt lat="42.17995412585209" lon="13.662116610598815"><ele>687.3333333333333</ele><time>2026-04-27T09:35:11.998Z</time></trkpt><trkpt lat="42.17980522044853" lon="13.662295889506803"><ele>686.0</ele><time>2026-04-27T09:35:12.998Z</time></trkpt><trkpt lat="42.17966157539958" lon="13.662485569632235"><ele>686.0</ele><time>2026-04-27T09:35:13.998Z</time></trkpt><trkpt lat="42.17951717644091" lon="13.66267660385669"><ele>686.0</ele><time>2026-04-27T09:35:14.998Z</time></trkpt><trkpt lat="42.17937093450612" lon="13.662868691410821"><ele>686.0</ele><time>2026-04-27T09:35:15.998Z</time></trkpt><trkpt lat="42.17923024854573" lon="13.663058550731854"><ele>686.3333333333333</ele><time>2026-04-27T09:35:16.998Z</time></trkpt><trkpt lat="42.17909214512772" lon="13.663253119992387"><ele>686.6666666666666</ele><time>2026-04-27T09:35:17.998Z</time></trkpt><trkpt lat="42.178960028874855" lon="13.663442832658985"><ele>687.0</ele><time>2026-04-27T09:35:18.998Z</time></trkpt><trkpt lat="42.17880171034488" lon="13.66359603171639"><ele>689.3333333333334</ele><time>2026-04-27T09:35:19.998Z</time></trkpt><trkpt lat="42.17865181400828" lon="13.66376183873386"><ele>691.6666666666667</ele><time>2026-04-27T09:35:20.998Z</time></trkpt><trkpt lat="42.17850557171065" lon="13.66393802422013"><ele>694.0</ele><time>2026-04-27T09:35:21.998Z</time></trkpt><trkpt lat="42.17833020219543" lon="13.664064319120683"><ele>695.3333333333334</ele><time>2026-04-27T09:35:22.998Z</time></trkpt><trkpt lat="42.178157288777946" lon="13.66419303385464"><ele>696.6666666666666</ele><time>2026-04-27T09:35:23.998Z</time></trkpt><trkpt lat="42.177993772394444" lon="13.664332875398395"><ele>698.0</ele><time>2026-04-27T09:35:24.998Z</time></trkpt><trkpt lat="42.177823631812274" lon="13.664455653638488"><ele>699.3333333333333</ele><time>2026-04-27T09:35:25.998Z</time></trkpt><trkpt lat="42.17764841031054" lon="13.66456437502439"><ele>700.6666666666666</ele><time>2026-04-27T09:35:26.998Z</time></trkpt><trkpt lat="42.17748491438598" lon="13.664701813365895"><ele>702.0</ele><time>2026-04-27T09:35:27.998Z</time></trkpt><trkpt lat="42.177326705887005" lon="13.664851515625669"><ele>705.0</ele><time>2026-04-27T09:35:28.998Z</time></trkpt><trkpt lat="42.1771958556879" lon="13.665015621878108"><ele>708.0</ele><time>2026-04-27T09:35:29.998Z</time></trkpt><trkpt lat="42.17707315388192" lon="13.665189953286127"><ele>711.0</ele><time>2026-04-27T09:35:30.998Z</time></trkpt><trkpt lat="42.176949572703535" lon="13.665363630878309"><ele>712.0</ele><time>2026-04-27T09:35:31.998Z</time></trkpt><trkpt lat="42.17681589249477" lon="13.665529922735592"><ele>713.0</ele><time>2026-04-27T09:35:32.998Z</time></trkpt><trkpt lat="42.176670785066264" lon="13.665682843667707"><ele>714.0</ele><time>2026-04-27T09:35:34Z</time></trkpt><trkpt lat="42.17653057581852" lon="13.665827543097873"><ele>716.75</ele><time>2026-04-27T09:35:35Z</time></trkpt><trkpt lat="42.17641399208324" lon="13.665953597929374"><ele>719.5</ele><time>2026-04-27T09:35:36Z</time></trkpt><trkpt lat="42.17631994991381" lon="13.666064300100839"><ele>722.25</ele><time>2026-04-27T09:35:37Z</time></trkpt><trkpt lat="42.17624739772244" lon="13.666138688699148"><ele>725.0</ele><time>2026-04-27T09:35:38Z</time></trkpt><trkpt lat="42.176117627983864" lon="13.666095874847112"><ele>725.5</ele><time>2026-04-27T09:35:39Z</time></trkpt><trkpt lat="42.17600378745002" lon="13.666037035571032"><ele>726.0</ele><time>2026-04-27T09:35:40Z</time></trkpt><trkpt lat="42.175872720780404" lon="13.666008904895106"><ele>726.5</ele><time>2026-04-27T09:35:41Z</time></trkpt><trkpt lat="42.175740977037584" lon="13.665943469957964"><ele>727.0</ele><time>2026-04-27T09:35:42Z</time></trkpt><trkpt lat="42.17560363584112" lon="13.665899407232645"><ele>729.25</ele><time>2026-04-27T09:35:43Z</time></trkpt><trkpt lat="42.17546795094998" lon="13.665834959985117"><ele>731.5</ele><time>2026-04-27T09:35:44Z</time></trkpt><trkpt lat="42.1753393658758" lon="13.665752832268991"><ele>733.75</ele><time>2026-04-27T09:35:45Z</time></trkpt><trkpt lat="42.17520513356755" lon="13.665663808211912"><ele>736.0</ele><time>2026-04-27T09:35:46Z</time></trkpt><trkpt lat="42.17506693773632" lon="13.665572251380947"><ele>736.0</ele><time>2026-04-27T09:35:47Z</time></trkpt><trkpt lat="42.174926586350175" lon="13.665480030964371"><ele>736.0</ele><time>2026-04-27T09:35:48Z</time></trkpt><trkpt lat="42.17479605602153" lon="13.665394570601785"><ele>736.0</ele><time>2026-04-27T09:35:49Z</time></trkpt><trkpt lat="42.17465405473055" lon="13.665303562301316"><ele>740.3333333333334</ele><time>2026-04-27T09:35:49.999Z</time></trkpt><trkpt lat="42.17451049413971" lon="13.665208225980512"><ele>744.6666666666666</ele><time>2026-04-27T09:35:50.999Z</time></trkpt><trkpt lat="42.17436246436391" lon="13.66510566747112"><ele>749.0</ele><time>2026-04-27T09:35:51.999Z</time></trkpt><trkpt lat="42.1742116512558" lon="13.665002143507538"><ele>749.0</ele><time>2026-04-27T09:35:52.999Z</time></trkpt><trkpt lat="42.17405702509842" lon="13.664897309004159"><ele>749.0</ele><time>2026-04-27T09:35:53.999Z</time></trkpt><trkpt lat="42.17389992810543" lon="13.664790799029262"><ele>749.0</ele><time>2026-04-27T09:35:54.999Z</time></trkpt><trkpt lat="42.17374088262916" lon="13.664684384682399"><ele>754.0</ele><time>2026-04-27T09:35:55.999Z</time></trkpt><trkpt lat="42.17358084805439" lon="13.664577395900952"><ele>759.0</ele><time>2026-04-27T09:35:56.999Z</time></trkpt><trkpt lat="42.17341830815662" lon="13.664475306411521"><ele>764.0</ele><time>2026-04-27T09:35:57.999Z</time></trkpt><trkpt lat="42.173257941497496" lon="13.664370918008517"><ele>768.6666666666666</ele><time>2026-04-27T09:35:58.999Z</time></trkpt><trkpt lat="42.17310347782895" lon="13.664258486739456"><ele>773.3333333333333</ele><time>2026-04-27T09:35:59.999Z</time></trkpt><trkpt lat="42.17295553807208" lon="13.664135258389548"><ele>778.0</ele><time>2026-04-27T09:36:00.999Z</time></trkpt><trkpt lat="42.17281244752173" lon="13.664004483509155"><ele>778.0</ele><time>2026-04-27T09:36:01.999Z</time></trkpt><trkpt lat="42.17267293013791" lon="13.663872246293893"><ele>778.0</ele><time>2026-04-27T09:36:02.999Z</time></trkpt><trkpt lat="42.17253386305575" lon="13.663739226818793"><ele>778.0</ele><time>2026-04-27T09:36:03.999Z</time></trkpt><trkpt lat="42.1724033010692" lon="13.663596870250705"><ele>781.6666666666666</ele><time>2026-04-27T09:36:04.999Z</time></trkpt><trkpt lat="42.172285612501035" lon="13.663448600555911"><ele>785.3333333333333</ele><time>2026-04-27T09:36:05.999Z</time></trkpt><trkpt lat="42.172189759512385" lon="13.66330758035484"><ele>789.0</ele><time>2026-04-27T09:36:06.999Z</time></trkpt><trkpt lat="42.17212175416158" lon="13.66312127335899"><ele>789.0</ele><time>2026-04-27T09:36:07.999Z</time></trkpt><trkpt lat="42.172056971346635" lon="13.662923880867615"><ele>789.0</ele><time>2026-04-27T09:36:08.999Z</time></trkpt><trkpt lat="42.171979866718964" lon="13.662728623889278"><ele>789.0</ele><time>2026-04-27T09:36:09.999Z</time></trkpt><trkpt lat="42.171890519289576" lon="13.662535031057628"><ele>790.0</ele><time>2026-04-27T09:36:10.999Z</time></trkpt><trkpt lat="42.17179392875467" lon="13.662343109129896"><ele>791.0</ele><time>2026-04-27T09:36:11.999Z</time></trkpt><trkpt lat="42.171715681914094" lon="13.662134790784124"><ele>792.0</ele><time>2026-04-27T09:36:12.999Z</time></trkpt><trkpt lat="42.17162338661947" lon="13.661936160889422"><ele>801.3333333333333</ele><time>2026-04-27T09:36:13.999Z</time></trkpt><trkpt lat="42.17151788043139" lon="13.661746042310181"><ele>810.6666666666666</ele><time>2026-04-27T09:36:14.999Z</time></trkpt><trkpt lat="42.17143267185124" lon="13.661542441858126"><ele>820.0</ele><time>2026-04-27T09:36:15.999Z</time></trkpt><trkpt lat="42.17134672661148" lon="13.661344817397033"><ele>820.0</ele><time>2026-04-27T09:36:16.999Z</time></trkpt><trkpt lat="42.171264583434386" lon="13.661163184079403"><ele>820.0</ele><time>2026-04-27T09:36:17.999Z</time></trkpt><trkpt lat="42.171201444495274" lon="13.661003642566042"><ele>820.0</ele><time>2026-04-27T09:36:18.999Z</time></trkpt><trkpt lat="42.171091180849444" lon="13.660893394460235"><ele>820.0</ele><time>2026-04-27T09:36:19.999Z</time></trkpt><trkpt lat="42.17094620576813" lon="13.66083235701326"><ele>819.75</ele><time>2026-04-27T09:36:20.999Z</time></trkpt><trkpt lat="42.17080688905048" lon="13.660762962524725"><ele>819.5</ele><time>2026-04-27T09:36:21.999Z</time></trkpt><trkpt lat="42.17066630923957" lon="13.660714019672753"><ele>819.25</ele><time>2026-04-27T09:36:22.999Z</time></trkpt><trkpt lat="42.17052575102952" lon="13.660665084254218"><ele>819.0</ele><time>2026-04-27T09:36:23.999Z</time></trkpt><trkpt lat="42.17040060837933" lon="13.660613536968423"><ele>823.75</ele><time>2026-04-27T09:36:24.999Z</time></trkpt><trkpt lat="42.170265502765936" lon="13.660565346696304"><ele>828.5</ele><time>2026-04-27T09:36:25.999Z</time></trkpt><trkpt lat="42.17013306795183" lon="13.660487382646474"><ele>833.25</ele><time>2026-04-27T09:36:26.999Z</time></trkpt><trkpt lat="42.170000218329534" lon="13.660404334522008"><ele>838.0</ele><time>2026-04-27T09:36:27.999Z</time></trkpt><trkpt lat="42.16986976634964" lon="13.660320795959263"><ele>843.0</ele><time>2026-04-27T09:36:28.999Z</time></trkpt><trkpt lat="42.16973183657787" lon="13.660261031951576"><ele>848.0</ele><time>2026-04-27T09:36:29.999Z</time></trkpt><trkpt lat="42.169583910369994" lon="13.660250106832436"><ele>853.0</ele><time>2026-04-27T09:36:30.999Z</time></trkpt><trkpt lat="42.16943710827072" lon="13.660221924217145"><ele>858.0</ele><time>2026-04-27T09:36:31.999Z</time></trkpt><trkpt lat="42.16929909315176" lon="13.660162231444941"><ele>858.0</ele><time>2026-04-27T09:36:32.999Z</time></trkpt><trkpt lat="42.16914959877034" lon="13.660096572603825"><ele>858.0</ele><time>2026-04-27T09:36:33.999Z</time></trkpt><trkpt lat="42.16901017667783" lon="13.660026359855635"><ele>858.0</ele><time>2026-04-27T09:36:34.999Z</time></trkpt><trkpt lat="42.1688858022581" lon="13.659925316503063"><ele>860.8</ele><time>2026-04-27T09:36:35.999Z</time></trkpt><trkpt lat="42.16877500567103" lon="13.659871905625625"><ele>863.5999999999999</ele><time>2026-04-27T09:36:36.999Z</time></trkpt><trkpt lat="42.16867216604126" lon="13.659835369425517"><ele>866.4000000000001</ele><time>2026-04-27T09:36:37.999Z</time></trkpt><trkpt lat="42.168573812117195" lon="13.659800426877478"><ele>869.2</ele><time>2026-04-27T09:36:38.999Z</time></trkpt><trkpt lat="42.168473715914686" lon="13.659773848152277"><ele>872.0</ele><time>2026-04-27T09:36:39.999Z</time></trkpt><trkpt lat="42.1682762814582" lon="13.660184482610118"><ele>875.25</ele><time>2026-04-27T09:36:40.999Z</time></trkpt><trkpt lat="42.1681454492317" lon="13.660271399046218"><ele>878.5</ele><time>2026-04-27T09:36:41.999Z</time></trkpt><trkpt lat="42.16802308288484" lon="13.660378426356427"><ele>881.75</ele><time>2026-04-27T09:36:42.999Z</time></trkpt><trkpt lat="42.16790172059241" lon="13.66049718680394"><ele>885.0</ele><time>2026-04-27T09:36:43.999Z</time></trkpt><trkpt lat="42.16777325825331" lon="13.660613755253452"><ele>885.0</ele><time>2026-04-27T09:36:44.999Z</time></trkpt><trkpt lat="42.1676419700995" lon="13.660724821328587"><ele>885.0</ele><time>2026-04-27T09:36:45.999Z</time></trkpt><trkpt lat="42.16750900938461" lon="13.660836013529119"><ele>885.0</ele><time>2026-04-27T09:36:46.999Z</time></trkpt><trkpt lat="42.16737116110748" lon="13.660933687745164"><ele>888.6666666666667</ele><time>2026-04-27T09:36:47.999Z</time></trkpt><trkpt lat="42.16723073237937" lon="13.661024132644418"><ele>892.3333333333334</ele><time>2026-04-27T09:36:48.999Z</time></trkpt><trkpt lat="42.16709528299085" lon="13.661122395704203"><ele>896.0</ele><time>2026-04-27T09:36:49.999Z</time></trkpt><trkpt lat="42.166969940118754" lon="13.661238633914673"><ele>896.0</ele><time>2026-04-27T09:36:50.999Z</time></trkpt><trkpt lat="42.166859170228186" lon="13.661367073967087"><ele>896.0</ele><time>2026-04-27T09:36:51.999Z</time></trkpt><trkpt lat="42.16675458957438" lon="13.661501293527015"><ele>896.0</ele><time>2026-04-27T09:36:52.999Z</time></trkpt><trkpt lat="42.16665776174038" lon="13.66164889983438"><ele>896.0</ele><time>2026-04-27T09:36:53.999Z</time></trkpt><trkpt lat="42.16657128896875" lon="13.66180664561634"><ele>897.25</ele><time>2026-04-27T09:36:54.998Z</time></trkpt><trkpt lat="42.1664818553059" lon="13.661966088321345"><ele>898.5</ele><time>2026-04-27T09:36:55.998Z</time></trkpt><trkpt lat="42.166383202930284" lon="13.662114089785563"><ele>899.75</ele><time>2026-04-27T09:36:56.998Z</time></trkpt><trkpt lat="42.16627962969553" lon="13.66226598259691"><ele>901.0</ele><time>2026-04-27T09:36:57.998Z</time></trkpt><trkpt lat="42.16618375563987" lon="13.662412504276757"><ele>901.0</ele><time>2026-04-27T09:36:58.998Z</time></trkpt><trkpt lat="42.16610568570955" lon="13.662510191701514"><ele>900.9999999999999</ele><time>2026-04-27T09:36:59.998Z</time></trkpt><trkpt lat="42.16599965051952" lon="13.662570784046308"><ele>900.9999999999999</ele><time>2026-04-27T09:37:01.998Z</time></trkpt><trkpt lat="42.16591060553681" lon="13.662592301325123"><ele>901.0</ele><time>2026-04-27T09:37:04.998Z</time></trkpt><trkpt lat="42.16578900713951" lon="13.662542794097499"><ele>901.0</ele><time>2026-04-27T09:37:06.998Z</time></trkpt><trkpt lat="42.16573894289698" lon="13.662488115429987"><ele>903.5999999999999</ele><time>2026-04-27T09:37:07.998Z</time></trkpt><trkpt lat="42.165685284469866" lon="13.66244224779602"><ele>906.1999999999999</ele><time>2026-04-27T09:37:08.998Z</time></trkpt><trkpt lat="42.16562047812207" lon="13.66238896679119"><ele>908.8000000000001</ele><time>2026-04-27T09:37:09.998Z</time></trkpt><trkpt lat="42.165534500178566" lon="13.662367773375138"><ele>911.4000000000001</ele><time>2026-04-27T09:37:10.998Z</time></trkpt><trkpt lat="42.16542925395113" lon="13.662338598252516"><ele>914.0</ele><time>2026-04-27T09:37:11.998Z</time></trkpt><trkpt lat="42.165315776593104" lon="13.662300266160122"><ele>914.0</ele><time>2026-04-27T09:37:12.998Z</time></trkpt><trkpt lat="42.16521736943314" lon="13.662274048799722"><ele>914.0000000000001</ele><time>2026-04-27T09:37:13.998Z</time></trkpt><trkpt lat="42.16514290322033" lon="13.662305026159293"><ele>914.0000000000001</ele><time>2026-04-27T09:37:14.998Z</time></trkpt><trkpt lat="42.16507933683565" lon="13.662368778068897"><ele>914.0</ele><time>2026-04-27T09:37:15.998Z</time></trkpt><trkpt lat="42.16502419864017" lon="13.662488385079843"><ele>914.0</ele><time>2026-04-27T09:37:16.998Z</time></trkpt><trkpt lat="42.16497417824588" lon="13.66259088550921"><ele>914.0000000000001</ele><time>2026-04-27T09:37:17.998Z</time></trkpt><trkpt lat="42.16488771372776" lon="13.662685999930037"><ele>914.0</ele><time>2026-04-27T09:37:19.998Z</time></trkpt><trkpt lat="42.164821329815666" lon="13.66269856605872"><ele>914.0</ele><time>2026-04-27T09:37:20.998Z</time></trkpt><trkpt lat="42.164741918309964" lon="13.66270014196445"><ele>914.0</ele><time>2026-04-27T09:37:21.998Z</time></trkpt><trkpt lat="42.164668076974685" lon="13.662722392828929"><ele>914.0000000000001</ele><time>2026-04-27T09:37:22.998Z</time></trkpt><trkpt lat="42.164606750329895" lon="13.662793979139702"><ele>914.0</ele><time>2026-04-27T09:37:23.998Z</time></trkpt><trkpt lat="42.16456675836932" lon="13.662905509760959"><ele>915.3333333333334</ele><time>2026-04-27T09:37:24.998Z</time></trkpt><trkpt lat="42.16450825099679" lon="13.663005218648987"><ele>916.6666666666667</ele><time>2026-04-27T09:37:25.998Z</time></trkpt><trkpt lat="42.16443492883453" lon="13.663091960235159"><ele>918.0</ele><time>2026-04-27T09:37:26.998Z</time></trkpt><trkpt lat="42.16435390067328" lon="13.663166370790396"><ele>919.3333333333333</ele><time>2026-04-27T09:37:27.998Z</time></trkpt><trkpt lat="42.164288128059454" lon="13.663232970292693"><ele>920.6666666666666</ele><time>2026-04-27T09:37:28.998Z</time></trkpt><trkpt lat="42.16423930174811" lon="13.663308056436025"><ele>922.0</ele><time>2026-04-27T09:37:29.998Z</time></trkpt><trkpt lat="42.16418755785957" lon="13.663394609485795"><ele>922.0</ele><time>2026-04-27T09:37:30.998Z</time></trkpt><trkpt lat="42.16413329895552" lon="13.663498689029016"><ele>922.0</ele><time>2026-04-27T09:37:31.998Z</time></trkpt><trkpt lat="42.16408029360534" lon="13.663602907709071"><ele>922.0</ele><time>2026-04-27T09:37:32.998Z</time></trkpt><trkpt lat="42.16401779686893" lon="13.663719951322836"><ele>922.0</ele><time>2026-04-27T09:37:33.998Z</time></trkpt><trkpt lat="42.16396466851124" lon="13.663812329446078"><ele>922.0</ele><time>2026-04-27T09:37:34.998Z</time></trkpt><trkpt lat="42.16392761929335" lon="13.663899293197003"><ele>924.1666666666666</ele><time>2026-04-27T09:37:35.998Z</time></trkpt><trkpt lat="42.163899155291084" lon="13.663999619304784"><ele>926.3333333333333</ele><time>2026-04-27T09:37:36.998Z</time></trkpt><trkpt lat="42.16385039087359" lon="13.664093000894662"><ele>928.5</ele><time>2026-04-27T09:37:37.998Z</time></trkpt><trkpt lat="42.163790748778226" lon="13.664156511154351"><ele>930.6666666666667</ele><time>2026-04-27T09:37:38.999Z</time></trkpt><trkpt lat="42.16371115926217" lon="13.664197692375215"><ele>932.8333333333334</ele><time>2026-04-27T09:37:39.999Z</time></trkpt><trkpt lat="42.16364185227331" lon="13.664230897157536"><ele>935.0</ele><time>2026-04-27T09:37:40.999Z</time></trkpt><trkpt lat="42.16353967510603" lon="13.664321539191402"><ele>935.0</ele><time>2026-04-27T09:37:42.999Z</time></trkpt><trkpt lat="42.16345984287495" lon="13.66440449519432"><ele>935.0</ele><time>2026-04-27T09:37:44.999Z</time></trkpt><trkpt lat="42.16340072769825" lon="13.664514288465577"><ele>935.0</ele><time>2026-04-27T09:37:46.999Z</time></trkpt><trkpt lat="42.16335351694555" lon="13.664591346624722"><ele>935.0</ele><time>2026-04-27T09:37:47.999Z</time></trkpt><trkpt lat="42.16328819795744" lon="13.664667725815711"><ele>935.0</ele><time>2026-04-27T09:37:48.999Z</time></trkpt><trkpt lat="42.16322413230053" lon="13.664755805312453"><ele>937.8</ele><time>2026-04-27T09:37:49.999Z</time></trkpt><trkpt lat="42.16316530335081" lon="13.664840234373102"><ele>940.6</ele><time>2026-04-27T09:37:50.999Z</time></trkpt><trkpt lat="42.163122396601764" lon="13.66490303913726"><ele>943.4000000000001</ele><time>2026-04-27T09:37:51.999Z</time></trkpt><trkpt lat="42.16307758121524" lon="13.664966164545943"><ele>946.2</ele><time>2026-04-27T09:37:52.999Z</time></trkpt><trkpt lat="42.1629910935347" lon="13.665094934892682"><ele>949.0</ele><time>2026-04-27T09:37:54.999Z</time></trkpt><trkpt lat="42.162932562640165" lon="13.665242611925885"><ele>946.6</ele><time>2026-04-27T09:37:56.999Z</time></trkpt><trkpt lat="42.16289116139521" lon="13.66535010119838"><ele>944.2</ele><time>2026-04-27T09:37:57.999Z</time></trkpt><trkpt lat="42.16282391040863" lon="13.665464254218653"><ele>941.8000000000001</ele><time>2026-04-27T09:37:58.999Z</time></trkpt><trkpt lat="42.16276350159998" lon="13.665573218525934"><ele>939.4000000000001</ele><time>2026-04-27T09:37:59.999Z</time></trkpt><trkpt lat="42.16271907087466" lon="13.665705649183167"><ele>937.0</ele><time>2026-04-27T09:38:00.999Z</time></trkpt><trkpt lat="42.162666307889374" lon="13.665828759222473"><ele>937.0</ele><time>2026-04-27T09:38:01.999Z</time></trkpt><trkpt lat="42.16261642458772" lon="13.665957613852525"><ele>937.0</ele><time>2026-04-27T09:38:02.999Z</time></trkpt><trkpt lat="42.16255169268606" lon="13.666070580617543"><ele>937.0</ele><time>2026-04-27T09:38:03.999Z</time></trkpt><trkpt lat="42.16246615370623" lon="13.666162607003917"><ele>937.0</ele><time>2026-04-27T09:38:04.999Z</time></trkpt><trkpt lat="42.162360013321226" lon="13.666225133181003"><ele>937.0</ele><time>2026-04-27T09:38:05.999Z</time></trkpt><trkpt lat="42.162248736392684" lon="13.666295074901592"><ele>939.75</ele><time>2026-04-27T09:38:06.999Z</time></trkpt><trkpt lat="42.162135240149034" lon="13.666359955408634"><ele>942.5</ele><time>2026-04-27T09:38:07.999Z</time></trkpt><trkpt lat="42.162026603686655" lon="13.666410462981712"><ele>945.25</ele><time>2026-04-27T09:38:08.999Z</time></trkpt><trkpt lat="42.16191318246718" lon="13.666479917487083"><ele>948.0</ele><time>2026-04-27T09:38:09.999Z</time></trkpt><trkpt lat="42.161814393074714" lon="13.66657700003109"><ele>948.0</ele><time>2026-04-27T09:38:10.999Z</time></trkpt><trkpt lat="42.16172671249977" lon="13.66666967668693"><ele>948.0</ele><time>2026-04-27T09:38:11.999Z</time></trkpt><trkpt lat="42.16164346640528" lon="13.666736801565557"><ele>948.0</ele><time>2026-04-27T09:38:12.999Z</time></trkpt><trkpt lat="42.16155017700529" lon="13.666824057437285"><ele>948.0</ele><time>2026-04-27T09:38:13.999Z</time></trkpt><trkpt lat="42.161475979853236" lon="13.666899516499518"><ele>948.0</ele><time>2026-04-27T09:38:14.999Z</time></trkpt><trkpt lat="42.16140482157097" lon="13.666957839993806"><ele>949.4</ele><time>2026-04-27T09:38:15.999Z</time></trkpt><trkpt lat="42.16131899666981" lon="13.667031738398396"><ele>950.8</ele><time>2026-04-27T09:38:17.999Z</time></trkpt><trkpt lat="42.16120791344192" lon="13.667119547212252"><ele>952.2</ele><time>2026-04-27T09:38:19.999Z</time></trkpt><trkpt lat="42.16114191871288" lon="13.66720195910969"><ele>953.6</ele><time>2026-04-27T09:38:20.999Z</time></trkpt><trkpt lat="42.1610740407675" lon="13.667309112342977"><ele>955.0</ele><time>2026-04-27T09:38:21.999Z</time></trkpt><trkpt lat="42.16100346293869" lon="13.667420297816955"><ele>955.0</ele><time>2026-04-27T09:38:22.999Z</time></trkpt><trkpt lat="42.16093143916437" lon="13.667530127441559"><ele>955.0</ele><time>2026-04-27T09:38:23.999Z</time></trkpt><trkpt lat="42.160850041716564" lon="13.667623798800738"><ele>955.0</ele><time>2026-04-27T09:38:24.999Z</time></trkpt><trkpt lat="42.16076980780271" lon="13.667713626549183"><ele>955.0</ele><time>2026-04-27T09:38:25.999Z</time></trkpt><trkpt lat="42.16069552947346" lon="13.667783883342095"><ele>955.0</ele><time>2026-04-27T09:38:26.999Z</time></trkpt><trkpt lat="42.16062024326165" lon="13.66782548351579"><ele>954.4</ele><time>2026-04-27T09:38:27.999Z</time></trkpt><trkpt lat="42.160546780100454" lon="13.667862004960325"><ele>953.8</ele><time>2026-04-27T09:38:28.999Z</time></trkpt><trkpt lat="42.16047563774194" lon="13.667938528618222"><ele>953.2</ele><time>2026-04-27T09:38:29.999Z</time></trkpt><trkpt lat="42.160399213135484" lon="13.66802245342211"><ele>952.6</ele><time>2026-04-27T09:38:30.999Z</time></trkpt><trkpt lat="42.16030508395171" lon="13.668111501804313"><ele>952.0</ele><time>2026-04-27T09:38:31.999Z</time></trkpt><trkpt lat="42.16021265283472" lon="13.668195221813123"><ele>952.0</ele><time>2026-04-27T09:38:32.999Z</time></trkpt><trkpt lat="42.16013431963573" lon="13.668288797347651"><ele>952.0</ele><time>2026-04-27T09:38:33.999Z</time></trkpt><trkpt lat="42.1600668451105" lon="13.668378266414381"><ele>952.0</ele><time>2026-04-27T09:38:34.999Z</time></trkpt><trkpt lat="42.16001006237359" lon="13.668461410681118"><ele>952.0</ele><time>2026-04-27T09:38:35.999Z</time></trkpt><trkpt lat="42.159941293653034" lon="13.668544773353675"><ele>952.0</ele><time>2026-04-27T09:38:36.999Z</time></trkpt><trkpt lat="42.159845663839604" lon="13.668622949933843"><ele>949.8</ele><time>2026-04-27T09:38:37.999Z</time></trkpt><trkpt lat="42.15974724781761" lon="13.668692013245616"><ele>947.6</ele><time>2026-04-27T09:38:38.999Z</time></trkpt><trkpt lat="42.1596672347654" lon="13.668771329003652"><ele>945.3999999999999</ele><time>2026-04-27T09:38:39.999Z</time></trkpt><trkpt lat="42.15960021274112" lon="13.668851987223707"><ele>943.1999999999999</ele><time>2026-04-27T09:38:40.999Z</time></trkpt><trkpt lat="42.15953215830659" lon="13.668920850526588"><ele>941.0</ele><time>2026-04-27T09:38:41.999Z</time></trkpt><trkpt lat="42.1594926023866" lon="13.668997729219743"><ele>941.0</ele><time>2026-04-27T09:38:42.999Z</time></trkpt><trkpt lat="42.15948916116573" lon="13.669100292576474"><ele>940.9999999999999</ele><time>2026-04-27T09:38:43.999Z</time></trkpt><trkpt lat="42.159504205096276" lon="13.669211504943563"><ele>940.9999999999999</ele><time>2026-04-27T09:38:44.999Z</time></trkpt><trkpt lat="42.15952038493677" lon="13.669348599770299"><ele>941.0</ele><time>2026-04-27T09:38:45.999Z</time></trkpt><trkpt lat="42.159508934804464" lon="13.66948860891665"><ele>941.0</ele><time>2026-04-27T09:38:46.999Z</time></trkpt><trkpt lat="42.15948454861102" lon="13.669638446943107"><ele>939.5999999999999</ele><time>2026-04-27T09:38:47.999Z</time></trkpt><trkpt lat="42.159459791257795" lon="13.66977746171792"><ele>938.1999999999999</ele><time>2026-04-27T09:38:48.999Z</time></trkpt><trkpt lat="42.15942963046085" lon="13.669903445971231"><ele>936.8000000000001</ele><time>2026-04-27T09:38:49.999Z</time></trkpt><trkpt lat="42.15938396950162" lon="13.670005616131894"><ele>935.4000000000001</ele><time>2026-04-27T09:38:50.999Z</time></trkpt><trkpt lat="42.15931261867368" lon="13.670096665469176"><ele>934.0</ele><time>2026-04-27T09:38:51.999Z</time></trkpt><trkpt lat="42.159255905472904" lon="13.670181284124562"><ele>935.6</ele><time>2026-04-27T09:38:52.999Z</time></trkpt><trkpt lat="42.1592115819588" lon="13.67029422604328"><ele>937.2</ele><time>2026-04-27T09:38:53.999Z</time></trkpt><trkpt lat="42.15917759125234" lon="13.670426804372728"><ele>938.8000000000001</ele><time>2026-04-27T09:38:54.999Z</time></trkpt><trkpt lat="42.15916534357975" lon="13.670551198504551"><ele>940.4000000000001</ele><time>2026-04-27T09:38:55.998Z</time></trkpt><trkpt lat="42.15915835919597" lon="13.670677135612982"><ele>942.0</ele><time>2026-04-27T09:38:56.998Z</time></trkpt><trkpt lat="42.15917095608185" lon="13.670814957879218"><ele>942.0</ele><time>2026-04-27T09:38:57.998Z</time></trkpt><trkpt lat="42.15918192535977" lon="13.670946698560705"><ele>942.0</ele><time>2026-04-27T09:38:58.998Z</time></trkpt><trkpt lat="42.15918543685292" lon="13.671088537712283"><ele>942.0</ele><time>2026-04-27T09:38:59.998Z</time></trkpt><trkpt lat="42.159193702466744" lon="13.671235363402017"><ele>942.0</ele><time>2026-04-27T09:39:00.998Z</time></trkpt><trkpt lat="42.159205864767145" lon="13.671383318493614"><ele>942.0</ele><time>2026-04-27T09:39:01.998Z</time></trkpt><trkpt lat="42.15921149049752" lon="13.671535350324557"><ele>942.1666666666666</ele><time>2026-04-27T09:39:02.998Z</time></trkpt><trkpt lat="42.15921932284599" lon="13.671643473805869"><ele>942.3333333333333</ele><time>2026-04-27T09:39:03.998Z</time></trkpt><trkpt lat="42.15922155799795" lon="13.671735189425872"><ele>942.5</ele><time>2026-04-27T09:39:04.998Z</time></trkpt><trkpt lat="42.15924606376695" lon="13.67183385633016"><ele>942.6666666666666</ele><time>2026-04-27T09:39:05.998Z</time></trkpt><trkpt lat="42.15930194197468" lon="13.671934629717656"><ele>942.8333333333333</ele><time>2026-04-27T09:39:06.998Z</time></trkpt><trkpt lat="42.159368998165405" lon="13.67200252523255"><ele>943.0</ele><time>2026-04-27T09:39:07.998Z</time></trkpt><trkpt lat="42.15945630525506" lon="13.672029719761271"><ele>941.9999999999999</ele><time>2026-04-27T09:39:08.998Z</time></trkpt><trkpt lat="42.15952873219539" lon="13.672066536749641"><ele>941.0</ele><time>2026-04-27T09:39:09.998Z</time></trkpt><trkpt lat="42.15957727947496" lon="13.67212456885133"><ele>940.0</ele><time>2026-04-27T09:39:10.998Z</time></trkpt><trkpt lat="42.15959579947264" lon="13.67220772596315"><ele>939.0</ele><time>2026-04-27T09:39:11.998Z</time></trkpt><trkpt lat="42.15960544803792" lon="13.672325095326272"><ele>937.9999999999999</ele><time>2026-04-27T09:39:12.998Z</time></trkpt><trkpt lat="42.15961201211157" lon="13.672461307570346"><ele>937.0</ele><time>2026-04-27T09:39:13.998Z</time></trkpt><trkpt lat="42.15964455545524" lon="13.67258604193972"><ele>937.0</ele><time>2026-04-27T09:39:14.998Z</time></trkpt><trkpt lat="42.159698982751436" lon="13.672723271048024"><ele>937.0</ele><time>2026-04-27T09:39:15.998Z</time></trkpt><trkpt lat="42.15975080512325" lon="13.672868898730314"><ele>937.0</ele><time>2026-04-27T09:39:16.998Z</time></trkpt><trkpt lat="42.15980424802615" lon="13.673015296052023"><ele>937.0</ele><time>2026-04-27T09:39:17.998Z</time></trkpt><trkpt lat="42.159866887429594" lon="13.67316395663078"><ele>940.25</ele><time>2026-04-27T09:39:18.998Z</time></trkpt><trkpt lat="42.159928919545585" lon="13.6733036408539"><ele>943.5</ele><time>2026-04-27T09:39:19.998Z</time></trkpt><trkpt lat="42.159995261556595" lon="13.673443572787017"><ele>946.75</ele><time>2026-04-27T09:39:20.998Z</time></trkpt><trkpt lat="42.16005802920119" lon="13.673577621652358"><ele>950.0</ele><time>2026-04-27T09:39:21.998Z</time></trkpt><trkpt lat="42.16011455854518" lon="13.67372696138042"><ele>950.0</ele><time>2026-04-27T09:39:22.998Z</time></trkpt><trkpt lat="42.16016529473783" lon="13.673875836258993"><ele>950.0</ele><time>2026-04-27T09:39:23.998Z</time></trkpt><trkpt lat="42.160221606199414" lon="13.674022857549236"><ele>950.0</ele><time>2026-04-27T09:39:24.998Z</time></trkpt><trkpt lat="42.16026807092057" lon="13.674158087805505"><ele>950.0</ele><time>2026-04-27T09:39:25.998Z</time></trkpt><trkpt lat="42.16031667646357" lon="13.674253101498456"><ele>950.0</ele><time>2026-04-27T09:39:26.998Z</time></trkpt><trkpt lat="42.16036442504501" lon="13.674324489266287"><ele>950.0000000000001</ele><time>2026-04-27T09:39:27.998Z</time></trkpt><trkpt lat="42.1604222828518" lon="13.674379242379782"><ele>950.0</ele><time>2026-04-27T09:39:28.998Z</time></trkpt><trkpt lat="42.16049509784566" lon="13.674418234563138"><ele>950.0</ele><time>2026-04-27T09:39:29.998Z</time></trkpt><trkpt lat="42.16058286115778" lon="13.674447043245245"><ele>950.0</ele><time>2026-04-27T09:39:30.998Z</time></trkpt><trkpt lat="42.160679321016374" lon="13.674479985408153"><ele>950.0000000000001</ele><time>2026-04-27T09:39:31.998Z</time></trkpt><trkpt lat="42.160769223942935" lon="13.674533932951151"><ele>950.0</ele><time>2026-04-27T09:39:32.999Z</time></trkpt><trkpt lat="42.160843368530024" lon="13.674632147298139"><ele>952.2</ele><time>2026-04-27T09:39:33.999Z</time></trkpt><trkpt lat="42.1609028029829" lon="13.674747509804167"><ele>954.4</ele><time>2026-04-27T09:39:34.999Z</time></trkpt><trkpt lat="42.160947804376335" lon="13.67485031963595"><ele>956.5999999999999</ele><time>2026-04-27T09:39:35.999Z</time></trkpt><trkpt lat="42.16102180274444" lon="13.674963290803205"><ele>958.8</ele><time>2026-04-27T09:39:36.999Z</time></trkpt><trkpt lat="42.16109861188148" lon="13.675073811147353"><ele>961.0</ele><time>2026-04-27T09:39:37.999Z</time></trkpt><trkpt lat="42.16115593842813" lon="13.675178371138568"><ele>962.4</ele><time>2026-04-27T09:39:38.999Z</time></trkpt><trkpt lat="42.16120458523671" lon="13.675294959527802"><ele>963.8</ele><time>2026-04-27T09:39:39.999Z</time></trkpt><trkpt lat="42.161262503487706" lon="13.675415306515905"><ele>965.1999999999999</ele><time>2026-04-27T09:39:40.999Z</time></trkpt><trkpt lat="42.161327286018164" lon="13.675536489660365"><ele>966.5999999999999</ele><time>2026-04-27T09:39:41.999Z</time></trkpt><trkpt lat="42.16139758613227" lon="13.675664168267394"><ele>968.0</ele><time>2026-04-27T09:39:42.999Z</time></trkpt><trkpt lat="42.16145710463558" lon="13.675792288065828"><ele>968.0</ele><time>2026-04-27T09:39:43.999Z</time></trkpt><trkpt lat="42.16152239365471" lon="13.675911023669768"><ele>968.0</ele><time>2026-04-27T09:39:45Z</time></trkpt><trkpt lat="42.16157587902627" lon="13.676032153678188"><ele>968.0</ele><time>2026-04-27T09:39:46Z</time></trkpt><trkpt lat="42.16160435181588" lon="13.67616296654687"><ele>968.0</ele><time>2026-04-27T09:39:47Z</time></trkpt><trkpt lat="42.16163208322617" lon="13.676306440747997"><ele>968.0</ele><time>2026-04-27T09:39:48Z</time></trkpt><trkpt lat="42.161661999269725" lon="13.676437130027361"><ele>968.0</ele><time>2026-04-27T09:39:49Z</time></trkpt><trkpt lat="42.16169165461448" lon="13.676582875499955"><ele>968.0</ele><time>2026-04-27T09:39:50Z</time></trkpt><trkpt lat="42.16172995895063" lon="13.676704454331695"><ele>968.0</ele><time>2026-04-27T09:39:51Z</time></trkpt><trkpt lat="42.16176860322909" lon="13.676834323465597"><ele>968.0</ele><time>2026-04-27T09:39:52Z</time></trkpt><trkpt lat="42.161788318745835" lon="13.676954813986857"><ele>968.0</ele><time>2026-04-27T09:39:53Z</time></trkpt><trkpt lat="42.16178559467972" lon="13.677070070029735"><ele>966.5999999999999</ele><time>2026-04-27T09:39:54Z</time></trkpt><trkpt lat="42.161800102166346" lon="13.677207041213192"><ele>965.1999999999999</ele><time>2026-04-27T09:39:55Z</time></trkpt><trkpt lat="42.1618125335976" lon="13.677363447899856"><ele>963.8</ele><time>2026-04-27T09:39:56Z</time></trkpt><trkpt lat="42.16182885976034" lon="13.677504238838349"><ele>962.4</ele><time>2026-04-27T09:39:57Z</time></trkpt><trkpt lat="42.16183671968523" lon="13.677641791799177"><ele>961.0</ele><time>2026-04-27T09:39:58Z</time></trkpt><trkpt lat="42.1618439428589" lon="13.677782646551755"><ele>957.75</ele><time>2026-04-27T09:39:59Z</time></trkpt><trkpt lat="42.161843715206544" lon="13.677942429825439"><ele>954.5</ele><time>2026-04-27T09:40:00Z</time></trkpt><trkpt lat="42.161848154191944" lon="13.678131077286396"><ele>951.25</ele><time>2026-04-27T09:40:01Z</time></trkpt><trkpt lat="42.16186179915816" lon="13.678317401140491"><ele>948.0</ele><time>2026-04-27T09:40:02Z</time></trkpt><trkpt lat="42.16187823901045" lon="13.678499908095972"><ele>945.5</ele><time>2026-04-27T09:40:03Z</time></trkpt><trkpt lat="42.16188817012336" lon="13.678682170200315"><ele>943.0</ele><time>2026-04-27T09:40:04Z</time></trkpt><trkpt lat="42.16189659237159" lon="13.678856704462909"><ele>940.5</ele><time>2026-04-27T09:40:05Z</time></trkpt><trkpt lat="42.161895384132684" lon="13.679015965136243"><ele>938.0</ele><time>2026-04-27T09:40:06Z</time></trkpt><trkpt lat="42.16188385533633" lon="13.67917894759657"><ele>938.0</ele><time>2026-04-27T09:40:07Z</time></trkpt><trkpt lat="42.16185232343838" lon="13.679331894312728"><ele>938.0</ele><time>2026-04-27T09:40:08Z</time></trkpt><trkpt lat="42.161815621763665" lon="13.679505139748494"><ele>938.0</ele><time>2026-04-27T09:40:09Z</time></trkpt><trkpt lat="42.161782275772445" lon="13.679677478763779"><ele>938.0</ele><time>2026-04-27T09:40:10Z</time></trkpt><trkpt lat="42.16176053928481" lon="13.679833493806985"><ele>936.4</ele><time>2026-04-27T09:40:11Z</time></trkpt><trkpt lat="42.16174388149069" lon="13.679961011634006"><ele>934.8</ele><time>2026-04-27T09:40:12Z</time></trkpt><trkpt lat="42.161727400930154" lon="13.680062993484867"><ele>933.2</ele><time>2026-04-27T09:40:13Z</time></trkpt><trkpt lat="42.16166904984834" lon="13.680186795959997"><ele>931.6</ele><time>2026-04-27T09:40:15Z</time></trkpt><trkpt lat="42.16159058592564" lon="13.680248981545061"><ele>930.0</ele><time>2026-04-27T09:40:17Z</time></trkpt><trkpt lat="42.16154466935575" lon="13.680129582240278"><ele>930.0</ele><time>2026-04-27T09:40:21Z</time></trkpt><trkpt lat="42.16156896490074" lon="13.67991974112632"><ele>930.0</ele><time>2026-04-27T09:40:23Z</time></trkpt><trkpt lat="42.161540098865714" lon="13.679822212948048"><ele>930.0</ele><time>2026-04-27T09:40:24Z</time></trkpt><trkpt lat="42.16151022886579" lon="13.679689249715397"><ele>930.0</ele><time>2026-04-27T09:40:25Z</time></trkpt><trkpt lat="42.16149726440033" lon="13.679562375232683"><ele>930.0</ele><time>2026-04-27T09:40:26Z</time></trkpt><trkpt lat="42.16148892867318" lon="13.679449550579864"><ele>931.2</ele><time>2026-04-27T09:40:27Z</time></trkpt><trkpt lat="42.161482309324036" lon="13.679356074176656"><ele>932.4</ele><time>2026-04-27T09:40:28Z</time></trkpt><trkpt lat="42.16140828841556" lon="13.679247692926777"><ele>933.5999999999999</ele><time>2026-04-27T09:40:30Z</time></trkpt><trkpt lat="42.1613248608428" lon="13.6792378771668"><ele>934.8</ele><time>2026-04-27T09:40:31Z</time></trkpt><trkpt lat="42.161224318681306" lon="13.679277272768518"><ele>936.0</ele><time>2026-04-27T09:40:32Z</time></trkpt><trkpt lat="42.16111787799796" lon="13.679332029222456"><ele>936.0</ele><time>2026-04-27T09:40:33Z</time></trkpt><trkpt lat="42.16100364884979" lon="13.679388010014948"><ele>936.0</ele><time>2026-04-27T09:40:34Z</time></trkpt><trkpt lat="42.160884235420106" lon="13.679427556992428"><ele>936.0</ele><time>2026-04-27T09:40:35Z</time></trkpt><trkpt lat="42.160759448257764" lon="13.679444493525146"><ele>936.0</ele><time>2026-04-27T09:40:36Z</time></trkpt><trkpt lat="42.160626713711686" lon="13.679454560351768"><ele>930.25</ele><time>2026-04-27T09:40:37Z</time></trkpt><trkpt lat="42.16049607358223" lon="13.679471822322245"><ele>924.5</ele><time>2026-04-27T09:40:38Z</time></trkpt><trkpt lat="42.16037778217561" lon="13.679522123599488"><ele>918.75</ele><time>2026-04-27T09:40:39Z</time></trkpt><trkpt lat="42.16028364573379" lon="13.679598960981973"><ele>913.0</ele><time>2026-04-27T09:40:40Z</time></trkpt><trkpt lat="42.16018750270266" lon="13.679671738413496"><ele>913.0</ele><time>2026-04-27T09:40:41Z</time></trkpt><trkpt lat="42.1600836303168" lon="13.67972544693816"><ele>913.0</ele><time>2026-04-27T09:40:42Z</time></trkpt><trkpt lat="42.159993000598085" lon="13.679778396458786"><ele>913.0</ele><time>2026-04-27T09:40:43Z</time></trkpt><trkpt lat="42.1599119803345" lon="13.679843991132229"><ele>913.0</ele><time>2026-04-27T09:40:44Z</time></trkpt><trkpt lat="42.159843846253224" lon="13.679927076365646"><ele>913.0</ele><time>2026-04-27T09:40:45Z</time></trkpt><trkpt lat="42.159795312115826" lon="13.680028161237193"><ele>908.8333333333333</ele><time>2026-04-27T09:40:46Z</time></trkpt><trkpt lat="42.15974415639253" lon="13.680083852679294"><ele>904.6666666666666</ele><time>2026-04-27T09:40:47Z</time></trkpt><trkpt lat="42.159649542196654" lon="13.680077028754498"><ele>900.5</ele><time>2026-04-27T09:40:49Z</time></trkpt><trkpt lat="42.159599384106585" lon="13.680018775653348"><ele>896.3333333333333</ele><time>2026-04-27T09:40:51Z</time></trkpt><trkpt lat="42.1595322438595" lon="13.67990648512383"><ele>892.1666666666666</ele><time>2026-04-27T09:40:56Z</time></trkpt><trkpt lat="42.159488600436966" lon="13.679790353617742"><ele>888.0</ele><time>2026-04-27T09:41:58Z</time></trkpt><trkpt lat="42.15945788070514" lon="13.679706820863634"><ele>888.0</ele><time>2026-04-27T09:41:59Z</time></trkpt><trkpt lat="42.15940667314714" lon="13.679602161541535"><ele>888.0</ele><time>2026-04-27T09:42:00Z</time></trkpt><trkpt lat="42.1593483187572" lon="13.679506142851443"><ele>888.0</ele><time>2026-04-27T09:42:01Z</time></trkpt><trkpt lat="42.159319367808386" lon="13.679416251348886"><ele>888.0</ele><time>2026-04-27T09:42:02Z</time></trkpt><trkpt lat="42.159298800794396" lon="13.67929191668803"><ele>888.0</ele><time>2026-04-27T09:42:03Z</time></trkpt><trkpt lat="42.1592744319843" lon="13.679165851733373"><ele>888.0</ele><time>2026-04-27T09:42:04Z</time></trkpt><trkpt lat="42.15924877247073" lon="13.679050456792808"><ele>889.8</ele><time>2026-04-27T09:42:05Z</time></trkpt><trkpt lat="42.15923349521175" lon="13.678940053794397"><ele>891.5999999999999</ele><time>2026-04-27T09:42:06Z</time></trkpt><trkpt lat="42.15919751562742" lon="13.678829139420108"><ele>893.4000000000001</ele><time>2026-04-27T09:42:07Z</time></trkpt><trkpt lat="42.15915493004264" lon="13.678703619874696"><ele>895.2</ele><time>2026-04-27T09:42:08Z</time></trkpt><trkpt lat="42.15910825291176" lon="13.67856252950241"><ele>897.0</ele><time>2026-04-27T09:42:09Z</time></trkpt><trkpt lat="42.15906325658475" lon="13.678432382165937"><ele>886.0</ele><time>2026-04-27T09:42:10Z</time></trkpt><trkpt lat="42.15901884068423" lon="13.678296538445293"><ele>875.0</ele><time>2026-04-27T09:42:11Z</time></trkpt><trkpt lat="42.15897932915856" lon="13.678154927990482"><ele>864.0</ele><time>2026-04-27T09:42:12Z</time></trkpt><trkpt lat="42.158943686345495" lon="13.678003859493558"><ele>853.0</ele><time>2026-04-27T09:42:13Z</time></trkpt><trkpt lat="42.15889866863009" lon="13.677847413351438"><ele>857.5</ele><time>2026-04-27T09:42:14Z</time></trkpt><trkpt lat="42.1588486289445" lon="13.677689751887867"><ele>862.0</ele><time>2026-04-27T09:42:15Z</time></trkpt><trkpt lat="42.158795901229155" lon="13.677547964739109"><ele>866.5</ele><time>2026-04-27T09:42:16Z</time></trkpt><trkpt lat="42.15874579169007" lon="13.67739731596384"><ele>871.0</ele><time>2026-04-27T09:42:17Z</time></trkpt><trkpt lat="42.158696309659554" lon="13.677251115618512"><ele>871.0</ele><time>2026-04-27T09:42:18Z</time></trkpt><trkpt lat="42.15864225676305" lon="13.677116677691998"><ele>871.0</ele><time>2026-04-27T09:42:19Z</time></trkpt><trkpt lat="42.15858071721878" lon="13.67699390554315"><ele>871.0</ele><time>2026-04-27T09:42:20Z</time></trkpt><trkpt lat="42.15851446451741" lon="13.676868681879698"><ele>871.0</ele><time>2026-04-27T09:42:21Z</time></trkpt><trkpt lat="42.15844024805906" lon="13.676731405197987"><ele>874.75</ele><time>2026-04-27T09:42:22Z</time></trkpt><trkpt lat="42.15837471879302" lon="13.67659168423124"><ele>878.5</ele><time>2026-04-27T09:42:23Z</time></trkpt><trkpt lat="42.1582983487036" lon="13.676460837469671"><ele>882.25</ele><time>2026-04-27T09:42:24Z</time></trkpt><trkpt lat="42.15822068168301" lon="13.676332277489141"><ele>886.0</ele><time>2026-04-27T09:42:25Z</time></trkpt><trkpt lat="42.158150074770035" lon="13.67620671068891"><ele>878.5999999999999</ele><time>2026-04-27T09:42:26Z</time></trkpt><trkpt lat="42.15808384645526" lon="13.676087457872232"><ele>871.1999999999999</ele><time>2026-04-27T09:42:27Z</time></trkpt><trkpt lat="42.15803324538037" lon="13.67595989041759"><ele>863.8</ele><time>2026-04-27T09:42:28Z</time></trkpt><trkpt lat="42.15796570034512" lon="13.675837695061004"><ele>856.4000000000001</ele><time>2026-04-27T09:42:29Z</time></trkpt><trkpt lat="42.157902562111445" lon="13.675719578928321"><ele>849.0</ele><time>2026-04-27T09:42:30Z</time></trkpt><trkpt lat="42.15784897922845" lon="13.67559944854938"><ele>849.0</ele><time>2026-04-27T09:42:31Z</time></trkpt><trkpt lat="42.15778116769285" lon="13.675502170894234"><ele>849.0</ele><time>2026-04-27T09:42:32Z</time></trkpt><trkpt lat="42.1577301364899" lon="13.675389795040413"><ele>849.0</ele><time>2026-04-27T09:42:33Z</time></trkpt><trkpt lat="42.15768507484724" lon="13.675261366308089"><ele>849.0</ele><time>2026-04-27T09:42:34Z</time></trkpt><trkpt lat="42.157652014769916" lon="13.675151859571168"><ele>849.0</ele><time>2026-04-27T09:42:35Z</time></trkpt><trkpt lat="42.157617090673035" lon="13.675040529602157"><ele>849.3333333333334</ele><time>2026-04-27T09:42:36Z</time></trkpt><trkpt lat="42.157583815952684" lon="13.674910615108685"><ele>849.6666666666667</ele><time>2026-04-27T09:42:37Z</time></trkpt><trkpt lat="42.15757807212745" lon="13.674808244707384"><ele>850.0</ele><time>2026-04-27T09:42:38Z</time></trkpt><trkpt lat="42.157584151435145" lon="13.674679154073747"><ele>850.3333333333334</ele><time>2026-04-27T09:42:39Z</time></trkpt><trkpt lat="42.157600112757834" lon="13.674565643544746"><ele>850.6666666666667</ele><time>2026-04-27T09:42:40Z</time></trkpt><trkpt lat="42.15760683242088" lon="13.674459017581386"><ele>851.0</ele><time>2026-04-27T09:42:41Z</time></trkpt><trkpt lat="42.15765028380069" lon="13.674325123917246"><ele>851.0</ele><time>2026-04-27T09:42:43Z</time></trkpt><trkpt lat="42.15768398612432" lon="13.67422326989669"><ele>851.0</ele><time>2026-04-27T09:42:45Z</time></trkpt><trkpt lat="42.15757312572552" lon="13.674282372133431"><ele>851.0</ele><time>2026-04-27T09:42:47Z</time></trkpt><trkpt lat="42.1575304065534" lon="13.674354301211112"><ele>851.0</ele><time>2026-04-27T09:42:48Z</time></trkpt><trkpt lat="42.15746431958307" lon="13.674484310535895"><ele>851.0</ele><time>2026-04-27T09:42:50Z</time></trkpt><trkpt lat="42.15740955396933" lon="13.67464239203382"><ele>851.6666666666667</ele><time>2026-04-27T09:42:52Z</time></trkpt><trkpt lat="42.157391597019384" lon="13.674727560958813"><ele>852.3333333333334</ele><time>2026-04-27T09:42:53Z</time></trkpt><trkpt lat="42.15738304360022" lon="13.674817717536571"><ele>853.0</ele><time>2026-04-27T09:42:54Z</time></trkpt><trkpt lat="42.15737660882612" lon="13.67490928674364"><ele>853.6666666666667</ele><time>2026-04-27T09:42:55Z</time></trkpt><trkpt lat="42.15737026423376" lon="13.675004642004279"><ele>854.3333333333334</ele><time>2026-04-27T09:42:56Z</time></trkpt><trkpt lat="42.15731666631845" lon="13.675093356802543"><ele>855.0</ele><time>2026-04-27T09:42:58Z</time></trkpt><trkpt lat="42.15723163693976" lon="13.674982502820507"><ele>849.3333333333334</ele><time>2026-04-27T09:43:00Z</time></trkpt><trkpt lat="42.15720842833073" lon="13.674883528736016"><ele>843.6666666666667</ele><time>2026-04-27T09:43:00.999Z</time></trkpt><trkpt lat="42.157199528294235" lon="13.67477031520657"><ele>838.0</ele><time>2026-04-27T09:43:01.999Z</time></trkpt><trkpt lat="42.15719259558905" lon="13.674644836627595"><ele>832.3333333333334</ele><time>2026-04-27T09:43:02.999Z</time></trkpt><trkpt lat="42.15718643240632" lon="13.674531689105992"><ele>826.6666666666667</ele><time>2026-04-27T09:43:03.999Z</time></trkpt><trkpt lat="42.15717892772328" lon="13.674437669403435"><ele>821.0</ele><time>2026-04-27T09:43:04.999Z</time></trkpt><trkpt lat="42.157170540917875" lon="13.674261999469312"><ele>821.0000000000001</ele><time>2026-04-27T09:43:06.999Z</time></trkpt><trkpt lat="42.15717928056125" lon="13.674172338174946"><ele>821.0</ele><time>2026-04-27T09:43:07.999Z</time></trkpt><trkpt lat="42.15721434623479" lon="13.674036206775515"><ele>821.0</ele><time>2026-04-27T09:43:09.999Z</time></trkpt><trkpt lat="42.15716136932286" lon="13.67392561060058"><ele>821.0</ele><time>2026-04-27T09:43:11.999Z</time></trkpt><trkpt lat="42.157088202052876" lon="13.67391387652991"><ele>821.0000000000001</ele><time>2026-04-27T09:43:12.999Z</time></trkpt><trkpt lat="42.15699610259343" lon="13.673972691268409"><ele>821.0</ele><time>2026-04-27T09:43:14.999Z</time></trkpt><trkpt lat="42.15693352053642" lon="13.674042537310688"><ele>821.0000000000001</ele><time>2026-04-27T09:43:15.999Z</time></trkpt><trkpt lat="42.15686562077312" lon="13.67411051702263"><ele>821.0</ele><time>2026-04-27T09:43:16.999Z</time></trkpt><trkpt lat="42.156827767925606" lon="13.674182323058929"><ele>821.0</ele><time>2026-04-27T09:43:17.999Z</time></trkpt><trkpt lat="42.15684665948503" lon="13.674309698508825"><ele>821.0</ele><time>2026-04-27T09:43:19.999Z</time></trkpt><trkpt lat="42.15686738847333" lon="13.674415157820036"><ele>821.0000000000001</ele><time>2026-04-27T09:43:20.999Z</time></trkpt><trkpt lat="42.156862806468524" lon="13.674511736685043"><ele>821.0</ele><time>2026-04-27T09:43:21.999Z</time></trkpt><trkpt lat="42.15683441859072" lon="13.674597449688202"><ele>819.3333333333334</ele><time>2026-04-27T09:43:22.999Z</time></trkpt><trkpt lat="42.15680554486995" lon="13.674684226597263"><ele>817.6666666666667</ele><time>2026-04-27T09:43:23.999Z</time></trkpt><trkpt lat="42.15677265578963" lon="13.674768914127249"><ele>816.0</ele><time>2026-04-27T09:43:24.999Z</time></trkpt><trkpt lat="42.15674110805425" lon="13.674864131817857"><ele>814.3333333333333</ele><time>2026-04-27T09:43:25.999Z</time></trkpt><trkpt lat="42.15670115269722" lon="13.674973717261262"><ele>812.6666666666666</ele><time>2026-04-27T09:43:26.999Z</time></trkpt><trkpt lat="42.15665605392523" lon="13.675087570572645"><ele>811.0</ele><time>2026-04-27T09:43:27.999Z</time></trkpt><trkpt lat="42.15661132773533" lon="13.675209983192111"><ele>809.6666666666666</ele><time>2026-04-27T09:43:28.999Z</time></trkpt><trkpt lat="42.1565716385245" lon="13.675320229182043"><ele>808.3333333333333</ele><time>2026-04-27T09:43:29.999Z</time></trkpt><trkpt lat="42.1565352682876" lon="13.675430898052609"><ele>807.0</ele><time>2026-04-27T09:43:30.999Z</time></trkpt><trkpt lat="42.156514656018224" lon="13.675543309639206"><ele>805.6666666666667</ele><time>2026-04-27T09:43:31.999Z</time></trkpt><trkpt lat="42.156491925533196" lon="13.675662849405901"><ele>804.3333333333334</ele><time>2026-04-27T09:43:32.999Z</time></trkpt><trkpt lat="42.1564668602461" lon="13.675768854815813"><ele>803.0</ele><time>2026-04-27T09:43:33.999Z</time></trkpt><trkpt lat="42.15644473733044" lon="13.675850097463057"><ele>805.5999999999999</ele><time>2026-04-27T09:43:34.999Z</time></trkpt><trkpt lat="42.15640129903607" lon="13.675936618621721"><ele>808.1999999999999</ele><time>2026-04-27T09:43:36.999Z</time></trkpt><trkpt lat="42.15638797305492" lon="13.67605718451759"><ele>810.8</ele><time>2026-04-27T09:43:39.999Z</time></trkpt><trkpt lat="42.156398178852896" lon="13.67618703973952"><ele>813.4</ele><time>2026-04-27T09:43:41.999Z</time></trkpt><trkpt lat="42.15640586217369" lon="13.676331919454809"><ele>816.0</ele><time>2026-04-27T09:43:43.999Z</time></trkpt><trkpt lat="42.15642478528024" lon="13.67649436522521"><ele>816.0</ele><time>2026-04-27T09:43:45.999Z</time></trkpt><trkpt lat="42.15644303917963" lon="13.676666388236763"><ele>816.0</ele><time>2026-04-27T09:43:47.999Z</time></trkpt><trkpt lat="42.15645448632478" lon="13.67676323953325"><ele>816.0</ele><time>2026-04-27T09:43:48.999Z</time></trkpt><trkpt lat="42.156470110003056" lon="13.67685000587933"><ele>816.0</ele><time>2026-04-27T09:43:49.999Z</time></trkpt><trkpt lat="42.15649558302034" lon="13.67694559359354"><ele>816.0</ele><time>2026-04-27T09:43:50.999Z</time></trkpt><trkpt lat="42.1565261135495" lon="13.677032116915068"><ele>816.0</ele><time>2026-04-27T09:43:51.999Z</time></trkpt><trkpt lat="42.156565633719424" lon="13.677108099021101"><ele>810.1666666666666</ele><time>2026-04-27T09:43:52.999Z</time></trkpt><trkpt lat="42.15660730693678" lon="13.677182643463404"><ele>804.3333333333333</ele><time>2026-04-27T09:43:53.999Z</time></trkpt><trkpt lat="42.15664952005438" lon="13.677254060797464"><ele>798.5</ele><time>2026-04-27T09:43:54.999Z</time></trkpt><trkpt lat="42.1566819754285" lon="13.677328429610643"><ele>792.6666666666666</ele><time>2026-04-27T09:43:55.999Z</time></trkpt><trkpt lat="42.156713194843384" lon="13.677415361098689"><ele>786.8333333333333</ele><time>2026-04-27T09:43:57Z</time></trkpt><trkpt lat="42.15675123071395" lon="13.677526413408687"><ele>781.0</ele><time>2026-04-27T09:43:58Z</time></trkpt><trkpt lat="42.156786256116966" lon="13.67764660387371"><ele>779.9999999999999</ele><time>2026-04-27T09:43:59Z</time></trkpt><trkpt lat="42.15680438063069" lon="13.677776410389082"><ele>779.0</ele><time>2026-04-27T09:44:00Z</time></trkpt><trkpt lat="42.15682285635936" lon="13.677893544737948"><ele>778.0</ele><time>2026-04-27T09:44:01Z</time></trkpt><trkpt lat="42.15684226148085" lon="13.678001998544461"><ele>777.0</ele><time>2026-04-27T09:44:02Z</time></trkpt><trkpt lat="42.156867454464745" lon="13.678104032017767"><ele>775.9999999999999</ele><time>2026-04-27T09:44:03Z</time></trkpt><trkpt lat="42.15690229379947" lon="13.678199507041468"><ele>775.0</ele><time>2026-04-27T09:44:04Z</time></trkpt><trkpt lat="42.15693330476083" lon="13.678295424623768"><ele>774.9999999999999</ele><time>2026-04-27T09:44:05Z</time></trkpt><trkpt lat="42.15695864737825" lon="13.678396536756312"><ele>775.0</ele><time>2026-04-27T09:44:06Z</time></trkpt><trkpt lat="42.15698201349114" lon="13.678496855711002"><ele>775.0</ele><time>2026-04-27T09:44:07Z</time></trkpt><trkpt lat="42.15700173995657" lon="13.678593116362897"><ele>775.0</ele><time>2026-04-27T09:44:08Z</time></trkpt><trkpt lat="42.1570160884579" lon="13.67868987619938"><ele>775.0</ele><time>2026-04-27T09:44:09Z</time></trkpt><trkpt lat="42.15703674120561" lon="13.678775432003048"><ele>774.9999999999999</ele><time>2026-04-27T09:44:10Z</time></trkpt><trkpt lat="42.157056602232664" lon="13.678860990383662"><ele>775.0</ele><time>2026-04-27T09:44:11Z</time></trkpt><trkpt lat="42.157089343154205" lon="13.679021956164819"><ele>775.4285714285713</ele><time>2026-04-27T09:44:13Z</time></trkpt><trkpt lat="42.157114661655314" lon="13.679100064319202"><ele>775.8571428571429</ele><time>2026-04-27T09:44:14Z</time></trkpt><trkpt lat="42.15715226204726" lon="13.679208985138311"><ele>776.2857142857142</ele><time>2026-04-27T09:44:16Z</time></trkpt><trkpt lat="42.15719983133253" lon="13.679272639227706"><ele>776.7142857142857</ele><time>2026-04-27T09:44:19Z</time></trkpt><trkpt lat="42.15725038639941" lon="13.679351091313979"><ele>777.1428571428571</ele><time>2026-04-27T09:44:37Z</time></trkpt><trkpt lat="42.15721853492547" lon="13.679432855348367"><ele>777.5714285714286</ele><time>2026-04-27T09:44:47Z</time></trkpt><trkpt lat="42.15719550528137" lon="13.679524556742804"><ele>778.0</ele><time>2026-04-27T09:44:51Z</time></trkpt><trkpt lat="42.15722567589966" lon="13.679603691768564"><ele>775.6666666666666</ele><time>2026-04-27T09:44:53Z</time></trkpt><trkpt lat="42.15720437482207" lon="13.679759427144003"><ele>773.3333333333333</ele><time>2026-04-27T09:44:55Z</time></trkpt><trkpt lat="42.15718563603763" lon="13.679849157919477"><ele>771.0</ele><time>2026-04-27T09:44:56Z</time></trkpt><trkpt lat="42.157165046603346" lon="13.679946171014898"><ele>768.6666666666666</ele><time>2026-04-27T09:44:57Z</time></trkpt><trkpt lat="42.157148391043826" lon="13.680048605215397"><ele>766.3333333333333</ele><time>2026-04-27T09:44:58Z</time></trkpt><trkpt lat="42.157135490902625" lon="13.680159879121739"><ele>764.0</ele><time>2026-04-27T09:44:59Z</time></trkpt><trkpt lat="42.15712468960381" lon="13.680278970121694"><ele>760.2</ele><time>2026-04-27T09:45:00Z</time></trkpt><trkpt lat="42.15710744508029" lon="13.680401934548328"><ele>756.4000000000001</ele><time>2026-04-27T09:45:01Z</time></trkpt><trkpt lat="42.157071580883965" lon="13.680529961818344"><ele>752.6</ele><time>2026-04-27T09:45:02Z</time></trkpt><trkpt lat="42.15702059855864" lon="13.6806650616898"><ele>748.8</ele><time>2026-04-27T09:45:03Z</time></trkpt><trkpt lat="42.156971034982" lon="13.680788483584214"><ele>745.0</ele><time>2026-04-27T09:45:04Z</time></trkpt><trkpt lat="42.15692084242528" lon="13.680906472603562"><ele>745.0</ele><time>2026-04-27T09:45:05Z</time></trkpt><trkpt lat="42.15686046994251" lon="13.681024564341364"><ele>745.0</ele><time>2026-04-27T09:45:06Z</time></trkpt><trkpt lat="42.156785343519076" lon="13.681145007912248"><ele>745.0</ele><time>2026-04-27T09:45:06.999Z</time></trkpt><trkpt lat="42.15669925950128" lon="13.681263988951079"><ele>745.0</ele><time>2026-04-27T09:45:07.999Z</time></trkpt><trkpt lat="42.15660532671668" lon="13.681383120498916"><ele>741.75</ele><time>2026-04-27T09:45:08.999Z</time></trkpt><trkpt lat="42.15651728985776" lon="13.681496248738144"><ele>738.5</ele><time>2026-04-27T09:45:09.999Z</time></trkpt><trkpt lat="42.15643213314101" lon="13.681602664014893"><ele>735.25</ele><time>2026-04-27T09:45:10.999Z</time></trkpt><trkpt lat="42.156343896982264" lon="13.681707749635159"><ele>732.0</ele><time>2026-04-27T09:45:11.999Z</time></trkpt><trkpt lat="42.15624059057033" lon="13.6818072278235"><ele>732.0</ele><time>2026-04-27T09:45:12.999Z</time></trkpt><trkpt lat="42.156125200297744" lon="13.681912763588231"><ele>732.0</ele><time>2026-04-27T09:45:13.999Z</time></trkpt><trkpt lat="42.1560054384791" lon="13.682028026440499"><ele>732.0</ele><time>2026-04-27T09:45:14.999Z</time></trkpt><trkpt lat="42.155882638971626" lon="13.682151612613325"><ele>732.0</ele><time>2026-04-27T09:45:15.999Z</time></trkpt><trkpt lat="42.15576408591592" lon="13.68226704277815"><ele>726.3333333333334</ele><time>2026-04-27T09:45:16.999Z</time></trkpt><trkpt lat="42.15564629049859" lon="13.682374601204927"><ele>720.6666666666667</ele><time>2026-04-27T09:45:17.999Z</time></trkpt><trkpt lat="42.155517666279245" lon="13.682486700120174"><ele>715.0</ele><time>2026-04-27T09:45:18.999Z</time></trkpt><trkpt lat="42.15538622377317" lon="13.682595700713549"><ele>715.0</ele><time>2026-04-27T09:45:19.999Z</time></trkpt><trkpt lat="42.15525652230646" lon="13.682710796653797"><ele>715.0</ele><time>2026-04-27T09:45:20.999Z</time></trkpt><trkpt lat="42.15513671240275" lon="13.682826102863645"><ele>715.0</ele><time>2026-04-27T09:45:21.999Z</time></trkpt><trkpt lat="42.15502625423905" lon="13.682947146770404"><ele>715.0</ele><time>2026-04-27T09:45:22.999Z</time></trkpt><trkpt lat="42.1549294881131" lon="13.683072460842897"><ele>712.25</ele><time>2026-04-27T09:45:23.999Z</time></trkpt><trkpt lat="42.15480633671893" lon="13.683161776377407"><ele>709.5</ele><time>2026-04-27T09:45:24.999Z</time></trkpt><trkpt lat="42.15471247064955" lon="13.683275074800381"><ele>706.75</ele><time>2026-04-27T09:45:25.999Z</time></trkpt><trkpt lat="42.15461996388669" lon="13.683384821169923"><ele>704.0</ele><time>2026-04-27T09:45:26.999Z</time></trkpt><trkpt lat="42.154537559866384" lon="13.68348895881397"><ele>704.0</ele><time>2026-04-27T09:45:27.999Z</time></trkpt><trkpt lat="42.154480004521986" lon="13.683582991372589"><ele>704.0</ele><time>2026-04-27T09:45:28.999Z</time></trkpt><trkpt lat="42.15442848313337" lon="13.683651905820577"><ele>704.0</ele><time>2026-04-27T09:45:29.999Z</time></trkpt><trkpt lat="42.15434579419329" lon="13.683716861403125"><ele>704.0</ele><time>2026-04-27T09:45:31.999Z</time></trkpt><trkpt lat="42.1542815701969" lon="13.683634798496705"><ele>704.0</ele><time>2026-04-27T09:45:32.999Z</time></trkpt><trkpt lat="42.15420590424508" lon="13.683631896849255"><ele>704.0</ele><time>2026-04-27T09:45:33.999Z</time></trkpt><trkpt lat="42.15413639324695" lon="13.683641663370034"><ele>702.8000000000001</ele><time>2026-04-27T09:45:34.999Z</time></trkpt><trkpt lat="42.15406800152731" lon="13.683694968507089"><ele>701.6</ele><time>2026-04-27T09:45:35.999Z</time></trkpt><trkpt lat="42.15402518669305" lon="13.68378501829348"><ele>700.4</ele><time>2026-04-27T09:45:36.999Z</time></trkpt><trkpt lat="42.153995146384894" lon="13.683867658085763"><ele>699.2</ele><time>2026-04-27T09:45:37.999Z</time></trkpt><trkpt lat="42.15408164101997" lon="13.684071746044829"><ele>698.0</ele><time>2026-04-27T09:45:39.999Z</time></trkpt><trkpt lat="42.15412060550645" lon="13.68418842197297"><ele>698.0</ele><time>2026-04-27T09:45:40.999Z</time></trkpt><trkpt lat="42.15412019504198" lon="13.684329563929204"><ele>698.0</ele><time>2026-04-27T09:45:41.999Z</time></trkpt><trkpt lat="42.15408512489508" lon="13.684479473052328"><ele>698.0</ele><time>2026-04-27T09:45:42.999Z</time></trkpt><trkpt lat="42.15404241321974" lon="13.684616342825013"><ele>698.0</ele><time>2026-04-27T09:45:43.999Z</time></trkpt><trkpt lat="42.15400223763687" lon="13.684768299208976"><ele>696.75</ele><time>2026-04-27T09:45:44.999Z</time></trkpt><trkpt lat="42.15395871632056" lon="13.684928841730803"><ele>695.5</ele><time>2026-04-27T09:45:45.999Z</time></trkpt><trkpt lat="42.15391532665821" lon="13.685105691161905"><ele>694.25</ele><time>2026-04-27T09:45:46.999Z</time></trkpt><trkpt lat="42.1538723942697" lon="13.685275625734365"><ele>693.0</ele><time>2026-04-27T09:45:47.999Z</time></trkpt><trkpt lat="42.15382846485373" lon="13.685446421989448"><ele>693.0</ele><time>2026-04-27T09:45:48.999Z</time></trkpt><trkpt lat="42.153785863913505" lon="13.685622821400537"><ele>693.0</ele><time>2026-04-27T09:45:49.999Z</time></trkpt><trkpt lat="42.15374506752011" lon="13.6858008757488"><ele>693.0</ele><time>2026-04-27T09:45:50.999Z</time></trkpt><trkpt lat="42.15370065731224" lon="13.685988434778057"><ele>693.0</ele><time>2026-04-27T09:45:51.999Z</time></trkpt><trkpt lat="42.15365644342217" lon="13.686185464194242"><ele>689.3333333333334</ele><time>2026-04-27T09:45:52.999Z</time></trkpt><trkpt lat="42.153610129117226" lon="13.686389456253519"><ele>685.6666666666667</ele><time>2026-04-27T09:45:53.999Z</time></trkpt><trkpt lat="42.15356238173825" lon="13.686599064409975"><ele>682.0</ele><time>2026-04-27T09:45:54.999Z</time></trkpt><trkpt lat="42.15351647996465" lon="13.686816290837413"><ele>679.6666666666667</ele><time>2026-04-27T09:45:55.999Z</time></trkpt><trkpt lat="42.153472303626685" lon="13.687034587161387"><ele>677.3333333333334</ele><time>2026-04-27T09:45:56.999Z</time></trkpt><trkpt lat="42.153428903300664" lon="13.687246687370054"><ele>675.0</ele><time>2026-04-27T09:45:57.999Z</time></trkpt><trkpt lat="42.15338977577701" lon="13.687447800844563"><ele>675.0</ele><time>2026-04-27T09:45:58.999Z</time></trkpt><trkpt lat="42.15336043001124" lon="13.687597163726043"><ele>675.0</ele><time>2026-04-27T09:45:59.999Z</time></trkpt><trkpt lat="42.153340165146425" lon="13.68768492239467"><ele>675.0</ele><time>2026-04-27T09:46:00.999Z</time></trkpt><trkpt lat="42.15322581575568" lon="13.687677714374423"><ele>675.0</ele><time>2026-04-27T09:46:04Z</time></trkpt><trkpt lat="42.15315890416633" lon="13.68766553246869"><ele>675.0</ele><time>2026-04-27T09:46:05Z</time></trkpt><trkpt lat="42.15306869272556" lon="13.687678438574427"><ele>675.0</ele><time>2026-04-27T09:46:06Z</time></trkpt><trkpt lat="42.15296657001137" lon="13.687744250019254"><ele>675.0</ele><time>2026-04-27T09:46:07Z</time></trkpt><trkpt lat="42.152860923011744" lon="13.687820856154586"><ele>675.0</ele><time>2026-04-27T09:46:08Z</time></trkpt><trkpt lat="42.15274405283477" lon="13.687889444244327"><ele>675.0</ele><time>2026-04-27T09:46:09Z</time></trkpt><trkpt lat="42.152638426261845" lon="13.687951433454211"><ele>674.2</ele><time>2026-04-27T09:46:10Z</time></trkpt><trkpt lat="42.15255377991732" lon="13.688027101400154"><ele>673.4</ele><time>2026-04-27T09:46:11Z</time></trkpt><trkpt lat="42.15249962048543" lon="13.688150083651694"><ele>672.5999999999999</ele><time>2026-04-27T09:46:12Z</time></trkpt><trkpt lat="42.15242199406427" lon="13.688265948104675"><ele>671.8</ele><time>2026-04-27T09:46:13Z</time></trkpt><trkpt lat="42.15235914458002" lon="13.688403119462638"><ele>671.0</ele><time>2026-04-27T09:46:14Z</time></trkpt><trkpt lat="42.152288956283044" lon="13.688540497565869"><ele>669.0</ele><time>2026-04-27T09:46:15Z</time></trkpt><trkpt lat="42.1522088145861" lon="13.688677301826313"><ele>667.0</ele><time>2026-04-27T09:46:16Z</time></trkpt><trkpt lat="42.152114359620356" lon="13.68878322889231"><ele>665.0</ele><time>2026-04-27T09:46:17Z</time></trkpt><trkpt lat="42.15200818292243" lon="13.68887307161803"><ele>663.0</ele><time>2026-04-27T09:46:18Z</time></trkpt><trkpt lat="42.15189517655756" lon="13.688961000308192"><ele>663.0</ele><time>2026-04-27T09:46:19Z</time></trkpt><trkpt lat="42.15177720255997" lon="13.689048992757911"><ele>663.0</ele><time>2026-04-27T09:46:20Z</time></trkpt><trkpt lat="42.151659195749055" lon="13.689134587374577"><ele>663.0</ele><time>2026-04-27T09:46:21Z</time></trkpt><trkpt lat="42.15154489987827" lon="13.689214300476118"><ele>663.0</ele><time>2026-04-27T09:46:22Z</time></trkpt><trkpt lat="42.15144049875392" lon="13.689285294329432"><ele>662.8333333333334</ele><time>2026-04-27T09:46:23Z</time></trkpt><trkpt lat="42.15134719949938" lon="13.68934536073962"><ele>662.6666666666666</ele><time>2026-04-27T09:46:24Z</time></trkpt><trkpt lat="42.15126608696077" lon="13.689395875731027"><ele>662.5</ele><time>2026-04-27T09:46:25Z</time></trkpt><trkpt lat="42.151214722479125" lon="13.689453235030655"><ele>662.3333333333333</ele><time>2026-04-27T09:46:26Z</time></trkpt><trkpt lat="42.151156408670936" lon="13.689487757697924"><ele>662.1666666666666</ele><time>2026-04-27T09:46:27Z</time></trkpt><trkpt lat="42.15110543902757" lon="13.68957781061195"><ele>662.0</ele><time>2026-04-27T09:46:28Z</time></trkpt><trkpt lat="42.15107584740775" lon="13.689711156261449"><ele>662.0</ele><time>2026-04-27T09:46:29Z</time></trkpt><trkpt lat="42.15105100113969" lon="13.689855717336327"><ele>662.0</ele><time>2026-04-27T09:46:30Z</time></trkpt><trkpt lat="42.15102484072598" lon="13.690011813045258"><ele>662.0</ele><time>2026-04-27T09:46:31Z</time></trkpt><trkpt lat="42.150989539281916" lon="13.690181953175623"><ele>662.0</ele><time>2026-04-27T09:46:32Z</time></trkpt><trkpt lat="42.150946819910644" lon="13.690357934630912"><ele>662.0</ele><time>2026-04-27T09:46:33Z</time></trkpt><trkpt lat="42.15091662954997" lon="13.690536174690694"><ele>662.0</ele><time>2026-04-27T09:46:34Z</time></trkpt><trkpt lat="42.15086072702406" lon="13.690711049351503"><ele>662.0</ele><time>2026-04-27T09:46:35Z</time></trkpt><trkpt lat="42.15080722243742" lon="13.690897523566436"><ele>662.0</ele><time>2026-04-27T09:46:36Z</time></trkpt><trkpt lat="42.150739967771294" lon="13.691081931163017"><ele>660.75</ele><time>2026-04-27T09:46:37Z</time></trkpt><trkpt lat="42.15068045416559" lon="13.691277752477781"><ele>659.5</ele><time>2026-04-27T09:46:38Z</time></trkpt><trkpt lat="42.15062262373129" lon="13.691460964516269"><ele>658.25</ele><time>2026-04-27T09:46:39Z</time></trkpt><trkpt lat="42.150552066198046" lon="13.691618541151666"><ele>657.0</ele><time>2026-04-27T09:46:40Z</time></trkpt><trkpt lat="42.1504956249647" lon="13.691766934219318"><ele>657.0</ele><time>2026-04-27T09:46:41Z</time></trkpt><trkpt lat="42.15043304100811" lon="13.691909690956978"><ele>657.0</ele><time>2026-04-27T09:46:42Z</time></trkpt><trkpt lat="42.150362458428866" lon="13.692056394836579"><ele>657.0</ele><time>2026-04-27T09:46:43Z</time></trkpt><trkpt lat="42.15029250999069" lon="13.692214196240942"><ele>657.0</ele><time>2026-04-27T09:46:44Z</time></trkpt><trkpt lat="42.15022678627661" lon="13.6923760519527"><ele>657.2</ele><time>2026-04-27T09:46:45Z</time></trkpt><trkpt lat="42.150171419886625" lon="13.692520423524504"><ele>657.4000000000001</ele><time>2026-04-27T09:46:46Z</time></trkpt><trkpt lat="42.15013940175324" lon="13.692658268647659"><ele>657.5999999999999</ele><time>2026-04-27T09:46:47Z</time></trkpt><trkpt lat="42.15010874871856" lon="13.692763579336765"><ele>657.8</ele><time>2026-04-27T09:46:48Z</time></trkpt><trkpt lat="42.150056324625204" lon="13.692903211803648"><ele>658.0</ele><time>2026-04-27T09:46:50Z</time></trkpt><trkpt lat="42.150033102053186" lon="13.69300542591841"><ele>658.0</ele><time>2026-04-27T09:46:51Z</time></trkpt><trkpt lat="42.15007909036145" lon="13.693169920002815"><ele>658.0</ele><time>2026-04-27T09:46:53Z</time></trkpt><trkpt lat="42.15006249013584" lon="13.693319133625506"><ele>658.0</ele><time>2026-04-27T09:46:54Z</time></trkpt><trkpt lat="42.15018664193437" lon="13.693628686499121"><ele>650.0</ele><time>2026-04-27T09:46:55Z</time></trkpt><trkpt lat="42.14954248286028" lon="13.69361522017526"><ele>650.0</ele><time>2026-04-27T09:46:56Z</time></trkpt><trkpt lat="42.14947293912891" lon="13.693773070582216"><ele>650.0</ele><time>2026-04-27T09:46:57Z</time></trkpt><trkpt lat="42.14939738651175" lon="13.69392906866243"><ele>650.0</ele><time>2026-04-27T09:46:58Z</time></trkpt><trkpt lat="42.1493187969157" lon="13.69409382385936"><ele>650.0</ele><time>2026-04-27T09:46:59Z</time></trkpt><trkpt lat="42.14924904333613" lon="13.694239496112521"><ele>650.0</ele><time>2026-04-27T09:47:00Z</time></trkpt><trkpt lat="42.149177929335515" lon="13.694376523161047"><ele>650.0</ele><time>2026-04-27T09:47:01Z</time></trkpt><trkpt lat="42.14909863145504" lon="13.694491376032062"><ele>650.0</ele><time>2026-04-27T09:47:02Z</time></trkpt><trkpt lat="42.14900996971945" lon="13.694604348260693"><ele>650.0</ele><time>2026-04-27T09:47:03Z</time></trkpt><trkpt lat="42.14892916090962" lon="13.694736066127891"><ele>650.0</ele><time>2026-04-27T09:47:04Z</time></trkpt><trkpt lat="42.14885625921266" lon="13.694881639948072"><ele>650.0</ele><time>2026-04-27T09:47:05Z</time></trkpt><trkpt lat="42.14880058577474" lon="13.695015161306344"><ele>650.0</ele><time>2026-04-27T09:47:06Z</time></trkpt><trkpt lat="42.14873121586857" lon="13.695117332669206"><ele>650.0</ele><time>2026-04-27T09:47:07Z</time></trkpt><trkpt lat="42.14863565187059" lon="13.695197946777434"><ele>650.5</ele><time>2026-04-27T09:47:08Z</time></trkpt><trkpt lat="42.14852782370625" lon="13.695264181645843"><ele>651.0</ele><time>2026-04-27T09:47:09Z</time></trkpt><trkpt lat="42.14842817591234" lon="13.695347780854215"><ele>651.5</ele><time>2026-04-27T09:47:10Z</time></trkpt><trkpt lat="42.14835498474993" lon="13.695448827798892"><ele>652.0</ele><time>2026-04-27T09:47:11Z</time></trkpt><trkpt lat="42.14829604671864" lon="13.695584665303947"><ele>652.0</ele><time>2026-04-27T09:47:12Z</time></trkpt><trkpt lat="42.14824881591812" lon="13.695717204743401"><ele>652.0</ele><time>2026-04-27T09:47:13Z</time></trkpt><trkpt lat="42.1482044344192" lon="13.695832404171655"><ele>652.0</ele><time>2026-04-27T09:47:14Z</time></trkpt><trkpt lat="42.148142156248454" lon="13.695917284977057"><ele>652.0</ele><time>2026-04-27T09:47:15Z</time></trkpt><trkpt lat="42.14806773885202" lon="13.69596698173852"><ele>652.0</ele><time>2026-04-27T09:47:15.999Z</time></trkpt><trkpt lat="42.147982300529854" lon="13.695993689214829"><ele>651.25</ele><time>2026-04-27T09:47:16.999Z</time></trkpt><trkpt lat="42.147892623802946" lon="13.6960120031482"><ele>650.5</ele><time>2026-04-27T09:47:17.999Z</time></trkpt><trkpt lat="42.14778842911611" lon="13.696030912591498"><ele>649.75</ele><time>2026-04-27T09:47:18.999Z</time></trkpt><trkpt lat="42.14766752027093" lon="13.696057023667803"><ele>649.0</ele><time>2026-04-27T09:47:19.999Z</time></trkpt><trkpt lat="42.147536004222324" lon="13.696083678225095"><ele>648.8000000000001</ele><time>2026-04-27T09:47:20.999Z</time></trkpt><trkpt lat="42.14740641998168" lon="13.696102131348367"><ele>648.6</ele><time>2026-04-27T09:47:21.999Z</time></trkpt><trkpt lat="42.147288673598645" lon="13.696124500189356"><ele>648.4</ele><time>2026-04-27T09:47:22.999Z</time></trkpt><trkpt lat="42.14718513911318" lon="13.696141825265405"><ele>648.2</ele><time>2026-04-27T09:47:23.999Z</time></trkpt><trkpt lat="42.147100853949894" lon="13.696146082923105"><ele>648.0</ele><time>2026-04-27T09:47:24.999Z</time></trkpt><trkpt lat="42.147023355917874" lon="13.696118084862807"><ele>647.2</ele><time>2026-04-27T09:47:25.999Z</time></trkpt><trkpt lat="42.14694748888051" lon="13.69606704384906"><ele>646.4</ele><time>2026-04-27T09:47:26.999Z</time></trkpt><trkpt lat="42.14686313586015" lon="13.696013187116305"><ele>645.6</ele><time>2026-04-27T09:47:27.999Z</time></trkpt><trkpt lat="42.14676783235792" lon="13.695969578352821"><ele>644.8000000000001</ele><time>2026-04-27T09:47:28.999Z</time></trkpt><trkpt lat="42.14666665187921" lon="13.695928269269084"><ele>644.0</ele><time>2026-04-27T09:47:29.999Z</time></trkpt><trkpt lat="42.1465569971326" lon="13.695898329380475"><ele>641.6</ele><time>2026-04-27T09:47:30.999Z</time></trkpt><trkpt lat="42.14645166601465" lon="13.695875696603027"><ele>639.2</ele><time>2026-04-27T09:47:31.999Z</time></trkpt><trkpt lat="42.14635301613926" lon="13.695852031036534"><ele>636.8000000000001</ele><time>2026-04-27T09:47:32.999Z</time></trkpt><trkpt lat="42.146265953795584" lon="13.695834917105346"><ele>634.4000000000001</ele><time>2026-04-27T09:47:33.999Z</time></trkpt><trkpt lat="42.14617256525821" lon="13.695838068455966"><ele>632.0</ele><time>2026-04-27T09:47:34.999Z</time></trkpt><trkpt lat="42.14607341695062" lon="13.695867154392102"><ele>632.0</ele><time>2026-04-27T09:47:35.999Z</time></trkpt><trkpt lat="42.14595948449049" lon="13.695917217567406"><ele>632.0</ele><time>2026-04-27T09:47:36.999Z</time></trkpt><trkpt lat="42.1458375730605" lon="13.695967698002752"><ele>632.0</ele><time>2026-04-27T09:47:37.999Z</time></trkpt><trkpt lat="42.145709261893316" lon="13.696018837927314"><ele>632.0</ele><time>2026-04-27T09:47:38.999Z</time></trkpt><trkpt lat="42.14557953122672" lon="13.696071809035853"><ele>629.0</ele><time>2026-04-27T09:47:39.999Z</time></trkpt><trkpt lat="42.145450210599634" lon="13.696130346473659"><ele>626.0</ele><time>2026-04-27T09:47:40.999Z</time></trkpt><trkpt lat="42.145317705344134" lon="13.69619012882943"><ele>623.0</ele><time>2026-04-27T09:47:41.999Z</time></trkpt><trkpt lat="42.1451800684315" lon="13.696243675531067"><ele>620.0</ele><time>2026-04-27T09:47:42.999Z</time></trkpt><trkpt lat="42.145043248259384" lon="13.69628240449045"><ele>620.0</ele><time>2026-04-27T09:47:43.999Z</time></trkpt><trkpt lat="42.14489522015567" lon="13.696310965808713"><ele>620.0</ele><time>2026-04-27T09:47:44.999Z</time></trkpt><trkpt lat="42.14474679371144" lon="13.696326353994804"><ele>620.0</ele><time>2026-04-27T09:47:45.999Z</time></trkpt><trkpt lat="42.1446067715692" lon="13.696339235636794"><ele>620.0</ele><time>2026-04-27T09:47:46.999Z</time></trkpt><trkpt lat="42.144472744779485" lon="13.696361917618546"><ele>617.25</ele><time>2026-04-27T09:47:47.999Z</time></trkpt><trkpt lat="42.144347944677776" lon="13.696399748933558"><ele>614.5</ele><time>2026-04-27T09:47:48.999Z</time></trkpt><trkpt lat="42.14422981687847" lon="13.696457986407818"><ele>611.75</ele><time>2026-04-27T09:47:49.999Z</time></trkpt><trkpt lat="42.14412302054945" lon="13.696538678287453"><ele>609.0</ele><time>2026-04-27T09:47:50.999Z</time></trkpt><trkpt lat="42.14401908017012" lon="13.696647247409754"><ele>606.25</ele><time>2026-04-27T09:47:51.999Z</time></trkpt><trkpt lat="42.14390661881807" lon="13.69675806273063"><ele>603.5</ele><time>2026-04-27T09:47:52.999Z</time></trkpt><trkpt lat="42.14378677451144" lon="13.696853062468437"><ele>600.75</ele><time>2026-04-27T09:47:53.999Z</time></trkpt><trkpt lat="42.14365200124135" lon="13.69693402501198"><ele>598.0</ele><time>2026-04-27T09:47:54.999Z</time></trkpt><trkpt lat="42.14351038131613" lon="13.697007199446638"><ele>597.0</ele><time>2026-04-27T09:47:55.999Z</time></trkpt><trkpt lat="42.14337103444404" lon="13.697094922930043"><ele>596.0</ele><time>2026-04-27T09:47:56.999Z</time></trkpt><trkpt lat="42.14323216384484" lon="13.6971985090188"><ele>595.0</ele><time>2026-04-27T09:47:57.999Z</time></trkpt><trkpt lat="42.14309771988511" lon="13.697313015996972"><ele>593.3333333333334</ele><time>2026-04-27T09:47:58.999Z</time></trkpt><trkpt lat="42.142963790183764" lon="13.69743471118636"><ele>591.6666666666666</ele><time>2026-04-27T09:47:59.999Z</time></trkpt><trkpt lat="42.142826472054715" lon="13.697548172544156"><ele>590.0</ele><time>2026-04-27T09:48:00.999Z</time></trkpt><trkpt lat="42.14268800653267" lon="13.697647725400136"><ele>590.0</ele><time>2026-04-27T09:48:01.999Z</time></trkpt><trkpt lat="42.14255621428154" lon="13.69773992819652"><ele>590.0</ele><time>2026-04-27T09:48:02.999Z</time></trkpt><trkpt lat="42.14242692236789" lon="13.69782551311096"><ele>590.0</ele><time>2026-04-27T09:48:03.999Z</time></trkpt><trkpt lat="42.14230397405385" lon="13.697906542782889"><ele>590.0</ele><time>2026-04-27T09:48:04.999Z</time></trkpt><trkpt lat="42.14218099448248" lon="13.697981376662797"><ele>586.75</ele><time>2026-04-27T09:48:05.999Z</time></trkpt><trkpt lat="42.14205691854244" lon="13.698039084770206"><ele>583.5</ele><time>2026-04-27T09:48:06.999Z</time></trkpt><trkpt lat="42.14193044224766" lon="13.698079074804971"><ele>580.25</ele><time>2026-04-27T09:48:07.999Z</time></trkpt><trkpt lat="42.14180086711681" lon="13.698111535020361"><ele>577.0</ele><time>2026-04-27T09:48:09Z</time></trkpt><trkpt lat="42.141677810847504" lon="13.698124262580832"><ele>577.0</ele><time>2026-04-27T09:48:10Z</time></trkpt><trkpt lat="42.14156383111789" lon="13.698118449326614"><ele>577.0</ele><time>2026-04-27T09:48:11Z</time></trkpt><trkpt lat="42.14145922496251" lon="13.698097674584197"><ele>577.0</ele><time>2026-04-27T09:48:12Z</time></trkpt><trkpt lat="42.141362775575715" lon="13.698068235840024"><ele>577.0</ele><time>2026-04-27T09:48:13Z</time></trkpt><trkpt lat="42.141266957448764" lon="13.698032710237271"><ele>577.0</ele><time>2026-04-27T09:48:14Z</time></trkpt><trkpt lat="42.1411761185796" lon="13.697994697871453"><ele>575.0</ele><time>2026-04-27T09:48:15Z</time></trkpt><trkpt lat="42.14109560584169" lon="13.69794110396049"><ele>573.0</ele><time>2026-04-27T09:48:16Z</time></trkpt><trkpt lat="42.14102960794576" lon="13.697877415753"><ele>571.0</ele><time>2026-04-27T09:48:17Z</time></trkpt><trkpt lat="42.14097727547995" lon="13.697811382461285"><ele>569.0</ele><time>2026-04-27T09:48:18Z</time></trkpt><trkpt lat="42.14092028635759" lon="13.697673845951783"><ele>567.0</ele><time>2026-04-27T09:48:20Z</time></trkpt><trkpt lat="42.14085732556722" lon="13.697629196202977"><ele>565.0</ele><time>2026-04-27T09:48:23Z</time></trkpt><trkpt lat="42.140792766713666" lon="13.697802030637408"><ele>565.0</ele><time>2026-04-27T09:48:25Z</time></trkpt><trkpt lat="42.14075619851473" lon="13.697888326582213"><ele>565.0</ele><time>2026-04-27T09:48:26Z</time></trkpt><trkpt lat="42.140706324989786" lon="13.697975573473665"><ele>565.0</ele><time>2026-04-27T09:48:27Z</time></trkpt><trkpt lat="42.1406596982791" lon="13.698060141845609"><ele>565.0</ele><time>2026-04-27T09:48:28Z</time></trkpt><trkpt lat="42.14061765121859" lon="13.698126231477318"><ele>565.0</ele><time>2026-04-27T09:48:29Z</time></trkpt><trkpt lat="42.14054444228615" lon="13.698162151827633"><ele>565.0</ele><time>2026-04-27T09:48:31Z</time></trkpt><trkpt lat="42.14046428647273" lon="13.698064367513194"><ele>565.4</ele><time>2026-04-27T09:48:33Z</time></trkpt><trkpt lat="42.14043269277189" lon="13.69797462912191"><ele>565.8</ele><time>2026-04-27T09:48:34Z</time></trkpt><trkpt lat="42.140397317227055" lon="13.697875530016297"><ele>566.2</ele><time>2026-04-27T09:48:35Z</time></trkpt><trkpt lat="42.14035376193786" lon="13.697772925014911"><ele>566.6</ele><time>2026-04-27T09:48:36Z</time></trkpt><trkpt lat="42.14029080922509" lon="13.697669130437035"><ele>567.0</ele><time>2026-04-27T09:48:37Z</time></trkpt><trkpt lat="42.14020984523546" lon="13.697569877535356"><ele>567.0</ele><time>2026-04-27T09:48:38Z</time></trkpt><trkpt lat="42.14012564062107" lon="13.697474197197579"><ele>567.0</ele><time>2026-04-27T09:48:39Z</time></trkpt><trkpt lat="42.14005354581707" lon="13.69740173262607"><ele>567.0</ele><time>2026-04-27T09:48:40Z</time></trkpt><trkpt lat="42.139993813308884" lon="13.697367929359938"><ele>567.0</ele><time>2026-04-27T09:48:41Z</time></trkpt><trkpt lat="42.13987315356886" lon="13.697400706323792"><ele>567.0</ele><time>2026-04-27T09:48:43Z</time></trkpt><trkpt lat="42.13979800508719" lon="13.697427824105501"><ele>568.4</ele><time>2026-04-27T09:48:44Z</time></trkpt><trkpt lat="42.13971353794719" lon="13.697447189617185"><ele>569.8000000000001</ele><time>2026-04-27T09:48:45Z</time></trkpt><trkpt lat="42.1396422956601" lon="13.697448185068783"><ele>571.2</ele><time>2026-04-27T09:48:46Z</time></trkpt><trkpt lat="42.13952012753207" lon="13.697367140482553"><ele>572.6</ele><time>2026-04-27T09:48:48Z</time></trkpt><trkpt lat="42.139432981753906" lon="13.697309234747545"><ele>574.0</ele><time>2026-04-27T09:48:49Z</time></trkpt><trkpt lat="42.139347780431976" lon="13.697278908467123"><ele>574.0</ele><time>2026-04-27T09:48:50Z</time></trkpt><trkpt lat="42.139261634856304" lon="13.697287849852264"><ele>574.0</ele><time>2026-04-27T09:48:51Z</time></trkpt><trkpt lat="42.13917062094668" lon="13.697296527803584"><ele>574.0</ele><time>2026-04-27T09:48:52Z</time></trkpt><trkpt lat="42.139085020051624" lon="13.697277601330923"><ele>574.0</ele><time>2026-04-27T09:48:53Z</time></trkpt><trkpt lat="42.13900844062528" lon="13.697244051054744"><ele>574.0</ele><time>2026-04-27T09:48:54Z</time></trkpt><trkpt lat="42.13895388695001" lon="13.697199306774595"><ele>574.0</ele><time>2026-04-27T09:48:55Z</time></trkpt><trkpt lat="42.13889842754322" lon="13.697140509374924"><ele>576.2</ele><time>2026-04-27T09:48:56Z</time></trkpt><trkpt lat="42.138821106407825" lon="13.697065010341325"><ele>578.4</ele><time>2026-04-27T09:48:57Z</time></trkpt><trkpt lat="42.13875166074117" lon="13.696974061969168"><ele>580.6</ele><time>2026-04-27T09:48:58Z</time></trkpt><trkpt lat="42.13870856163281" lon="13.69687723789377"><ele>582.8</ele><time>2026-04-27T09:48:59Z</time></trkpt><trkpt lat="42.138649690407405" lon="13.696787398874395"><ele>585.0</ele><time>2026-04-27T09:49:00Z</time></trkpt><trkpt lat="42.13856964194726" lon="13.696737884400644"><ele>585.0</ele><time>2026-04-27T09:49:01Z</time></trkpt><trkpt lat="42.13847178120628" lon="13.696691227724095"><ele>585.0</ele><time>2026-04-27T09:49:02Z</time></trkpt><trkpt lat="42.13836408594588" lon="13.696637864701282"><ele>585.0</ele><time>2026-04-27T09:49:03Z</time></trkpt><trkpt lat="42.13825695912013" lon="13.696585071677564"><ele>585.0</ele><time>2026-04-27T09:49:04Z</time></trkpt><trkpt lat="42.138155377727784" lon="13.696513545912868"><ele>585.0</ele><time>2026-04-27T09:49:05Z</time></trkpt><trkpt lat="42.13806075878051" lon="13.696487307690376"><ele>586.0</ele><time>2026-04-27T09:49:06Z</time></trkpt><trkpt lat="42.13795719185152" lon="13.696447959067765"><ele>587.0</ele><time>2026-04-27T09:49:07Z</time></trkpt><trkpt lat="42.137846526772115" lon="13.696408174408637"><ele>588.0</ele><time>2026-04-27T09:49:08Z</time></trkpt><trkpt lat="42.13774827107676" lon="13.696369547475493"><ele>589.0</ele><time>2026-04-27T09:49:09Z</time></trkpt><trkpt lat="42.13768094190182" lon="13.696336563728154"><ele>590.0</ele><time>2026-04-27T09:49:10Z</time></trkpt><trkpt lat="42.137626162044775" lon="13.696280667535424"><ele>590.0</ele><time>2026-04-27T09:49:11Z</time></trkpt><trkpt lat="42.137555925468604" lon="13.696204923288994"><ele>590.0</ele><time>2026-04-27T09:49:12Z</time></trkpt><trkpt lat="42.137471757309136" lon="13.696130562202056"><ele>590.0</ele><time>2026-04-27T09:49:13Z</time></trkpt><trkpt lat="42.13740342758837" lon="13.696077127028714"><ele>590.0</ele><time>2026-04-27T09:49:14Z</time></trkpt><trkpt lat="42.13728113601422" lon="13.696055610614819"><ele>590.0</ele><time>2026-04-27T09:49:16Z</time></trkpt><trkpt lat="42.13721208379506" lon="13.696042854208986"><ele>590.6</ele><time>2026-04-27T09:49:17Z</time></trkpt><trkpt lat="42.137094033612335" lon="13.69605925962228"><ele>591.2</ele><time>2026-04-27T09:49:18.999Z</time></trkpt><trkpt lat="42.13698449764686" lon="13.696105780731216"><ele>591.8</ele><time>2026-04-27T09:49:20.999Z</time></trkpt><trkpt lat="42.13691639909172" lon="13.696127030870475"><ele>592.4</ele><time>2026-04-27T09:49:21.999Z</time></trkpt><trkpt lat="42.1368489286294" lon="13.6961346514864"><ele>593.0</ele><time>2026-04-27T09:49:22.999Z</time></trkpt><trkpt lat="42.136707685549155" lon="13.696125937086656"><ele>593.4285714285713</ele><time>2026-04-27T09:49:24.999Z</time></trkpt><trkpt lat="42.13662839320819" lon="13.696116821507488"><ele>593.8571428571429</ele><time>2026-04-27T09:49:25.999Z</time></trkpt><trkpt lat="42.13654945190517" lon="13.696105990787354"><ele>594.2857142857142</ele><time>2026-04-27T09:49:26.999Z</time></trkpt><trkpt lat="42.13648002689102" lon="13.696093721751762"><ele>594.7142857142857</ele><time>2026-04-27T09:49:27.999Z</time></trkpt><trkpt lat="42.13641335646068" lon="13.696076197024004"><ele>595.1428571428571</ele><time>2026-04-27T09:49:28.999Z</time></trkpt><trkpt lat="42.13634708955821" lon="13.69606032730656"><ele>595.5714285714286</ele><time>2026-04-27T09:49:29.999Z</time></trkpt><trkpt lat="42.13626803999271" lon="13.69606291634879"><ele>596.0</ele><time>2026-04-27T09:49:30.999Z</time></trkpt><trkpt lat="42.13617812040567" lon="13.696082440300847"><ele>597.4</ele><time>2026-04-27T09:49:31.999Z</time></trkpt><trkpt lat="42.136077195736966" lon="13.696105164594876"><ele>598.8</ele><time>2026-04-27T09:49:32.999Z</time></trkpt><trkpt lat="42.13597916408487" lon="13.696110155077482"><ele>600.1999999999999</ele><time>2026-04-27T09:49:33.999Z</time></trkpt><trkpt lat="42.13588103990926" lon="13.696107947749596"><ele>601.6</ele><time>2026-04-27T09:49:34.999Z</time></trkpt><trkpt lat="42.13578890594382" lon="13.696090463838772"><ele>603.0</ele><time>2026-04-27T09:49:35.999Z</time></trkpt><trkpt lat="42.13569472765318" lon="13.69604878045019"><ele>605.0</ele><time>2026-04-27T09:49:36.999Z</time></trkpt><trkpt lat="42.13559386781742" lon="13.696005541870766"><ele>607.0</ele><time>2026-04-27T09:49:37.999Z</time></trkpt><trkpt lat="42.135492637015666" lon="13.695953346384437"><ele>609.0</ele><time>2026-04-27T09:49:38.999Z</time></trkpt><trkpt lat="42.13539589520938" lon="13.695904253635948"><ele>611.0</ele><time>2026-04-27T09:49:39.999Z</time></trkpt><trkpt lat="42.13529180217909" lon="13.695873597417402"><ele>613.0</ele><time>2026-04-27T09:49:40.999Z</time></trkpt><trkpt lat="42.135182395210094" lon="13.695856210488026"><ele>613.0</ele><time>2026-04-27T09:49:41.999Z</time></trkpt><trkpt lat="42.13509603897874" lon="13.69586611970447"><ele>613.0</ele><time>2026-04-27T09:49:42.999Z</time></trkpt><trkpt lat="42.135009668475135" lon="13.695895014202234"><ele>613.0</ele><time>2026-04-27T09:49:43.999Z</time></trkpt><trkpt lat="42.134919214673666" lon="13.695924515537554"><ele>613.0</ele><time>2026-04-27T09:49:44.999Z</time></trkpt><trkpt lat="42.13482237883382" lon="13.695949756347842"><ele>613.0</ele><time>2026-04-27T09:49:45.999Z</time></trkpt><trkpt lat="42.13471827753881" lon="13.695956101193705"><ele>613.0</ele><time>2026-04-27T09:49:46.999Z</time></trkpt><trkpt lat="42.134611614251895" lon="13.695957524824566"><ele>613.0</ele><time>2026-04-27T09:49:47.999Z</time></trkpt><trkpt lat="42.13451689827899" lon="13.695968113266744"><ele>613.0</ele><time>2026-04-27T09:49:48.999Z</time></trkpt><trkpt lat="42.13444976679188" lon="13.695993941225797"><ele>613.0</ele><time>2026-04-27T09:49:49.999Z</time></trkpt><trkpt lat="42.13438712111074" lon="13.69605192906203"><ele>613.0</ele><time>2026-04-27T09:49:50.999Z</time></trkpt><trkpt lat="42.134314941913246" lon="13.696132715705962"><ele>613.0</ele><time>2026-04-27T09:49:51.999Z</time></trkpt><trkpt lat="42.13424191556633" lon="13.696226881928885"><ele>613.0</ele><time>2026-04-27T09:49:52.999Z</time></trkpt><trkpt lat="42.13418768013545" lon="13.696341628440374"><ele>613.0</ele><time>2026-04-27T09:49:53.999Z</time></trkpt><trkpt lat="42.134122870606774" lon="13.696468900683602"><ele>613.0</ele><time>2026-04-27T09:49:54.999Z</time></trkpt><trkpt lat="42.13405140508089" lon="13.696569385375948"><ele>613.0</ele><time>2026-04-27T09:49:55.999Z</time></trkpt><trkpt lat="42.13396849767116" lon="13.696670811094146"><ele>613.0</ele><time>2026-04-27T09:49:56.999Z</time></trkpt><trkpt lat="42.133870170755664" lon="13.69677172357215"><ele>613.25</ele><time>2026-04-27T09:49:57.999Z</time></trkpt><trkpt lat="42.13377453731133" lon="13.69686014445284"><ele>613.5</ele><time>2026-04-27T09:49:58.999Z</time></trkpt><trkpt lat="42.13368950523964" lon="13.696951818799898"><ele>613.75</ele><time>2026-04-27T09:49:59.999Z</time></trkpt><trkpt lat="42.133615056959215" lon="13.697064353363809"><ele>614.0</ele><time>2026-04-27T09:50:00.999Z</time></trkpt><trkpt lat="42.13353529361529" lon="13.69718525538288"><ele>614.75</ele><time>2026-04-27T09:50:01.999Z</time></trkpt><trkpt lat="42.133451033169784" lon="13.697295716317898"><ele>615.5</ele><time>2026-04-27T09:50:02.999Z</time></trkpt><trkpt lat="42.13335490327453" lon="13.697417217743034"><ele>616.25</ele><time>2026-04-27T09:50:03.999Z</time></trkpt><trkpt lat="42.1332678502377" lon="13.697546422016222"><ele>617.0</ele><time>2026-04-27T09:50:04.999Z</time></trkpt><trkpt lat="42.133173573545385" lon="13.697671066949045"><ele>616.0</ele><time>2026-04-27T09:50:05.999Z</time></trkpt><trkpt lat="42.133075105231946" lon="13.697786097816335"><ele>615.0</ele><time>2026-04-27T09:50:06.999Z</time></trkpt><trkpt lat="42.13297336225762" lon="13.697908859573637"><ele>614.0</ele><time>2026-04-27T09:50:07.999Z</time></trkpt><trkpt lat="42.13287022871615" lon="13.698032939907828"><ele>613.0</ele><time>2026-04-27T09:50:08.999Z</time></trkpt><trkpt lat="42.13277393463856" lon="13.698156962688829"><ele>613.0</ele><time>2026-04-27T09:50:09.999Z</time></trkpt><trkpt lat="42.132678789759375" lon="13.698253838968906"><ele>613.0</ele><time>2026-04-27T09:50:10.999Z</time></trkpt><trkpt lat="42.132582234603255" lon="13.698347370926507"><ele>613.0</ele><time>2026-04-27T09:50:11.999Z</time></trkpt><trkpt lat="42.13250898390922" lon="13.698487644018462"><ele>613.0</ele><time>2026-04-27T09:50:12.999Z</time></trkpt><trkpt lat="42.132457231505285" lon="13.698662526733258"><ele>612.75</ele><time>2026-04-27T09:50:13.999Z</time></trkpt><trkpt lat="42.13241243779571" lon="13.698837824622853"><ele>612.5</ele><time>2026-04-27T09:50:15Z</time></trkpt><trkpt lat="42.13236807708246" lon="13.698998889992362"><ele>612.25</ele><time>2026-04-27T09:50:16Z</time></trkpt><trkpt lat="42.13231303619007" lon="13.699132821440967"><ele>612.0</ele><time>2026-04-27T09:50:17Z</time></trkpt><trkpt lat="42.13224188443051" lon="13.699265424391543"><ele>612.75</ele><time>2026-04-27T09:50:18Z</time></trkpt><trkpt lat="42.13215845606274" lon="13.699391712113634"><ele>613.5</ele><time>2026-04-27T09:50:19Z</time></trkpt><trkpt lat="42.13208222829231" lon="13.699517377288618"><ele>614.25</ele><time>2026-04-27T09:50:20Z</time></trkpt><trkpt lat="42.13200844586765" lon="13.69962552670761"><ele>615.0</ele><time>2026-04-27T09:50:21Z</time></trkpt><trkpt lat="42.13192627216546" lon="13.699731865536029"><ele>615.0</ele><time>2026-04-27T09:50:22Z</time></trkpt><trkpt lat="42.13183303826912" lon="13.699865791851579"><ele>615.0</ele><time>2026-04-27T09:50:23Z</time></trkpt><trkpt lat="42.131730273919" lon="13.70000224739625"><ele>615.0</ele><time>2026-04-27T09:50:24Z</time></trkpt><trkpt lat="42.13162209187541" lon="13.70011737500517"><ele>615.0</ele><time>2026-04-27T09:50:25Z</time></trkpt><trkpt lat="42.131508781571995" lon="13.700216102917468"><ele>615.5</ele><time>2026-04-27T09:50:26Z</time></trkpt><trkpt lat="42.131399279315715" lon="13.700291912601568"><ele>616.0</ele><time>2026-04-27T09:50:27Z</time></trkpt><trkpt lat="42.13130523929995" lon="13.700387060452378"><ele>616.5</ele><time>2026-04-27T09:50:28Z</time></trkpt><trkpt lat="42.131219814074925" lon="13.700530020679633"><ele>617.0</ele><time>2026-04-27T09:50:29Z</time></trkpt><trkpt lat="42.131139369395406" lon="13.700694185824942"><ele>617.0</ele><time>2026-04-27T09:50:30Z</time></trkpt><trkpt lat="42.13105584890102" lon="13.70084268462768"><ele>617.0</ele><time>2026-04-27T09:50:31Z</time></trkpt><trkpt lat="42.130947750811984" lon="13.700958606693542"><ele>617.0</ele><time>2026-04-27T09:50:32Z</time></trkpt><trkpt lat="42.13082283838135" lon="13.701060525704166"><ele>617.0</ele><time>2026-04-27T09:50:33Z</time></trkpt><trkpt lat="42.13069227062947" lon="13.701168783434968"><ele>620.0</ele><time>2026-04-27T09:50:34Z</time></trkpt><trkpt lat="42.130568884292906" lon="13.70128982008912"><ele>623.0</ele><time>2026-04-27T09:50:35Z</time></trkpt><trkpt lat="42.13046103054871" lon="13.70142837850816"><ele>626.0</ele><time>2026-04-27T09:50:36Z</time></trkpt><trkpt lat="42.130357188394925" lon="13.70156380106263"><ele>629.0</ele><time>2026-04-27T09:50:37Z</time></trkpt><trkpt lat="42.130270622392125" lon="13.701658111738553"><ele>629.0</ele><time>2026-04-27T09:50:38Z</time></trkpt><trkpt lat="42.13020218019524" lon="13.70171284865866"><ele>629.0</ele><time>2026-04-27T09:50:39Z</time></trkpt><trkpt lat="42.13012435824411" lon="13.70172009225247"><ele>629.0</ele><time>2026-04-27T09:50:41Z</time></trkpt><trkpt lat="42.13007224377058" lon="13.701601923983192"><ele>629.0</ele><time>2026-04-27T09:50:43Z</time></trkpt><trkpt lat="42.1300372532773" lon="13.701506155093423"><ele>629.0</ele><time>2026-04-27T09:50:44Z</time></trkpt><trkpt lat="42.12999325075235" lon="13.701412953736185"><ele>629.0</ele><time>2026-04-27T09:50:45Z</time></trkpt><trkpt lat="42.129945664443056" lon="13.701319654612286"><ele>629.0</ele><time>2026-04-27T09:50:46Z</time></trkpt><trkpt lat="42.129903780533986" lon="13.701240571095031"><ele>629.0</ele><time>2026-04-27T09:50:47Z</time></trkpt><trkpt lat="42.129861621069125" lon="13.701139929464597"><ele>629.0</ele><time>2026-04-27T09:50:48Z</time></trkpt><trkpt lat="42.12982036493903" lon="13.701027350662176"><ele>629.0</ele><time>2026-04-27T09:50:49Z</time></trkpt><trkpt lat="42.12977971977124" lon="13.700908927096496"><ele>629.0</ele><time>2026-04-27T09:50:50Z</time></trkpt><trkpt lat="42.12973312317471" lon="13.700792049982592"><ele>629.0</ele><time>2026-04-27T09:50:51Z</time></trkpt><trkpt lat="42.12967953265369" lon="13.700677494296531"><ele>631.6666666666666</ele><time>2026-04-27T09:50:52Z</time></trkpt><trkpt lat="42.12962408876563" lon="13.7005605778701"><ele>634.3333333333333</ele><time>2026-04-27T09:50:53Z</time></trkpt><trkpt lat="42.129578104512944" lon="13.700458147463651"><ele>637.0</ele><time>2026-04-27T09:50:54Z</time></trkpt><trkpt lat="42.12953074423101" lon="13.70036970868455"><ele>639.6666666666666</ele><time>2026-04-27T09:50:55Z</time></trkpt><trkpt lat="42.12948170939853" lon="13.700315063675987"><ele>642.3333333333334</ele><time>2026-04-27T09:50:56Z</time></trkpt><trkpt lat="42.12941986666035" lon="13.700250063380661"><ele>645.0</ele><time>2026-04-27T09:50:58Z</time></trkpt><trkpt lat="42.12939757520774" lon="13.700107056250769"><ele>646.6666666666666</ele><time>2026-04-27T09:51:00Z</time></trkpt><trkpt lat="42.12936645017057" lon="13.700030314225163"><ele>648.3333333333334</ele><time>2026-04-27T09:51:01Z</time></trkpt><trkpt lat="42.129294094836695" lon="13.699900004702096"><ele>650.0</ele><time>2026-04-27T09:51:03Z</time></trkpt><trkpt lat="42.12918244959068" lon="13.699872149901418"><ele>651.6666666666667</ele><time>2026-04-27T09:51:05Z</time></trkpt><trkpt lat="42.12911696842183" lon="13.69988183522984"><ele>653.3333333333334</ele><time>2026-04-27T09:51:06Z</time></trkpt><trkpt lat="42.12904297270099" lon="13.699915077490262"><ele>655.0</ele><time>2026-04-27T09:51:08Z</time></trkpt><trkpt lat="42.12897083495924" lon="13.699965642694853"><ele>656.3333333333334</ele><time>2026-04-27T09:51:10Z</time></trkpt><trkpt lat="42.12890772104145" lon="13.700014209439585"><ele>657.6666666666667</ele><time>2026-04-27T09:51:11Z</time></trkpt><trkpt lat="42.12884700905851" lon="13.700057780253008"><ele>659.0</ele><time>2026-04-27T09:51:12Z</time></trkpt><trkpt lat="42.128761885638625" lon="13.700064531480558"><ele>660.3333333333334</ele><time>2026-04-27T09:51:15Z</time></trkpt><trkpt lat="42.12869925194098" lon="13.699985995837835"><ele>661.6666666666666</ele><time>2026-04-27T09:51:17Z</time></trkpt><trkpt lat="42.12862831319674" lon="13.699895753427537"><ele>663.0</ele><time>2026-04-27T09:51:19Z</time></trkpt><trkpt lat="42.128550340714064" lon="13.69993172101639"><ele>663.0</ele><time>2026-04-27T09:51:21Z</time></trkpt><trkpt lat="42.12848624053252" lon="13.699968611111402"><ele>663.0</ele><time>2026-04-27T09:51:23Z</time></trkpt><trkpt lat="42.12838653203501" lon="13.700011580597419"><ele>663.0</ele><time>2026-04-27T09:51:24.999Z</time></trkpt><trkpt lat="42.12828692383903" lon="13.700031982937942"><ele>663.0</ele><time>2026-04-27T09:51:26.999Z</time></trkpt><trkpt lat="42.128181059889144" lon="13.700079072259689"><ele>663.0</ele><time>2026-04-27T09:51:28.999Z</time></trkpt><trkpt lat="42.12807536406796" lon="13.70010556478257"><ele>665.1666666666666</ele><time>2026-04-27T09:51:30.999Z</time></trkpt><trkpt lat="42.127993704241064" lon="13.700112938834488"><ele>667.3333333333334</ele><time>2026-04-27T09:51:32.999Z</time></trkpt><trkpt lat="42.127872621690706" lon="13.700145369209798"><ele>669.5</ele><time>2026-04-27T09:51:34.999Z</time></trkpt><trkpt lat="42.127810319796325" lon="13.700158255210189"><ele>671.6666666666667</ele><time>2026-04-27T09:51:35.999Z</time></trkpt><trkpt lat="42.127747662568396" lon="13.700166499760062"><ele>673.8333333333334</ele><time>2026-04-27T09:51:36.999Z</time></trkpt><trkpt lat="42.127630538582316" lon="13.700180558295308"><ele>676.0</ele><time>2026-04-27T09:51:38.999Z</time></trkpt><trkpt lat="42.127557745007636" lon="13.700175674772334"><ele>676.0</ele><time>2026-04-27T09:51:39.999Z</time></trkpt><trkpt lat="42.12748713170429" lon="13.700177010806701"><ele>676.0</ele><time>2026-04-27T09:51:40.999Z</time></trkpt><trkpt lat="42.127423221308554" lon="13.700171243906306"><ele>676.0</ele><time>2026-04-27T09:51:41.999Z</time></trkpt><trkpt lat="42.12730441839063" lon="13.700158956549698"><ele>676.0</ele><time>2026-04-27T09:51:43.999Z</time></trkpt><trkpt lat="42.127228691087126" lon="13.7001630964081"><ele>676.0</ele><time>2026-04-27T09:51:45.999Z</time></trkpt><trkpt lat="42.12716266671081" lon="13.700198871106519"><ele>676.0</ele><time>2026-04-27T09:51:47.999Z</time></trkpt><trkpt lat="42.12705659444308" lon="13.70017644555367"><ele>674.0</ele><time>2026-04-27T09:51:49.999Z</time></trkpt><trkpt lat="42.1269433756286" lon="13.70011508334299"><ele>672.0</ele><time>2026-04-27T09:51:51.999Z</time></trkpt><trkpt lat="42.126860400064956" lon="13.700007392511843"><ele>670.0</ele><time>2026-04-27T09:51:53.999Z</time></trkpt><trkpt lat="42.12680561492508" lon="13.699891886097612"><ele>668.0</ele><time>2026-04-27T09:51:55.999Z</time></trkpt><trkpt lat="42.12675110329667" lon="13.699784553013824"><ele>666.0</ele><time>2026-04-27T09:51:57.999Z</time></trkpt><trkpt lat="42.12672964483875" lon="13.6996462108461"><ele>666.0</ele><time>2026-04-27T09:51:59.999Z</time></trkpt><trkpt lat="42.12669786000602" lon="13.699533625266604"><ele>666.0</ele><time>2026-04-27T09:52:01.999Z</time></trkpt><trkpt lat="42.12665465558324" lon="13.699432428142494"><ele>666.0</ele><time>2026-04-27T09:52:04.999Z</time></trkpt><trkpt lat="42.12656811281273" lon="13.699438232963853"><ele>666.0</ele><time>2026-04-27T09:52:06.999Z</time></trkpt><trkpt lat="42.12649166754138" lon="13.6994385239743"><ele>666.0</ele><time>2026-04-27T09:52:08.999Z</time></trkpt><trkpt lat="42.12640806769092" lon="13.69943894059794"><ele>666.0</ele><time>2026-04-27T09:52:10.999Z</time></trkpt><trkpt lat="42.12631710250695" lon="13.699376007702291"><ele>665.0</ele><time>2026-04-27T09:52:12.999Z</time></trkpt><trkpt lat="42.12625026151053" lon="13.699256084328818"><ele>664.0</ele><time>2026-04-27T09:52:14.999Z</time></trkpt><trkpt lat="42.126215570137674" lon="13.699168628632481"><ele>663.0</ele><time>2026-04-27T09:52:15.999Z</time></trkpt><trkpt lat="42.1261789012201" lon="13.699083029907067"><ele>662.0</ele><time>2026-04-27T09:52:16.999Z</time></trkpt><trkpt lat="42.12613545236771" lon="13.69901128950836"><ele>661.0</ele><time>2026-04-27T09:52:17.999Z</time></trkpt><trkpt lat="42.126068432034884" lon="13.698922681273618"><ele>660.0</ele><time>2026-04-27T09:52:19.999Z</time></trkpt><trkpt lat="42.12606387940518" lon="13.698749888136883"><ele>660.0</ele><time>2026-04-27T09:52:22Z</time></trkpt><trkpt lat="42.126059555757735" lon="13.698659479304144"><ele>660.0</ele><time>2026-04-27T09:52:23Z</time></trkpt><trkpt lat="42.126065053466114" lon="13.69856361845758"><ele>660.0</ele><time>2026-04-27T09:52:24Z</time></trkpt><trkpt lat="42.126086297270334" lon="13.69845136862274"><ele>660.0</ele><time>2026-04-27T09:52:25Z</time></trkpt><trkpt lat="42.12610437734055" lon="13.698331106055502"><ele>660.0</ele><time>2026-04-27T09:52:26Z</time></trkpt><trkpt lat="42.12610871019878" lon="13.698207888718258"><ele>660.0</ele><time>2026-04-27T09:52:27Z</time></trkpt><trkpt lat="42.126106407478396" lon="13.698088230540414"><ele>661.2</ele><time>2026-04-27T09:52:28Z</time></trkpt><trkpt lat="42.12610525425382" lon="13.697966550531397"><ele>662.4</ele><time>2026-04-27T09:52:29Z</time></trkpt><trkpt lat="42.1260986382248" lon="13.6978445591338"><ele>663.5999999999999</ele><time>2026-04-27T09:52:30Z</time></trkpt><trkpt lat="42.12608840920976" lon="13.697719367718083"><ele>664.8</ele><time>2026-04-27T09:52:31Z</time></trkpt><trkpt lat="42.126070798222585" lon="13.697593019496312"><ele>666.0</ele><time>2026-04-27T09:52:32Z</time></trkpt><trkpt lat="42.126047146053345" lon="13.697472051859906"><ele>668.1999999999999</ele><time>2026-04-27T09:52:33Z</time></trkpt><trkpt lat="42.12602100788872" lon="13.697352086817071"><ele>670.4</ele><time>2026-04-27T09:52:34Z</time></trkpt><trkpt lat="42.12599347592323" lon="13.697228536383287"><ele>672.6</ele><time>2026-04-27T09:52:35Z</time></trkpt><trkpt lat="42.125965572820846" lon="13.697094759401148"><ele>674.8</ele><time>2026-04-27T09:52:36Z</time></trkpt><trkpt lat="42.12593702771476" lon="13.696955547029335"><ele>677.0</ele><time>2026-04-27T09:52:37Z</time></trkpt><trkpt lat="42.1259002342779" lon="13.696814456282885"><ele>680.0</ele><time>2026-04-27T09:52:38Z</time></trkpt><trkpt lat="42.12586989362242" lon="13.696674449617412"><ele>683.0</ele><time>2026-04-27T09:52:39Z</time></trkpt><trkpt lat="42.12583971545022" lon="13.696530222550642"><ele>686.0</ele><time>2026-04-27T09:52:40Z</time></trkpt><trkpt lat="42.12580986196592" lon="13.696374613833251"><ele>689.0</ele><time>2026-04-27T09:52:41Z</time></trkpt><trkpt lat="42.12577616549182" lon="13.696203602353544"><ele>692.5</ele><time>2026-04-27T09:52:42Z</time></trkpt><trkpt lat="42.12574629866976" lon="13.696026339279861"><ele>696.0</ele><time>2026-04-27T09:52:43Z</time></trkpt><trkpt lat="42.12571207815982" lon="13.69586730460402"><ele>699.5</ele><time>2026-04-27T09:52:44Z</time></trkpt><trkpt lat="42.125677894028776" lon="13.695702168708749"><ele>703.0</ele><time>2026-04-27T09:52:45Z</time></trkpt><trkpt lat="42.12564321096203" lon="13.695523693163562"><ele>704.75</ele><time>2026-04-27T09:52:46Z</time></trkpt><trkpt lat="42.12560571799859" lon="13.695339723578408"><ele>706.5</ele><time>2026-04-27T09:52:47Z</time></trkpt><trkpt lat="42.12557441381213" lon="13.695154528031951"><ele>708.25</ele><time>2026-04-27T09:52:48Z</time></trkpt><trkpt lat="42.12555463043636" lon="13.694971968029572"><ele>710.0</ele><time>2026-04-27T09:52:49Z</time></trkpt><trkpt lat="42.12553379524213" lon="13.694783535481085"><ele>714.75</ele><time>2026-04-27T09:52:50Z</time></trkpt><trkpt lat="42.12549621350005" lon="13.694600627593655"><ele>719.5</ele><time>2026-04-27T09:52:51Z</time></trkpt><trkpt lat="42.125448902899436" lon="13.694421835019021"><ele>724.25</ele><time>2026-04-27T09:52:52Z</time></trkpt><trkpt lat="42.12539497254621" lon="13.694244415012337"><ele>729.0</ele><time>2026-04-27T09:52:53Z</time></trkpt><trkpt lat="42.125333345899186" lon="13.694077822729302"><ele>730.25</ele><time>2026-04-27T09:52:54Z</time></trkpt><trkpt lat="42.12526749969216" lon="13.693933807249252"><ele>731.5</ele><time>2026-04-27T09:52:55Z</time></trkpt><trkpt lat="42.125197558698744" lon="13.693798708606629"><ele>732.75</ele><time>2026-04-27T09:52:56Z</time></trkpt><trkpt lat="42.1251373767777" lon="13.693658457426519"><ele>734.0</ele><time>2026-04-27T09:52:57Z</time></trkpt><trkpt lat="42.12508371998658" lon="13.693507115768764"><ele>736.0</ele><time>2026-04-27T09:52:58Z</time></trkpt><trkpt lat="42.12502821276253" lon="13.693360858509577"><ele>738.0</ele><time>2026-04-27T09:52:59Z</time></trkpt><trkpt lat="42.124972320692166" lon="13.693235160514925"><ele>740.0</ele><time>2026-04-27T09:53:00Z</time></trkpt><trkpt lat="42.12489879791034" lon="13.69313514353412"><ele>742.0</ele><time>2026-04-27T09:53:01Z</time></trkpt><trkpt lat="42.124805907387255" lon="13.69304277970905"><ele>748.0</ele><time>2026-04-27T09:53:02Z</time></trkpt><trkpt lat="42.124717483649384" lon="13.69294090438093"><ele>754.0</ele><time>2026-04-27T09:53:03Z</time></trkpt><trkpt lat="42.124638965869806" lon="13.692815487868987"><ele>760.0</ele><time>2026-04-27T09:53:04Z</time></trkpt><trkpt lat="42.12455219704889" lon="13.692695117737264"><ele>766.0</ele><time>2026-04-27T09:53:05Z</time></trkpt><trkpt lat="42.12447114667214" lon="13.692574274141073"><ele>766.1999999999999</ele><time>2026-04-27T09:53:06Z</time></trkpt><trkpt lat="42.124406775777345" lon="13.692443635184025"><ele>766.4</ele><time>2026-04-27T09:53:07Z</time></trkpt><trkpt lat="42.12435537877028" lon="13.692296092927535"><ele>766.6</ele><time>2026-04-27T09:53:08Z</time></trkpt><trkpt lat="42.124308145024436" lon="13.692152108865114"><ele>766.8</ele><time>2026-04-27T09:53:09Z</time></trkpt><trkpt lat="42.1242733993224" lon="13.692032898811718"><ele>767.0</ele><time>2026-04-27T09:53:10Z</time></trkpt><trkpt lat="42.12420388879803" lon="13.691998415373277"><ele>767.0</ele><time>2026-04-27T09:53:12Z</time></trkpt><trkpt lat="42.124135073974614" lon="13.692023258408929"><ele>767.0</ele><time>2026-04-27T09:53:13Z</time></trkpt><trkpt lat="42.124074427927795" lon="13.692079320783474"><ele>767.0</ele><time>2026-04-27T09:53:14Z</time></trkpt><trkpt lat="42.124048567910144" lon="13.692165916197666"><ele>767.0</ele><time>2026-04-27T09:53:15Z</time></trkpt><trkpt lat="42.1240180285093" lon="13.69227525278848"><ele>767.0</ele><time>2026-04-27T09:53:16Z</time></trkpt><trkpt lat="42.124016446689495" lon="13.692372201260785"><ele>767.0</ele><time>2026-04-27T09:53:17Z</time></trkpt><trkpt lat="42.12402445306594" lon="13.692502246615055"><ele>771.0</ele><time>2026-04-27T09:53:18Z</time></trkpt><trkpt lat="42.12404031639029" lon="13.6926298672889"><ele>775.0</ele><time>2026-04-27T09:53:19Z</time></trkpt><trkpt lat="42.12403693333408" lon="13.692766518483147"><ele>779.0</ele><time>2026-04-27T09:53:20Z</time></trkpt><trkpt lat="42.124035236986444" lon="13.692911338983835"><ele>783.0</ele><time>2026-04-27T09:53:21Z</time></trkpt><trkpt lat="42.12403612551473" lon="13.69304914680559"><ele>787.0</ele><time>2026-04-27T09:53:22Z</time></trkpt><trkpt lat="42.12404200916962" lon="13.693189664236101"><ele>786.9999999999999</ele><time>2026-04-27T09:53:23Z</time></trkpt><trkpt lat="42.12404762228802" lon="13.693319917291934"><ele>787.0</ele><time>2026-04-27T09:53:24Z</time></trkpt><trkpt lat="42.124036139439355" lon="13.693430683465351"><ele>787.0</ele><time>2026-04-27T09:53:24.999Z</time></trkpt><trkpt lat="42.12400509639521" lon="13.693515248845717"><ele>787.0</ele><time>2026-04-27T09:53:25.999Z</time></trkpt><trkpt lat="42.12395475522152" lon="13.693597996139758"><ele>786.9999999999999</ele><time>2026-04-27T09:53:26.999Z</time></trkpt><trkpt lat="42.12388485303471" lon="13.693676185850302"><ele>787.0</ele><time>2026-04-27T09:53:27.999Z</time></trkpt><trkpt lat="42.123797951958856" lon="13.69375169461134"><ele>784.6</ele><time>2026-04-27T09:53:28.999Z</time></trkpt><trkpt lat="42.12370909978156" lon="13.693811970316084"><ele>782.2</ele><time>2026-04-27T09:53:29.999Z</time></trkpt><trkpt lat="42.123609638696756" lon="13.693853442387015"><ele>779.8</ele><time>2026-04-27T09:53:30.999Z</time></trkpt><trkpt lat="42.123507389743985" lon="13.693883222663192"><ele>777.4</ele><time>2026-04-27T09:53:31.999Z</time></trkpt><trkpt lat="42.1234054151106" lon="13.693915117329858"><ele>775.0</ele><time>2026-04-27T09:53:32.999Z</time></trkpt><trkpt lat="42.12330556538457" lon="13.69395364131276"><ele>778.2</ele><time>2026-04-27T09:53:33.999Z</time></trkpt><trkpt lat="42.12321510374003" lon="13.694026332236344"><ele>781.4</ele><time>2026-04-27T09:53:34.999Z</time></trkpt><trkpt lat="42.12313241597616" lon="13.694128403194524"><ele>784.5999999999999</ele><time>2026-04-27T09:53:35.999Z</time></trkpt><trkpt lat="42.12305679635843" lon="13.694239616856839"><ele>787.8</ele><time>2026-04-27T09:53:36.999Z</time></trkpt><trkpt lat="42.122977542403696" lon="13.694346624283877"><ele>791.0</ele><time>2026-04-27T09:53:37.999Z</time></trkpt><trkpt lat="42.12289008390388" lon="13.694437092987854"><ele>791.0</ele><time>2026-04-27T09:53:38.999Z</time></trkpt><trkpt lat="42.12279217918225" lon="13.694518281247127"><ele>791.0</ele><time>2026-04-27T09:53:39.999Z</time></trkpt><trkpt lat="42.122685831718314" lon="13.694579113804705"><ele>791.0</ele><time>2026-04-27T09:53:40.999Z</time></trkpt><trkpt lat="42.122581532891914" lon="13.694626417306146"><ele>791.0</ele><time>2026-04-27T09:53:41.999Z</time></trkpt><trkpt lat="42.122475777431745" lon="13.694650745729394"><ele>791.0</ele><time>2026-04-27T09:53:42.999Z</time></trkpt><trkpt lat="42.12237323962383" lon="13.69467575026832"><ele>791.8333333333334</ele><time>2026-04-27T09:53:43.999Z</time></trkpt><trkpt lat="42.12229484280798" lon="13.694665716490675"><ele>792.6666666666667</ele><time>2026-04-27T09:53:44.999Z</time></trkpt><trkpt lat="42.12220423989143" lon="13.694663975333007"><ele>793.5</ele><time>2026-04-27T09:53:45.999Z</time></trkpt><trkpt lat="42.12211290508112" lon="13.694648234450256"><ele>794.3333333333333</ele><time>2026-04-27T09:53:46.999Z</time></trkpt><trkpt lat="42.122041234170375" lon="13.694627376516864"><ele>795.1666666666666</ele><time>2026-04-27T09:53:47.999Z</time></trkpt><trkpt lat="42.12201838950881" lon="13.694538748296912"><ele>796.0</ele><time>2026-04-27T09:53:51.999Z</time></trkpt><trkpt lat="42.12208465010245" lon="13.694446462820284"><ele>798.8</ele><time>2026-04-27T09:53:53.999Z</time></trkpt><trkpt lat="42.12214479924497" lon="13.694354529109871"><ele>801.5999999999999</ele><time>2026-04-27T09:53:54.999Z</time></trkpt><trkpt lat="42.12218631527286" lon="13.694245711149906"><ele>804.4</ele><time>2026-04-27T09:53:55.999Z</time></trkpt><trkpt lat="42.12222348186429" lon="13.694127781871174"><ele>807.2</ele><time>2026-04-27T09:53:56.999Z</time></trkpt><trkpt lat="42.122268713710945" lon="13.69398797979028"><ele>810.0</ele><time>2026-04-27T09:53:57.999Z</time></trkpt><trkpt lat="42.12232409626113" lon="13.693832405569697"><ele>810.0</ele><time>2026-04-27T09:53:58.999Z</time></trkpt><trkpt lat="42.122377640244856" lon="13.693686984103996"><ele>810.0</ele><time>2026-04-27T09:53:59.999Z</time></trkpt><trkpt lat="42.122433886769706" lon="13.693528823283502"><ele>810.0</ele><time>2026-04-27T09:54:00.999Z</time></trkpt><trkpt lat="42.122499310212056" lon="13.693356259004542"><ele>810.0</ele><time>2026-04-27T09:54:01.999Z</time></trkpt><trkpt lat="42.12256460138051" lon="13.693179686375101"><ele>809.4</ele><time>2026-04-27T09:54:02.999Z</time></trkpt><trkpt lat="42.12260521211432" lon="13.693024930274689"><ele>808.8</ele><time>2026-04-27T09:54:03.999Z</time></trkpt><trkpt lat="42.12260691713769" lon="13.692901292553506"><ele>808.2</ele><time>2026-04-27T09:54:04.999Z</time></trkpt><trkpt lat="42.12257140133636" lon="13.692809663275423"><ele>807.6</ele><time>2026-04-27T09:54:05.999Z</time></trkpt><trkpt lat="42.12251787161824" lon="13.692738537320357"><ele>807.0</ele><time>2026-04-27T09:54:06.999Z</time></trkpt><trkpt lat="42.12241182028681" lon="13.692735558588945"><ele>812.0</ele><time>2026-04-27T09:54:07.999Z</time></trkpt><trkpt lat="42.1223043744658" lon="13.692821233512696"><ele>817.0</ele><time>2026-04-27T09:54:08.999Z</time></trkpt><trkpt lat="42.122197343530075" lon="13.692901534801685"><ele>822.0</ele><time>2026-04-27T09:54:09.999Z</time></trkpt><trkpt lat="42.12209443246736" lon="13.69298070283123"><ele>827.0</ele><time>2026-04-27T09:54:10.999Z</time></trkpt><trkpt lat="42.12197929494747" lon="13.693064885551298"><ele>827.0</ele><time>2026-04-27T09:54:11.999Z</time></trkpt><trkpt lat="42.12185627301712" lon="13.693152134738666"><ele>827.0</ele><time>2026-04-27T09:54:12.999Z</time></trkpt><trkpt lat="42.121726732182246" lon="13.693237723743788"><ele>827.0</ele><time>2026-04-27T09:54:13.999Z</time></trkpt><trkpt lat="42.12159034104399" lon="13.69332078699084"><ele>827.0</ele><time>2026-04-27T09:54:14.999Z</time></trkpt><trkpt lat="42.1214422379168" lon="13.693401758419188"><ele>834.0</ele><time>2026-04-27T09:54:15.999Z</time></trkpt><trkpt lat="42.121289396461215" lon="13.693467446811688"><ele>841.0</ele><time>2026-04-27T09:54:16.999Z</time></trkpt><trkpt lat="42.1211277833645" lon="13.693521590984739"><ele>848.0</ele><time>2026-04-27T09:54:17.999Z</time></trkpt><trkpt lat="42.12096857944417" lon="13.693571950072752"><ele>845.0</ele><time>2026-04-27T09:54:18.999Z</time></trkpt><trkpt lat="42.12079530690208" lon="13.693647235482805"><ele>842.0</ele><time>2026-04-27T09:54:19.999Z</time></trkpt><trkpt lat="42.12062223433103" lon="13.693720114378298"><ele>839.0</ele><time>2026-04-27T09:54:20.999Z</time></trkpt><trkpt lat="42.12044594000504" lon="13.693789799837518"><ele>839.0</ele><time>2026-04-27T09:54:21.999Z</time></trkpt><trkpt lat="42.12026292742808" lon="13.693859902194477"><ele>839.0</ele><time>2026-04-27T09:54:22.999Z</time></trkpt><trkpt lat="42.12008384965339" lon="13.69393736208641"><ele>839.0</ele><time>2026-04-27T09:54:23.999Z</time></trkpt><trkpt lat="42.11990474577896" lon="13.69401885014118"><ele>847.3333333333334</ele><time>2026-04-27T09:54:24.999Z</time></trkpt><trkpt lat="42.119724764217445" lon="13.694100362615972"><ele>855.6666666666667</ele><time>2026-04-27T09:54:25.999Z</time></trkpt><trkpt lat="42.11955690198392" lon="13.694172003701278"><ele>864.0</ele><time>2026-04-27T09:54:27Z</time></trkpt><trkpt lat="42.11939792551452" lon="13.69422883088404"><ele>864.0</ele><time>2026-04-27T09:54:28Z</time></trkpt><trkpt lat="42.119234515509085" lon="13.694269542763447"><ele>864.0</ele><time>2026-04-27T09:54:29Z</time></trkpt><trkpt lat="42.11906331439311" lon="13.694307696794265"><ele>864.0</ele><time>2026-04-27T09:54:30Z</time></trkpt><trkpt lat="42.1188874512149" lon="13.69435953237178"><ele>861.6666666666667</ele><time>2026-04-27T09:54:31Z</time></trkpt><trkpt lat="42.118722429010894" lon="13.694467112744977"><ele>859.3333333333334</ele><time>2026-04-27T09:54:32Z</time></trkpt><trkpt lat="42.11855873501812" lon="13.694573934400541"><ele>857.0</ele><time>2026-04-27T09:54:33Z</time></trkpt><trkpt lat="42.11839348062197" lon="13.694681043272427"><ele>867.0</ele><time>2026-04-27T09:54:34Z</time></trkpt><trkpt lat="42.118224764400225" lon="13.694787197427694"><ele>877.0</ele><time>2026-04-27T09:54:35Z</time></trkpt><trkpt lat="42.11805472363393" lon="13.694896085632166"><ele>887.0</ele><time>2026-04-27T09:54:36Z</time></trkpt><trkpt lat="42.11788707631118" lon="13.695003382926293"><ele>887.0</ele><time>2026-04-27T09:54:37Z</time></trkpt><trkpt lat="42.117717473060736" lon="13.69509349693368"><ele>887.0</ele><time>2026-04-27T09:54:38Z</time></trkpt><trkpt lat="42.117540794385775" lon="13.695170447110756"><ele>887.0</ele><time>2026-04-27T09:54:39Z</time></trkpt><trkpt lat="42.117361277662106" lon="13.695203164886765"><ele>894.0</ele><time>2026-04-27T09:54:40Z</time></trkpt><trkpt lat="42.11717559462983" lon="13.69523699030457"><ele>901.0</ele><time>2026-04-27T09:54:41Z</time></trkpt><trkpt lat="42.11699358736363" lon="13.695276762225054"><ele>908.0</ele><time>2026-04-27T09:54:42Z</time></trkpt><trkpt lat="42.11681342879919" lon="13.695322129295265"><ele>900.0</ele><time>2026-04-27T09:54:43Z</time></trkpt><trkpt lat="42.11663767613681" lon="13.695366866665838"><ele>892.0</ele><time>2026-04-27T09:54:44Z</time></trkpt><trkpt lat="42.11645625165883" lon="13.695403102480507"><ele>884.0</ele><time>2026-04-27T09:54:45Z</time></trkpt><trkpt lat="42.11627325469529" lon="13.695447034187712"><ele>884.0</ele><time>2026-04-27T09:54:46Z</time></trkpt><trkpt lat="42.11609236530871" lon="13.695500676899831"><ele>884.0</ele><time>2026-04-27T09:54:47Z</time></trkpt><trkpt lat="42.11590746412736" lon="13.695561414073088"><ele>884.0</ele><time>2026-04-27T09:54:48Z</time></trkpt><trkpt lat="42.115720954760526" lon="13.695613417906298"><ele>890.6666666666667</ele><time>2026-04-27T09:54:49Z</time></trkpt><trkpt lat="42.11552847992292" lon="13.695659387979191"><ele>897.3333333333333</ele><time>2026-04-27T09:54:50Z</time></trkpt><trkpt lat="42.11533135255216" lon="13.695705442140305"><ele>904.0</ele><time>2026-04-27T09:54:51Z</time></trkpt><trkpt lat="42.115131994383816" lon="13.69575191108914"><ele>904.0</ele><time>2026-04-27T09:54:52Z</time></trkpt><trkpt lat="42.11493337464255" lon="13.695797954409372"><ele>904.0</ele><time>2026-04-27T09:54:53Z</time></trkpt><trkpt lat="42.114733321770984" lon="13.69584396114247"><ele>904.0</ele><time>2026-04-27T09:54:54Z</time></trkpt><trkpt lat="42.11453632034724" lon="13.695886111808665"><ele>910.0</ele><time>2026-04-27T09:54:55Z</time></trkpt><trkpt lat="42.11433973201795" lon="13.695932401838805"><ele>916.0</ele><time>2026-04-27T09:54:56Z</time></trkpt><trkpt lat="42.11414602026396" lon="13.695985998119733"><ele>922.0</ele><time>2026-04-27T09:54:57Z</time></trkpt><trkpt lat="42.113952996113355" lon="13.696039404164113"><ele>913.0</ele><time>2026-04-27T09:54:58Z</time></trkpt><trkpt lat="42.11376114310191" lon="13.696095397407733"><ele>904.0</ele><time>2026-04-27T09:54:59Z</time></trkpt><trkpt lat="42.1135690662465" lon="13.696158321610673"><ele>895.0</ele><time>2026-04-27T09:55:00Z</time></trkpt><trkpt lat="42.11337952491648" lon="13.696218689695321"><ele>902.6666666666666</ele><time>2026-04-27T09:55:01Z</time></trkpt><trkpt lat="42.11318706325" lon="13.696267633634362"><ele>910.3333333333333</ele><time>2026-04-27T09:55:02Z</time></trkpt><trkpt lat="42.11301619627046" lon="13.696325400656828"><ele>918.0</ele><time>2026-04-27T09:55:03Z</time></trkpt><trkpt lat="42.11283737849541" lon="13.696412806034786"><ele>918.0</ele><time>2026-04-27T09:55:04Z</time></trkpt><trkpt lat="42.11265608555765" lon="13.696525478276392"><ele>918.0</ele><time>2026-04-27T09:55:05Z</time></trkpt><trkpt lat="42.11247313266657" lon="13.696632538652421"><ele>918.0</ele><time>2026-04-27T09:55:06Z</time></trkpt><trkpt lat="42.11229327184577" lon="13.696738393046072"><ele>914.6666666666667</ele><time>2026-04-27T09:55:07Z</time></trkpt><trkpt lat="42.11211216198676" lon="13.696846219954534"><ele>911.3333333333334</ele><time>2026-04-27T09:55:08Z</time></trkpt><trkpt lat="42.111934488109696" lon="13.696955477239115"><ele>908.0</ele><time>2026-04-27T09:55:09Z</time></trkpt><trkpt lat="42.11176130006477" lon="13.697061364578184"><ele>908.0</ele><time>2026-04-27T09:55:10Z</time></trkpt><trkpt lat="42.11158423100746" lon="13.697148235286171"><ele>908.0</ele><time>2026-04-27T09:55:11Z</time></trkpt><trkpt lat="42.11140421143593" lon="13.697228887881785"><ele>908.0</ele><time>2026-04-27T09:55:12Z</time></trkpt><trkpt lat="42.111225939305776" lon="13.697312047625648"><ele>918.0</ele><time>2026-04-27T09:55:13Z</time></trkpt><trkpt lat="42.111046057649155" lon="13.697406023517061"><ele>928.0</ele><time>2026-04-27T09:55:14Z</time></trkpt><trkpt lat="42.11086505369938" lon="13.697511183541048"><ele>938.0</ele><time>2026-04-27T09:55:15Z</time></trkpt><trkpt lat="42.110692964620256" lon="13.697632581935592"><ele>936.3333333333334</ele><time>2026-04-27T09:55:16Z</time></trkpt><trkpt lat="42.11052481303338" lon="13.697755236880576"><ele>934.6666666666667</ele><time>2026-04-27T09:55:17Z</time></trkpt><trkpt lat="42.1103568244127" lon="13.697871146829884"><ele>933.0</ele><time>2026-04-27T09:55:18Z</time></trkpt><trkpt lat="42.11017811055971" lon="13.697951589906179"><ele>933.0</ele><time>2026-04-27T09:55:19Z</time></trkpt><trkpt lat="42.10999447475089" lon="13.698036525252496"><ele>933.0</ele><time>2026-04-27T09:55:20Z</time></trkpt><trkpt lat="42.10981474080099" lon="13.698119656072494"><ele>933.0</ele><time>2026-04-27T09:55:21Z</time></trkpt><trkpt lat="42.1096360872397" lon="13.698208643583259"><ele>941.3333333333333</ele><time>2026-04-27T09:55:22Z</time></trkpt><trkpt lat="42.10946222185773" lon="13.698299483055935"><ele>949.6666666666666</ele><time>2026-04-27T09:55:23Z</time></trkpt><trkpt lat="42.1092844171238" lon="13.698373873181328"><ele>958.0</ele><time>2026-04-27T09:55:24Z</time></trkpt><trkpt lat="42.10910350994156" lon="13.698435319931754"><ele>957.6666666666666</ele><time>2026-04-27T09:55:25Z</time></trkpt><trkpt lat="42.10892056663872" lon="13.698491150458219"><ele>957.3333333333333</ele><time>2026-04-27T09:55:26Z</time></trkpt><trkpt lat="42.108743765769404" lon="13.698526733549189"><ele>957.0</ele><time>2026-04-27T09:55:27Z</time></trkpt><trkpt lat="42.10861724830288" lon="13.69854105388601"><ele>957.0</ele><time>2026-04-27T09:55:28Z</time></trkpt><trkpt lat="42.10851931030357" lon="13.698539219190645"><ele>957.0</ele><time>2026-04-27T09:55:28.999Z</time></trkpt><trkpt lat="42.1084326460505" lon="13.698526278632462"><ele>957.0</ele><time>2026-04-27T09:55:29.999Z</time></trkpt><trkpt lat="42.10836827131577" lon="13.698431155488649"><ele>957.0</ele><time>2026-04-27T09:55:30.999Z</time></trkpt><trkpt lat="42.1083303571737" lon="13.698296296861255"><ele>957.0</ele><time>2026-04-27T09:55:31.999Z</time></trkpt><trkpt lat="42.10829897925093" lon="13.698138823586687"><ele>957.0</ele><time>2026-04-27T09:55:32.999Z</time></trkpt><trkpt lat="42.10824961127902" lon="13.697976567714326"><ele>957.0</ele><time>2026-04-27T09:55:33.999Z</time></trkpt><trkpt lat="42.10817497334994" lon="13.697821411343257"><ele>957.0</ele><time>2026-04-27T09:55:34.999Z</time></trkpt><trkpt lat="42.10810887583645" lon="13.697695957630588"><ele>957.0</ele><time>2026-04-27T09:55:35.999Z</time></trkpt><trkpt lat="42.10805996446256" lon="13.697587940003055"><ele>955.8</ele><time>2026-04-27T09:55:36.999Z</time></trkpt><trkpt lat="42.10805310513" lon="13.69748433723906"><ele>954.6</ele><time>2026-04-27T09:55:37.999Z</time></trkpt><trkpt lat="42.10796460407172" lon="13.69741416451053"><ele>953.3999999999999</ele><time>2026-04-27T09:55:38.999Z</time></trkpt><trkpt lat="42.10792335222625" lon="13.697302362026138"><ele>952.1999999999999</ele><time>2026-04-27T09:55:39.999Z</time></trkpt><trkpt lat="42.10790595634753" lon="13.697161172695479"><ele>951.0</ele><time>2026-04-27T09:55:40.999Z</time></trkpt><trkpt lat="42.107887229881754" lon="13.69701686642743"><ele>950.5</ele><time>2026-04-27T09:55:41.999Z</time></trkpt><trkpt lat="42.1078618084961" lon="13.696860322672798"><ele>950.0</ele><time>2026-04-27T09:55:42.999Z</time></trkpt><trkpt lat="42.10783271185623" lon="13.696689066235441"><ele>949.5</ele><time>2026-04-27T09:55:43.999Z</time></trkpt><trkpt lat="42.10780820064683" lon="13.696526178775972"><ele>949.0</ele><time>2026-04-27T09:55:44.999Z</time></trkpt><trkpt lat="42.10778026634495" lon="13.696371655372198"><ele>949.0</ele><time>2026-04-27T09:55:45.999Z</time></trkpt><trkpt lat="42.10775117823034" lon="13.696222501450096"><ele>949.0</ele><time>2026-04-27T09:55:46.999Z</time></trkpt><trkpt lat="42.107720583422" lon="13.696078740649273"><ele>949.0</ele><time>2026-04-27T09:55:47.999Z</time></trkpt><trkpt lat="42.10769768029434" lon="13.695931040533322"><ele>949.0</ele><time>2026-04-27T09:55:48.999Z</time></trkpt><trkpt lat="42.107668991059676" lon="13.69578263182697"><ele>948.0</ele><time>2026-04-27T09:55:49.999Z</time></trkpt><trkpt lat="42.10764240913197" lon="13.695623280968743"><ele>947.0</ele><time>2026-04-27T09:55:50.999Z</time></trkpt><trkpt lat="42.10762133188554" lon="13.695462022484055"><ele>946.0</ele><time>2026-04-27T09:55:51.999Z</time></trkpt><trkpt lat="42.107592260420375" lon="13.695302175803807"><ele>945.0</ele><time>2026-04-27T09:55:52.999Z</time></trkpt><trkpt lat="42.10755996038071" lon="13.695145671389243"><ele>944.6</ele><time>2026-04-27T09:55:53.999Z</time></trkpt><trkpt lat="42.107529506803175" lon="13.69499041456061"><ele>944.2</ele><time>2026-04-27T09:55:54.999Z</time></trkpt><trkpt lat="42.10751040535564" lon="13.694848665530968"><ele>943.8</ele><time>2026-04-27T09:55:55.999Z</time></trkpt><trkpt lat="42.10748977175391" lon="13.694719129874471"><ele>943.4</ele><time>2026-04-27T09:55:56.999Z</time></trkpt><trkpt lat="42.10746706982544" lon="13.694594751495652"><ele>943.0</ele><time>2026-04-27T09:55:57.999Z</time></trkpt><trkpt lat="42.107438389475355" lon="13.694486030772715"><ele>939.5999999999999</ele><time>2026-04-27T09:55:58.999Z</time></trkpt><trkpt lat="42.10738231015723" lon="13.694395578146906"><ele>936.1999999999999</ele><time>2026-04-27T09:55:59.999Z</time></trkpt><trkpt lat="42.107301507428545" lon="13.694341239034818"><ele>932.8</ele><time>2026-04-27T09:56:00.999Z</time></trkpt><trkpt lat="42.1072066806228" lon="13.694334003309873"><ele>929.4</ele><time>2026-04-27T09:56:01.999Z</time></trkpt><trkpt lat="42.107109011418984" lon="13.69434754882778"><ele>926.0</ele><time>2026-04-27T09:56:02.999Z</time></trkpt><trkpt lat="42.10701333721523" lon="13.694320403963145"><ele>926.0</ele><time>2026-04-27T09:56:03.999Z</time></trkpt><trkpt lat="42.10690362206347" lon="13.694308338619427"><ele>926.0</ele><time>2026-04-27T09:56:04.999Z</time></trkpt><trkpt lat="42.10676530040938" lon="13.694289092147924"><ele>926.0</ele><time>2026-04-27T09:56:05.999Z</time></trkpt><trkpt lat="42.10665802227419" lon="13.69424945312669"><ele>926.0</ele><time>2026-04-27T09:56:06.999Z</time></trkpt><trkpt lat="42.10652961476773" lon="13.694205661239492"><ele>923.0</ele><time>2026-04-27T09:56:07.999Z</time></trkpt><trkpt lat="42.10639288194613" lon="13.694177065614609"><ele>920.0</ele><time>2026-04-27T09:56:08.999Z</time></trkpt><trkpt lat="42.1062446443794" lon="13.694148943505231"><ele>917.0</ele><time>2026-04-27T09:56:09.999Z</time></trkpt><trkpt lat="42.10609313042141" lon="13.694140659216892"><ele>914.0</ele><time>2026-04-27T09:56:10.999Z</time></trkpt><trkpt lat="42.10594383621595" lon="13.694103328394414"><ele>914.0</ele><time>2026-04-27T09:56:11.999Z</time></trkpt><trkpt lat="42.105802952458276" lon="13.694049051357132"><ele>914.0</ele><time>2026-04-27T09:56:12.999Z</time></trkpt><trkpt lat="42.10565605390863" lon="13.694010523207536"><ele>914.0</ele><time>2026-04-27T09:56:13.999Z</time></trkpt><trkpt lat="42.10551808500489" lon="13.693969015611895"><ele>914.0</ele><time>2026-04-27T09:56:14.999Z</time></trkpt><trkpt lat="42.10538095653331" lon="13.693932699805924"><ele>912.4000000000001</ele><time>2026-04-27T09:56:15.999Z</time></trkpt><trkpt lat="42.10526131202759" lon="13.693898522667784"><ele>910.8000000000001</ele><time>2026-04-27T09:56:16.999Z</time></trkpt><trkpt lat="42.10515907903835" lon="13.693864417246216"><ele>909.1999999999999</ele><time>2026-04-27T09:56:17.999Z</time></trkpt><trkpt lat="42.10509640144663" lon="13.693802642331118"><ele>907.5999999999999</ele><time>2026-04-27T09:56:18.999Z</time></trkpt><trkpt lat="42.10506046163479" lon="13.693729142725331"><ele>906.0</ele><time>2026-04-27T09:56:19.999Z</time></trkpt><trkpt lat="42.105014638214925" lon="13.69363648277296"><ele>907.4</ele><time>2026-04-27T09:56:20.999Z</time></trkpt><trkpt lat="42.10495149889329" lon="13.693509156553198"><ele>908.8</ele><time>2026-04-27T09:56:21.999Z</time></trkpt><trkpt lat="42.104889333222715" lon="13.693407465696662"><ele>910.1999999999999</ele><time>2026-04-27T09:56:22.999Z</time></trkpt><trkpt lat="42.10484437419263" lon="13.693323302347423"><ele>911.5999999999999</ele><time>2026-04-27T09:56:23.999Z</time></trkpt><trkpt lat="42.10478421635806" lon="13.693276877701019"><ele>913.0</ele><time>2026-04-27T09:56:24.999Z</time></trkpt><trkpt lat="42.104637146883235" lon="13.693280778805505"><ele>913.9999999999999</ele><time>2026-04-27T09:56:26.999Z</time></trkpt><trkpt lat="42.104556075181975" lon="13.693287542768635"><ele>915.0</ele><time>2026-04-27T09:56:27.999Z</time></trkpt><trkpt lat="42.104481776943246" lon="13.693300568552909"><ele>916.0</ele><time>2026-04-27T09:56:28.999Z</time></trkpt><trkpt lat="42.10440597618956" lon="13.69325137269945"><ele>917.0</ele><time>2026-04-27T09:56:29.999Z</time></trkpt><trkpt lat="42.10431124200272" lon="13.69322656533429"><ele>917.9999999999999</ele><time>2026-04-27T09:56:30.999Z</time></trkpt><trkpt lat="42.10422009519231" lon="13.693215398686844"><ele>919.0</ele><time>2026-04-27T09:56:31.999Z</time></trkpt><trkpt lat="42.104144919463714" lon="13.693289086670692"><ele>919.0</ele><time>2026-04-27T09:56:33Z</time></trkpt><trkpt lat="42.10409275344812" lon="13.693356998764381"><ele>919.0000000000001</ele><time>2026-04-27T09:56:34Z</time></trkpt><trkpt lat="42.10405697355179" lon="13.69346912812378"><ele>919.0000000000001</ele><time>2026-04-27T09:56:35Z</time></trkpt><trkpt lat="42.10403973179933" lon="13.693623807120826"><ele>919.0</ele><time>2026-04-27T09:56:36Z</time></trkpt><trkpt lat="42.10400286250312" lon="13.693758758033052"><ele>919.0</ele><time>2026-04-27T09:56:37Z</time></trkpt><trkpt lat="42.103976134975824" lon="13.693849314723177"><ele>919.8000000000001</ele><time>2026-04-27T09:56:38Z</time></trkpt><trkpt lat="42.10390519297014" lon="13.693982983635863"><ele>920.6000000000001</ele><time>2026-04-27T09:56:40Z</time></trkpt><trkpt lat="42.103841613982155" lon="13.694049708867125"><ele>921.4</ele><time>2026-04-27T09:56:41Z</time></trkpt><trkpt lat="42.103771970243315" lon="13.694080150165604"><ele>922.2</ele><time>2026-04-27T09:56:42Z</time></trkpt><trkpt lat="42.10369161059406" lon="13.694105839080857"><ele>923.0</ele><time>2026-04-27T09:56:43Z</time></trkpt><trkpt lat="42.103589413381854" lon="13.694096785875647"><ele>923.0</ele><time>2026-04-27T09:56:44Z</time></trkpt><trkpt lat="42.1034731101855" lon="13.694085568917853"><ele>923.0</ele><time>2026-04-27T09:56:45Z</time></trkpt><trkpt lat="42.10335601370875" lon="13.694079394558468"><ele>923.0</ele><time>2026-04-27T09:56:46Z</time></trkpt><trkpt lat="42.10323469659386" lon="13.694062598528784"><ele>923.0</ele><time>2026-04-27T09:56:47Z</time></trkpt><trkpt lat="42.10310153546743" lon="13.694091023888165"><ele>924.0</ele><time>2026-04-27T09:56:48Z</time></trkpt><trkpt lat="42.102961766699245" lon="13.694138493058007"><ele>925.0</ele><time>2026-04-27T09:56:49Z</time></trkpt><trkpt lat="42.10282649289137" lon="13.69417143259284"><ele>926.0</ele><time>2026-04-27T09:56:50Z</time></trkpt><trkpt lat="42.10271309961291" lon="13.694179835693424"><ele>927.0</ele><time>2026-04-27T09:56:51Z</time></trkpt><trkpt lat="42.102612216623825" lon="13.694219568665293"><ele>927.0</ele><time>2026-04-27T09:56:52Z</time></trkpt><trkpt lat="42.10249688553996" lon="13.694244790861278"><ele>927.0</ele><time>2026-04-27T09:56:53Z</time></trkpt><trkpt lat="42.1023571442104" lon="13.694265936781076"><ele>927.0</ele><time>2026-04-27T09:56:54Z</time></trkpt><trkpt lat="42.10220268031891" lon="13.694251706945952"><ele>927.0</ele><time>2026-04-27T09:56:55Z</time></trkpt><trkpt lat="42.102066916894934" lon="13.694201886672735"><ele>928.2</ele><time>2026-04-27T09:56:56Z</time></trkpt><trkpt lat="42.101981207105" lon="13.694085167745138"><ele>929.4000000000001</ele><time>2026-04-27T09:56:57Z</time></trkpt><trkpt lat="42.10192704759515" lon="13.694009283143915"><ele>930.5999999999999</ele><time>2026-04-27T09:56:58Z</time></trkpt><trkpt lat="42.10188085280551" lon="13.693891967430915"><ele>931.8</ele><time>2026-04-27T09:56:59Z</time></trkpt><trkpt lat="42.101812328675486" lon="13.693778102845625"><ele>933.0</ele><time>2026-04-27T09:57:00Z</time></trkpt><trkpt lat="42.10174192054786" lon="13.693661226544354"><ele>933.0</ele><time>2026-04-27T09:57:01Z</time></trkpt><trkpt lat="42.101678158402216" lon="13.693603056301978"><ele>933.0</ele><time>2026-04-27T09:57:02Z</time></trkpt><trkpt lat="42.1016116694947" lon="13.693540699697671"><ele>933.0</ele><time>2026-04-27T09:57:03Z</time></trkpt><trkpt lat="42.101525685258714" lon="13.693502252520794"><ele>933.0</ele><time>2026-04-27T09:57:04Z</time></trkpt><trkpt lat="42.101426609310835" lon="13.693471101261993"><ele>933.0</ele><time>2026-04-27T09:57:05Z</time></trkpt><trkpt lat="42.101356172928504" lon="13.693476727104189"><ele>933.0</ele><time>2026-04-27T09:57:06Z</time></trkpt><trkpt lat="42.10129854682613" lon="13.693512278880805"><ele>935.8</ele><time>2026-04-27T09:57:07Z</time></trkpt><trkpt lat="42.10124467796405" lon="13.693589010781528"><ele>938.5999999999999</ele><time>2026-04-27T09:57:08Z</time></trkpt><trkpt lat="42.10120604541995" lon="13.69369124034841"><ele>941.4000000000001</ele><time>2026-04-27T09:57:09Z</time></trkpt><trkpt lat="42.10115241548094" lon="13.693778464305955"><ele>944.2</ele><time>2026-04-27T09:57:10Z</time></trkpt><trkpt lat="42.101040924556465" lon="13.69394075963465"><ele>947.0</ele><time>2026-04-27T09:57:12Z</time></trkpt><trkpt lat="42.100963828927895" lon="13.694027395257072"><ele>947.0</ele><time>2026-04-27T09:57:13Z</time></trkpt><trkpt lat="42.10088360722685" lon="13.694112766349082"><ele>947.0</ele><time>2026-04-27T09:57:14Z</time></trkpt><trkpt lat="42.10080316405202" lon="13.694186230402176"><ele>947.0</ele><time>2026-04-27T09:57:15Z</time></trkpt><trkpt lat="42.10072166587026" lon="13.694273460483956"><ele>947.0</ele><time>2026-04-27T09:57:16Z</time></trkpt><trkpt lat="42.100639542050786" lon="13.694330266035044"><ele>947.0</ele><time>2026-04-27T09:57:17Z</time></trkpt><trkpt lat="42.10056800467933" lon="13.694350913029707"><ele>949.3333333333334</ele><time>2026-04-27T09:57:18Z</time></trkpt><trkpt lat="42.1004933644255" lon="13.694358475617522"><ele>951.6666666666667</ele><time>2026-04-27T09:57:19Z</time></trkpt><trkpt lat="42.1004401539267" lon="13.694309246205679"><ele>954.0</ele><time>2026-04-27T09:57:20Z</time></trkpt><trkpt lat="42.10036852660303" lon="13.694265906581537"><ele>956.3333333333333</ele><time>2026-04-27T09:57:21Z</time></trkpt><trkpt lat="42.10029114308891" lon="13.694230056591834"><ele>958.6666666666666</ele><time>2026-04-27T09:57:22Z</time></trkpt><trkpt lat="42.10021009971531" lon="13.69422702456396"><ele>961.0</ele><time>2026-04-27T09:57:23Z</time></trkpt><trkpt lat="42.100137213533316" lon="13.694250722103174"><ele>961.0</ele><time>2026-04-27T09:57:24Z</time></trkpt><trkpt lat="42.10000854986239" lon="13.69417091164859"><ele>960.9999999999999</ele><time>2026-04-27T09:57:26Z</time></trkpt><trkpt lat="42.09991705102358" lon="13.694136698818149"><ele>960.9999999999999</ele><time>2026-04-27T09:57:27Z</time></trkpt><trkpt lat="42.09981848013284" lon="13.69408853419328"><ele>961.0</ele><time>2026-04-27T09:57:28Z</time></trkpt><trkpt lat="42.099742923909844" lon="13.694024782809501"><ele>961.0</ele><time>2026-04-27T09:57:29Z</time></trkpt><trkpt lat="42.09970389210001" lon="13.6939435545141"><ele>963.8333333333333</ele><time>2026-04-27T09:57:30Z</time></trkpt><trkpt lat="42.099694395113886" lon="13.69384896736032"><ele>966.6666666666666</ele><time>2026-04-27T09:57:30.999Z</time></trkpt><trkpt lat="42.09968064940263" lon="13.693765702979459"><ele>969.5</ele><time>2026-04-27T09:57:31.999Z</time></trkpt><trkpt lat="42.09964676844606" lon="13.693679046775127"><ele>972.3333333333333</ele><time>2026-04-27T09:57:32.999Z</time></trkpt><trkpt lat="42.09962625202167" lon="13.693576179888304"><ele>975.1666666666666</ele><time>2026-04-27T09:57:33.999Z</time></trkpt><trkpt lat="42.09958385255932" lon="13.693458941858264"><ele>978.0</ele><time>2026-04-27T09:57:34.999Z</time></trkpt><trkpt lat="42.09953764308179" lon="13.69335329704977"><ele>979.5</ele><time>2026-04-27T09:57:35.999Z</time></trkpt><trkpt lat="42.099471706327265" lon="13.693288445299327"><ele>981.0</ele><time>2026-04-27T09:57:36.999Z</time></trkpt><trkpt lat="42.099409619036955" lon="13.69324288399468"><ele>982.5</ele><time>2026-04-27T09:57:37.999Z</time></trkpt><trkpt lat="42.0993432545759" lon="13.693181543835601"><ele>984.0</ele><time>2026-04-27T09:57:38.999Z</time></trkpt><trkpt lat="42.09927438514225" lon="13.693144427508111"><ele>985.5</ele><time>2026-04-27T09:57:39.999Z</time></trkpt><trkpt lat="42.099198493973006" lon="13.693147184363921"><ele>987.0</ele><time>2026-04-27T09:57:40.999Z</time></trkpt><trkpt lat="42.09911421393046" lon="13.693179005950185"><ele>990.4000000000001</ele><time>2026-04-27T09:57:41.999Z</time></trkpt><trkpt lat="42.099027588092675" lon="13.693232267131103"><ele>993.8000000000001</ele><time>2026-04-27T09:57:42.999Z</time></trkpt><trkpt lat="42.098946241581984" lon="13.693303441342284"><ele>997.2</ele><time>2026-04-27T09:57:43.999Z</time></trkpt><trkpt lat="42.09890458218877" lon="13.693419703653088"><ele>1000.6</ele><time>2026-04-27T09:57:44.999Z</time></trkpt><trkpt lat="42.09889128444437" lon="13.693525248691166"><ele>1004.0</ele><time>2026-04-27T09:57:45.999Z</time></trkpt><trkpt lat="42.09889476781823" lon="13.693657626279476"><ele>1004.0</ele><time>2026-04-27T09:57:46.999Z</time></trkpt><trkpt lat="42.09891407600059" lon="13.693806622775304"><ele>1004.0000000000001</ele><time>2026-04-27T09:57:47.999Z</time></trkpt><trkpt lat="42.09891329889691" lon="13.693931385424406"><ele>1004.0000000000001</ele><time>2026-04-27T09:57:48.999Z</time></trkpt><trkpt lat="42.09887793613459" lon="13.694020260334732"><ele>1004.0</ele><time>2026-04-27T09:57:49.999Z</time></trkpt><trkpt lat="42.09884901454997" lon="13.69411350840362"><ele>1004.0</ele><time>2026-04-27T09:57:50.999Z</time></trkpt><trkpt lat="42.09872857584936" lon="13.69414108751081"><ele>1004.0</ele><time>2026-04-27T09:57:52.999Z</time></trkpt><trkpt lat="42.098667595139744" lon="13.694186227946819"><ele>1004.0000000000001</ele><time>2026-04-27T09:57:53.999Z</time></trkpt><trkpt lat="42.098586133838374" lon="13.694254227381816"><ele>1004.0000000000001</ele><time>2026-04-27T09:57:54.999Z</time></trkpt><trkpt lat="42.09851082919863" lon="13.694367009263212"><ele>1004.0</ele><time>2026-04-27T09:57:55.999Z</time></trkpt><trkpt lat="42.09840304753757" lon="13.694463789658052"><ele>1004.0</ele><time>2026-04-27T09:57:56.999Z</time></trkpt><trkpt lat="42.098317266391525" lon="13.694588798448526"><ele>1004.0</ele><time>2026-04-27T09:57:57.999Z</time></trkpt><trkpt lat="42.09827836358597" lon="13.694727834711069"><ele>1004.0000000000001</ele><time>2026-04-27T09:57:58.999Z</time></trkpt><trkpt lat="42.09825104082198" lon="13.69482907448249"><ele>1004.0000000000001</ele><time>2026-04-27T09:57:59.999Z</time></trkpt><trkpt lat="42.098195915374255" lon="13.694920914433744"><ele>1004.0</ele><time>2026-04-27T09:58:00.999Z</time></trkpt><trkpt lat="42.09813455932446" lon="13.695019238513758"><ele>1004.0</ele><time>2026-04-27T09:58:01.999Z</time></trkpt><trkpt lat="42.09807125618404" lon="13.695157990772353"><ele>1002.4000000000001</ele><time>2026-04-27T09:58:02.999Z</time></trkpt><trkpt lat="42.0980089688707" lon="13.695288286768465"><ele>1000.8000000000001</ele><time>2026-04-27T09:58:03.999Z</time></trkpt><trkpt lat="42.09793144345003" lon="13.695391064593087"><ele>999.1999999999999</ele><time>2026-04-27T09:58:04.999Z</time></trkpt><trkpt lat="42.09787435237638" lon="13.695471173639524"><ele>997.5999999999999</ele><time>2026-04-27T09:58:05.999Z</time></trkpt><trkpt lat="42.097770575394826" lon="13.695516363107648"><ele>996.0</ele><time>2026-04-27T09:58:07.999Z</time></trkpt><trkpt lat="42.0976666974496" lon="13.695561897905739"><ele>996.0</ele><time>2026-04-27T09:58:09.999Z</time></trkpt><trkpt lat="42.097558976929555" lon="13.695596140974086"><ele>995.9999999999999</ele><time>2026-04-27T09:58:11.999Z</time></trkpt><trkpt lat="42.0974342116872" lon="13.695639006988817"><ele>995.9999999999999</ele><time>2026-04-27T09:58:13.999Z</time></trkpt><trkpt lat="42.097368892493904" lon="13.695667594088054"><ele>996.0</ele><time>2026-04-27T09:58:14.999Z</time></trkpt><trkpt lat="42.09730133829653" lon="13.695702759977728"><ele>996.0</ele><time>2026-04-27T09:58:15.999Z</time></trkpt><trkpt lat="42.09722018616557" lon="13.695754916207871"><ele>996.4</ele><time>2026-04-27T09:58:16.999Z</time></trkpt><trkpt lat="42.09711991202694" lon="13.695813072888125"><ele>996.8</ele><time>2026-04-27T09:58:17.999Z</time></trkpt><trkpt lat="42.097010538644774" lon="13.695845806124119"><ele>997.1999999999999</ele><time>2026-04-27T09:58:18.999Z</time></trkpt><trkpt lat="42.096895404133335" lon="13.695866356486984"><ele>997.5999999999999</ele><time>2026-04-27T09:58:19.999Z</time></trkpt><trkpt lat="42.096791845879274" lon="13.695871525218946"><ele>998.0</ele><time>2026-04-27T09:58:20.999Z</time></trkpt><trkpt lat="42.096700211179346" lon="13.695863744268411"><ele>998.0</ele><time>2026-04-27T09:58:21.999Z</time></trkpt><trkpt lat="42.096625997496034" lon="13.695801242659577"><ele>998.0</ele><time>2026-04-27T09:58:22.999Z</time></trkpt><trkpt lat="42.09656382522212" lon="13.695720174948107"><ele>998.0</ele><time>2026-04-27T09:58:23.999Z</time></trkpt><trkpt lat="42.09649141097134" lon="13.695654817396262"><ele>998.0</ele><time>2026-04-27T09:58:24.999Z</time></trkpt><trkpt lat="42.09641270651217" lon="13.695646330239347"><ele>998.0</ele><time>2026-04-27T09:58:25.999Z</time></trkpt><trkpt lat="42.09629182924068" lon="13.695712787498667"><ele>997.5999999999999</ele><time>2026-04-27T09:58:27.999Z</time></trkpt><trkpt lat="42.09620303274165" lon="13.69575904803383"><ele>997.1999999999999</ele><time>2026-04-27T09:58:28.999Z</time></trkpt><trkpt lat="42.09611272556204" lon="13.69581441918997"><ele>996.8</ele><time>2026-04-27T09:58:29.999Z</time></trkpt><trkpt lat="42.09601299605598" lon="13.695870764507948"><ele>996.4</ele><time>2026-04-27T09:58:30.999Z</time></trkpt><trkpt lat="42.09590897573516" lon="13.695909004828026"><ele>996.0</ele><time>2026-04-27T09:58:31.999Z</time></trkpt><trkpt lat="42.095839946443405" lon="13.695888536068187"><ele>996.0</ele><time>2026-04-27T09:58:32.999Z</time></trkpt><trkpt lat="42.09578118580188" lon="13.695830759206492"><ele>995.9999999999999</ele><time>2026-04-27T09:58:33.999Z</time></trkpt><trkpt lat="42.09571463399817" lon="13.6957693939709"><ele>995.9999999999999</ele><time>2026-04-27T09:58:34.999Z</time></trkpt><trkpt lat="42.09562568266958" lon="13.695721905249034"><ele>996.0</ele><time>2026-04-27T09:58:35.999Z</time></trkpt><trkpt lat="42.0955289900769" lon="13.695698473876265"><ele>996.0</ele><time>2026-04-27T09:58:36.999Z</time></trkpt><trkpt lat="42.09542361771236" lon="13.695701645388008"><ele>997.1666666666666</ele><time>2026-04-27T09:58:38Z</time></trkpt><trkpt lat="42.09532507492533" lon="13.695719602977487"><ele>998.3333333333333</ele><time>2026-04-27T09:58:39Z</time></trkpt><trkpt lat="42.09522737512461" lon="13.695758561102329"><ele>999.5</ele><time>2026-04-27T09:58:40Z</time></trkpt><trkpt lat="42.09514438347227" lon="13.695814332572992"><ele>1000.6666666666666</ele><time>2026-04-27T09:58:41Z</time></trkpt><trkpt lat="42.09506994455686" lon="13.69586568458167"><ele>1001.8333333333333</ele><time>2026-04-27T09:58:42Z</time></trkpt><trkpt lat="42.09500758554644" lon="13.695906939112211"><ele>1003.0</ele><time>2026-04-27T09:58:43Z</time></trkpt><trkpt lat="42.09492506384967" lon="13.69594848369304"><ele>1003.8</ele><time>2026-04-27T09:58:44Z</time></trkpt><trkpt lat="42.094826334588966" lon="13.695981746644437"><ele>1004.5999999999999</ele><time>2026-04-27T09:58:45Z</time></trkpt><trkpt lat="42.09472654524866" lon="13.696016326838281"><ele>1005.4000000000001</ele><time>2026-04-27T09:58:46Z</time></trkpt><trkpt lat="42.09461910187659" lon="13.696065784711775"><ele>1006.2</ele><time>2026-04-27T09:58:47Z</time></trkpt><trkpt lat="42.09450581332856" lon="13.69614258152999"><ele>1007.0</ele><time>2026-04-27T09:58:48Z</time></trkpt><trkpt lat="42.09440192215388" lon="13.69622090988372"><ele>1007.25</ele><time>2026-04-27T09:58:49Z</time></trkpt><trkpt lat="42.09430676915559" lon="13.696262327500738"><ele>1007.5</ele><time>2026-04-27T09:58:50Z</time></trkpt><trkpt lat="42.09419870544442" lon="13.696287344305334"><ele>1007.75</ele><time>2026-04-27T09:58:51Z</time></trkpt><trkpt lat="42.09408233766052" lon="13.696332267534471"><ele>1008.0</ele><time>2026-04-27T09:58:52Z</time></trkpt><trkpt lat="42.09396329983097" lon="13.696363950818206"><ele>1008.0</ele><time>2026-04-27T09:58:53Z</time></trkpt><trkpt lat="42.0938449594479" lon="13.696404607266702"><ele>1008.0</ele><time>2026-04-27T09:58:54Z</time></trkpt><trkpt lat="42.09374151954075" lon="13.696499909412822"><ele>1008.0</ele><time>2026-04-27T09:58:55Z</time></trkpt><trkpt lat="42.09363681312203" lon="13.696578145601936"><ele>1008.0</ele><time>2026-04-27T09:58:56Z</time></trkpt><trkpt lat="42.09355671461532" lon="13.69670637985029"><ele>1008.0</ele><time>2026-04-27T09:58:57Z</time></trkpt><trkpt lat="42.09348592896111" lon="13.696831704131213"><ele>1008.0</ele><time>2026-04-27T09:58:58Z</time></trkpt><trkpt lat="42.09340816086471" lon="13.696945504638077"><ele>1008.0</ele><time>2026-04-27T09:58:59Z</time></trkpt><trkpt lat="42.09334419963948" lon="13.6970567896427"><ele>1008.0</ele><time>2026-04-27T09:59:00Z</time></trkpt><trkpt lat="42.09327672609474" lon="13.69718143733501"><ele>1006.75</ele><time>2026-04-27T09:59:01Z</time></trkpt><trkpt lat="42.093227378215936" lon="13.69732244405386"><ele>1005.5</ele><time>2026-04-27T09:59:02Z</time></trkpt><trkpt lat="42.09317318241288" lon="13.697439274073387"><ele>1004.25</ele><time>2026-04-27T09:59:03Z</time></trkpt><trkpt lat="42.093099411600356" lon="13.697563185350633"><ele>1003.0</ele><time>2026-04-27T09:59:04Z</time></trkpt><trkpt lat="42.093028094112405" lon="13.697693771860152"><ele>1002.9999999999999</ele><time>2026-04-27T09:59:05Z</time></trkpt><trkpt lat="42.092950647563136" lon="13.697771721702019"><ele>1003.0</ele><time>2026-04-27T09:59:06Z</time></trkpt><trkpt lat="42.092865591422715" lon="13.697812106979358"><ele>1003.0</ele><time>2026-04-27T09:59:07Z</time></trkpt><trkpt lat="42.09278505640301" lon="13.697809482923315"><ele>1003.0</ele><time>2026-04-27T09:59:08Z</time></trkpt><trkpt lat="42.09272276314915" lon="13.697749590153908"><ele>1002.9999999999999</ele><time>2026-04-27T09:59:09Z</time></trkpt><trkpt lat="42.09262924890809" lon="13.697686517699605"><ele>1003.0</ele><time>2026-04-27T09:59:10Z</time></trkpt><trkpt lat="42.092497040720865" lon="13.697681432647778"><ele>1002.0</ele><time>2026-04-27T09:59:11Z</time></trkpt><trkpt lat="42.09237645778993" lon="13.697705162951623"><ele>1001.0</ele><time>2026-04-27T09:59:12Z</time></trkpt><trkpt lat="42.09224539816474" lon="13.697763712798505"><ele>1000.0</ele><time>2026-04-27T09:59:13Z</time></trkpt><trkpt lat="42.0921250023608" lon="13.697787189074726"><ele>999.0</ele><time>2026-04-27T09:59:14Z</time></trkpt><trkpt lat="42.09202517412649" lon="13.69781783232836"><ele>998.0</ele><time>2026-04-27T09:59:15Z</time></trkpt><trkpt lat="42.09192167651029" lon="13.697788273947628"><ele>997.0</ele><time>2026-04-27T09:59:16Z</time></trkpt><trkpt lat="42.09179692498767" lon="13.697787047584576"><ele>996.0</ele><time>2026-04-27T09:59:17Z</time></trkpt><trkpt lat="42.09167389150491" lon="13.697817169495595"><ele>995.0</ele><time>2026-04-27T09:59:18Z</time></trkpt><trkpt lat="42.09156457616733" lon="13.697915330344236"><ele>994.25</ele><time>2026-04-27T09:59:19Z</time></trkpt><trkpt lat="42.091452149956446" lon="13.697988317115577"><ele>993.5</ele><time>2026-04-27T09:59:20Z</time></trkpt><trkpt lat="42.09133848612269" lon="13.698062628456519"><ele>992.75</ele><time>2026-04-27T09:59:21Z</time></trkpt><trkpt lat="42.091224898355094" lon="13.69813521649102"><ele>992.0</ele><time>2026-04-27T09:59:22Z</time></trkpt><trkpt lat="42.09110768019836" lon="13.698205693260345"><ele>992.0</ele><time>2026-04-27T09:59:23Z</time></trkpt><trkpt lat="42.09098864165649" lon="13.698261657969596"><ele>992.0</ele><time>2026-04-27T09:59:24Z</time></trkpt><trkpt lat="42.09090601712366" lon="13.698337722102025"><ele>992.0</ele><time>2026-04-27T09:59:25Z</time></trkpt><trkpt lat="42.090841661007076" lon="13.698397078911125"><ele>992.0</ele><time>2026-04-27T09:59:26Z</time></trkpt><trkpt lat="42.09081116363915" lon="13.698505779633747"><ele>992.0</ele><time>2026-04-27T09:59:27Z</time></trkpt><trkpt lat="42.09083285508808" lon="13.698655852738195"><ele>992.6</ele><time>2026-04-27T09:59:28Z</time></trkpt><trkpt lat="42.09082590071871" lon="13.69880906721252"><ele>993.2</ele><time>2026-04-27T09:59:29Z</time></trkpt><trkpt lat="42.09077097977937" lon="13.698930855302343"><ele>993.8</ele><time>2026-04-27T09:59:30Z</time></trkpt><trkpt lat="42.09068883740896" lon="13.698992685830838"><ele>994.4</ele><time>2026-04-27T09:59:31Z</time></trkpt><trkpt lat="42.090635276648186" lon="13.699051007492994"><ele>995.0</ele><time>2026-04-27T09:59:32.999Z</time></trkpt><trkpt lat="42.0905684276725" lon="13.699132919604306"><ele>995.4</ele><time>2026-04-27T09:59:35.999Z</time></trkpt><trkpt lat="42.09050100148239" lon="13.699165372518483"><ele>995.8</ele><time>2026-04-27T09:59:36.999Z</time></trkpt><trkpt lat="42.09041915161301" lon="13.699223373843903"><ele>996.2</ele><time>2026-04-27T09:59:37.999Z</time></trkpt><trkpt lat="42.09031439621609" lon="13.699295476228352"><ele>996.6</ele><time>2026-04-27T09:59:38.999Z</time></trkpt><trkpt lat="42.09020832714894" lon="13.699388545635726"><ele>997.0</ele><time>2026-04-27T09:59:39.999Z</time></trkpt><trkpt lat="42.09009840132334" lon="13.699470166588938"><ele>997.6</ele><time>2026-04-27T09:59:40.999Z</time></trkpt><trkpt lat="42.089990030900815" lon="13.699548681278825"><ele>998.2</ele><time>2026-04-27T09:59:41.999Z</time></trkpt><trkpt lat="42.08987751518533" lon="13.699619335213983"><ele>998.8</ele><time>2026-04-27T09:59:42.999Z</time></trkpt><trkpt lat="42.08977868284094" lon="13.699632008129328"><ele>999.4</ele><time>2026-04-27T09:59:43.999Z</time></trkpt><trkpt lat="42.08970783155765" lon="13.699600022562542"><ele>1000.0</ele><time>2026-04-27T09:59:44.999Z</time></trkpt><trkpt lat="42.089661524449255" lon="13.699541616100134"><ele>1000.0</ele><time>2026-04-27T09:59:45.999Z</time></trkpt><trkpt lat="42.089653693410334" lon="13.699405692846915"><ele>1000.0</ele><time>2026-04-27T09:59:46.999Z</time></trkpt><trkpt lat="42.08960494261197" lon="13.699258354906746"><ele>1000.0</ele><time>2026-04-27T09:59:47.999Z</time></trkpt><trkpt lat="42.089559806120754" lon="13.69906218065409"><ele>1000.0</ele><time>2026-04-27T09:59:48.999Z</time></trkpt><trkpt lat="42.089539660269" lon="13.69886868897316"><ele>1000.0</ele><time>2026-04-27T09:59:49.999Z</time></trkpt><trkpt lat="42.089517930724675" lon="13.698694525056641"><ele>1000.0</ele><time>2026-04-27T09:59:50.999Z</time></trkpt><trkpt lat="42.08952897283662" lon="13.698547623921902"><ele>1000.0</ele><time>2026-04-27T09:59:51.999Z</time></trkpt><trkpt lat="42.089533314498354" lon="13.698395427638678"><ele>1000.0</ele><time>2026-04-27T09:59:52.999Z</time></trkpt><trkpt lat="42.08951621164451" lon="13.69827229619677"><ele>1000.0</ele><time>2026-04-27T09:59:53.999Z</time></trkpt><trkpt lat="42.08946645275949" lon="13.698164199568797"><ele>999.0</ele><time>2026-04-27T09:59:54.999Z</time></trkpt><trkpt lat="42.0893996046052" lon="13.698069551662996"><ele>998.0</ele><time>2026-04-27T09:59:55.999Z</time></trkpt><trkpt lat="42.08934297467721" lon="13.697999996362526"><ele>997.0</ele><time>2026-04-27T09:59:56.999Z</time></trkpt><trkpt lat="42.089281566155066" lon="13.697963636833004"><ele>996.0</ele><time>2026-04-27T09:59:57.999Z</time></trkpt><trkpt lat="42.089189021302786" lon="13.698024311569432"><ele>995.0</ele><time>2026-04-27T09:59:58.999Z</time></trkpt><trkpt lat="42.08909208322543" lon="13.69808426578682"><ele>995.0</ele><time>2026-04-27T09:59:59.999Z</time></trkpt><trkpt lat="42.08897678995224" lon="13.698151263395182"><ele>995.0</ele><time>2026-04-27T10:00:00.999Z</time></trkpt><trkpt lat="42.08888567888137" lon="13.698290040492664"><ele>995.0</ele><time>2026-04-27T10:00:01.999Z</time></trkpt><trkpt lat="42.08878619971885" lon="13.69835892228441"><ele>995.0</ele><time>2026-04-27T10:00:02.999Z</time></trkpt><trkpt lat="42.088683436346145" lon="13.69841618776462"><ele>995.0</ele><time>2026-04-27T10:00:03.999Z</time></trkpt><trkpt lat="42.08855808771142" lon="13.698490982241184"><ele>995.0</ele><time>2026-04-27T10:00:04.999Z</time></trkpt><trkpt lat="42.088438637824886" lon="13.69859635779105"><ele>995.0</ele><time>2026-04-27T10:00:05.999Z</time></trkpt><trkpt lat="42.08830183386183" lon="13.69864443272479"><ele>995.0</ele><time>2026-04-27T10:00:06.999Z</time></trkpt><trkpt lat="42.08819307319518" lon="13.698738961238666"><ele>994.0</ele><time>2026-04-27T10:00:07.999Z</time></trkpt><trkpt lat="42.088106570850314" lon="13.698855543209698"><ele>993.0</ele><time>2026-04-27T10:00:08.999Z</time></trkpt><trkpt lat="42.088015589466146" lon="13.698993880025537"><ele>992.0</ele><time>2026-04-27T10:00:09.999Z</time></trkpt><trkpt lat="42.08793426041348" lon="13.699140709441535"><ele>991.0</ele><time>2026-04-27T10:00:10.999Z</time></trkpt><trkpt lat="42.08787341701807" lon="13.69928252250244"><ele>989.0</ele><time>2026-04-27T10:00:11.999Z</time></trkpt><trkpt lat="42.08784683797135" lon="13.699422707838155"><ele>986.9999999999999</ele><time>2026-04-27T10:00:12.999Z</time></trkpt><trkpt lat="42.08785382843536" lon="13.699560387975003"><ele>984.9999999999999</ele><time>2026-04-27T10:00:13.999Z</time></trkpt><trkpt lat="42.08788157150451" lon="13.699695885835718"><ele>983.0</ele><time>2026-04-27T10:00:14.999Z</time></trkpt><trkpt lat="42.08786780480235" lon="13.699850974391394"><ele>981.0</ele><time>2026-04-27T10:00:15.999Z</time></trkpt><trkpt lat="42.087823487444375" lon="13.699999034078127"><ele>981.0</ele><time>2026-04-27T10:00:16.999Z</time></trkpt><trkpt lat="42.0877439709674" lon="13.70008653181176"><ele>981.0</ele><time>2026-04-27T10:00:17.999Z</time></trkpt><trkpt lat="42.08765731273895" lon="13.70012089559536"><ele>981.0</ele><time>2026-04-27T10:00:18.999Z</time></trkpt><trkpt lat="42.08753208474377" lon="13.700151102413193"><ele>981.0</ele><time>2026-04-27T10:00:19.999Z</time></trkpt><trkpt lat="42.08739307039093" lon="13.7001877193752"><ele>980.25</ele><time>2026-04-27T10:00:20.999Z</time></trkpt><trkpt lat="42.087283439427594" lon="13.700266011717666"><ele>979.5</ele><time>2026-04-27T10:00:21.999Z</time></trkpt><trkpt lat="42.08716496850755" lon="13.700374804327376"><ele>978.75</ele><time>2026-04-27T10:00:22.999Z</time></trkpt><trkpt lat="42.08702057840311" lon="13.700479122668128"><ele>978.0</ele><time>2026-04-27T10:00:23.999Z</time></trkpt><trkpt lat="42.08688840224504" lon="13.700574645353063"><ele>978.0</ele><time>2026-04-27T10:00:24.999Z</time></trkpt><trkpt lat="42.08677173935018" lon="13.700658226250756"><ele>978.0</ele><time>2026-04-27T10:00:25.999Z</time></trkpt><trkpt lat="42.08666654173456" lon="13.70076341496907"><ele>978.0</ele><time>2026-04-27T10:00:26.999Z</time></trkpt><trkpt lat="42.086574896578114" lon="13.700882833368105"><ele>978.0</ele><time>2026-04-27T10:00:27.999Z</time></trkpt><trkpt lat="42.08648855570661" lon="13.701015227274564"><ele>977.0</ele><time>2026-04-27T10:00:28.999Z</time></trkpt><trkpt lat="42.086420834972266" lon="13.701144441939455"><ele>976.0</ele><time>2026-04-27T10:00:29.999Z</time></trkpt><trkpt lat="42.08636162318279" lon="13.701263015119615"><ele>975.0</ele><time>2026-04-27T10:00:30.999Z</time></trkpt><trkpt lat="42.08631213588382" lon="13.70139049599232"><ele>974.0</ele><time>2026-04-27T10:00:31.999Z</time></trkpt><trkpt lat="42.08625569550545" lon="13.701535308024125"><ele>974.0</ele><time>2026-04-27T10:00:32.999Z</time></trkpt><trkpt lat="42.086185371627096" lon="13.701691917891415"><ele>974.0</ele><time>2026-04-27T10:00:33.999Z</time></trkpt><trkpt lat="42.08610770398462" lon="13.701854106140699"><ele>974.0</ele><time>2026-04-27T10:00:34.999Z</time></trkpt><trkpt lat="42.08603210096708" lon="13.702016463702336"><ele>974.0</ele><time>2026-04-27T10:00:35.999Z</time></trkpt><trkpt lat="42.085959575466624" lon="13.702189064331165"><ele>973.25</ele><time>2026-04-27T10:00:36.999Z</time></trkpt><trkpt lat="42.08588484291388" lon="13.702363355686185"><ele>972.5</ele><time>2026-04-27T10:00:37.999Z</time></trkpt><trkpt lat="42.08582027955084" lon="13.70253893137528"><ele>971.75</ele><time>2026-04-27T10:00:38.998Z</time></trkpt><trkpt lat="42.08575414719149" lon="13.702710200327624"><ele>971.0</ele><time>2026-04-27T10:00:39.998Z</time></trkpt><trkpt lat="42.08567203400583" lon="13.702864096470146"><ele>969.5</ele><time>2026-04-27T10:00:40.998Z</time></trkpt><trkpt lat="42.08558088634059" lon="13.703004246924168"><ele>968.0</ele><time>2026-04-27T10:00:41.998Z</time></trkpt><trkpt lat="42.08548940505037" lon="13.703133783053213"><ele>966.5</ele><time>2026-04-27T10:00:42.998Z</time></trkpt><trkpt lat="42.085388843545076" lon="13.703270710333072"><ele>965.0</ele><time>2026-04-27T10:00:44Z</time></trkpt><trkpt lat="42.085282714749496" lon="13.703402262194869"><ele>965.0</ele><time>2026-04-27T10:00:45Z</time></trkpt><trkpt lat="42.08516897287238" lon="13.703520357444557"><ele>965.0</ele><time>2026-04-27T10:00:46Z</time></trkpt><trkpt lat="42.08504985714653" lon="13.703620220787439"><ele>965.0</ele><time>2026-04-27T10:00:47Z</time></trkpt><trkpt lat="42.084921743938374" lon="13.7037198270403"><ele>965.0</ele><time>2026-04-27T10:00:48Z</time></trkpt><trkpt lat="42.08479603601268" lon="13.703829121738503"><ele>965.25</ele><time>2026-04-27T10:00:49Z</time></trkpt><trkpt lat="42.08467879752236" lon="13.703941325429778"><ele>965.5</ele><time>2026-04-27T10:00:50Z</time></trkpt><trkpt lat="42.08456410929692" lon="13.704059113491159"><ele>965.75</ele><time>2026-04-27T10:00:51Z</time></trkpt><trkpt lat="42.08445195544099" lon="13.704181002483057"><ele>966.0</ele><time>2026-04-27T10:00:52Z</time></trkpt><trkpt lat="42.08433882621899" lon="13.704305285663466"><ele>966.5</ele><time>2026-04-27T10:00:53Z</time></trkpt><trkpt lat="42.08422889592299" lon="13.704426054654688"><ele>967.0</ele><time>2026-04-27T10:00:54Z</time></trkpt><trkpt lat="42.0841166522861" lon="13.704550732811681"><ele>967.5</ele><time>2026-04-27T10:00:55Z</time></trkpt><trkpt lat="42.084009320990845" lon="13.704682102184515"><ele>968.0</ele><time>2026-04-27T10:00:56Z</time></trkpt><trkpt lat="42.08391158687944" lon="13.704819988922797"><ele>968.0</ele><time>2026-04-27T10:00:57Z</time></trkpt><trkpt lat="42.083802176708" lon="13.704938432471346"><ele>968.0</ele><time>2026-04-27T10:00:58Z</time></trkpt><trkpt lat="42.083684253906746" lon="13.70503658438809"><ele>968.0</ele><time>2026-04-27T10:00:59Z</time></trkpt><trkpt lat="42.083570195135316" lon="13.705127526322487"><ele>968.0</ele><time>2026-04-27T10:01:00Z</time></trkpt><trkpt lat="42.08347108039296" lon="13.705216123608217"><ele>967.0</ele><time>2026-04-27T10:01:01Z</time></trkpt><trkpt lat="42.08337278438708" lon="13.705315846819454"><ele>966.0</ele><time>2026-04-27T10:01:02Z</time></trkpt><trkpt lat="42.08328067446849" lon="13.705421649801215"><ele>965.0</ele><time>2026-04-27T10:01:03Z</time></trkpt><trkpt lat="42.08319947695539" lon="13.705550499056628"><ele>964.0</ele><time>2026-04-27T10:01:04Z</time></trkpt><trkpt lat="42.083129330456046" lon="13.705701195520158"><ele>965.25</ele><time>2026-04-27T10:01:05Z</time></trkpt><trkpt lat="42.083097292900995" lon="13.705859727454348"><ele>966.5</ele><time>2026-04-27T10:01:06Z</time></trkpt><trkpt lat="42.082991741913666" lon="13.705962077146578"><ele>967.75</ele><time>2026-04-27T10:01:07Z</time></trkpt><trkpt lat="42.08290891701916" lon="13.70609092887952"><ele>969.0</ele><time>2026-04-27T10:01:08Z</time></trkpt><trkpt lat="42.08285101261021" lon="13.706189195302434"><ele>969.0</ele><time>2026-04-27T10:01:09Z</time></trkpt><trkpt lat="42.082798999897875" lon="13.706294955548964"><ele>969.0000000000001</ele><time>2026-04-27T10:01:10Z</time></trkpt><trkpt lat="42.08274435166624" lon="13.70635655993992"><ele>969.0000000000001</ele><time>2026-04-27T10:01:11Z</time></trkpt><trkpt lat="42.082679515532696" lon="13.706450105069733"><ele>969.0</ele><time>2026-04-27T10:01:12Z</time></trkpt><trkpt lat="42.08260577861372" lon="13.706565470017717"><ele>969.0</ele><time>2026-04-27T10:01:13Z</time></trkpt><trkpt lat="42.082527861474794" lon="13.706700402883104"><ele>969.0</ele><time>2026-04-27T10:01:14Z</time></trkpt><trkpt lat="42.08244700847853" lon="13.706844644831104"><ele>969.0</ele><time>2026-04-27T10:01:15Z</time></trkpt><trkpt lat="42.08236576140368" lon="13.706989589488066"><ele>969.0</ele><time>2026-04-27T10:01:16Z</time></trkpt><trkpt lat="42.08227868704276" lon="13.707135858337232"><ele>969.0</ele><time>2026-04-27T10:01:17Z</time></trkpt><trkpt lat="42.08218755493608" lon="13.707283865270096"><ele>964.3333333333333</ele><time>2026-04-27T10:01:18Z</time></trkpt><trkpt lat="42.08208917500017" lon="13.707438292545817"><ele>959.6666666666666</ele><time>2026-04-27T10:01:19Z</time></trkpt><trkpt lat="42.08198778487229" lon="13.707592659912933"><ele>955.0</ele><time>2026-04-27T10:01:20Z</time></trkpt><trkpt lat="42.0818809024414" lon="13.707745783189441"><ele>955.0</ele><time>2026-04-27T10:01:21Z</time></trkpt><trkpt lat="42.081771751585144" lon="13.707899363846403"><ele>955.0</ele><time>2026-04-27T10:01:22Z</time></trkpt><trkpt lat="42.081666685821155" lon="13.708047197255661"><ele>955.0</ele><time>2026-04-27T10:01:23Z</time></trkpt><trkpt lat="42.08155529939193" lon="13.708192452378203"><ele>966.6666666666666</ele><time>2026-04-27T10:01:24Z</time></trkpt><trkpt lat="42.08143099597714" lon="13.708320582180429"><ele>978.3333333333333</ele><time>2026-04-27T10:01:25Z</time></trkpt><trkpt lat="42.081294440923024" lon="13.708424212792597"><ele>990.0</ele><time>2026-04-27T10:01:26Z</time></trkpt><trkpt lat="42.08114437330132" lon="13.708519318391685"><ele>985.6666666666667</ele><time>2026-04-27T10:01:27Z</time></trkpt><trkpt lat="42.08099788581355" lon="13.708625368428844"><ele>981.3333333333334</ele><time>2026-04-27T10:01:28Z</time></trkpt><trkpt lat="42.08084424235429" lon="13.708721525623746"><ele>977.0</ele><time>2026-04-27T10:01:29Z</time></trkpt><trkpt lat="42.08068159099645" lon="13.708797656768954"><ele>977.0</ele><time>2026-04-27T10:01:30Z</time></trkpt><trkpt lat="42.08052164225656" lon="13.70889224713543"><ele>977.0</ele><time>2026-04-27T10:01:31Z</time></trkpt><trkpt lat="42.08036153652816" lon="13.708986930434975"><ele>977.0</ele><time>2026-04-27T10:01:32Z</time></trkpt><trkpt lat="42.08019760062807" lon="13.709083801732255"><ele>977.0</ele><time>2026-04-27T10:01:33Z</time></trkpt><trkpt lat="42.08003340217978" lon="13.709180630418278"><ele>977.0</ele><time>2026-04-27T10:01:34Z</time></trkpt><trkpt lat="42.07987773466441" lon="13.709295180010724"><ele>977.0</ele><time>2026-04-27T10:01:34.999Z</time></trkpt><trkpt lat="42.07972456245681" lon="13.709384551894246"><ele>973.25</ele><time>2026-04-27T10:01:35.999Z</time></trkpt><trkpt lat="42.07958145660181" lon="13.709469858255796"><ele>969.5</ele><time>2026-04-27T10:01:36.999Z</time></trkpt><trkpt lat="42.07944118233784" lon="13.709511201603057"><ele>965.75</ele><time>2026-04-27T10:01:37.999Z</time></trkpt><trkpt lat="42.07932571078673" lon="13.709517216129452"><ele>962.0</ele><time>2026-04-27T10:01:38.999Z</time></trkpt><trkpt lat="42.07920798935235" lon="13.70948965835317"><ele>961.0</ele><time>2026-04-27T10:01:39.999Z</time></trkpt><trkpt lat="42.07909164571601" lon="13.709419145242254"><ele>960.0</ele><time>2026-04-27T10:01:40.999Z</time></trkpt><trkpt lat="42.07899749546392" lon="13.709301855675822"><ele>959.0</ele><time>2026-04-27T10:01:41.999Z</time></trkpt><trkpt lat="42.078921933033605" lon="13.709165557630998"><ele>958.0</ele><time>2026-04-27T10:01:42.999Z</time></trkpt><trkpt lat="42.078849630313215" lon="13.708999073058168"><ele>958.0</ele><time>2026-04-27T10:01:43.999Z</time></trkpt><trkpt lat="42.07878256365642" lon="13.708822838796701"><ele>958.0</ele><time>2026-04-27T10:01:44.999Z</time></trkpt><trkpt lat="42.078721105385405" lon="13.708630838911374"><ele>958.0</ele><time>2026-04-27T10:01:45.999Z</time></trkpt><trkpt lat="42.0786633876429" lon="13.7084308439354"><ele>963.6666666666666</ele><time>2026-04-27T10:01:46.999Z</time></trkpt><trkpt lat="42.078616734266376" lon="13.70822586072735"><ele>969.3333333333333</ele><time>2026-04-27T10:01:47.999Z</time></trkpt><trkpt lat="42.07858242389251" lon="13.708016615240608"><ele>975.0</ele><time>2026-04-27T10:01:48.999Z</time></trkpt><trkpt lat="42.07854957201913" lon="13.707810100800435"><ele>978.5</ele><time>2026-04-27T10:01:49.999Z</time></trkpt><trkpt lat="42.07851414640367" lon="13.707605102571334"><ele>982.0</ele><time>2026-04-27T10:01:50.999Z</time></trkpt><trkpt lat="42.078479440424616" lon="13.707402019203656"><ele>985.5</ele><time>2026-04-27T10:01:51.999Z</time></trkpt><trkpt lat="42.07845249582297" lon="13.707228111146781"><ele>989.0</ele><time>2026-04-27T10:01:52.999Z</time></trkpt><trkpt lat="42.078425849950726" lon="13.70708261597026"><ele>989.0</ele><time>2026-04-27T10:01:53.999Z</time></trkpt><trkpt lat="42.078389510590924" lon="13.70694186643143"><ele>989.0000000000001</ele><time>2026-04-27T10:01:54.999Z</time></trkpt><trkpt lat="42.078325949048974" lon="13.70683808128767"><ele>989.0000000000001</ele><time>2026-04-27T10:01:55.999Z</time></trkpt><trkpt lat="42.07824327758289" lon="13.706757934960462"><ele>989.0</ele><time>2026-04-27T10:01:56.999Z</time></trkpt><trkpt lat="42.07813171611345" lon="13.706741694066311"><ele>989.0</ele><time>2026-04-27T10:01:57.999Z</time></trkpt><trkpt lat="42.07803732380221" lon="13.706867966601862"><ele>992.0</ele><time>2026-04-27T10:01:58.999Z</time></trkpt><trkpt lat="42.07796085446346" lon="13.707003153463608"><ele>995.0</ele><time>2026-04-27T10:01:59.999Z</time></trkpt><trkpt lat="42.07786821305422" lon="13.707129072383822"><ele>998.0</ele><time>2026-04-27T10:02:00.999Z</time></trkpt><trkpt lat="42.07778088313904" lon="13.707275762263606"><ele>1001.0</ele><time>2026-04-27T10:02:01.999Z</time></trkpt><trkpt lat="42.07768789533136" lon="13.707431955796402"><ele>1001.0</ele><time>2026-04-27T10:02:02.999Z</time></trkpt><trkpt lat="42.077591543100034" lon="13.70759072778841"><ele>1001.0</ele><time>2026-04-27T10:02:03.999Z</time></trkpt><trkpt lat="42.0774978888664" lon="13.707742356300248"><ele>1001.0</ele><time>2026-04-27T10:02:04.999Z</time></trkpt><trkpt lat="42.07741301042032" lon="13.707867058042083"><ele>1001.0</ele><time>2026-04-27T10:02:05.999Z</time></trkpt><trkpt lat="42.07733523176902" lon="13.707974073747454"><ele>995.75</ele><time>2026-04-27T10:02:06.999Z</time></trkpt><trkpt lat="42.07721511462783" lon="13.707991777531756"><ele>990.5</ele><time>2026-04-27T10:02:07.999Z</time></trkpt><trkpt lat="42.0770933104404" lon="13.707977117775034"><ele>985.25</ele><time>2026-04-27T10:02:08.999Z</time></trkpt><trkpt lat="42.07696105132718" lon="13.707938579728175"><ele>980.0</ele><time>2026-04-27T10:02:09.999Z</time></trkpt><trkpt lat="42.076817706085485" lon="13.707893369962173"><ele>980.0</ele><time>2026-04-27T10:02:10.999Z</time></trkpt><trkpt lat="42.076664816212556" lon="13.707845839825671"><ele>980.0</ele><time>2026-04-27T10:02:11.999Z</time></trkpt><trkpt lat="42.07650585905664" lon="13.707796686627113"><ele>980.0</ele><time>2026-04-27T10:02:12.999Z</time></trkpt><trkpt lat="42.07634416108153" lon="13.707744514135308"><ele>989.6666666666667</ele><time>2026-04-27T10:02:13.999Z</time></trkpt><trkpt lat="42.07618089758352" lon="13.707690823527917"><ele>999.3333333333333</ele><time>2026-04-27T10:02:14.999Z</time></trkpt><trkpt lat="42.07602023565119" lon="13.707637660466167"><ele>1009.0</ele><time>2026-04-27T10:02:15.999Z</time></trkpt><trkpt lat="42.07586072719113" lon="13.7075880422296"><ele>1004.6666666666666</ele><time>2026-04-27T10:02:16.999Z</time></trkpt><trkpt lat="42.0756995722334" lon="13.707558689777885"><ele>1000.3333333333333</ele><time>2026-04-27T10:02:17.999Z</time></trkpt><trkpt lat="42.07555041399649" lon="13.707480671243447"><ele>996.0</ele><time>2026-04-27T10:02:18.999Z</time></trkpt><trkpt lat="42.07540796358747" lon="13.707371346051092"><ele>996.0</ele><time>2026-04-27T10:02:19.999Z</time></trkpt><trkpt lat="42.07526865544125" lon="13.707251414155623"><ele>996.0</ele><time>2026-04-27T10:02:20.999Z</time></trkpt><trkpt lat="42.07513084495142" lon="13.707129008115915"><ele>996.0</ele><time>2026-04-27T10:02:21.999Z</time></trkpt><trkpt lat="42.074983566752074" lon="13.707003511272976"><ele>998.3333333333333</ele><time>2026-04-27T10:02:22.999Z</time></trkpt><trkpt lat="42.07483561129495" lon="13.706864971906013"><ele>1000.6666666666666</ele><time>2026-04-27T10:02:23.999Z</time></trkpt><trkpt lat="42.074692537924214" lon="13.706711439225254"><ele>1003.0</ele><time>2026-04-27T10:02:24.999Z</time></trkpt><trkpt lat="42.07455644030253" lon="13.706540870254733"><ele>1003.0</ele><time>2026-04-27T10:02:25.999Z</time></trkpt><trkpt lat="42.07442405361915" lon="13.706358699485252"><ele>1003.0</ele><time>2026-04-27T10:02:26.999Z</time></trkpt><trkpt lat="42.07429006458602" lon="13.706174737064007"><ele>1003.0</ele><time>2026-04-27T10:02:27.999Z</time></trkpt><trkpt lat="42.07415443179911" lon="13.705986958049522"><ele>1006.6666666666666</ele><time>2026-04-27T10:02:28.999Z</time></trkpt><trkpt lat="42.074017992574646" lon="13.705795346680278"><ele>1010.3333333333333</ele><time>2026-04-27T10:02:29.999Z</time></trkpt><trkpt lat="42.073886108672376" lon="13.705608237865745"><ele>1014.0</ele><time>2026-04-27T10:02:30.999Z</time></trkpt><trkpt lat="42.07377071031871" lon="13.705445235639571"><ele>1014.0</ele><time>2026-04-27T10:02:31.999Z</time></trkpt><trkpt lat="42.07366590656675" lon="13.705314153901165"><ele>1014.0</ele><time>2026-04-27T10:02:32.999Z</time></trkpt><trkpt lat="42.07356136941832" lon="13.70520653115122"><ele>1014.0</ele><time>2026-04-27T10:02:33.999Z</time></trkpt><trkpt lat="42.07341586112557" lon="13.705193522765567"><ele>1014.0</ele><time>2026-04-27T10:02:34.999Z</time></trkpt><trkpt lat="42.07326248625806" lon="13.705206230100407"><ele>1014.0</ele><time>2026-04-27T10:02:35.999Z</time></trkpt><trkpt lat="42.0731009590629" lon="13.705237071620651"><ele>1014.0</ele><time>2026-04-27T10:02:36.999Z</time></trkpt><trkpt lat="42.07293361355488" lon="13.705259512616388"><ele>1014.0</ele><time>2026-04-27T10:02:37.999Z</time></trkpt><trkpt lat="42.07275904592803" lon="13.705276078244255"><ele>1014.0</ele><time>2026-04-27T10:02:38.999Z</time></trkpt><trkpt lat="42.07257986135238" lon="13.705286461145741"><ele>1014.0</ele><time>2026-04-27T10:02:39.999Z</time></trkpt><trkpt lat="42.07239543713731" lon="13.705296738055466"><ele>1014.0</ele><time>2026-04-27T10:02:40.998Z</time></trkpt><trkpt lat="42.07220771077776" lon="13.705311436264656"><ele>1017.6666666666667</ele><time>2026-04-27T10:02:41.998Z</time></trkpt><trkpt lat="42.072020382273706" lon="13.705332918828269"><ele>1021.3333333333334</ele><time>2026-04-27T10:02:42.998Z</time></trkpt><trkpt lat="42.07182924851879" lon="13.70535250065029"><ele>1025.0</ele><time>2026-04-27T10:02:43.998Z</time></trkpt><trkpt lat="42.07164873425788" lon="13.705437249562756"><ele>1030.3333333333335</ele><time>2026-04-27T10:02:44.998Z</time></trkpt><trkpt lat="42.07149988934249" lon="13.705583280992645"><ele>1035.6666666666667</ele><time>2026-04-27T10:02:45.998Z</time></trkpt><trkpt lat="42.071395803988686" lon="13.705774678791611"><ele>1041.0</ele><time>2026-04-27T10:02:46.998Z</time></trkpt><trkpt lat="42.0712891674771" lon="13.705945891687863"><ele>1035.0</ele><time>2026-04-27T10:02:47.998Z</time></trkpt><trkpt lat="42.071186389658315" lon="13.70611814870441"><ele>1029.0</ele><time>2026-04-27T10:02:49Z</time></trkpt><trkpt lat="42.07104287272291" lon="13.706235651180519"><ele>1023.0</ele><time>2026-04-27T10:02:50Z</time></trkpt><trkpt lat="42.07087660095437" lon="13.706288729770254"><ele>1024.6666666666667</ele><time>2026-04-27T10:02:51Z</time></trkpt><trkpt lat="42.070708963429915" lon="13.706323734141572"><ele>1026.3333333333335</ele><time>2026-04-27T10:02:52Z</time></trkpt><trkpt lat="42.0705354835202" lon="13.706327370869815"><ele>1028.0</ele><time>2026-04-27T10:02:53Z</time></trkpt><trkpt lat="42.07037880721444" lon="13.70633804490527"><ele>1028.0</ele><time>2026-04-27T10:02:54Z</time></trkpt><trkpt lat="42.0702544150683" lon="13.706296305886779"><ele>1028.0</ele><time>2026-04-27T10:02:55Z</time></trkpt><trkpt lat="42.070167142773784" lon="13.706228575559333"><ele>1028.0</ele><time>2026-04-27T10:02:56Z</time></trkpt><trkpt lat="42.070119245271904" lon="13.706140018592686"><ele>1028.0</ele><time>2026-04-27T10:02:57Z</time></trkpt><trkpt lat="42.07011124532107" lon="13.706035602083547"><ele>1028.0</ele><time>2026-04-27T10:02:59Z</time></trkpt><trkpt lat="42.069961932902416" lon="13.706097608195966"><ele>1030.6</ele><time>2026-04-27T10:03:00Z</time></trkpt><trkpt lat="42.06987899628712" lon="13.706142831482722"><ele>1033.1999999999998</ele><time>2026-04-27T10:03:01Z</time></trkpt><trkpt lat="42.06978327843329" lon="13.706200711577344"><ele>1035.8</ele><time>2026-04-27T10:03:02Z</time></trkpt><trkpt lat="42.0696797906186" lon="13.706272506276049"><ele>1038.3999999999999</ele><time>2026-04-27T10:03:03Z</time></trkpt><trkpt lat="42.069580830245606" lon="13.706358007853188"><ele>1041.0</ele><time>2026-04-27T10:03:04Z</time></trkpt><trkpt lat="42.06947606398647" lon="13.70648382532028"><ele>1041.0</ele><time>2026-04-27T10:03:05Z</time></trkpt><trkpt lat="42.06939303317925" lon="13.706653671777032"><ele>1041.0</ele><time>2026-04-27T10:03:06Z</time></trkpt><trkpt lat="42.06929817167093" lon="13.70681663226606"><ele>1041.0</ele><time>2026-04-27T10:03:07Z</time></trkpt><trkpt lat="42.06918943352246" lon="13.706956231295589"><ele>1037.3333333333333</ele><time>2026-04-27T10:03:08Z</time></trkpt><trkpt lat="42.06907643519734" lon="13.707089215869022"><ele>1033.6666666666665</ele><time>2026-04-27T10:03:09Z</time></trkpt><trkpt lat="42.06895957190316" lon="13.7072200219905"><ele>1030.0</ele><time>2026-04-27T10:03:10Z</time></trkpt><trkpt lat="42.06884081727561" lon="13.707350550141443"><ele>1030.0</ele><time>2026-04-27T10:03:11Z</time></trkpt><trkpt lat="42.06872431728298" lon="13.707473162178301"><ele>1030.0</ele><time>2026-04-27T10:03:12Z</time></trkpt><trkpt lat="42.068610831184046" lon="13.707577433435466"><ele>1030.0</ele><time>2026-04-27T10:03:13Z</time></trkpt><trkpt lat="42.068498114192" lon="13.70766297599837"><ele>1030.0</ele><time>2026-04-27T10:03:14Z</time></trkpt><trkpt lat="42.068386077928835" lon="13.707738352933697"><ele>1030.0</ele><time>2026-04-27T10:03:15Z</time></trkpt><trkpt lat="42.06827761102387" lon="13.707817620110893"><ele>1030.0</ele><time>2026-04-27T10:03:16Z</time></trkpt><trkpt lat="42.068180335335775" lon="13.707913686001369"><ele>1030.0</ele><time>2026-04-27T10:03:17Z</time></trkpt><trkpt lat="42.06810816982074" lon="13.708035181542112"><ele>1030.0</ele><time>2026-04-27T10:03:18Z</time></trkpt><trkpt lat="42.06808266879082" lon="13.708180182680996"><ele>1030.0</ele><time>2026-04-27T10:03:19Z</time></trkpt><trkpt lat="42.06806857980711" lon="13.70830479508064"><ele>1030.0</ele><time>2026-04-27T10:03:20Z</time></trkpt><trkpt lat="42.06804445263853" lon="13.70839472489175"><ele>1030.0</ele><time>2026-04-27T10:03:21Z</time></trkpt><trkpt lat="42.067961630074485" lon="13.708423835863407"><ele>1030.0</ele><time>2026-04-27T10:03:24Z</time></trkpt><trkpt lat="42.067831959984076" lon="13.70838559973476"><ele>1030.0</ele><time>2026-04-27T10:03:26Z</time></trkpt><trkpt lat="42.067746298791434" lon="13.708370191266978"><ele>1030.0</ele><time>2026-04-27T10:03:27Z</time></trkpt><trkpt lat="42.06766270176894" lon="13.708347189943797"><ele>1030.0</ele><time>2026-04-27T10:03:28Z</time></trkpt><trkpt lat="42.06759324034095" lon="13.708315292809477"><ele>1030.0</ele><time>2026-04-27T10:03:29Z</time></trkpt><trkpt lat="42.06751802235865" lon="13.70826825122317"><ele>1030.0</ele><time>2026-04-27T10:03:30Z</time></trkpt><trkpt lat="42.06743091401215" lon="13.708222027182552"><ele>1030.0</ele><time>2026-04-27T10:03:31Z</time></trkpt><trkpt lat="42.06734399683644" lon="13.708177239127393"><ele>1030.0</ele><time>2026-04-27T10:03:32Z</time></trkpt><trkpt lat="42.06726228076967" lon="13.708134594011744"><ele>1032.6</ele><time>2026-04-27T10:03:33Z</time></trkpt><trkpt lat="42.067175330502934" lon="13.708099804157428"><ele>1035.2</ele><time>2026-04-27T10:03:34Z</time></trkpt><trkpt lat="42.06709311053514" lon="13.708063125377171"><ele>1037.8</ele><time>2026-04-27T10:03:35Z</time></trkpt><trkpt lat="42.06699958530714" lon="13.708028318040009"><ele>1040.4</ele><time>2026-04-27T10:03:36Z</time></trkpt><trkpt lat="42.06690940693541" lon="13.707987827509958"><ele>1043.0</ele><time>2026-04-27T10:03:37Z</time></trkpt><trkpt lat="42.066822034201266" lon="13.707947684112858"><ele>1043.0</ele><time>2026-04-27T10:03:38Z</time></trkpt><trkpt lat="42.06674491117131" lon="13.707909501100902"><ele>1043.0</ele><time>2026-04-27T10:03:38.999Z</time></trkpt><trkpt lat="42.06667656473567" lon="13.707862527666741"><ele>1043.0</ele><time>2026-04-27T10:03:39.999Z</time></trkpt><trkpt lat="42.066610314490866" lon="13.707795444545878"><ele>1043.0</ele><time>2026-04-27T10:03:40.999Z</time></trkpt><trkpt lat="42.06653833140106" lon="13.707737921257424"><ele>1043.0</ele><time>2026-04-27T10:03:41.999Z</time></trkpt><trkpt lat="42.066483126023776" lon="13.707691876042961"><ele>1043.0</ele><time>2026-04-27T10:03:42.999Z</time></trkpt><trkpt lat="42.06640288362444" lon="13.70764604572096"><ele>1047.8</ele><time>2026-04-27T10:03:44.999Z</time></trkpt><trkpt lat="42.066312470037595" lon="13.707596268687695"><ele>1052.6</ele><time>2026-04-27T10:03:46.999Z</time></trkpt><trkpt lat="42.06620660580005" lon="13.707531301238795"><ele>1057.4</ele><time>2026-04-27T10:03:48.999Z</time></trkpt><trkpt lat="42.06612927552892" lon="13.7075095077017"><ele>1062.2</ele><time>2026-04-27T10:03:49.999Z</time></trkpt><trkpt lat="42.06606097466401" lon="13.707498833741683"><ele>1067.0</ele><time>2026-04-27T10:03:50.999Z</time></trkpt><trkpt lat="42.06595444559739" lon="13.707495431925956"><ele>1067.0</ele><time>2026-04-27T10:03:52.999Z</time></trkpt><trkpt lat="42.06588850022665" lon="13.707503837679056"><ele>1067.0</ele><time>2026-04-27T10:03:53.999Z</time></trkpt><trkpt lat="42.065819722259334" lon="13.707509740385184"><ele>1067.0</ele><time>2026-04-27T10:03:54.999Z</time></trkpt><trkpt lat="42.06569447213788" lon="13.707528249193128"><ele>1067.0</ele><time>2026-04-27T10:03:56.999Z</time></trkpt><trkpt lat="42.06562944457874" lon="13.707510490010169"><ele>1067.0</ele><time>2026-04-27T10:03:57.999Z</time></trkpt><trkpt lat="42.06556651835592" lon="13.707476238262778"><ele>1067.0</ele><time>2026-04-27T10:03:58.999Z</time></trkpt><trkpt lat="42.065505397205996" lon="13.70741582859212"><ele>1070.8</ele><time>2026-04-27T10:03:59.999Z</time></trkpt><trkpt lat="42.065451928570624" lon="13.707335924548902"><ele>1074.6</ele><time>2026-04-27T10:04:00.999Z</time></trkpt><trkpt lat="42.06542017902186" lon="13.707259533297988"><ele>1078.3999999999999</ele><time>2026-04-27T10:04:01.999Z</time></trkpt><trkpt lat="42.06536514706191" lon="13.707152430001933"><ele>1082.2</ele><time>2026-04-27T10:04:03.999Z</time></trkpt><trkpt lat="42.06532053956326" lon="13.707016808615432"><ele>1086.0</ele><time>2026-04-27T10:04:05.999Z</time></trkpt><trkpt lat="42.065257474294626" lon="13.706889786536145"><ele>1087.3333333333333</ele><time>2026-04-27T10:04:07.999Z</time></trkpt><trkpt lat="42.065212835570584" lon="13.706807336329275"><ele>1088.6666666666667</ele><time>2026-04-27T10:04:08.999Z</time></trkpt><trkpt lat="42.06517037517905" lon="13.706738393777039"><ele>1090.0</ele><time>2026-04-27T10:04:09.999Z</time></trkpt><trkpt lat="42.06511053585073" lon="13.706673265449789"><ele>1091.3333333333335</ele><time>2026-04-27T10:04:10.999Z</time></trkpt><trkpt lat="42.06503628226264" lon="13.706626554618357"><ele>1092.6666666666667</ele><time>2026-04-27T10:04:11.999Z</time></trkpt><trkpt lat="42.06496392181525" lon="13.70658761610246"><ele>1094.0</ele><time>2026-04-27T10:04:12.999Z</time></trkpt><trkpt lat="42.06489777896433" lon="13.706553700768803"><ele>1097.6666666666667</ele><time>2026-04-27T10:04:13.999Z</time></trkpt><trkpt lat="42.06483052474464" lon="13.706515115017584"><ele>1101.3333333333335</ele><time>2026-04-27T10:04:14.999Z</time></trkpt><trkpt lat="42.064759754523514" lon="13.706474402694278"><ele>1105.0</ele><time>2026-04-27T10:04:15.999Z</time></trkpt><trkpt lat="42.06468816459245" lon="13.706423316229179"><ele>1108.6666666666667</ele><time>2026-04-27T10:04:16.999Z</time></trkpt><trkpt lat="42.06461119927952" lon="13.706382608088752"><ele>1112.3333333333333</ele><time>2026-04-27T10:04:17.999Z</time></trkpt><trkpt lat="42.064532189363376" lon="13.706354642177427"><ele>1116.0</ele><time>2026-04-27T10:04:18.999Z</time></trkpt><trkpt lat="42.0644368601068" lon="13.706334552026929"><ele>1116.0</ele><time>2026-04-27T10:04:19.999Z</time></trkpt><trkpt lat="42.06435032898636" lon="13.706316959946154"><ele>1116.0</ele><time>2026-04-27T10:04:20.999Z</time></trkpt><trkpt lat="42.06427807032523" lon="13.706286080720975"><ele>1116.0</ele><time>2026-04-27T10:04:21.999Z</time></trkpt><trkpt lat="42.06421642183589" lon="13.706237871907593"><ele>1116.0</ele><time>2026-04-27T10:04:22.999Z</time></trkpt><trkpt lat="42.06415467169973" lon="13.706203832537813"><ele>1116.0</ele><time>2026-04-27T10:04:23.999Z</time></trkpt><trkpt lat="42.06408053766573" lon="13.706162709150105"><ele>1116.0</ele><time>2026-04-27T10:04:24.999Z</time></trkpt><trkpt lat="42.064009608168085" lon="13.70612452940768"><ele>1115.3333333333333</ele><time>2026-04-27T10:04:25.999Z</time></trkpt><trkpt lat="42.06395565035958" lon="13.70606992952351"><ele>1114.6666666666667</ele><time>2026-04-27T10:04:26.999Z</time></trkpt><trkpt lat="42.06385500893039" lon="13.705986408803449"><ele>1114.0</ele><time>2026-04-27T10:04:28.999Z</time></trkpt><trkpt lat="42.06379320512334" lon="13.705934532834975"><ele>1113.3333333333335</ele><time>2026-04-27T10:04:29.999Z</time></trkpt><trkpt lat="42.06371231902269" lon="13.705855571663857"><ele>1112.6666666666667</ele><time>2026-04-27T10:04:31.999Z</time></trkpt><trkpt lat="42.0636486006624" lon="13.70581584846036"><ele>1112.0</ele><time>2026-04-27T10:04:34.999Z</time></trkpt><trkpt lat="42.06359484697781" lon="13.705730263748473"><ele>1112.0</ele><time>2026-04-27T10:08:17.999Z</time></trkpt><trkpt lat="42.0635516182376" lon="13.70566518695409"><ele>1112.0</ele><time>2026-04-27T10:08:18.999Z</time></trkpt><trkpt lat="42.0634993696089" lon="13.705585081083772"><ele>1112.0</ele><time>2026-04-27T10:08:19.999Z</time></trkpt><trkpt lat="42.063447440765025" lon="13.705530611474455"><ele>1112.0</ele><time>2026-04-27T10:08:20.999Z</time></trkpt><trkpt lat="42.06355101256888" lon="13.705296273431252"><ele>1112.0</ele><time>2026-04-27T10:08:21.999Z</time></trkpt><trkpt lat="42.06350225208706" lon="13.705205413062027"><ele>1110.6</ele><time>2026-04-27T10:08:22.999Z</time></trkpt><trkpt lat="42.06345155375271" lon="13.705111312606421"><ele>1109.2</ele><time>2026-04-27T10:08:23.999Z</time></trkpt><trkpt lat="42.06340461614305" lon="13.70502419255502"><ele>1107.8</ele><time>2026-04-27T10:08:24.999Z</time></trkpt><trkpt lat="42.06335948937931" lon="13.704940433270616"><ele>1106.4</ele><time>2026-04-27T10:08:25.999Z</time></trkpt><trkpt lat="42.06331618727654" lon="13.704860059839774"><ele>1105.0</ele><time>2026-04-27T10:08:26.999Z</time></trkpt><trkpt lat="42.06288520787475" lon="13.70504455980363"><ele>1100.8</ele><time>2026-04-27T10:08:28.999Z</time></trkpt><trkpt lat="42.06280085603495" lon="13.704992427760162"><ele>1096.6</ele><time>2026-04-27T10:08:29.999Z</time></trkpt><trkpt lat="42.06271872289572" lon="13.704965252200315"><ele>1092.4</ele><time>2026-04-27T10:08:30.999Z</time></trkpt><trkpt lat="42.06263384497222" lon="13.704955121514887"><ele>1088.2</ele><time>2026-04-27T10:08:31.999Z</time></trkpt><trkpt lat="42.06253715323909" lon="13.704949316290564"><ele>1084.0</ele><time>2026-04-27T10:08:32.999Z</time></trkpt><trkpt lat="42.06243749860223" lon="13.70493453607007"><ele>1081.5</ele><time>2026-04-27T10:08:33.999Z</time></trkpt><trkpt lat="42.062328462582066" lon="13.704928217698798"><ele>1079.0</ele><time>2026-04-27T10:08:34.999Z</time></trkpt><trkpt lat="42.062218508344145" lon="13.704928702317673"><ele>1076.5</ele><time>2026-04-27T10:08:35.999Z</time></trkpt><trkpt lat="42.062099072017986" lon="13.704920440970668"><ele>1074.0</ele><time>2026-04-27T10:08:36.999Z</time></trkpt><trkpt lat="42.061984580233265" lon="13.704908710524753"><ele>1074.0</ele><time>2026-04-27T10:08:37.999Z</time></trkpt><trkpt lat="42.061876449188844" lon="13.704899257195564"><ele>1074.0</ele><time>2026-04-27T10:08:38.999Z</time></trkpt><trkpt lat="42.0617904214328" lon="13.704871671925238"><ele>1074.0</ele><time>2026-04-27T10:08:39.999Z</time></trkpt><trkpt lat="42.06171890886465" lon="13.70483351768378"><ele>1074.0</ele><time>2026-04-27T10:08:40.999Z</time></trkpt><trkpt lat="42.061653654035936" lon="13.704757869186778"><ele>1074.0</ele><time>2026-04-27T10:08:41.999Z</time></trkpt><trkpt lat="42.061587312250495" lon="13.704655894884082"><ele>1074.0</ele><time>2026-04-27T10:08:42.999Z</time></trkpt><trkpt lat="42.06151180984239" lon="13.704536516587893"><ele>1074.0</ele><time>2026-04-27T10:08:43.999Z</time></trkpt><trkpt lat="42.061425838820185" lon="13.704401703512486"><ele>1074.0</ele><time>2026-04-27T10:08:44.998Z</time></trkpt><trkpt lat="42.061340702628634" lon="13.7042536164155"><ele>1074.0</ele><time>2026-04-27T10:08:45.998Z</time></trkpt><trkpt lat="42.061278291082736" lon="13.704124130410477"><ele>1072.5</ele><time>2026-04-27T10:08:46.998Z</time></trkpt><trkpt lat="42.061214676921374" lon="13.70400214420667"><ele>1071.0</ele><time>2026-04-27T10:08:47.998Z</time></trkpt><trkpt lat="42.06113821622832" lon="13.703882191846251"><ele>1069.5</ele><time>2026-04-27T10:08:48.998Z</time></trkpt><trkpt lat="42.061050070437375" lon="13.703753639145003"><ele>1068.0</ele><time>2026-04-27T10:08:49.998Z</time></trkpt><trkpt lat="42.06095962493199" lon="13.703606757262936"><ele>1068.75</ele><time>2026-04-27T10:08:50.998Z</time></trkpt><trkpt lat="42.060871568072855" lon="13.703455168293766"><ele>1069.5</ele><time>2026-04-27T10:08:51.998Z</time></trkpt><trkpt lat="42.060807796518084" lon="13.703326435136901"><ele>1070.25</ele><time>2026-04-27T10:08:52.998Z</time></trkpt><trkpt lat="42.06074035278734" lon="13.703201613548972"><ele>1071.0</ele><time>2026-04-27T10:08:53.998Z</time></trkpt><trkpt lat="42.060668984369634" lon="13.703067607213969"><ele>1071.0</ele><time>2026-04-27T10:08:54.998Z</time></trkpt><trkpt lat="42.06059846701646" lon="13.702926385163023"><ele>1071.0</ele><time>2026-04-27T10:08:55.998Z</time></trkpt><trkpt lat="42.06052669406244" lon="13.702788703016608"><ele>1071.0</ele><time>2026-04-27T10:08:56.998Z</time></trkpt><trkpt lat="42.060454070328326" lon="13.702666139262016"><ele>1071.0</ele><time>2026-04-27T10:08:57.998Z</time></trkpt><trkpt lat="42.06038328496574" lon="13.702520256471116"><ele>1069.5</ele><time>2026-04-27T10:08:58.998Z</time></trkpt><trkpt lat="42.06030965455886" lon="13.702379406468081"><ele>1068.0</ele><time>2026-04-27T10:08:59.998Z</time></trkpt><trkpt lat="42.060220321275395" lon="13.70222903238286"><ele>1066.5</ele><time>2026-04-27T10:09:00.998Z</time></trkpt><trkpt lat="42.060134383732944" lon="13.7020870774954"><ele>1065.0</ele><time>2026-04-27T10:09:01.998Z</time></trkpt><trkpt lat="42.060034759831915" lon="13.701935188004624"><ele>1067.75</ele><time>2026-04-27T10:09:02.998Z</time></trkpt><trkpt lat="42.05993990220449" lon="13.701775320677083"><ele>1070.5</ele><time>2026-04-27T10:09:03.998Z</time></trkpt><trkpt lat="42.05984921451593" lon="13.701607757097022"><ele>1073.25</ele><time>2026-04-27T10:09:05Z</time></trkpt><trkpt lat="42.059765896253886" lon="13.701457677401567"><ele>1076.0</ele><time>2026-04-27T10:09:06Z</time></trkpt><trkpt lat="42.059679138716895" lon="13.70132521328488"><ele>1076.0</ele><time>2026-04-27T10:09:07Z</time></trkpt><trkpt lat="42.0595977896869" lon="13.701210759843995"><ele>1076.0</ele><time>2026-04-27T10:09:08Z</time></trkpt><trkpt lat="42.059522941795386" lon="13.701079830015608"><ele>1076.0</ele><time>2026-04-27T10:09:09Z</time></trkpt><trkpt lat="42.059450809896695" lon="13.700951678691304"><ele>1076.0</ele><time>2026-04-27T10:09:10Z</time></trkpt><trkpt lat="42.059375882213914" lon="13.700829032281117"><ele>1072.25</ele><time>2026-04-27T10:09:11Z</time></trkpt><trkpt lat="42.05929980205746" lon="13.700722742574998"><ele>1068.5</ele><time>2026-04-27T10:09:12Z</time></trkpt><trkpt lat="42.05921024307055" lon="13.700638640631464"><ele>1064.75</ele><time>2026-04-27T10:09:13Z</time></trkpt><trkpt lat="42.05910896094042" lon="13.700564642511061"><ele>1061.0</ele><time>2026-04-27T10:09:14Z</time></trkpt><trkpt lat="42.05898108416169" lon="13.700491221482286"><ele>1060.0</ele><time>2026-04-27T10:09:15Z</time></trkpt><trkpt lat="42.05886346005409" lon="13.700454640827163"><ele>1059.0</ele><time>2026-04-27T10:09:16Z</time></trkpt><trkpt lat="42.05874043239468" lon="13.700432705356228"><ele>1058.0</ele><time>2026-04-27T10:09:17Z</time></trkpt><trkpt lat="42.0586199758111" lon="13.700418790211142"><ele>1057.0</ele><time>2026-04-27T10:09:18Z</time></trkpt><trkpt lat="42.058489837012615" lon="13.70040862606629"><ele>1057.0</ele><time>2026-04-27T10:09:19Z</time></trkpt><trkpt lat="42.05835463854282" lon="13.700398364767283"><ele>1057.0</ele><time>2026-04-27T10:09:20Z</time></trkpt><trkpt lat="42.05821388286692" lon="13.700375794462506"><ele>1057.0</ele><time>2026-04-27T10:09:21Z</time></trkpt><trkpt lat="42.05809194438057" lon="13.700367029055556"><ele>1057.0</ele><time>2026-04-27T10:09:22Z</time></trkpt><trkpt lat="42.05798866986227" lon="13.700369650086857"><ele>1056.0</ele><time>2026-04-27T10:09:23Z</time></trkpt><trkpt lat="42.05789743576476" lon="13.700365201171868"><ele>1055.0</ele><time>2026-04-27T10:09:24Z</time></trkpt><trkpt lat="42.05781046153537" lon="13.700352900838714"><ele>1054.0</ele><time>2026-04-27T10:09:25Z</time></trkpt><trkpt lat="42.05772755020899" lon="13.700336783378981"><ele>1053.0</ele><time>2026-04-27T10:09:26Z</time></trkpt><trkpt lat="42.05763610687797" lon="13.700317911531073"><ele>1052.0</ele><time>2026-04-27T10:09:27Z</time></trkpt><trkpt lat="42.05752245183002" lon="13.700300741903524"><ele>1051.8</ele><time>2026-04-27T10:09:28Z</time></trkpt><trkpt lat="42.0574192337337" lon="13.700288565858086"><ele>1051.6</ele><time>2026-04-27T10:09:29Z</time></trkpt><trkpt lat="42.05731600897349" lon="13.70027693907773"><ele>1051.3999999999999</ele><time>2026-04-27T10:09:30Z</time></trkpt><trkpt lat="42.057221923260265" lon="13.70026763393521"><ele>1051.2</ele><time>2026-04-27T10:09:31Z</time></trkpt><trkpt lat="42.057112837987326" lon="13.700259912133836"><ele>1051.0</ele><time>2026-04-27T10:09:32Z</time></trkpt><trkpt lat="42.0570053011747" lon="13.700240759378014"><ele>1051.0</ele><time>2026-04-27T10:09:33Z</time></trkpt><trkpt lat="42.05689357940333" lon="13.700220972848317"><ele>1051.0</ele><time>2026-04-27T10:09:34Z</time></trkpt><trkpt lat="42.05678524601492" lon="13.700199855013375"><ele>1051.0</ele><time>2026-04-27T10:09:35Z</time></trkpt><trkpt lat="42.05666778886744" lon="13.700180747293473"><ele>1051.0</ele><time>2026-04-27T10:09:36Z</time></trkpt><trkpt lat="42.056551178235104" lon="13.700166617913593"><ele>1051.2</ele><time>2026-04-27T10:09:37Z</time></trkpt><trkpt lat="42.056444074416184" lon="13.700147354188005"><ele>1051.3999999999999</ele><time>2026-04-27T10:09:38Z</time></trkpt><trkpt lat="42.05633761086558" lon="13.700132188876868"><ele>1051.6</ele><time>2026-04-27T10:09:39Z</time></trkpt><trkpt lat="42.0562312688576" lon="13.700109501479874"><ele>1051.8</ele><time>2026-04-27T10:09:40Z</time></trkpt><trkpt lat="42.05612286488638" lon="13.700089099148661"><ele>1052.0</ele><time>2026-04-27T10:09:41Z</time></trkpt><trkpt lat="42.0560105929276" lon="13.70006888216313"><ele>1052.0</ele><time>2026-04-27T10:09:42Z</time></trkpt><trkpt lat="42.05590301855137" lon="13.700057234773432"><ele>1052.0</ele><time>2026-04-27T10:09:43Z</time></trkpt><trkpt lat="42.05579918617005" lon="13.700038603604426"><ele>1052.0</ele><time>2026-04-27T10:09:43.999Z</time></trkpt><trkpt lat="42.05569343714012" lon="13.700010945259057"><ele>1052.0</ele><time>2026-04-27T10:09:44.999Z</time></trkpt><trkpt lat="42.05557843413402" lon="13.699986780339493"><ele>1052.0</ele><time>2026-04-27T10:09:45.999Z</time></trkpt><trkpt lat="42.05544751602844" lon="13.69997618397184"><ele>1051.6</ele><time>2026-04-27T10:09:46.999Z</time></trkpt><trkpt lat="42.05533971651138" lon="13.699962194572313"><ele>1051.2</ele><time>2026-04-27T10:09:47.999Z</time></trkpt><trkpt lat="42.055230724359845" lon="13.699934044941648"><ele>1050.8</ele><time>2026-04-27T10:09:48.999Z</time></trkpt><trkpt lat="42.05512240926871" lon="13.699894534017098"><ele>1050.4</ele><time>2026-04-27T10:09:49.999Z</time></trkpt><trkpt lat="42.055015575399004" lon="13.69986183600151"><ele>1050.0</ele><time>2026-04-27T10:09:50.999Z</time></trkpt><trkpt lat="42.054900075184044" lon="13.699803382708717"><ele>1049.6</ele><time>2026-04-27T10:09:51.999Z</time></trkpt><trkpt lat="42.05478471615755" lon="13.699739576048946"><ele>1049.2</ele><time>2026-04-27T10:09:52.999Z</time></trkpt><trkpt lat="42.054690927613606" lon="13.699687108489805"><ele>1048.8</ele><time>2026-04-27T10:09:53.999Z</time></trkpt><trkpt lat="42.05460844988794" lon="13.699627126961378"><ele>1048.4</ele><time>2026-04-27T10:09:54.999Z</time></trkpt><trkpt lat="42.05453780002655" lon="13.699578095573456"><ele>1048.0</ele><time>2026-04-27T10:09:55.999Z</time></trkpt><trkpt lat="42.05446753252349" lon="13.699537846098739"><ele>1048.0</ele><time>2026-04-27T10:09:56.999Z</time></trkpt><trkpt lat="42.0544001849988" lon="13.699508655805282"><ele>1048.0</ele><time>2026-04-27T10:09:57.999Z</time></trkpt><trkpt lat="42.054309876655864" lon="13.699487125844618"><ele>1048.0</ele><time>2026-04-27T10:09:58.999Z</time></trkpt><trkpt lat="42.054219906521475" lon="13.699477626288434"><ele>1048.0</ele><time>2026-04-27T10:09:59.999Z</time></trkpt><trkpt lat="42.054106519577346" lon="13.699453899970315"><ele>1048.0</ele><time>2026-04-27T10:10:00.999Z</time></trkpt><trkpt lat="42.054002793300135" lon="13.699412681925903"><ele>1049.0</ele><time>2026-04-27T10:10:01.999Z</time></trkpt><trkpt lat="42.05389362628783" lon="13.69935528722044"><ele>1050.0</ele><time>2026-04-27T10:10:02.999Z</time></trkpt><trkpt lat="42.05378899457675" lon="13.699293462960286"><ele>1051.0</ele><time>2026-04-27T10:10:03.999Z</time></trkpt><trkpt lat="42.05367808449766" lon="13.699230510211159"><ele>1052.0</ele><time>2026-04-27T10:10:04.999Z</time></trkpt><trkpt lat="42.05356368908405" lon="13.699170986565182"><ele>1052.0</ele><time>2026-04-27T10:10:05.999Z</time></trkpt><trkpt lat="42.053458078986814" lon="13.699109124696466"><ele>1052.0</ele><time>2026-04-27T10:10:06.999Z</time></trkpt><trkpt lat="42.05334499252797" lon="13.699052659511356"><ele>1052.0</ele><time>2026-04-27T10:10:07.999Z</time></trkpt><trkpt lat="42.05322769099487" lon="13.699006988481981"><ele>1052.0</ele><time>2026-04-27T10:10:08.999Z</time></trkpt><trkpt lat="42.05311072279728" lon="13.698934156196069"><ele>1052.5</ele><time>2026-04-27T10:10:09.999Z</time></trkpt><trkpt lat="42.05300328690407" lon="13.698835541056694"><ele>1053.0</ele><time>2026-04-27T10:10:10.999Z</time></trkpt><trkpt lat="42.052901548664025" lon="13.698725077576922"><ele>1053.5</ele><time>2026-04-27T10:10:11.999Z</time></trkpt><trkpt lat="42.05279896007388" lon="13.698616922303"><ele>1054.0</ele><time>2026-04-27T10:10:12.999Z</time></trkpt><trkpt lat="42.05270427322733" lon="13.698509440492527"><ele>1054.5</ele><time>2026-04-27T10:10:13.999Z</time></trkpt><trkpt lat="42.0525973310498" lon="13.698398979384173"><ele>1055.0</ele><time>2026-04-27T10:10:14.999Z</time></trkpt><trkpt lat="42.052494308864645" lon="13.698292948940631"><ele>1055.5</ele><time>2026-04-27T10:10:15.999Z</time></trkpt><trkpt lat="42.05237949937351" lon="13.698184474047965"><ele>1056.0</ele><time>2026-04-27T10:10:16.999Z</time></trkpt><trkpt lat="42.05226970383778" lon="13.698075630676852"><ele>1056.0</ele><time>2026-04-27T10:10:17.999Z</time></trkpt><trkpt lat="42.05215851511813" lon="13.697963393675266"><ele>1056.0</ele><time>2026-04-27T10:10:18.999Z</time></trkpt><trkpt lat="42.05205818657514" lon="13.697835691765544"><ele>1056.0</ele><time>2026-04-27T10:10:19.999Z</time></trkpt><trkpt lat="42.051971428748146" lon="13.697708669069435"><ele>1056.0</ele><time>2026-04-27T10:10:20.999Z</time></trkpt><trkpt lat="42.05189385947366" lon="13.697576622066824"><ele>1056.0</ele><time>2026-04-27T10:10:21.999Z</time></trkpt><trkpt lat="42.05180296335183" lon="13.697452768939584"><ele>1056.0</ele><time>2026-04-27T10:10:22.999Z</time></trkpt><trkpt lat="42.05169727648957" lon="13.69733336760053"><ele>1056.0</ele><time>2026-04-27T10:10:23.999Z</time></trkpt><trkpt lat="42.05158774036197" lon="13.697214766300599"><ele>1056.0</ele><time>2026-04-27T10:10:24.999Z</time></trkpt><trkpt lat="42.051470817446564" lon="13.69709944793409"><ele>1055.75</ele><time>2026-04-27T10:10:25.999Z</time></trkpt><trkpt lat="42.0513585600827" lon="13.696979439498627"><ele>1055.5</ele><time>2026-04-27T10:10:26.999Z</time></trkpt><trkpt lat="42.05125227273861" lon="13.696872055346175"><ele>1055.25</ele><time>2026-04-27T10:10:27.999Z</time></trkpt><trkpt lat="42.05114627466285" lon="13.696756036308685"><ele>1055.0</ele><time>2026-04-27T10:10:28.999Z</time></trkpt><trkpt lat="42.05104461997645" lon="13.696633674782074"><ele>1055.0</ele><time>2026-04-27T10:10:29.999Z</time></trkpt><trkpt lat="42.05093318126341" lon="13.696509995575022"><ele>1055.0</ele><time>2026-04-27T10:10:30.999Z</time></trkpt><trkpt lat="42.050827395544005" lon="13.696378359008666"><ele>1055.0</ele><time>2026-04-27T10:10:31.999Z</time></trkpt><trkpt lat="42.05072440260505" lon="13.696233844136295"><ele>1055.0</ele><time>2026-04-27T10:10:32.999Z</time></trkpt><trkpt lat="42.05062239381327" lon="13.696097081283293"><ele>1054.0</ele><time>2026-04-27T10:10:33.999Z</time></trkpt><trkpt lat="42.0505124034057" lon="13.695953739305837"><ele>1053.0</ele><time>2026-04-27T10:10:34.999Z</time></trkpt><trkpt lat="42.05043186424673" lon="13.69583037004042"><ele>1052.0</ele><time>2026-04-27T10:10:35.999Z</time></trkpt><trkpt lat="42.05034092475053" lon="13.695714306677155"><ele>1051.0</ele><time>2026-04-27T10:10:36.999Z</time></trkpt><trkpt lat="42.05025500689988" lon="13.695581688752242"><ele>1051.0</ele><time>2026-04-27T10:10:37.999Z</time></trkpt><trkpt lat="42.05014556228315" lon="13.695443943270728"><ele>1051.0</ele><time>2026-04-27T10:10:38.999Z</time></trkpt><trkpt lat="42.05004321103483" lon="13.695309989718496"><ele>1051.0</ele><time>2026-04-27T10:10:39.999Z</time></trkpt><trkpt lat="42.04993395973239" lon="13.695156641888566"><ele>1052.25</ele><time>2026-04-27T10:10:40.999Z</time></trkpt><trkpt lat="42.049824927468805" lon="13.69500707958347"><ele>1053.5</ele><time>2026-04-27T10:10:41.999Z</time></trkpt><trkpt lat="42.049729253032076" lon="13.69487215954599"><ele>1054.75</ele><time>2026-04-27T10:10:42.999Z</time></trkpt><trkpt lat="42.04965172583409" lon="13.694747041018394"><ele>1056.0</ele><time>2026-04-27T10:10:43.999Z</time></trkpt><trkpt lat="42.04956957742659" lon="13.694636828651207"><ele>1056.0</ele><time>2026-04-27T10:10:44.999Z</time></trkpt><trkpt lat="42.04948306517542" lon="13.694526693190646"><ele>1056.0</ele><time>2026-04-27T10:10:45.999Z</time></trkpt><trkpt lat="42.04939655302842" lon="13.694402599957902"><ele>1056.0</ele><time>2026-04-27T10:10:46.999Z</time></trkpt><trkpt lat="42.04930290013161" lon="13.694276248398907"><ele>1056.0</ele><time>2026-04-27T10:10:47.999Z</time></trkpt><trkpt lat="42.04920507420792" lon="13.694153480028321"><ele>1055.75</ele><time>2026-04-27T10:10:48.998Z</time></trkpt><trkpt lat="42.04909131939283" lon="13.694040368828306"><ele>1055.5</ele><time>2026-04-27T10:10:49.998Z</time></trkpt><trkpt lat="42.04897663649946" lon="13.69392949909776"><ele>1055.25</ele><time>2026-04-27T10:10:50.998Z</time></trkpt><trkpt lat="42.048862349384045" lon="13.693812006890958"><ele>1055.0</ele><time>2026-04-27T10:10:51.998Z</time></trkpt><trkpt lat="42.04875195062072" lon="13.693686637889186"><ele>1050.75</ele><time>2026-04-27T10:10:52.998Z</time></trkpt><trkpt lat="42.04864341115156" lon="13.693563111877333"><ele>1046.5</ele><time>2026-04-27T10:10:53.998Z</time></trkpt><trkpt lat="42.04853145553184" lon="13.693441741557528"><ele>1042.25</ele><time>2026-04-27T10:10:54.998Z</time></trkpt><trkpt lat="42.048416407421435" lon="13.693327420606282"><ele>1038.0</ele><time>2026-04-27T10:10:55.998Z</time></trkpt><trkpt lat="42.0482958138001" lon="13.693212685753544"><ele>1043.0</ele><time>2026-04-27T10:10:56.998Z</time></trkpt><trkpt lat="42.04818029023939" lon="13.693095297555898"><ele>1048.0</ele><time>2026-04-27T10:10:57.998Z</time></trkpt><trkpt lat="42.04805970637947" lon="13.692969543046509"><ele>1053.0</ele><time>2026-04-27T10:10:58.998Z</time></trkpt><trkpt lat="42.047942200904714" lon="13.692833271994076"><ele>1046.0</ele><time>2026-04-27T10:10:59.998Z</time></trkpt><trkpt lat="42.0478193006788" lon="13.692694378084013"><ele>1039.0</ele><time>2026-04-27T10:11:00.998Z</time></trkpt><trkpt lat="42.047696436013695" lon="13.692559397135037"><ele>1032.0</ele><time>2026-04-27T10:11:01.998Z</time></trkpt><trkpt lat="42.047571593567675" lon="13.692426223504485"><ele>1034.3333333333333</ele><time>2026-04-27T10:11:02.998Z</time></trkpt><trkpt lat="42.04744464449732" lon="13.692302850948472"><ele>1036.6666666666665</ele><time>2026-04-27T10:11:03.998Z</time></trkpt><trkpt lat="42.047317896123694" lon="13.692180680288878"><ele>1039.0</ele><time>2026-04-27T10:11:04.998Z</time></trkpt><trkpt lat="42.047195834839776" lon="13.692056672307507"><ele>1039.0</ele><time>2026-04-27T10:11:05.998Z</time></trkpt><trkpt lat="42.047064869032" lon="13.691938068290249"><ele>1039.0</ele><time>2026-04-27T10:11:06.998Z</time></trkpt><trkpt lat="42.04692877607531" lon="13.691830978368943"><ele>1039.0</ele><time>2026-04-27T10:11:07.998Z</time></trkpt><trkpt lat="42.04678508826805" lon="13.691733727538182"><ele>1035.0</ele><time>2026-04-27T10:11:08.998Z</time></trkpt><trkpt lat="42.046656997720376" lon="13.691647792006298"><ele>1031.0</ele><time>2026-04-27T10:11:09.998Z</time></trkpt><trkpt lat="42.04654258531166" lon="13.691564828638892"><ele>1027.0</ele><time>2026-04-27T10:11:11Z</time></trkpt><trkpt lat="42.046442783033775" lon="13.691479301237047"><ele>1023.0</ele><time>2026-04-27T10:11:12Z</time></trkpt><trkpt lat="42.046344852490265" lon="13.69139740529104"><ele>1023.0</ele><time>2026-04-27T10:11:13Z</time></trkpt><trkpt lat="42.04623204488773" lon="13.691317692172483"><ele>1023.0</ele><time>2026-04-27T10:11:14Z</time></trkpt><trkpt lat="42.0461220127257" lon="13.691231636700259"><ele>1023.0</ele><time>2026-04-27T10:11:15Z</time></trkpt><trkpt lat="42.04600876561465" lon="13.691126665301"><ele>1023.0</ele><time>2026-04-27T10:11:16Z</time></trkpt><trkpt lat="42.04589675819563" lon="13.691008921158994"><ele>1021.5</ele><time>2026-04-27T10:11:17Z</time></trkpt><trkpt lat="42.04578551589319" lon="13.690879407166369"><ele>1020.0</ele><time>2026-04-27T10:11:18Z</time></trkpt><trkpt lat="42.04566970472967" lon="13.690755494853043"><ele>1018.5</ele><time>2026-04-27T10:11:19Z</time></trkpt><trkpt lat="42.04555603179732" lon="13.690640547832553"><ele>1017.0</ele><time>2026-04-27T10:11:20Z</time></trkpt><trkpt lat="42.045457564577866" lon="13.69052730470286"><ele>1017.0</ele><time>2026-04-27T10:11:21Z</time></trkpt><trkpt lat="42.04537832364667" lon="13.690397300374833"><ele>1017.0</ele><time>2026-04-27T10:11:22Z</time></trkpt><trkpt lat="42.04530635955927" lon="13.69025148142935"><ele>1017.0</ele><time>2026-04-27T10:11:23Z</time></trkpt><trkpt lat="42.04523181351757" lon="13.69008951468736"><ele>1017.0</ele><time>2026-04-27T10:11:24Z</time></trkpt><trkpt lat="42.0451620687058" lon="13.689937840640567"><ele>1017.75</ele><time>2026-04-27T10:11:25Z</time></trkpt><trkpt lat="42.04509750101655" lon="13.689799824857172"><ele>1018.5</ele><time>2026-04-27T10:11:26Z</time></trkpt><trkpt lat="42.04503908477577" lon="13.689684368134435"><ele>1019.25</ele><time>2026-04-27T10:11:27Z</time></trkpt><trkpt lat="42.044979267704065" lon="13.689540254304974"><ele>1020.0</ele><time>2026-04-27T10:11:28Z</time></trkpt><trkpt lat="42.0449228304493" lon="13.689388945112261"><ele>1020.0</ele><time>2026-04-27T10:11:29Z</time></trkpt><trkpt lat="42.04488819954483" lon="13.68922970553213"><ele>1020.0</ele><time>2026-04-27T10:11:30Z</time></trkpt><trkpt lat="42.044842923725476" lon="13.689055990019401"><ele>1020.0</ele><time>2026-04-27T10:11:31Z</time></trkpt><trkpt lat="42.0447832100518" lon="13.688896125105106"><ele>1020.0</ele><time>2026-04-27T10:11:32Z</time></trkpt><trkpt lat="42.04472398421032" lon="13.688742236283368"><ele>1014.5</ele><time>2026-04-27T10:11:33Z</time></trkpt><trkpt lat="42.04465719490432" lon="13.688585761863132"><ele>1009.0</ele><time>2026-04-27T10:11:34Z</time></trkpt><trkpt lat="42.044584386521464" lon="13.68843330055691"><ele>1003.5</ele><time>2026-04-27T10:11:35Z</time></trkpt><trkpt lat="42.044526416601364" lon="13.688293325967456"><ele>998.0</ele><time>2026-04-27T10:11:36Z</time></trkpt><trkpt lat="42.04447319028684" lon="13.688152768828166"><ele>998.0</ele><time>2026-04-27T10:11:37Z</time></trkpt><trkpt lat="42.04441157292102" lon="13.688017868981298"><ele>998.0</ele><time>2026-04-27T10:11:38Z</time></trkpt><trkpt lat="42.04433272729041" lon="13.687896374057914"><ele>998.0</ele><time>2026-04-27T10:11:39Z</time></trkpt><trkpt lat="42.044256492411655" lon="13.687792782190337"><ele>998.0</ele><time>2026-04-27T10:11:40Z</time></trkpt><trkpt lat="42.044194487067955" lon="13.68768483879151"><ele>998.0</ele><time>2026-04-27T10:11:41Z</time></trkpt><trkpt lat="42.044149619828325" lon="13.687559996665406"><ele>997.5999999999999</ele><time>2026-04-27T10:11:42Z</time></trkpt><trkpt lat="42.0441173950954" lon="13.687434345199586"><ele>997.1999999999999</ele><time>2026-04-27T10:11:43Z</time></trkpt><trkpt lat="42.044073672777046" lon="13.68733575794573"><ele>996.8</ele><time>2026-04-27T10:11:44Z</time></trkpt><trkpt lat="42.04401181447768" lon="13.687245181655006"><ele>996.4</ele><time>2026-04-27T10:11:45Z</time></trkpt><trkpt lat="42.04394386685808" lon="13.687146549758191"><ele>996.0</ele><time>2026-04-27T10:11:46Z</time></trkpt><trkpt lat="42.043881419560655" lon="13.687059106121026"><ele>996.0</ele><time>2026-04-27T10:11:47Z</time></trkpt><trkpt lat="42.043821511960665" lon="13.686971189037232"><ele>996.0</ele><time>2026-04-27T10:11:48Z</time></trkpt><trkpt lat="42.04376312399475" lon="13.686864261102505"><ele>996.0</ele><time>2026-04-27T10:11:48.999Z</time></trkpt><trkpt lat="42.04370718403848" lon="13.686753638246042"><ele>996.0</ele><time>2026-04-27T10:11:49.999Z</time></trkpt><trkpt lat="42.0436579470073" lon="13.686666487409788"><ele>996.0</ele><time>2026-04-27T10:11:50.999Z</time></trkpt><trkpt lat="42.04360800900109" lon="13.68661209646016"><ele>996.0</ele><time>2026-04-27T10:11:51.999Z</time></trkpt><trkpt lat="42.04354999106297" lon="13.68656943886199"><ele>991.1999999999999</ele><time>2026-04-27T10:11:52.999Z</time></trkpt><trkpt lat="42.04348320738327" lon="13.686423988282726"><ele>986.3999999999999</ele><time>2026-04-27T10:11:54.999Z</time></trkpt><trkpt lat="42.043462423644414" lon="13.686305188270998"><ele>981.6</ele><time>2026-04-27T10:11:55.999Z</time></trkpt><trkpt lat="42.04342596946443" lon="13.686181587656614"><ele>976.8</ele><time>2026-04-27T10:11:56.999Z</time></trkpt><trkpt lat="42.04338251230234" lon="13.68608848821834"><ele>972.0</ele><time>2026-04-27T10:11:57.999Z</time></trkpt><trkpt lat="42.043345787705945" lon="13.685985593686137"><ele>973.2</ele><time>2026-04-27T10:11:58.999Z</time></trkpt><trkpt lat="42.04329810744871" lon="13.685864551712015"><ele>974.4000000000001</ele><time>2026-04-27T10:11:59.999Z</time></trkpt><trkpt lat="42.04323635448561" lon="13.685746975405053"><ele>975.5999999999999</ele><time>2026-04-27T10:12:00.999Z</time></trkpt><trkpt lat="42.04317278341046" lon="13.685657728668874"><ele>976.8</ele><time>2026-04-27T10:12:01.999Z</time></trkpt><trkpt lat="42.04311486773389" lon="13.6855776181394"><ele>978.0</ele><time>2026-04-27T10:12:02.999Z</time></trkpt><trkpt lat="42.04307498287401" lon="13.685491442650331"><ele>978.0</ele><time>2026-04-27T10:12:03.999Z</time></trkpt><trkpt lat="42.043050378621" lon="13.685400246602505"><ele>978.0</ele><time>2026-04-27T10:12:04.999Z</time></trkpt><trkpt lat="42.042993352423174" lon="13.685319873976043"><ele>978.0</ele><time>2026-04-27T10:12:05.999Z</time></trkpt><trkpt lat="42.04290873040371" lon="13.685216443164675"><ele>978.0</ele><time>2026-04-27T10:12:06.999Z</time></trkpt><trkpt lat="42.04284028986938" lon="13.685117372029358"><ele>978.0</ele><time>2026-04-27T10:12:07.999Z</time></trkpt><trkpt lat="42.0427929638753" lon="13.684990556285523"><ele>977.0</ele><time>2026-04-27T10:12:08.999Z</time></trkpt><trkpt lat="42.04274495610798" lon="13.684880539174333"><ele>976.0</ele><time>2026-04-27T10:12:09.999Z</time></trkpt><trkpt lat="42.042690220153894" lon="13.684792199298318"><ele>975.0</ele><time>2026-04-27T10:12:10.999Z</time></trkpt><trkpt lat="42.04265269608657" lon="13.68469873688604"><ele>974.0</ele><time>2026-04-27T10:12:11.999Z</time></trkpt><trkpt lat="42.042596524858304" lon="13.684618724994726"><ele>973.0</ele><time>2026-04-27T10:12:12.999Z</time></trkpt><trkpt lat="42.04251873825213" lon="13.684522536454987"><ele>972.0</ele><time>2026-04-27T10:12:13.999Z</time></trkpt><trkpt lat="42.042432994836204" lon="13.684436216012282"><ele>965.8</ele><time>2026-04-27T10:12:14.999Z</time></trkpt><trkpt lat="42.04236985392812" lon="13.684327815682709"><ele>959.6</ele><time>2026-04-27T10:12:15.999Z</time></trkpt><trkpt lat="42.04232637157038" lon="13.684229949846687"><ele>953.3999999999999</ele><time>2026-04-27T10:12:16.999Z</time></trkpt><trkpt lat="42.042263460578376" lon="13.684139756932163"><ele>947.1999999999999</ele><time>2026-04-27T10:12:17.999Z</time></trkpt><trkpt lat="42.04218245096473" lon="13.684038506899265"><ele>941.0</ele><time>2026-04-27T10:12:18.999Z</time></trkpt><trkpt lat="42.042118153364456" lon="13.68394424740233"><ele>941.0</ele><time>2026-04-27T10:12:19.999Z</time></trkpt><trkpt lat="42.042061550270944" lon="13.683855006371198"><ele>940.9999999999999</ele><time>2026-04-27T10:12:20.999Z</time></trkpt><trkpt lat="42.041995287079935" lon="13.683770347268927"><ele>940.9999999999999</ele><time>2026-04-27T10:12:21.999Z</time></trkpt><trkpt lat="42.04195369951299" lon="13.683661500927654"><ele>941.0</ele><time>2026-04-27T10:12:22.999Z</time></trkpt><trkpt lat="42.041874125812306" lon="13.683544602047938"><ele>941.0</ele><time>2026-04-27T10:12:23.999Z</time></trkpt><trkpt lat="42.04179219634461" lon="13.68341795717584"><ele>938.4</ele><time>2026-04-27T10:12:24.999Z</time></trkpt><trkpt lat="42.04171368060809" lon="13.683307374950525"><ele>935.8</ele><time>2026-04-27T10:12:25.999Z</time></trkpt><trkpt lat="42.04164511253306" lon="13.683202924548086"><ele>933.1999999999999</ele><time>2026-04-27T10:12:26.999Z</time></trkpt><trkpt lat="42.04158897135772" lon="13.683095312101106"><ele>930.5999999999999</ele><time>2026-04-27T10:12:27.999Z</time></trkpt><trkpt lat="42.04153673257285" lon="13.68299565319138"><ele>928.0</ele><time>2026-04-27T10:12:28.999Z</time></trkpt><trkpt lat="42.04147233156643" lon="13.682905722927273"><ele>928.0</ele><time>2026-04-27T10:12:29.999Z</time></trkpt><trkpt lat="42.04140862966523" lon="13.682803249452489"><ele>928.0</ele><time>2026-04-27T10:12:30.999Z</time></trkpt><trkpt lat="42.04134593678685" lon="13.682690492108781"><ele>928.0</ele><time>2026-04-27T10:12:31.999Z</time></trkpt><trkpt lat="42.041282485285485" lon="13.682577692664328"><ele>928.0</ele><time>2026-04-27T10:12:32.999Z</time></trkpt><trkpt lat="42.04122245964576" lon="13.682466579435879"><ele>928.0</ele><time>2026-04-27T10:12:33.999Z</time></trkpt><trkpt lat="42.04116623641376" lon="13.682326493634694"><ele>923.0</ele><time>2026-04-27T10:12:34.999Z</time></trkpt><trkpt lat="42.04111350599829" lon="13.68219270215777"><ele>918.0</ele><time>2026-04-27T10:12:35.999Z</time></trkpt><trkpt lat="42.04103546954772" lon="13.682081815521922"><ele>913.0</ele><time>2026-04-27T10:12:36.999Z</time></trkpt><trkpt lat="42.04095842458231" lon="13.68197759365609"><ele>908.0</ele><time>2026-04-27T10:12:37.999Z</time></trkpt><trkpt lat="42.040883199632376" lon="13.68186932988245"><ele>903.0</ele><time>2026-04-27T10:12:38.999Z</time></trkpt><trkpt lat="42.04080527614147" lon="13.681758657187197"><ele>901.5</ele><time>2026-04-27T10:12:39.999Z</time></trkpt><trkpt lat="42.04071794838022" lon="13.681637022009914"><ele>900.0</ele><time>2026-04-27T10:12:40.999Z</time></trkpt><trkpt lat="42.040629147973426" lon="13.681520746995869"><ele>898.5</ele><time>2026-04-27T10:12:41.999Z</time></trkpt><trkpt lat="42.04054652292604" lon="13.68138780344675"><ele>897.0</ele><time>2026-04-27T10:12:42.999Z</time></trkpt><trkpt lat="42.040463389099784" lon="13.681253523747909"><ele>897.0</ele><time>2026-04-27T10:12:43.999Z</time></trkpt><trkpt lat="42.040371065805274" lon="13.681122415826733"><ele>897.0</ele><time>2026-04-27T10:12:44.999Z</time></trkpt><trkpt lat="42.04028403655735" lon="13.680983100714004"><ele>897.0</ele><time>2026-04-27T10:12:45.999Z</time></trkpt><trkpt lat="42.04020719686444" lon="13.680850998825262"><ele>897.0</ele><time>2026-04-27T10:12:46.999Z</time></trkpt><trkpt lat="42.040130949525484" lon="13.68072547561032"><ele>898.75</ele><time>2026-04-27T10:12:47.999Z</time></trkpt><trkpt lat="42.04006420887002" lon="13.680591733617389"><ele>900.5</ele><time>2026-04-27T10:12:48.999Z</time></trkpt><trkpt lat="42.04000023956138" lon="13.680463811664303"><ele>902.25</ele><time>2026-04-27T10:12:49.999Z</time></trkpt><trkpt lat="42.03993750542924" lon="13.680342588914343"><ele>904.0</ele><time>2026-04-27T10:12:50.999Z</time></trkpt><trkpt lat="42.03986884651057" lon="13.680232162761621"><ele>899.5</ele><time>2026-04-27T10:12:51.999Z</time></trkpt><trkpt lat="42.03979276282846" lon="13.680117370374994"><ele>895.0</ele><time>2026-04-27T10:12:52.998Z</time></trkpt><trkpt lat="42.039712854512686" lon="13.679984983411547"><ele>890.5</ele><time>2026-04-27T10:12:53.998Z</time></trkpt><trkpt lat="42.039626839142564" lon="13.679839390797763"><ele>886.0</ele><time>2026-04-27T10:12:54.998Z</time></trkpt><trkpt lat="42.03954530397519" lon="13.679698203494155"><ele>886.0</ele><time>2026-04-27T10:12:55.998Z</time></trkpt><trkpt lat="42.039463892342475" lon="13.679541844242875"><ele>886.0</ele><time>2026-04-27T10:12:56.998Z</time></trkpt><trkpt lat="42.039389799062754" lon="13.679388439052133"><ele>886.0</ele><time>2026-04-27T10:12:57.998Z</time></trkpt><trkpt lat="42.039308541005816" lon="13.679240926679773"><ele>886.0</ele><time>2026-04-27T10:12:58.998Z</time></trkpt><trkpt lat="42.03923520802608" lon="13.679093716052066"><ele>886.75</ele><time>2026-04-27T10:12:59.998Z</time></trkpt><trkpt lat="42.03915620081199" lon="13.678932618803188"><ele>887.5</ele><time>2026-04-27T10:13:00.998Z</time></trkpt><trkpt lat="42.03906709294941" lon="13.678782528799905"><ele>888.25</ele><time>2026-04-27T10:13:01.998Z</time></trkpt><trkpt lat="42.03898477261782" lon="13.67863327579619"><ele>889.0</ele><time>2026-04-27T10:13:02.998Z</time></trkpt><trkpt lat="42.038900653766326" lon="13.67848681057387"><ele>884.75</ele><time>2026-04-27T10:13:03.998Z</time></trkpt><trkpt lat="42.03881475898225" lon="13.678332507874972"><ele>880.5</ele><time>2026-04-27T10:13:04.998Z</time></trkpt><trkpt lat="42.03872778367049" lon="13.67818255371175"><ele>876.25</ele><time>2026-04-27T10:13:05.998Z</time></trkpt><trkpt lat="42.03864721136318" lon="13.678032916518191"><ele>872.0</ele><time>2026-04-27T10:13:06.998Z</time></trkpt><trkpt lat="42.03855643865744" lon="13.67788216549323"><ele>869.5</ele><time>2026-04-27T10:13:07.998Z</time></trkpt><trkpt lat="42.03846967326116" lon="13.677739119966896"><ele>867.0</ele><time>2026-04-27T10:13:08.998Z</time></trkpt><trkpt lat="42.03837248496372" lon="13.67760210993769"><ele>864.5</ele><time>2026-04-27T10:13:09.998Z</time></trkpt><trkpt lat="42.038282515541894" lon="13.677460145603975"><ele>862.0</ele><time>2026-04-27T10:13:10.998Z</time></trkpt><trkpt lat="42.03819387767631" lon="13.677319548452857"><ele>862.0</ele><time>2026-04-27T10:13:11.998Z</time></trkpt><trkpt lat="42.038088176147774" lon="13.677194323647829"><ele>862.0</ele><time>2026-04-27T10:13:12.998Z</time></trkpt><trkpt lat="42.03797416521215" lon="13.677074485508596"><ele>862.0</ele><time>2026-04-27T10:13:13.998Z</time></trkpt><trkpt lat="42.03786898810108" lon="13.676955033804957"><ele>862.0</ele><time>2026-04-27T10:13:14.998Z</time></trkpt><trkpt lat="42.037770174512254" lon="13.676828735842113"><ele>858.75</ele><time>2026-04-27T10:13:15.998Z</time></trkpt><trkpt lat="42.03767210042564" lon="13.676703561145986"><ele>855.5</ele><time>2026-04-27T10:13:17Z</time></trkpt><trkpt lat="42.03757647478773" lon="13.67657690127618"><ele>852.25</ele><time>2026-04-27T10:13:18Z</time></trkpt><trkpt lat="42.03749573709862" lon="13.676474476512581"><ele>849.0</ele><time>2026-04-27T10:13:19Z</time></trkpt><trkpt lat="42.03741564830841" lon="13.676385410426036"><ele>849.0</ele><time>2026-04-27T10:13:20Z</time></trkpt><trkpt lat="42.037337822457076" lon="13.67629283924342"><ele>849.0</ele><time>2026-04-27T10:13:21Z</time></trkpt><trkpt lat="42.037280066289284" lon="13.67616057311689"><ele>849.0</ele><time>2026-04-27T10:13:22Z</time></trkpt><trkpt lat="42.03721025282817" lon="13.676036318311874"><ele>849.0</ele><time>2026-04-27T10:13:23Z</time></trkpt><trkpt lat="42.037113008320894" lon="13.675946885844647"><ele>846.0</ele><time>2026-04-27T10:13:24Z</time></trkpt><trkpt lat="42.037004128181394" lon="13.675855905761566"><ele>843.0</ele><time>2026-04-27T10:13:25Z</time></trkpt><trkpt lat="42.03690754938989" lon="13.675755994005764"><ele>840.0</ele><time>2026-04-27T10:13:26Z</time></trkpt><trkpt lat="42.03680256769467" lon="13.675651442019428"><ele>837.0</ele><time>2026-04-27T10:13:27Z</time></trkpt><trkpt lat="42.03670275659482" lon="13.675561966861572"><ele>837.0</ele><time>2026-04-27T10:13:28Z</time></trkpt><trkpt lat="42.03664759795414" lon="13.675519234624419"><ele>837.0</ele><time>2026-04-27T10:13:29Z</time></trkpt><trkpt lat="42.03663376161707" lon="13.675361599331483"><ele>837.0</ele><time>2026-04-27T10:13:33Z</time></trkpt><trkpt lat="42.03658362550058" lon="13.675297291737987"><ele>837.0</ele><time>2026-04-27T10:13:36Z</time></trkpt><trkpt lat="42.03653907626513" lon="13.675232078719379"><ele>837.0</ele><time>2026-04-27T10:13:37Z</time></trkpt><trkpt lat="42.0364075870087" lon="13.674998622488147"><ele>837.2857142857143</ele><time>2026-04-27T10:13:39Z</time></trkpt><trkpt lat="42.03635601742598" lon="13.674923552307254"><ele>837.5714285714287</ele><time>2026-04-27T10:13:40Z</time></trkpt><trkpt lat="42.03630368018707" lon="13.674854463956544"><ele>837.8571428571429</ele><time>2026-04-27T10:13:41Z</time></trkpt><trkpt lat="42.03626083865295" lon="13.674777375750265"><ele>838.1428571428571</ele><time>2026-04-27T10:13:42Z</time></trkpt><trkpt lat="42.03622730553624" lon="13.674698890758139"><ele>838.4285714285714</ele><time>2026-04-27T10:13:43Z</time></trkpt><trkpt lat="42.03619740210393" lon="13.67460652235735"><ele>838.7142857142857</ele><time>2026-04-27T10:13:44Z</time></trkpt><trkpt lat="42.03617824238351" lon="13.674512175373897"><ele>839.0</ele><time>2026-04-27T10:13:45Z</time></trkpt><trkpt lat="42.03613672999637" lon="13.674399616213172"><ele>839.0</ele><time>2026-04-27T10:13:47Z</time></trkpt><trkpt lat="42.036082528532106" lon="13.6742869294194"><ele>839.0</ele><time>2026-04-27T10:13:50Z</time></trkpt><trkpt lat="42.03605456044128" lon="13.674176963070103"><ele>839.0</ele><time>2026-04-27T10:13:51Z</time></trkpt><trkpt lat="42.03600742574174" lon="13.674069046048679"><ele>839.0</ele><time>2026-04-27T10:13:51.999Z</time></trkpt><trkpt lat="42.035958725060695" lon="13.673973942588589"><ele>839.0</ele><time>2026-04-27T10:13:52.999Z</time></trkpt><trkpt lat="42.03592455062968" lon="13.673866615338554"><ele>839.0000000000001</ele><time>2026-04-27T10:13:53.999Z</time></trkpt><trkpt lat="42.03591101670932" lon="13.673751160544102"><ele>839.0</ele><time>2026-04-27T10:13:54.999Z</time></trkpt><trkpt lat="42.03590549049201" lon="13.673623618849009"><ele>839.0</ele><time>2026-04-27T10:13:55.999Z</time></trkpt><trkpt lat="42.035896373841595" lon="13.673505259688186"><ele>839.0</ele><time>2026-04-27T10:13:56.999Z</time></trkpt><trkpt lat="42.03589692283111" lon="13.67339741507403"><ele>839.0000000000001</ele><time>2026-04-27T10:13:57.999Z</time></trkpt><trkpt lat="42.03587484675877" lon="13.67328353255952"><ele>839.0</ele><time>2026-04-27T10:13:58.999Z</time></trkpt><trkpt lat="42.03585364393284" lon="13.673188156254604"><ele>839.3333333333334</ele><time>2026-04-27T10:13:59.999Z</time></trkpt><trkpt lat="42.03585205302565" lon="13.673096352210951"><ele>839.6666666666667</ele><time>2026-04-27T10:14:00.999Z</time></trkpt><trkpt lat="42.03587828230883" lon="13.672995511884293"><ele>840.0</ele><time>2026-04-27T10:14:01.999Z</time></trkpt><trkpt lat="42.03592356977628" lon="13.672890263730816"><ele>840.3333333333333</ele><time>2026-04-27T10:14:02.999Z</time></trkpt><trkpt lat="42.03598562839981" lon="13.67279311971369"><ele>840.6666666666666</ele><time>2026-04-27T10:14:03.999Z</time></trkpt><trkpt lat="42.03604561755342" lon="13.672687787753087"><ele>841.0</ele><time>2026-04-27T10:14:04.999Z</time></trkpt><trkpt lat="42.03609849954131" lon="13.672580377428757"><ele>840.3333333333333</ele><time>2026-04-27T10:14:05.999Z</time></trkpt><trkpt lat="42.03611503294804" lon="13.672481507225472"><ele>839.6666666666666</ele><time>2026-04-27T10:14:06.999Z</time></trkpt><trkpt lat="42.03611406421374" lon="13.672368775879507"><ele>839.0</ele><time>2026-04-27T10:14:07.999Z</time></trkpt><trkpt lat="42.0361154035222" lon="13.672249129909233"><ele>838.3333333333333</ele><time>2026-04-27T10:14:08.999Z</time></trkpt><trkpt lat="42.03614367322208" lon="13.67213578283904"><ele>837.6666666666666</ele><time>2026-04-27T10:14:09.999Z</time></trkpt><trkpt lat="42.03619059742802" lon="13.672009355549184"><ele>837.0</ele><time>2026-04-27T10:14:10.999Z</time></trkpt><trkpt lat="42.036247481387875" lon="13.671878672435104"><ele>836.2</ele><time>2026-04-27T10:14:11.999Z</time></trkpt><trkpt lat="42.03630210974132" lon="13.671745899308531"><ele>835.4000000000001</ele><time>2026-04-27T10:14:12.999Z</time></trkpt><trkpt lat="42.03635775756048" lon="13.67161105491588"><ele>834.5999999999999</ele><time>2026-04-27T10:14:13.999Z</time></trkpt><trkpt lat="42.036400207849674" lon="13.671494467046745"><ele>833.8</ele><time>2026-04-27T10:14:14.999Z</time></trkpt><trkpt lat="42.036433450280136" lon="13.671394723124118"><ele>833.0</ele><time>2026-04-27T10:14:15.999Z</time></trkpt><trkpt lat="42.03633319775953" lon="13.671351679769543"><ele>833.0000000000001</ele><time>2026-04-27T10:14:18.999Z</time></trkpt><trkpt lat="42.03624952792627" lon="13.671319702767994"><ele>833.0</ele><time>2026-04-27T10:14:20.999Z</time></trkpt><trkpt lat="42.03619003930552" lon="13.671291344686859"><ele>833.0</ele><time>2026-04-27T10:14:21.999Z</time></trkpt><trkpt lat="42.03611784506887" lon="13.671245984591485"><ele>833.0</ele><time>2026-04-27T10:14:22.999Z</time></trkpt><trkpt lat="42.036038673370676" lon="13.671182144692976"><ele>833.0000000000001</ele><time>2026-04-27T10:14:23.999Z</time></trkpt><trkpt lat="42.035955977013536" lon="13.671113876195538"><ele>833.0</ele><time>2026-04-27T10:14:24.999Z</time></trkpt><trkpt lat="42.03587584541744" lon="13.671051473980814"><ele>834.3333333333334</ele><time>2026-04-27T10:14:25.999Z</time></trkpt><trkpt lat="42.03580028018101" lon="13.670998686173018"><ele>835.6666666666667</ele><time>2026-04-27T10:14:26.999Z</time></trkpt><trkpt lat="42.03573219908079" lon="13.670949406724203"><ele>837.0</ele><time>2026-04-27T10:14:27.999Z</time></trkpt><trkpt lat="42.03566555652171" lon="13.670896235634387"><ele>838.3333333333333</ele><time>2026-04-27T10:14:28.999Z</time></trkpt><trkpt lat="42.03560742360263" lon="13.670838762546843"><ele>839.6666666666666</ele><time>2026-04-27T10:14:29.999Z</time></trkpt><trkpt lat="42.03557463862888" lon="13.670715405361294"><ele>841.0</ele><time>2026-04-27T10:14:31.999Z</time></trkpt><trkpt lat="42.035578955673586" lon="13.670613340230823"><ele>841.0</ele><time>2026-04-27T10:14:32.999Z</time></trkpt><trkpt lat="42.03559842171703" lon="13.67050379944214"><ele>841.0</ele><time>2026-04-27T10:14:33.999Z</time></trkpt><trkpt lat="42.03560971824696" lon="13.67041451931368"><ele>841.0</ele><time>2026-04-27T10:14:34.999Z</time></trkpt><trkpt lat="42.0356198274168" lon="13.670327743966208"><ele>841.0</ele><time>2026-04-27T10:14:35.999Z</time></trkpt><trkpt lat="42.035637362031025" lon="13.67024172446488"><ele>841.0</ele><time>2026-04-27T10:14:36.999Z</time></trkpt><trkpt lat="42.03564955520271" lon="13.670140816356898"><ele>841.0</ele><time>2026-04-27T10:14:37.999Z</time></trkpt><trkpt lat="42.03564329558215" lon="13.670019370380576"><ele>841.0</ele><time>2026-04-27T10:14:38.999Z</time></trkpt><trkpt lat="42.03562528480713" lon="13.669894061515683"><ele>841.4</ele><time>2026-04-27T10:14:39.999Z</time></trkpt><trkpt lat="42.03560598072263" lon="13.669768095350246"><ele>841.8</ele><time>2026-04-27T10:14:40.999Z</time></trkpt><trkpt lat="42.03558591296536" lon="13.669640145042026"><ele>842.1999999999999</ele><time>2026-04-27T10:14:41.999Z</time></trkpt><trkpt lat="42.03556748397466" lon="13.669519487166781"><ele>842.5999999999999</ele><time>2026-04-27T10:14:42.999Z</time></trkpt><trkpt lat="42.03556566715513" lon="13.669399632490814"><ele>843.0</ele><time>2026-04-27T10:14:43.999Z</time></trkpt><trkpt lat="42.0355964783098" lon="13.66928738625812"><ele>843.2</ele><time>2026-04-27T10:14:44.999Z</time></trkpt><trkpt lat="42.03565746900894" lon="13.669193087380178"><ele>843.4</ele><time>2026-04-27T10:14:45.999Z</time></trkpt><trkpt lat="42.03573412736691" lon="13.66911320454538"><ele>843.6</ele><time>2026-04-27T10:14:46.999Z</time></trkpt><trkpt lat="42.035819933813656" lon="13.669046972041686"><ele>843.8000000000001</ele><time>2026-04-27T10:14:47.999Z</time></trkpt><trkpt lat="42.03590530852307" lon="13.668976752144287"><ele>844.0</ele><time>2026-04-27T10:14:48.999Z</time></trkpt><trkpt lat="42.035988133824205" lon="13.668894376947598"><ele>843.8333333333333</ele><time>2026-04-27T10:14:49.999Z</time></trkpt><trkpt lat="42.03606653184747" lon="13.668813077367963"><ele>843.6666666666666</ele><time>2026-04-27T10:14:50.999Z</time></trkpt><trkpt lat="42.03614270545696" lon="13.668750419714758"><ele>843.5</ele><time>2026-04-27T10:14:51.999Z</time></trkpt><trkpt lat="42.036226775637594" lon="13.668696372866103"><ele>843.3333333333333</ele><time>2026-04-27T10:14:52.999Z</time></trkpt><trkpt lat="42.03629667757403" lon="13.668643355896815"><ele>843.1666666666666</ele><time>2026-04-27T10:14:53.999Z</time></trkpt><trkpt lat="42.03636204742882" lon="13.668584478297053"><ele>843.0</ele><time>2026-04-27T10:14:55.998Z</time></trkpt><trkpt lat="42.036443997107234" lon="13.668607181065397"><ele>842.6666666666666</ele><time>2026-04-27T10:14:57.998Z</time></trkpt><trkpt lat="42.0365160811251" lon="13.668645756935046"><ele>842.3333333333333</ele><time>2026-04-27T10:14:58.998Z</time></trkpt><trkpt lat="42.0365995617338" lon="13.668681362555699"><ele>842.0</ele><time>2026-04-27T10:14:59.998Z</time></trkpt><trkpt lat="42.03667404888525" lon="13.66870153041278"><ele>841.6666666666666</ele><time>2026-04-27T10:15:00.998Z</time></trkpt><trkpt lat="42.036757700982974" lon="13.668728023641917"><ele>841.3333333333333</ele><time>2026-04-27T10:15:01.998Z</time></trkpt><trkpt lat="42.036850934388724" lon="13.668765866482069"><ele>841.0</ele><time>2026-04-27T10:15:02.998Z</time></trkpt><trkpt lat="42.03693574645142" lon="13.668799050705644"><ele>842.4999999999999</ele><time>2026-04-27T10:15:03.998Z</time></trkpt><trkpt lat="42.03699664306715" lon="13.66882126281664"><ele>844.0</ele><time>2026-04-27T10:15:04.998Z</time></trkpt><trkpt lat="42.03710383875357" lon="13.668822805247492"><ele>845.5</ele><time>2026-04-27T10:17:21.998Z</time></trkpt><trkpt lat="42.03716963334748" lon="13.66882330960685"><ele>847.0</ele><time>2026-04-27T10:17:22.998Z</time></trkpt><trkpt lat="42.03723708888948" lon="13.668726226044123"><ele>848.4999999999999</ele><time>2026-04-27T10:17:24.998Z</time></trkpt><trkpt lat="42.03725578100006" lon="13.668644518641411"><ele>850.0</ele><time>2026-04-27T10:17:25.998Z</time></trkpt><trkpt lat="42.03727235869033" lon="13.668558562378022"><ele>850.1666666666666</ele><time>2026-04-27T10:17:26.998Z</time></trkpt><trkpt lat="42.03729506501696" lon="13.66845525545266"><ele>850.3333333333333</ele><time>2026-04-27T10:17:28Z</time></trkpt><trkpt lat="42.037315917585545" lon="13.668352092643325"><ele>850.5</ele><time>2026-04-27T10:17:29Z</time></trkpt><trkpt lat="42.03733798514962" lon="13.668231509857787"><ele>850.6666666666667</ele><time>2026-04-27T10:17:30Z</time></trkpt><trkpt lat="42.03735925991289" lon="13.668123334923063"><ele>850.8333333333334</ele><time>2026-04-27T10:17:31Z</time></trkpt><trkpt lat="42.037383584613515" lon="13.66800079895501"><ele>851.0</ele><time>2026-04-27T10:17:32Z</time></trkpt><trkpt lat="42.037414725808816" lon="13.667860354314124"><ele>851.0</ele><time>2026-04-27T10:17:33Z</time></trkpt><trkpt lat="42.037439813014046" lon="13.667714167460918"><ele>851.0</ele><time>2026-04-27T10:17:34Z</time></trkpt><trkpt lat="42.03745749376491" lon="13.667567652505504"><ele>851.0</ele><time>2026-04-27T10:17:35Z</time></trkpt><trkpt lat="42.03746737700605" lon="13.667425647485931"><ele>851.0</ele><time>2026-04-27T10:17:36Z</time></trkpt><trkpt lat="42.03748147848809" lon="13.667285055891043"><ele>851.0</ele><time>2026-04-27T10:17:37Z</time></trkpt><trkpt lat="42.03750628669531" lon="13.66713429052876"><ele>851.4</ele><time>2026-04-27T10:17:38Z</time></trkpt><trkpt lat="42.0375413344198" lon="13.666998604073948"><ele>851.8</ele><time>2026-04-27T10:17:39Z</time></trkpt><trkpt lat="42.03758932546603" lon="13.666876742335818"><ele>852.1999999999999</ele><time>2026-04-27T10:17:40Z</time></trkpt><trkpt lat="42.03766108702876" lon="13.666754759917076"><ele>852.5999999999999</ele><time>2026-04-27T10:17:41Z</time></trkpt><trkpt lat="42.03773884760379" lon="13.66664564101028"><ele>853.0</ele><time>2026-04-27T10:17:42Z</time></trkpt><trkpt lat="42.03780920306028" lon="13.666530117605374"><ele>853.0</ele><time>2026-04-27T10:17:43Z</time></trkpt><trkpt lat="42.03786376704622" lon="13.666377292664848"><ele>853.0</ele><time>2026-04-27T10:17:44Z</time></trkpt><trkpt lat="42.037903122462474" lon="13.666187783790233"><ele>853.0</ele><time>2026-04-27T10:17:45Z</time></trkpt><trkpt lat="42.03794089299467" lon="13.665999212817976"><ele>853.0</ele><time>2026-04-27T10:17:46Z</time></trkpt><trkpt lat="42.03797436341879" lon="13.665807292829763"><ele>853.0</ele><time>2026-04-27T10:17:47Z</time></trkpt><trkpt lat="42.03800257243572" lon="13.665624615460336"><ele>853.0</ele><time>2026-04-27T10:17:48Z</time></trkpt><trkpt lat="42.03801950933734" lon="13.66546372388803"><ele>853.0</ele><time>2026-04-27T10:17:49Z</time></trkpt><trkpt lat="42.038040986602056" lon="13.665357260038885"><ele>853.0</ele><time>2026-04-27T10:17:51Z</time></trkpt><trkpt lat="42.03809919171972" lon="13.665392469398428"><ele>853.0</ele><time>2026-04-27T10:17:53.999Z</time></trkpt><trkpt lat="42.038075099714554" lon="13.66552628972875"><ele>852.9999999999999</ele><time>2026-04-27T10:17:56.999Z</time></trkpt><trkpt lat="42.038066686621015" lon="13.665616525955382"><ele>853.0</ele><time>2026-04-27T10:17:58.999Z</time></trkpt><trkpt lat="42.038110186576816" lon="13.665692344679762"><ele>853.0</ele><time>2026-04-27T10:18:00.999Z</time></trkpt><trkpt lat="42.03818119488262" lon="13.665721288051142"><ele>853.0</ele><time>2026-04-27T10:18:02.999Z</time></trkpt><trkpt lat="42.038247922397844" lon="13.665754817489367"><ele>852.9999999999999</ele><time>2026-04-27T10:18:05.999Z</time></trkpt><trkpt lat="42.038335821554206" lon="13.665752912310083"><ele>853.0</ele><time>2026-04-27T10:18:07.999Z</time></trkpt><trkpt lat="42.0383664474632" lon="13.66564574025366"><ele>853.1428571428571</ele><time>2026-04-27T10:18:09.999Z</time></trkpt><trkpt lat="42.038369593089996" lon="13.665558327703963"><ele>853.2857142857143</ele><time>2026-04-27T10:18:10.999Z</time></trkpt><trkpt lat="42.038381396215534" lon="13.66545252641606"><ele>853.4285714285714</ele><time>2026-04-27T10:18:11.999Z</time></trkpt><trkpt lat="42.03839416398906" lon="13.665347154278283"><ele>853.5714285714286</ele><time>2026-04-27T10:18:12.999Z</time></trkpt><trkpt lat="42.03840992854995" lon="13.66525645744055"><ele>853.7142857142858</ele><time>2026-04-27T10:18:13.999Z</time></trkpt><trkpt lat="42.03842463475034" lon="13.66516934798071"><ele>853.8571428571429</ele><time>2026-04-27T10:18:14.999Z</time></trkpt><trkpt lat="42.038444077637" lon="13.665070441925554"><ele>854.0</ele><time>2026-04-27T10:18:15.999Z</time></trkpt><trkpt lat="42.038463586435945" lon="13.664963421717504"><ele>854.0000000000001</ele><time>2026-04-27T10:18:16.999Z</time></trkpt><trkpt lat="42.03848143437032" lon="13.664859145047792"><ele>854.0</ele><time>2026-04-27T10:18:17.999Z</time></trkpt><trkpt lat="42.03850142071236" lon="13.664762116514032"><ele>854.0</ele><time>2026-04-27T10:18:18.999Z</time></trkpt><trkpt lat="42.038520984895285" lon="13.66465532164646"><ele>854.0</ele><time>2026-04-27T10:18:19.999Z</time></trkpt><trkpt lat="42.03854305397169" lon="13.664554575287458"><ele>854.0000000000001</ele><time>2026-04-27T10:18:20.999Z</time></trkpt><trkpt lat="42.038564031974154" lon="13.66445695217352"><ele>854.0</ele><time>2026-04-27T10:18:21.999Z</time></trkpt><trkpt lat="42.03858168024097" lon="13.664347724790643"><ele>854.4000000000001</ele><time>2026-04-27T10:18:22.999Z</time></trkpt><trkpt lat="42.03860287990306" lon="13.664245006718861"><ele>854.8000000000001</ele><time>2026-04-27T10:18:23.999Z</time></trkpt><trkpt lat="42.038622240560514" lon="13.664127610260987"><ele>855.1999999999999</ele><time>2026-04-27T10:18:24.999Z</time></trkpt><trkpt lat="42.0386414914379" lon="13.664004859256078"><ele>855.5999999999999</ele><time>2026-04-27T10:18:25.999Z</time></trkpt><trkpt lat="42.03866252645332" lon="13.66388278104734"><ele>856.0</ele><time>2026-04-27T10:18:26.999Z</time></trkpt><trkpt lat="42.03868767528574" lon="13.663754617320647"><ele>856.0</ele><time>2026-04-27T10:18:27.999Z</time></trkpt><trkpt lat="42.038722334255205" lon="13.663636111819308"><ele>855.9999999999999</ele><time>2026-04-27T10:18:28.999Z</time></trkpt><trkpt lat="42.03875917511991" lon="13.66351749095912"><ele>855.9999999999999</ele><time>2026-04-27T10:18:29.999Z</time></trkpt><trkpt lat="42.03880075694379" lon="13.663408988768612"><ele>856.0</ele><time>2026-04-27T10:18:30.999Z</time></trkpt><trkpt lat="42.0388482146602" lon="13.663292913473123"><ele>856.0</ele><time>2026-04-27T10:18:31.999Z</time></trkpt><trkpt lat="42.03889596440987" lon="13.663165333732676"><ele>856.1999999999999</ele><time>2026-04-27T10:18:32.999Z</time></trkpt><trkpt lat="42.038939019727415" lon="13.663045018774817"><ele>856.3999999999999</ele><time>2026-04-27T10:18:33.999Z</time></trkpt><trkpt lat="42.03897354441999" lon="13.662925292998638"><ele>856.6</ele><time>2026-04-27T10:18:34.999Z</time></trkpt><trkpt lat="42.03900721223118" lon="13.662799692182805"><ele>856.8</ele><time>2026-04-27T10:18:35.999Z</time></trkpt><trkpt lat="42.03902973023472" lon="13.662679298364987"><ele>857.0</ele><time>2026-04-27T10:18:36.999Z</time></trkpt><trkpt lat="42.03905362514711" lon="13.662546004533747"><ele>857.6</ele><time>2026-04-27T10:18:37.999Z</time></trkpt><trkpt lat="42.03907920857432" lon="13.662397124976827"><ele>858.2</ele><time>2026-04-27T10:18:38.999Z</time></trkpt><trkpt lat="42.03911437100316" lon="13.662253186523495"><ele>858.8</ele><time>2026-04-27T10:18:39.999Z</time></trkpt><trkpt lat="42.039148846254676" lon="13.662109682830389"><ele>859.4</ele><time>2026-04-27T10:18:40.999Z</time></trkpt><trkpt lat="42.039188487448264" lon="13.661980666032429"><ele>860.0</ele><time>2026-04-27T10:18:41.999Z</time></trkpt><trkpt lat="42.03923134102025" lon="13.661829172254325"><ele>860.75</ele><time>2026-04-27T10:18:42.999Z</time></trkpt><trkpt lat="42.03928110956007" lon="13.661675867314719"><ele>861.5</ele><time>2026-04-27T10:18:43.999Z</time></trkpt><trkpt lat="42.039340200041885" lon="13.66151771451656"><ele>862.25</ele><time>2026-04-27T10:18:44.999Z</time></trkpt><trkpt lat="42.03940130825084" lon="13.661364283101296"><ele>863.0</ele><time>2026-04-27T10:18:45.999Z</time></trkpt><trkpt lat="42.03945853616659" lon="13.661206344636527"><ele>862.0</ele><time>2026-04-27T10:18:46.999Z</time></trkpt><trkpt lat="42.039520130986205" lon="13.661051905827202"><ele>861.0</ele><time>2026-04-27T10:18:47.999Z</time></trkpt><trkpt lat="42.039589533311805" lon="13.660900027926237"><ele>860.0</ele><time>2026-04-27T10:18:48.999Z</time></trkpt><trkpt lat="42.039652320335314" lon="13.660762826871322"><ele>859.0</ele><time>2026-04-27T10:18:49.999Z</time></trkpt><trkpt lat="42.03971696983349" lon="13.660624768957137"><ele>859.0</ele><time>2026-04-27T10:18:50.999Z</time></trkpt><trkpt lat="42.039775093554404" lon="13.660496841320096"><ele>859.0000000000001</ele><time>2026-04-27T10:18:51.999Z</time></trkpt><trkpt lat="42.03982467842285" lon="13.66038314826628"><ele>859.0000000000001</ele><time>2026-04-27T10:18:52.999Z</time></trkpt><trkpt lat="42.03987777109059" lon="13.660264104381376"><ele>859.0</ele><time>2026-04-27T10:18:53.999Z</time></trkpt><trkpt lat="42.039929923371254" lon="13.660128702911729"><ele>859.0</ele><time>2026-04-27T10:18:54.999Z</time></trkpt><trkpt lat="42.03997793047392" lon="13.65997378933752"><ele>858.75</ele><time>2026-04-27T10:18:55.999Z</time></trkpt><trkpt lat="42.04004203052238" lon="13.659819700248091"><ele>858.5</ele><time>2026-04-27T10:18:56.998Z</time></trkpt><trkpt lat="42.0401243250319" lon="13.659695101186884"><ele>858.25</ele><time>2026-04-27T10:18:57.998Z</time></trkpt><trkpt lat="42.04022645824681" lon="13.659562934874211"><ele>858.0</ele><time>2026-04-27T10:18:58.998Z</time></trkpt><trkpt lat="42.04032328563271" lon="13.659443052557044"><ele>858.0</ele><time>2026-04-27T10:18:59.998Z</time></trkpt><trkpt lat="42.04043285580919" lon="13.65932906984101"><ele>858.0</ele><time>2026-04-27T10:19:00.998Z</time></trkpt><trkpt lat="42.0405515518487" lon="13.659234734253035"><ele>858.0</ele><time>2026-04-27T10:19:01.998Z</time></trkpt><trkpt lat="42.04066043033557" lon="13.659183910157484"><ele>858.0</ele><time>2026-04-27T10:19:02.998Z</time></trkpt><trkpt lat="42.04074616737682" lon="13.65911310103281"><ele>858.3333333333334</ele><time>2026-04-27T10:19:03.998Z</time></trkpt><trkpt lat="42.04081063706445" lon="13.659059395192894"><ele>858.6666666666667</ele><time>2026-04-27T10:19:04.998Z</time></trkpt><trkpt lat="42.04087165946942" lon="13.659013213049256"><ele>859.0</ele><time>2026-04-27T10:19:05.998Z</time></trkpt><trkpt lat="42.04093515283813" lon="13.658944155556492"><ele>859.3333333333334</ele><time>2026-04-27T10:19:06.998Z</time></trkpt><trkpt lat="42.041002392542566" lon="13.658867363205154"><ele>859.6666666666667</ele><time>2026-04-27T10:19:07.998Z</time></trkpt><trkpt lat="42.0410868208955" lon="13.658797499775702"><ele>860.0</ele><time>2026-04-27T10:19:08.998Z</time></trkpt><trkpt lat="42.04119143533831" lon="13.658691839010432"><ele>860.0</ele><time>2026-04-27T10:19:09.998Z</time></trkpt><trkpt lat="42.04128221487041" lon="13.658595355629181"><ele>860.0</ele><time>2026-04-27T10:19:10.998Z</time></trkpt><trkpt lat="42.04139012219558" lon="13.658495996953887"><ele>860.0</ele><time>2026-04-27T10:19:11.998Z</time></trkpt><trkpt lat="42.041509888873684" lon="13.658409412263154"><ele>860.0</ele><time>2026-04-27T10:19:12.998Z</time></trkpt><trkpt lat="42.04164016307245" lon="13.658331257069356"><ele>860.25</ele><time>2026-04-27T10:19:13.998Z</time></trkpt><trkpt lat="42.04176800197045" lon="13.65824657529563"><ele>860.5</ele><time>2026-04-27T10:19:14.998Z</time></trkpt><trkpt lat="42.04189093223745" lon="13.658156193012418"><ele>860.75</ele><time>2026-04-27T10:19:15.998Z</time></trkpt><trkpt lat="42.042005611021274" lon="13.658077210167338"><ele>861.0</ele><time>2026-04-27T10:19:16.998Z</time></trkpt><trkpt lat="42.04212822346982" lon="13.65800777134122"><ele>861.0</ele><time>2026-04-27T10:19:17.998Z</time></trkpt><trkpt lat="42.0422655228653" lon="13.657960952025359"><ele>861.0</ele><time>2026-04-27T10:19:18.998Z</time></trkpt><trkpt lat="42.04239217512638" lon="13.657910278114734"><ele>861.0</ele><time>2026-04-27T10:19:19.998Z</time></trkpt><trkpt lat="42.04249211726771" lon="13.65786405965273"><ele>861.0</ele><time>2026-04-27T10:19:20.998Z</time></trkpt><trkpt lat="42.04255912669148" lon="13.65783567467353"><ele>860.6666666666666</ele><time>2026-04-27T10:19:21.998Z</time></trkpt><trkpt lat="42.04262591781726" lon="13.657830680132538"><ele>860.3333333333333</ele><time>2026-04-27T10:19:25.998Z</time></trkpt><trkpt lat="42.04269655341818" lon="13.657838958994581"><ele>860.0</ele><time>2026-04-27T10:19:28.998Z</time></trkpt><trkpt lat="42.042842604842185" lon="13.65791077694683"><ele>859.6666666666666</ele><time>2026-04-27T10:19:30.998Z</time></trkpt><trkpt lat="42.042907320756065" lon="13.657951125254089"><ele>859.3333333333333</ele><time>2026-04-27T10:19:31.998Z</time></trkpt><trkpt lat="42.042975354615145" lon="13.657979406496704"><ele>859.0</ele><time>2026-04-27T10:19:32.998Z</time></trkpt><trkpt lat="42.04304444015181" lon="13.65798983068945"><ele>858.9999999999999</ele><time>2026-04-27T10:19:34Z</time></trkpt><trkpt lat="42.04311603325857" lon="13.657992698661106"><ele>859.0</ele><time>2026-04-27T10:19:35Z</time></trkpt><trkpt lat="42.043190396547494" lon="13.657967334839949"><ele>859.0</ele><time>2026-04-27T10:19:36Z</time></trkpt><trkpt lat="42.04324864753398" lon="13.6579106439542"><ele>859.0</ele><time>2026-04-27T10:19:37Z</time></trkpt><trkpt lat="42.04335682509408" lon="13.657825251430994"><ele>858.9999999999999</ele><time>2026-04-27T10:19:39Z</time></trkpt><trkpt lat="42.043426757042994" lon="13.657773104397693"><ele>859.0</ele><time>2026-04-27T10:19:40Z</time></trkpt><trkpt lat="42.04350660988009" lon="13.657731822183248"><ele>858.8000000000001</ele><time>2026-04-27T10:19:41Z</time></trkpt><trkpt lat="42.043597097149586" lon="13.657686391821253"><ele>858.6000000000001</ele><time>2026-04-27T10:19:42Z</time></trkpt><trkpt lat="42.0436888715092" lon="13.657637181891237"><ele>858.4</ele><time>2026-04-27T10:19:43Z</time></trkpt><trkpt lat="42.04380365077685" lon="13.657585527385889"><ele>858.2</ele><time>2026-04-27T10:19:44Z</time></trkpt><trkpt lat="42.04392725726271" lon="13.657536528621767"><ele>858.0</ele><time>2026-04-27T10:19:45Z</time></trkpt><trkpt lat="42.0440369013684" lon="13.657506454204924"><ele>858.5999999999999</ele><time>2026-04-27T10:19:46Z</time></trkpt><trkpt lat="42.04413350281303" lon="13.65752324659168"><ele>859.1999999999999</ele><time>2026-04-27T10:19:47Z</time></trkpt><trkpt lat="42.04420315903708" lon="13.65756628057363"><ele>859.8</ele><time>2026-04-27T10:19:48Z</time></trkpt><trkpt lat="42.04429866352524" lon="13.657578318501916"><ele>860.4</ele><time>2026-04-27T10:19:49Z</time></trkpt><trkpt lat="42.044420357663434" lon="13.65753217065424"><ele>861.0</ele><time>2026-04-27T10:19:50Z</time></trkpt><trkpt lat="42.044540604032555" lon="13.657485224273012"><ele>861.0</ele><time>2026-04-27T10:19:51Z</time></trkpt><trkpt lat="42.044663719013016" lon="13.657425254428794"><ele>861.0</ele><time>2026-04-27T10:19:52Z</time></trkpt><trkpt lat="42.04477257085288" lon="13.657354923460598"><ele>861.0</ele><time>2026-04-27T10:19:53Z</time></trkpt><trkpt lat="42.04487907325004" lon="13.657304044355298"><ele>861.0</ele><time>2026-04-27T10:19:54Z</time></trkpt><trkpt lat="42.045003355064594" lon="13.657278564732607"><ele>861.5</ele><time>2026-04-27T10:19:54.999Z</time></trkpt><trkpt lat="42.04510826938507" lon="13.657269276922278"><ele>862.0</ele><time>2026-04-27T10:19:55.999Z</time></trkpt><trkpt lat="42.04522275450508" lon="13.657246591252981"><ele>862.5</ele><time>2026-04-27T10:19:56.999Z</time></trkpt><trkpt lat="42.04534867726776" lon="13.657234869438856"><ele>863.0</ele><time>2026-04-27T10:19:57.999Z</time></trkpt><trkpt lat="42.045492711831486" lon="13.657208164533689"><ele>863.0</ele><time>2026-04-27T10:19:58.999Z</time></trkpt><trkpt lat="42.045634618002204" lon="13.657153345872599"><ele>863.0</ele><time>2026-04-27T10:19:59.999Z</time></trkpt><trkpt lat="42.04578936207342" lon="13.657068509633032"><ele>863.0</ele><time>2026-04-27T10:20:00.999Z</time></trkpt><trkpt lat="42.045921404701176" lon="13.656983650939274"><ele>861.75</ele><time>2026-04-27T10:20:01.999Z</time></trkpt><trkpt lat="42.04604642651631" lon="13.656898976530233"><ele>860.5</ele><time>2026-04-27T10:20:02.999Z</time></trkpt><trkpt lat="42.04615905315597" lon="13.656789830246282"><ele>859.25</ele><time>2026-04-27T10:20:03.999Z</time></trkpt><trkpt lat="42.0462663839568" lon="13.656698724043508"><ele>858.0</ele><time>2026-04-27T10:20:04.999Z</time></trkpt><trkpt lat="42.0463803338076" lon="13.65662218304671"><ele>858.0</ele><time>2026-04-27T10:20:05.999Z</time></trkpt><trkpt lat="42.04649121360263" lon="13.656528011380852"><ele>858.0</ele><time>2026-04-27T10:20:06.999Z</time></trkpt><trkpt lat="42.04660127863187" lon="13.656415371479788"><ele>858.0</ele><time>2026-04-27T10:20:07.999Z</time></trkpt><trkpt lat="42.04670470077899" lon="13.656311984874916"><ele>858.0</ele><time>2026-04-27T10:20:08.999Z</time></trkpt><trkpt lat="42.04680586707264" lon="13.656231415991982"><ele>857.75</ele><time>2026-04-27T10:20:09.999Z</time></trkpt><trkpt lat="42.04693182311223" lon="13.656155284371707"><ele>857.5</ele><time>2026-04-27T10:20:10.999Z</time></trkpt><trkpt lat="42.04706611377878" lon="13.65608488834795"><ele>857.25</ele><time>2026-04-27T10:20:11.999Z</time></trkpt><trkpt lat="42.04720035904757" lon="13.656008169838682"><ele>857.0</ele><time>2026-04-27T10:20:12.999Z</time></trkpt><trkpt lat="42.04732853032057" lon="13.65589998983861"><ele>857.0</ele><time>2026-04-27T10:20:13.999Z</time></trkpt><trkpt lat="42.04744936584483" lon="13.65578111317089"><ele>857.0</ele><time>2026-04-27T10:20:14.999Z</time></trkpt><trkpt lat="42.04756548515458" lon="13.655668074583605"><ele>857.0</ele><time>2026-04-27T10:20:15.999Z</time></trkpt><trkpt lat="42.04767857030852" lon="13.655559085564645"><ele>857.0</ele><time>2026-04-27T10:20:16.999Z</time></trkpt><trkpt lat="42.04779370081895" lon="13.655439138884368"><ele>857.0</ele><time>2026-04-27T10:20:17.999Z</time></trkpt><trkpt lat="42.04790214290321" lon="13.655287723763315"><ele>857.0</ele><time>2026-04-27T10:20:18.999Z</time></trkpt><trkpt lat="42.048004184560156" lon="13.65511691786563"><ele>857.0</ele><time>2026-04-27T10:20:19.999Z</time></trkpt><trkpt lat="42.04810663888355" lon="13.654955842913445"><ele>857.0</ele><time>2026-04-27T10:20:20.999Z</time></trkpt><trkpt lat="42.04821023335126" lon="13.654809905988747"><ele>857.0</ele><time>2026-04-27T10:20:21.999Z</time></trkpt><trkpt lat="42.04831066713414" lon="13.654660221472266"><ele>857.0</ele><time>2026-04-27T10:20:22.999Z</time></trkpt><trkpt lat="42.04836065057221" lon="13.654537003118437"><ele>857.0</ele><time>2026-04-27T10:20:23.999Z</time></trkpt><trkpt lat="42.04844101821135" lon="13.654388904592475"><ele>857.5</ele><time>2026-04-27T10:20:24.999Z</time></trkpt><trkpt lat="42.0485326174724" lon="13.654273451588868"><ele>858.0</ele><time>2026-04-27T10:20:25.999Z</time></trkpt><trkpt lat="42.04865313067082" lon="13.65417210977068"><ele>858.5</ele><time>2026-04-27T10:20:26.999Z</time></trkpt><trkpt lat="42.04877036436965" lon="13.654072202767482"><ele>859.0</ele><time>2026-04-27T10:20:27.999Z</time></trkpt><trkpt lat="42.04886222261684" lon="13.653943802092975"><ele>859.0</ele><time>2026-04-27T10:20:28.999Z</time></trkpt><trkpt lat="42.04895582205093" lon="13.653815818070514"><ele>859.0</ele><time>2026-04-27T10:20:29.999Z</time></trkpt><trkpt lat="42.049071719126836" lon="13.65371156404207"><ele>859.0</ele><time>2026-04-27T10:20:30.999Z</time></trkpt><trkpt lat="42.04918833794788" lon="13.653612560761173"><ele>859.0</ele><time>2026-04-27T10:20:31.999Z</time></trkpt><trkpt lat="42.04929567193601" lon="13.653491021923468"><ele>858.5</ele><time>2026-04-27T10:20:32.999Z</time></trkpt><trkpt lat="42.0493899827036" lon="13.653343849888119"><ele>858.0</ele><time>2026-04-27T10:20:33.999Z</time></trkpt><trkpt lat="42.049480545045675" lon="13.653191395135398"><ele>857.5</ele><time>2026-04-27T10:20:34.999Z</time></trkpt><trkpt lat="42.049578439753816" lon="13.653074670737526"><ele>857.0</ele><time>2026-04-27T10:20:35.999Z</time></trkpt><trkpt lat="42.04965835396559" lon="13.652975129740746"><ele>857.0</ele><time>2026-04-27T10:20:36.999Z</time></trkpt><trkpt lat="42.04971352422506" lon="13.652869192585463"><ele>857.0</ele><time>2026-04-27T10:20:37.999Z</time></trkpt><trkpt lat="42.0497516880828" lon="13.652758155582065"><ele>857.0</ele><time>2026-04-27T10:20:38.999Z</time></trkpt><trkpt lat="42.04981618298655" lon="13.652626965078053"><ele>857.0</ele><time>2026-04-27T10:20:39.999Z</time></trkpt><trkpt lat="42.04990900674115" lon="13.652516322438494"><ele>857.0</ele><time>2026-04-27T10:20:40.999Z</time></trkpt><trkpt lat="42.049976661425646" lon="13.652461162401798"><ele>857.1666666666667</ele><time>2026-04-27T10:20:41.999Z</time></trkpt><trkpt lat="42.05003776546633" lon="13.65242927620941"><ele>857.3333333333334</ele><time>2026-04-27T10:20:42.999Z</time></trkpt><trkpt lat="42.05012955609717" lon="13.652400039889878"><ele>857.5</ele><time>2026-04-27T10:20:43.999Z</time></trkpt><trkpt lat="42.05021540784328" lon="13.652380706458242"><ele>857.6666666666667</ele><time>2026-04-27T10:20:44.999Z</time></trkpt><trkpt lat="42.050291278605" lon="13.652347887192386"><ele>857.8333333333334</ele><time>2026-04-27T10:20:45.999Z</time></trkpt><trkpt lat="42.050364965957954" lon="13.652285287013337"><ele>858.0</ele><time>2026-04-27T10:20:46.999Z</time></trkpt><trkpt lat="42.05045055449544" lon="13.652199625620188"><ele>858.0</ele><time>2026-04-27T10:20:47.999Z</time></trkpt><trkpt lat="42.050546369904275" lon="13.652091340729616"><ele>858.0</ele><time>2026-04-27T10:20:48.999Z</time></trkpt><trkpt lat="42.05063883992137" lon="13.651974186084312"><ele>858.0</ele><time>2026-04-27T10:20:49.999Z</time></trkpt><trkpt lat="42.05071820337432" lon="13.651849119333196"><ele>858.0</ele><time>2026-04-27T10:20:50.999Z</time></trkpt><trkpt lat="42.05078218150019" lon="13.651722569386497"><ele>859.0</ele><time>2026-04-27T10:20:51.999Z</time></trkpt><trkpt lat="42.05083400559559" lon="13.651591065222322"><ele>860.0</ele><time>2026-04-27T10:20:52.999Z</time></trkpt><trkpt lat="42.05088477014895" lon="13.651447511296736"><ele>861.0</ele><time>2026-04-27T10:20:53.999Z</time></trkpt><trkpt lat="42.05094071137918" lon="13.651293608559676"><ele>862.0</ele><time>2026-04-27T10:20:54.999Z</time></trkpt><trkpt lat="42.050977151753784" lon="13.651143682882374"><ele>861.0</ele><time>2026-04-27T10:20:55.999Z</time></trkpt><trkpt lat="42.05097198860848" lon="13.651000335354391"><ele>860.0</ele><time>2026-04-27T10:20:56.999Z</time></trkpt><trkpt lat="42.050931851318204" lon="13.65085599015314"><ele>859.0</ele><time>2026-04-27T10:20:57.999Z</time></trkpt><trkpt lat="42.05088214767354" lon="13.65071019621971"><ele>858.0</ele><time>2026-04-27T10:20:58.999Z</time></trkpt><trkpt lat="42.050844654400215" lon="13.650555978866555"><ele>858.0</ele><time>2026-04-27T10:20:59.998Z</time></trkpt><trkpt lat="42.05083344829409" lon="13.650421812083872"><ele>858.0</ele><time>2026-04-27T10:21:00.998Z</time></trkpt><trkpt lat="42.05084301172065" lon="13.650313385733943"><ele>858.0</ele><time>2026-04-27T10:21:01.998Z</time></trkpt><trkpt lat="42.050878348295655" lon="13.650216808987842"><ele>858.0</ele><time>2026-04-27T10:21:02.998Z</time></trkpt><trkpt lat="42.050917546705165" lon="13.650120944558289"><ele>858.0</ele><time>2026-04-27T10:21:03.998Z</time></trkpt><trkpt lat="42.05097987233102" lon="13.650047019209373"><ele>858.0</ele><time>2026-04-27T10:21:04.998Z</time></trkpt><trkpt lat="42.05107502759873" lon="13.649995534978462"><ele>856.75</ele><time>2026-04-27T10:21:05.998Z</time></trkpt><trkpt lat="42.05116758019532" lon="13.649897511405081"><ele>855.5</ele><time>2026-04-27T10:21:06.998Z</time></trkpt><trkpt lat="42.05125146323329" lon="13.649740029140554"><ele>854.25</ele><time>2026-04-27T10:21:07.998Z</time></trkpt><trkpt lat="42.05134694162957" lon="13.64958847068712"><ele>853.0</ele><time>2026-04-27T10:21:08.998Z</time></trkpt><trkpt lat="42.05144875684538" lon="13.649434147701287"><ele>852.75</ele><time>2026-04-27T10:21:09.998Z</time></trkpt><trkpt lat="42.0515337223787" lon="13.649261572826918"><ele>852.5</ele><time>2026-04-27T10:21:10.998Z</time></trkpt><trkpt lat="42.05159348512857" lon="13.64908153651489"><ele>852.25</ele><time>2026-04-27T10:21:11.998Z</time></trkpt><trkpt lat="42.051635255248954" lon="13.648908014852527"><ele>852.0</ele><time>2026-04-27T10:21:12.998Z</time></trkpt><trkpt lat="42.05166966096591" lon="13.64876077531461"><ele>852.0</ele><time>2026-04-27T10:21:13.998Z</time></trkpt><trkpt lat="42.051735274473884" lon="13.648639282773416"><ele>852.0</ele><time>2026-04-27T10:21:14.998Z</time></trkpt><trkpt lat="42.05182906407731" lon="13.64851578613457"><ele>852.0</ele><time>2026-04-27T10:21:15.998Z</time></trkpt><trkpt lat="42.05193457879443" lon="13.648389054042743"><ele>852.0</ele><time>2026-04-27T10:21:16.998Z</time></trkpt><trkpt lat="42.052045024379765" lon="13.648258988082143"><ele>852.0</ele><time>2026-04-27T10:21:17.998Z</time></trkpt><trkpt lat="42.05216084537631" lon="13.648118591331537"><ele>852.0</ele><time>2026-04-27T10:21:18.998Z</time></trkpt><trkpt lat="42.052277745807565" lon="13.647987011814136"><ele>852.0</ele><time>2026-04-27T10:21:19.998Z</time></trkpt><trkpt lat="42.05239952008705" lon="13.647849261791572"><ele>852.3333333333333</ele><time>2026-04-27T10:21:20.998Z</time></trkpt><trkpt lat="42.05251820165081" lon="13.64771516223593"><ele>852.6666666666666</ele><time>2026-04-27T10:21:21.998Z</time></trkpt><trkpt lat="42.05263876062801" lon="13.647586658093154"><ele>853.0</ele><time>2026-04-27T10:21:22.998Z</time></trkpt><trkpt lat="42.052745067553325" lon="13.647442782342676"><ele>853.0</ele><time>2026-04-27T10:21:23.998Z</time></trkpt><trkpt lat="42.052853920685436" lon="13.647294700490919"><ele>853.0</ele><time>2026-04-27T10:21:24.998Z</time></trkpt><trkpt lat="42.05296342385828" lon="13.647169913694038"><ele>853.0</ele><time>2026-04-27T10:21:25.998Z</time></trkpt><trkpt lat="42.05308329936964" lon="13.647073013322421"><ele>853.0</ele><time>2026-04-27T10:21:26.998Z</time></trkpt><trkpt lat="42.05319743822254" lon="13.646974959480685"><ele>853.5</ele><time>2026-04-27T10:21:27.998Z</time></trkpt><trkpt lat="42.053311083569746" lon="13.646862364583644"><ele>854.0</ele><time>2026-04-27T10:21:28.998Z</time></trkpt><trkpt lat="42.053430423593646" lon="13.646744563028314"><ele>854.5</ele><time>2026-04-27T10:21:29.998Z</time></trkpt><trkpt lat="42.05354991201892" lon="13.646615748195522"><ele>855.0</ele><time>2026-04-27T10:21:30.998Z</time></trkpt><trkpt lat="42.05367047774167" lon="13.646485729842402"><ele>855.0</ele><time>2026-04-27T10:21:31.998Z</time></trkpt><trkpt lat="42.05379299286852" lon="13.646341667966428"><ele>855.0</ele><time>2026-04-27T10:21:32.998Z</time></trkpt><trkpt lat="42.053920035276796" lon="13.646185564606162"><ele>855.0</ele><time>2026-04-27T10:21:33.998Z</time></trkpt><trkpt lat="42.05404850367561" lon="13.64602991511037"><ele>854.3333333333333</ele><time>2026-04-27T10:21:34.998Z</time></trkpt><trkpt lat="42.05417787033639" lon="13.645877916522029"><ele>853.6666666666666</ele><time>2026-04-27T10:21:35.998Z</time></trkpt><trkpt lat="42.05431484804372" lon="13.645730541125246"><ele>853.0</ele><time>2026-04-27T10:21:36.998Z</time></trkpt><trkpt lat="42.05445211178982" lon="13.645583488448791"><ele>853.0</ele><time>2026-04-27T10:21:37.998Z</time></trkpt><trkpt lat="42.05458712233053" lon="13.645435013193856"><ele>853.0</ele><time>2026-04-27T10:21:38.998Z</time></trkpt><trkpt lat="42.0547064595708" lon="13.64527213894607"><ele>853.0</ele><time>2026-04-27T10:21:40Z</time></trkpt><trkpt lat="42.05481428782225" lon="13.645101759898695"><ele>853.25</ele><time>2026-04-27T10:21:41Z</time></trkpt><trkpt lat="42.05489643724562" lon="13.644944060220187"><ele>853.5</ele><time>2026-04-27T10:21:42Z</time></trkpt><trkpt lat="42.054959669357196" lon="13.644778191368443"><ele>853.75</ele><time>2026-04-27T10:21:43Z</time></trkpt><trkpt lat="42.05497503671086" lon="13.644585912792902"><ele>854.0</ele><time>2026-04-27T10:21:44Z</time></trkpt><trkpt lat="42.055019600072356" lon="13.644389214745663"><ele>853.4000000000001</ele><time>2026-04-27T10:21:45Z</time></trkpt><trkpt lat="42.055040467096525" lon="13.644243337272474"><ele>852.8000000000001</ele><time>2026-04-27T10:21:46Z</time></trkpt><trkpt lat="42.055058121454046" lon="13.644128260003708"><ele>852.2</ele><time>2026-04-27T10:21:47Z</time></trkpt><trkpt lat="42.0551055256148" lon="13.644016566341156"><ele>851.5999999999999</ele><time>2026-04-27T10:21:48Z</time></trkpt><trkpt lat="42.05516480850691" lon="13.643870404641767"><ele>851.0</ele><time>2026-04-27T10:21:49Z</time></trkpt><trkpt lat="42.05520943159458" lon="13.643685655115146"><ele>851.25</ele><time>2026-04-27T10:21:50Z</time></trkpt><trkpt lat="42.05524552593991" lon="13.64348637742672"><ele>851.5</ele><time>2026-04-27T10:21:51Z</time></trkpt><trkpt lat="42.055274379864464" lon="13.643285401876648"><ele>851.75</ele><time>2026-04-27T10:21:52Z</time></trkpt><trkpt lat="42.05530252724065" lon="13.643094164479049"><ele>852.0</ele><time>2026-04-27T10:21:53Z</time></trkpt><trkpt lat="42.05534539527297" lon="13.642916453403283"><ele>851.75</ele><time>2026-04-27T10:21:54Z</time></trkpt><trkpt lat="42.055409243718884" lon="13.642744235946932"><ele>851.5</ele><time>2026-04-27T10:21:55Z</time></trkpt><trkpt lat="42.05547735870962" lon="13.642575763281794"><ele>851.25</ele><time>2026-04-27T10:21:56Z</time></trkpt><trkpt lat="42.05553842641346" lon="13.642429664086569"><ele>851.0</ele><time>2026-04-27T10:21:57Z</time></trkpt><trkpt lat="42.05559404257445" lon="13.642320633182363"><ele>851.0</ele><time>2026-04-27T10:21:58Z</time></trkpt><trkpt lat="42.05566225629816" lon="13.642248955086917"><ele>851.0</ele><time>2026-04-27T10:21:59Z</time></trkpt><trkpt lat="42.05575707780901" lon="13.642191014146514"><ele>851.0</ele><time>2026-04-27T10:21:59.999Z</time></trkpt><trkpt lat="42.055886046013825" lon="13.64213844796911"><ele>851.0</ele><time>2026-04-27T10:22:00.999Z</time></trkpt><trkpt lat="42.05603046510416" lon="13.642100705368838"><ele>851.6666666666667</ele><time>2026-04-27T10:22:01.999Z</time></trkpt><trkpt lat="42.05618295381925" lon="13.642053115607856"><ele>852.3333333333333</ele><time>2026-04-27T10:22:02.999Z</time></trkpt><trkpt lat="42.05632588341045" lon="13.6419664038469"><ele>853.0</ele><time>2026-04-27T10:22:03.999Z</time></trkpt><trkpt lat="42.056472795744746" lon="13.641884669832674"><ele>853.0</ele><time>2026-04-27T10:22:04.999Z</time></trkpt><trkpt lat="42.05662773189034" lon="13.641829003767409"><ele>853.0</ele><time>2026-04-27T10:22:05.999Z</time></trkpt><trkpt lat="42.05677590800722" lon="13.641777227163235"><ele>853.0</ele><time>2026-04-27T10:22:06.999Z</time></trkpt><trkpt lat="42.05690032497741" lon="13.641729527720026"><ele>853.0</ele><time>2026-04-27T10:22:07.999Z</time></trkpt><trkpt lat="42.05700800595531" lon="13.641704370999431"><ele>853.0</ele><time>2026-04-27T10:22:08.999Z</time></trkpt><trkpt lat="42.05712514534143" lon="13.641712139004005"><ele>853.0</ele><time>2026-04-27T10:22:09.999Z</time></trkpt><trkpt lat="42.057256710781" lon="13.641754692635587"><ele>853.0</ele><time>2026-04-27T10:22:10.999Z</time></trkpt><trkpt lat="42.0573954107944" lon="13.641789096921578"><ele>853.0</ele><time>2026-04-27T10:22:11.999Z</time></trkpt><trkpt lat="42.05754401609941" lon="13.641779401977958"><ele>853.5</ele><time>2026-04-27T10:22:12.999Z</time></trkpt><trkpt lat="42.05769265182999" lon="13.641742782108148"><ele>854.0</ele><time>2026-04-27T10:22:13.999Z</time></trkpt><trkpt lat="42.05783156284538" lon="13.641679013179342"><ele>854.5</ele><time>2026-04-27T10:22:14.999Z</time></trkpt><trkpt lat="42.0579662295547" lon="13.641590546794777"><ele>855.0</ele><time>2026-04-27T10:22:15.999Z</time></trkpt><trkpt lat="42.05810271294612" lon="13.64150413333181"><ele>855.0</ele><time>2026-04-27T10:22:16.999Z</time></trkpt><trkpt lat="42.05823876978873" lon="13.641428560767578"><ele>855.0</ele><time>2026-04-27T10:22:17.999Z</time></trkpt><trkpt lat="42.05837827249978" lon="13.641374572397476"><ele>855.0</ele><time>2026-04-27T10:22:18.999Z</time></trkpt><trkpt lat="42.058524773114804" lon="13.641323470609052"><ele>855.0</ele><time>2026-04-27T10:22:19.999Z</time></trkpt><trkpt lat="42.05865757516279" lon="13.641282157633889"><ele>855.5</ele><time>2026-04-27T10:22:20.999Z</time></trkpt><trkpt lat="42.058780070496724" lon="13.641241233823852"><ele>856.0</ele><time>2026-04-27T10:22:21.999Z</time></trkpt><trkpt lat="42.058907041413185" lon="13.641187663080524"><ele>856.5</ele><time>2026-04-27T10:22:22.999Z</time></trkpt><trkpt lat="42.05904443906901" lon="13.641162108215724"><ele>857.0</ele><time>2026-04-27T10:22:23.999Z</time></trkpt><trkpt lat="42.05919860147023" lon="13.641161015198717"><ele>857.6666666666667</ele><time>2026-04-27T10:22:24.999Z</time></trkpt><trkpt lat="42.05934973802379" lon="13.641173124529864"><ele>858.3333333333333</ele><time>2026-04-27T10:22:25.999Z</time></trkpt><trkpt lat="42.05950075750113" lon="13.641171135625884"><ele>859.0</ele><time>2026-04-27T10:22:26.999Z</time></trkpt><trkpt lat="42.05965782507123" lon="13.641151978685878"><ele>859.0</ele><time>2026-04-27T10:22:27.999Z</time></trkpt><trkpt lat="42.0598282651091" lon="13.64113810111668"><ele>859.0</ele><time>2026-04-27T10:22:28.999Z</time></trkpt><trkpt lat="42.05999664712407" lon="13.641139127412576"><ele>859.0</ele><time>2026-04-27T10:22:29.999Z</time></trkpt><trkpt lat="42.060160366378476" lon="13.641162641370972"><ele>859.3333333333333</ele><time>2026-04-27T10:22:30.999Z</time></trkpt><trkpt lat="42.060328391450426" lon="13.64119500346369"><ele>859.6666666666667</ele><time>2026-04-27T10:22:31.999Z</time></trkpt><trkpt lat="42.06048376930614" lon="13.64121565432387"><ele>860.0</ele><time>2026-04-27T10:22:32.999Z</time></trkpt><trkpt lat="42.06064518164935" lon="13.641214124084645"><ele>860.0</ele><time>2026-04-27T10:22:33.999Z</time></trkpt><trkpt lat="42.06080753448706" lon="13.641195385815012"><ele>860.0</ele><time>2026-04-27T10:22:34.999Z</time></trkpt><trkpt lat="42.06096896325466" lon="13.641168037696437"><ele>860.0</ele><time>2026-04-27T10:22:35.999Z</time></trkpt><trkpt lat="42.061133937575946" lon="13.641127620104628"><ele>860.0</ele><time>2026-04-27T10:22:36.999Z</time></trkpt><trkpt lat="42.06130093643945" lon="13.641072002678522"><ele>860.0</ele><time>2026-04-27T10:22:37.999Z</time></trkpt><trkpt lat="42.0614588891389" lon="13.64101432313698"><ele>860.0</ele><time>2026-04-27T10:22:38.999Z</time></trkpt><trkpt lat="42.061606961311504" lon="13.64096388423106"><ele>862.3333333333334</ele><time>2026-04-27T10:22:39.999Z</time></trkpt><trkpt lat="42.06175433125502" lon="13.640894896012895"><ele>864.6666666666667</ele><time>2026-04-27T10:22:40.999Z</time></trkpt><trkpt lat="42.06189480974128" lon="13.640790496912583"><ele>867.0</ele><time>2026-04-27T10:22:41.999Z</time></trkpt><trkpt lat="42.06202867229198" lon="13.640657521675227"><ele>867.0</ele><time>2026-04-27T10:22:42.999Z</time></trkpt><trkpt lat="42.06215289393237" lon="13.640508465878558"><ele>867.0</ele><time>2026-04-27T10:22:43.999Z</time></trkpt><trkpt lat="42.06228259946892" lon="13.64036038887768"><ele>867.0</ele><time>2026-04-27T10:22:44.999Z</time></trkpt><trkpt lat="42.06239995939026" lon="13.640218427119677"><ele>867.0</ele><time>2026-04-27T10:22:45.999Z</time></trkpt><trkpt lat="42.06250593718391" lon="13.640080539114779"><ele>867.0</ele><time>2026-04-27T10:22:46.999Z</time></trkpt><trkpt lat="42.062610129611016" lon="13.639945789015723"><ele>867.0</ele><time>2026-04-27T10:22:47.999Z</time></trkpt><trkpt lat="42.062730512979265" lon="13.639848371377923"><ele>867.0</ele><time>2026-04-27T10:22:48.999Z</time></trkpt><trkpt lat="42.06286678811578" lon="13.639738114238256"><ele>867.0</ele><time>2026-04-27T10:22:49.999Z</time></trkpt><trkpt lat="42.06301438190353" lon="13.639639392884993"><ele>867.0</ele><time>2026-04-27T10:22:50.999Z</time></trkpt><trkpt lat="42.06316522782641" lon="13.63953979117652"><ele>867.0</ele><time>2026-04-27T10:22:51.999Z</time></trkpt><trkpt lat="42.063315549046145" lon="13.639430269516094"><ele>866.3333333333333</ele><time>2026-04-27T10:22:52.999Z</time></trkpt><trkpt lat="42.06345512454131" lon="13.639318239337722"><ele>865.6666666666666</ele><time>2026-04-27T10:22:53.999Z</time></trkpt><trkpt lat="42.06359542668991" lon="13.63920762809376"><ele>865.0</ele><time>2026-04-27T10:22:54.999Z</time></trkpt><trkpt lat="42.06373826395555" lon="13.639090194093885"><ele>865.0</ele><time>2026-04-27T10:22:55.999Z</time></trkpt><trkpt lat="42.06387027244257" lon="13.638954926404212"><ele>865.0</ele><time>2026-04-27T10:22:56.999Z</time></trkpt><trkpt lat="42.06400439308046" lon="13.63881850959493"><ele>865.0</ele><time>2026-04-27T10:22:57.999Z</time></trkpt><trkpt lat="42.06414928563269" lon="13.638686385872273"><ele>864.6666666666666</ele><time>2026-04-27T10:22:58.999Z</time></trkpt><trkpt lat="42.064281417740965" lon="13.638569794872147"><ele>864.3333333333333</ele><time>2026-04-27T10:22:59.999Z</time></trkpt><trkpt lat="42.06440828661878" lon="13.638439010108721"><ele>864.0</ele><time>2026-04-27T10:23:00.999Z</time></trkpt><trkpt lat="42.06454463709994" lon="13.638311553544284"><ele>864.0</ele><time>2026-04-27T10:23:01.999Z</time></trkpt><trkpt lat="42.06468120351843" lon="13.638176388373202"><ele>864.0</ele><time>2026-04-27T10:23:02.999Z</time></trkpt><trkpt lat="42.064813787736156" lon="13.638033228213883"><ele>864.0</ele><time>2026-04-27T10:23:03.999Z</time></trkpt><trkpt lat="42.06494503748429" lon="13.637888672717784"><ele>864.3333333333333</ele><time>2026-04-27T10:23:04.999Z</time></trkpt><trkpt lat="42.06507518622496" lon="13.637742607172559"><ele>864.6666666666666</ele><time>2026-04-27T10:23:05.998Z</time></trkpt><trkpt lat="42.06520399857251" lon="13.637595604478701"><ele>865.0</ele><time>2026-04-27T10:23:06.998Z</time></trkpt><trkpt lat="42.06532414432254" lon="13.637450865484096"><ele>865.0</ele><time>2026-04-27T10:23:07.998Z</time></trkpt><trkpt lat="42.06542962828344" lon="13.637321097731578"><ele>865.0</ele><time>2026-04-27T10:23:08.998Z</time></trkpt><trkpt lat="42.06555016843576" lon="13.637208301681879"><ele>865.0</ele><time>2026-04-27T10:23:09.998Z</time></trkpt><trkpt lat="42.06569222995314" lon="13.63710637348791"><ele>865.3333333333333</ele><time>2026-04-27T10:23:10.998Z</time></trkpt><trkpt lat="42.065840142943394" lon="13.637002853998762"><ele>865.6666666666667</ele><time>2026-04-27T10:23:11.998Z</time></trkpt><trkpt lat="42.06598407519063" lon="13.636884934892297"><ele>866.0</ele><time>2026-04-27T10:23:12.998Z</time></trkpt><trkpt lat="42.06612781816653" lon="13.636754991455573"><ele>866.0</ele><time>2026-04-27T10:23:13.998Z</time></trkpt><trkpt lat="42.06627153500938" lon="13.636644847357303"><ele>866.0</ele><time>2026-04-27T10:23:14.998Z</time></trkpt><trkpt lat="42.066414691259006" lon="13.636537362573796"><ele>866.0</ele><time>2026-04-27T10:23:15.998Z</time></trkpt><trkpt lat="42.06655206750769" lon="13.63642052227261"><ele>867.6666666666667</ele><time>2026-04-27T10:23:16.998Z</time></trkpt><trkpt lat="42.0666897920969" lon="13.636307554846002"><ele>869.3333333333333</ele><time>2026-04-27T10:23:17.998Z</time></trkpt><trkpt lat="42.06682245005744" lon="13.63619358681657"><ele>871.0</ele><time>2026-04-27T10:23:18.998Z</time></trkpt><trkpt lat="42.066938392046595" lon="13.636088996749717"><ele>871.0</ele><time>2026-04-27T10:23:19.998Z</time></trkpt><trkpt lat="42.067038839926305" lon="13.635996440463497"><ele>871.0</ele><time>2026-04-27T10:23:20.998Z</time></trkpt><trkpt lat="42.0671285869023" lon="13.635913452187653"><ele>871.0</ele><time>2026-04-27T10:23:21.998Z</time></trkpt><trkpt lat="42.067228582229795" lon="13.635853728444896"><ele>871.0</ele><time>2026-04-27T10:23:22.998Z</time></trkpt><trkpt lat="42.067345458793206" lon="13.635835177151069"><ele>873.0</ele><time>2026-04-27T10:23:23.998Z</time></trkpt><trkpt lat="42.06746688680757" lon="13.635818663007921"><ele>875.0</ele><time>2026-04-27T10:23:24.998Z</time></trkpt><trkpt lat="42.067583331329246" lon="13.635754767583535"><ele>877.0</ele><time>2026-04-27T10:23:25.998Z</time></trkpt><trkpt lat="42.067697620003905" lon="13.635644495679509"><ele>879.0</ele><time>2026-04-27T10:23:26.998Z</time></trkpt><trkpt lat="42.06781211095205" lon="13.635524364979352"><ele>879.0</ele><time>2026-04-27T10:23:27.998Z</time></trkpt><trkpt lat="42.06793262533306" lon="13.635403530244153"><ele>879.0</ele><time>2026-04-27T10:23:28.998Z</time></trkpt><trkpt lat="42.068052755294936" lon="13.635289805241527"><ele>879.0</ele><time>2026-04-27T10:23:29.998Z</time></trkpt><trkpt lat="42.06817656339463" lon="13.635168478987309"><ele>881.0</ele><time>2026-04-27T10:23:30.998Z</time></trkpt><trkpt lat="42.06830238146481" lon="13.635031344173369"><ele>883.0</ele><time>2026-04-27T10:23:31.998Z</time></trkpt><trkpt lat="42.06843309182599" lon="13.634888554071509"><ele>885.0</ele><time>2026-04-27T10:23:32.998Z</time></trkpt><trkpt lat="42.0685625849231" lon="13.634759469360116"><ele>885.0</ele><time>2026-04-27T10:23:33.998Z</time></trkpt><trkpt lat="42.06868382533618" lon="13.634619851587484"><ele>885.0</ele><time>2026-04-27T10:23:34.998Z</time></trkpt><trkpt lat="42.068799637219264" lon="13.63447609373068"><ele>885.0</ele><time>2026-04-27T10:23:35.998Z</time></trkpt><trkpt lat="42.06892112939571" lon="13.634331091604722"><ele>884.25</ele><time>2026-04-27T10:23:36.998Z</time></trkpt><trkpt lat="42.069035404059775" lon="13.634202508270548"><ele>883.5</ele><time>2026-04-27T10:23:37.998Z</time></trkpt><trkpt lat="42.06912759708001" lon="13.634082710385472"><ele>882.75</ele><time>2026-04-27T10:23:38.998Z</time></trkpt><trkpt lat="42.06919679433231" lon="13.633967616010002"><ele>882.0</ele><time>2026-04-27T10:23:39.998Z</time></trkpt><trkpt lat="42.06926509204501" lon="13.6338759547995"><ele>883.0</ele><time>2026-04-27T10:23:40.998Z</time></trkpt><trkpt lat="42.06933222448514" lon="13.63382005414337"><ele>884.0</ele><time>2026-04-27T10:23:41.998Z</time></trkpt><trkpt lat="42.06940476106278" lon="13.633823920994944"><ele>885.0</ele><time>2026-04-27T10:23:42.998Z</time></trkpt><trkpt lat="42.069485674305895" lon="13.633851463249618"><ele>886.0</ele><time>2026-04-27T10:23:43.998Z</time></trkpt><trkpt lat="42.06954984882252" lon="13.633900803749405"><ele>887.0</ele><time>2026-04-27T10:23:44.998Z</time></trkpt><trkpt lat="42.06963442432959" lon="13.633984809662113"><ele>888.0</ele><time>2026-04-27T10:23:47Z</time></trkpt><trkpt lat="42.069668460085744" lon="13.63411003688704"><ele>888.0</ele><time>2026-04-27T10:23:49Z</time></trkpt><trkpt lat="42.06967715105869" lon="13.63421100712468"><ele>888.0</ele><time>2026-04-27T10:23:50Z</time></trkpt><trkpt lat="42.06970228513687" lon="13.634315462756893"><ele>888.0</ele><time>2026-04-27T10:23:51Z</time></trkpt><trkpt lat="42.06974496520285" lon="13.63441822671847"><ele>888.0</ele><time>2026-04-27T10:23:52Z</time></trkpt><trkpt lat="42.06979434916439" lon="13.634512574654558"><ele>888.0</ele><time>2026-04-27T10:23:53Z</time></trkpt><trkpt lat="42.06983765001616" lon="13.634588821664481"><ele>888.0</ele><time>2026-04-27T10:23:54Z</time></trkpt><trkpt lat="42.069878421108" lon="13.634659157177305"><ele>888.2</ele><time>2026-04-27T10:23:55Z</time></trkpt><trkpt lat="42.06992405396046" lon="13.634732332825099"><ele>888.4</ele><time>2026-04-27T10:23:56Z</time></trkpt><trkpt lat="42.069973173090744" lon="13.63481741428836"><ele>888.6000000000001</ele><time>2026-04-27T10:23:57Z</time></trkpt><trkpt lat="42.070034062115795" lon="13.634925590894962"><ele>888.8000000000001</ele><time>2026-04-27T10:23:58Z</time></trkpt><trkpt lat="42.070096698227225" lon="13.635045881617922"><ele>889.0</ele><time>2026-04-27T10:23:59Z</time></trkpt><trkpt lat="42.07016281537285" lon="13.63516198475724"><ele>889.0</ele><time>2026-04-27T10:24:00Z</time></trkpt><trkpt lat="42.07023735578418" lon="13.635287706684299"><ele>889.0</ele><time>2026-04-27T10:24:01Z</time></trkpt><trkpt lat="42.07031792715805" lon="13.635425171901415"><ele>889.0</ele><time>2026-04-27T10:24:02Z</time></trkpt><trkpt lat="42.0704028133125" lon="13.635571589766707"><ele>889.0</ele><time>2026-04-27T10:24:03Z</time></trkpt><trkpt lat="42.07048980134955" lon="13.635724431592822"><ele>893.0</ele><time>2026-04-27T10:24:04Z</time></trkpt><trkpt lat="42.07057659643679" lon="13.635884636938398"><ele>897.0</ele><time>2026-04-27T10:24:05Z</time></trkpt><trkpt lat="42.07066138458402" lon="13.63604652981705"><ele>901.0</ele><time>2026-04-27T10:24:05.999Z</time></trkpt><trkpt lat="42.070743502477484" lon="13.636207033888976"><ele>905.0</ele><time>2026-04-27T10:24:06.999Z</time></trkpt><trkpt lat="42.07083410930628" lon="13.636375210560796"><ele>905.0</ele><time>2026-04-27T10:24:07.999Z</time></trkpt><trkpt lat="42.070940822205785" lon="13.636540709816536"><ele>905.0</ele><time>2026-04-27T10:24:08.999Z</time></trkpt><trkpt lat="42.07106377338889" lon="13.636689408284187"><ele>905.0</ele><time>2026-04-27T10:24:09.999Z</time></trkpt><trkpt lat="42.07120232036927" lon="13.636826192844776"><ele>905.0</ele><time>2026-04-27T10:24:10.999Z</time></trkpt><trkpt lat="42.071344130107704" lon="13.636957621725038"><ele>905.0</ele><time>2026-04-27T10:24:11.999Z</time></trkpt><trkpt lat="42.0714738234088" lon="13.637119954505462"><ele>905.0</ele><time>2026-04-27T10:24:12.999Z</time></trkpt><trkpt lat="42.07159758862584" lon="13.637291077674314"><ele>904.3333333333334</ele><time>2026-04-27T10:24:13.999Z</time></trkpt><trkpt lat="42.071733173031795" lon="13.637452138107292"><ele>903.6666666666667</ele><time>2026-04-27T10:24:14.999Z</time></trkpt><trkpt lat="42.071882725896415" lon="13.637591521124426"><ele>903.0</ele><time>2026-04-27T10:24:15.999Z</time></trkpt><trkpt lat="42.07203537735484" lon="13.637717996738443"><ele>905.3333333333333</ele><time>2026-04-27T10:24:16.999Z</time></trkpt><trkpt lat="42.072193636746476" lon="13.63782712564791"><ele>907.6666666666666</ele><time>2026-04-27T10:24:17.999Z</time></trkpt><trkpt lat="42.07235825394912" lon="13.637917881475966"><ele>910.0</ele><time>2026-04-27T10:24:18.999Z</time></trkpt><trkpt lat="42.072523072783376" lon="13.63800234519988"><ele>910.0</ele><time>2026-04-27T10:24:19.999Z</time></trkpt><trkpt lat="42.07268311292555" lon="13.638092365653813"><ele>910.0</ele><time>2026-04-27T10:24:20.999Z</time></trkpt><trkpt lat="42.07282758431462" lon="13.638183728351413"><ele>910.0</ele><time>2026-04-27T10:24:21.999Z</time></trkpt><trkpt lat="42.0729534946194" lon="13.63827891029043"><ele>910.0</ele><time>2026-04-27T10:24:22.999Z</time></trkpt><trkpt lat="42.07307718957544" lon="13.638400680019599"><ele>910.0</ele><time>2026-04-27T10:24:23.999Z</time></trkpt><trkpt lat="42.07316984120277" lon="13.638572489236052"><ele>910.0</ele><time>2026-04-27T10:24:24.999Z</time></trkpt><trkpt lat="42.0732792759677" lon="13.63873307739692"><ele>912.3333333333333</ele><time>2026-04-27T10:24:25.999Z</time></trkpt><trkpt lat="42.07338250134977" lon="13.63891105106934"><ele>914.6666666666667</ele><time>2026-04-27T10:24:26.999Z</time></trkpt><trkpt lat="42.07349716547228" lon="13.639084601031152"><ele>917.0</ele><time>2026-04-27T10:24:27.999Z</time></trkpt><trkpt lat="42.07362503880252" lon="13.63924708704722"><ele>917.0</ele><time>2026-04-27T10:24:28.999Z</time></trkpt><trkpt lat="42.07375925707956" lon="13.639406611722327"><ele>917.0</ele><time>2026-04-27T10:24:29.999Z</time></trkpt><trkpt lat="42.073900359225725" lon="13.639562177715284"><ele>917.0</ele><time>2026-04-27T10:24:30.999Z</time></trkpt><trkpt lat="42.07404884391989" lon="13.639713156554945"><ele>918.6666666666667</ele><time>2026-04-27T10:24:31.999Z</time></trkpt><trkpt lat="42.0741976337383" lon="13.639868059053116"><ele>920.3333333333333</ele><time>2026-04-27T10:24:32.999Z</time></trkpt><trkpt lat="42.074343316525855" lon="13.640035017668158"><ele>922.0</ele><time>2026-04-27T10:24:33.999Z</time></trkpt><trkpt lat="42.074484368766676" lon="13.640215046021266"><ele>929.6666666666666</ele><time>2026-04-27T10:24:34.999Z</time></trkpt><trkpt lat="42.07461792119508" lon="13.640391547078872"><ele>937.3333333333333</ele><time>2026-04-27T10:24:35.999Z</time></trkpt><trkpt lat="42.07475295583758" lon="13.640570115146472"><ele>945.0</ele><time>2026-04-27T10:24:36.999Z</time></trkpt><trkpt lat="42.074885625898055" lon="13.640759060277665"><ele>942.0</ele><time>2026-04-27T10:24:37.999Z</time></trkpt><trkpt lat="42.075017330016024" lon="13.640954962744319"><ele>939.0</ele><time>2026-04-27T10:24:38.999Z</time></trkpt><trkpt lat="42.07514954621909" lon="13.641153551982923"><ele>936.0</ele><time>2026-04-27T10:24:39.999Z</time></trkpt><trkpt lat="42.07528260984808" lon="13.64135738391006"><ele>936.0</ele><time>2026-04-27T10:24:40.999Z</time></trkpt><trkpt lat="42.07541569997564" lon="13.641564586530137"><ele>936.0</ele><time>2026-04-27T10:24:41.999Z</time></trkpt><trkpt lat="42.075552025557265" lon="13.641770634794005"><ele>936.0</ele><time>2026-04-27T10:24:42.999Z</time></trkpt><trkpt lat="42.075699482326314" lon="13.641964109935154"><ele>936.0</ele><time>2026-04-27T10:24:43.999Z</time></trkpt><trkpt lat="42.075857229652236" lon="13.642141363748191"><ele>936.0</ele><time>2026-04-27T10:24:44.999Z</time></trkpt><trkpt lat="42.07602005904367" lon="13.642313233971672"><ele>936.0</ele><time>2026-04-27T10:24:45.999Z</time></trkpt><trkpt lat="42.07618219358077" lon="13.642488923208306"><ele>936.0</ele><time>2026-04-27T10:24:46.999Z</time></trkpt><trkpt lat="42.076339527600666" lon="13.642673965016666"><ele>936.0</ele><time>2026-04-27T10:24:47.999Z</time></trkpt><trkpt lat="42.07649102398279" lon="13.642868313466865"><ele>936.0</ele><time>2026-04-27T10:24:48.999Z</time></trkpt><trkpt lat="42.07664041922818" lon="13.643069491406635"><ele>938.0</ele><time>2026-04-27T10:24:49.999Z</time></trkpt><trkpt lat="42.07678496773547" lon="13.643279819260968"><ele>940.0</ele><time>2026-04-27T10:24:50.999Z</time></trkpt><trkpt lat="42.076926311308476" lon="13.64349726745429"><ele>942.0</ele><time>2026-04-27T10:24:51.999Z</time></trkpt><trkpt lat="42.077073220697535" lon="13.643709811296361"><ele>944.3333333333333</ele><time>2026-04-27T10:24:52.999Z</time></trkpt><trkpt lat="42.077229548115774" lon="13.643911618086323"><ele>946.6666666666666</ele><time>2026-04-27T10:24:53.999Z</time></trkpt><trkpt lat="42.07739419770439" lon="13.644100875477092"><ele>949.0</ele><time>2026-04-27T10:24:54.999Z</time></trkpt><trkpt lat="42.07756390331067" lon="13.644269172818325"><ele>949.0</ele><time>2026-04-27T10:24:55.999Z</time></trkpt><trkpt lat="42.07771940125102" lon="13.64441169209884"><ele>949.0</ele><time>2026-04-27T10:24:56.999Z</time></trkpt><trkpt lat="42.077850341898596" lon="13.644569009307371"><ele>949.0</ele><time>2026-04-27T10:24:57.999Z</time></trkpt><trkpt lat="42.07794555139306" lon="13.644780970989741"><ele>952.6666666666666</ele><time>2026-04-27T10:24:58.999Z</time></trkpt><trkpt lat="42.07805148821885" lon="13.644993123411577"><ele>956.3333333333333</ele><time>2026-04-27T10:24:59.999Z</time></trkpt><trkpt lat="42.07817913245576" lon="13.645187640640675"><ele>960.0</ele><time>2026-04-27T10:25:00.999Z</time></trkpt><trkpt lat="42.07829307163452" lon="13.645396616548718"><ele>960.0</ele><time>2026-04-27T10:25:01.999Z</time></trkpt><trkpt lat="42.07840468212019" lon="13.645592996721904"><ele>960.0</ele><time>2026-04-27T10:25:02.999Z</time></trkpt><trkpt lat="42.0785041431232" lon="13.645787694904369"><ele>960.0</ele><time>2026-04-27T10:25:03.999Z</time></trkpt><trkpt lat="42.07866822009885" lon="13.645918424698747"><ele>960.0</ele><time>2026-04-27T10:25:04.999Z</time></trkpt><trkpt lat="42.078835560673234" lon="13.646032855147508"><ele>960.0</ele><time>2026-04-27T10:25:05.999Z</time></trkpt><trkpt lat="42.07898533378726" lon="13.646194576754318"><ele>960.0</ele><time>2026-04-27T10:25:06.999Z</time></trkpt><trkpt lat="42.07911856216879" lon="13.646384543068839"><ele>960.3333333333333</ele><time>2026-04-27T10:25:07.999Z</time></trkpt><trkpt lat="42.079239669214836" lon="13.646591468699294"><ele>960.6666666666666</ele><time>2026-04-27T10:25:08.999Z</time></trkpt><trkpt lat="42.0793191792526" lon="13.646812392722564"><ele>961.0</ele><time>2026-04-27T10:25:09.998Z</time></trkpt><trkpt lat="42.07940221269679" lon="13.647009946457393"><ele>964.6666666666666</ele><time>2026-04-27T10:25:10.998Z</time></trkpt><trkpt lat="42.079481065014384" lon="13.647192837662287"><ele>968.3333333333333</ele><time>2026-04-27T10:25:11.998Z</time></trkpt><trkpt lat="42.07956073120836" lon="13.647352136000134"><ele>972.0</ele><time>2026-04-27T10:25:12.998Z</time></trkpt><trkpt lat="42.079660093264266" lon="13.647507492225373"><ele>972.0</ele><time>2026-04-27T10:25:13.998Z</time></trkpt><trkpt lat="42.07983629964119" lon="13.647565187721442"><ele>972.0</ele><time>2026-04-27T10:25:14.998Z</time></trkpt><trkpt lat="42.07997923144859" lon="13.64765624441174"><ele>972.0</ele><time>2026-04-27T10:25:15.998Z</time></trkpt><trkpt lat="42.08012782245993" lon="13.647732802551603"><ele>968.75</ele><time>2026-04-27T10:25:16.998Z</time></trkpt><trkpt lat="42.08027239581158" lon="13.647796106901517"><ele>965.5</ele><time>2026-04-27T10:25:17.998Z</time></trkpt><trkpt lat="42.080406798813655" lon="13.647857253033514"><ele>962.25</ele><time>2026-04-27T10:25:18.998Z</time></trkpt><trkpt lat="42.08054253414941" lon="13.647807294936566"><ele>959.0</ele><time>2026-04-27T10:25:19.998Z</time></trkpt><trkpt lat="42.08068282172341" lon="13.647756651267786"><ele>960.25</ele><time>2026-04-27T10:25:20.998Z</time></trkpt><trkpt lat="42.080816701669235" lon="13.647684253275207"><ele>961.5</ele><time>2026-04-27T10:25:21.998Z</time></trkpt><trkpt lat="42.080942242897585" lon="13.647612724250124"><ele>962.75</ele><time>2026-04-27T10:25:22.998Z</time></trkpt><trkpt lat="42.08106835921098" lon="13.647552851818666"><ele>964.0</ele><time>2026-04-27T10:25:23.998Z</time></trkpt><trkpt lat="42.08119190297471" lon="13.64748670141523"><ele>964.0</ele><time>2026-04-27T10:25:24.998Z</time></trkpt><trkpt lat="42.081308135106696" lon="13.64741186265051"><ele>964.0</ele><time>2026-04-27T10:25:25.998Z</time></trkpt><trkpt lat="42.08141697803797" lon="13.647328324700455"><ele>964.0</ele><time>2026-04-27T10:25:26.998Z</time></trkpt><trkpt lat="42.081510869711764" lon="13.647238823082512"><ele>964.0</ele><time>2026-04-27T10:25:27.998Z</time></trkpt><trkpt lat="42.081596473935264" lon="13.647149540646772"><ele>965.0</ele><time>2026-04-27T10:25:28.998Z</time></trkpt><trkpt lat="42.08165812861376" lon="13.647063802245693"><ele>966.0000000000001</ele><time>2026-04-27T10:25:29.998Z</time></trkpt><trkpt lat="42.08173206375332" lon="13.646978102180386"><ele>967.0000000000001</ele><time>2026-04-27T10:25:30.998Z</time></trkpt><trkpt lat="42.0817957997213" lon="13.646882769995315"><ele>968.0</ele><time>2026-04-27T10:25:31.998Z</time></trkpt><trkpt lat="42.08188769102269" lon="13.646792016058024"><ele>969.0</ele><time>2026-04-27T10:25:32.998Z</time></trkpt><trkpt lat="42.08195191885863" lon="13.646680615269242"><ele>970.0</ele><time>2026-04-27T10:25:33.998Z</time></trkpt><trkpt lat="42.082027916580664" lon="13.646568745078628"><ele>971.0000000000001</ele><time>2026-04-27T10:25:34.998Z</time></trkpt><trkpt lat="42.082102698626585" lon="13.646447429126937"><ele>972.0000000000001</ele><time>2026-04-27T10:25:35.998Z</time></trkpt><trkpt lat="42.08217633538264" lon="13.64634702781341"><ele>973.0</ele><time>2026-04-27T10:25:36.998Z</time></trkpt><trkpt lat="42.082255754769186" lon="13.646282980199452"><ele>974.0</ele><time>2026-04-27T10:25:37.998Z</time></trkpt><trkpt lat="42.08232542077581" lon="13.646212873171985"><ele>974.0</ele><time>2026-04-27T10:25:38.998Z</time></trkpt><trkpt lat="42.082392925697086" lon="13.646140183567447"><ele>974.0000000000001</ele><time>2026-04-27T10:25:39.998Z</time></trkpt><trkpt lat="42.082474080805724" lon="13.646095800036266"><ele>974.0000000000001</ele><time>2026-04-27T10:25:40.998Z</time></trkpt><trkpt lat="42.08256464643198" lon="13.646055795985095"><ele>974.0</ele><time>2026-04-27T10:25:41.998Z</time></trkpt><trkpt lat="42.08265958212861" lon="13.646012257199127"><ele>974.0</ele><time>2026-04-27T10:25:42.998Z</time></trkpt><trkpt lat="42.082778206740805" lon="13.645973422475677"><ele>977.0</ele><time>2026-04-27T10:25:43.998Z</time></trkpt><trkpt lat="42.08290958104143" lon="13.64591826263034"><ele>980.0</ele><time>2026-04-27T10:25:44.998Z</time></trkpt><trkpt lat="42.083049627414795" lon="13.645837379536353"><ele>983.0</ele><time>2026-04-27T10:25:45.998Z</time></trkpt><trkpt lat="42.08320224818525" lon="13.645717302882325"><ele>986.3333333333334</ele><time>2026-04-27T10:25:46.998Z</time></trkpt><trkpt lat="42.08336580374459" lon="13.645572260873848"><ele>989.6666666666667</ele><time>2026-04-27T10:25:47.998Z</time></trkpt><trkpt lat="42.08351043695093" lon="13.645422903029806"><ele>993.0</ele><time>2026-04-27T10:25:48.998Z</time></trkpt><trkpt lat="42.083636003946644" lon="13.64529675773204"><ele>994.0</ele><time>2026-04-27T10:25:49.998Z</time></trkpt><trkpt lat="42.08374861342677" lon="13.645182050661994"><ele>995.0</ele><time>2026-04-27T10:25:50.998Z</time></trkpt><trkpt lat="42.083854319829314" lon="13.645057431505926"><ele>996.0</ele><time>2026-04-27T10:25:52Z</time></trkpt><trkpt lat="42.08395230249638" lon="13.64491403452422"><ele>997.0</ele><time>2026-04-27T10:25:53Z</time></trkpt><trkpt lat="42.084010144625516" lon="13.644734773277408"><ele>997.0</ele><time>2026-04-27T10:25:53.999Z</time></trkpt><trkpt lat="42.08407578796892" lon="13.64456060392475"><ele>997.0</ele><time>2026-04-27T10:25:54.999Z</time></trkpt><trkpt lat="42.084106158807145" lon="13.644369767221326"><ele>997.0</ele><time>2026-04-27T10:25:55.999Z</time></trkpt><trkpt lat="42.084131846066406" lon="13.644175421571624"><ele>997.0</ele><time>2026-04-27T10:25:56.999Z</time></trkpt><trkpt lat="42.084166435053575" lon="13.643989927202103"><ele>999.0</ele><time>2026-04-27T10:25:57.999Z</time></trkpt><trkpt lat="42.08423904407449" lon="13.643821071312356"><ele>1001.0</ele><time>2026-04-27T10:25:58.999Z</time></trkpt><trkpt lat="42.084287824148895" lon="13.643648105293236"><ele>1003.0</ele><time>2026-04-27T10:25:59.999Z</time></trkpt><trkpt lat="42.0843477388015" lon="13.643485259925626"><ele>1005.0</ele><time>2026-04-27T10:26:00.999Z</time></trkpt><trkpt lat="42.084403739762266" lon="13.643320289321549"><ele>1006.5</ele><time>2026-04-27T10:26:01.999Z</time></trkpt><trkpt lat="42.08446095421583" lon="13.643150041040611"><ele>1008.0</ele><time>2026-04-27T10:26:02.999Z</time></trkpt><trkpt lat="42.084546767496356" lon="13.64299160599572"><ele>1009.5</ele><time>2026-04-27T10:26:03.999Z</time></trkpt><trkpt lat="42.084630755475374" lon="13.642826421912401"><ele>1011.0</ele><time>2026-04-27T10:26:04.999Z</time></trkpt><trkpt lat="42.084720271754556" lon="13.642664992967857"><ele>1012.0</ele><time>2026-04-27T10:26:05.999Z</time></trkpt><trkpt lat="42.084787154325745" lon="13.642509654140959"><ele>1013.0</ele><time>2026-04-27T10:26:06.999Z</time></trkpt><trkpt lat="42.08484880709831" lon="13.642388513633376"><ele>1014.0</ele><time>2026-04-27T10:26:07.999Z</time></trkpt><trkpt lat="42.08488650030508" lon="13.642252328079708"><ele>1015.0</ele><time>2026-04-27T10:26:08.999Z</time></trkpt><trkpt lat="42.08491604393848" lon="13.642098902404834"><ele>1018.5</ele><time>2026-04-27T10:26:09.999Z</time></trkpt><trkpt lat="42.084930488470626" lon="13.64193034074452"><ele>1022.0</ele><time>2026-04-27T10:26:10.999Z</time></trkpt><trkpt lat="42.084954812291905" lon="13.641758533448758"><ele>1025.5</ele><time>2026-04-27T10:26:11.999Z</time></trkpt><trkpt lat="42.08499099437279" lon="13.641578200275776"><ele>1029.0</ele><time>2026-04-27T10:26:12.999Z</time></trkpt><trkpt lat="42.08504137837997" lon="13.64140458269803"><ele>1029.0</ele><time>2026-04-27T10:26:13.999Z</time></trkpt><trkpt lat="42.085096530513965" lon="13.641229995872935"><ele>1029.0</ele><time>2026-04-27T10:26:14.999Z</time></trkpt><trkpt lat="42.085131914970084" lon="13.64105488456779"><ele>1029.0</ele><time>2026-04-27T10:26:15.999Z</time></trkpt><trkpt lat="42.085183814789694" lon="13.640877102458035"><ele>1029.0</ele><time>2026-04-27T10:26:16.999Z</time></trkpt><trkpt lat="42.085222441023944" lon="13.640704097495293"><ele>1030.75</ele><time>2026-04-27T10:26:17.999Z</time></trkpt><trkpt lat="42.08523482670888" lon="13.640531278121907"><ele>1032.5</ele><time>2026-04-27T10:26:18.999Z</time></trkpt><trkpt lat="42.085220898213585" lon="13.640353508161896"><ele>1034.25</ele><time>2026-04-27T10:26:19.999Z</time></trkpt><trkpt lat="42.08518337315744" lon="13.640190287971205"><ele>1036.0</ele><time>2026-04-27T10:26:20.999Z</time></trkpt><trkpt lat="42.08513967761565" lon="13.640037363324824"><ele>1037.25</ele><time>2026-04-27T10:26:21.999Z</time></trkpt><trkpt lat="42.08516551820876" lon="13.639902166039313"><ele>1038.5</ele><time>2026-04-27T10:26:22.999Z</time></trkpt><trkpt lat="42.08521922962399" lon="13.639785887682061"><ele>1039.75</ele><time>2026-04-27T10:26:23.999Z</time></trkpt><trkpt lat="42.0852835906559" lon="13.639653072780357"><ele>1041.0</ele><time>2026-04-27T10:26:24.999Z</time></trkpt><trkpt lat="42.085356144442784" lon="13.639505081229947"><ele>1042.75</ele><time>2026-04-27T10:26:25.999Z</time></trkpt><trkpt lat="42.08538951764618" lon="13.639351446628897"><ele>1044.5</ele><time>2026-04-27T10:26:26.999Z</time></trkpt><trkpt lat="42.08540046210878" lon="13.639217737398369"><ele>1046.25</ele><time>2026-04-27T10:26:27.999Z</time></trkpt><trkpt lat="42.08537652799085" lon="13.639068999957624"><ele>1048.0</ele><time>2026-04-27T10:26:28.999Z</time></trkpt><trkpt lat="42.08531852834086" lon="13.638913807207366"><ele>1048.0</ele><time>2026-04-27T10:26:29.999Z</time></trkpt><trkpt lat="42.085274216667635" lon="13.6387470966831"><ele>1048.0</ele><time>2026-04-27T10:26:30.999Z</time></trkpt><trkpt lat="42.0852377510012" lon="13.63857735026182"><ele>1048.0</ele><time>2026-04-27T10:26:31.999Z</time></trkpt><trkpt lat="42.085190839519775" lon="13.63841092463179"><ele>1048.0</ele><time>2026-04-27T10:26:32.999Z</time></trkpt><trkpt lat="42.08515833129904" lon="13.638233075207857"><ele>1050.25</ele><time>2026-04-27T10:26:33.999Z</time></trkpt><trkpt lat="42.08511724845781" lon="13.638058139107754"><ele>1052.5</ele><time>2026-04-27T10:26:34.999Z</time></trkpt><trkpt lat="42.08507597000457" lon="13.637876606580134"><ele>1054.75</ele><time>2026-04-27T10:26:35.999Z</time></trkpt><trkpt lat="42.085071755982746" lon="13.637694911504578"><ele>1057.0</ele><time>2026-04-27T10:26:36.999Z</time></trkpt><trkpt lat="42.08506044431058" lon="13.637526494706636"><ele>1058.5</ele><time>2026-04-27T10:26:37.999Z</time></trkpt><trkpt lat="42.08505645561738" lon="13.63736483276072"><ele>1060.0</ele><time>2026-04-27T10:26:38.999Z</time></trkpt><trkpt lat="42.085035246201045" lon="13.637212317398129"><ele>1061.5</ele><time>2026-04-27T10:26:39.999Z</time></trkpt><trkpt lat="42.085027422933834" lon="13.637065441158958"><ele>1063.0</ele><time>2026-04-27T10:26:40.999Z</time></trkpt><trkpt lat="42.08499659052115" lon="13.63693014176709"><ele>1064.4</ele><time>2026-04-27T10:26:41.999Z</time></trkpt><trkpt lat="42.08495086976805" lon="13.636793719496792"><ele>1065.8</ele><time>2026-04-27T10:26:42.999Z</time></trkpt><trkpt lat="42.08489229193825" lon="13.636675219704252"><ele>1067.2</ele><time>2026-04-27T10:26:43.999Z</time></trkpt><trkpt lat="42.084833964370205" lon="13.636568276452842"><ele>1068.6</ele><time>2026-04-27T10:26:44.999Z</time></trkpt><trkpt lat="42.08477346676334" lon="13.636450603413191"><ele>1070.0</ele><time>2026-04-27T10:26:45.999Z</time></trkpt><trkpt lat="42.084710265124706" lon="13.63634457060504"><ele>1070.25</ele><time>2026-04-27T10:26:46.999Z</time></trkpt><trkpt lat="42.08463017441516" lon="13.636225829463111"><ele>1070.5</ele><time>2026-04-27T10:26:47.999Z</time></trkpt><trkpt lat="42.08456378220262" lon="13.636088728220875"><ele>1070.75</ele><time>2026-04-27T10:26:48.999Z</time></trkpt><trkpt lat="42.084482169801284" lon="13.635969069005474"><ele>1071.0</ele><time>2026-04-27T10:26:49.999Z</time></trkpt><trkpt lat="42.084397377708804" lon="13.635857941549704"><ele>1072.1666666666667</ele><time>2026-04-27T10:26:50.999Z</time></trkpt><trkpt lat="42.08430751691109" lon="13.635772942779733"><ele>1073.3333333333333</ele><time>2026-04-27T10:26:51.999Z</time></trkpt><trkpt lat="42.0842401973345" lon="13.63568562882127"><ele>1074.5</ele><time>2026-04-27T10:26:52.999Z</time></trkpt><trkpt lat="42.08418874228848" lon="13.635597311717802"><ele>1075.6666666666665</ele><time>2026-04-27T10:26:53.999Z</time></trkpt><trkpt lat="42.084159708626544" lon="13.635504881007856"><ele>1076.8333333333333</ele><time>2026-04-27T10:26:54.999Z</time></trkpt><trkpt lat="42.084150555065584" lon="13.635399792358461"><ele>1078.0</ele><time>2026-04-27T10:26:55.999Z</time></trkpt><trkpt lat="42.08413697565938" lon="13.635256297403426"><ele>1079.5</ele><time>2026-04-27T10:26:56.999Z</time></trkpt><trkpt lat="42.084120852401384" lon="13.63511413720237"><ele>1081.0</ele><time>2026-04-27T10:26:57.999Z</time></trkpt><trkpt lat="42.0840865138145" lon="13.634979883764213"><ele>1082.5</ele><time>2026-04-27T10:26:58.999Z</time></trkpt><trkpt lat="42.08404812552739" lon="13.63483368991749"><ele>1084.0</ele><time>2026-04-27T10:26:59.999Z</time></trkpt><trkpt lat="42.08400617678652" lon="13.634673936879318"><ele>1084.0</ele><time>2026-04-27T10:27:00.999Z</time></trkpt><trkpt lat="42.08398039493505" lon="13.63456617718133"><ele>1084.0</ele><time>2026-04-27T10:27:01.999Z</time></trkpt><trkpt lat="42.083959335523225" lon="13.634468839484102"><ele>1084.0</ele><time>2026-04-27T10:27:02.999Z</time></trkpt><trkpt lat="42.08394536986079" lon="13.63436011434524"><ele>1084.0</ele><time>2026-04-27T10:27:03.999Z</time></trkpt><trkpt lat="42.08395915759226" lon="13.634249041902455"><ele>1084.0</ele><time>2026-04-27T10:27:04.999Z</time></trkpt><trkpt lat="42.083981657544236" lon="13.63416108018494"><ele>1084.0</ele><time>2026-04-27T10:27:05.999Z</time></trkpt><trkpt lat="42.08402733573921" lon="13.634028797723625"><ele>1083.25</ele><time>2026-04-27T10:27:07.999Z</time></trkpt><trkpt lat="42.084060893288104" lon="13.633927569810812"><ele>1082.5</ele><time>2026-04-27T10:27:09.998Z</time></trkpt><trkpt lat="42.08393365120007" lon="13.633744845944562"><ele>1081.75</ele><time>2026-04-27T10:27:11.998Z</time></trkpt><trkpt lat="42.083891460003336" lon="13.63367672405104"><ele>1081.0</ele><time>2026-04-27T10:27:12.998Z</time></trkpt><trkpt lat="42.08377457872576" lon="13.633672415220671"><ele>1081.0</ele><time>2026-04-27T10:27:14.998Z</time></trkpt><trkpt lat="42.08371394165132" lon="13.633695426611311"><ele>1081.0</ele><time>2026-04-27T10:27:15.998Z</time></trkpt><trkpt lat="42.0836173382077" lon="13.633752834326776"><ele>1081.0</ele><time>2026-04-27T10:27:17.998Z</time></trkpt><trkpt lat="42.08350169819757" lon="13.63379274237101"><ele>1081.0</ele><time>2026-04-27T10:27:19.998Z</time></trkpt><trkpt lat="42.08337374872645" lon="13.633799242908728"><ele>1081.0</ele><time>2026-04-27T10:27:21.998Z</time></trkpt><trkpt lat="42.08330949053502" lon="13.633787520079226"><ele>1080.3999999999999</ele><time>2026-04-27T10:27:22.998Z</time></trkpt><trkpt lat="42.08318801453375" lon="13.633755798005799"><ele>1079.8</ele><time>2026-04-27T10:27:24.998Z</time></trkpt><trkpt lat="42.083084097630675" lon="13.633660427366227"><ele>1079.1999999999998</ele><time>2026-04-27T10:27:26.998Z</time></trkpt><trkpt lat="42.08305709545194" lon="13.63357427696371"><ele>1078.6</ele><time>2026-04-27T10:27:27.998Z</time></trkpt><trkpt lat="42.08305159952271" lon="13.6334734905884"><ele>1078.0</ele><time>2026-04-27T10:27:28.999Z</time></trkpt><trkpt lat="42.08306298991184" lon="13.633364595277644"><ele>1077.8</ele><time>2026-04-27T10:27:29.999Z</time></trkpt><trkpt lat="42.08307210471424" lon="13.633251025335689"><ele>1077.6</ele><time>2026-04-27T10:27:30.999Z</time></trkpt><trkpt lat="42.08304470010124" lon="13.63313736626536"><ele>1077.4</ele><time>2026-04-27T10:27:31.999Z</time></trkpt><trkpt lat="42.08298184907696" lon="13.633024012439472"><ele>1077.2</ele><time>2026-04-27T10:27:32.999Z</time></trkpt><trkpt lat="42.082915244955686" lon="13.63291267249737"><ele>1077.0</ele><time>2026-04-27T10:27:33.999Z</time></trkpt><trkpt lat="42.08285559483922" lon="13.632798124789465"><ele>1077.0</ele><time>2026-04-27T10:27:34.999Z</time></trkpt><trkpt lat="42.08277843433386" lon="13.632670678372296"><ele>1077.0</ele><time>2026-04-27T10:27:35.999Z</time></trkpt><trkpt lat="42.08269344387591" lon="13.632552200267051"><ele>1077.0</ele><time>2026-04-27T10:27:36.999Z</time></trkpt><trkpt lat="42.082623508033755" lon="13.632439129718957"><ele>1077.0</ele><time>2026-04-27T10:27:37.999Z</time></trkpt><trkpt lat="42.08256143563234" lon="13.632326948842122"><ele>1077.0</ele><time>2026-04-27T10:27:38.999Z</time></trkpt><trkpt lat="42.08248841196823" lon="13.63220164073244"><ele>1077.0</ele><time>2026-04-27T10:27:39.999Z</time></trkpt><trkpt lat="42.08242163654844" lon="13.6320825907015"><ele>1077.0</ele><time>2026-04-27T10:27:40.999Z</time></trkpt><trkpt lat="42.08234348794001" lon="13.631970755870672"><ele>1077.0</ele><time>2026-04-27T10:27:41.999Z</time></trkpt><trkpt lat="42.08226389630293" lon="13.631864719270622"><ele>1077.8</ele><time>2026-04-27T10:27:42.999Z</time></trkpt><trkpt lat="42.08219454544669" lon="13.63175865136951"><ele>1078.6</ele><time>2026-04-27T10:27:43.999Z</time></trkpt><trkpt lat="42.08214443958051" lon="13.631657878014131"><ele>1079.3999999999999</ele><time>2026-04-27T10:27:44.999Z</time></trkpt><trkpt lat="42.08211907915115" lon="13.631538764586336"><ele>1080.2</ele><time>2026-04-27T10:27:45.999Z</time></trkpt><trkpt lat="42.082100692225666" lon="13.631399746949787"><ele>1081.0</ele><time>2026-04-27T10:27:46.999Z</time></trkpt><trkpt lat="42.08208826190973" lon="13.63125299694067"><ele>1084.0</ele><time>2026-04-27T10:27:47.999Z</time></trkpt><trkpt lat="42.08206214454556" lon="13.63110643455543"><ele>1087.0</ele><time>2026-04-27T10:27:48.999Z</time></trkpt><trkpt lat="42.08203066832192" lon="13.630951197912202"><ele>1090.0</ele><time>2026-04-27T10:27:49.999Z</time></trkpt><trkpt lat="42.082000538616434" lon="13.630793000517478"><ele>1093.0</ele><time>2026-04-27T10:27:50.999Z</time></trkpt><trkpt lat="42.081966515425485" lon="13.630641511970202"><ele>1093.0</ele><time>2026-04-27T10:27:51.999Z</time></trkpt><trkpt lat="42.08192185377166" lon="13.630506586181166"><ele>1093.0</ele><time>2026-04-27T10:27:52.999Z</time></trkpt><trkpt lat="42.08186786860923" lon="13.63039041797537"><ele>1093.0</ele><time>2026-04-27T10:27:53.999Z</time></trkpt><trkpt lat="42.081822988198724" lon="13.630266982979812"><ele>1093.0</ele><time>2026-04-27T10:27:54.999Z</time></trkpt><trkpt lat="42.081796599218016" lon="13.630129420735592"><ele>1093.0</ele><time>2026-04-27T10:27:55.999Z</time></trkpt><trkpt lat="42.081785846595736" lon="13.629992123534066"><ele>1093.6</ele><time>2026-04-27T10:27:56.999Z</time></trkpt><trkpt lat="42.08178054380119" lon="13.62985250993933"><ele>1094.1999999999998</ele><time>2026-04-27T10:27:58Z</time></trkpt><trkpt lat="42.081761188509546" lon="13.629715333661798"><ele>1094.8</ele><time>2026-04-27T10:27:59Z</time></trkpt><trkpt lat="42.08171406012317" lon="13.629586396092375"><ele>1095.3999999999999</ele><time>2026-04-27T10:28:00Z</time></trkpt><trkpt lat="42.08164967925795" lon="13.629466337002118"><ele>1096.0</ele><time>2026-04-27T10:28:01Z</time></trkpt><trkpt lat="42.081586505978684" lon="13.62932877095714"><ele>1096.0</ele><time>2026-04-27T10:28:02Z</time></trkpt><trkpt lat="42.0815312739627" lon="13.629193900825552"><ele>1096.0</ele><time>2026-04-27T10:28:03Z</time></trkpt><trkpt lat="42.081469856581876" lon="13.629068675748599"><ele>1096.0</ele><time>2026-04-27T10:28:04Z</time></trkpt><trkpt lat="42.08141058584333" lon="13.628979447732867"><ele>1096.0</ele><time>2026-04-27T10:28:05Z</time></trkpt><trkpt lat="42.08135362061693" lon="13.628909876296708"><ele>1096.0</ele><time>2026-04-27T10:28:06Z</time></trkpt><trkpt lat="42.08127889701012" lon="13.628809564564015"><ele>1096.0</ele><time>2026-04-27T10:28:08Z</time></trkpt><trkpt lat="42.08122218161902" lon="13.628719172391996"><ele>1096.0</ele><time>2026-04-27T10:28:10Z</time></trkpt><trkpt lat="42.08114832647922" lon="13.62860651644501"><ele>1096.0</ele><time>2026-04-27T10:30:25Z</time></trkpt><trkpt lat="42.08110769505109" lon="13.628529412572227"><ele>1096.0</ele><time>2026-04-27T10:30:26Z</time></trkpt><trkpt lat="42.081066414022644" lon="13.628449383841808"><ele>1096.0</ele><time>2026-04-27T10:30:27Z</time></trkpt><trkpt lat="42.08102216959774" lon="13.628362573865628"><ele>1096.0</ele><time>2026-04-27T10:30:28Z</time></trkpt><trkpt lat="42.080983480697164" lon="13.628292852538921"><ele>1095.3333333333333</ele><time>2026-04-27T10:30:29Z</time></trkpt><trkpt lat="42.08094144701968" lon="13.628200076820574"><ele>1094.6666666666665</ele><time>2026-04-27T10:30:30Z</time></trkpt><trkpt lat="42.08089861356469" lon="13.628091938449428"><ele>1094.0</ele><time>2026-04-27T10:30:31Z</time></trkpt><trkpt lat="42.08086625239173" lon="13.628002366500311"><ele>1093.3333333333333</ele><time>2026-04-27T10:30:32Z</time></trkpt><trkpt lat="42.080844248082094" lon="13.627922224808088"><ele>1092.6666666666667</ele><time>2026-04-27T10:30:34Z</time></trkpt><trkpt lat="42.080795888807884" lon="13.627828663073103"><ele>1092.0</ele><time>2026-04-27T10:31:27.999Z</time></trkpt><trkpt lat="42.08073690836846" lon="13.62776740592296"><ele>1092.0</ele><time>2026-04-27T10:31:28.999Z</time></trkpt><trkpt lat="42.080678411710956" lon="13.627682392859674"><ele>1092.0</ele><time>2026-04-27T10:31:29.999Z</time></trkpt><trkpt lat="42.08061773700743" lon="13.627576549748294"><ele>1092.0</ele><time>2026-04-27T10:31:30.999Z</time></trkpt><trkpt lat="42.080549740720926" lon="13.627461249890079"><ele>1092.0</ele><time>2026-04-27T10:31:31.999Z</time></trkpt><trkpt lat="42.08049105753362" lon="13.627367005220297"><ele>1092.0</ele><time>2026-04-27T10:31:32.999Z</time></trkpt><trkpt lat="42.08043823912398" lon="13.62727149767948"><ele>1092.0</ele><time>2026-04-27T10:31:33.999Z</time></trkpt><trkpt lat="42.08039210633773" lon="13.627170823456984"><ele>1092.0</ele><time>2026-04-27T10:31:34.999Z</time></trkpt><trkpt lat="42.08035832294796" lon="13.62706614794839"><ele>1092.0</ele><time>2026-04-27T10:31:35.999Z</time></trkpt><trkpt lat="42.080333389502854" lon="13.626953554437923"><ele>1092.0</ele><time>2026-04-27T10:31:36.999Z</time></trkpt><trkpt lat="42.08032292238432" lon="13.626842307190163"><ele>1092.0</ele><time>2026-04-27T10:31:37.999Z</time></trkpt><trkpt lat="42.08032853941527" lon="13.626731450585114"><ele>1092.0</ele><time>2026-04-27T10:31:38.999Z</time></trkpt><trkpt lat="42.080340297451095" lon="13.626615799971404"><ele>1092.4</ele><time>2026-04-27T10:31:39.999Z</time></trkpt><trkpt lat="42.08036133227925" lon="13.626497621117586"><ele>1092.8000000000002</ele><time>2026-04-27T10:31:40.999Z</time></trkpt><trkpt lat="42.08038778788204" lon="13.626377208889576"><ele>1093.2</ele><time>2026-04-27T10:31:41.999Z</time></trkpt><trkpt lat="42.08042011219163" lon="13.626248438300362"><ele>1093.6000000000001</ele><time>2026-04-27T10:31:42.999Z</time></trkpt><trkpt lat="42.08044605454017" lon="13.626110189009532"><ele>1094.0</ele><time>2026-04-27T10:31:43.999Z</time></trkpt><trkpt lat="42.080448316091676" lon="13.625967399984791"><ele>1094.4</ele><time>2026-04-27T10:31:44.999Z</time></trkpt><trkpt lat="42.08041633507907" lon="13.625820815207998"><ele>1094.8000000000002</ele><time>2026-04-27T10:31:45.999Z</time></trkpt><trkpt lat="42.080376274915515" lon="13.625682884239465"><ele>1095.1999999999998</ele><time>2026-04-27T10:31:46.999Z</time></trkpt><trkpt lat="42.080354346281794" lon="13.62554454868274"><ele>1095.6</ele><time>2026-04-27T10:31:47.999Z</time></trkpt><trkpt lat="42.080343673359856" lon="13.62538429105672"><ele>1096.0</ele><time>2026-04-27T10:31:48.999Z</time></trkpt><trkpt lat="42.08033620306794" lon="13.625211801152249"><ele>1096.75</ele><time>2026-04-27T10:31:49.999Z</time></trkpt><trkpt lat="42.08033269955035" lon="13.625034989949109"><ele>1097.5</ele><time>2026-04-27T10:31:50.999Z</time></trkpt><trkpt lat="42.08032975503717" lon="13.624856155289512"><ele>1098.25</ele><time>2026-04-27T10:31:51.999Z</time></trkpt><trkpt lat="42.08033236316698" lon="13.624679775478526"><ele>1099.0</ele><time>2026-04-27T10:31:52.999Z</time></trkpt><trkpt lat="42.08034285809431" lon="13.624522603818079"><ele>1099.0</ele><time>2026-04-27T10:31:53.999Z</time></trkpt><trkpt lat="42.08037607272349" lon="13.624376620592063"><ele>1099.0</ele><time>2026-04-27T10:31:54.999Z</time></trkpt><trkpt lat="42.080424965488575" lon="13.6242234569343"><ele>1099.0</ele><time>2026-04-27T10:31:55.999Z</time></trkpt><trkpt lat="42.08046075604462" lon="13.624072509381424"><ele>1099.0</ele><time>2026-04-27T10:31:56.999Z</time></trkpt><trkpt lat="42.08045989451887" lon="13.623913297173424"><ele>1099.0</ele><time>2026-04-27T10:31:57.999Z</time></trkpt><trkpt lat="42.080421983589844" lon="13.623742624561357"><ele>1099.0</ele><time>2026-04-27T10:31:58.999Z</time></trkpt><trkpt lat="42.08038720384942" lon="13.623569934581685"><ele>1099.0</ele><time>2026-04-27T10:31:59.999Z</time></trkpt><trkpt lat="42.0803628247204" lon="13.623398114959326"><ele>1099.0</ele><time>2026-04-27T10:32:00.999Z</time></trkpt><trkpt lat="42.080363155452254" lon="13.62322529653138"><ele>1099.5</ele><time>2026-04-27T10:32:01.999Z</time></trkpt><trkpt lat="42.08037616919877" lon="13.623048275044992"><ele>1100.0</ele><time>2026-04-27T10:32:02.999Z</time></trkpt><trkpt lat="42.08039655159787" lon="13.622872637337077"><ele>1100.5</ele><time>2026-04-27T10:32:03.999Z</time></trkpt><trkpt lat="42.080424944987016" lon="13.622703859970303"><ele>1101.0</ele><time>2026-04-27T10:32:04.999Z</time></trkpt><trkpt lat="42.08044759250217" lon="13.62254546705262"><ele>1101.0</ele><time>2026-04-27T10:32:05.999Z</time></trkpt><trkpt lat="42.08046550928037" lon="13.622409550231144"><ele>1101.0</ele><time>2026-04-27T10:32:06.999Z</time></trkpt><trkpt lat="42.08050588858167" lon="13.622278753844316"><ele>1101.0</ele><time>2026-04-27T10:32:07.998Z</time></trkpt><trkpt lat="42.08056213828362" lon="13.622132041998787"><ele>1101.0</ele><time>2026-04-27T10:32:09Z</time></trkpt><trkpt lat="42.08062055298567" lon="13.622011441082169"><ele>1101.0</ele><time>2026-04-27T10:32:10Z</time></trkpt><trkpt lat="42.08067870361555" lon="13.621909195199608"><ele>1100.0</ele><time>2026-04-27T10:32:11Z</time></trkpt><trkpt lat="42.08075090259503" lon="13.621811423149454"><ele>1099.0</ele><time>2026-04-27T10:32:12Z</time></trkpt><trkpt lat="42.08082709919979" lon="13.621739494847766"><ele>1098.0</ele><time>2026-04-27T10:32:13Z</time></trkpt><trkpt lat="42.080896050606505" lon="13.62166887833302"><ele>1097.0</ele><time>2026-04-27T10:32:14Z</time></trkpt><trkpt lat="42.08094489088185" lon="13.621570553068338"><ele>1096.0</ele><time>2026-04-27T10:32:15Z</time></trkpt><trkpt lat="42.08097834996511" lon="13.621448682741255"><ele>1099.25</ele><time>2026-04-27T10:32:16Z</time></trkpt><trkpt lat="42.0810117094079" lon="13.621309198401416"><ele>1102.5</ele><time>2026-04-27T10:32:17Z</time></trkpt><trkpt lat="42.08106671225101" lon="13.621170211935322"><ele>1105.75</ele><time>2026-04-27T10:32:18Z</time></trkpt><trkpt lat="42.081133143047225" lon="13.621013615748456"><ele>1109.0</ele><time>2026-04-27T10:32:19Z</time></trkpt><trkpt lat="42.08118767341253" lon="13.62086482617835"><ele>1109.0</ele><time>2026-04-27T10:32:20Z</time></trkpt><trkpt lat="42.08122963141095" lon="13.620697178970843"><ele>1109.0</ele><time>2026-04-27T10:32:21Z</time></trkpt><trkpt lat="42.08126412704319" lon="13.620530999860124"><ele>1109.0</ele><time>2026-04-27T10:32:22Z</time></trkpt><trkpt lat="42.081296442972565" lon="13.620363178603643"><ele>1109.0</ele><time>2026-04-27T10:32:23Z</time></trkpt><trkpt lat="42.08134264001327" lon="13.620198653533816"><ele>1107.25</ele><time>2026-04-27T10:32:24Z</time></trkpt><trkpt lat="42.081390591204624" lon="13.62003847012772"><ele>1105.5</ele><time>2026-04-27T10:32:25Z</time></trkpt><trkpt lat="42.08142662161851" lon="13.61990848276645"><ele>1103.75</ele><time>2026-04-27T10:32:26Z</time></trkpt><trkpt lat="42.08146085722744" lon="13.619767708602557"><ele>1102.0</ele><time>2026-04-27T10:32:27Z</time></trkpt><trkpt lat="42.08149680065597" lon="13.61961705982554"><ele>1103.75</ele><time>2026-04-27T10:32:28Z</time></trkpt><trkpt lat="42.08153588632841" lon="13.619466013642851"><ele>1105.5</ele><time>2026-04-27T10:32:29Z</time></trkpt><trkpt lat="42.08158233249244" lon="13.619310621945573"><ele>1107.25</ele><time>2026-04-27T10:32:30Z</time></trkpt><trkpt lat="42.081631743251336" lon="13.619147383209791"><ele>1109.0</ele><time>2026-04-27T10:32:31Z</time></trkpt><trkpt lat="42.08167374067692" lon="13.619001601528076"><ele>1109.0</ele><time>2026-04-27T10:32:32Z</time></trkpt><trkpt lat="42.081719091974904" lon="13.61883513188153"><ele>1109.0</ele><time>2026-04-27T10:32:33Z</time></trkpt><trkpt lat="42.08177405415795" lon="13.618689014193029"><ele>1109.0</ele><time>2026-04-27T10:32:34Z</time></trkpt><trkpt lat="42.081828063050196" lon="13.618520132403836"><ele>1109.0</ele><time>2026-04-27T10:32:35Z</time></trkpt><trkpt lat="42.081882105414934" lon="13.618351625541052"><ele>1106.25</ele><time>2026-04-27T10:32:36Z</time></trkpt><trkpt lat="42.081935442221" lon="13.618179294612773"><ele>1103.5</ele><time>2026-04-27T10:32:37Z</time></trkpt><trkpt lat="42.081992089594195" lon="13.61799229498715"><ele>1100.75</ele><time>2026-04-27T10:32:38Z</time></trkpt><trkpt lat="42.08204275706207" lon="13.617792113863485"><ele>1098.0</ele><time>2026-04-27T10:32:39Z</time></trkpt><trkpt lat="42.08209080003043" lon="13.617606547036246"><ele>1095.25</ele><time>2026-04-27T10:32:40Z</time></trkpt><trkpt lat="42.08212944701273" lon="13.617410516211931"><ele>1092.5</ele><time>2026-04-27T10:32:41Z</time></trkpt><trkpt lat="42.0821601221837" lon="13.617221747158911"><ele>1089.75</ele><time>2026-04-27T10:32:42Z</time></trkpt><trkpt lat="42.08218949175501" lon="13.617052077199029"><ele>1087.0</ele><time>2026-04-27T10:32:43Z</time></trkpt><trkpt lat="42.08221844633125" lon="13.616895274776782"><ele>1085.6</ele><time>2026-04-27T10:32:44Z</time></trkpt><trkpt lat="42.08224845777892" lon="13.616758845319598"><ele>1084.2</ele><time>2026-04-27T10:32:45Z</time></trkpt><trkpt lat="42.082253169927164" lon="13.616633122938737"><ele>1082.8</ele><time>2026-04-27T10:32:46Z</time></trkpt><trkpt lat="42.082237858072354" lon="13.616490953286604"><ele>1081.4</ele><time>2026-04-27T10:32:47Z</time></trkpt><trkpt lat="42.08221514136218" lon="13.616339147925228"><ele>1080.0</ele><time>2026-04-27T10:32:48Z</time></trkpt><trkpt lat="42.08220688237223" lon="13.616179192114908"><ele>1078.4</ele><time>2026-04-27T10:32:49Z</time></trkpt><trkpt lat="42.08220392409672" lon="13.616029414847588"><ele>1076.8</ele><time>2026-04-27T10:32:50Z</time></trkpt><trkpt lat="42.08220811348832" lon="13.615892049556384"><ele>1075.2</ele><time>2026-04-27T10:32:51Z</time></trkpt><trkpt lat="42.08221441073612" lon="13.615758839242073"><ele>1073.6</ele><time>2026-04-27T10:32:52Z</time></trkpt><trkpt lat="42.08221790403753" lon="13.615625369628445"><ele>1072.0</ele><time>2026-04-27T10:32:53Z</time></trkpt><trkpt lat="42.082216917258165" lon="13.615464429574374"><ele>1070.8</ele><time>2026-04-27T10:32:54Z</time></trkpt><trkpt lat="42.082208569538594" lon="13.615315481797893"><ele>1069.6</ele><time>2026-04-27T10:32:55Z</time></trkpt><trkpt lat="42.08219706229533" lon="13.615168130252101"><ele>1068.3999999999999</ele><time>2026-04-27T10:32:56Z</time></trkpt><trkpt lat="42.08219071461624" lon="13.61502046546606"><ele>1067.2</ele><time>2026-04-27T10:32:57Z</time></trkpt><trkpt lat="42.082185729982164" lon="13.614874427448122"><ele>1066.0</ele><time>2026-04-27T10:32:58Z</time></trkpt><trkpt lat="42.08217908283217" lon="13.614708488211173"><ele>1066.0</ele><time>2026-04-27T10:32:59Z</time></trkpt><trkpt lat="42.08217636688105" lon="13.614530763221747"><ele>1066.0</ele><time>2026-04-27T10:33:00Z</time></trkpt><trkpt lat="42.08216720923227" lon="13.614354139729398"><ele>1066.0</ele><time>2026-04-27T10:33:01Z</time></trkpt><trkpt lat="42.08216108913322" lon="13.614185983851337"><ele>1066.0</ele><time>2026-04-27T10:33:02Z</time></trkpt><trkpt lat="42.082155168241904" lon="13.6140116451438"><ele>1064.25</ele><time>2026-04-27T10:33:03Z</time></trkpt><trkpt lat="42.08214548403329" lon="13.61384513535471"><ele>1062.5</ele><time>2026-04-27T10:33:04Z</time></trkpt><trkpt lat="42.08213367387015" lon="13.613688444816066"><ele>1060.75</ele><time>2026-04-27T10:33:05Z</time></trkpt><trkpt lat="42.08213255747342" lon="13.61352739025287"><ele>1059.0</ele><time>2026-04-27T10:33:06Z</time></trkpt><trkpt lat="42.082110630172714" lon="13.613359212238093"><ele>1057.75</ele><time>2026-04-27T10:33:07Z</time></trkpt><trkpt lat="42.08210130877075" lon="13.613192842660832"><ele>1056.5</ele><time>2026-04-27T10:33:08Z</time></trkpt><trkpt lat="42.08209525845457" lon="13.613026663897834"><ele>1055.25</ele><time>2026-04-27T10:33:09Z</time></trkpt><trkpt lat="42.08208679383522" lon="13.612846300668478"><ele>1054.0</ele><time>2026-04-27T10:33:10Z</time></trkpt><trkpt lat="42.082083589748876" lon="13.612667935745016"><ele>1053.0</ele><time>2026-04-27T10:33:10.999Z</time></trkpt><trkpt lat="42.08208027441229" lon="13.612495925699966"><ele>1052.0</ele><time>2026-04-27T10:33:11.999Z</time></trkpt><trkpt lat="42.08207693717625" lon="13.61234430020632"><ele>1051.0</ele><time>2026-04-27T10:33:12.999Z</time></trkpt><trkpt lat="42.08206847317773" lon="13.61221038029132"><ele>1050.0</ele><time>2026-04-27T10:33:13.999Z</time></trkpt><trkpt lat="42.08206000359121" lon="13.612077389591644"><ele>1049.0</ele><time>2026-04-27T10:33:14.999Z</time></trkpt><trkpt lat="42.0820542627213" lon="13.611943531576847"><ele>1047.6000000000001</ele><time>2026-04-27T10:33:15.999Z</time></trkpt><trkpt lat="42.08204954240756" lon="13.611803205589927"><ele>1046.2</ele><time>2026-04-27T10:33:16.999Z</time></trkpt><trkpt lat="42.08204029255428" lon="13.611650555912481"><ele>1044.8000000000002</ele><time>2026-04-27T10:33:17.999Z</time></trkpt><trkpt lat="42.08203436798714" lon="13.611499964618483"><ele>1043.4</ele><time>2026-04-27T10:33:18.999Z</time></trkpt><trkpt lat="42.08202873626282" lon="13.61134145977208"><ele>1042.0</ele><time>2026-04-27T10:33:19.999Z</time></trkpt><trkpt lat="42.082030406089935" lon="13.611212146383636"><ele>1040.1666666666665</ele><time>2026-04-27T10:33:20.999Z</time></trkpt><trkpt lat="42.08203089492568" lon="13.611085424922582"><ele>1038.3333333333333</ele><time>2026-04-27T10:33:21.999Z</time></trkpt><trkpt lat="42.08203284451095" lon="13.610954970923784"><ele>1036.5</ele><time>2026-04-27T10:33:22.999Z</time></trkpt><trkpt lat="42.082041232601036" lon="13.610847173565302"><ele>1034.6666666666667</ele><time>2026-04-27T10:33:23.999Z</time></trkpt><trkpt lat="42.08206136748681" lon="13.610740478969472"><ele>1032.8333333333335</ele><time>2026-04-27T10:33:24.999Z</time></trkpt><trkpt lat="42.0821041865291" lon="13.610644236380047"><ele>1031.0</ele><time>2026-04-27T10:33:25.999Z</time></trkpt><trkpt lat="42.08215390380037" lon="13.610560853448321"><ele>1031.0</ele><time>2026-04-27T10:33:26.999Z</time></trkpt><trkpt lat="42.082213240038854" lon="13.610496500671243"><ele>1031.0</ele><time>2026-04-27T10:33:27.999Z</time></trkpt><trkpt lat="42.08228453325343" lon="13.610458520182734"><ele>1031.0</ele><time>2026-04-27T10:33:28.999Z</time></trkpt><trkpt lat="42.08235876364079" lon="13.610444472006703"><ele>1031.0</ele><time>2026-04-27T10:33:29.999Z</time></trkpt><trkpt lat="42.08243793929826" lon="13.610441299886324"><ele>1031.0</ele><time>2026-04-27T10:33:30.999Z</time></trkpt><trkpt lat="42.082521414654025" lon="13.610447570545787"><ele>1031.0</ele><time>2026-04-27T10:33:31.999Z</time></trkpt><trkpt lat="42.08260316058198" lon="13.610447385351229"><ele>1031.6666666666667</ele><time>2026-04-27T10:33:32.999Z</time></trkpt><trkpt lat="42.08268996343273" lon="13.610422531371425"><ele>1032.3333333333335</ele><time>2026-04-27T10:33:33.999Z</time></trkpt><trkpt lat="42.08276436260407" lon="13.61038485494258"><ele>1033.0</ele><time>2026-04-27T10:33:34.999Z</time></trkpt><trkpt lat="42.08282095540987" lon="13.610314493836544"><ele>1033.6666666666667</ele><time>2026-04-27T10:33:35.999Z</time></trkpt><trkpt lat="42.082844841067875" lon="13.61015971195032"><ele>1034.3333333333333</ele><time>2026-04-27T10:33:37.999Z</time></trkpt><trkpt lat="42.082816730727856" lon="13.610079140553607"><ele>1035.0</ele><time>2026-04-27T10:33:38.999Z</time></trkpt><trkpt lat="42.082753332753015" lon="13.609987055495099"><ele>1035.0</ele><time>2026-04-27T10:33:40.999Z</time></trkpt><trkpt lat="42.08269206601235" lon="13.60994831454736"><ele>1035.0</ele><time>2026-04-27T10:33:42.999Z</time></trkpt><trkpt lat="42.082596806637774" lon="13.609897949368447"><ele>1035.0</ele><time>2026-04-27T10:33:44.999Z</time></trkpt><trkpt lat="42.08256623418735" lon="13.610019295297901"><ele>1035.0</ele><time>2026-04-27T10:33:49.999Z</time></trkpt><trkpt lat="42.08253545263521" lon="13.610094813892845"><ele>1035.0</ele><time>2026-04-27T10:33:52.999Z</time></trkpt><trkpt lat="42.0824663737403" lon="13.610085496177106"><ele>1035.0</ele><time>2026-04-27T10:33:53.999Z</time></trkpt><trkpt lat="42.08236610314997" lon="13.610044563432796"><ele>1032.2</ele><time>2026-04-27T10:33:54.999Z</time></trkpt><trkpt lat="42.08226290673455" lon="13.610016768796447"><ele>1029.4</ele><time>2026-04-27T10:33:55.999Z</time></trkpt><trkpt lat="42.08215897429598" lon="13.60999918233839"><ele>1026.6</ele><time>2026-04-27T10:33:56.999Z</time></trkpt><trkpt lat="42.082056751321076" lon="13.60999880050466"><ele>1023.8</ele><time>2026-04-27T10:33:57.999Z</time></trkpt><trkpt lat="42.08196165830027" lon="13.609996637471411"><ele>1021.0</ele><time>2026-04-27T10:33:58.999Z</time></trkpt><trkpt lat="42.08185887462567" lon="13.609992441294013"><ele>1021.0</ele><time>2026-04-27T10:33:59.999Z</time></trkpt><trkpt lat="42.08176691979877" lon="13.609999403108729"><ele>1020.9999999999999</ele><time>2026-04-27T10:34:00.999Z</time></trkpt><trkpt lat="42.081679718415394" lon="13.610013296708631"><ele>1020.9999999999999</ele><time>2026-04-27T10:34:01.999Z</time></trkpt><trkpt lat="42.081603592588436" lon="13.610010190898782"><ele>1021.0</ele><time>2026-04-27T10:34:02.999Z</time></trkpt><trkpt lat="42.08151197093316" lon="13.610023408289699"><ele>1021.0</ele><time>2026-04-27T10:34:03.999Z</time></trkpt><trkpt lat="42.0814093749038" lon="13.61006316066525"><ele>1018.5999999999999</ele><time>2026-04-27T10:34:04.999Z</time></trkpt><trkpt lat="42.08132037189293" lon="13.610126923678896"><ele>1016.1999999999999</ele><time>2026-04-27T10:34:05.999Z</time></trkpt><trkpt lat="42.081234495337654" lon="13.61021333693344"><ele>1013.8000000000001</ele><time>2026-04-27T10:34:06.999Z</time></trkpt><trkpt lat="42.08116700339195" lon="13.610267274899066"><ele>1011.4000000000001</ele><time>2026-04-27T10:34:07.999Z</time></trkpt><trkpt lat="42.08105158107747" lon="13.610282101081795"><ele>1009.0</ele><time>2026-04-27T10:34:09.999Z</time></trkpt><trkpt lat="42.080981738327" lon="13.610261366373974"><ele>1009.0</ele><time>2026-04-27T10:34:10.999Z</time></trkpt><trkpt lat="42.080896939686184" lon="13.610212398606789"><ele>1009.0000000000001</ele><time>2026-04-27T10:34:11.999Z</time></trkpt><trkpt lat="42.08081019753232" lon="13.610194301469608"><ele>1009.0000000000001</ele><time>2026-04-27T10:34:12.999Z</time></trkpt><trkpt lat="42.0807138593712" lon="13.610202582546302"><ele>1009.0</ele><time>2026-04-27T10:34:13.999Z</time></trkpt><trkpt lat="42.08060125892723" lon="13.610222622320997"><ele>1009.0</ele><time>2026-04-27T10:34:15Z</time></trkpt><trkpt lat="42.08048106598132" lon="13.610253882144638"><ele>1007.0</ele><time>2026-04-27T10:34:16Z</time></trkpt><trkpt lat="42.08036391361107" lon="13.610294567551732"><ele>1005.0000000000001</ele><time>2026-04-27T10:34:17Z</time></trkpt><trkpt lat="42.08024615952834" lon="13.610327364849166"><ele>1003.0000000000001</ele><time>2026-04-27T10:34:18Z</time></trkpt><trkpt lat="42.08014779368108" lon="13.610329753126235"><ele>1001.0</ele><time>2026-04-27T10:34:19Z</time></trkpt><trkpt lat="42.08006003824326" lon="13.610332096425948"><ele>999.0</ele><time>2026-04-27T10:34:20Z</time></trkpt><trkpt lat="42.07995856231186" lon="13.610330857041081"><ele>996.4000000000001</ele><time>2026-04-27T10:34:21Z</time></trkpt><trkpt lat="42.079855624366296" lon="13.610347694419644"><ele>993.8000000000001</ele><time>2026-04-27T10:34:22Z</time></trkpt><trkpt lat="42.07975202244057" lon="13.610386366417552"><ele>991.1999999999999</ele><time>2026-04-27T10:34:23Z</time></trkpt><trkpt lat="42.079658418473116" lon="13.610426605245667"><ele>988.5999999999999</ele><time>2026-04-27T10:34:24Z</time></trkpt><trkpt lat="42.07957128829114" lon="13.61044161982524"><ele>986.0</ele><time>2026-04-27T10:34:25Z</time></trkpt><trkpt lat="42.07948249912119" lon="13.610450168091607"><ele>986.0</ele><time>2026-04-27T10:34:26Z</time></trkpt><trkpt lat="42.07938944660929" lon="13.61040101732119"><ele>985.9999999999999</ele><time>2026-04-27T10:34:27Z</time></trkpt><trkpt lat="42.07928808653271" lon="13.610330840801227"><ele>985.9999999999999</ele><time>2026-04-27T10:34:28Z</time></trkpt><trkpt lat="42.079200657804755" lon="13.610278608250951"><ele>986.0</ele><time>2026-04-27T10:34:29Z</time></trkpt><trkpt lat="42.079103773633804" lon="13.610249515153738"><ele>986.0</ele><time>2026-04-27T10:34:30Z</time></trkpt><trkpt lat="42.079003177875386" lon="13.610239467428647"><ele>983.0</ele><time>2026-04-27T10:34:31Z</time></trkpt><trkpt lat="42.0789043150592" lon="13.610234005345616"><ele>979.9999999999999</ele><time>2026-04-27T10:34:32Z</time></trkpt><trkpt lat="42.078808923381075" lon="13.610244439529069"><ele>976.9999999999999</ele><time>2026-04-27T10:34:33Z</time></trkpt><trkpt lat="42.0787140444241" lon="13.610265818376869"><ele>974.0</ele><time>2026-04-27T10:34:34Z</time></trkpt><trkpt lat="42.078598109294" lon="13.610273183950724"><ele>971.0</ele><time>2026-04-27T10:34:35Z</time></trkpt><trkpt lat="42.07849055799919" lon="13.610257314155396"><ele>971.0</ele><time>2026-04-27T10:34:36Z</time></trkpt><trkpt lat="42.07838645464661" lon="13.610235594354522"><ele>970.9999999999999</ele><time>2026-04-27T10:34:37Z</time></trkpt><trkpt lat="42.07829288598623" lon="13.61022306847738"><ele>970.9999999999999</ele><time>2026-04-27T10:34:38Z</time></trkpt><trkpt lat="42.07818282500227" lon="13.61023203096843"><ele>971.0</ele><time>2026-04-27T10:34:39Z</time></trkpt><trkpt lat="42.07808676917356" lon="13.610280590226129"><ele>971.0</ele><time>2026-04-27T10:34:40Z</time></trkpt><trkpt lat="42.0780110088445" lon="13.610310571942726"><ele>969.0</ele><time>2026-04-27T10:34:41Z</time></trkpt><trkpt lat="42.07790716919681" lon="13.61031812064511"><ele>966.9999999999999</ele><time>2026-04-27T10:34:42Z</time></trkpt><trkpt lat="42.07779259610571" lon="13.610299572096652"><ele>964.9999999999999</ele><time>2026-04-27T10:34:43Z</time></trkpt><trkpt lat="42.07769081747817" lon="13.610283992641952"><ele>963.0</ele><time>2026-04-27T10:34:44Z</time></trkpt><trkpt lat="42.07760069566342" lon="13.610295339062922"><ele>961.0</ele><time>2026-04-27T10:34:45Z</time></trkpt><trkpt lat="42.077511154706016" lon="13.610330689047721"><ele>958.1999999999999</ele><time>2026-04-27T10:34:46Z</time></trkpt><trkpt lat="42.07741749033928" lon="13.610347906358147"><ele>955.3999999999999</ele><time>2026-04-27T10:34:47Z</time></trkpt><trkpt lat="42.07732032826819" lon="13.610344509920376"><ele>952.6</ele><time>2026-04-27T10:34:48Z</time></trkpt><trkpt lat="42.077221166174226" lon="13.610367567406145"><ele>949.8</ele><time>2026-04-27T10:34:49Z</time></trkpt><trkpt lat="42.07712697867512" lon="13.610416447707436"><ele>947.0</ele><time>2026-04-27T10:34:50Z</time></trkpt><trkpt lat="42.07703795497544" lon="13.610442832673975"><ele>947.0</ele><time>2026-04-27T10:34:51Z</time></trkpt><trkpt lat="42.07693685560944" lon="13.610432292872604"><ele>947.0</ele><time>2026-04-27T10:34:52Z</time></trkpt><trkpt lat="42.07682228160189" lon="13.610410013670677"><ele>947.0</ele><time>2026-04-27T10:34:53Z</time></trkpt><trkpt lat="42.076686562746076" lon="13.61039772778593"><ele>947.0</ele><time>2026-04-27T10:34:54Z</time></trkpt><trkpt lat="42.076553211837144" lon="13.610408382112968"><ele>943.8</ele><time>2026-04-27T10:34:55Z</time></trkpt><trkpt lat="42.076432334536086" lon="13.610411872828191"><ele>940.6</ele><time>2026-04-27T10:34:56Z</time></trkpt><trkpt lat="42.07632493598319" lon="13.610417117763076"><ele>937.3999999999999</ele><time>2026-04-27T10:34:57Z</time></trkpt><trkpt lat="42.07622566556599" lon="13.610432191425211"><ele>934.1999999999999</ele><time>2026-04-27T10:34:58Z</time></trkpt><trkpt lat="42.07613641632863" lon="13.610453681742039"><ele>931.0</ele><time>2026-04-27T10:34:59Z</time></trkpt><trkpt lat="42.07607038788824" lon="13.610504060266187"><ele>931.0</ele><time>2026-04-27T10:35:00Z</time></trkpt><trkpt lat="42.0760182373722" lon="13.610591975832213"><ele>930.9999999999999</ele><time>2026-04-27T10:35:01Z</time></trkpt><trkpt lat="42.075959835678326" lon="13.610693801509909"><ele>930.9999999999999</ele><time>2026-04-27T10:35:02Z</time></trkpt><trkpt lat="42.07588875309135" lon="13.610791226460561"><ele>931.0</ele><time>2026-04-27T10:35:03Z</time></trkpt><trkpt lat="42.07580534692592" lon="13.610847514723714"><ele>931.0</ele><time>2026-04-27T10:35:04Z</time></trkpt><trkpt lat="42.075759645520264" lon="13.610964193970231"><ele>928.9999999999999</ele><time>2026-04-27T10:35:05Z</time></trkpt><trkpt lat="42.07569619413673" lon="13.611022775517972"><ele>927.0</ele><time>2026-04-27T10:35:06Z</time></trkpt><trkpt lat="42.07563181425822" lon="13.611082214275855"><ele>925.0</ele><time>2026-04-27T10:35:07Z</time></trkpt><trkpt lat="42.07557344531358" lon="13.611140615604288"><ele>923.0</ele><time>2026-04-27T10:35:08Z</time></trkpt><trkpt lat="42.0755072226958" lon="13.61124086102735"><ele>920.9999999999999</ele><time>2026-04-27T10:35:09Z</time></trkpt><trkpt lat="42.07540293090482" lon="13.611313154998367"><ele>919.0</ele><time>2026-04-27T10:35:10Z</time></trkpt><trkpt lat="42.07531867359331" lon="13.611350789944352"><ele>918.75</ele><time>2026-04-27T10:35:11Z</time></trkpt><trkpt lat="42.07517479430635" lon="13.611324974614666"><ele>918.5</ele><time>2026-04-27T10:35:12Z</time></trkpt><trkpt lat="42.07507524344377" lon="13.611282762437469"><ele>918.25</ele><time>2026-04-27T10:35:13Z</time></trkpt><trkpt lat="42.074977765360885" lon="13.611286193861257"><ele>918.0</ele><time>2026-04-27T10:35:14Z</time></trkpt><trkpt lat="42.074870569754076" lon="13.611272839512885"><ele>916.0</ele><time>2026-04-27T10:35:15Z</time></trkpt><trkpt lat="42.07474983320768" lon="13.611257211387223"><ele>914.0</ele><time>2026-04-27T10:35:16Z</time></trkpt><trkpt lat="42.074628999899204" lon="13.611221363311666"><ele>912.0</ele><time>2026-04-27T10:35:17Z</time></trkpt><trkpt lat="42.074495488781885" lon="13.611157742918598"><ele>910.0</ele><time>2026-04-27T10:35:18Z</time></trkpt><trkpt lat="42.07434964654165" lon="13.61108181085743"><ele>909.75</ele><time>2026-04-27T10:35:19Z</time></trkpt><trkpt lat="42.07420614970402" lon="13.611003781439944"><ele>909.5</ele><time>2026-04-27T10:35:20Z</time></trkpt><trkpt lat="42.07407478344067" lon="13.610928512350638"><ele>909.25</ele><time>2026-04-27T10:35:21Z</time></trkpt><trkpt lat="42.073950145554385" lon="13.610850545461261"><ele>909.0</ele><time>2026-04-27T10:35:22Z</time></trkpt><trkpt lat="42.0738373136155" lon="13.61077053009673"><ele>907.6</ele><time>2026-04-27T10:35:23Z</time></trkpt><trkpt lat="42.07373264953726" lon="13.610687738064884"><ele>906.2</ele><time>2026-04-27T10:35:24Z</time></trkpt><trkpt lat="42.073639937439935" lon="13.610621583186175"><ele>904.8000000000001</ele><time>2026-04-27T10:35:25Z</time></trkpt><trkpt lat="42.073554237253056" lon="13.610544764129695"><ele>903.4000000000001</ele><time>2026-04-27T10:35:26Z</time></trkpt><trkpt lat="42.07347089617404" lon="13.610455687811953"><ele>902.0</ele><time>2026-04-27T10:35:27Z</time></trkpt><trkpt lat="42.07337645803572" lon="13.610358771236655"><ele>899.25</ele><time>2026-04-27T10:35:28Z</time></trkpt><trkpt lat="42.07326148673728" lon="13.610269326537455"><ele>896.5</ele><time>2026-04-27T10:35:29Z</time></trkpt><trkpt lat="42.073152277880816" lon="13.610146660770226"><ele>893.75</ele><time>2026-04-27T10:35:30Z</time></trkpt><trkpt lat="42.07304013796389" lon="13.610000392772635"><ele>891.0</ele><time>2026-04-27T10:35:31Z</time></trkpt><trkpt lat="42.072909278192846" lon="13.609874182303656"><ele>891.0</ele><time>2026-04-27T10:35:32Z</time></trkpt><trkpt lat="42.072784843599734" lon="13.609728234442294"><ele>891.0</ele><time>2026-04-27T10:35:33Z</time></trkpt><trkpt lat="42.072665359025" lon="13.609580579936722"><ele>891.0</ele><time>2026-04-27T10:35:34Z</time></trkpt><trkpt lat="42.07255475595212" lon="13.609437360522863"><ele>890.5999999999999</ele><time>2026-04-27T10:35:35Z</time></trkpt><trkpt lat="42.07245533569939" lon="13.60931814795929"><ele>890.1999999999999</ele><time>2026-04-27T10:35:35.999Z</time></trkpt><trkpt lat="42.07236937884914" lon="13.60921509605207"><ele>889.8000000000001</ele><time>2026-04-27T10:35:36.999Z</time></trkpt><trkpt lat="42.072312224639774" lon="13.609122231776894"><ele>889.4000000000001</ele><time>2026-04-27T10:35:37.999Z</time></trkpt><trkpt lat="42.07224235938242" lon="13.609054710558377"><ele>889.0</ele><time>2026-04-27T10:35:38.999Z</time></trkpt><trkpt lat="42.072198260352536" lon="13.608934950034177"><ele>887.0</ele><time>2026-04-27T10:35:39.999Z</time></trkpt><trkpt lat="42.072172204779996" lon="13.608778113945403"><ele>885.0</ele><time>2026-04-27T10:35:40.999Z</time></trkpt><trkpt lat="42.072153836798726" lon="13.608600628352091"><ele>883.0</ele><time>2026-04-27T10:35:41.999Z</time></trkpt><trkpt lat="42.07212575241758" lon="13.608409848308948"><ele>881.0</ele><time>2026-04-27T10:35:42.999Z</time></trkpt><trkpt lat="42.07209669511028" lon="13.608235002169785"><ele>880.25</ele><time>2026-04-27T10:35:43.999Z</time></trkpt><trkpt lat="42.07208006464338" lon="13.608061283322154"><ele>879.5</ele><time>2026-04-27T10:35:44.999Z</time></trkpt><trkpt lat="42.07207825730763" lon="13.607875344709509"><ele>878.75</ele><time>2026-04-27T10:35:45.999Z</time></trkpt><trkpt lat="42.07207966464967" lon="13.607683206154155"><ele>878.0</ele><time>2026-04-27T10:35:46.999Z</time></trkpt><trkpt lat="42.07208089203822" lon="13.607501453958015"><ele>876.5</ele><time>2026-04-27T10:35:47.999Z</time></trkpt><trkpt lat="42.072081545032454" lon="13.60732285720456"><ele>875.0</ele><time>2026-04-27T10:35:48.999Z</time></trkpt><trkpt lat="42.072079784212804" lon="13.607154306251163"><ele>873.5</ele><time>2026-04-27T10:35:49.999Z</time></trkpt><trkpt lat="42.07206118252392" lon="13.606996250992058"><ele>872.0</ele><time>2026-04-27T10:35:50.999Z</time></trkpt><trkpt lat="42.07202391463609" lon="13.606844837952083"><ele>869.75</ele><time>2026-04-27T10:35:51.999Z</time></trkpt><trkpt lat="42.07195918565704" lon="13.606694651405489"><ele>867.5</ele><time>2026-04-27T10:35:52.999Z</time></trkpt><trkpt lat="42.071864016915896" lon="13.606551033041086"><ele>865.25</ele><time>2026-04-27T10:35:53.999Z</time></trkpt><trkpt lat="42.071753119694506" lon="13.606411791732882"><ele>863.0</ele><time>2026-04-27T10:35:54.999Z</time></trkpt><trkpt lat="42.071639025716216" lon="13.606282887533485"><ele>859.25</ele><time>2026-04-27T10:35:55.999Z</time></trkpt><trkpt lat="42.07153396593677" lon="13.606154568192352"><ele>855.5</ele><time>2026-04-27T10:35:56.999Z</time></trkpt><trkpt lat="42.0714030219197" lon="13.606075860190671"><ele>851.75</ele><time>2026-04-27T10:35:57.999Z</time></trkpt><trkpt lat="42.07127048693021" lon="13.606009757093272"><ele>848.0</ele><time>2026-04-27T10:35:58.999Z</time></trkpt><trkpt lat="42.07114809917972" lon="13.605937716737905"><ele>848.0</ele><time>2026-04-27T10:35:59.999Z</time></trkpt><trkpt lat="42.07103334831973" lon="13.605822081990295"><ele>848.0</ele><time>2026-04-27T10:36:00.999Z</time></trkpt><trkpt lat="42.07090932221862" lon="13.605697106536375"><ele>848.0</ele><time>2026-04-27T10:36:01.999Z</time></trkpt><trkpt lat="42.070782489255116" lon="13.605573905622517"><ele>844.3333333333334</ele><time>2026-04-27T10:36:02.999Z</time></trkpt><trkpt lat="42.070651006656036" lon="13.605460415034964"><ele>840.6666666666667</ele><time>2026-04-27T10:36:03.999Z</time></trkpt><trkpt lat="42.070523659199964" lon="13.605346769817668"><ele>837.0</ele><time>2026-04-27T10:36:04.999Z</time></trkpt><trkpt lat="42.07039916532079" lon="13.605231271847122"><ele>835.75</ele><time>2026-04-27T10:36:05.999Z</time></trkpt><trkpt lat="42.07027869992965" lon="13.605117109586226"><ele>834.5</ele><time>2026-04-27T10:36:06.999Z</time></trkpt><trkpt lat="42.07016143521073" lon="13.605005482768497"><ele>833.25</ele><time>2026-04-27T10:36:07.999Z</time></trkpt><trkpt lat="42.07004518227063" lon="13.604893377145787"><ele>832.0</ele><time>2026-04-27T10:36:08.999Z</time></trkpt><trkpt lat="42.0699280347803" lon="13.604780382516582"><ele>828.0</ele><time>2026-04-27T10:36:09.999Z</time></trkpt><trkpt lat="42.069808282218276" lon="13.604664856017363"><ele>824.0</ele><time>2026-04-27T10:36:10.999Z</time></trkpt><trkpt lat="42.0696860310543" lon="13.604547463838713"><ele>820.0</ele><time>2026-04-27T10:36:11.999Z</time></trkpt><trkpt lat="42.06955768382587" lon="13.604428107329833"><ele>817.6666666666666</ele><time>2026-04-27T10:36:12.999Z</time></trkpt><trkpt lat="42.069429812718255" lon="13.604309193605337"><ele>815.3333333333333</ele><time>2026-04-27T10:36:13.999Z</time></trkpt><trkpt lat="42.06929386292725" lon="13.604201140698178"><ele>813.0</ele><time>2026-04-27T10:36:14.999Z</time></trkpt><trkpt lat="42.069171414137365" lon="13.604066149336909"><ele>809.6666666666667</ele><time>2026-04-27T10:36:15.999Z</time></trkpt><trkpt lat="42.069050250040874" lon="13.603928291104623"><ele>806.3333333333334</ele><time>2026-04-27T10:36:16.999Z</time></trkpt><trkpt lat="42.06892938898285" lon="13.603800832367494"><ele>803.0</ele><time>2026-04-27T10:36:17.999Z</time></trkpt><trkpt lat="42.06881817985358" lon="13.603683886275503"><ele>804.0</ele><time>2026-04-27T10:36:18.999Z</time></trkpt><trkpt lat="42.06872336865397" lon="13.603573115933864"><ele>805.0</ele><time>2026-04-27T10:36:19.999Z</time></trkpt><trkpt lat="42.0686346085186" lon="13.60347749220098"><ele>806.0</ele><time>2026-04-27T10:36:21.001Z</time></trkpt><trkpt lat="42.06855915714751" lon="13.60340056249679"><ele>807.0</ele><time>2026-04-27T10:36:22.001Z</time></trkpt><trkpt lat="42.06848494620001" lon="13.603356768773047"><ele>808.0</ele><time>2026-04-27T10:36:23.001Z</time></trkpt><trkpt lat="42.06840509947007" lon="13.603350271339563"><ele>808.0</ele><time>2026-04-27T10:36:24.001Z</time></trkpt><trkpt lat="42.06832251401558" lon="13.603388170346834"><ele>808.0</ele><time>2026-04-27T10:36:25.001Z</time></trkpt><trkpt lat="42.068252429609274" lon="13.603460262543573"><ele>808.0</ele><time>2026-04-27T10:36:26Z</time></trkpt><trkpt lat="42.06817855448099" lon="13.603530651005135"><ele>808.0</ele><time>2026-04-27T10:36:27.001Z</time></trkpt><trkpt lat="42.06808101434415" lon="13.603533720562378"><ele>808.0</ele><time>2026-04-27T10:36:28.001Z</time></trkpt><trkpt lat="42.06798169718204" lon="13.60355051921052"><ele>810.25</ele><time>2026-04-27T10:36:29Z</time></trkpt><trkpt lat="42.06787479982949" lon="13.603546422297988"><ele>812.5</ele><time>2026-04-27T10:36:30Z</time></trkpt><trkpt lat="42.06775808179127" lon="13.60354463229215"><ele>814.75</ele><time>2026-04-27T10:36:31.001Z</time></trkpt><trkpt lat="42.067642667004165" lon="13.603514024869654"><ele>817.0</ele><time>2026-04-27T10:36:32Z</time></trkpt><trkpt lat="42.06752156464837" lon="13.603505399891748"><ele>818.0</ele><time>2026-04-27T10:36:33Z</time></trkpt><trkpt lat="42.067393658670305" lon="13.603521225475697"><ele>819.0</ele><time>2026-04-27T10:36:34Z</time></trkpt><trkpt lat="42.067262356359194" lon="13.603504981503933"><ele>820.0</ele><time>2026-04-27T10:36:35Z</time></trkpt><trkpt lat="42.067125695974546" lon="13.603481158755978"><ele>821.0</ele><time>2026-04-27T10:36:36Z</time></trkpt><trkpt lat="42.06698688116963" lon="13.603455335828032"><ele>821.0</ele><time>2026-04-27T10:36:37Z</time></trkpt><trkpt lat="42.06685394452508" lon="13.603411286205114"><ele>821.0</ele><time>2026-04-27T10:36:38Z</time></trkpt><trkpt lat="42.06672588310016" lon="13.603360180440202"><ele>821.0</ele><time>2026-04-27T10:36:39Z</time></trkpt><trkpt lat="42.06659780220272" lon="13.603319490608973"><ele>821.0</ele><time>2026-04-27T10:36:40Z</time></trkpt><trkpt lat="42.066469065112656" lon="13.603289321201347"><ele>822.75</ele><time>2026-04-27T10:36:41Z</time></trkpt><trkpt lat="42.066341535213496" lon="13.603273191698033"><ele>824.5</ele><time>2026-04-27T10:36:42Z</time></trkpt><trkpt lat="42.06621837553265" lon="13.603286186416371"><ele>826.25</ele><time>2026-04-27T10:36:43Z</time></trkpt><trkpt lat="42.0661053550347" lon="13.603310439615706"><ele>828.0</ele><time>2026-04-27T10:36:44Z</time></trkpt><trkpt lat="42.066010755161024" lon="13.603300374545272"><ele>828.0</ele><time>2026-04-27T10:36:45Z</time></trkpt><trkpt lat="42.06593066552663" lon="13.603310498183083"><ele>828.0</ele><time>2026-04-27T10:36:46Z</time></trkpt><trkpt lat="42.065858995512734" lon="13.603332973593737"><ele>828.0</ele><time>2026-04-27T10:36:47Z</time></trkpt><trkpt lat="42.06576810641642" lon="13.603304177476883"><ele>828.0</ele><time>2026-04-27T10:36:49Z</time></trkpt><trkpt lat="42.065736004181126" lon="13.603175395116647"><ele>828.0</ele><time>2026-04-27T10:36:51Z</time></trkpt><trkpt lat="42.065715182124684" lon="13.603008688457464"><ele>828.1666666666666</ele><time>2026-04-27T10:36:53Z</time></trkpt><trkpt lat="42.06569146210736" lon="13.602926093571696"><ele>828.3333333333333</ele><time>2026-04-27T10:36:54Z</time></trkpt><trkpt lat="42.06567466651624" lon="13.602843981123195"><ele>828.5</ele><time>2026-04-27T10:36:55Z</time></trkpt><trkpt lat="42.06567985830805" lon="13.602683427410343"><ele>828.6666666666666</ele><time>2026-04-27T10:36:57Z</time></trkpt><trkpt lat="42.06572285617949" lon="13.602620414394385"><ele>828.8333333333333</ele><time>2026-04-27T10:36:58Z</time></trkpt><trkpt lat="42.06584292446678" lon="13.602570426090146"><ele>829.0</ele><time>2026-04-27T10:37:00Z</time></trkpt><trkpt lat="42.06587547402447" lon="13.602375042484725"><ele>828.8000000000001</ele><time>2026-04-27T10:37:02Z</time></trkpt><trkpt lat="42.06587913860358" lon="13.60228341519265"><ele>828.6</ele><time>2026-04-27T10:37:03Z</time></trkpt><trkpt lat="42.06589418522188" lon="13.602177869772543"><ele>828.4</ele><time>2026-04-27T10:37:04Z</time></trkpt><trkpt lat="42.06592104143673" lon="13.60204419419137"><ele>828.2</ele><time>2026-04-27T10:37:05Z</time></trkpt><trkpt lat="42.0659506519497" lon="13.601905804440351"><ele>828.0</ele><time>2026-04-27T10:37:06Z</time></trkpt><trkpt lat="42.065978236266844" lon="13.601769500582021"><ele>828.0</ele><time>2026-04-27T10:37:07Z</time></trkpt><trkpt lat="42.06601340656978" lon="13.60162800952931"><ele>828.0</ele><time>2026-04-27T10:37:08Z</time></trkpt><trkpt lat="42.0660409611862" lon="13.60147455713378"><ele>828.0</ele><time>2026-04-27T10:37:09Z</time></trkpt><trkpt lat="42.066056831802044" lon="13.60130987558465"><ele>828.0</ele><time>2026-04-27T10:37:10Z</time></trkpt><trkpt lat="42.06606145623427" lon="13.601142600979097"><ele>828.2</ele><time>2026-04-27T10:37:11Z</time></trkpt><trkpt lat="42.0660643087388" lon="13.600974383731824"><ele>828.4</ele><time>2026-04-27T10:37:12Z</time></trkpt><trkpt lat="42.066069066961475" lon="13.600819890353852"><ele>828.6</ele><time>2026-04-27T10:37:13Z</time></trkpt><trkpt lat="42.06608697404875" lon="13.600689273369492"><ele>828.8000000000001</ele><time>2026-04-27T10:37:14Z</time></trkpt><trkpt lat="42.066111390796465" lon="13.60056511653025"><ele>829.0</ele><time>2026-04-27T10:37:15Z</time></trkpt><trkpt lat="42.06613574635181" lon="13.6004472761631"><ele>829.0</ele><time>2026-04-27T10:37:16Z</time></trkpt><trkpt lat="42.06614685049698" lon="13.600353191976204"><ele>829.0</ele><time>2026-04-27T10:37:17Z</time></trkpt><trkpt lat="42.066156919208154" lon="13.600238355327626"><ele>829.0</ele><time>2026-04-27T10:37:19Z</time></trkpt><trkpt lat="42.065997758581105" lon="13.600202226196693"><ele>829.0</ele><time>2026-04-27T10:37:21Z</time></trkpt><trkpt lat="42.06589636067248" lon="13.600190680861262"><ele>829.0</ele><time>2026-04-27T10:37:22Z</time></trkpt><trkpt lat="42.065804461636525" lon="13.600187216206345"><ele>827.0</ele><time>2026-04-27T10:37:23Z</time></trkpt><trkpt lat="42.06571384747972" lon="13.600179194026952"><ele>825.0</ele><time>2026-04-27T10:37:24Z</time></trkpt><trkpt lat="42.06561496585926" lon="13.600171265265763"><ele>823.0</ele><time>2026-04-27T10:37:25Z</time></trkpt><trkpt lat="42.065514322618895" lon="13.600162072401044"><ele>821.0</ele><time>2026-04-27T10:37:26Z</time></trkpt><trkpt lat="42.065422504811835" lon="13.600153521068536"><ele>819.0</ele><time>2026-04-27T10:37:27Z</time></trkpt><trkpt lat="42.06532735983399" lon="13.600144659866842"><ele>819.0</ele><time>2026-04-27T10:37:28Z</time></trkpt><trkpt lat="42.06523651301985" lon="13.600137877932626"><ele>819.0</ele><time>2026-04-27T10:37:29Z</time></trkpt><trkpt lat="42.065148715419824" lon="13.600132453942503"><ele>819.0</ele><time>2026-04-27T10:37:30Z</time></trkpt><trkpt lat="42.06506141179056" lon="13.600148593255575"><ele>819.0</ele><time>2026-04-27T10:37:31Z</time></trkpt><trkpt lat="42.06497074974288" lon="13.600146347813777"><ele>819.0</ele><time>2026-04-27T10:37:32Z</time></trkpt><trkpt lat="42.06487858229266" lon="13.600142843376528"><ele>817.2</ele><time>2026-04-27T10:37:33Z</time></trkpt><trkpt lat="42.06478260782251" lon="13.600146430545506"><ele>815.4000000000001</ele><time>2026-04-27T10:37:34Z</time></trkpt><trkpt lat="42.06469009592828" lon="13.600152731029954"><ele>813.6</ele><time>2026-04-27T10:37:35Z</time></trkpt><trkpt lat="42.064604160604205" lon="13.600138374743674"><ele>811.8</ele><time>2026-04-27T10:37:36Z</time></trkpt><trkpt lat="42.064518499605775" lon="13.600162080235924"><ele>810.0</ele><time>2026-04-27T10:37:37Z</time></trkpt><trkpt lat="42.06443145494619" lon="13.600156205986897"><ele>810.0</ele><time>2026-04-27T10:37:38Z</time></trkpt><trkpt lat="42.0643510913655" lon="13.600150772359228"><ele>810.0</ele><time>2026-04-27T10:37:39Z</time></trkpt><trkpt lat="42.0642749289552" lon="13.600134873431559"><ele>810.0</ele><time>2026-04-27T10:37:40Z</time></trkpt><trkpt lat="42.06419752798608" lon="13.600114932796794"><ele>810.0</ele><time>2026-04-27T10:37:41Z</time></trkpt><trkpt lat="42.064128569836114" lon="13.600097745086337"><ele>810.0</ele><time>2026-04-27T10:37:42Z</time></trkpt><trkpt lat="42.06405650213949" lon="13.600078317899747"><ele>810.0</ele><time>2026-04-27T10:37:43Z</time></trkpt><trkpt lat="42.06397610968463" lon="13.600051195744744"><ele>808.4</ele><time>2026-04-27T10:37:44Z</time></trkpt><trkpt lat="42.06389883272172" lon="13.600022115747695"><ele>806.8</ele><time>2026-04-27T10:37:45Z</time></trkpt><trkpt lat="42.06383115701753" lon="13.600001379862162"><ele>805.2</ele><time>2026-04-27T10:37:46Z</time></trkpt><trkpt lat="42.06375099336506" lon="13.59996959281768"><ele>803.6</ele><time>2026-04-27T10:37:48Z</time></trkpt><trkpt lat="42.063740328815264" lon="13.59980612783618"><ele>802.0</ele><time>2026-04-27T10:37:52.999Z</time></trkpt><trkpt lat="42.06378522127891" lon="13.599668749768997"><ele>802.0</ele><time>2026-04-27T10:37:56.999Z</time></trkpt><trkpt lat="42.0638270082218" lon="13.59958476722474"><ele>802.0</ele><time>2026-04-27T10:37:57.999Z</time></trkpt><trkpt lat="42.06385795568903" lon="13.599507699147903"><ele>802.0</ele><time>2026-04-27T10:37:59.999Z</time></trkpt><trkpt lat="42.06394132021328" lon="13.599561170168121"><ele>802.0</ele><time>2026-04-27T10:38:07.999Z</time></trkpt><trkpt lat="42.06404881147683" lon="13.599611297801445"><ele>802.0</ele><time>2026-04-27T10:38:09.999Z</time></trkpt><trkpt lat="42.06418620765925" lon="13.599659635467892"><ele>802.2857142857143</ele><time>2026-04-27T10:38:11.999Z</time></trkpt><trkpt lat="42.06423063140648" lon="13.599734384801302"><ele>802.5714285714287</ele><time>2026-04-27T10:38:12.999Z</time></trkpt><trkpt lat="42.064306004273526" lon="13.599721608604984"><ele>802.8571428571429</ele><time>2026-04-27T10:38:13.999Z</time></trkpt><trkpt lat="42.0643756449509" lon="13.599697482438813"><ele>803.1428571428571</ele><time>2026-04-27T10:38:16.999Z</time></trkpt><trkpt lat="42.06440669017539" lon="13.599610538944019"><ele>803.4285714285714</ele><time>2026-04-27T10:38:17.999Z</time></trkpt><trkpt lat="42.06442997865983" lon="13.599499505422713"><ele>803.7142857142857</ele><time>2026-04-27T10:38:18.999Z</time></trkpt><trkpt lat="42.06444724203004" lon="13.599414501914218"><ele>804.0</ele><time>2026-04-27T10:38:19.999Z</time></trkpt><trkpt lat="42.064459369475635" lon="13.599315769264507"><ele>804.0</ele><time>2026-04-27T10:38:22.999Z</time></trkpt><trkpt lat="42.0644802657259" lon="13.599223332443692"><ele>804.0</ele><time>2026-04-27T10:38:27.001Z</time></trkpt><trkpt lat="42.064509329754756" lon="13.599112931209971"><ele>804.0</ele><time>2026-04-27T10:38:29.001Z</time></trkpt><trkpt lat="42.064522197034655" lon="13.599007530110708"><ele>804.0</ele><time>2026-04-27T10:38:32.001Z</time></trkpt><trkpt lat="42.06458881604654" lon="13.598973789700759"><ele>804.0</ele><time>2026-04-27T10:38:34.001Z</time></trkpt><trkpt lat="42.06466211539963" lon="13.598964815487495"><ele>804.0</ele><time>2026-04-27T10:38:35.001Z</time></trkpt><trkpt lat="42.06473845025213" lon="13.598976220371071"><ele>804.0</ele><time>2026-04-27T10:38:36.001Z</time></trkpt><trkpt lat="42.064825909981046" lon="13.598998999294047"><ele>804.0</ele><time>2026-04-27T10:38:37.001Z</time></trkpt><trkpt lat="42.06492410125684" lon="13.59900161374683"><ele>804.0</ele><time>2026-04-27T10:38:38.001Z</time></trkpt><trkpt lat="42.06502374859633" lon="13.599005830262518"><ele>804.0</ele><time>2026-04-27T10:38:39.001Z</time></trkpt><trkpt lat="42.06512066543865" lon="13.599000078314775"><ele>804.0</ele><time>2026-04-27T10:38:40.001Z</time></trkpt><trkpt lat="42.0652109964937" lon="13.599002051123046"><ele>806.2</ele><time>2026-04-27T10:38:41.001Z</time></trkpt><trkpt lat="42.06531117153054" lon="13.599003720263703"><ele>808.4000000000001</ele><time>2026-04-27T10:38:42.001Z</time></trkpt><trkpt lat="42.065408486100644" lon="13.599025997954865"><ele>810.6</ele><time>2026-04-27T10:38:43.001Z</time></trkpt><trkpt lat="42.06551219633019" lon="13.599008801221723"><ele>812.8</ele><time>2026-04-27T10:38:44Z</time></trkpt><trkpt lat="42.06561283379128" lon="13.59903531602858"><ele>815.0</ele><time>2026-04-27T10:38:45Z</time></trkpt><trkpt lat="42.065719522758044" lon="13.599019875530013"><ele>817.0</ele><time>2026-04-27T10:38:46Z</time></trkpt><trkpt lat="42.065823362393125" lon="13.59904422258419"><ele>819.0</ele><time>2026-04-27T10:38:47Z</time></trkpt><trkpt lat="42.06592781262343" lon="13.59904899803119"><ele>821.0</ele><time>2026-04-27T10:38:48Z</time></trkpt><trkpt lat="42.06603020234107" lon="13.59905360537253"><ele>823.0</ele><time>2026-04-27T10:38:49Z</time></trkpt><trkpt lat="42.066130165320395" lon="13.599035853993417"><ele>825.0</ele><time>2026-04-27T10:38:50Z</time></trkpt><trkpt lat="42.06622669601269" lon="13.599046819912433"><ele>825.0</ele><time>2026-04-27T10:38:51Z</time></trkpt><trkpt lat="42.06629967607683" lon="13.599053661567185"><ele>825.0</ele><time>2026-04-27T10:38:52Z</time></trkpt><trkpt lat="42.066441230035075" lon="13.599056900398999"><ele>825.0</ele><time>2026-04-27T10:38:57Z</time></trkpt><trkpt lat="42.066453974695" lon="13.598858823322614"><ele>825.0</ele><time>2026-04-27T10:38:58Z</time></trkpt><trkpt lat="42.06649175383067" lon="13.598753049371352"><ele>825.0</ele><time>2026-04-27T10:39:00Z</time></trkpt><trkpt lat="42.06654764805566" lon="13.598702107400719"><ele>825.8</ele><time>2026-04-27T10:43:29Z</time></trkpt><trkpt lat="42.0665948667628" lon="13.598579893969466"><ele>826.6</ele><time>2026-04-27T10:43:31Z</time></trkpt><trkpt lat="42.066625338947006" lon="13.598496428914432"><ele>827.4000000000001</ele><time>2026-04-27T10:43:32.999Z</time></trkpt><trkpt lat="42.06667919273447" lon="13.598394539221374"><ele>828.2</ele><time>2026-04-27T10:43:34.999Z</time></trkpt><trkpt lat="42.066737820847564" lon="13.598275433734322"><ele>829.0</ele><time>2026-04-27T10:43:36.999Z</time></trkpt><trkpt lat="42.06680729085496" lon="13.598122220239912"><ele>829.0</ele><time>2026-04-27T10:43:38.999Z</time></trkpt><trkpt lat="42.06683757749909" lon="13.598030213793466"><ele>829.0</ele><time>2026-04-27T10:43:39.999Z</time></trkpt><trkpt lat="42.06687512946097" lon="13.597917990663175"><ele>829.0</ele><time>2026-04-27T10:43:41.999Z</time></trkpt><trkpt lat="42.06699004663046" lon="13.597946719081483"><ele>829.0</ele><time>2026-04-27T10:43:43.999Z</time></trkpt><trkpt lat="42.06713457408942" lon="13.597939323768305"><ele>829.0</ele><time>2026-04-27T10:43:45.999Z</time></trkpt><trkpt lat="42.0672510104434" lon="13.597950404731902"><ele>829.0</ele><time>2026-04-27T10:43:46.999Z</time></trkpt><trkpt lat="42.067354237488004" lon="13.597974830471173"><ele>829.0</ele><time>2026-04-27T10:43:47.999Z</time></trkpt><trkpt lat="42.06746062304738" lon="13.598008102980208"><ele>829.0</ele><time>2026-04-27T10:43:48.999Z</time></trkpt><trkpt lat="42.06757233476376" lon="13.598038905494821"><ele>829.0</ele><time>2026-04-27T10:43:49.999Z</time></trkpt><trkpt lat="42.06768990940921" lon="13.598069406846312"><ele>829.0</ele><time>2026-04-27T10:43:50.999Z</time></trkpt><trkpt lat="42.06781893818533" lon="13.598100824511407"><ele>831.75</ele><time>2026-04-27T10:43:51.999Z</time></trkpt><trkpt lat="42.0679533521004" lon="13.598113481739919"><ele>834.5</ele><time>2026-04-27T10:43:52.999Z</time></trkpt><trkpt lat="42.068086008963824" lon="13.598149027636712"><ele>837.25</ele><time>2026-04-27T10:43:53.999Z</time></trkpt><trkpt lat="42.068219451785644" lon="13.598216745617277"><ele>840.0</ele><time>2026-04-27T10:43:54.999Z</time></trkpt><trkpt lat="42.06836120840599" lon="13.598235805175198"><ele>842.0</ele><time>2026-04-27T10:43:55.999Z</time></trkpt><trkpt lat="42.068500089592" lon="13.598271920520768"><ele>844.0</ele><time>2026-04-27T10:43:56.999Z</time></trkpt><trkpt lat="42.0686397289105" lon="13.598315903567482"><ele>846.0</ele><time>2026-04-27T10:43:57.999Z</time></trkpt><trkpt lat="42.06878381806917" lon="13.598350523206987"><ele>848.0</ele><time>2026-04-27T10:43:58.999Z</time></trkpt><trkpt lat="42.06892991288386" lon="13.598368158480072"><ele>848.0</ele><time>2026-04-27T10:43:59.999Z</time></trkpt><trkpt lat="42.069055994569425" lon="13.598404197096771"><ele>848.0</ele><time>2026-04-27T10:44:00.999Z</time></trkpt><trkpt lat="42.06915799714122" lon="13.598436620696827"><ele>848.0</ele><time>2026-04-27T10:44:01.999Z</time></trkpt><trkpt lat="42.0692427267947" lon="13.598469625231452"><ele>848.0</ele><time>2026-04-27T10:44:02.999Z</time></trkpt><trkpt lat="42.06931082813331" lon="13.598514440957947"><ele>848.0</ele><time>2026-04-27T10:44:03.999Z</time></trkpt><trkpt lat="42.0693788511312" lon="13.59858618221957"><ele>851.25</ele><time>2026-04-27T10:44:05.999Z</time></trkpt><trkpt lat="42.06930748108342" lon="13.598767201243156"><ele>854.5</ele><time>2026-04-27T10:44:06.999Z</time></trkpt><trkpt lat="42.06928608688802" lon="13.598900055406387"><ele>857.75</ele><time>2026-04-27T10:44:07.999Z</time></trkpt><trkpt lat="42.069284336062395" lon="13.599050063950946"><ele>861.0</ele><time>2026-04-27T10:44:08.999Z</time></trkpt><trkpt lat="42.06928244745697" lon="13.599199530737689"><ele>861.0</ele><time>2026-04-27T10:44:09.999Z</time></trkpt><trkpt lat="42.069290404047955" lon="13.599355298467394"><ele>860.9999999999999</ele><time>2026-04-27T10:44:10.999Z</time></trkpt><trkpt lat="42.06929731146199" lon="13.5995109929893"><ele>860.9999999999999</ele><time>2026-04-27T10:44:11.999Z</time></trkpt><trkpt lat="42.06931849107681" lon="13.599637278312978"><ele>861.0</ele><time>2026-04-27T10:44:12.999Z</time></trkpt><trkpt lat="42.069329653458915" lon="13.59976694010069"><ele>861.0</ele><time>2026-04-27T10:44:13.999Z</time></trkpt><trkpt lat="42.06936089128438" lon="13.599863890351156"><ele>861.4</ele><time>2026-04-27T10:44:14.999Z</time></trkpt><trkpt lat="42.0694018387236" lon="13.599947887948037"><ele>861.8</ele><time>2026-04-27T10:44:16.999Z</time></trkpt><trkpt lat="42.069558857063214" lon="13.599916799733702"><ele>862.1999999999999</ele><time>2026-04-27T10:44:18.999Z</time></trkpt><trkpt lat="42.069641781102334" lon="13.599854110567735"><ele>862.5999999999999</ele><time>2026-04-27T10:44:19.999Z</time></trkpt><trkpt lat="42.06973793038548" lon="13.599798791896202"><ele>863.0</ele><time>2026-04-27T10:44:20.999Z</time></trkpt><trkpt lat="42.06984198927992" lon="13.599757324688365"><ele>864.75</ele><time>2026-04-27T10:44:21.999Z</time></trkpt><trkpt lat="42.06995227079438" lon="13.599744475981877"><ele>866.5</ele><time>2026-04-27T10:44:22.999Z</time></trkpt><trkpt lat="42.07008108586139" lon="13.59974769441569"><ele>868.25</ele><time>2026-04-27T10:44:23.999Z</time></trkpt><trkpt lat="42.070217924339055" lon="13.599744905960367"><ele>870.0</ele><time>2026-04-27T10:44:24.999Z</time></trkpt><trkpt lat="42.07036108704898" lon="13.599730867441856"><ele>870.0</ele><time>2026-04-27T10:44:25.999Z</time></trkpt><trkpt lat="42.0705085874784" lon="13.59970423002583"><ele>870.0</ele><time>2026-04-27T10:44:26.999Z</time></trkpt><trkpt lat="42.070656853232016" lon="13.599662743950713"><ele>870.0</ele><time>2026-04-27T10:44:27.999Z</time></trkpt><trkpt lat="42.070806673107256" lon="13.59960809691638"><ele>870.0</ele><time>2026-04-27T10:44:28.999Z</time></trkpt><trkpt lat="42.070951150694995" lon="13.599547975822832"><ele>870.0</ele><time>2026-04-27T10:44:29.999Z</time></trkpt><trkpt lat="42.07108920252434" lon="13.59948307712435"><ele>870.0</ele><time>2026-04-27T10:44:30.999Z</time></trkpt><trkpt lat="42.071232025764004" lon="13.599412667634168"><ele>870.0</ele><time>2026-04-27T10:44:31.999Z</time></trkpt><trkpt lat="42.07137865994631" lon="13.599342373260226"><ele>872.0</ele><time>2026-04-27T10:44:32.999Z</time></trkpt><trkpt lat="42.0715287719536" lon="13.599272419504642"><ele>874.0</ele><time>2026-04-27T10:44:33.999Z</time></trkpt><trkpt lat="42.071681187070276" lon="13.5992120140403"><ele>876.0</ele><time>2026-04-27T10:44:34.999Z</time></trkpt><trkpt lat="42.07183335592419" lon="13.599147661931239"><ele>878.3333333333333</ele><time>2026-04-27T10:44:35.999Z</time></trkpt><trkpt lat="42.07198398391648" lon="13.599075280083897"><ele>880.6666666666666</ele><time>2026-04-27T10:44:36.999Z</time></trkpt><trkpt lat="42.072137245919954" lon="13.599007005978423"><ele>883.0</ele><time>2026-04-27T10:44:37.999Z</time></trkpt><trkpt lat="42.07229143927145" lon="13.598939126552443"><ele>885.3333333333333</ele><time>2026-04-27T10:44:38.999Z</time></trkpt><trkpt lat="42.072446291811794" lon="13.59887223506484"><ele>887.6666666666667</ele><time>2026-04-27T10:44:39.999Z</time></trkpt><trkpt lat="42.072604042906654" lon="13.598806253226554"><ele>890.0</ele><time>2026-04-27T10:44:40.999Z</time></trkpt><trkpt lat="42.07276412057134" lon="13.598736304659825"><ele>892.0</ele><time>2026-04-27T10:44:41.999Z</time></trkpt><trkpt lat="42.072921738234726" lon="13.598664148957429"><ele>894.0</ele><time>2026-04-27T10:44:42.999Z</time></trkpt><trkpt lat="42.07307959628611" lon="13.59858834805475"><ele>896.0</ele><time>2026-04-27T10:44:44Z</time></trkpt><trkpt lat="42.073237439721694" lon="13.598512378113522"><ele>898.6666666666667</ele><time>2026-04-27T10:44:45Z</time></trkpt><trkpt lat="42.073397002557556" lon="13.598436519462535"><ele>901.3333333333333</ele><time>2026-04-27T10:44:46Z</time></trkpt><trkpt lat="42.073557264086986" lon="13.598358423418407"><ele>904.0</ele><time>2026-04-27T10:44:47Z</time></trkpt><trkpt lat="42.073717911288384" lon="13.598283487658803"><ele>904.0</ele><time>2026-04-27T10:44:48Z</time></trkpt><trkpt lat="42.073881282388314" lon="13.598225574890302"><ele>904.0</ele><time>2026-04-27T10:44:49Z</time></trkpt><trkpt lat="42.074044658502196" lon="13.598185779456431"><ele>904.0</ele><time>2026-04-27T10:44:50Z</time></trkpt><trkpt lat="42.074210029939934" lon="13.598159956682355"><ele>907.0</ele><time>2026-04-27T10:44:51Z</time></trkpt><trkpt lat="42.07437711253061" lon="13.598155317885835"><ele>910.0</ele><time>2026-04-27T10:44:52Z</time></trkpt><trkpt lat="42.07454347103718" lon="13.598159148578448"><ele>913.0</ele><time>2026-04-27T10:44:53Z</time></trkpt><trkpt lat="42.074709288719234" lon="13.598171810841944"><ele>913.0</ele><time>2026-04-27T10:44:54Z</time></trkpt><trkpt lat="42.07487463960226" lon="13.598182862402528"><ele>913.0</ele><time>2026-04-27T10:44:55Z</time></trkpt><trkpt lat="42.07504073287219" lon="13.598190992152121"><ele>913.0</ele><time>2026-04-27T10:44:56Z</time></trkpt><trkpt lat="42.07520838480512" lon="13.598200122160687"><ele>916.6666666666666</ele><time>2026-04-27T10:44:57Z</time></trkpt><trkpt lat="42.07537706504439" lon="13.598210210143936"><ele>920.3333333333333</ele><time>2026-04-27T10:44:58Z</time></trkpt><trkpt lat="42.07554830541306" lon="13.598218567484217"><ele>924.0</ele><time>2026-04-27T10:44:59Z</time></trkpt><trkpt lat="42.07572120280505" lon="13.598224725947897"><ele>927.3333333333333</ele><time>2026-04-27T10:45:00Z</time></trkpt><trkpt lat="42.07589504993096" lon="13.598217541547386"><ele>930.6666666666666</ele><time>2026-04-27T10:45:01Z</time></trkpt><trkpt lat="42.07606843538792" lon="13.598196494832136"><ele>934.0</ele><time>2026-04-27T10:45:02Z</time></trkpt><trkpt lat="42.07623018053937" lon="13.598160134702209"><ele>934.0</ele><time>2026-04-27T10:45:03Z</time></trkpt><trkpt lat="42.076371726546206" lon="13.598076325507646"><ele>934.0</ele><time>2026-04-27T10:45:04Z</time></trkpt><trkpt lat="42.07649267612496" lon="13.597945071687073"><ele>934.0</ele><time>2026-04-27T10:45:05Z</time></trkpt><trkpt lat="42.076587503861255" lon="13.59777930486589"><ele>937.5</ele><time>2026-04-27T10:45:06Z</time></trkpt><trkpt lat="42.07667040265962" lon="13.597602515235872"><ele>941.0</ele><time>2026-04-27T10:45:07Z</time></trkpt><trkpt lat="42.07676194012306" lon="13.597448632709993"><ele>944.5</ele><time>2026-04-27T10:45:08Z</time></trkpt><trkpt lat="42.07685820358281" lon="13.597349860574274"><ele>948.0</ele><time>2026-04-27T10:45:09Z</time></trkpt><trkpt lat="42.07695883872042" lon="13.59730320899957"><ele>948.0</ele><time>2026-04-27T10:45:10Z</time></trkpt><trkpt lat="42.0770723572445" lon="13.59729236210253"><ele>948.0</ele><time>2026-04-27T10:45:11Z</time></trkpt><trkpt lat="42.07717753783757" lon="13.597323377267267"><ele>948.0</ele><time>2026-04-27T10:45:12Z</time></trkpt><trkpt lat="42.077251467043595" lon="13.597413415064484"><ele>948.0</ele><time>2026-04-27T10:45:13Z</time></trkpt><trkpt lat="42.07728248916907" lon="13.597559679794292"><ele>948.0</ele><time>2026-04-27T10:45:14Z</time></trkpt><trkpt lat="42.07733740692163" lon="13.59770824732425"><ele>949.4</ele><time>2026-04-27T10:45:15Z</time></trkpt><trkpt lat="42.077385488063484" lon="13.597871861827244"><ele>950.8</ele><time>2026-04-27T10:45:16Z</time></trkpt><trkpt lat="42.07745041643814" lon="13.597988773683177"><ele>952.2</ele><time>2026-04-27T10:45:17Z</time></trkpt><trkpt lat="42.07752198109266" lon="13.598037485902683"><ele>953.6</ele><time>2026-04-27T10:45:18Z</time></trkpt><trkpt lat="42.07759507763147" lon="13.598019979467608"><ele>955.0</ele><time>2026-04-27T10:45:19Z</time></trkpt><trkpt lat="42.07765285031259" lon="13.597938067211308"><ele>957.0</ele><time>2026-04-27T10:45:20Z</time></trkpt><trkpt lat="42.077668060605816" lon="13.597812631059758"><ele>959.0</ele><time>2026-04-27T10:45:21Z</time></trkpt><trkpt lat="42.0776292949145" lon="13.597679871028205"><ele>961.0</ele><time>2026-04-27T10:45:22Z</time></trkpt><trkpt lat="42.07755784267201" lon="13.597545844064227"><ele>963.0</ele><time>2026-04-27T10:45:23Z</time></trkpt><trkpt lat="42.0774999043639" lon="13.597386341470697"><ele>961.25</ele><time>2026-04-27T10:45:24Z</time></trkpt><trkpt lat="42.077423549472904" lon="13.597233737890301"><ele>959.5</ele><time>2026-04-27T10:45:25Z</time></trkpt><trkpt lat="42.07736499083599" lon="13.597054167586244"><ele>957.75</ele><time>2026-04-27T10:45:26Z</time></trkpt><trkpt lat="42.07729729230037" lon="13.596874935906177"><ele>956.0</ele><time>2026-04-27T10:45:27Z</time></trkpt><trkpt lat="42.07722611286355" lon="13.596691174607358"><ele>956.0</ele><time>2026-04-27T10:45:28Z</time></trkpt><trkpt lat="42.077157190927956" lon="13.596506299065545"><ele>956.0</ele><time>2026-04-27T10:45:29Z</time></trkpt><trkpt lat="42.07709933093272" lon="13.596342514652637"><ele>956.0</ele><time>2026-04-27T10:45:30Z</time></trkpt><trkpt lat="42.07707000943297" lon="13.596193535739445"><ele>956.0</ele><time>2026-04-27T10:45:31Z</time></trkpt><trkpt lat="42.07708060583239" lon="13.596036460495375"><ele>955.75</ele><time>2026-04-27T10:45:32Z</time></trkpt><trkpt lat="42.077126246350105" lon="13.595881020756623"><ele>955.5</ele><time>2026-04-27T10:45:33Z</time></trkpt><trkpt lat="42.077196984136066" lon="13.595729761586307"><ele>955.25</ele><time>2026-04-27T10:45:34Z</time></trkpt><trkpt lat="42.077284124023976" lon="13.59558457133715"><ele>955.0</ele><time>2026-04-27T10:45:34.999Z</time></trkpt><trkpt lat="42.07739061113891" lon="13.595452533432253"><ele>959.6666666666666</ele><time>2026-04-27T10:45:35.999Z</time></trkpt><trkpt lat="42.07750958112618" lon="13.59532554119113"><ele>964.3333333333333</ele><time>2026-04-27T10:45:36.999Z</time></trkpt><trkpt lat="42.077631168502926" lon="13.595189657259196"><ele>969.0</ele><time>2026-04-27T10:45:37.999Z</time></trkpt><trkpt lat="42.07774764918499" lon="13.595055521555858"><ele>969.0</ele><time>2026-04-27T10:45:38.999Z</time></trkpt><trkpt lat="42.07785818937106" lon="13.5949286549745"><ele>969.0</ele><time>2026-04-27T10:45:39.999Z</time></trkpt><trkpt lat="42.07797807214555" lon="13.594806375093695"><ele>969.0</ele><time>2026-04-27T10:45:40.999Z</time></trkpt><trkpt lat="42.078106823157036" lon="13.594710691025682"><ele>969.0</ele><time>2026-04-27T10:45:41.999Z</time></trkpt><trkpt lat="42.07822665885669" lon="13.594625187182846"><ele>973.25</ele><time>2026-04-27T10:45:42.999Z</time></trkpt><trkpt lat="42.07832201347882" lon="13.59452558281508"><ele>977.5</ele><time>2026-04-27T10:45:43.999Z</time></trkpt><trkpt lat="42.078343708369026" lon="13.594368350123755"><ele>981.75</ele><time>2026-04-27T10:45:44.999Z</time></trkpt><trkpt lat="42.07833086444945" lon="13.594209808943182"><ele>986.0</ele><time>2026-04-27T10:45:45.999Z</time></trkpt><trkpt lat="42.07829048021042" lon="13.594043000354395"><ele>986.0</ele><time>2026-04-27T10:45:46.999Z</time></trkpt><trkpt lat="42.07829012677665" lon="13.593887883708739"><ele>986.0</ele><time>2026-04-27T10:45:47.999Z</time></trkpt><trkpt lat="42.07832809524032" lon="13.593750335605314"><ele>986.0</ele><time>2026-04-27T10:45:48.999Z</time></trkpt><trkpt lat="42.07840937472311" lon="13.593633700105118"><ele>986.0</ele><time>2026-04-27T10:45:49.999Z</time></trkpt><trkpt lat="42.078509776226866" lon="13.593540774554008"><ele>983.5</ele><time>2026-04-27T10:45:50.999Z</time></trkpt><trkpt lat="42.07861115184395" lon="13.593445064466314"><ele>981.0</ele><time>2026-04-27T10:45:51.999Z</time></trkpt><trkpt lat="42.07871525938302" lon="13.593342975671456"><ele>978.5</ele><time>2026-04-27T10:45:52.999Z</time></trkpt><trkpt lat="42.07882164934335" lon="13.59323596628462"><ele>976.0</ele><time>2026-04-27T10:45:53.999Z</time></trkpt><trkpt lat="42.07893087251528" lon="13.593122473267492"><ele>976.0</ele><time>2026-04-27T10:45:54.999Z</time></trkpt><trkpt lat="42.07904483535867" lon="13.593011087402047"><ele>976.0</ele><time>2026-04-27T10:45:55.999Z</time></trkpt><trkpt lat="42.07916090627658" lon="13.592903651476282"><ele>976.0</ele><time>2026-04-27T10:45:56.999Z</time></trkpt><trkpt lat="42.07928047711279" lon="13.592801885699068"><ele>976.0</ele><time>2026-04-27T10:45:57.999Z</time></trkpt><trkpt lat="42.07939858744954" lon="13.59269938990957"><ele>979.5</ele><time>2026-04-27T10:45:58.999Z</time></trkpt><trkpt lat="42.07951723209254" lon="13.592590484675169"><ele>983.0</ele><time>2026-04-27T10:45:59.999Z</time></trkpt><trkpt lat="42.07963445970042" lon="13.592484292961636"><ele>986.5</ele><time>2026-04-27T10:46:00.999Z</time></trkpt><trkpt lat="42.07974947849263" lon="13.592375984144715"><ele>990.0</ele><time>2026-04-27T10:46:01.999Z</time></trkpt><trkpt lat="42.07986565613827" lon="13.59229080544857"><ele>993.5</ele><time>2026-04-27T10:46:02.999Z</time></trkpt><trkpt lat="42.07997534440347" lon="13.592191921296793"><ele>997.0</ele><time>2026-04-27T10:46:03.999Z</time></trkpt><trkpt lat="42.08008023269968" lon="13.592088041033351"><ele>1000.5</ele><time>2026-04-27T10:46:04.999Z</time></trkpt><trkpt lat="42.08018859265211" lon="13.591993223309762"><ele>1004.0</ele><time>2026-04-27T10:46:05.999Z</time></trkpt><trkpt lat="42.08030048177269" lon="13.591903636319557"><ele>1004.0</ele><time>2026-04-27T10:46:06.999Z</time></trkpt><trkpt lat="42.08041254247652" lon="13.591816681774867"><ele>1004.0</ele><time>2026-04-27T10:46:07.999Z</time></trkpt><trkpt lat="42.08052649259162" lon="13.591731611931293"><ele>1004.0</ele><time>2026-04-27T10:46:08.999Z</time></trkpt><trkpt lat="42.080622867625024" lon="13.591644358548598"><ele>1004.0</ele><time>2026-04-27T10:46:09.999Z</time></trkpt><trkpt lat="42.08068721797355" lon="13.59154078395167"><ele>1004.0000000000001</ele><time>2026-04-27T10:46:10.999Z</time></trkpt><trkpt lat="42.080719066676544" lon="13.591433544340877"><ele>1004.0</ele><time>2026-04-27T10:46:11.999Z</time></trkpt><trkpt lat="42.08074031233299" lon="13.591334231302246"><ele>1004.0</ele><time>2026-04-27T10:46:12.999Z</time></trkpt><trkpt lat="42.08075878196171" lon="13.591241889273503"><ele>1004.0</ele><time>2026-04-27T10:46:13.999Z</time></trkpt><trkpt lat="42.08077273954428" lon="13.591140211199498"><ele>1004.0000000000001</ele><time>2026-04-27T10:46:14.999Z</time></trkpt><trkpt lat="42.08076490732423" lon="13.59103739428861"><ele>1004.0</ele><time>2026-04-27T10:46:15.999Z</time></trkpt><trkpt lat="42.08071650235843" lon="13.590952979878834"><ele>1005.0</ele><time>2026-04-27T10:46:16.999Z</time></trkpt><trkpt lat="42.08063854175056" lon="13.590897652891703"><ele>1006.0000000000001</ele><time>2026-04-27T10:46:17.999Z</time></trkpt><trkpt lat="42.08056497986302" lon="13.59082112431419"><ele>1007.0000000000001</ele><time>2026-04-27T10:46:18.999Z</time></trkpt><trkpt lat="42.080483736074704" lon="13.590749658550143"><ele>1008.0</ele><time>2026-04-27T10:46:19.999Z</time></trkpt><trkpt lat="42.080398010619184" lon="13.590670420390454"><ele>1009.0</ele><time>2026-04-27T10:46:20.999Z</time></trkpt><trkpt lat="42.08031304768177" lon="13.59059188727523"><ele>1008.9999999999999</ele><time>2026-04-27T10:46:21.999Z</time></trkpt><trkpt lat="42.0802330293434" lon="13.590519520859557"><ele>1009.0</ele><time>2026-04-27T10:46:22.999Z</time></trkpt><trkpt lat="42.08016590566239" lon="13.59046006055719"><ele>1009.0</ele><time>2026-04-27T10:46:23.999Z</time></trkpt><trkpt lat="42.080093239248484" lon="13.590361530422989"><ele>1009.0</ele><time>2026-04-27T10:46:25.999Z</time></trkpt><trkpt lat="42.080133498721466" lon="13.590295502800418"><ele>1008.9999999999999</ele><time>2026-04-27T10:46:28.999Z</time></trkpt><trkpt lat="42.080222886177275" lon="13.590306626905551"><ele>1009.0</ele><time>2026-04-27T10:46:30.999Z</time></trkpt><trkpt lat="42.08033043005044" lon="13.590369541399205"><ele>1008.9999999999999</ele><time>2026-04-27T10:46:32.999Z</time></trkpt><trkpt lat="42.08045267326478" lon="13.590388730287383"><ele>1009.0</ele><time>2026-04-27T10:46:34.999Z</time></trkpt><trkpt lat="42.080515489324455" lon="13.590407705399379"><ele>1009.0</ele><time>2026-04-27T10:46:35.999Z</time></trkpt><trkpt lat="42.08058094309372" lon="13.59043149656873"><ele>1009.0</ele><time>2026-04-27T10:46:36.999Z</time></trkpt><trkpt lat="42.080645379491976" lon="13.590458432074737"><ele>1008.9999999999999</ele><time>2026-04-27T10:46:37.999Z</time></trkpt><trkpt lat="42.08071055017103" lon="13.590493384470648"><ele>1009.0</ele><time>2026-04-27T10:46:38.999Z</time></trkpt><trkpt lat="42.080775858038095" lon="13.590521910086517"><ele>1008.9999999999999</ele><time>2026-04-27T10:46:39.999Z</time></trkpt><trkpt lat="42.08085774233633" lon="13.590559304500777"><ele>1009.0</ele><time>2026-04-27T10:46:41.999Z</time></trkpt><trkpt lat="42.08088399137915" lon="13.590477449957248"><ele>1009.0</ele><time>2026-04-27T10:47:32Z</time></trkpt><trkpt lat="42.08078938982971" lon="13.590461729042332"><ele>1009.0</ele><time>2026-04-27T10:47:40Z</time></trkpt><trkpt lat="42.080693084060336" lon="13.590427661681293"><ele>1008.9999999999999</ele><time>2026-04-27T10:47:42Z</time></trkpt><trkpt lat="42.080597949582135" lon="13.590388517150826"><ele>1009.0</ele><time>2026-04-27T10:47:44Z</time></trkpt><trkpt lat="42.080511547721976" lon="13.590363546413613"><ele>1009.0</ele><time>2026-04-27T10:47:46Z</time></trkpt><trkpt lat="42.08044176735091" lon="13.590345300060601"><ele>1009.0</ele><time>2026-04-27T10:47:48.999Z</time></trkpt><trkpt lat="42.08041013626025" lon="13.59043933068156"><ele>1009.0</ele><time>2026-04-27T10:48:21.999Z</time></trkpt><trkpt lat="42.080347357332414" lon="13.590398377986277"><ele>1009.0</ele><time>2026-04-27T10:49:19Z</time></trkpt><trkpt lat="42.080285111827266" lon="13.590336115249588"><ele>1009.0</ele><time>2026-04-27T10:49:27Z</time></trkpt><trkpt lat="42.08022166501786" lon="13.59028815285558"><ele>1009.0</ele><time>2026-04-27T10:49:33Z</time></trkpt><trkpt lat="42.08018035281804" lon="13.59021650939098"><ele>1009.0</ele><time>2026-04-27T10:49:39Z</time></trkpt><trkpt lat="42.080116182010784" lon="13.59016725184218"><ele>1008.9999999999999</ele><time>2026-04-27T10:49:45Z</time></trkpt><trkpt lat="42.08027362323626" lon="13.590134307515715"><ele>1009.0</ele><time>2026-04-27T10:51:00.999Z</time></trkpt><trkpt lat="42.080351157041825" lon="13.59016262388218"><ele>1009.0</ele><time>2026-04-27T10:51:07Z</time></trkpt><trkpt lat="42.080376177014244" lon="13.59024257816196"><ele>1009.0</ele><time>2026-04-27T10:51:48Z</time></trkpt><trkpt lat="42.08042056341738" lon="13.59017720207268"><ele>1008.9999999999999</ele><time>2026-04-27T10:51:52Z</time></trkpt><trkpt lat="42.080456392449676" lon="13.590251426523075"><ele>1009.0</ele><time>2026-04-27T10:51:59.999Z</time></trkpt><trkpt lat="42.080433078865866" lon="13.590355698952655"><ele>1008.9999999999999</ele><time>2026-04-27T10:52:05.999Z</time></trkpt><trkpt lat="42.08050644755562" lon="13.590411873402072"><ele>1009.0</ele><time>2026-04-27T10:54:24.999Z</time></trkpt><trkpt lat="42.08056904315517" lon="13.590431372943229"><ele>1009.0</ele><time>2026-04-27T10:54:25.999Z</time></trkpt><trkpt lat="42.08064068598631" lon="13.590466916070572"><ele>1009.0</ele><time>2026-04-27T10:54:26.999Z</time></trkpt><trkpt lat="42.08070130687214" lon="13.590490857016988"><ele>1008.9999999999999</ele><time>2026-04-27T10:54:27.999Z</time></trkpt><trkpt lat="42.080808975822755" lon="13.590530774452597"><ele>1009.0</ele><time>2026-04-27T10:54:29.999Z</time></trkpt><trkpt lat="42.08089229715557" lon="13.590558476657463"><ele>1010.8333333333333</ele><time>2026-04-27T10:54:31.999Z</time></trkpt><trkpt lat="42.080951946029764" lon="13.590600136675793"><ele>1012.6666666666666</ele><time>2026-04-27T10:54:35.999Z</time></trkpt><trkpt lat="42.08104792309852" lon="13.590627950176328"><ele>1014.5</ele><time>2026-04-27T10:54:38.999Z</time></trkpt><trkpt lat="42.08116570700004" lon="13.590636144671938"><ele>1016.3333333333333</ele><time>2026-04-27T10:54:40.999Z</time></trkpt><trkpt lat="42.08125671144145" lon="13.590651912980658"><ele>1018.1666666666666</ele><time>2026-04-27T10:54:42.999Z</time></trkpt><trkpt lat="42.08132733212716" lon="13.590628791726433"><ele>1020.0</ele><time>2026-04-27T10:54:44.999Z</time></trkpt><trkpt lat="42.08133223192618" lon="13.590490301185097"><ele>1020.0</ele><time>2026-04-27T10:54:46.999Z</time></trkpt><trkpt lat="42.081345486504915" lon="13.590404574759507"><ele>1020.0000000000001</ele><time>2026-04-27T10:54:48.999Z</time></trkpt><trkpt lat="42.081347805477115" lon="13.590307049204133"><ele>1020.0</ele><time>2026-04-27T10:54:50.999Z</time></trkpt><trkpt lat="42.081351851883845" lon="13.590192759496528"><ele>1020.0</ele><time>2026-04-27T10:54:52.999Z</time></trkpt><trkpt lat="42.081393911013166" lon="13.59011750052405"><ele>1020.0000000000001</ele><time>2026-04-27T10:54:56.999Z</time></trkpt><trkpt lat="42.0814638188675" lon="13.590107923043462"><ele>1020.0</ele><time>2026-04-27T10:54:58.999Z</time></trkpt><trkpt lat="42.0815496820223" lon="13.590091166265003"><ele>1020.0</ele><time>2026-04-27T10:55:00.999Z</time></trkpt><trkpt lat="42.081621721983474" lon="13.590073633613581"><ele>1020.8333333333334</ele><time>2026-04-27T10:55:02.999Z</time></trkpt><trkpt lat="42.08168643842801" lon="13.590000296928634"><ele>1021.6666666666667</ele><time>2026-04-27T10:55:04.999Z</time></trkpt><trkpt lat="42.081740297033456" lon="13.589917719337338"><ele>1022.5</ele><time>2026-04-27T10:55:06.999Z</time></trkpt><trkpt lat="42.08182211139015" lon="13.5898423545335"><ele>1023.3333333333334</ele><time>2026-04-27T10:55:08.999Z</time></trkpt><trkpt lat="42.08191202998515" lon="13.589792426330442"><ele>1024.1666666666667</ele><time>2026-04-27T10:55:10.999Z</time></trkpt><trkpt lat="42.08199438176482" lon="13.589754922095826"><ele>1025.0</ele><time>2026-04-27T10:55:12.999Z</time></trkpt><trkpt lat="42.08208484664044" lon="13.589728523736298"><ele>1025.0</ele><time>2026-04-27T10:55:15Z</time></trkpt><trkpt lat="42.082186501963655" lon="13.589706577660678"><ele>1025.0</ele><time>2026-04-27T10:55:17Z</time></trkpt><trkpt lat="42.08229033068613" lon="13.589699577314171"><ele>1025.0</ele><time>2026-04-27T10:55:19Z</time></trkpt><trkpt lat="42.08238943977935" lon="13.589687345929343"><ele>1025.0</ele><time>2026-04-27T10:55:21Z</time></trkpt><trkpt lat="42.082490380655834" lon="13.5896799009734"><ele>1025.0</ele><time>2026-04-27T10:55:23Z</time></trkpt><trkpt lat="42.082600609446175" lon="13.589681118588846"><ele>1025.6</ele><time>2026-04-27T10:55:25Z</time></trkpt><trkpt lat="42.08270942787971" lon="13.589714664329277"><ele>1026.2</ele><time>2026-04-27T10:55:27Z</time></trkpt><trkpt lat="42.082784972762205" lon="13.589777520132955"><ele>1026.8</ele><time>2026-04-27T10:55:29Z</time></trkpt><trkpt lat="42.08273494802114" lon="13.589666178152875"><ele>1027.4</ele><time>2026-04-27T10:55:34Z</time></trkpt><trkpt lat="42.0826869830388" lon="13.589594436736624"><ele>1028.0</ele><time>2026-04-27T10:55:36Z</time></trkpt><trkpt lat="42.08269381258339" lon="13.589482414521276"><ele>1024.6666666666667</ele><time>2026-04-27T10:56:15.999Z</time></trkpt><trkpt lat="42.082690186508536" lon="13.589383886637327"><ele>1021.3333333333334</ele><time>2026-04-27T10:56:17.999Z</time></trkpt><trkpt lat="42.082664024508006" lon="13.589280024146698"><ele>1018.0</ele><time>2026-04-27T10:56:19.999Z</time></trkpt><trkpt lat="42.0826248302679" lon="13.589197531283212"><ele>1014.6666666666667</ele><time>2026-04-27T10:56:21.999Z</time></trkpt><trkpt lat="42.08262805521725" lon="13.589076029979442"><ele>1011.3333333333334</ele><time>2026-04-27T10:56:23.999Z</time></trkpt><trkpt lat="42.08260044899215" lon="13.588959834155915"><ele>1008.0</ele><time>2026-04-27T10:56:25.999Z</time></trkpt><trkpt lat="42.08258143170535" lon="13.58885196331514"><ele>1008.0</ele><time>2026-04-27T10:56:27.999Z</time></trkpt><trkpt lat="42.0825599669309" lon="13.588753078175996"><ele>1008.0</ele><time>2026-04-27T10:56:29.999Z</time></trkpt><trkpt lat="42.08258713257318" lon="13.588669743140647"><ele>1008.0</ele><time>2026-04-27T10:56:32.999Z</time></trkpt><trkpt lat="42.082707209444806" lon="13.588714374448738"><ele>1008.0</ele><time>2026-04-27T10:56:34.999Z</time></trkpt><trkpt lat="42.08278687828169" lon="13.588748076605377"><ele>1008.0</ele><time>2026-04-27T10:56:35.999Z</time></trkpt><trkpt lat="42.082883657139774" lon="13.588762645971915"><ele>1008.0</ele><time>2026-04-27T10:56:36.999Z</time></trkpt><trkpt lat="42.08298699703579" lon="13.588779448668868"><ele>1008.0</ele><time>2026-04-27T10:56:37.999Z</time></trkpt><trkpt lat="42.08310851087791" lon="13.588829011694582"><ele>1008.0</ele><time>2026-04-27T10:56:38.999Z</time></trkpt><trkpt lat="42.08323401118429" lon="13.58882107215916"><ele>1008.0</ele><time>2026-04-27T10:56:39.999Z</time></trkpt><trkpt lat="42.083360056852484" lon="13.588832758203646"><ele>1008.0</ele><time>2026-04-27T10:56:40.999Z</time></trkpt><trkpt lat="42.08348157744883" lon="13.588842354948579"><ele>1005.75</ele><time>2026-04-27T10:56:41.999Z</time></trkpt><trkpt lat="42.08359757313168" lon="13.588843068034247"><ele>1003.5</ele><time>2026-04-27T10:56:42.999Z</time></trkpt><trkpt lat="42.08371108718319" lon="13.588841805534233"><ele>1001.25</ele><time>2026-04-27T10:56:43.999Z</time></trkpt><trkpt lat="42.08382789892111" lon="13.58885496286532"><ele>999.0</ele><time>2026-04-27T10:56:44.999Z</time></trkpt><trkpt lat="42.083946623621614" lon="13.588871890728912"><ele>999.0</ele><time>2026-04-27T10:56:45.999Z</time></trkpt><trkpt lat="42.08406010454641" lon="13.588870645940302"><ele>999.0000000000001</ele><time>2026-04-27T10:56:46.999Z</time></trkpt><trkpt lat="42.084162893948005" lon="13.588861148269034"><ele>999.0000000000001</ele><time>2026-04-27T10:56:47.999Z</time></trkpt><trkpt lat="42.08427111340011" lon="13.58882671845291"><ele>999.0</ele><time>2026-04-27T10:56:48.999Z</time></trkpt><trkpt lat="42.084381767155655" lon="13.588800436120643"><ele>999.0</ele><time>2026-04-27T10:56:49.999Z</time></trkpt><trkpt lat="42.08448723765499" lon="13.588790690075902"><ele>997.3333333333334</ele><time>2026-04-27T10:56:50.999Z</time></trkpt><trkpt lat="42.08458550451071" lon="13.588780820196106"><ele>995.6666666666667</ele><time>2026-04-27T10:56:51.999Z</time></trkpt><trkpt lat="42.08468863179481" lon="13.588793794154526"><ele>994.0</ele><time>2026-04-27T10:56:52.999Z</time></trkpt><trkpt lat="42.08476002190164" lon="13.588787932479256"><ele>992.3333333333334</ele><time>2026-04-27T10:56:53.999Z</time></trkpt><trkpt lat="42.084828551586924" lon="13.588729700756119"><ele>990.6666666666667</ele><time>2026-04-27T10:56:55.999Z</time></trkpt><trkpt lat="42.08481221693359" lon="13.58863691215762"><ele>989.0</ele><time>2026-04-27T10:56:56.999Z</time></trkpt><trkpt lat="42.08467836647266" lon="13.588597333379495"><ele>984.8000000000001</ele><time>2026-04-27T10:56:58.999Z</time></trkpt><trkpt lat="42.084595811667754" lon="13.58859187527952"><ele>980.6000000000001</ele><time>2026-04-27T10:56:59.999Z</time></trkpt><trkpt lat="42.084509522759994" lon="13.588555398838059"><ele>976.4</ele><time>2026-04-27T10:57:00.999Z</time></trkpt><trkpt lat="42.08443144841218" lon="13.588503395349452"><ele>972.2</ele><time>2026-04-27T10:57:01.999Z</time></trkpt><trkpt lat="42.0843467970328" lon="13.588449280577304"><ele>968.0</ele><time>2026-04-27T10:57:02.999Z</time></trkpt><trkpt lat="42.0842646640945" lon="13.588360600072699"><ele>968.0</ele><time>2026-04-27T10:57:03.999Z</time></trkpt><trkpt lat="42.08419785432455" lon="13.588277251592377"><ele>968.0</ele><time>2026-04-27T10:57:04.999Z</time></trkpt><trkpt lat="42.08416109556934" lon="13.588181556686248"><ele>968.0</ele><time>2026-04-27T10:57:05.999Z</time></trkpt><trkpt lat="42.08416479608524" lon="13.588056576975033"><ele>968.0</ele><time>2026-04-27T10:57:07.999Z</time></trkpt><trkpt lat="42.084274944066365" lon="13.58794899543821"><ele>968.0</ele><time>2026-04-27T10:57:09.999Z</time></trkpt><trkpt lat="42.08434412907838" lon="13.58791101991365"><ele>968.0000000000001</ele><time>2026-04-27T10:57:10.999Z</time></trkpt><trkpt lat="42.084402292948624" lon="13.587868436879972"><ele>968.0</ele><time>2026-04-27T10:57:11.999Z</time></trkpt><trkpt lat="42.084499527225155" lon="13.587763840405099"><ele>968.0</ele><time>2026-04-27T10:57:13.998Z</time></trkpt><trkpt lat="42.0845507754608" lon="13.587675203150603"><ele>968.0</ele><time>2026-04-27T10:57:14.998Z</time></trkpt><trkpt lat="42.084608122219336" lon="13.587603568179702"><ele>968.0000000000001</ele><time>2026-04-27T10:57:15.998Z</time></trkpt><trkpt lat="42.084658907362105" lon="13.58752144753086"><ele>968.0</ele><time>2026-04-27T10:57:16.998Z</time></trkpt><trkpt lat="42.08471824924451" lon="13.587445203138087"><ele>965.4</ele><time>2026-04-27T10:57:17.998Z</time></trkpt><trkpt lat="42.08478626673557" lon="13.587372878184231"><ele>962.8</ele><time>2026-04-27T10:57:19Z</time></trkpt><trkpt lat="42.08486426610261" lon="13.58729455613316"><ele>960.2</ele><time>2026-04-27T10:57:20Z</time></trkpt><trkpt lat="42.08495161057139" lon="13.587215599984514"><ele>957.6</ele><time>2026-04-27T10:57:21Z</time></trkpt><trkpt lat="42.08504773435873" lon="13.587147883531406"><ele>955.0</ele><time>2026-04-27T10:57:22Z</time></trkpt><trkpt lat="42.08514961782655" lon="13.587075319501361"><ele>954.2</ele><time>2026-04-27T10:57:23Z</time></trkpt><trkpt lat="42.085258650586" lon="13.587050917227536"><ele>953.4</ele><time>2026-04-27T10:57:24Z</time></trkpt><trkpt lat="42.08535836962142" lon="13.587024063135438"><ele>952.5999999999999</ele><time>2026-04-27T10:57:25Z</time></trkpt><trkpt lat="42.085446901526254" lon="13.586975559571766"><ele>951.8</ele><time>2026-04-27T10:57:26Z</time></trkpt><trkpt lat="42.085504730597776" lon="13.586868131156988"><ele>951.0</ele><time>2026-04-27T10:57:27Z</time></trkpt><trkpt lat="42.08555328852906" lon="13.586773886891352"><ele>949.8</ele><time>2026-04-27T10:57:28Z</time></trkpt><trkpt lat="42.08554792519335" lon="13.586660409227221"><ele>948.5999999999999</ele><time>2026-04-27T10:57:29Z</time></trkpt><trkpt lat="42.085507845778565" lon="13.586555436077981"><ele>947.4</ele><time>2026-04-27T10:57:30Z</time></trkpt><trkpt lat="42.08547103210111" lon="13.586408679327906"><ele>946.2</ele><time>2026-04-27T10:57:31Z</time></trkpt><trkpt lat="42.085416241747" lon="13.586292416026064"><ele>945.0</ele><time>2026-04-27T10:57:32Z</time></trkpt><trkpt lat="42.085385898887814" lon="13.586131286862635"><ele>944.8</ele><time>2026-04-27T10:57:33Z</time></trkpt><trkpt lat="42.08537272498681" lon="13.585968083819125"><ele>944.6</ele><time>2026-04-27T10:57:34Z</time></trkpt><trkpt lat="42.085385277132296" lon="13.585829637863872"><ele>944.4000000000001</ele><time>2026-04-27T10:57:35Z</time></trkpt><trkpt lat="42.085379948978826" lon="13.585692185967435"><ele>944.2</ele><time>2026-04-27T10:57:36Z</time></trkpt><trkpt lat="42.08545821607922" lon="13.585572884393525"><ele>944.0</ele><time>2026-04-27T10:57:37Z</time></trkpt><trkpt lat="42.08551763351719" lon="13.58545013066018"><ele>943.5</ele><time>2026-04-27T10:57:38Z</time></trkpt><trkpt lat="42.08555917849548" lon="13.585304726539725"><ele>943.0</ele><time>2026-04-27T10:57:39Z</time></trkpt><trkpt lat="42.08560893509576" lon="13.585152550235405"><ele>942.5</ele><time>2026-04-27T10:57:40Z</time></trkpt><trkpt lat="42.08565964893534" lon="13.585011410011049"><ele>942.0</ele><time>2026-04-27T10:57:41Z</time></trkpt><trkpt lat="42.08572048555466" lon="13.584864705420765"><ele>945.8</ele><time>2026-04-27T10:57:42Z</time></trkpt><trkpt lat="42.08577186199783" lon="13.584716608916887"><ele>949.6</ele><time>2026-04-27T10:57:43Z</time></trkpt><trkpt lat="42.08582526483653" lon="13.584574395008895"><ele>953.3999999999999</ele><time>2026-04-27T10:57:44Z</time></trkpt><trkpt lat="42.08588697870615" lon="13.584462403935998"><ele>957.1999999999999</ele><time>2026-04-27T10:57:45Z</time></trkpt><trkpt lat="42.08596128705747" lon="13.584372577751601"><ele>961.0</ele><time>2026-04-27T10:57:46Z</time></trkpt><trkpt lat="42.08604255777939" lon="13.584304030010738"><ele>961.5999999999999</ele><time>2026-04-27T10:57:47Z</time></trkpt><trkpt lat="42.086102616868075" lon="13.584239771577346"><ele>962.1999999999999</ele><time>2026-04-27T10:57:48Z</time></trkpt><trkpt lat="42.08616793323396" lon="13.584193015180578"><ele>962.8000000000001</ele><time>2026-04-27T10:57:50Z</time></trkpt><trkpt lat="42.08610528095943" lon="13.584087998688316"><ele>963.4000000000001</ele><time>2026-04-27T10:57:51Z</time></trkpt><trkpt lat="42.08609404072774" lon="13.583957429459023"><ele>964.0</ele><time>2026-04-27T10:57:52Z</time></trkpt><trkpt lat="42.0860649477955" lon="13.583813507976211"><ele>964.75</ele><time>2026-04-27T10:57:53Z</time></trkpt><trkpt lat="42.0860280029227" lon="13.583656277657086"><ele>965.5</ele><time>2026-04-27T10:57:54Z</time></trkpt><trkpt lat="42.08597266770865" lon="13.583493333379048"><ele>966.25</ele><time>2026-04-27T10:57:55Z</time></trkpt><trkpt lat="42.085898925534664" lon="13.583328622969594"><ele>967.0</ele><time>2026-04-27T10:57:56Z</time></trkpt><trkpt lat="42.085813870761456" lon="13.583169341806467"><ele>965.25</ele><time>2026-04-27T10:57:57Z</time></trkpt><trkpt lat="42.085724978094945" lon="13.583018627961538"><ele>963.5</ele><time>2026-04-27T10:57:58Z</time></trkpt><trkpt lat="42.08564313640035" lon="13.582865205224586"><ele>961.75</ele><time>2026-04-27T10:57:59Z</time></trkpt><trkpt lat="42.08556807262304" lon="13.582712000306078"><ele>960.0</ele><time>2026-04-27T10:57:59.999Z</time></trkpt><trkpt lat="42.08550198771888" lon="13.582551705670603"><ele>960.0</ele><time>2026-04-27T10:58:00.999Z</time></trkpt><trkpt lat="42.08544673591293" lon="13.582375216306325"><ele>960.0</ele><time>2026-04-27T10:58:01.999Z</time></trkpt><trkpt lat="42.085399141963464" lon="13.582179879523379"><ele>960.0</ele><time>2026-04-27T10:58:02.999Z</time></trkpt><trkpt lat="42.085347883378475" lon="13.58198090148093"><ele>962.25</ele><time>2026-04-27T10:58:03.999Z</time></trkpt><trkpt lat="42.085283758090696" lon="13.581800425228431"><ele>964.5</ele><time>2026-04-27T10:58:04.999Z</time></trkpt><trkpt lat="42.08521469297036" lon="13.581625022537342"><ele>966.75</ele><time>2026-04-27T10:58:05.999Z</time></trkpt><trkpt lat="42.08515190317827" lon="13.581446290130172"><ele>969.0</ele><time>2026-04-27T10:58:06.999Z</time></trkpt><trkpt lat="42.085091876268265" lon="13.581266220868798"><ele>970.5</ele><time>2026-04-27T10:58:07.999Z</time></trkpt><trkpt lat="42.085033310187114" lon="13.581089770497112"><ele>972.0</ele><time>2026-04-27T10:58:08.999Z</time></trkpt><trkpt lat="42.084982456769204" lon="13.580911114651872"><ele>973.5</ele><time>2026-04-27T10:58:09.999Z</time></trkpt><trkpt lat="42.084938854139594" lon="13.580752912893292"><ele>975.0</ele><time>2026-04-27T10:58:10.999Z</time></trkpt><trkpt lat="42.084899266324214" lon="13.580615688250086"><ele>975.0</ele><time>2026-04-27T10:58:11.999Z</time></trkpt><trkpt lat="42.08487057664331" lon="13.580488122960436"><ele>975.0</ele><time>2026-04-27T10:58:12.999Z</time></trkpt><trkpt lat="42.0848555790862" lon="13.580370151490412"><ele>975.0</ele><time>2026-04-27T10:58:13.999Z</time></trkpt><trkpt lat="42.08483013613312" lon="13.580252267225896"><ele>975.0</ele><time>2026-04-27T10:58:14.999Z</time></trkpt><trkpt lat="42.08482305220844" lon="13.580133750709455"><ele>975.0</ele><time>2026-04-27T10:58:15.999Z</time></trkpt><trkpt lat="42.084820950926876" lon="13.58000501748922"><ele>975.6</ele><time>2026-04-27T10:58:16.999Z</time></trkpt><trkpt lat="42.08483381537795" lon="13.579873241221302"><ele>976.2</ele><time>2026-04-27T10:58:17.999Z</time></trkpt><trkpt lat="42.084879031823164" lon="13.579750846315605"><ele>976.8</ele><time>2026-04-27T10:58:18.999Z</time></trkpt><trkpt lat="42.08490510708555" lon="13.579629756431189"><ele>977.4</ele><time>2026-04-27T10:58:19.999Z</time></trkpt><trkpt lat="42.08495695027651" lon="13.579518851432388"><ele>978.0</ele><time>2026-04-27T10:58:20.999Z</time></trkpt><trkpt lat="42.085015280530946" lon="13.579421900347683"><ele>975.2</ele><time>2026-04-27T10:58:21.999Z</time></trkpt><trkpt lat="42.085095439678206" lon="13.579341564158822"><ele>972.4</ele><time>2026-04-27T10:58:22.999Z</time></trkpt><trkpt lat="42.08515426401092" lon="13.57923060974026"><ele>969.6000000000001</ele><time>2026-04-27T10:58:23.999Z</time></trkpt><trkpt lat="42.085235606367725" lon="13.579141808715574"><ele>966.8000000000001</ele><time>2026-04-27T10:58:24.999Z</time></trkpt><trkpt lat="42.085313748225886" lon="13.579039113302146"><ele>964.0</ele><time>2026-04-27T10:58:25.999Z</time></trkpt><trkpt lat="42.08538374836593" lon="13.578925220107562"><ele>964.0</ele><time>2026-04-27T10:58:26.999Z</time></trkpt><trkpt lat="42.08547505525062" lon="13.57883757594233"><ele>964.0000000000001</ele><time>2026-04-27T10:58:27.999Z</time></trkpt><trkpt lat="42.085538809309575" lon="13.578719670273822"><ele>964.0000000000001</ele><time>2026-04-27T10:58:28.999Z</time></trkpt><trkpt lat="42.085612609611225" lon="13.57860103637129"><ele>964.0</ele><time>2026-04-27T10:58:29.999Z</time></trkpt><trkpt lat="42.08568786721881" lon="13.57849468383737"><ele>964.0</ele><time>2026-04-27T10:58:30.999Z</time></trkpt><trkpt lat="42.08575220627567" lon="13.578388944603509"><ele>963.6</ele><time>2026-04-27T10:58:31.999Z</time></trkpt><trkpt lat="42.08580946190047" lon="13.5782626227954"><ele>963.2</ele><time>2026-04-27T10:58:32.999Z</time></trkpt><trkpt lat="42.08586704148829" lon="13.57813269415228"><ele>962.8000000000001</ele><time>2026-04-27T10:58:33.999Z</time></trkpt><trkpt lat="42.08592239279046" lon="13.578003446523104"><ele>962.4000000000001</ele><time>2026-04-27T10:58:34.999Z</time></trkpt><trkpt lat="42.085955865174476" lon="13.577878165221037"><ele>962.0</ele><time>2026-04-27T10:58:35.999Z</time></trkpt><trkpt lat="42.085982827490206" lon="13.57774773882964"><ele>959.5000000000001</ele><time>2026-04-27T10:58:36.999Z</time></trkpt><trkpt lat="42.08600660453879" lon="13.577627272682701"><ele>957.0</ele><time>2026-04-27T10:58:37.999Z</time></trkpt><trkpt lat="42.08604802688252" lon="13.577515576728896"><ele>954.5</ele><time>2026-04-27T10:58:38.999Z</time></trkpt><trkpt lat="42.08609070670116" lon="13.577413832874617"><ele>952.0</ele><time>2026-04-27T10:58:39.999Z</time></trkpt><trkpt lat="42.08610859456214" lon="13.577302310235803"><ele>949.5000000000001</ele><time>2026-04-27T10:58:40.999Z</time></trkpt><trkpt lat="42.08610148578479" lon="13.577202877904035"><ele>947.0</ele><time>2026-04-27T10:58:41.999Z</time></trkpt><trkpt lat="42.086067511859916" lon="13.57712911865601"><ele>947.0</ele><time>2026-04-27T10:58:42.999Z</time></trkpt><trkpt lat="42.08600154130618" lon="13.577088052645221"><ele>946.9999999999999</ele><time>2026-04-27T10:58:43.999Z</time></trkpt><trkpt lat="42.085920497112255" lon="13.577098477705608"><ele>947.0</ele><time>2026-04-27T10:58:44.999Z</time></trkpt><trkpt lat="42.08585201161919" lon="13.577110707947217"><ele>947.0</ele><time>2026-04-27T10:58:45.999Z</time></trkpt><trkpt lat="42.08578828955831" lon="13.577126291860399"><ele>946.9999999999999</ele><time>2026-04-27T10:58:50.999Z</time></trkpt><trkpt lat="42.08574973194241" lon="13.57719640749052"><ele>947.0</ele><time>2026-04-27T10:59:01.999Z</time></trkpt><trkpt lat="42.08565594956087" lon="13.577200408659102"><ele>947.0</ele><time>2026-04-27T10:59:05.999Z</time></trkpt><trkpt lat="42.08554486325763" lon="13.577230051649828"><ele>945.0</ele><time>2026-04-27T10:59:07.999Z</time></trkpt><trkpt lat="42.085478855801455" lon="13.577246856326735"><ele>942.9999999999999</ele><time>2026-04-27T10:59:08.999Z</time></trkpt><trkpt lat="42.085415563279966" lon="13.577216935407616"><ele>941.0</ele><time>2026-04-27T10:59:09.999Z</time></trkpt><trkpt lat="42.085352588450704" lon="13.577191721565512"><ele>939.0</ele><time>2026-04-27T10:59:10.999Z</time></trkpt><trkpt lat="42.08528038034974" lon="13.577202607209156"><ele>936.9999999999999</ele><time>2026-04-27T10:59:11.999Z</time></trkpt><trkpt lat="42.08521771505588" lon="13.57722512938381"><ele>935.0</ele><time>2026-04-27T10:59:12.999Z</time></trkpt><trkpt lat="42.08518278274408" lon="13.577326097777194"><ele>933.0</ele><time>2026-04-27T10:59:13.998Z</time></trkpt><trkpt lat="42.08509741389814" lon="13.577358887814915"><ele>933.0</ele><time>2026-04-27T10:59:15.998Z</time></trkpt><trkpt lat="42.08503476156827" lon="13.577293002147965"><ele>933.0</ele><time>2026-04-27T10:59:17.998Z</time></trkpt><trkpt lat="42.08498719358985" lon="13.577234170678807"><ele>933.0</ele><time>2026-04-27T10:59:19.998Z</time></trkpt><trkpt lat="42.084990649217744" lon="13.577126232082392"><ele>933.0</ele><time>2026-04-27T10:59:21.998Z</time></trkpt><trkpt lat="42.08502345640747" lon="13.577047593483835"><ele>933.0</ele><time>2026-04-27T10:59:22.998Z</time></trkpt><trkpt lat="42.08508362840539" lon="13.57697854300232"><ele>933.0</ele><time>2026-04-27T10:59:23.998Z</time></trkpt><trkpt lat="42.085147831643724" lon="13.576911059265923"><ele>930.0</ele><time>2026-04-27T10:59:25Z</time></trkpt><trkpt lat="42.0852027597499" lon="13.57684491303694"><ele>927.0</ele><time>2026-04-27T10:59:26Z</time></trkpt><trkpt lat="42.08531886931473" lon="13.57678429277269"><ele>924.0</ele><time>2026-04-27T10:59:28Z</time></trkpt><trkpt lat="42.085393094798526" lon="13.57675501319647"><ele>921.0</ele><time>2026-04-27T10:59:29Z</time></trkpt><trkpt lat="42.085440071932304" lon="13.576686580433831"><ele>918.0</ele><time>2026-04-27T10:59:30Z</time></trkpt><trkpt lat="42.08544931020284" lon="13.576537956540234"><ele>918.0</ele><time>2026-04-27T10:59:32Z</time></trkpt><trkpt lat="42.08532609405549" lon="13.576450379838851"><ele>918.0</ele><time>2026-04-27T10:59:35Z</time></trkpt><trkpt lat="42.08524851503945" lon="13.576438896374887"><ele>918.0</ele><time>2026-04-27T10:59:36Z</time></trkpt><trkpt lat="42.08515909143017" lon="13.57642592286792"><ele>918.0</ele><time>2026-04-27T10:59:37Z</time></trkpt><trkpt lat="42.085072875087015" lon="13.576393688345373"><ele>918.0</ele><time>2026-04-27T10:59:38Z</time></trkpt><trkpt lat="42.08499122742841" lon="13.576338984803455"><ele>916.5999999999999</ele><time>2026-04-27T10:59:39Z</time></trkpt><trkpt lat="42.084895522054886" lon="13.576291975965933"><ele>915.1999999999999</ele><time>2026-04-27T10:59:40Z</time></trkpt><trkpt lat="42.084800083035475" lon="13.576265763273433"><ele>913.8</ele><time>2026-04-27T10:59:41Z</time></trkpt><trkpt lat="42.08471421302137" lon="13.576245791826627"><ele>912.4</ele><time>2026-04-27T10:59:42Z</time></trkpt><trkpt lat="42.084627232064726" lon="13.576243998540846"><ele>911.0</ele><time>2026-04-27T10:59:43Z</time></trkpt><trkpt lat="42.08453201287731" lon="13.576229549041079"><ele>911.0</ele><time>2026-04-27T10:59:44Z</time></trkpt><trkpt lat="42.08443779525877" lon="13.57619358099735"><ele>910.9999999999999</ele><time>2026-04-27T10:59:45Z</time></trkpt><trkpt lat="42.08434447058757" lon="13.576174064900144"><ele>910.9999999999999</ele><time>2026-04-27T10:59:46Z</time></trkpt><trkpt lat="42.08424469846113" lon="13.576150311632631"><ele>911.0</ele><time>2026-04-27T10:59:47Z</time></trkpt><trkpt lat="42.08414608479031" lon="13.576149379593984"><ele>911.0</ele><time>2026-04-27T10:59:48Z</time></trkpt><trkpt lat="42.084068101474415" lon="13.576126322377059"><ele>908.0000000000001</ele><time>2026-04-27T10:59:49Z</time></trkpt><trkpt lat="42.08398718009514" lon="13.576109090961397"><ele>905.0</ele><time>2026-04-27T10:59:50Z</time></trkpt><trkpt lat="42.08391344003326" lon="13.57609697779641"><ele>902.0</ele><time>2026-04-27T10:59:51Z</time></trkpt><trkpt lat="42.083837771676144" lon="13.576090078733104"><ele>899.0</ele><time>2026-04-27T10:59:52Z</time></trkpt><trkpt lat="42.08375913429131" lon="13.57606483816966"><ele>896.0000000000001</ele><time>2026-04-27T10:59:53Z</time></trkpt><trkpt lat="42.083673053515895" lon="13.57604316414206"><ele>893.0</ele><time>2026-04-27T10:59:54Z</time></trkpt><trkpt lat="42.083612318624276" lon="13.576011579755404"><ele>893.0000000000001</ele><time>2026-04-27T10:59:55Z</time></trkpt><trkpt lat="42.08356322085039" lon="13.57595422398153"><ele>893.0</ele><time>2026-04-27T10:59:56Z</time></trkpt><trkpt lat="42.08351772773447" lon="13.575882973806065"><ele>893.0</ele><time>2026-04-27T10:59:57Z</time></trkpt><trkpt lat="42.08346462258816" lon="13.575815122510196"><ele>893.0</ele><time>2026-04-27T10:59:58Z</time></trkpt><trkpt lat="42.08340888146408" lon="13.575740871271837"><ele>893.0000000000001</ele><time>2026-04-27T10:59:59Z</time></trkpt><trkpt lat="42.08334757787849" lon="13.575650782279391"><ele>893.0</ele><time>2026-04-27T11:00:00Z</time></trkpt><trkpt lat="42.08329903567613" lon="13.575564451920767"><ele>894.1666666666667</ele><time>2026-04-27T11:00:00.999Z</time></trkpt><trkpt lat="42.08325644179014" lon="13.57548313912396"><ele>895.3333333333334</ele><time>2026-04-27T11:00:01.999Z</time></trkpt><trkpt lat="42.083214539356696" lon="13.57539418294795"><ele>896.5</ele><time>2026-04-27T11:00:02.999Z</time></trkpt><trkpt lat="42.083176785431206" lon="13.57530686105348"><ele>897.6666666666667</ele><time>2026-04-27T11:00:03.999Z</time></trkpt><trkpt lat="42.08314493525355" lon="13.57522574105402"><ele>898.8333333333334</ele><time>2026-04-27T11:00:04.999Z</time></trkpt><trkpt lat="42.083095289184975" lon="13.575133083159491"><ele>900.0</ele><time>2026-04-27T11:00:05.999Z</time></trkpt><trkpt lat="42.083073563341806" lon="13.575035695870273"><ele>897.0</ele><time>2026-04-27T11:00:06.999Z</time></trkpt><trkpt lat="42.083035486121425" lon="13.574906511877463"><ele>894.0</ele><time>2026-04-27T11:00:07.999Z</time></trkpt><trkpt lat="42.083000084948" lon="13.574771615936761"><ele>891.0</ele><time>2026-04-27T11:00:08.999Z</time></trkpt><trkpt lat="42.082959746634806" lon="13.57464940071623"><ele>888.0</ele><time>2026-04-27T11:00:09.999Z</time></trkpt><trkpt lat="42.08290332186682" lon="13.574523689607906"><ele>885.0</ele><time>2026-04-27T11:00:10.999Z</time></trkpt><trkpt lat="42.08283756217663" lon="13.574398990797244"><ele>883.5</ele><time>2026-04-27T11:00:11.999Z</time></trkpt><trkpt lat="42.08278624556001" lon="13.574255413945997"><ele>882.0</ele><time>2026-04-27T11:00:12.999Z</time></trkpt><trkpt lat="42.082713343422746" lon="13.57413526062832"><ele>880.5</ele><time>2026-04-27T11:00:13.999Z</time></trkpt><trkpt lat="42.082658651061614" lon="13.574005732976888"><ele>879.0</ele><time>2026-04-27T11:00:14.999Z</time></trkpt><trkpt lat="42.08259500257509" lon="13.573879536790756"><ele>879.0</ele><time>2026-04-27T11:00:15.999Z</time></trkpt><trkpt lat="42.082520678479334" lon="13.573769777399098"><ele>879.0000000000001</ele><time>2026-04-27T11:00:16.999Z</time></trkpt><trkpt lat="42.082459453080226" lon="13.573635459686285"><ele>879.0000000000001</ele><time>2026-04-27T11:00:17.999Z</time></trkpt><trkpt lat="42.08239691900271" lon="13.573521261312976"><ele>879.0</ele><time>2026-04-27T11:00:18.999Z</time></trkpt><trkpt lat="42.0823464029444" lon="13.573419852889183"><ele>879.0</ele><time>2026-04-27T11:00:19.999Z</time></trkpt><trkpt lat="42.08229157577423" lon="13.573309949515775"><ele>878.3333333333334</ele><time>2026-04-27T11:00:20.999Z</time></trkpt><trkpt lat="42.082236926417174" lon="13.573221858986226"><ele>877.6666666666667</ele><time>2026-04-27T11:00:21.999Z</time></trkpt><trkpt lat="42.08216974134729" lon="13.573151544640144"><ele>877.0</ele><time>2026-04-27T11:00:22.999Z</time></trkpt><trkpt lat="42.082110523421214" lon="13.573087942443072"><ele>876.3333333333334</ele><time>2026-04-27T11:00:23.999Z</time></trkpt><trkpt lat="42.08204546668502" lon="13.57302271413887"><ele>875.6666666666667</ele><time>2026-04-27T11:00:24.999Z</time></trkpt><trkpt lat="42.081969816053956" lon="13.57296487145246"><ele>875.0</ele><time>2026-04-27T11:00:25.999Z</time></trkpt><trkpt lat="42.08189933462017" lon="13.572887964002405"><ele>874.6</ele><time>2026-04-27T11:00:26.999Z</time></trkpt><trkpt lat="42.08184011223627" lon="13.572786268909324"><ele>874.2</ele><time>2026-04-27T11:00:27.999Z</time></trkpt><trkpt lat="42.08177718062972" lon="13.572692436410462"><ele>873.8</ele><time>2026-04-27T11:00:28.999Z</time></trkpt><trkpt lat="42.081722091421355" lon="13.572611186744286"><ele>873.4</ele><time>2026-04-27T11:00:29.999Z</time></trkpt><trkpt lat="42.081654953709815" lon="13.572517056001956"><ele>873.0</ele><time>2026-04-27T11:00:30.999Z</time></trkpt><trkpt lat="42.081570467889286" lon="13.572434531713174"><ele>873.0</ele><time>2026-04-27T11:00:31.999Z</time></trkpt><trkpt lat="42.0815094564189" lon="13.572326227070407"><ele>873.0</ele><time>2026-04-27T11:00:32.999Z</time></trkpt><trkpt lat="42.08146866992274" lon="13.572259034579051"><ele>873.0</ele><time>2026-04-27T11:00:33.999Z</time></trkpt><trkpt lat="42.08142986352363" lon="13.572183347402571"><ele>873.0</ele><time>2026-04-27T11:00:34.999Z</time></trkpt><trkpt lat="42.081414130824506" lon="13.572034061585045"><ele>873.0</ele><time>2026-04-27T11:00:37.999Z</time></trkpt><trkpt lat="42.081490317687845" lon="13.571959628306697"><ele>873.0</ele><time>2026-04-27T11:00:38.999Z</time></trkpt><trkpt lat="42.08151435994305" lon="13.571860336169083"><ele>871.0</ele><time>2026-04-27T11:00:40.999Z</time></trkpt><trkpt lat="42.08140799786954" lon="13.571693482341763"><ele>869.0</ele><time>2026-04-27T11:00:42.999Z</time></trkpt><trkpt lat="42.0813282208652" lon="13.571587124578004"><ele>867.0</ele><time>2026-04-27T11:00:43.999Z</time></trkpt><trkpt lat="42.08124481476783" lon="13.571504524715472"><ele>865.0</ele><time>2026-04-27T11:00:44.999Z</time></trkpt><trkpt lat="42.08117352052402" lon="13.57143138102837"><ele>865.0</ele><time>2026-04-27T11:00:45.999Z</time></trkpt><trkpt lat="42.08109462960032" lon="13.571356515186523"><ele>865.0</ele><time>2026-04-27T11:00:46.999Z</time></trkpt><trkpt lat="42.081021596426226" lon="13.571273996773947"><ele>865.0</ele><time>2026-04-27T11:00:47.999Z</time></trkpt><trkpt lat="42.08094748170284" lon="13.571193861543565"><ele>865.0</ele><time>2026-04-27T11:00:48.999Z</time></trkpt><trkpt lat="42.08088178092686" lon="13.57111685355195"><ele>865.0</ele><time>2026-04-27T11:00:49.999Z</time></trkpt><trkpt lat="42.08081899223088" lon="13.571027482516136"><ele>867.4</ele><time>2026-04-27T11:00:50.999Z</time></trkpt><trkpt lat="42.080762885309504" lon="13.57091825538139"><ele>869.8</ele><time>2026-04-27T11:00:51.999Z</time></trkpt><trkpt lat="42.080706641724184" lon="13.57082431066566"><ele>872.2</ele><time>2026-04-27T11:00:52.999Z</time></trkpt><trkpt lat="42.080663142166536" lon="13.570704076064633"><ele>874.6</ele><time>2026-04-27T11:00:53.999Z</time></trkpt><trkpt lat="42.08061822135511" lon="13.570584761407158"><ele>877.0</ele><time>2026-04-27T11:00:54.999Z</time></trkpt><trkpt lat="42.08056840002273" lon="13.570457094638696"><ele>874.75</ele><time>2026-04-27T11:00:55.999Z</time></trkpt><trkpt lat="42.08053365054377" lon="13.57031671228265"><ele>872.5</ele><time>2026-04-27T11:00:56.999Z</time></trkpt><trkpt lat="42.080488928895136" lon="13.570165608894378"><ele>870.25</ele><time>2026-04-27T11:00:57.999Z</time></trkpt><trkpt lat="42.08044893889989" lon="13.570011860563922"><ele>868.0</ele><time>2026-04-27T11:00:58.999Z</time></trkpt><trkpt lat="42.080410306226874" lon="13.569849186253004"><ele>868.0</ele><time>2026-04-27T11:00:59.999Z</time></trkpt><trkpt lat="42.0803638217478" lon="13.5697075426439"><ele>868.0</ele><time>2026-04-27T11:01:00.999Z</time></trkpt><trkpt lat="42.080345067549544" lon="13.569566972556927"><ele>868.0</ele><time>2026-04-27T11:01:01.999Z</time></trkpt><trkpt lat="42.0803291403618" lon="13.569433074806962"><ele>868.0</ele><time>2026-04-27T11:01:02.999Z</time></trkpt><trkpt lat="42.08031871396993" lon="13.569313327823561"><ele>868.0</ele><time>2026-04-27T11:01:03.999Z</time></trkpt><trkpt lat="42.08030062801928" lon="13.569207744751678"><ele>865.8</ele><time>2026-04-27T11:01:04.999Z</time></trkpt><trkpt lat="42.08027300569375" lon="13.569095650115692"><ele>863.5999999999999</ele><time>2026-04-27T11:01:05.999Z</time></trkpt><trkpt lat="42.08023401552713" lon="13.568981774595773"><ele>861.4000000000001</ele><time>2026-04-27T11:01:06.999Z</time></trkpt><trkpt lat="42.08020356913087" lon="13.568854502992341"><ele>859.2</ele><time>2026-04-27T11:01:07.999Z</time></trkpt><trkpt lat="42.08015426673846" lon="13.568723004686461"><ele>857.0</ele><time>2026-04-27T11:01:08.999Z</time></trkpt><trkpt lat="42.08011170350062" lon="13.568586308133579"><ele>853.75</ele><time>2026-04-27T11:01:09.999Z</time></trkpt><trkpt lat="42.08007804190338" lon="13.568438380728578"><ele>850.5</ele><time>2026-04-27T11:01:10.999Z</time></trkpt><trkpt lat="42.08005206567446" lon="13.568295424817137"><ele>847.25</ele><time>2026-04-27T11:01:11.999Z</time></trkpt><trkpt lat="42.08002855509984" lon="13.568118741363437"><ele>844.0</ele><time>2026-04-27T11:01:12.999Z</time></trkpt><trkpt lat="42.080021714616855" lon="13.567949270818305"><ele>842.4000000000001</ele><time>2026-04-27T11:01:13.998Z</time></trkpt><trkpt lat="42.08003602929199" lon="13.567797140541241"><ele>840.8</ele><time>2026-04-27T11:01:14.998Z</time></trkpt><trkpt lat="42.08006748451366" lon="13.567656909804585"><ele>839.2</ele><time>2026-04-27T11:01:15.998Z</time></trkpt><trkpt lat="42.08010883210888" lon="13.567535056675423"><ele>837.5999999999999</ele><time>2026-04-27T11:01:16.998Z</time></trkpt><trkpt lat="42.08016125337722" lon="13.567406663608493"><ele>836.0</ele><time>2026-04-27T11:01:17.998Z</time></trkpt><trkpt lat="42.080228201999084" lon="13.56728056561047"><ele>836.0</ele><time>2026-04-27T11:01:18.998Z</time></trkpt><trkpt lat="42.080316094857466" lon="13.567156949582701"><ele>836.0</ele><time>2026-04-27T11:01:19.998Z</time></trkpt><trkpt lat="42.080405626648215" lon="13.5670294398192"><ele>836.0</ele><time>2026-04-27T11:01:20.998Z</time></trkpt><trkpt lat="42.08049036278148" lon="13.566940088888353"><ele>836.0</ele><time>2026-04-27T11:01:21.998Z</time></trkpt><trkpt lat="42.08055951867309" lon="13.566847189996116"><ele>836.4</ele><time>2026-04-27T11:01:22.998Z</time></trkpt><trkpt lat="42.08060222919277" lon="13.566758537463395"><ele>836.8</ele><time>2026-04-27T11:01:23.998Z</time></trkpt><trkpt lat="42.08058205052965" lon="13.566569852776986"><ele>837.1999999999999</ele><time>2026-04-27T11:01:25.998Z</time></trkpt><trkpt lat="42.08055462846826" lon="13.566484044798866"><ele>837.5999999999999</ele><time>2026-04-27T11:01:26.998Z</time></trkpt><trkpt lat="42.080508381374415" lon="13.566358884777745"><ele>838.0</ele><time>2026-04-27T11:01:27.998Z</time></trkpt><trkpt lat="42.0804792753416" lon="13.566208893681008"><ele>838.0</ele><time>2026-04-27T11:01:28.998Z</time></trkpt><trkpt lat="42.08045540998096" lon="13.56606201048508"><ele>838.0</ele><time>2026-04-27T11:01:30Z</time></trkpt><trkpt lat="42.0804532955867" lon="13.565912374172559"><ele>838.0</ele><time>2026-04-27T11:01:31Z</time></trkpt><trkpt lat="42.080445976724434" lon="13.5657529862096"><ele>838.0</ele><time>2026-04-27T11:01:32Z</time></trkpt><trkpt lat="42.080425990893445" lon="13.565634490745566"><ele>838.0</ele><time>2026-04-27T11:01:33Z</time></trkpt><trkpt lat="42.080391071405465" lon="13.565522528713787"><ele>838.0</ele><time>2026-04-27T11:01:34Z</time></trkpt><trkpt lat="42.080347441638956" lon="13.565371536312757"><ele>838.0</ele><time>2026-04-27T11:01:35Z</time></trkpt><trkpt lat="42.080273763889856" lon="13.565219412810448"><ele>838.0</ele><time>2026-04-27T11:01:36Z</time></trkpt><trkpt lat="42.080211155305335" lon="13.565055332139075"><ele>838.0</ele><time>2026-04-27T11:01:37Z</time></trkpt><trkpt lat="42.080159090408536" lon="13.564900137187507"><ele>835.0</ele><time>2026-04-27T11:01:38Z</time></trkpt><trkpt lat="42.08010943379601" lon="13.564752224939992"><ele>832.0</ele><time>2026-04-27T11:01:39Z</time></trkpt><trkpt lat="42.08006856783546" lon="13.564598111565562"><ele>829.0</ele><time>2026-04-27T11:01:40Z</time></trkpt><trkpt lat="42.08004005055819" lon="13.564451912363344"><ele>826.0</ele><time>2026-04-27T11:01:41Z</time></trkpt><trkpt lat="42.0800332388661" lon="13.564290269363507"><ele>824.0</ele><time>2026-04-27T11:01:42Z</time></trkpt><trkpt lat="42.0800486056756" lon="13.564116820982722"><ele>822.0</ele><time>2026-04-27T11:01:43Z</time></trkpt><trkpt lat="42.08003742207292" lon="13.563953481311446"><ele>820.0</ele><time>2026-04-27T11:01:44Z</time></trkpt><trkpt lat="42.08003275483976" lon="13.563782790582714"><ele>818.0</ele><time>2026-04-27T11:01:45Z</time></trkpt><trkpt lat="42.08002176836734" lon="13.563583261773887"><ele>817.75</ele><time>2026-04-27T11:01:46Z</time></trkpt><trkpt lat="42.08001534448734" lon="13.563404826863584"><ele>817.5</ele><time>2026-04-27T11:01:47Z</time></trkpt><trkpt lat="42.08000970101626" lon="13.563249947423635"><ele>817.25</ele><time>2026-04-27T11:01:48Z</time></trkpt><trkpt lat="42.080012645873225" lon="13.563096748387713"><ele>817.0</ele><time>2026-04-27T11:01:49Z</time></trkpt><trkpt lat="42.08000914168983" lon="13.56295020540063"><ele>815.2</ele><time>2026-04-27T11:01:50Z</time></trkpt><trkpt lat="42.08002580607427" lon="13.562812071060273"><ele>813.4000000000001</ele><time>2026-04-27T11:01:51Z</time></trkpt><trkpt lat="42.08004290944374" lon="13.562682090942822"><ele>811.5999999999999</ele><time>2026-04-27T11:01:52Z</time></trkpt><trkpt lat="42.08005058682468" lon="13.562569399219417"><ele>809.8</ele><time>2026-04-27T11:01:53Z</time></trkpt><trkpt lat="42.08003743693137" lon="13.562449240099868"><ele>808.0</ele><time>2026-04-27T11:01:54Z</time></trkpt><trkpt lat="42.08000744821542" lon="13.562336336250608"><ele>808.0</ele><time>2026-04-27T11:01:55Z</time></trkpt><trkpt lat="42.07995454357296" lon="13.562220087090337"><ele>808.0</ele><time>2026-04-27T11:01:56Z</time></trkpt><trkpt lat="42.07989905816126" lon="13.562116644748217"><ele>808.0</ele><time>2026-04-27T11:01:57Z</time></trkpt><trkpt lat="42.079859441131646" lon="13.562007749815747"><ele>808.0</ele><time>2026-04-27T11:01:58Z</time></trkpt><trkpt lat="42.0798402820202" lon="13.561888116500532"><ele>808.0</ele><time>2026-04-27T11:01:59Z</time></trkpt><trkpt lat="42.07983523410774" lon="13.561726219756766"><ele>806.4</ele><time>2026-04-27T11:02:00Z</time></trkpt><trkpt lat="42.07984722545842" lon="13.561557848704288"><ele>804.8</ele><time>2026-04-27T11:02:00.999Z</time></trkpt><trkpt lat="42.079885206920515" lon="13.561417167069326"><ele>803.2</ele><time>2026-04-27T11:02:01.999Z</time></trkpt><trkpt lat="42.07993655212305" lon="13.561306577603824"><ele>801.6</ele><time>2026-04-27T11:02:02.999Z</time></trkpt><trkpt lat="42.079995948854325" lon="13.561212194687753"><ele>800.0</ele><time>2026-04-27T11:02:03.999Z</time></trkpt><trkpt lat="42.08006235628734" lon="13.561091078617281"><ele>798.8</ele><time>2026-04-27T11:02:04.999Z</time></trkpt><trkpt lat="42.08011579473388" lon="13.560987445007676"><ele>797.6</ele><time>2026-04-27T11:02:05.999Z</time></trkpt><trkpt lat="42.08014120128308" lon="13.560886995909621"><ele>796.4000000000001</ele><time>2026-04-27T11:02:06.999Z</time></trkpt><trkpt lat="42.080136867996934" lon="13.560779113892726"><ele>795.2</ele><time>2026-04-27T11:02:07.999Z</time></trkpt><trkpt lat="42.08013637100235" lon="13.560644250264392"><ele>794.0</ele><time>2026-04-27T11:02:08.999Z</time></trkpt><trkpt lat="42.080093527009765" lon="13.560505929917092"><ele>794.0</ele><time>2026-04-27T11:02:09.999Z</time></trkpt><trkpt lat="42.080031158021136" lon="13.56039210880369"><ele>794.0</ele><time>2026-04-27T11:02:10.999Z</time></trkpt><trkpt lat="42.07997757197156" lon="13.560270016425989"><ele>794.0</ele><time>2026-04-27T11:02:11.999Z</time></trkpt><trkpt lat="42.079929512678156" lon="13.560150343041283"><ele>794.0</ele><time>2026-04-27T11:02:12.999Z</time></trkpt><trkpt lat="42.07987895899404" lon="13.560033342389149"><ele>794.0</ele><time>2026-04-27T11:02:13.999Z</time></trkpt><trkpt lat="42.079815237931186" lon="13.559926532391962"><ele>796.4000000000001</ele><time>2026-04-27T11:02:14.999Z</time></trkpt><trkpt lat="42.07975182427508" lon="13.559818238481014"><ele>798.8</ele><time>2026-04-27T11:02:15.999Z</time></trkpt><trkpt lat="42.07968441252586" lon="13.559701112988387"><ele>801.2</ele><time>2026-04-27T11:02:16.999Z</time></trkpt><trkpt lat="42.07961550925499" lon="13.559576289787628"><ele>803.5999999999999</ele><time>2026-04-27T11:02:17.999Z</time></trkpt><trkpt lat="42.079546710823145" lon="13.559443266111627"><ele>806.0</ele><time>2026-04-27T11:02:18.999Z</time></trkpt><trkpt lat="42.07948464871547" lon="13.55929350024071"><ele>800.0</ele><time>2026-04-27T11:02:19.999Z</time></trkpt><trkpt lat="42.079420852566216" lon="13.55915193723979"><ele>794.0</ele><time>2026-04-27T11:02:20.999Z</time></trkpt><trkpt lat="42.07935678602719" lon="13.559012355497558"><ele>788.0</ele><time>2026-04-27T11:02:21.999Z</time></trkpt><trkpt lat="42.079286518256204" lon="13.558897299448812"><ele>782.0</ele><time>2026-04-27T11:02:22.999Z</time></trkpt><trkpt lat="42.07922770119835" lon="13.558780765662597"><ele>782.5</ele><time>2026-04-27T11:02:23.999Z</time></trkpt><trkpt lat="42.07915680753197" lon="13.558665656232934"><ele>783.0</ele><time>2026-04-27T11:02:24.999Z</time></trkpt><trkpt lat="42.079078290391024" lon="13.558567211288283"><ele>783.5</ele><time>2026-04-27T11:02:25.999Z</time></trkpt><trkpt lat="42.079011933077396" lon="13.558432715073934"><ele>784.0</ele><time>2026-04-27T11:02:26.999Z</time></trkpt><trkpt lat="42.078940221335735" lon="13.558305795735835"><ele>784.0</ele><time>2026-04-27T11:02:27.999Z</time></trkpt><trkpt lat="42.07887827872405" lon="13.558170936699181"><ele>784.0</ele><time>2026-04-27T11:02:28.999Z</time></trkpt><trkpt lat="42.078817420724924" lon="13.55802957902689"><ele>784.0</ele><time>2026-04-27T11:02:29.999Z</time></trkpt><trkpt lat="42.07875358983142" lon="13.55788721588963"><ele>784.0</ele><time>2026-04-27T11:02:30.999Z</time></trkpt><trkpt lat="42.07868557977939" lon="13.557738558917643"><ele>779.0</ele><time>2026-04-27T11:02:31.999Z</time></trkpt><trkpt lat="42.0786074689178" lon="13.557597596181814"><ele>774.0</ele><time>2026-04-27T11:02:32.999Z</time></trkpt><trkpt lat="42.0785478507186" lon="13.557441260544076"><ele>769.0</ele><time>2026-04-27T11:02:33.999Z</time></trkpt><trkpt lat="42.07848697210701" lon="13.557280440188077"><ele>764.0</ele><time>2026-04-27T11:02:34.999Z</time></trkpt><trkpt lat="42.078405123532924" lon="13.557121571646245"><ele>761.5</ele><time>2026-04-27T11:02:35.999Z</time></trkpt><trkpt lat="42.07833991264905" lon="13.556978144694881"><ele>759.0</ele><time>2026-04-27T11:02:36.999Z</time></trkpt><trkpt lat="42.07829683095327" lon="13.556833817351393"><ele>756.5</ele><time>2026-04-27T11:02:37.999Z</time></trkpt><trkpt lat="42.078255442965414" lon="13.556707963529162"><ele>754.0</ele><time>2026-04-27T11:02:38.999Z</time></trkpt><trkpt lat="42.07822581683001" lon="13.556565981585887"><ele>758.75</ele><time>2026-04-27T11:02:39.999Z</time></trkpt><trkpt lat="42.0782010156781" lon="13.556410249719505"><ele>763.5</ele><time>2026-04-27T11:02:40.999Z</time></trkpt><trkpt lat="42.07816592723016" lon="13.556244701497938"><ele>768.25</ele><time>2026-04-27T11:02:41.999Z</time></trkpt><trkpt lat="42.07814242073187" lon="13.556074423789704"><ele>773.0</ele><time>2026-04-27T11:02:42.999Z</time></trkpt><trkpt lat="42.07810745550888" lon="13.555942817607557"><ele>773.0</ele><time>2026-04-27T11:02:43.999Z</time></trkpt><trkpt lat="42.078039194540956" lon="13.5558088949992"><ele>773.0</ele><time>2026-04-27T11:02:44.999Z</time></trkpt><trkpt lat="42.077973667643086" lon="13.555675322186731"><ele>773.0</ele><time>2026-04-27T11:02:45.999Z</time></trkpt><trkpt lat="42.077907645336104" lon="13.55555598773164"><ele>773.0</ele><time>2026-04-27T11:02:46.999Z</time></trkpt><trkpt lat="42.077856631071796" lon="13.555454722501661"><ele>773.0</ele><time>2026-04-27T11:02:47.999Z</time></trkpt><trkpt lat="42.07781180041697" lon="13.55534853156172"><ele>770.0</ele><time>2026-04-27T11:02:48.999Z</time></trkpt><trkpt lat="42.0778289572254" lon="13.55521252621336"><ele>767.0</ele><time>2026-04-27T11:02:49.999Z</time></trkpt><trkpt lat="42.07782274562277" lon="13.555084099270443"><ele>764.0</ele><time>2026-04-27T11:02:50.999Z</time></trkpt><trkpt lat="42.07783808195443" lon="13.55497197196585"><ele>761.0</ele><time>2026-04-27T11:02:51.999Z</time></trkpt><trkpt lat="42.077827853141194" lon="13.554849300657384"><ele>758.0</ele><time>2026-04-27T11:02:52.999Z</time></trkpt><trkpt lat="42.07779049443828" lon="13.55472718002135"><ele>758.0</ele><time>2026-04-27T11:02:53.999Z</time></trkpt><trkpt lat="42.07770998892878" lon="13.554614402106498"><ele>758.0</ele><time>2026-04-27T11:02:54.999Z</time></trkpt><trkpt lat="42.0776327608543" lon="13.554500804412028"><ele>758.0</ele><time>2026-04-27T11:02:55.999Z</time></trkpt><trkpt lat="42.07753982212689" lon="13.554399292830944"><ele>758.0</ele><time>2026-04-27T11:02:56.999Z</time></trkpt><trkpt lat="42.07743955500841" lon="13.554317288323244"><ele>758.8</ele><time>2026-04-27T11:02:57.999Z</time></trkpt><trkpt lat="42.077338494264694" lon="13.554231215866748"><ele>759.5999999999999</ele><time>2026-04-27T11:02:58.999Z</time></trkpt><trkpt lat="42.07727153315188" lon="13.554128853046745"><ele>760.4000000000001</ele><time>2026-04-27T11:02:59.999Z</time></trkpt><trkpt lat="42.07719678552989" lon="13.554041336228437"><ele>761.2</ele><time>2026-04-27T11:03:00.999Z</time></trkpt><trkpt lat="42.077173271386556" lon="13.553906686659431"><ele>762.0</ele><time>2026-04-27T11:03:01.999Z</time></trkpt><trkpt lat="42.0771341371398" lon="13.553799818896712"><ele>759.1666666666666</ele><time>2026-04-27T11:03:02.999Z</time></trkpt><trkpt lat="42.07710978031661" lon="13.553686340029302"><ele>756.3333333333334</ele><time>2026-04-27T11:03:03.999Z</time></trkpt><trkpt lat="42.07708760637174" lon="13.553599451283059"><ele>753.5</ele><time>2026-04-27T11:03:04.999Z</time></trkpt><trkpt lat="42.077050754648106" lon="13.553523371810963"><ele>750.6666666666667</ele><time>2026-04-27T11:03:05.999Z</time></trkpt><trkpt lat="42.07701488124653" lon="13.553422697934048"><ele>747.8333333333334</ele><time>2026-04-27T11:03:07.999Z</time></trkpt><trkpt lat="42.07712468964051" lon="13.55335715568618"><ele>745.0</ele><time>2026-04-27T11:03:11.999Z</time></trkpt><trkpt lat="42.077203833736554" lon="13.553345140768796"><ele>745.0</ele><time>2026-04-27T11:03:12.998Z</time></trkpt><trkpt lat="42.07727438962719" lon="13.553329648489408"><ele>745.0</ele><time>2026-04-27T11:03:13.998Z</time></trkpt><trkpt lat="42.07735060052275" lon="13.553294425206087"><ele>745.0</ele><time>2026-04-27T11:03:14.998Z</time></trkpt><trkpt lat="42.077428154085865" lon="13.553246181138494"><ele>745.0</ele><time>2026-04-27T11:03:15.998Z</time></trkpt><trkpt lat="42.07749889878537" lon="13.55318814092746"><ele>745.0</ele><time>2026-04-27T11:03:16.998Z</time></trkpt><trkpt lat="42.07755299747426" lon="13.553101225664983"><ele>745.0</ele><time>2026-04-27T11:03:17.998Z</time></trkpt><trkpt lat="42.07758648008443" lon="13.552995062860674"><ele>745.3333333333334</ele><time>2026-04-27T11:03:18.998Z</time></trkpt><trkpt lat="42.077601026278245" lon="13.55287974894976"><ele>745.6666666666667</ele><time>2026-04-27T11:03:19.998Z</time></trkpt><trkpt lat="42.0775942737216" lon="13.552763286595917"><ele>746.0</ele><time>2026-04-27T11:03:20.998Z</time></trkpt><trkpt lat="42.077565747814795" lon="13.552651375079543"><ele>746.3333333333334</ele><time>2026-04-27T11:03:21.998Z</time></trkpt><trkpt lat="42.07753068978982" lon="13.552541527584019"><ele>746.6666666666666</ele><time>2026-04-27T11:03:22.998Z</time></trkpt><trkpt lat="42.077495978655236" lon="13.552433451611552"><ele>747.0</ele><time>2026-04-27T11:03:23.998Z</time></trkpt><trkpt lat="42.077466774176834" lon="13.552324631861712"><ele>747.0</ele><time>2026-04-27T11:03:24.998Z</time></trkpt><trkpt lat="42.07743962842727" lon="13.552211019570214"><ele>747.0</ele><time>2026-04-27T11:03:25.998Z</time></trkpt><trkpt lat="42.07741341419282" lon="13.552100671557735"><ele>747.0</ele><time>2026-04-27T11:03:26.998Z</time></trkpt><trkpt lat="42.07738443888683" lon="13.55199105421805"><ele>747.0</ele><time>2026-04-27T11:03:27.998Z</time></trkpt><trkpt lat="42.07735346069242" lon="13.551880608731741"><ele>747.0</ele><time>2026-04-27T11:03:28.998Z</time></trkpt><trkpt lat="42.077320341131596" lon="13.55176766299303"><ele>747.0</ele><time>2026-04-27T11:03:29.998Z</time></trkpt><trkpt lat="42.077280230223" lon="13.551653022186779"><ele>747.0</ele><time>2026-04-27T11:03:30.998Z</time></trkpt><trkpt lat="42.07722614947086" lon="13.551549898652127"><ele>747.0</ele><time>2026-04-27T11:03:31.998Z</time></trkpt><trkpt lat="42.077167318886595" lon="13.551459304970813"><ele>747.0</ele><time>2026-04-27T11:03:32.998Z</time></trkpt><trkpt lat="42.07711058961937" lon="13.5513798742623"><ele>747.0</ele><time>2026-04-27T11:03:33.998Z</time></trkpt><trkpt lat="42.07705974255466" lon="13.551304340679295"><ele>747.0</ele><time>2026-04-27T11:03:34.998Z</time></trkpt><trkpt lat="42.077001623788746" lon="13.551233379186188"><ele>747.0</ele><time>2026-04-27T11:03:36Z</time></trkpt><trkpt lat="42.076940339974236" lon="13.551163238825339"><ele>746.0</ele><time>2026-04-27T11:03:37Z</time></trkpt><trkpt lat="42.076865866470456" lon="13.55110080245798"><ele>745.0</ele><time>2026-04-27T11:03:38Z</time></trkpt><trkpt lat="42.076786149056026" lon="13.551041945372724"><ele>744.0</ele><time>2026-04-27T11:03:39Z</time></trkpt><trkpt lat="42.076702370470144" lon="13.550993565568422"><ele>743.0</ele><time>2026-04-27T11:03:40Z</time></trkpt><trkpt lat="42.07663613443836" lon="13.550937562324773"><ele>742.0</ele><time>2026-04-27T11:03:41Z</time></trkpt><trkpt lat="42.07659044522586" lon="13.550870171788722"><ele>741.0</ele><time>2026-04-27T11:03:42Z</time></trkpt><trkpt lat="42.076562540071485" lon="13.550787412901482"><ele>741.0</ele><time>2026-04-27T11:03:43Z</time></trkpt><trkpt lat="42.07656303796207" lon="13.550677397035123"><ele>741.0</ele><time>2026-04-27T11:03:45Z</time></trkpt><trkpt lat="42.0766778361487" lon="13.550708568805874"><ele>741.0</ele><time>2026-04-27T11:03:52Z</time></trkpt><trkpt lat="42.07675882386292" lon="13.55070254120942"><ele>741.0</ele><time>2026-04-27T11:03:53Z</time></trkpt><trkpt lat="42.07684747845896" lon="13.550677496980878"><ele>741.0</ele><time>2026-04-27T11:03:54Z</time></trkpt><trkpt lat="42.07692720782992" lon="13.550652334517327"><ele>743.8</ele><time>2026-04-27T11:03:55Z</time></trkpt><trkpt lat="42.076999836458015" lon="13.55061056359728"><ele>746.5999999999999</ele><time>2026-04-27T11:03:56Z</time></trkpt><trkpt lat="42.07708590992986" lon="13.55056779780068"><ele>749.4</ele><time>2026-04-27T11:03:57Z</time></trkpt><trkpt lat="42.077182927283786" lon="13.550528161822289"><ele>752.2</ele><time>2026-04-27T11:03:58Z</time></trkpt><trkpt lat="42.07728491572271" lon="13.550492405420222"><ele>755.0</ele><time>2026-04-27T11:03:59Z</time></trkpt><trkpt lat="42.07738953153078" lon="13.550446646271364"><ele>757.0</ele><time>2026-04-27T11:04:00Z</time></trkpt><trkpt lat="42.077495482353136" lon="13.550401277273806"><ele>759.0</ele><time>2026-04-27T11:04:01Z</time></trkpt><trkpt lat="42.077595533080164" lon="13.55036001842398"><ele>761.0</ele><time>2026-04-27T11:04:02Z</time></trkpt><trkpt lat="42.077704718317726" lon="13.550310876775264"><ele>763.0</ele><time>2026-04-27T11:04:03Z</time></trkpt><trkpt lat="42.07782453460098" lon="13.550264220027316"><ele>763.0</ele><time>2026-04-27T11:04:04Z</time></trkpt><trkpt lat="42.07794442049792" lon="13.550210855823556"><ele>763.0</ele><time>2026-04-27T11:04:04.999Z</time></trkpt><trkpt lat="42.07806561952137" lon="13.550159577673254"><ele>763.0</ele><time>2026-04-27T11:04:05.999Z</time></trkpt><trkpt lat="42.07818540134494" lon="13.550108346302983"><ele>763.0</ele><time>2026-04-27T11:04:06.999Z</time></trkpt><trkpt lat="42.07829892633966" lon="13.550058666498426"><ele>766.5</ele><time>2026-04-27T11:04:07.999Z</time></trkpt><trkpt lat="42.07841119298748" lon="13.550011392709425"><ele>770.0</ele><time>2026-04-27T11:04:08.999Z</time></trkpt><trkpt lat="42.07852228937067" lon="13.549966491758855"><ele>773.5</ele><time>2026-04-27T11:04:09.999Z</time></trkpt><trkpt lat="42.07863417700656" lon="13.549919886683583"><ele>777.0</ele><time>2026-04-27T11:04:10.999Z</time></trkpt><trkpt lat="42.078747047553556" lon="13.549867535961106"><ele>777.0</ele><time>2026-04-27T11:04:11.999Z</time></trkpt><trkpt lat="42.07886119522539" lon="13.549821321847695"><ele>777.0</ele><time>2026-04-27T11:04:12.999Z</time></trkpt><trkpt lat="42.078975148086705" lon="13.54977889059879"><ele>777.0</ele><time>2026-04-27T11:04:13.999Z</time></trkpt><trkpt lat="42.07908748233145" lon="13.549739329892292"><ele>777.0</ele><time>2026-04-27T11:04:14.999Z</time></trkpt><trkpt lat="42.07919859371965" lon="13.549695781741224"><ele>777.6</ele><time>2026-04-27T11:04:15.999Z</time></trkpt><trkpt lat="42.07930429880263" lon="13.549637937518364"><ele>778.2</ele><time>2026-04-27T11:04:16.999Z</time></trkpt><trkpt lat="42.07940597566683" lon="13.549578361480654"><ele>778.8</ele><time>2026-04-27T11:04:17.999Z</time></trkpt><trkpt lat="42.07949176162364" lon="13.549534915789895"><ele>779.4</ele><time>2026-04-27T11:04:18.999Z</time></trkpt><trkpt lat="42.07958423411695" lon="13.549499400266939"><ele>780.0</ele><time>2026-04-27T11:04:20.999Z</time></trkpt><trkpt lat="42.079688716019184" lon="13.54948844180212"><ele>780.0</ele><time>2026-04-27T11:04:23.999Z</time></trkpt><trkpt lat="42.07977664069347" lon="13.549501767520214"><ele>780.0</ele><time>2026-04-27T11:04:24.999Z</time></trkpt><trkpt lat="42.07984794845355" lon="13.549447292806848"><ele>780.0</ele><time>2026-04-27T11:04:25.999Z</time></trkpt><trkpt lat="42.07987876246612" lon="13.549293992858543"><ele>780.0</ele><time>2026-04-27T11:04:26.999Z</time></trkpt><trkpt lat="42.07994920573725" lon="13.549211718317997"><ele>780.0</ele><time>2026-04-27T11:04:27.999Z</time></trkpt><trkpt lat="42.080020919440734" lon="13.549134576782278"><ele>779.8</ele><time>2026-04-27T11:04:28.999Z</time></trkpt><trkpt lat="42.08009354704788" lon="13.549052245394806"><ele>779.6</ele><time>2026-04-27T11:04:29.999Z</time></trkpt><trkpt lat="42.080175524947975" lon="13.548963498317486"><ele>779.4000000000001</ele><time>2026-04-27T11:04:30.999Z</time></trkpt><trkpt lat="42.08026508607124" lon="13.548874674157839"><ele>779.2</ele><time>2026-04-27T11:04:31.999Z</time></trkpt><trkpt lat="42.080350177420954" lon="13.548786639676484"><ele>779.0</ele><time>2026-04-27T11:04:32.999Z</time></trkpt><trkpt lat="42.080427271710526" lon="13.548702630922872"><ele>779.0</ele><time>2026-04-27T11:04:33.999Z</time></trkpt><trkpt lat="42.08050379093443" lon="13.54862083102384"><ele>779.0</ele><time>2026-04-27T11:04:34.999Z</time></trkpt><trkpt lat="42.08058149327919" lon="13.548539814610713"><ele>779.0</ele><time>2026-04-27T11:04:35.999Z</time></trkpt><trkpt lat="42.08066182173411" lon="13.548454861285053"><ele>779.0</ele><time>2026-04-27T11:04:36.999Z</time></trkpt><trkpt lat="42.080746525854956" lon="13.548362860393599"><ele>779.0</ele><time>2026-04-27T11:04:37.999Z</time></trkpt><trkpt lat="42.080834771355875" lon="13.548261791605782"><ele>780.5</ele><time>2026-04-27T11:04:38.999Z</time></trkpt><trkpt lat="42.0809284094378" lon="13.548161563401136"><ele>782.0</ele><time>2026-04-27T11:04:39.999Z</time></trkpt><trkpt lat="42.08102525909051" lon="13.548062969731111"><ele>783.5</ele><time>2026-04-27T11:04:40.999Z</time></trkpt><trkpt lat="42.0811227149166" lon="13.547964211212525"><ele>785.0</ele><time>2026-04-27T11:04:41.999Z</time></trkpt><trkpt lat="42.08121152345993" lon="13.547872735289978"><ele>782.6</ele><time>2026-04-27T11:04:42.999Z</time></trkpt><trkpt lat="42.081289527593654" lon="13.547786025680255"><ele>780.2</ele><time>2026-04-27T11:04:43.999Z</time></trkpt><trkpt lat="42.08136285891461" lon="13.547696597701936"><ele>777.8</ele><time>2026-04-27T11:04:44.999Z</time></trkpt><trkpt lat="42.0814423797149" lon="13.547607851577844"><ele>775.4</ele><time>2026-04-27T11:04:45.999Z</time></trkpt><trkpt lat="42.08152927653909" lon="13.547526400518773"><ele>773.0</ele><time>2026-04-27T11:04:46.999Z</time></trkpt><trkpt lat="42.081627333717826" lon="13.547466065110989"><ele>773.0</ele><time>2026-04-27T11:04:47.999Z</time></trkpt><trkpt lat="42.08173827531592" lon="13.547414887902717"><ele>773.0</ele><time>2026-04-27T11:04:48.999Z</time></trkpt><trkpt lat="42.08184836719966" lon="13.547363779172604"><ele>773.0</ele><time>2026-04-27T11:04:49.999Z</time></trkpt><trkpt lat="42.08195706604711" lon="13.547313497926009"><ele>773.0</ele><time>2026-04-27T11:04:50.999Z</time></trkpt><trkpt lat="42.082056228439946" lon="13.547263773656953"><ele>773.0</ele><time>2026-04-27T11:04:51.999Z</time></trkpt><trkpt lat="42.08214588919717" lon="13.54721947680226"><ele>773.0</ele><time>2026-04-27T11:04:52.999Z</time></trkpt><trkpt lat="42.08222302480943" lon="13.547154059217453"><ele>773.0</ele><time>2026-04-27T11:04:53.999Z</time></trkpt><trkpt lat="42.082289171620104" lon="13.547055818986173"><ele>773.0</ele><time>2026-04-27T11:04:54.999Z</time></trkpt><trkpt lat="42.08234752146439" lon="13.546931009464904"><ele>773.0</ele><time>2026-04-27T11:04:55.999Z</time></trkpt><trkpt lat="42.0823963935666" lon="13.546789596382276"><ele>773.75</ele><time>2026-04-27T11:04:56.999Z</time></trkpt><trkpt lat="42.08243780425957" lon="13.546640013432667"><ele>774.5</ele><time>2026-04-27T11:04:57.999Z</time></trkpt><trkpt lat="42.08247651241627" lon="13.546490564329824"><ele>775.25</ele><time>2026-04-27T11:04:58.999Z</time></trkpt><trkpt lat="42.08250793303475" lon="13.546335285682973"><ele>776.0</ele><time>2026-04-27T11:04:59.999Z</time></trkpt><trkpt lat="42.08253455392587" lon="13.54617959973849"><ele>774.5</ele><time>2026-04-27T11:05:00.999Z</time></trkpt><trkpt lat="42.0825573924172" lon="13.546025918912516"><ele>773.0</ele><time>2026-04-27T11:05:01.999Z</time></trkpt><trkpt lat="42.0825696226227" lon="13.545873444663513"><ele>771.5</ele><time>2026-04-27T11:05:02.999Z</time></trkpt><trkpt lat="42.08257036054506" lon="13.545717747921989"><ele>770.0</ele><time>2026-04-27T11:05:03.999Z</time></trkpt><trkpt lat="42.08256814042869" lon="13.545558108240456"><ele>770.0</ele><time>2026-04-27T11:05:04.999Z</time></trkpt><trkpt lat="42.08255977827483" lon="13.545398630662483"><ele>770.0</ele><time>2026-04-27T11:05:05.999Z</time></trkpt><trkpt lat="42.0825398606375" lon="13.545239314739584"><ele>770.0</ele><time>2026-04-27T11:05:06.999Z</time></trkpt><trkpt lat="42.08250030904792" lon="13.545069632559864"><ele>770.0</ele><time>2026-04-27T11:05:07.999Z</time></trkpt><trkpt lat="42.08246224203586" lon="13.544900808552232"><ele>769.6</ele><time>2026-04-27T11:05:08.999Z</time></trkpt><trkpt lat="42.08243221671528" lon="13.544745110038159"><ele>769.2</ele><time>2026-04-27T11:05:09.999Z</time></trkpt><trkpt lat="42.08240817483814" lon="13.544606789032807"><ele>768.8</ele><time>2026-04-27T11:05:10.999Z</time></trkpt><trkpt lat="42.0823823635674" lon="13.54447455052666"><ele>768.4</ele><time>2026-04-27T11:05:11.999Z</time></trkpt><trkpt lat="42.08236674633785" lon="13.544336520143421"><ele>768.0</ele><time>2026-04-27T11:05:12.999Z</time></trkpt><trkpt lat="42.08236242908971" lon="13.544187104548179"><ele>765.2</ele><time>2026-04-27T11:05:13.999Z</time></trkpt><trkpt lat="42.082368106896936" lon="13.544046241322894"><ele>762.4</ele><time>2026-04-27T11:05:14.999Z</time></trkpt><trkpt lat="42.08237336517041" lon="13.543919844300923"><ele>759.6</ele><time>2026-04-27T11:05:15.999Z</time></trkpt><trkpt lat="42.08237493671524" lon="13.543806960588759"><ele>756.8000000000001</ele><time>2026-04-27T11:05:16.998Z</time></trkpt><trkpt lat="42.08236903015829" lon="13.543716412149529"><ele>754.0</ele><time>2026-04-27T11:05:17.998Z</time></trkpt><trkpt lat="42.08232920897567" lon="13.54358407599452"><ele>753.5</ele><time>2026-04-27T11:05:19.998Z</time></trkpt><trkpt lat="42.082323424576074" lon="13.543499547780089"><ele>753.0</ele><time>2026-04-27T11:05:24.998Z</time></trkpt><trkpt lat="42.08219947574776" lon="13.543497328293329"><ele>752.5</ele><time>2026-04-27T11:05:26.998Z</time></trkpt><trkpt lat="42.082137527088555" lon="13.54351651509988"><ele>752.0</ele><time>2026-04-27T11:05:27.998Z</time></trkpt><trkpt lat="42.082068156254365" lon="13.543515254696866"><ele>751.5</ele><time>2026-04-27T11:05:28.998Z</time></trkpt><trkpt lat="42.08196991679649" lon="13.543511148202237"><ele>751.0</ele><time>2026-04-27T11:05:29.998Z</time></trkpt><trkpt lat="42.081862084676196" lon="13.543514470251889"><ele>751.0</ele><time>2026-04-27T11:05:30.998Z</time></trkpt><trkpt lat="42.08175362401856" lon="13.543513869673347"><ele>751.0</ele><time>2026-04-27T11:05:31.998Z</time></trkpt><trkpt lat="42.081636456685594" lon="13.543513237946216"><ele>751.0</ele><time>2026-04-27T11:05:32.998Z</time></trkpt><trkpt lat="42.08151574122538" lon="13.54351189372229"><ele>751.0</ele><time>2026-04-27T11:05:33.998Z</time></trkpt><trkpt lat="42.08139234609644" lon="13.543511422008592"><ele>750.0</ele><time>2026-04-27T11:05:34.998Z</time></trkpt><trkpt lat="42.08126990221472" lon="13.54350815138529"><ele>749.0</ele><time>2026-04-27T11:05:35.998Z</time></trkpt><trkpt lat="42.08114665064648" lon="13.543505704349059"><ele>748.0</ele><time>2026-04-27T11:05:36.998Z</time></trkpt><trkpt lat="42.081024195615484" lon="13.543503871871687"><ele>747.0</ele><time>2026-04-27T11:05:37.998Z</time></trkpt><trkpt lat="42.080897027176576" lon="13.543502049251579"><ele>747.0</ele><time>2026-04-27T11:05:38.998Z</time></trkpt><trkpt lat="42.080771817226285" lon="13.54350110100437"><ele>747.0</ele><time>2026-04-27T11:05:39.998Z</time></trkpt><trkpt lat="42.08064591133278" lon="13.543499844702586"><ele>747.0</ele><time>2026-04-27T11:05:40.998Z</time></trkpt><trkpt lat="42.08052023785627" lon="13.543497910734466"><ele>747.0</ele><time>2026-04-27T11:05:42Z</time></trkpt><trkpt lat="42.08040107425867" lon="13.54350216064914"><ele>746.5</ele><time>2026-04-27T11:05:43Z</time></trkpt><trkpt lat="42.08029615302865" lon="13.543472271613815"><ele>746.0</ele><time>2026-04-27T11:05:44Z</time></trkpt><trkpt lat="42.08020653779759" lon="13.543471010098603"><ele>745.5</ele><time>2026-04-27T11:05:45Z</time></trkpt><trkpt lat="42.08013575419871" lon="13.543470312635927"><ele>745.0</ele><time>2026-04-27T11:05:46Z</time></trkpt><trkpt lat="42.08004418711605" lon="13.543469410385804"><ele>744.5</ele><time>2026-04-27T11:05:47Z</time></trkpt><trkpt lat="42.079970694788976" lon="13.543468686236992"><ele>744.0</ele><time>2026-04-27T11:05:48Z</time></trkpt><trkpt lat="42.07989569090104" lon="13.54348035542438"><ele>743.2</ele><time>2026-04-27T11:05:49Z</time></trkpt><trkpt lat="42.079831642365306" lon="13.543467349315732"><ele>742.4000000000001</ele><time>2026-04-27T11:05:50Z</time></trkpt><trkpt lat="42.07975711784711" lon="13.5433390837923"><ele>741.6</ele><time>2026-04-27T11:05:52Z</time></trkpt><trkpt lat="42.0797326357119" lon="13.543221696611274"><ele>740.8</ele><time>2026-04-27T11:05:53Z</time></trkpt><trkpt lat="42.07968694309039" lon="13.543111652997302"><ele>740.0</ele><time>2026-04-27T11:05:54Z</time></trkpt><trkpt lat="42.07964387444652" lon="13.543012110519548"><ele>740.0</ele><time>2026-04-27T11:05:55Z</time></trkpt><trkpt lat="42.079603913215216" lon="13.542944330474597"><ele>740.0</ele><time>2026-04-27T11:05:56Z</time></trkpt><trkpt lat="42.079542956996534" lon="13.542895381285115"><ele>740.0</ele><time>2026-04-27T11:05:57Z</time></trkpt><trkpt lat="42.079463400275294" lon="13.542875857765305"><ele>740.0</ele><time>2026-04-27T11:05:58Z</time></trkpt><trkpt lat="42.07937393362699" lon="13.542836579714388"><ele>740.0</ele><time>2026-04-27T11:05:59Z</time></trkpt><trkpt lat="42.0792733329783" lon="13.542812663153494"><ele>740.0</ele><time>2026-04-27T11:06:00Z</time></trkpt><trkpt lat="42.07917116376391" lon="13.542801282267103"><ele>739.6</ele><time>2026-04-27T11:06:01Z</time></trkpt><trkpt lat="42.07907252739214" lon="13.542759346865854"><ele>739.2</ele><time>2026-04-27T11:06:02Z</time></trkpt><trkpt lat="42.07898267806295" lon="13.542707148769933"><ele>738.8</ele><time>2026-04-27T11:06:03Z</time></trkpt><trkpt lat="42.078907296268774" lon="13.542632468066074"><ele>738.4</ele><time>2026-04-27T11:06:04Z</time></trkpt><trkpt lat="42.0788396622826" lon="13.542540877310767"><ele>738.0</ele><time>2026-04-27T11:06:05Z</time></trkpt><trkpt lat="42.07877555920501" lon="13.542447417706633"><ele>738.0</ele><time>2026-04-27T11:06:06Z</time></trkpt><trkpt lat="42.07871467742732" lon="13.542360743860126"><ele>738.0</ele><time>2026-04-27T11:06:07Z</time></trkpt><trkpt lat="42.078652309663816" lon="13.542277571185439"><ele>738.0</ele><time>2026-04-27T11:06:07.999Z</time></trkpt><trkpt lat="42.0785901001876" lon="13.542194765643655"><ele>738.0</ele><time>2026-04-27T11:06:08.999Z</time></trkpt><trkpt lat="42.078542077761504" lon="13.542106106283654"><ele>738.0</ele><time>2026-04-27T11:06:09.999Z</time></trkpt><trkpt lat="42.0784838981899" lon="13.54204183417116"><ele>738.0</ele><time>2026-04-27T11:06:10.999Z</time></trkpt><trkpt lat="42.078423630152066" lon="13.542002611719997"><ele>738.4</ele><time>2026-04-27T11:06:11.999Z</time></trkpt><trkpt lat="42.078379368425" lon="13.541935606908844"><ele>738.8</ele><time>2026-04-27T11:06:12.999Z</time></trkpt><trkpt lat="42.07832952479224" lon="13.54176137476017"><ele>739.2</ele><time>2026-04-27T11:06:14.999Z</time></trkpt><trkpt lat="42.07838150186359" lon="13.541625144766913"><ele>739.6</ele><time>2026-04-27T11:06:16.999Z</time></trkpt><trkpt lat="42.078432459095254" lon="13.54156490456047"><ele>740.0</ele><time>2026-04-27T11:06:17.999Z</time></trkpt><trkpt lat="42.07841620599473" lon="13.541434122680577"><ele>740.0</ele><time>2026-04-27T11:06:19.999Z</time></trkpt><trkpt lat="42.07837000212982" lon="13.541336323870883"><ele>740.0</ele><time>2026-04-27T11:06:20.999Z</time></trkpt><trkpt lat="42.07832543288086" lon="13.541229901481183"><ele>740.0</ele><time>2026-04-27T11:06:22.999Z</time></trkpt><trkpt lat="42.07840574402376" lon="13.541142636680364"><ele>740.0</ele><time>2026-04-27T11:06:24.999Z</time></trkpt><trkpt lat="42.0784068007902" lon="13.541040072273782"><ele>740.0</ele><time>2026-04-27T11:06:26.999Z</time></trkpt><trkpt lat="42.07836027294147" lon="13.54097041768762"><ele>740.0</ele><time>2026-04-27T11:06:27.999Z</time></trkpt><trkpt lat="42.07831779934534" lon="13.540906390947546"><ele>740.4</ele><time>2026-04-27T11:06:28.999Z</time></trkpt><trkpt lat="42.07828188994717" lon="13.540832947617092"><ele>740.8</ele><time>2026-04-27T11:06:29.999Z</time></trkpt><trkpt lat="42.07821672924484" lon="13.540698444868962"><ele>741.2</ele><time>2026-04-27T11:06:31.999Z</time></trkpt><trkpt lat="42.07813214887827" lon="13.540539504350983"><ele>741.6</ele><time>2026-04-27T11:06:33.999Z</time></trkpt><trkpt lat="42.07807659771309" lon="13.540441383278706"><ele>742.0</ele><time>2026-04-27T11:06:34.999Z</time></trkpt><trkpt lat="42.078026804004246" lon="13.540345702043053"><ele>742.1666666666667</ele><time>2026-04-27T11:06:35.999Z</time></trkpt><trkpt lat="42.07798853927773" lon="13.540267004048653"><ele>742.3333333333334</ele><time>2026-04-27T11:06:36.999Z</time></trkpt><trkpt lat="42.078003131214444" lon="13.540129777833716"><ele>742.5</ele><time>2026-04-27T11:06:38.999Z</time></trkpt><trkpt lat="42.07808516201663" lon="13.540081325398921"><ele>742.6666666666666</ele><time>2026-04-27T11:06:39.999Z</time></trkpt><trkpt lat="42.07814387004717" lon="13.540033858305655"><ele>742.8333333333333</ele><time>2026-04-27T11:06:40.999Z</time></trkpt><trkpt lat="42.07823483909887" lon="13.539984286370471"><ele>743.0</ele><time>2026-04-27T11:06:42.999Z</time></trkpt><trkpt lat="42.078301976889556" lon="13.53991779193308"><ele>743.0</ele><time>2026-04-27T11:06:44.999Z</time></trkpt><trkpt lat="42.07836343262964" lon="13.539995513138178"><ele>743.0</ele><time>2026-04-27T11:06:47.999Z</time></trkpt><trkpt lat="42.078451156302755" lon="13.540031704210667"><ele>743.0</ele><time>2026-04-27T11:06:49.999Z</time></trkpt><trkpt lat="42.07852014031402" lon="13.540007903703597"><ele>743.0</ele><time>2026-04-27T11:06:50.999Z</time></trkpt><trkpt lat="42.078591796170684" lon="13.540012658760153"><ele>743.0</ele><time>2026-04-27T11:06:51.999Z</time></trkpt><trkpt lat="42.07866249028362" lon="13.540011942887984"><ele>743.0</ele><time>2026-04-27T11:06:52.999Z</time></trkpt><trkpt lat="42.07873344140809" lon="13.540007551646006"><ele>743.0</ele><time>2026-04-27T11:06:53.999Z</time></trkpt><trkpt lat="42.07881513266313" lon="13.540006372824601"><ele>743.0</ele><time>2026-04-27T11:06:54.999Z</time></trkpt><trkpt lat="42.07890367307757" lon="13.539994523002694"><ele>743.0</ele><time>2026-04-27T11:06:55.999Z</time></trkpt><trkpt lat="42.07898016714159" lon="13.539992896714782"><ele>743.0</ele><time>2026-04-27T11:06:56.999Z</time></trkpt><trkpt lat="42.0790464249543" lon="13.539994183313926"><ele>743.0</ele><time>2026-04-27T11:06:57.999Z</time></trkpt><trkpt lat="42.07912451588256" lon="13.540043291765686"><ele>743.0</ele><time>2026-04-27T11:07:00.999Z</time></trkpt><trkpt lat="42.079144539411764" lon="13.54013041287166"><ele>743.4</ele><time>2026-04-27T11:07:02.999Z</time></trkpt><trkpt lat="42.0791723544213" lon="13.540278909583229"><ele>743.8</ele><time>2026-04-27T11:07:04.999Z</time></trkpt><trkpt lat="42.079242696379346" lon="13.54038146479315"><ele>744.2</ele><time>2026-04-27T11:07:06.999Z</time></trkpt><trkpt lat="42.079369463327104" lon="13.540362767692109"><ele>744.6</ele><time>2026-04-27T11:07:08.999Z</time></trkpt><trkpt lat="42.07945799824185" lon="13.540329087997366"><ele>745.0</ele><time>2026-04-27T11:07:09.999Z</time></trkpt><trkpt lat="42.07952721115956" lon="13.540302882079665"><ele>744.6</ele><time>2026-04-27T11:07:10.999Z</time></trkpt><trkpt lat="42.07959655023211" lon="13.540399493085781"><ele>744.2</ele><time>2026-04-27T11:07:16.999Z</time></trkpt><trkpt lat="42.07961199077609" lon="13.540503461631172"><ele>743.8</ele><time>2026-04-27T11:07:17.999Z</time></trkpt><trkpt lat="42.07963390844271" lon="13.54061965255384"><ele>743.4</ele><time>2026-04-27T11:07:18.998Z</time></trkpt><trkpt lat="42.07967223103029" lon="13.540749751065675"><ele>743.0</ele><time>2026-04-27T11:07:19.998Z</time></trkpt><trkpt lat="42.07973747162203" lon="13.540863584095408"><ele>743.0</ele><time>2026-04-27T11:07:20.998Z</time></trkpt><trkpt lat="42.07983049176368" lon="13.54095711407939"><ele>743.0</ele><time>2026-04-27T11:07:21.998Z</time></trkpt><trkpt lat="42.07994673707717" lon="13.54102315735746"><ele>743.0</ele><time>2026-04-27T11:07:22.998Z</time></trkpt><trkpt lat="42.08007403381616" lon="13.541063787095972"><ele>743.0</ele><time>2026-04-27T11:07:23.998Z</time></trkpt><trkpt lat="42.080200916663806" lon="13.541080673427754"><ele>743.2</ele><time>2026-04-27T11:07:24.998Z</time></trkpt><trkpt lat="42.08032131607954" lon="13.541079450074342"><ele>743.4</ele><time>2026-04-27T11:07:25.998Z</time></trkpt><trkpt lat="42.08042460070709" lon="13.541069957228233"><ele>743.6</ele><time>2026-04-27T11:07:26.998Z</time></trkpt><trkpt lat="42.080525240084" lon="13.541057271000971"><ele>743.8000000000001</ele><time>2026-04-27T11:07:27.998Z</time></trkpt><trkpt lat="42.0806340115109" lon="13.541053540443707"><ele>744.0</ele><time>2026-04-27T11:07:28.998Z</time></trkpt><trkpt lat="42.08074859579877" lon="13.541052143275179"><ele>744.2</ele><time>2026-04-27T11:07:29.998Z</time></trkpt><trkpt lat="42.080863256340656" lon="13.541051844465494"><ele>744.4000000000001</ele><time>2026-04-27T11:07:30.998Z</time></trkpt><trkpt lat="42.080978758334474" lon="13.541053311615771"><ele>744.6</ele><time>2026-04-27T11:07:31.998Z</time></trkpt><trkpt lat="42.081086126426314" lon="13.54105544717173"><ele>744.8</ele><time>2026-04-27T11:07:32.998Z</time></trkpt><trkpt lat="42.081188517995386" lon="13.541057688827532"><ele>745.0</ele><time>2026-04-27T11:07:33.998Z</time></trkpt><trkpt lat="42.08128489412847" lon="13.541063664505923"><ele>745.0</ele><time>2026-04-27T11:07:34.998Z</time></trkpt><trkpt lat="42.08136324636254" lon="13.541076785181001"><ele>745.0</ele><time>2026-04-27T11:07:35.998Z</time></trkpt><trkpt lat="42.08143480958734" lon="13.541090879870803"><ele>745.0</ele><time>2026-04-27T11:07:36.998Z</time></trkpt><trkpt lat="42.08150113733279" lon="13.541098339046107"><ele>745.0</ele><time>2026-04-27T11:07:37.998Z</time></trkpt><trkpt lat="42.081612092797705" lon="13.541131948564248"><ele>745.0</ele><time>2026-04-27T11:07:39.998Z</time></trkpt><trkpt lat="42.0816741783436" lon="13.541152207512694"><ele>745.0</ele><time>2026-04-27T11:07:40.998Z</time></trkpt><trkpt lat="42.08174323068478" lon="13.541174304210374"><ele>745.1666666666667</ele><time>2026-04-27T11:07:41.998Z</time></trkpt><trkpt lat="42.081815456960776" lon="13.541214222704673"><ele>745.3333333333334</ele><time>2026-04-27T11:07:42.998Z</time></trkpt><trkpt lat="42.081883647070946" lon="13.541270645542394"><ele>745.5</ele><time>2026-04-27T11:07:43.998Z</time></trkpt><trkpt lat="42.08194377811495" lon="13.54134367708042"><ele>745.6666666666666</ele><time>2026-04-27T11:07:44.998Z</time></trkpt><trkpt lat="42.08201726961386" lon="13.541452853240559"><ele>745.8333333333333</ele><time>2026-04-27T11:07:46.998Z</time></trkpt><trkpt lat="42.08205915372861" lon="13.541518435249742"><ele>746.0</ele><time>2026-04-27T11:07:49Z</time></trkpt><trkpt lat="42.08210227448969" lon="13.541596249103584"><ele>746.0</ele><time>2026-04-27T11:07:51Z</time></trkpt><trkpt lat="42.082143317621906" lon="13.541662339304924"><ele>746.0</ele><time>2026-04-27T11:07:56Z</time></trkpt><trkpt lat="42.082227400052254" lon="13.541636353317251"><ele>746.0</ele><time>2026-04-27T11:07:58Z</time></trkpt><trkpt lat="42.0822000800997" lon="13.541542924314735"><ele>746.0</ele><time>2026-04-27T11:08:02Z</time></trkpt><trkpt lat="42.08214271389498" lon="13.541506043653115"><ele>746.0</ele><time>2026-04-27T11:13:08Z</time></trkpt><trkpt lat="42.08209662759345" lon="13.54157501292408"><ele>746.0</ele><time>2026-04-27T11:13:10Z</time></trkpt><trkpt lat="42.082115448162696" lon="13.541676506464437"><ele>746.0</ele><time>2026-04-27T11:13:11Z</time></trkpt><trkpt lat="42.0821599931293" lon="13.541750156617583"><ele>746.0</ele><time>2026-04-27T11:13:12Z</time></trkpt><trkpt lat="42.082209810094724" lon="13.541830670428057"><ele>746.0</ele><time>2026-04-27T11:13:13Z</time></trkpt><trkpt lat="42.082263494576914" lon="13.54193773691297"><ele>746.0</ele><time>2026-04-27T11:13:14Z</time></trkpt><trkpt lat="42.082309798296684" lon="13.542055340363778"><ele>746.0</ele><time>2026-04-27T11:13:15Z</time></trkpt><trkpt lat="42.08235490288754" lon="13.542169735238742"><ele>746.0</ele><time>2026-04-27T11:13:16Z</time></trkpt><trkpt lat="42.08240111445044" lon="13.542284545709585"><ele>747.4</ele><time>2026-04-27T11:13:17Z</time></trkpt><trkpt lat="42.082450635625094" lon="13.542394370177876"><ele>748.8</ele><time>2026-04-27T11:13:18Z</time></trkpt><trkpt lat="42.082494780756434" lon="13.542491514463192"><ele>750.1999999999999</ele><time>2026-04-27T11:13:19Z</time></trkpt><trkpt lat="42.08253657705815" lon="13.542607050109833"><ele>751.5999999999999</ele><time>2026-04-27T11:13:21Z</time></trkpt><trkpt lat="42.082556890026986" lon="13.542711018321565"><ele>753.0</ele><time>2026-04-27T11:13:23.999Z</time></trkpt><trkpt lat="42.08267985614363" lon="13.54266359701772"><ele>753.0</ele><time>2026-04-27T11:13:24.999Z</time></trkpt><trkpt lat="42.08275427326301" lon="13.542612894496196"><ele>753.0</ele><time>2026-04-27T11:13:26.999Z</time></trkpt><trkpt lat="42.082815759967716" lon="13.542564458745488"><ele>753.0</ele><time>2026-04-27T11:13:29.999Z</time></trkpt><trkpt lat="42.08278037044153" lon="13.542476926715896"><ele>753.0</ele><time>2026-04-27T11:13:57.999Z</time></trkpt><trkpt lat="42.082698140542725" lon="13.542538684111147"><ele>753.0</ele><time>2026-04-27T11:13:59.999Z</time></trkpt><trkpt lat="42.082650008743684" lon="13.542607322383079"><ele>753.0</ele><time>2026-04-27T11:14:00.999Z</time></trkpt><trkpt lat="42.082574654368756" lon="13.542623795746154"><ele>753.0</ele><time>2026-04-27T11:14:03.999Z</time></trkpt><trkpt lat="42.082510718930735" lon="13.542656042335771"><ele>753.0</ele><time>2026-04-27T11:14:06Z</time></trkpt><trkpt lat="42.08248416244896" lon="13.542745234324748"><ele>753.0</ele><time>2026-04-27T11:14:19Z</time></trkpt><trkpt lat="42.082428103863585" lon="13.542799181093446"><ele>753.0</ele><time>2026-04-27T11:14:22Z</time></trkpt><trkpt lat="42.08239703316528" lon="13.542912697285882"><ele>753.0</ele><time>2026-04-27T11:15:27Z</time></trkpt><trkpt lat="42.08241319899705" lon="13.543005089138738"><ele>753.0</ele><time>2026-04-27T11:15:29Z</time></trkpt><trkpt lat="42.08238428246141" lon="13.54290012516699"><ele>753.0</ele><time>2026-04-27T11:15:31.999Z</time></trkpt><trkpt lat="42.08241957494441" lon="13.542825595585434"><ele>753.0</ele><time>2026-04-27T11:15:32.999Z</time></trkpt><trkpt lat="42.08247737726981" lon="13.542732448716375"><ele>753.0</ele><time>2026-04-27T11:15:34.999Z</time></trkpt><trkpt lat="42.082550697229784" lon="13.542680937642526"><ele>753.0</ele><time>2026-04-27T11:15:36.999Z</time></trkpt><trkpt lat="42.082562032582295" lon="13.542541777732234"><ele>753.0</ele><time>2026-04-27T11:15:38.999Z</time></trkpt><trkpt lat="42.08251395874123" lon="13.542459753939132"><ele>753.0</ele><time>2026-04-27T11:15:39.999Z</time></trkpt><trkpt lat="42.0824467312375" lon="13.542336341078522"><ele>752.0</ele><time>2026-04-27T11:15:41.999Z</time></trkpt><trkpt lat="42.08241678125637" lon="13.54225951487978"><ele>751.0</ele><time>2026-04-27T11:15:42.999Z</time></trkpt><trkpt lat="42.08238812225208" lon="13.54217582378239"><ele>750.0</ele><time>2026-04-27T11:15:43.999Z</time></trkpt><trkpt lat="42.08235647443429" lon="13.542083216201881"><ele>749.0</ele><time>2026-04-27T11:15:44.999Z</time></trkpt><trkpt lat="42.08231998117069" lon="13.541986594117693"><ele>748.0</ele><time>2026-04-27T11:15:45.999Z</time></trkpt><trkpt lat="42.08227538659079" lon="13.541889884723256"><ele>747.0</ele><time>2026-04-27T11:15:46.999Z</time></trkpt><trkpt lat="42.08222467565644" lon="13.54178505010421"><ele>746.8333333333334</ele><time>2026-04-27T11:15:47.999Z</time></trkpt><trkpt lat="42.08217672257707" lon="13.54168493991038"><ele>746.6666666666666</ele><time>2026-04-27T11:15:48.999Z</time></trkpt><trkpt lat="42.08213706754893" lon="13.541606213364055"><ele>746.5</ele><time>2026-04-27T11:15:49.999Z</time></trkpt><trkpt lat="42.082109066186305" lon="13.541507783164112"><ele>746.3333333333333</ele><time>2026-04-27T11:15:51.999Z</time></trkpt><trkpt lat="42.08217260714018" lon="13.541449871138363"><ele>746.1666666666666</ele><time>2026-04-27T11:16:28Z</time></trkpt><trkpt lat="42.08223482464588" lon="13.541395828998205"><ele>746.0</ele><time>2026-04-27T11:16:30Z</time></trkpt><trkpt lat="42.082313647387025" lon="13.541426925697102"><ele>746.0</ele><time>2026-04-27T11:16:45Z</time></trkpt><trkpt lat="42.082248891558855" lon="13.541419456843089"><ele>746.0</ele><time>2026-04-27T11:17:54.999Z</time></trkpt><trkpt lat="42.082176071616594" lon="13.54143537282678"><ele>746.0</ele><time>2026-04-27T11:17:58.999Z</time></trkpt><trkpt lat="42.08211152864599" lon="13.541439237548317"><ele>746.0</ele><time>2026-04-27T11:18:02.999Z</time></trkpt><trkpt lat="42.082061097935444" lon="13.54138535094602"><ele>746.0</ele><time>2026-04-27T11:18:06.999Z</time></trkpt><trkpt lat="42.0820389069093" lon="13.54129511694512"><ele>746.0</ele><time>2026-04-27T11:18:12.999Z</time></trkpt><trkpt lat="42.082047085463465" lon="13.541193658293606"><ele>746.0</ele><time>2026-04-27T11:18:23Z</time></trkpt><trkpt lat="42.08205372478677" lon="13.54110840534587"><ele>746.0</ele><time>2026-04-27T11:18:28Z</time></trkpt><trkpt lat="42.082024688799336" lon="13.54102371229856"><ele>746.0</ele><time>2026-04-27T11:18:33Z</time></trkpt><trkpt lat="42.082033904648746" lon="13.540923992381053"><ele>746.0</ele><time>2026-04-27T11:18:44Z</time></trkpt><trkpt lat="42.08208452483746" lon="13.540850782224924"><ele>746.0</ele><time>2026-04-27T11:18:50Z</time></trkpt><trkpt lat="42.08201246860899" lon="13.540759218088997"><ele>746.0</ele><time>2026-04-27T11:18:52Z</time></trkpt><trkpt lat="42.081958763790404" lon="13.540667382471936"><ele>746.0</ele><time>2026-04-27T11:19:54.999Z</time></trkpt><trkpt lat="42.08186603685619" lon="13.540788686851778"><ele>746.0</ele><time>2026-04-27T11:20:09.999Z</time></trkpt><trkpt lat="42.08194064308633" lon="13.540790243176954"><ele>746.0</ele><time>2026-04-27T11:20:58Z</time></trkpt><trkpt lat="42.08198632926038" lon="13.540856943743709"><ele>746.0</ele><time>2026-04-27T11:21:03Z</time></trkpt><trkpt lat="42.0820549524023" lon="13.54092237062233"><ele>746.0</ele><time>2026-04-27T11:21:06Z</time></trkpt><trkpt lat="42.082109982988165" lon="13.540979428790497"><ele>746.0</ele><time>2026-04-27T11:21:09Z</time></trkpt><trkpt lat="42.08206409360588" lon="13.540793711760825"><ele>746.0</ele><time>2026-04-27T11:21:19Z</time></trkpt><trkpt lat="42.08195455164972" lon="13.540744962554362"><ele>746.0</ele><time>2026-04-27T11:21:21Z</time></trkpt><trkpt lat="42.081927470642626" lon="13.540825213159863"><ele>746.0</ele><time>2026-04-27T11:21:38.999Z</time></trkpt><trkpt lat="42.08187889203635" lon="13.540879872255259"><ele>746.0</ele><time>2026-04-27T11:22:25.999Z</time></trkpt><trkpt lat="42.081941721683066" lon="13.540922151418666"><ele>746.0</ele><time>2026-04-27T11:23:32.999Z</time></trkpt><trkpt lat="42.08200096930993" lon="13.54089271219538"><ele>746.0</ele><time>2026-04-27T11:24:48.014Z</time></trkpt><trkpt lat="42.08210199734135" lon="13.54085729174733"><ele>746.0</ele><time>2026-04-27T11:25:40.011Z</time></trkpt><trkpt lat="42.082174679122375" lon="13.540868939770922"><ele>746.0</ele><time>2026-04-27T11:25:47.012Z</time></trkpt><trkpt lat="42.082226992716905" lon="13.540946776850898"><ele>746.0</ele><time>2026-04-27T11:25:52.011Z</time></trkpt><trkpt lat="42.082257650078176" lon="13.541033412850506"><ele>746.0</ele><time>2026-04-27T11:25:56.012Z</time></trkpt><trkpt lat="42.082217363538355" lon="13.54116923055587"><ele>746.0</ele><time>2026-04-27T11:26:08.012Z</time></trkpt><trkpt lat="42.08222604164226" lon="13.54126557056869"><ele>746.0</ele><time>2026-04-27T11:26:27.013Z</time></trkpt><trkpt lat="42.082169731727554" lon="13.541184525688715"><ele>746.0</ele><time>2026-04-27T11:26:40.997Z</time></trkpt><trkpt lat="42.08204303205808" lon="13.54129184586013"><ele>746.0</ele><time>2026-04-27T11:26:44.997Z</time></trkpt><trkpt lat="42.08205815853323" lon="13.541383457023212"><ele>746.0</ele><time>2026-04-27T11:26:53.999Z</time></trkpt><trkpt lat="42.082114241214775" lon="13.541439538280004"><ele>746.0</ele><time>2026-04-27T11:27:01Z</time></trkpt><trkpt lat="42.08217583004309" lon="13.541414785195792"><ele>746.0</ele><time>2026-04-27T11:27:06Z</time></trkpt><trkpt lat="42.08224492490745" lon="13.541398197497543"><ele>746.0</ele><time>2026-04-27T11:27:16Z</time></trkpt><trkpt lat="42.082340904506175" lon="13.541480091810739"><ele>746.0</ele><time>2026-04-27T11:27:56.999Z</time></trkpt></trkseg><trkseg><trkpt lat="42.08236925574564" lon="13.541424465984347"><ele>746.0</ele><time>2026-04-27T11:56:29.999Z</time></trkpt><trkpt lat="42.08237740141764" lon="13.541303668926792"><ele>746.0</ele><time>2026-04-27T11:56:31.999Z</time></trkpt><trkpt lat="42.082295341251104" lon="13.541272279862497"><ele>746.0</ele><time>2026-04-27T11:56:33.999Z</time></trkpt><trkpt lat="42.082237230511296" lon="13.54131160627671"><ele>746.0</ele><time>2026-04-27T11:56:35.999Z</time></trkpt><trkpt lat="42.08218713994805" lon="13.541383424390652"><ele>746.0</ele><time>2026-04-27T11:56:38.999Z</time></trkpt><trkpt lat="42.08212496222614" lon="13.541434407783052"><ele>746.0</ele><time>2026-04-27T11:56:42.999Z</time></trkpt><trkpt lat="42.08209729642863" lon="13.541513828615063"><ele>746.0</ele><time>2026-04-27T11:56:48Z</time></trkpt><trkpt lat="42.08210026093741" lon="13.541674525355848"><ele>746.0</ele><time>2026-04-27T11:56:57Z</time></trkpt><trkpt lat="42.08214495253106" lon="13.541738045264248"><ele>746.0</ele><time>2026-04-27T11:56:58Z</time></trkpt><trkpt lat="42.082207291815756" lon="13.541820836160932"><ele>746.0</ele><time>2026-04-27T11:56:59Z</time></trkpt><trkpt lat="42.08226345916797" lon="13.541924160628696"><ele>746.0</ele><time>2026-04-27T11:57:00Z</time></trkpt><trkpt lat="42.08231221118214" lon="13.54203353098273"><ele>746.1666666666666</ele><time>2026-04-27T11:57:01Z</time></trkpt><trkpt lat="42.082348171581096" lon="13.542148848178636"><ele>746.3333333333333</ele><time>2026-04-27T11:57:02Z</time></trkpt><trkpt lat="42.08239301555382" lon="13.542263089461063"><ele>746.5</ele><time>2026-04-27T11:57:03Z</time></trkpt><trkpt lat="42.08244217928392" lon="13.5423730101549"><ele>746.6666666666666</ele><time>2026-04-27T11:57:04Z</time></trkpt><trkpt lat="42.082491844815785" lon="13.542475580224954"><ele>746.8333333333334</ele><time>2026-04-27T11:57:05Z</time></trkpt><trkpt lat="42.08252573677587" lon="13.542547383142775"><ele>747.0</ele><time>2026-04-27T11:57:06Z</time></trkpt><trkpt lat="42.082519357396485" lon="13.542640541748698"><ele>747.0</ele><time>2026-04-27T11:57:15Z</time></trkpt><trkpt lat="42.082438379634596" lon="13.542725583994693"><ele>747.0</ele><time>2026-04-27T11:57:17Z</time></trkpt><trkpt lat="42.08236457064441" lon="13.5428322181948"><ele>747.0</ele><time>2026-04-27T11:57:19Z</time></trkpt><trkpt lat="42.08233342175523" lon="13.542948499863638"><ele>747.0</ele><time>2026-04-27T11:57:21Z</time></trkpt><trkpt lat="42.08229393865936" lon="13.543106080160193"><ele>747.0</ele><time>2026-04-27T11:57:23Z</time></trkpt><trkpt lat="42.082319244751936" lon="13.543245676366219"><ele>747.6666666666666</ele><time>2026-04-27T11:57:25Z</time></trkpt><trkpt lat="42.082381850266145" lon="13.543316018793352"><ele>748.3333333333334</ele><time>2026-04-27T11:57:27Z</time></trkpt><trkpt lat="42.08246555503988" lon="13.54324134947373"><ele>749.0</ele><time>2026-04-27T11:57:29Z</time></trkpt><trkpt lat="42.08249848412315" lon="13.54314109187949"><ele>749.6666666666667</ele><time>2026-04-27T11:57:30Z</time></trkpt><trkpt lat="42.08253983232425" lon="13.54306366474846"><ele>750.3333333333334</ele><time>2026-04-27T11:57:30.999Z</time></trkpt><trkpt lat="42.08259381185228" lon="13.543003999353223"><ele>751.0</ele><time>2026-04-27T11:57:31.999Z</time></trkpt><trkpt lat="42.08265484942392" lon="13.542968222134567"><ele>752.6666666666667</ele><time>2026-04-27T11:57:32.999Z</time></trkpt><trkpt lat="42.08272165373917" lon="13.542950328856621"><ele>754.3333333333334</ele><time>2026-04-27T11:57:33.999Z</time></trkpt><trkpt lat="42.08279745364015" lon="13.542960415559142"><ele>756.0</ele><time>2026-04-27T11:57:34.999Z</time></trkpt><trkpt lat="42.08288322623683" lon="13.543011207647275"><ele>757.6666666666666</ele><time>2026-04-27T11:57:35.999Z</time></trkpt><trkpt lat="42.08297123565146" lon="13.543044395169527"><ele>759.3333333333333</ele><time>2026-04-27T11:57:36.999Z</time></trkpt><trkpt lat="42.08308518280655" lon="13.543045563630589"><ele>761.0</ele><time>2026-04-27T11:57:37.999Z</time></trkpt><trkpt lat="42.08318824456689" lon="13.543055705351959"><ele>765.0</ele><time>2026-04-27T11:57:38.999Z</time></trkpt><trkpt lat="42.08329721928974" lon="13.543063399872768"><ele>769.0</ele><time>2026-04-27T11:57:39.999Z</time></trkpt><trkpt lat="42.08341245354841" lon="13.543070474533383"><ele>773.0</ele><time>2026-04-27T11:57:40.999Z</time></trkpt><trkpt lat="42.08353432610059" lon="13.543075301388653"><ele>777.0</ele><time>2026-04-27T11:57:41.999Z</time></trkpt><trkpt lat="42.083658019751084" lon="13.543067699247626"><ele>777.0</ele><time>2026-04-27T11:57:42.999Z</time></trkpt><trkpt lat="42.08378419831526" lon="13.543085666756268"><ele>777.0</ele><time>2026-04-27T11:57:43.999Z</time></trkpt><trkpt lat="42.08391034689322" lon="13.543050353780956"><ele>777.0</ele><time>2026-04-27T11:57:44.999Z</time></trkpt><trkpt lat="42.08402926357723" lon="13.5429781533727"><ele>777.0</ele><time>2026-04-27T11:57:45.999Z</time></trkpt><trkpt lat="42.08414954805037" lon="13.542928165618758"><ele>779.25</ele><time>2026-04-27T11:57:46.999Z</time></trkpt><trkpt lat="42.08427756387721" lon="13.542930008489892"><ele>781.5</ele><time>2026-04-27T11:57:47.999Z</time></trkpt><trkpt lat="42.08439974808438" lon="13.542938769733857"><ele>783.75</ele><time>2026-04-27T11:57:48.999Z</time></trkpt><trkpt lat="42.084529047857394" lon="13.542953277320647"><ele>786.0</ele><time>2026-04-27T11:57:49.999Z</time></trkpt><trkpt lat="42.084653475634234" lon="13.542966583919513"><ele>786.0</ele><time>2026-04-27T11:57:50.999Z</time></trkpt><trkpt lat="42.08477946897771" lon="13.542968173016318"><ele>786.0</ele><time>2026-04-27T11:57:51.999Z</time></trkpt><trkpt lat="42.08490340957785" lon="13.5429933124744"><ele>786.0</ele><time>2026-04-27T11:57:52.999Z</time></trkpt><trkpt lat="42.085025458435034" lon="13.543007778414255"><ele>786.0</ele><time>2026-04-27T11:57:53.999Z</time></trkpt><trkpt lat="42.08514105322629" lon="13.543029513861356"><ele>788.25</ele><time>2026-04-27T11:57:54.999Z</time></trkpt><trkpt lat="42.08525917723081" lon="13.543017667406382"><ele>790.5</ele><time>2026-04-27T11:57:55.999Z</time></trkpt><trkpt lat="42.0853681356741" lon="13.543077775338823"><ele>792.75</ele><time>2026-04-27T11:57:56.999Z</time></trkpt><trkpt lat="42.08548104960881" lon="13.543143636040984"><ele>795.0</ele><time>2026-04-27T11:57:57.999Z</time></trkpt><trkpt lat="42.08560131009883" lon="13.543211722916631"><ele>795.0</ele><time>2026-04-27T11:57:58.999Z</time></trkpt><trkpt lat="42.08572796754452" lon="13.543284624859158"><ele>795.0</ele><time>2026-04-27T11:57:59.999Z</time></trkpt><trkpt lat="42.08585299004622" lon="13.54335169501727"><ele>795.0</ele><time>2026-04-27T11:58:00.999Z</time></trkpt><trkpt lat="42.08597710565664" lon="13.54341313791208"><ele>795.0</ele><time>2026-04-27T11:58:01.999Z</time></trkpt><trkpt lat="42.08610943651576" lon="13.543466224433374"><ele>794.75</ele><time>2026-04-27T11:58:02.999Z</time></trkpt><trkpt lat="42.086236796885714" lon="13.543521835055891"><ele>794.5</ele><time>2026-04-27T11:58:03.999Z</time></trkpt><trkpt lat="42.08636787885287" lon="13.543550490180813"><ele>794.25</ele><time>2026-04-27T11:58:04.999Z</time></trkpt><trkpt lat="42.086496197729794" lon="13.54357756622834"><ele>794.0</ele><time>2026-04-27T11:58:05.999Z</time></trkpt><trkpt lat="42.086616777682686" lon="13.543593573740484"><ele>793.5</ele><time>2026-04-27T11:58:06.999Z</time></trkpt><trkpt lat="42.08674020380254" lon="13.543570639966852"><ele>793.0</ele><time>2026-04-27T11:58:07.999Z</time></trkpt><trkpt lat="42.0868598659758" lon="13.543587661366587"><ele>792.5</ele><time>2026-04-27T11:58:08.999Z</time></trkpt><trkpt lat="42.08698363299709" lon="13.543564538647455"><ele>792.0</ele><time>2026-04-27T11:58:09.999Z</time></trkpt><trkpt lat="42.08708618959564" lon="13.543486172565961"><ele>792.0</ele><time>2026-04-27T11:58:10.999Z</time></trkpt><trkpt lat="42.08718645792194" lon="13.543386745253608"><ele>792.0</ele><time>2026-04-27T11:58:11.999Z</time></trkpt><trkpt lat="42.08728000268843" lon="13.54326796975213"><ele>792.0</ele><time>2026-04-27T11:58:12.999Z</time></trkpt><trkpt lat="42.087356623272576" lon="13.54317041859388"><ele>792.0</ele><time>2026-04-27T11:58:13.999Z</time></trkpt><trkpt lat="42.08741945333057" lon="13.543080906616467"><ele>792.0</ele><time>2026-04-27T11:58:14.999Z</time></trkpt><trkpt lat="42.08748177174988" lon="13.542937506160461"><ele>792.0</ele><time>2026-04-27T11:58:16.999Z</time></trkpt><trkpt lat="42.087525532735725" lon="13.5428677534348"><ele>792.0</ele><time>2026-04-27T11:58:17.999Z</time></trkpt><trkpt lat="42.08756255589499" lon="13.542788047309335"><ele>792.0</ele><time>2026-04-27T11:58:18.999Z</time></trkpt><trkpt lat="42.08759671543142" lon="13.542711201072871"><ele>792.0</ele><time>2026-04-27T11:58:19.999Z</time></trkpt><trkpt lat="42.08765801009604" lon="13.542685619368934"><ele>792.0</ele><time>2026-04-27T11:58:37.999Z</time></trkpt><trkpt lat="42.0877097066299" lon="13.54263095031154"><ele>792.0</ele><time>2026-04-27T11:58:42.998Z</time></trkpt><trkpt lat="42.08774721879981" lon="13.542550821523585"><ele>792.0</ele><time>2026-04-27T11:58:43.998Z</time></trkpt><trkpt lat="42.087784081787085" lon="13.54245523001505"><ele>792.0</ele><time>2026-04-27T11:58:44.998Z</time></trkpt><trkpt lat="42.08782379371302" lon="13.542369177191052"><ele>792.0</ele><time>2026-04-27T11:58:45.998Z</time></trkpt><trkpt lat="42.08787114813766" lon="13.542298345829495"><ele>792.0</ele><time>2026-04-27T11:58:46.998Z</time></trkpt><trkpt lat="42.087928134832964" lon="13.542233681388632"><ele>792.0</ele><time>2026-04-27T11:58:47.998Z</time></trkpt><trkpt lat="42.08800836029686" lon="13.542161063540306"><ele>792.0</ele><time>2026-04-27T11:58:49Z</time></trkpt><trkpt lat="42.088102391323716" lon="13.542092188248068"><ele>792.0</ele><time>2026-04-27T11:58:50Z</time></trkpt><trkpt lat="42.08820404157876" lon="13.542034474215615"><ele>792.0</ele><time>2026-04-27T11:58:51Z</time></trkpt><trkpt lat="42.08829725157664" lon="13.54198174961269"><ele>792.0</ele><time>2026-04-27T11:58:52Z</time></trkpt><trkpt lat="42.08838309292138" lon="13.541934269554044"><ele>792.0</ele><time>2026-04-27T11:58:53Z</time></trkpt><trkpt lat="42.08846616863423" lon="13.54187038243373"><ele>792.6666666666666</ele><time>2026-04-27T11:58:54Z</time></trkpt><trkpt lat="42.088548361346" lon="13.541813633078178"><ele>793.3333333333333</ele><time>2026-04-27T11:58:55Z</time></trkpt><trkpt lat="42.08863368824935" lon="13.541763934158594"><ele>794.0</ele><time>2026-04-27T11:58:56Z</time></trkpt><trkpt lat="42.08868397745848" lon="13.541671776683005"><ele>794.6666666666666</ele><time>2026-04-27T11:58:57Z</time></trkpt><trkpt lat="42.088721820804295" lon="13.541569015632293"><ele>795.3333333333333</ele><time>2026-04-27T11:58:58Z</time></trkpt><trkpt lat="42.08871779418877" lon="13.541446509503757"><ele>796.0</ele><time>2026-04-27T11:58:59Z</time></trkpt><trkpt lat="42.08870169255548" lon="13.54132560785717"><ele>795.8</ele><time>2026-04-27T11:59:00Z</time></trkpt><trkpt lat="42.088669633031024" lon="13.54120697119324"><ele>795.5999999999999</ele><time>2026-04-27T11:59:01Z</time></trkpt><trkpt lat="42.088628664183865" lon="13.54109177770837"><ele>795.4</ele><time>2026-04-27T11:59:02Z</time></trkpt><trkpt lat="42.08858176224795" lon="13.540982711079886"><ele>795.2</ele><time>2026-04-27T11:59:03Z</time></trkpt><trkpt lat="42.08851728288298" lon="13.54088355928822"><ele>795.0</ele><time>2026-04-27T11:59:04Z</time></trkpt><trkpt lat="42.08844831886884" lon="13.54078074417266"><ele>795.0</ele><time>2026-04-27T11:59:05Z</time></trkpt><trkpt lat="42.08838455085316" lon="13.54067871041485"><ele>795.0</ele><time>2026-04-27T11:59:06Z</time></trkpt><trkpt lat="42.08833824945761" lon="13.540565849628495"><ele>795.0</ele><time>2026-04-27T11:59:07Z</time></trkpt><trkpt lat="42.0883159634564" lon="13.540438780506436"><ele>795.0</ele><time>2026-04-27T11:59:08Z</time></trkpt><trkpt lat="42.088305064749605" lon="13.540292190595629"><ele>795.0</ele><time>2026-04-27T11:59:09Z</time></trkpt><trkpt lat="42.088306250578924" lon="13.540151664582075"><ele>794.8</ele><time>2026-04-27T11:59:10Z</time></trkpt><trkpt lat="42.08830788182841" lon="13.540005439557385"><ele>794.6</ele><time>2026-04-27T11:59:11Z</time></trkpt><trkpt lat="42.0883092728492" lon="13.539865011819817"><ele>794.4000000000001</ele><time>2026-04-27T11:59:12Z</time></trkpt><trkpt lat="42.08831562000626" lon="13.53972825909449"><ele>794.2</ele><time>2026-04-27T11:59:13Z</time></trkpt><trkpt lat="42.08832300815065" lon="13.539589615194686"><ele>794.0</ele><time>2026-04-27T11:59:14Z</time></trkpt><trkpt lat="42.088334348765805" lon="13.539456979182832"><ele>794.0000000000001</ele><time>2026-04-27T11:59:15Z</time></trkpt><trkpt lat="42.0883585025845" lon="13.539329655686766"><ele>794.0</ele><time>2026-04-27T11:59:16Z</time></trkpt><trkpt lat="42.088377495503664" lon="13.53920146969612"><ele>794.0</ele><time>2026-04-27T11:59:17Z</time></trkpt><trkpt lat="42.08838053300629" lon="13.539090261774822"><ele>794.0</ele><time>2026-04-27T11:59:18Z</time></trkpt><trkpt lat="42.08838211126531" lon="13.538986425322108"><ele>794.0000000000001</ele><time>2026-04-27T11:59:19Z</time></trkpt><trkpt lat="42.08837716124098" lon="13.53888501809739"><ele>794.0</ele><time>2026-04-27T11:59:20Z</time></trkpt><trkpt lat="42.08836092052956" lon="13.538795147701842"><ele>794.0000000000001</ele><time>2026-04-27T11:59:21Z</time></trkpt><trkpt lat="42.088348809102534" lon="13.538657076561643"><ele>794.0</ele><time>2026-04-27T11:59:23Z</time></trkpt><trkpt lat="42.08844336081889" lon="13.538602888794188"><ele>794.0</ele><time>2026-04-27T11:59:26Z</time></trkpt><trkpt lat="42.08850195796648" lon="13.538571729950776"><ele>794.0</ele><time>2026-04-27T11:59:27Z</time></trkpt><trkpt lat="42.088567020530746" lon="13.538538199737344"><ele>794.0000000000001</ele><time>2026-04-27T11:59:28Z</time></trkpt><trkpt lat="42.08864859925729" lon="13.538494371528342"><ele>794.0</ele><time>2026-04-27T11:59:29Z</time></trkpt><trkpt lat="42.088731333811786" lon="13.53844877030734"><ele>794.0</ele><time>2026-04-27T11:59:30Z</time></trkpt><trkpt lat="42.08882115389763" lon="13.538396559602923"><ele>794.0</ele><time>2026-04-27T11:59:31Z</time></trkpt><trkpt lat="42.08889519354504" lon="13.538321738629092"><ele>794.0</ele><time>2026-04-27T11:59:31.999Z</time></trkpt><trkpt lat="42.08897333162833" lon="13.538235471860299"><ele>794.0</ele><time>2026-04-27T11:59:32.999Z</time></trkpt><trkpt lat="42.089016085810044" lon="13.538101768861994"><ele>794.0</ele><time>2026-04-27T11:59:33.999Z</time></trkpt><trkpt lat="42.08906597582436" lon="13.537993387629559"><ele>795.8000000000001</ele><time>2026-04-27T11:59:34.999Z</time></trkpt><trkpt lat="42.08912010212596" lon="13.537886187100623"><ele>797.6</ele><time>2026-04-27T11:59:35.999Z</time></trkpt><trkpt lat="42.089184011794984" lon="13.537768859039447"><ele>799.4</ele><time>2026-04-27T11:59:36.999Z</time></trkpt><trkpt lat="42.08925035894926" lon="13.537645540591754"><ele>801.2</ele><time>2026-04-27T11:59:37.999Z</time></trkpt><trkpt lat="42.08933241366894" lon="13.537528431957925"><ele>803.0</ele><time>2026-04-27T11:59:38.999Z</time></trkpt><trkpt lat="42.08943497118176" lon="13.537432646371489"><ele>803.0</ele><time>2026-04-27T11:59:39.999Z</time></trkpt><trkpt lat="42.08953770637557" lon="13.537336889375279"><ele>803.0</ele><time>2026-04-27T11:59:40.999Z</time></trkpt><trkpt lat="42.08962955236706" lon="13.537226105379032"><ele>803.0</ele><time>2026-04-27T11:59:41.999Z</time></trkpt><trkpt lat="42.089732598455846" lon="13.537111327053706"><ele>803.0</ele><time>2026-04-27T11:59:42.999Z</time></trkpt><trkpt lat="42.08984226482472" lon="13.536991981521847"><ele>805.25</ele><time>2026-04-27T11:59:43.999Z</time></trkpt><trkpt lat="42.08994843672126" lon="13.536856096071439"><ele>807.5</ele><time>2026-04-27T11:59:44.999Z</time></trkpt><trkpt lat="42.09004100178943" lon="13.536739037640363"><ele>809.75</ele><time>2026-04-27T11:59:45.999Z</time></trkpt><trkpt lat="42.090118684400665" lon="13.536642355990965"><ele>812.0</ele><time>2026-04-27T11:59:46.999Z</time></trkpt><trkpt lat="42.09018366818809" lon="13.536560790192622"><ele>812.0</ele><time>2026-04-27T11:59:47.999Z</time></trkpt><trkpt lat="42.09023989148391" lon="13.536486228971969"><ele>812.0</ele><time>2026-04-27T11:59:48.999Z</time></trkpt><trkpt lat="42.09029985840602" lon="13.536422156476958"><ele>812.0</ele><time>2026-04-27T11:59:49.999Z</time></trkpt><trkpt lat="42.09038504460359" lon="13.536346816109651"><ele>812.0</ele><time>2026-04-27T11:59:51.999Z</time></trkpt><trkpt lat="42.09032173806694" lon="13.536151238268884"><ele>812.0</ele><time>2026-04-27T11:59:52.999Z</time></trkpt><trkpt lat="42.0902874393042" lon="13.536050130037548"><ele>811.2</ele><time>2026-04-27T11:59:53.999Z</time></trkpt><trkpt lat="42.09024921478412" lon="13.53591773525309"><ele>810.4000000000001</ele><time>2026-04-27T11:59:54.999Z</time></trkpt><trkpt lat="42.090229545757" lon="13.535765497388336"><ele>809.5999999999999</ele><time>2026-04-27T11:59:55.999Z</time></trkpt><trkpt lat="42.090209632132066" lon="13.535623866547606"><ele>808.8</ele><time>2026-04-27T11:59:56.999Z</time></trkpt><trkpt lat="42.09019815405378" lon="13.535489823239743"><ele>808.0</ele><time>2026-04-27T11:59:57.999Z</time></trkpt><trkpt lat="42.09020900360681" lon="13.535346034484016"><ele>808.0</ele><time>2026-04-27T11:59:58.999Z</time></trkpt><trkpt lat="42.09022716080062" lon="13.535212364312704"><ele>808.0</ele><time>2026-04-27T11:59:59.999Z</time></trkpt><trkpt lat="42.090249766531834" lon="13.535098301320936"><ele>808.0</ele><time>2026-04-27T12:00:00.999Z</time></trkpt><trkpt lat="42.09026253227912" lon="13.534990380255062"><ele>808.0</ele><time>2026-04-27T12:00:01.999Z</time></trkpt><trkpt lat="42.09028009817284" lon="13.53486295579432"><ele>808.0</ele><time>2026-04-27T12:00:02.999Z</time></trkpt><trkpt lat="42.09028865490892" lon="13.534719164585493"><ele>808.0</ele><time>2026-04-27T12:00:03.999Z</time></trkpt><trkpt lat="42.09030397661585" lon="13.534596168973245"><ele>808.0</ele><time>2026-04-27T12:00:04.999Z</time></trkpt><trkpt lat="42.0903360250468" lon="13.534490657660923"><ele>808.0</ele><time>2026-04-27T12:00:05.999Z</time></trkpt><trkpt lat="42.09039602296433" lon="13.534383735929964"><ele>808.0</ele><time>2026-04-27T12:00:06.999Z</time></trkpt><trkpt lat="42.090469680053744" lon="13.534267404579452"><ele>808.0</ele><time>2026-04-27T12:00:07.999Z</time></trkpt><trkpt lat="42.090555821507834" lon="13.534151353532613"><ele>808.0</ele><time>2026-04-27T12:00:08.999Z</time></trkpt><trkpt lat="42.09063907550261" lon="13.53402705308603"><ele>808.0</ele><time>2026-04-27T12:00:09.999Z</time></trkpt><trkpt lat="42.090721744318465" lon="13.533881908744098"><ele>808.0</ele><time>2026-04-27T12:00:10.999Z</time></trkpt><trkpt lat="42.09080568734582" lon="13.533721646089786"><ele>808.0</ele><time>2026-04-27T12:00:11.999Z</time></trkpt><trkpt lat="42.09089157369819" lon="13.53355151475515"><ele>810.0</ele><time>2026-04-27T12:00:12.999Z</time></trkpt><trkpt lat="42.09098089130341" lon="13.533378796177582"><ele>812.0</ele><time>2026-04-27T12:00:13.999Z</time></trkpt><trkpt lat="42.091068794850834" lon="13.533211980466952"><ele>814.0</ele><time>2026-04-27T12:00:14.999Z</time></trkpt><trkpt lat="42.09114829451662" lon="13.53303174507928"><ele>814.25</ele><time>2026-04-27T12:00:15.999Z</time></trkpt><trkpt lat="42.09121197908093" lon="13.532867652741697"><ele>814.5</ele><time>2026-04-27T12:00:16.999Z</time></trkpt><trkpt lat="42.091296608799205" lon="13.53276246141233"><ele>814.75</ele><time>2026-04-27T12:00:17.999Z</time></trkpt><trkpt lat="42.091386204622204" lon="13.532634189680714"><ele>815.0</ele><time>2026-04-27T12:00:18.999Z</time></trkpt><trkpt lat="42.09150466013664" lon="13.532515111109838"><ele>816.6666666666667</ele><time>2026-04-27T12:00:19.999Z</time></trkpt><trkpt lat="42.09162195853669" lon="13.532365473607392"><ele>818.3333333333333</ele><time>2026-04-27T12:00:20.999Z</time></trkpt><trkpt lat="42.09172890096097" lon="13.532204415972636"><ele>820.0</ele><time>2026-04-27T12:00:21.999Z</time></trkpt><trkpt lat="42.09182521342827" lon="13.532029520727622"><ele>820.0</ele><time>2026-04-27T12:00:22.999Z</time></trkpt><trkpt lat="42.09190625708147" lon="13.531836815050154"><ele>820.0</ele><time>2026-04-27T12:00:23.999Z</time></trkpt><trkpt lat="42.09197786810053" lon="13.53163677648815"><ele>820.0</ele><time>2026-04-27T12:00:24.999Z</time></trkpt><trkpt lat="42.09202932278658" lon="13.53142195283245"><ele>819.3333333333333</ele><time>2026-04-27T12:00:25.999Z</time></trkpt><trkpt lat="42.09207229237587" lon="13.531205476718558"><ele>818.6666666666667</ele><time>2026-04-27T12:00:26.999Z</time></trkpt><trkpt lat="42.09211513802193" lon="13.530981494976219"><ele>818.0</ele><time>2026-04-27T12:00:27.999Z</time></trkpt><trkpt lat="42.092169544327284" lon="13.530763903368715"><ele>818.0</ele><time>2026-04-27T12:00:28.999Z</time></trkpt><trkpt lat="42.09223124275422" lon="13.530558242669649"><ele>818.0</ele><time>2026-04-27T12:00:29.999Z</time></trkpt><trkpt lat="42.09228938626653" lon="13.530378699846162"><ele>818.0</ele><time>2026-04-27T12:00:30.999Z</time></trkpt><trkpt lat="42.09234780345429" lon="13.530204021799648"><ele>817.6666666666667</ele><time>2026-04-27T12:00:31.999Z</time></trkpt><trkpt lat="42.092412757275554" lon="13.530027323816972"><ele>817.3333333333333</ele><time>2026-04-27T12:00:32.999Z</time></trkpt><trkpt lat="42.09249135141537" lon="13.529850642731269"><ele>817.0</ele><time>2026-04-27T12:00:33.999Z</time></trkpt><trkpt lat="42.092569104099326" lon="13.529667290428666"><ele>819.0</ele><time>2026-04-27T12:00:34.999Z</time></trkpt><trkpt lat="42.0926467153551" lon="13.529484747693845"><ele>821.0</ele><time>2026-04-27T12:00:35.999Z</time></trkpt><trkpt lat="42.09271552072805" lon="13.529319851406225"><ele>823.0</ele><time>2026-04-27T12:00:36.999Z</time></trkpt><trkpt lat="42.09276788014082" lon="13.529154133833618"><ele>825.0</ele><time>2026-04-27T12:00:37.999Z</time></trkpt><trkpt lat="42.09282088171205" lon="13.528975565217559"><ele>825.0</ele><time>2026-04-27T12:00:38.999Z</time></trkpt><trkpt lat="42.092881782871444" lon="13.528793513188258"><ele>825.0</ele><time>2026-04-27T12:00:39.999Z</time></trkpt><trkpt lat="42.09294563442033" lon="13.528620048367099"><ele>825.0</ele><time>2026-04-27T12:00:40.999Z</time></trkpt><trkpt lat="42.09300551228024" lon="13.528467930648544"><ele>825.0</ele><time>2026-04-27T12:00:41.999Z</time></trkpt><trkpt lat="42.09306084746552" lon="13.528334934113504"><ele>825.6</ele><time>2026-04-27T12:00:42.999Z</time></trkpt><trkpt lat="42.09311923880144" lon="13.528217685237156"><ele>826.2</ele><time>2026-04-27T12:00:43.999Z</time></trkpt><trkpt lat="42.09318747683409" lon="13.52812258286821"><ele>826.8</ele><time>2026-04-27T12:00:44.998Z</time></trkpt><trkpt lat="42.0932571766551" lon="13.528031516425985"><ele>827.4</ele><time>2026-04-27T12:00:45.998Z</time></trkpt><trkpt lat="42.09333892713644" lon="13.527943079066059"><ele>828.0</ele><time>2026-04-27T12:00:46.998Z</time></trkpt><trkpt lat="42.09342895049579" lon="13.52785054943052"><ele>828.0</ele><time>2026-04-27T12:00:47.998Z</time></trkpt><trkpt lat="42.09351882739389" lon="13.527761289473577"><ele>828.0</ele><time>2026-04-27T12:00:48.998Z</time></trkpt><trkpt lat="42.093601421617166" lon="13.527714208537699"><ele>828.0</ele><time>2026-04-27T12:00:49.998Z</time></trkpt><trkpt lat="42.09367882036904" lon="13.527660975927814"><ele>828.0</ele><time>2026-04-27T12:00:51.998Z</time></trkpt><trkpt lat="42.09376924755468" lon="13.527587072519168"><ele>828.0</ele><time>2026-04-27T12:00:53.998Z</time></trkpt><trkpt lat="42.09385893009763" lon="13.527521023336183"><ele>828.0</ele><time>2026-04-27T12:00:56Z</time></trkpt><trkpt lat="42.093875311042815" lon="13.527358449060538"><ele>828.0</ele><time>2026-04-27T12:00:58Z</time></trkpt><trkpt lat="42.09387970601305" lon="13.527260478995474"><ele>828.0</ele><time>2026-04-27T12:00:59Z</time></trkpt><trkpt lat="42.0938812385118" lon="13.527160405445105"><ele>828.0</ele><time>2026-04-27T12:01:00Z</time></trkpt><trkpt lat="42.09389745881512" lon="13.527064501669756"><ele>828.0</ele><time>2026-04-27T12:01:01Z</time></trkpt><trkpt lat="42.09390749795522" lon="13.526940808152348"><ele>828.0</ele><time>2026-04-27T12:01:02Z</time></trkpt><trkpt lat="42.09392737593388" lon="13.526816265529327"><ele>827.5999999999999</ele><time>2026-04-27T12:01:03Z</time></trkpt><trkpt lat="42.09394854522392" lon="13.526695372354382"><ele>827.1999999999999</ele><time>2026-04-27T12:01:04Z</time></trkpt><trkpt lat="42.09397420528377" lon="13.526573503691639"><ele>826.8</ele><time>2026-04-27T12:01:05Z</time></trkpt><trkpt lat="42.09400330110415" lon="13.526440162100167"><ele>826.4</ele><time>2026-04-27T12:01:06Z</time></trkpt><trkpt lat="42.094028711919876" lon="13.526308210890711"><ele>826.0</ele><time>2026-04-27T12:01:07Z</time></trkpt><trkpt lat="42.09403309824046" lon="13.526167082808103"><ele>827.0</ele><time>2026-04-27T12:01:08Z</time></trkpt><trkpt lat="42.09403099558905" lon="13.526046053571179"><ele>828.0</ele><time>2026-04-27T12:01:09Z</time></trkpt><trkpt lat="42.09409090000103" lon="13.525952228915681"><ele>829.0</ele><time>2026-04-27T12:01:10Z</time></trkpt><trkpt lat="42.09416680899254" lon="13.525849004386137"><ele>830.0</ele><time>2026-04-27T12:01:11Z</time></trkpt><trkpt lat="42.0942006387273" lon="13.52573424045845"><ele>831.0</ele><time>2026-04-27T12:01:12Z</time></trkpt><trkpt lat="42.09422223247732" lon="13.525618767358399"><ele>831.0</ele><time>2026-04-27T12:01:13Z</time></trkpt><trkpt lat="42.09419616694091" lon="13.525523473621115"><ele>831.0</ele><time>2026-04-27T12:01:14Z</time></trkpt><trkpt lat="42.094212459262295" lon="13.525370897468749"><ele>831.0</ele><time>2026-04-27T12:01:16Z</time></trkpt><trkpt lat="42.094241701883185" lon="13.525274424979122"><ele>831.0</ele><time>2026-04-27T12:01:17Z</time></trkpt><trkpt lat="42.094298703032266" lon="13.5251695047334"><ele>831.0</ele><time>2026-04-27T12:01:18Z</time></trkpt><trkpt lat="42.094376273339925" lon="13.525089022330333"><ele>828.1999999999999</ele><time>2026-04-27T12:01:19Z</time></trkpt><trkpt lat="42.094448396178954" lon="13.525014517831849"><ele>825.4</ele><time>2026-04-27T12:01:20Z</time></trkpt><trkpt lat="42.09451516439195" lon="13.524928632557518"><ele>822.6</ele><time>2026-04-27T12:01:21Z</time></trkpt><trkpt lat="42.094576969440524" lon="13.524861464709605"><ele>819.8</ele><time>2026-04-27T12:01:22Z</time></trkpt><trkpt lat="42.094651199253384" lon="13.524781297118684"><ele>817.0</ele><time>2026-04-27T12:01:23Z</time></trkpt><trkpt lat="42.09473572110217" lon="13.524697236685046"><ele>816.9999999999999</ele><time>2026-04-27T12:01:24Z</time></trkpt><trkpt lat="42.094810337518" lon="13.52462294332047"><ele>817.0</ele><time>2026-04-27T12:01:25Z</time></trkpt><trkpt lat="42.09487260473476" lon="13.52455133179738"><ele>817.0</ele><time>2026-04-27T12:01:26Z</time></trkpt><trkpt lat="42.09493236702683" lon="13.524473142438968"><ele>817.0</ele><time>2026-04-27T12:01:27Z</time></trkpt><trkpt lat="42.09500721137813" lon="13.524416844533787"><ele>816.9999999999999</ele><time>2026-04-27T12:01:28Z</time></trkpt><trkpt lat="42.09510136191121" lon="13.524365634904536"><ele>817.0</ele><time>2026-04-27T12:01:29Z</time></trkpt><trkpt lat="42.095196758367905" lon="13.524285260129385"><ele>818.0</ele><time>2026-04-27T12:01:30Z</time></trkpt><trkpt lat="42.095281592734594" lon="13.52420500825033"><ele>819.0</ele><time>2026-04-27T12:01:31Z</time></trkpt><trkpt lat="42.095369214694266" lon="13.524103466387004"><ele>820.0</ele><time>2026-04-27T12:01:31.999Z</time></trkpt><trkpt lat="42.09546299416825" lon="13.524000202559568"><ele>821.0</ele><time>2026-04-27T12:01:32.999Z</time></trkpt><trkpt lat="42.0955614009991" lon="13.523907207503429"><ele>821.0</ele><time>2026-04-27T12:01:33.999Z</time></trkpt><trkpt lat="42.09565001318126" lon="13.523822346898113"><ele>821.0</ele><time>2026-04-27T12:01:34.999Z</time></trkpt><trkpt lat="42.09571857868431" lon="13.52373705249822"><ele>821.0</ele><time>2026-04-27T12:01:35.999Z</time></trkpt><trkpt lat="42.095748095291256" lon="13.523636786190085"><ele>821.0</ele><time>2026-04-27T12:01:36.999Z</time></trkpt><trkpt lat="42.09578190651471" lon="13.523513127546824"><ele>821.0</ele><time>2026-04-27T12:01:37.999Z</time></trkpt><trkpt lat="42.0958130021161" lon="13.523369253961791"><ele>822.5999999999999</ele><time>2026-04-27T12:01:38.999Z</time></trkpt><trkpt lat="42.09585299577907" lon="13.523237260181585"><ele>824.2</ele><time>2026-04-27T12:01:39.999Z</time></trkpt><trkpt lat="42.095897094875994" lon="13.523124979656828"><ele>825.8</ele><time>2026-04-27T12:01:40.999Z</time></trkpt><trkpt lat="42.09594377128645" lon="13.523015786702222"><ele>827.4000000000001</ele><time>2026-04-27T12:01:41.999Z</time></trkpt><trkpt lat="42.09598832088888" lon="13.522905153315856"><ele>829.0</ele><time>2026-04-27T12:01:42.999Z</time></trkpt><trkpt lat="42.09602148800953" lon="13.522767971895535"><ele>829.6666666666666</ele><time>2026-04-27T12:01:43.999Z</time></trkpt><trkpt lat="42.096079776952436" lon="13.522645894354513"><ele>830.3333333333333</ele><time>2026-04-27T12:01:44.999Z</time></trkpt><trkpt lat="42.09611689564295" lon="13.522553995411277"><ele>831.0</ele><time>2026-04-27T12:01:45.999Z</time></trkpt><trkpt lat="42.09613969129333" lon="13.522454268281074"><ele>831.6666666666667</ele><time>2026-04-27T12:01:46.999Z</time></trkpt><trkpt lat="42.096153566086116" lon="13.522325746215968"><ele>832.3333333333334</ele><time>2026-04-27T12:01:48.999Z</time></trkpt><trkpt lat="42.096191841338296" lon="13.522255747523857"><ele>833.0</ele><time>2026-04-27T12:01:49.999Z</time></trkpt><trkpt lat="42.09622028090818" lon="13.522115081291549"><ele>833.4</ele><time>2026-04-27T12:01:51.999Z</time></trkpt><trkpt lat="42.09619719411433" lon="13.522006475208691"><ele>833.8</ele><time>2026-04-27T12:01:52.999Z</time></trkpt><trkpt lat="42.09622830358935" lon="13.521901122737063"><ele>834.2</ele><time>2026-04-27T12:01:53.999Z</time></trkpt><trkpt lat="42.096278129799444" lon="13.52176531022114"><ele>834.6</ele><time>2026-04-27T12:01:55.999Z</time></trkpt><trkpt lat="42.09630950116168" lon="13.521629129197756"><ele>835.0</ele><time>2026-04-27T12:02:04.999Z</time></trkpt><trkpt lat="42.096364257781254" lon="13.521495722189181"><ele>835.0</ele><time>2026-04-27T12:02:06.999Z</time></trkpt><trkpt lat="42.09638112343275" lon="13.521405280382455"><ele>835.0</ele><time>2026-04-27T12:02:07.999Z</time></trkpt><trkpt lat="42.09638229519322" lon="13.521250968684866"><ele>835.0</ele><time>2026-04-27T12:02:08.999Z</time></trkpt><trkpt lat="42.096394301903594" lon="13.521111149366506"><ele>835.0</ele><time>2026-04-27T12:02:09.999Z</time></trkpt><trkpt lat="42.096426099444855" lon="13.521011319036239"><ele>835.0</ele><time>2026-04-27T12:02:10.999Z</time></trkpt><trkpt lat="42.09649094429105" lon="13.520897031267054"><ele>834.8</ele><time>2026-04-27T12:02:12.999Z</time></trkpt><trkpt lat="42.09654563353979" lon="13.520836504500544"><ele>834.6</ele><time>2026-04-27T12:02:13.999Z</time></trkpt><trkpt lat="42.09660528992374" lon="13.520759991714597"><ele>834.4000000000001</ele><time>2026-04-27T12:02:14.999Z</time></trkpt><trkpt lat="42.096683431048376" lon="13.520663631377829"><ele>834.2</ele><time>2026-04-27T12:02:15.999Z</time></trkpt><trkpt lat="42.09674905288813" lon="13.520566881195942"><ele>834.0</ele><time>2026-04-27T12:02:16.999Z</time></trkpt><trkpt lat="42.096820881432336" lon="13.520472064743492"><ele>835.3333333333334</ele><time>2026-04-27T12:02:17.999Z</time></trkpt><trkpt lat="42.09688236434552" lon="13.520383358657838"><ele>836.6666666666667</ele><time>2026-04-27T12:02:18.999Z</time></trkpt><trkpt lat="42.09694460552556" lon="13.520294343385487"><ele>838.0</ele><time>2026-04-27T12:02:19.999Z</time></trkpt><trkpt lat="42.097027175967106" lon="13.520201473078027"><ele>839.3333333333334</ele><time>2026-04-27T12:02:20.999Z</time></trkpt><trkpt lat="42.09709713008639" lon="13.520139036070974"><ele>840.6666666666667</ele><time>2026-04-27T12:02:21.999Z</time></trkpt><trkpt lat="42.09716582526065" lon="13.520104291649448"><ele>842.0</ele><time>2026-04-27T12:02:22.999Z</time></trkpt><trkpt lat="42.097253002533236" lon="13.520075609447021"><ele>842.0</ele><time>2026-04-27T12:02:23.999Z</time></trkpt><trkpt lat="42.097316162278794" lon="13.520031561311294"><ele>842.0</ele><time>2026-04-27T12:02:24.999Z</time></trkpt><trkpt lat="42.0974252883946" lon="13.520003900850764"><ele>842.0</ele><time>2026-04-27T12:02:26.999Z</time></trkpt><trkpt lat="42.097402573140776" lon="13.519867065421336"><ele>842.0</ele><time>2026-04-27T12:02:29.999Z</time></trkpt><trkpt lat="42.09735055414101" lon="13.519783791473508"><ele>842.0</ele><time>2026-04-27T12:02:30.999Z</time></trkpt><trkpt lat="42.097301839084146" lon="13.519663754029832"><ele>842.0000000000001</ele><time>2026-04-27T12:02:31.999Z</time></trkpt><trkpt lat="42.097283553694446" lon="13.519578604137411"><ele>842.0</ele><time>2026-04-27T12:02:32.999Z</time></trkpt><trkpt lat="42.09729915215544" lon="13.51949346016836"><ele>842.0</ele><time>2026-04-27T12:02:33.999Z</time></trkpt><trkpt lat="42.09729924990563" lon="13.519401337213914"><ele>842.0</ele><time>2026-04-27T12:02:34.999Z</time></trkpt><trkpt lat="42.097243158563415" lon="13.519242361089193"><ele>842.0000000000001</ele><time>2026-04-27T12:02:36.999Z</time></trkpt><trkpt lat="42.09719441667324" lon="13.519160969288482"><ele>842.0</ele><time>2026-04-27T12:02:37.999Z</time></trkpt><trkpt lat="42.097155122279055" lon="13.51907909562786"><ele>844.6</ele><time>2026-04-27T12:02:38.999Z</time></trkpt><trkpt lat="42.0971800406194" lon="13.51891756998712"><ele>847.2</ele><time>2026-04-27T12:02:40.999Z</time></trkpt><trkpt lat="42.097207290100215" lon="13.518825189060392"><ele>849.8</ele><time>2026-04-27T12:02:41.999Z</time></trkpt><trkpt lat="42.09725011768462" lon="13.51869830587622"><ele>852.4</ele><time>2026-04-27T12:02:42.999Z</time></trkpt><trkpt lat="42.09729132802762" lon="13.518566510855436"><ele>855.0</ele><time>2026-04-27T12:02:43.999Z</time></trkpt><trkpt lat="42.09733905383127" lon="13.518414711800522"><ele>858.5</ele><time>2026-04-27T12:02:44.999Z</time></trkpt><trkpt lat="42.09739277554984" lon="13.518271248756886"><ele>862.0</ele><time>2026-04-27T12:02:45.999Z</time></trkpt><trkpt lat="42.097452739639245" lon="13.518123959209518"><ele>865.5</ele><time>2026-04-27T12:02:46.998Z</time></trkpt><trkpt lat="42.097512482413514" lon="13.517982560346583"><ele>869.0</ele><time>2026-04-27T12:02:47.998Z</time></trkpt><trkpt lat="42.0975801444893" lon="13.517852270391334"><ele>870.75</ele><time>2026-04-27T12:02:48.998Z</time></trkpt><trkpt lat="42.09765342720109" lon="13.517713150872552"><ele>872.5</ele><time>2026-04-27T12:02:49.998Z</time></trkpt><trkpt lat="42.09772702224558" lon="13.517567613474139"><ele>874.25</ele><time>2026-04-27T12:02:50.998Z</time></trkpt><trkpt lat="42.09780076439161" lon="13.517428795441388"><ele>876.0</ele><time>2026-04-27T12:02:51.998Z</time></trkpt><trkpt lat="42.09786770463108" lon="13.517300773746472"><ele>876.0</ele><time>2026-04-27T12:02:52.998Z</time></trkpt><trkpt lat="42.097912762908194" lon="13.517170380918454"><ele>875.9999999999999</ele><time>2026-04-27T12:02:53.998Z</time></trkpt><trkpt lat="42.0979606307857" lon="13.517049299631832"><ele>875.9999999999999</ele><time>2026-04-27T12:02:54.998Z</time></trkpt><trkpt lat="42.097989000712026" lon="13.516935394962287"><ele>876.0</ele><time>2026-04-27T12:02:55.998Z</time></trkpt><trkpt lat="42.098007143370815" lon="13.516798390102307"><ele>876.0</ele><time>2026-04-27T12:02:56.998Z</time></trkpt><trkpt lat="42.09802922431988" lon="13.516660342806267"><ele>876.0</ele><time>2026-04-27T12:02:57.998Z</time></trkpt><trkpt lat="42.098040648894695" lon="13.516518812488256"><ele>875.9999999999999</ele><time>2026-04-27T12:02:58.998Z</time></trkpt><trkpt lat="42.098084362688084" lon="13.516375688289273"><ele>875.9999999999999</ele><time>2026-04-27T12:02:59.998Z</time></trkpt><trkpt lat="42.0981153947993" lon="13.516231894110533"><ele>876.0</ele><time>2026-04-27T12:03:01Z</time></trkpt><trkpt lat="42.09814358073188" lon="13.516083966116627"><ele>876.0</ele><time>2026-04-27T12:03:02Z</time></trkpt><trkpt lat="42.0981797982092" lon="13.515954129375489"><ele>877.5999999999999</ele><time>2026-04-27T12:03:03Z</time></trkpt><trkpt lat="42.098220041206325" lon="13.515855134547555"><ele>879.1999999999999</ele><time>2026-04-27T12:03:04Z</time></trkpt><trkpt lat="42.098280917598366" lon="13.51577245339384"><ele>880.8000000000001</ele><time>2026-04-27T12:03:05Z</time></trkpt><trkpt lat="42.09836026417123" lon="13.515686498554253"><ele>882.4000000000001</ele><time>2026-04-27T12:03:06Z</time></trkpt><trkpt lat="42.0984281013625" lon="13.5155922494019"><ele>884.0</ele><time>2026-04-27T12:03:07Z</time></trkpt><trkpt lat="42.09849336396469" lon="13.515482809321927"><ele>888.2</ele><time>2026-04-27T12:03:08Z</time></trkpt><trkpt lat="42.09854185291094" lon="13.515367605186738"><ele>892.4000000000001</ele><time>2026-04-27T12:03:09Z</time></trkpt><trkpt lat="42.09860027549124" lon="13.515272929723626"><ele>896.6</ele><time>2026-04-27T12:03:10Z</time></trkpt><trkpt lat="42.09865435283536" lon="13.515161655303222"><ele>900.8</ele><time>2026-04-27T12:03:11Z</time></trkpt><trkpt lat="42.09869957680222" lon="13.515070343730143"><ele>905.0</ele><time>2026-04-27T12:03:12Z</time></trkpt><trkpt lat="42.09875243522502" lon="13.514964439214477"><ele>905.0</ele><time>2026-04-27T12:03:13Z</time></trkpt><trkpt lat="42.09882097340426" lon="13.514858412204017"><ele>905.0</ele><time>2026-04-27T12:03:14Z</time></trkpt><trkpt lat="42.098876801229466" lon="13.514728903305778"><ele>905.0</ele><time>2026-04-27T12:03:15Z</time></trkpt><trkpt lat="42.09891733725243" lon="13.514606913982032"><ele>905.0</ele><time>2026-04-27T12:03:16Z</time></trkpt><trkpt lat="42.0989557505049" lon="13.514489758064386"><ele>905.0</ele><time>2026-04-27T12:03:17Z</time></trkpt><trkpt lat="42.09898823645927" lon="13.514386696012146"><ele>906.0</ele><time>2026-04-27T12:03:18Z</time></trkpt><trkpt lat="42.09899673100895" lon="13.514290364869208"><ele>907.0</ele><time>2026-04-27T12:03:20Z</time></trkpt><trkpt lat="42.09892621656032" lon="13.51423558821178"><ele>908.0</ele><time>2026-04-27T12:03:22Z</time></trkpt><trkpt lat="42.09885449005621" lon="13.514155354627404"><ele>909.0</ele><time>2026-04-27T12:03:24Z</time></trkpt><trkpt lat="42.09882478101366" lon="13.514079205418758"><ele>910.0</ele><time>2026-04-27T12:03:26Z</time></trkpt><trkpt lat="42.098739854240506" lon="13.513925311124149"><ele>910.0</ele><time>2026-04-27T12:03:28Z</time></trkpt><trkpt lat="42.09869446743419" lon="13.513791267080355"><ele>910.0</ele><time>2026-04-27T12:03:30Z</time></trkpt><trkpt lat="42.09865187068225" lon="13.513644357262974"><ele>910.0</ele><time>2026-04-27T12:03:32Z</time></trkpt><trkpt lat="42.0985948760848" lon="13.513485567278744"><ele>910.0</ele><time>2026-04-27T12:03:33.999Z</time></trkpt><trkpt lat="42.09857251868526" lon="13.513374125618324"><ele>910.0</ele><time>2026-04-27T12:03:34.999Z</time></trkpt><trkpt lat="42.09855487202693" lon="13.513270825724389"><ele>912.2</ele><time>2026-04-27T12:03:35.999Z</time></trkpt><trkpt lat="42.09854483827953" lon="13.513144121218453"><ele>914.4</ele><time>2026-04-27T12:03:36.999Z</time></trkpt><trkpt lat="42.09853817730468" lon="13.51300861966507"><ele>916.5999999999999</ele><time>2026-04-27T12:03:37.999Z</time></trkpt><trkpt lat="42.098529352443464" lon="13.512882033993936"><ele>918.8</ele><time>2026-04-27T12:03:38.999Z</time></trkpt><trkpt lat="42.098483435751575" lon="13.512775873287053"><ele>921.0</ele><time>2026-04-27T12:03:39.999Z</time></trkpt><trkpt lat="42.09843800892317" lon="13.512664309621476"><ele>921.8</ele><time>2026-04-27T12:03:40.999Z</time></trkpt><trkpt lat="42.09841087106776" lon="13.512531907568812"><ele>922.5999999999999</ele><time>2026-04-27T12:03:41.999Z</time></trkpt><trkpt lat="42.09839230316676" lon="13.51240818587866"><ele>923.4</ele><time>2026-04-27T12:03:42.999Z</time></trkpt><trkpt lat="42.09838571913249" lon="13.512269618843881"><ele>924.2</ele><time>2026-04-27T12:03:43.999Z</time></trkpt><trkpt lat="42.09839734011856" lon="13.512135705353227"><ele>925.0</ele><time>2026-04-27T12:03:44.999Z</time></trkpt><trkpt lat="42.098390396478365" lon="13.511991483158498"><ele>925.8</ele><time>2026-04-27T12:03:45.999Z</time></trkpt><trkpt lat="42.09841839596434" lon="13.511851638960199"><ele>926.6</ele><time>2026-04-27T12:03:46.999Z</time></trkpt><trkpt lat="42.0984306979256" lon="13.511702565408195"><ele>927.4000000000001</ele><time>2026-04-27T12:03:47.999Z</time></trkpt><trkpt lat="42.09845605828767" lon="13.51156055748496"><ele>928.2</ele><time>2026-04-27T12:03:48.999Z</time></trkpt><trkpt lat="42.0984673572738" lon="13.511411931788333"><ele>929.0</ele><time>2026-04-27T12:03:49.999Z</time></trkpt><trkpt lat="42.09843848988061" lon="13.51127858800051"><ele>930.4000000000001</ele><time>2026-04-27T12:03:50.999Z</time></trkpt><trkpt lat="42.09839224141352" lon="13.511151531998937"><ele>931.8000000000001</ele><time>2026-04-27T12:03:51.999Z</time></trkpt><trkpt lat="42.09830476342008" lon="13.511035822607965"><ele>933.1999999999999</ele><time>2026-04-27T12:03:52.999Z</time></trkpt><trkpt lat="42.09822834013872" lon="13.510946375561133"><ele>934.5999999999999</ele><time>2026-04-27T12:03:53.999Z</time></trkpt><trkpt lat="42.098165066257636" lon="13.510854186794031"><ele>936.0</ele><time>2026-04-27T12:03:54.999Z</time></trkpt><trkpt lat="42.098114521233626" lon="13.510729033868847"><ele>930.0</ele><time>2026-04-27T12:03:55.999Z</time></trkpt><trkpt lat="42.098077731673186" lon="13.510585819882792"><ele>924.0</ele><time>2026-04-27T12:03:56.999Z</time></trkpt><trkpt lat="42.098040810234416" lon="13.510430518690214"><ele>918.0</ele><time>2026-04-27T12:03:57.999Z</time></trkpt><trkpt lat="42.097979422093324" lon="13.510271711592642"><ele>912.0</ele><time>2026-04-27T12:03:58.999Z</time></trkpt><trkpt lat="42.09790394056005" lon="13.510115040991456"><ele>912.0</ele><time>2026-04-27T12:03:59.999Z</time></trkpt><trkpt lat="42.0978225409165" lon="13.509966678229334"><ele>912.0</ele><time>2026-04-27T12:04:00.999Z</time></trkpt><trkpt lat="42.09775455966884" lon="13.50982153545996"><ele>912.0</ele><time>2026-04-27T12:04:01.999Z</time></trkpt><trkpt lat="42.097707006744024" lon="13.509687584953149"><ele>912.0</ele><time>2026-04-27T12:04:02.999Z</time></trkpt><trkpt lat="42.097667332810154" lon="13.509549604680013"><ele>912.0</ele><time>2026-04-27T12:04:03.999Z</time></trkpt><trkpt lat="42.09764071086021" lon="13.509423841276739"><ele>912.0</ele><time>2026-04-27T12:04:04.999Z</time></trkpt><trkpt lat="42.09763548636024" lon="13.509319812990878"><ele>912.0</ele><time>2026-04-27T12:04:05.999Z</time></trkpt><trkpt lat="42.097678701039385" lon="13.509214632758285"><ele>912.0</ele><time>2026-04-27T12:04:06.999Z</time></trkpt><trkpt lat="42.097711640972065" lon="13.509070310157274"><ele>912.0</ele><time>2026-04-27T12:04:07.999Z</time></trkpt><trkpt lat="42.09774726573615" lon="13.508904309367242"><ele>912.0</ele><time>2026-04-27T12:04:08.999Z</time></trkpt><trkpt lat="42.09779079509123" lon="13.508731410436848"><ele>912.0</ele><time>2026-04-27T12:04:09.999Z</time></trkpt><trkpt lat="42.09781366327427" lon="13.508548874738173"><ele>912.0</ele><time>2026-04-27T12:04:10.999Z</time></trkpt><trkpt lat="42.09782549586826" lon="13.508375132344549"><ele>912.0</ele><time>2026-04-27T12:04:11.999Z</time></trkpt><trkpt lat="42.09781989306686" lon="13.50820189604355"><ele>912.0</ele><time>2026-04-27T12:04:12.999Z</time></trkpt><trkpt lat="42.09783458805172" lon="13.508030114506576"><ele>912.0</ele><time>2026-04-27T12:04:13.999Z</time></trkpt><trkpt lat="42.09786730008929" lon="13.50785654477967"><ele>912.0</ele><time>2026-04-27T12:04:14.999Z</time></trkpt><trkpt lat="42.097905167942244" lon="13.507684313795421"><ele>912.0</ele><time>2026-04-27T12:04:15.999Z</time></trkpt><trkpt lat="42.09793191139648" lon="13.507530934137678"><ele>912.25</ele><time>2026-04-27T12:04:16.999Z</time></trkpt><trkpt lat="42.09796933636272" lon="13.50739669934856"><ele>912.5</ele><time>2026-04-27T12:04:17.999Z</time></trkpt><trkpt lat="42.09804646721279" lon="13.507285651944315"><ele>912.75</ele><time>2026-04-27T12:04:18.999Z</time></trkpt><trkpt lat="42.09813109715193" lon="13.507189735591243"><ele>913.0</ele><time>2026-04-27T12:04:19.999Z</time></trkpt><trkpt lat="42.09823582486121" lon="13.507098896081954"><ele>913.5</ele><time>2026-04-27T12:04:20.999Z</time></trkpt><trkpt lat="42.09832535579141" lon="13.506971526942403"><ele>914.0</ele><time>2026-04-27T12:04:21.999Z</time></trkpt><trkpt lat="42.09842199482706" lon="13.506853286451776"><ele>914.5</ele><time>2026-04-27T12:04:22.999Z</time></trkpt><trkpt lat="42.0985031967788" lon="13.506737722222065"><ele>915.0</ele><time>2026-04-27T12:04:23.999Z</time></trkpt><trkpt lat="42.098558970688416" lon="13.506623758202604"><ele>915.0</ele><time>2026-04-27T12:04:24.999Z</time></trkpt><trkpt lat="42.09860384083626" lon="13.50649020582006"><ele>915.0</ele><time>2026-04-27T12:04:25.999Z</time></trkpt><trkpt lat="42.098635886724175" lon="13.50633671416007"><ele>915.0</ele><time>2026-04-27T12:04:26.999Z</time></trkpt><trkpt lat="42.09866413791731" lon="13.506173891353614"><ele>915.0</ele><time>2026-04-27T12:04:27.999Z</time></trkpt><trkpt lat="42.09872093564037" lon="13.506009140244426"><ele>915.0</ele><time>2026-04-27T12:04:28.999Z</time></trkpt><trkpt lat="42.09877136012587" lon="13.505851139239562"><ele>915.0</ele><time>2026-04-27T12:04:29.999Z</time></trkpt><trkpt lat="42.09880916281355" lon="13.505697108889143"><ele>915.0</ele><time>2026-04-27T12:04:30.999Z</time></trkpt><trkpt lat="42.09885360903699" lon="13.505550569531879"><ele>915.0</ele><time>2026-04-27T12:04:31.999Z</time></trkpt><trkpt lat="42.09891467448334" lon="13.505422644372828"><ele>916.0</ele><time>2026-04-27T12:04:32.999Z</time></trkpt><trkpt lat="42.098981350796706" lon="13.505306479910823"><ele>917.0</ele><time>2026-04-27T12:04:33.999Z</time></trkpt><trkpt lat="42.099044117911575" lon="13.505168057884894"><ele>918.0</ele><time>2026-04-27T12:04:34.999Z</time></trkpt><trkpt lat="42.09913767377841" lon="13.505057009666285"><ele>919.0</ele><time>2026-04-27T12:04:35.999Z</time></trkpt><trkpt lat="42.0992379922653" lon="13.504949609399201"><ele>920.75</ele><time>2026-04-27T12:04:36.999Z</time></trkpt><trkpt lat="42.09933673589508" lon="13.504837092409968"><ele>922.5</ele><time>2026-04-27T12:04:37.999Z</time></trkpt><trkpt lat="42.099428050845354" lon="13.504695262954117"><ele>924.25</ele><time>2026-04-27T12:04:38.999Z</time></trkpt><trkpt lat="42.09950893682779" lon="13.504529222002503"><ele>926.0</ele><time>2026-04-27T12:04:39.999Z</time></trkpt><trkpt lat="42.09958973244604" lon="13.50435498532995"><ele>927.6666666666667</ele><time>2026-04-27T12:04:40.999Z</time></trkpt><trkpt lat="42.099677480119894" lon="13.504171823239659"><ele>929.3333333333333</ele><time>2026-04-27T12:04:41.999Z</time></trkpt><trkpt lat="42.09976836588953" lon="13.503981620669292"><ele>931.0</ele><time>2026-04-27T12:04:42.999Z</time></trkpt><trkpt lat="42.09985549370003" lon="13.503785064186195"><ele>931.6666666666666</ele><time>2026-04-27T12:04:43.999Z</time></trkpt><trkpt lat="42.099943196864785" lon="13.50358239698672"><ele>932.3333333333333</ele><time>2026-04-27T12:04:44.999Z</time></trkpt><trkpt lat="42.100035260032726" lon="13.503379759415239"><ele>933.0</ele><time>2026-04-27T12:04:45.999Z</time></trkpt><trkpt lat="42.10012582121706" lon="13.503171150924363"><ele>933.0</ele><time>2026-04-27T12:04:46.999Z</time></trkpt><trkpt lat="42.10022549447002" lon="13.502961389162849"><ele>933.0</ele><time>2026-04-27T12:04:47.999Z</time></trkpt><trkpt lat="42.100329895500764" lon="13.502761236053287"><ele>933.0</ele><time>2026-04-27T12:04:48.999Z</time></trkpt><trkpt lat="42.100438043927426" lon="13.502567253519254"><ele>936.3333333333333</ele><time>2026-04-27T12:04:49.998Z</time></trkpt><trkpt lat="42.10054136761446" lon="13.502382831706553"><ele>939.6666666666666</ele><time>2026-04-27T12:04:50.998Z</time></trkpt><trkpt lat="42.1006487862642" lon="13.502209423214095"><ele>943.0</ele><time>2026-04-27T12:04:51.998Z</time></trkpt><trkpt lat="42.1007648152586" lon="13.502053587509867"><ele>944.6666666666666</ele><time>2026-04-27T12:04:52.998Z</time></trkpt><trkpt lat="42.10089068573581" lon="13.501911661421005"><ele>946.3333333333333</ele><time>2026-04-27T12:04:53.998Z</time></trkpt><trkpt lat="42.10102314686153" lon="13.501776652587521"><ele>948.0</ele><time>2026-04-27T12:04:54.998Z</time></trkpt><trkpt lat="42.10114403618689" lon="13.501641351136536"><ele>948.0</ele><time>2026-04-27T12:04:55.998Z</time></trkpt><trkpt lat="42.101246981337994" lon="13.50148473894454"><ele>948.0</ele><time>2026-04-27T12:04:56.998Z</time></trkpt><trkpt lat="42.101325947027775" lon="13.501326159810134"><ele>948.0</ele><time>2026-04-27T12:04:57.998Z</time></trkpt><trkpt lat="42.10138488088442" lon="13.501209589394124"><ele>948.0</ele><time>2026-04-27T12:04:58.998Z</time></trkpt><trkpt lat="42.101434188881846" lon="13.501111128118175"><ele>948.0</ele><time>2026-04-27T12:04:59.998Z</time></trkpt><trkpt lat="42.10148556948711" lon="13.501062051402764"><ele>948.0</ele><time>2026-04-27T12:05:00.998Z</time></trkpt><trkpt lat="42.1015727023657" lon="13.501115550441114"><ele>948.0</ele><time>2026-04-27T12:05:02.998Z</time></trkpt><trkpt lat="42.10154742854212" lon="13.501226237579361"><ele>948.0</ele><time>2026-04-27T12:05:03.998Z</time></trkpt><trkpt lat="42.101570615591584" lon="13.501347988554318"><ele>948.0</ele><time>2026-04-27T12:05:04.998Z</time></trkpt><trkpt lat="42.10159895482622" lon="13.501488171466214"><ele>948.0</ele><time>2026-04-27T12:05:05.998Z</time></trkpt><trkpt lat="42.101628897752676" lon="13.501620892820583"><ele>947.25</ele><time>2026-04-27T12:05:07Z</time></trkpt><trkpt lat="42.10167083467302" lon="13.501794897946686"><ele>946.5</ele><time>2026-04-27T12:05:08Z</time></trkpt><trkpt lat="42.101715712898624" lon="13.50196589811542"><ele>945.75</ele><time>2026-04-27T12:05:09Z</time></trkpt><trkpt lat="42.10176266176899" lon="13.502131025200447"><ele>945.0</ele><time>2026-04-27T12:05:10Z</time></trkpt><trkpt lat="42.1018087291123" lon="13.502293645206642"><ele>945.0</ele><time>2026-04-27T12:05:11Z</time></trkpt><trkpt lat="42.10185724679746" lon="13.50249777150976"><ele>945.0</ele><time>2026-04-27T12:05:12Z</time></trkpt><trkpt lat="42.10193054068153" lon="13.502646633753196"><ele>945.0</ele><time>2026-04-27T12:05:13Z</time></trkpt><trkpt lat="42.102003722529325" lon="13.502778322287273"><ele>945.0</ele><time>2026-04-27T12:05:14Z</time></trkpt><trkpt lat="42.10206451038075" lon="13.502913916222289"><ele>944.0</ele><time>2026-04-27T12:05:15Z</time></trkpt><trkpt lat="42.102122852138805" lon="13.503021710856432"><ele>943.0</ele><time>2026-04-27T12:05:16Z</time></trkpt><trkpt lat="42.102172314044154" lon="13.503115063312464"><ele>942.0</ele><time>2026-04-27T12:05:17Z</time></trkpt><trkpt lat="42.102162590933254" lon="13.503272163319274"><ele>941.0</ele><time>2026-04-27T12:05:19Z</time></trkpt><trkpt lat="42.10213511389188" lon="13.503368932232899"><ele>940.0</ele><time>2026-04-27T12:05:20Z</time></trkpt><trkpt lat="42.10208394486534" lon="13.50349422367505"><ele>940.0</ele><time>2026-04-27T12:05:21Z</time></trkpt><trkpt lat="42.10204503840905" lon="13.503634471376527"><ele>940.0</ele><time>2026-04-27T12:05:22Z</time></trkpt><trkpt lat="42.101984208292855" lon="13.503769236484036"><ele>940.0</ele><time>2026-04-27T12:05:23Z</time></trkpt><trkpt lat="42.10191711999918" lon="13.50391828288656"><ele>940.0</ele><time>2026-04-27T12:05:24Z</time></trkpt><trkpt lat="42.10185312024369" lon="13.504073682745734"><ele>938.75</ele><time>2026-04-27T12:05:25Z</time></trkpt><trkpt lat="42.101782188505524" lon="13.504238835159754"><ele>937.5</ele><time>2026-04-27T12:05:26Z</time></trkpt><trkpt lat="42.101710999509244" lon="13.504397646614207"><ele>936.25</ele><time>2026-04-27T12:05:27Z</time></trkpt><trkpt lat="42.10164389828688" lon="13.504556776990691"><ele>935.0</ele><time>2026-04-27T12:05:28Z</time></trkpt><trkpt lat="42.10157671384703" lon="13.504706518665305"><ele>934.0</ele><time>2026-04-27T12:05:29Z</time></trkpt><trkpt lat="42.10149593730374" lon="13.504836809211334"><ele>933.0</ele><time>2026-04-27T12:05:30Z</time></trkpt><trkpt lat="42.10143032072004" lon="13.50499111769497"><ele>932.0</ele><time>2026-04-27T12:05:31Z</time></trkpt><trkpt lat="42.101381796783535" lon="13.505167803443797"><ele>931.0</ele><time>2026-04-27T12:05:32Z</time></trkpt><trkpt lat="42.10136611216651" lon="13.505359401643352"><ele>930.5</ele><time>2026-04-27T12:05:33Z</time></trkpt><trkpt lat="42.101338615719584" lon="13.50554460606779"><ele>930.0</ele><time>2026-04-27T12:05:34Z</time></trkpt><trkpt lat="42.10129055817386" lon="13.50572456815523"><ele>929.5</ele><time>2026-04-27T12:05:35Z</time></trkpt><trkpt lat="42.101254879326234" lon="13.505906820942254"><ele>929.0</ele><time>2026-04-27T12:05:36Z</time></trkpt><trkpt lat="42.101218788027516" lon="13.506093822116059"><ele>929.6666666666667</ele><time>2026-04-27T12:05:37Z</time></trkpt><trkpt lat="42.101190737896914" lon="13.506288820269642"><ele>930.3333333333333</ele><time>2026-04-27T12:05:38Z</time></trkpt><trkpt lat="42.10116940891091" lon="13.506502188660882"><ele>931.0</ele><time>2026-04-27T12:05:39Z</time></trkpt><trkpt lat="42.101151175280904" lon="13.506723504893534"><ele>931.0</ele><time>2026-04-27T12:05:39.999Z</time></trkpt><trkpt lat="42.10115028290897" lon="13.506941083199402"><ele>931.0</ele><time>2026-04-27T12:05:40.999Z</time></trkpt><trkpt lat="42.101141306290096" lon="13.507135669088772"><ele>931.0</ele><time>2026-04-27T12:05:41.999Z</time></trkpt><trkpt lat="42.10115806593233" lon="13.507325444313718"><ele>931.0</ele><time>2026-04-27T12:05:42.999Z</time></trkpt><trkpt lat="42.101170447073386" lon="13.507510845681193"><ele>933.0</ele><time>2026-04-27T12:05:43.999Z</time></trkpt><trkpt lat="42.1011586241874" lon="13.507678024703376"><ele>935.0</ele><time>2026-04-27T12:05:44.999Z</time></trkpt><trkpt lat="42.10113714306321" lon="13.507843715330262"><ele>937.0</ele><time>2026-04-27T12:05:45.999Z</time></trkpt><trkpt lat="42.10111404876627" lon="13.508002598438974"><ele>939.0</ele><time>2026-04-27T12:05:46.999Z</time></trkpt><trkpt lat="42.10109014313376" lon="13.508167063391976"><ele>940.75</ele><time>2026-04-27T12:05:47.999Z</time></trkpt><trkpt lat="42.10106642524815" lon="13.50833809368332"><ele>942.5</ele><time>2026-04-27T12:05:48.999Z</time></trkpt><trkpt lat="42.101041980175275" lon="13.508523526937749"><ele>944.25</ele><time>2026-04-27T12:05:49.999Z</time></trkpt><trkpt lat="42.10103504120385" lon="13.508708168130012"><ele>946.0</ele><time>2026-04-27T12:05:50.999Z</time></trkpt><trkpt lat="42.10100597529694" lon="13.508890968164273"><ele>948.5</ele><time>2026-04-27T12:05:51.999Z</time></trkpt><trkpt lat="42.100972461941076" lon="13.509070589447848"><ele>951.0</ele><time>2026-04-27T12:05:52.999Z</time></trkpt><trkpt lat="42.1008943817487" lon="13.509222705490062"><ele>953.5</ele><time>2026-04-27T12:05:53.999Z</time></trkpt><trkpt lat="42.100822380390504" lon="13.509340595869922"><ele>956.0</ele><time>2026-04-27T12:05:54.999Z</time></trkpt><trkpt lat="42.10077076626349" lon="13.509441613035909"><ele>956.0</ele><time>2026-04-27T12:05:55.999Z</time></trkpt><trkpt lat="42.10072763352125" lon="13.509567201193482"><ele>956.0</ele><time>2026-04-27T12:05:57.999Z</time></trkpt><trkpt lat="42.10077480394287" lon="13.509843048542052"><ele>956.0</ele><time>2026-04-27T12:06:01.999Z</time></trkpt><trkpt lat="42.10089250203017" lon="13.509467638722796"><ele>956.0</ele><time>2026-04-27T12:06:02.999Z</time></trkpt><trkpt lat="42.100944460514164" lon="13.509380508169034"><ele>955.9999999999999</ele><time>2026-04-27T12:06:03.999Z</time></trkpt><trkpt lat="42.10100361848977" lon="13.50928074593849"><ele>955.9999999999999</ele><time>2026-04-27T12:06:04.999Z</time></trkpt><trkpt lat="42.10106540508047" lon="13.509189459371234"><ele>956.0</ele><time>2026-04-27T12:06:05.999Z</time></trkpt><trkpt lat="42.10113367864172" lon="13.509084181115826"><ele>956.0</ele><time>2026-04-27T12:06:06.999Z</time></trkpt><trkpt lat="42.10121727288613" lon="13.508976592924427"><ele>956.0</ele><time>2026-04-27T12:06:07.999Z</time></trkpt><trkpt lat="42.10130123740945" lon="13.508875614212734"><ele>956.0</ele><time>2026-04-27T12:06:08.999Z</time></trkpt><trkpt lat="42.10138545098841" lon="13.508771051600267"><ele>956.0</ele><time>2026-04-27T12:06:09.999Z</time></trkpt><trkpt lat="42.101473615509356" lon="13.508659452290898"><ele>956.0</ele><time>2026-04-27T12:06:10.999Z</time></trkpt><trkpt lat="42.10156163057554" lon="13.508540998502452"><ele>955.25</ele><time>2026-04-27T12:06:11.999Z</time></trkpt><trkpt lat="42.101653096009514" lon="13.508420624482572"><ele>954.5</ele><time>2026-04-27T12:06:12.999Z</time></trkpt><trkpt lat="42.10174934802462" lon="13.508294150572553"><ele>953.75</ele><time>2026-04-27T12:06:13.999Z</time></trkpt><trkpt lat="42.10185709158805" lon="13.508155763117708"><ele>953.0</ele><time>2026-04-27T12:06:14.999Z</time></trkpt><trkpt lat="42.101968331102526" lon="13.508015643897949"><ele>951.0</ele><time>2026-04-27T12:06:15.999Z</time></trkpt><trkpt lat="42.10207815897097" lon="13.507860885194015"><ele>949.0</ele><time>2026-04-27T12:06:16.999Z</time></trkpt><trkpt lat="42.102188852905954" lon="13.507695513384814"><ele>947.0</ele><time>2026-04-27T12:06:17.999Z</time></trkpt><trkpt lat="42.10228682538345" lon="13.507507930002346"><ele>947.0</ele><time>2026-04-27T12:06:18.999Z</time></trkpt><trkpt lat="42.10238050069776" lon="13.507311237447645"><ele>947.0</ele><time>2026-04-27T12:06:19.999Z</time></trkpt><trkpt lat="42.102469041044216" lon="13.507106544073388"><ele>947.0</ele><time>2026-04-27T12:06:20.999Z</time></trkpt><trkpt lat="42.10255319504812" lon="13.506893123072457"><ele>948.3333333333334</ele><time>2026-04-27T12:06:21.999Z</time></trkpt><trkpt lat="42.10263239784962" lon="13.506675873624594"><ele>949.6666666666667</ele><time>2026-04-27T12:06:22.999Z</time></trkpt><trkpt lat="42.102707020181825" lon="13.506451697805703"><ele>951.0</ele><time>2026-04-27T12:06:23.999Z</time></trkpt><trkpt lat="42.102774120056424" lon="13.506224471148293"><ele>951.0</ele><time>2026-04-27T12:06:24.999Z</time></trkpt><trkpt lat="42.10283666821195" lon="13.505990093938442"><ele>951.0</ele><time>2026-04-27T12:06:25.999Z</time></trkpt><trkpt lat="42.10290264459436" lon="13.505762423487075"><ele>951.0</ele><time>2026-04-27T12:06:26.999Z</time></trkpt><trkpt lat="42.10297030987462" lon="13.505536367195262"><ele>949.3333333333333</ele><time>2026-04-27T12:06:27.999Z</time></trkpt><trkpt lat="42.10303515601673" lon="13.505335767335712"><ele>947.6666666666666</ele><time>2026-04-27T12:06:28.999Z</time></trkpt><trkpt lat="42.10311359123661" lon="13.50515956454148"><ele>946.0</ele><time>2026-04-27T12:06:29.999Z</time></trkpt><trkpt lat="42.10321709169372" lon="13.50500729602443"><ele>953.0</ele><time>2026-04-27T12:06:30.999Z</time></trkpt><trkpt lat="42.10334296828686" lon="13.504890449257248"><ele>960.0</ele><time>2026-04-27T12:06:31.999Z</time></trkpt><trkpt lat="42.10347936389785" lon="13.504808881768842"><ele>967.0</ele><time>2026-04-27T12:06:32.999Z</time></trkpt><trkpt lat="42.103618001358605" lon="13.504736355470017"><ele>967.0</ele><time>2026-04-27T12:06:33.999Z</time></trkpt><trkpt lat="42.103755840880865" lon="13.504654551874392"><ele>967.0</ele><time>2026-04-27T12:06:34.999Z</time></trkpt><trkpt lat="42.10388457553532" lon="13.504560555585273"><ele>967.0</ele><time>2026-04-27T12:06:35.999Z</time></trkpt><trkpt lat="42.10400168959316" lon="13.504450174553757"><ele>967.0</ele><time>2026-04-27T12:06:36.999Z</time></trkpt><trkpt lat="42.10411397206065" lon="13.504326917564875"><ele>968.3333333333333</ele><time>2026-04-27T12:06:37.999Z</time></trkpt><trkpt lat="42.10422122865216" lon="13.504187676300129"><ele>969.6666666666667</ele><time>2026-04-27T12:06:38.999Z</time></trkpt><trkpt lat="42.104323211929135" lon="13.504034585124435"><ele>971.0</ele><time>2026-04-27T12:06:39.999Z</time></trkpt><trkpt lat="42.10442161065377" lon="13.503877800127276"><ele>970.0</ele><time>2026-04-27T12:06:40.999Z</time></trkpt><trkpt lat="42.10451088493607" lon="13.503709335127757"><ele>969.0</ele><time>2026-04-27T12:06:41.999Z</time></trkpt><trkpt lat="42.104591745817366" lon="13.503531290623235"><ele>968.0</ele><time>2026-04-27T12:06:42.999Z</time></trkpt><trkpt lat="42.10467019969042" lon="13.503350396352188"><ele>968.0</ele><time>2026-04-27T12:06:43.999Z</time></trkpt><trkpt lat="42.104750172767204" lon="13.503166611184646"><ele>968.0</ele><time>2026-04-27T12:06:44.999Z</time></trkpt><trkpt lat="42.10482792726189" lon="13.502978283685739"><ele>968.0</ele><time>2026-04-27T12:06:45.999Z</time></trkpt><trkpt lat="42.104898108894524" lon="13.50277680837558"><ele>974.6666666666667</ele><time>2026-04-27T12:06:46.999Z</time></trkpt><trkpt lat="42.104960749419085" lon="13.50256561618063"><ele>981.3333333333333</ele><time>2026-04-27T12:06:47.999Z</time></trkpt><trkpt lat="42.10502066785703" lon="13.502346314384038"><ele>988.0</ele><time>2026-04-27T12:06:48.999Z</time></trkpt><trkpt lat="42.1050802358304" lon="13.502120425870165"><ele>987.0</ele><time>2026-04-27T12:06:49.999Z</time></trkpt><trkpt lat="42.10514116160971" lon="13.501890201704326"><ele>986.0</ele><time>2026-04-27T12:06:50.999Z</time></trkpt><trkpt lat="42.10520209679964" lon="13.50166121168288"><ele>985.0</ele><time>2026-04-27T12:06:51.999Z</time></trkpt><trkpt lat="42.10525879890239" lon="13.501430369889606"><ele>984.6666666666666</ele><time>2026-04-27T12:06:52.999Z</time></trkpt><trkpt lat="42.10530960098714" lon="13.501199860173944"><ele>984.3333333333333</ele><time>2026-04-27T12:06:53.999Z</time></trkpt><trkpt lat="42.10534886212654" lon="13.500966090116837"><ele>984.0</ele><time>2026-04-27T12:06:54.999Z</time></trkpt><trkpt lat="42.10538270517019" lon="13.500730203650935"><ele>984.0</ele><time>2026-04-27T12:06:55.998Z</time></trkpt><trkpt lat="42.10540873451354" lon="13.500496450225798"><ele>984.0</ele><time>2026-04-27T12:06:56.998Z</time></trkpt><trkpt lat="42.105427694758056" lon="13.500288845995836"><ele>984.0</ele><time>2026-04-27T12:06:57.998Z</time></trkpt><trkpt lat="42.105432116966846" lon="13.500100099919424"><ele>986.6666666666667</ele><time>2026-04-27T12:06:58.998Z</time></trkpt><trkpt lat="42.105404918511084" lon="13.499909669266465"><ele>989.3333333333334</ele><time>2026-04-27T12:06:59.998Z</time></trkpt><trkpt lat="42.10533659305462" lon="13.499725317382952"><ele>992.0</ele><time>2026-04-27T12:07:00.998Z</time></trkpt><trkpt lat="42.10524255459068" lon="13.499555408537704"><ele>992.0</ele><time>2026-04-27T12:07:01.998Z</time></trkpt><trkpt lat="42.10511922387752" lon="13.499404605150799"><ele>992.0</ele><time>2026-04-27T12:07:02.998Z</time></trkpt><trkpt lat="42.10498926396682" lon="13.499261661209196"><ele>992.0</ele><time>2026-04-27T12:07:03.998Z</time></trkpt><trkpt lat="42.10486304262245" lon="13.499117980923556"><ele>992.0</ele><time>2026-04-27T12:07:04.998Z</time></trkpt><trkpt lat="42.10475123437474" lon="13.498964609157516"><ele>992.0</ele><time>2026-04-27T12:07:05.998Z</time></trkpt><trkpt lat="42.104657562766704" lon="13.498799399329883"><ele>992.0</ele><time>2026-04-27T12:07:06.998Z</time></trkpt><trkpt lat="42.10458509762405" lon="13.498624299498118"><ele>992.5</ele><time>2026-04-27T12:07:07.998Z</time></trkpt><trkpt lat="42.10454482302011" lon="13.498434952346091"><ele>993.0</ele><time>2026-04-27T12:07:08.998Z</time></trkpt><trkpt lat="42.104538586478206" lon="13.498250064214103"><ele>993.5</ele><time>2026-04-27T12:07:09.998Z</time></trkpt><trkpt lat="42.10455491691768" lon="13.498062204940902"><ele>994.0</ele><time>2026-04-27T12:07:10.998Z</time></trkpt><trkpt lat="42.104607213154964" lon="13.497906928933222"><ele>994.0</ele><time>2026-04-27T12:07:12Z</time></trkpt><trkpt lat="42.104692946431705" lon="13.497768651331674"><ele>994.0</ele><time>2026-04-27T12:07:13Z</time></trkpt><trkpt lat="42.10480514521398" lon="13.497645761217177"><ele>994.0</ele><time>2026-04-27T12:07:14Z</time></trkpt><trkpt lat="42.10493488664121" lon="13.49753496490581"><ele>994.0</ele><time>2026-04-27T12:07:15Z</time></trkpt><trkpt lat="42.10507250164041" lon="13.497423074930298"><ele>996.3333333333333</ele><time>2026-04-27T12:07:16Z</time></trkpt><trkpt lat="42.105214694642825" lon="13.497303903717597"><ele>998.6666666666667</ele><time>2026-04-27T12:07:17Z</time></trkpt><trkpt lat="42.1053608351536" lon="13.497181018820076"><ele>1001.0</ele><time>2026-04-27T12:07:18Z</time></trkpt><trkpt lat="42.10551309585294" lon="13.49705353318595"><ele>1001.0</ele><time>2026-04-27T12:07:19Z</time></trkpt><trkpt lat="42.10566845248777" lon="13.496924365108043"><ele>1001.0</ele><time>2026-04-27T12:07:20Z</time></trkpt><trkpt lat="42.105824768796744" lon="13.49679466903144"><ele>1001.0</ele><time>2026-04-27T12:07:21Z</time></trkpt><trkpt lat="42.1059809669798" lon="13.496663776053955"><ele>1003.0</ele><time>2026-04-27T12:07:22Z</time></trkpt><trkpt lat="42.10613661844263" lon="13.49653177114119"><ele>1005.0</ele><time>2026-04-27T12:07:23Z</time></trkpt><trkpt lat="42.10628303030829" lon="13.496391191923504"><ele>1007.0</ele><time>2026-04-27T12:07:24Z</time></trkpt><trkpt lat="42.10641132119721" lon="13.496229680851643"><ele>1007.0</ele><time>2026-04-27T12:07:25Z</time></trkpt><trkpt lat="42.106511253279045" lon="13.496050733435775"><ele>1007.0</ele><time>2026-04-27T12:07:26Z</time></trkpt><trkpt lat="42.10658318308079" lon="13.495879250640687"><ele>1007.0</ele><time>2026-04-27T12:07:27Z</time></trkpt><trkpt lat="42.106638974019475" lon="13.495696914334008"><ele>1009.75</ele><time>2026-04-27T12:07:28Z</time></trkpt><trkpt lat="42.10667536752137" lon="13.495510479473822"><ele>1012.5</ele><time>2026-04-27T12:07:29Z</time></trkpt><trkpt lat="42.10671298625546" lon="13.495324578091973"><ele>1015.25</ele><time>2026-04-27T12:07:30Z</time></trkpt><trkpt lat="42.10675582220101" lon="13.495138584126593"><ele>1018.0</ele><time>2026-04-27T12:07:31Z</time></trkpt><trkpt lat="42.1067903616345" lon="13.49497041804642"><ele>1018.0</ele><time>2026-04-27T12:07:32Z</time></trkpt><trkpt lat="42.10682249013118" lon="13.494806986942917"><ele>1018.0</ele><time>2026-04-27T12:07:33Z</time></trkpt><trkpt lat="42.10685705196543" lon="13.494635564577417"><ele>1018.0</ele><time>2026-04-27T12:07:34Z</time></trkpt><trkpt lat="42.10690024638259" lon="13.494462113458553"><ele>1018.0</ele><time>2026-04-27T12:07:35Z</time></trkpt><trkpt lat="42.10696647082359" lon="13.494291658383066"><ele>1017.5</ele><time>2026-04-27T12:07:36Z</time></trkpt><trkpt lat="42.10705916790111" lon="13.494137893489922"><ele>1017.0</ele><time>2026-04-27T12:07:37Z</time></trkpt><trkpt lat="42.10716144064787" lon="13.49399330853692"><ele>1016.5</ele><time>2026-04-27T12:07:38Z</time></trkpt><trkpt lat="42.107270405164634" lon="13.49385220547788"><ele>1016.0</ele><time>2026-04-27T12:07:39Z</time></trkpt><trkpt lat="42.107380464327484" lon="13.493705195257043"><ele>1019.5</ele><time>2026-04-27T12:07:40Z</time></trkpt><trkpt lat="42.10748600626209" lon="13.49355263701248"><ele>1023.0</ele><time>2026-04-27T12:07:41Z</time></trkpt><trkpt lat="42.10758266263939" lon="13.493406511867565"><ele>1026.5</ele><time>2026-04-27T12:07:42Z</time></trkpt><trkpt lat="42.10765177079477" lon="13.493250206546037"><ele>1030.0</ele><time>2026-04-27T12:07:43Z</time></trkpt><trkpt lat="42.10769066694168" lon="13.49307085555531"><ele>1032.0</ele><time>2026-04-27T12:07:43.999Z</time></trkpt><trkpt lat="42.107682246070915" lon="13.492866613520748"><ele>1034.0</ele><time>2026-04-27T12:07:44.999Z</time></trkpt><trkpt lat="42.10764522608162" lon="13.492666694969294"><ele>1036.0</ele><time>2026-04-27T12:07:45.999Z</time></trkpt><trkpt lat="42.10760210706158" lon="13.492462854586233"><ele>1036.0</ele><time>2026-04-27T12:07:46.999Z</time></trkpt><trkpt lat="42.107554637826276" lon="13.49225717668797"><ele>1036.0</ele><time>2026-04-27T12:07:47.999Z</time></trkpt><trkpt lat="42.10750718468025" lon="13.492049102086986"><ele>1036.0</ele><time>2026-04-27T12:07:48.999Z</time></trkpt><trkpt lat="42.10744456612245" lon="13.491845830305687"><ele>1030.6666666666665</ele><time>2026-04-27T12:07:49.999Z</time></trkpt><trkpt lat="42.10735606772868" lon="13.491659853832768"><ele>1025.3333333333333</ele><time>2026-04-27T12:07:50.999Z</time></trkpt><trkpt lat="42.1072506379728" lon="13.491494507896522"><ele>1020.0</ele><time>2026-04-27T12:07:51.999Z</time></trkpt><trkpt lat="42.1071654215552" lon="13.491347230019755"><ele>1022.25</ele><time>2026-04-27T12:07:52.999Z</time></trkpt><trkpt lat="42.10710875535696" lon="13.491188504937414"><ele>1024.5</ele><time>2026-04-27T12:07:53.999Z</time></trkpt><trkpt lat="42.10708434351191" lon="13.49100450759143"><ele>1026.75</ele><time>2026-04-27T12:07:54.999Z</time></trkpt><trkpt lat="42.107088677959545" lon="13.490808729308188"><ele>1029.0</ele><time>2026-04-27T12:07:55.999Z</time></trkpt><trkpt lat="42.107108972658466" lon="13.490609611539098"><ele>1030.3333333333333</ele><time>2026-04-27T12:07:56.999Z</time></trkpt><trkpt lat="42.107144502037144" lon="13.490406531409143"><ele>1031.6666666666665</ele><time>2026-04-27T12:07:57.999Z</time></trkpt><trkpt lat="42.10718490641808" lon="13.49019884987579"><ele>1033.0</ele><time>2026-04-27T12:07:58.999Z</time></trkpt><trkpt lat="42.10722744119081" lon="13.489985031074497"><ele>1033.0</ele><time>2026-04-27T12:07:59.999Z</time></trkpt><trkpt lat="42.10727066676837" lon="13.48976505913364"><ele>1033.0</ele><time>2026-04-27T12:08:00.999Z</time></trkpt><trkpt lat="42.10731327113261" lon="13.489546807302958"><ele>1033.0</ele><time>2026-04-27T12:08:01.999Z</time></trkpt><trkpt lat="42.10735042517367" lon="13.489346506548713"><ele>1035.0</ele><time>2026-04-27T12:08:02.999Z</time></trkpt><trkpt lat="42.107392435033056" lon="13.489139867487248"><ele>1037.0</ele><time>2026-04-27T12:08:03.999Z</time></trkpt><trkpt lat="42.10745818928914" lon="13.488942955194382"><ele>1039.0</ele><time>2026-04-27T12:08:04.999Z</time></trkpt><trkpt lat="42.10755563612038" lon="13.488767912908093"><ele>1041.6666666666665</ele><time>2026-04-27T12:08:05.999Z</time></trkpt><trkpt lat="42.107687911458534" lon="13.488631487279457"><ele>1044.3333333333333</ele><time>2026-04-27T12:08:06.999Z</time></trkpt><trkpt lat="42.107835235655145" lon="13.48852824643702"><ele>1047.0</ele><time>2026-04-27T12:08:07.999Z</time></trkpt><trkpt lat="42.107997556775466" lon="13.488456710463547"><ele>1047.0</ele><time>2026-04-27T12:08:08.999Z</time></trkpt><trkpt lat="42.10816527857148" lon="13.48839787920508"><ele>1047.0</ele><time>2026-04-27T12:08:09.999Z</time></trkpt><trkpt lat="42.10833037579295" lon="13.488327316351675"><ele>1047.0</ele><time>2026-04-27T12:08:10.999Z</time></trkpt><trkpt lat="42.10849031305769" lon="13.488228200831937"><ele>1050.3333333333333</ele><time>2026-04-27T12:08:11.999Z</time></trkpt><trkpt lat="42.10863878982814" lon="13.488100784874915"><ele>1053.6666666666665</ele><time>2026-04-27T12:08:12.999Z</time></trkpt><trkpt lat="42.108772636505265" lon="13.487944339427598"><ele>1057.0</ele><time>2026-04-27T12:08:13.999Z</time></trkpt><trkpt lat="42.10888942069308" lon="13.48776723282589"><ele>1057.0</ele><time>2026-04-27T12:08:14.999Z</time></trkpt><trkpt lat="42.1089984259612" lon="13.487580651709491"><ele>1057.0</ele><time>2026-04-27T12:08:15.999Z</time></trkpt><trkpt lat="42.10910076920335" lon="13.487390693489044"><ele>1057.0</ele><time>2026-04-27T12:08:16.999Z</time></trkpt><trkpt lat="42.10919771386793" lon="13.487195777182727"><ele>1061.0</ele><time>2026-04-27T12:08:17.999Z</time></trkpt><trkpt lat="42.10929116247164" lon="13.486997269706448"><ele>1065.0</ele><time>2026-04-27T12:08:18.999Z</time></trkpt><trkpt lat="42.10938642249674" lon="13.48679682946762"><ele>1069.0</ele><time>2026-04-27T12:08:19.999Z</time></trkpt><trkpt lat="42.10948505604585" lon="13.486594085432447"><ele>1069.0</ele><time>2026-04-27T12:08:20.999Z</time></trkpt><trkpt lat="42.10958706273476" lon="13.486391973889015"><ele>1069.0</ele><time>2026-04-27T12:08:21.999Z</time></trkpt><trkpt lat="42.1096890800055" lon="13.486188975515399"><ele>1069.0</ele><time>2026-04-27T12:08:22.999Z</time></trkpt><trkpt lat="42.10978951494115" lon="13.485982202978217"><ele>1067.3333333333333</ele><time>2026-04-27T12:08:23.999Z</time></trkpt><trkpt lat="42.10988708542964" lon="13.485774112961659"><ele>1065.6666666666667</ele><time>2026-04-27T12:08:24.999Z</time></trkpt><trkpt lat="42.109971640643515" lon="13.485561945569934"><ele>1064.0</ele><time>2026-04-27T12:08:25.999Z</time></trkpt><trkpt lat="42.110022753693514" lon="13.485337879121495"><ele>1070.3333333333335</ele><time>2026-04-27T12:08:26.999Z</time></trkpt><trkpt lat="42.110036163804494" lon="13.485105351593553"><ele>1076.6666666666667</ele><time>2026-04-27T12:08:27.999Z</time></trkpt><trkpt lat="42.110016599821556" lon="13.484871958971201"><ele>1083.0</ele><time>2026-04-27T12:08:28.999Z</time></trkpt><trkpt lat="42.10998734856709" lon="13.484640121993264"><ele>1085.0</ele><time>2026-04-27T12:08:29.999Z</time></trkpt><trkpt lat="42.109967267517405" lon="13.484405933702476"><ele>1087.0</ele><time>2026-04-27T12:08:30.999Z</time></trkpt><trkpt lat="42.109954082172315" lon="13.484170608104032"><ele>1089.0</ele><time>2026-04-27T12:08:31.999Z</time></trkpt><trkpt lat="42.10995385112838" lon="13.483932264482934"><ele>1088.6666666666667</ele><time>2026-04-27T12:08:32.999Z</time></trkpt><trkpt lat="42.1099787996412" lon="13.483694702233015"><ele>1088.3333333333335</ele><time>2026-04-27T12:08:33.999Z</time></trkpt><trkpt lat="42.11003223770911" lon="13.483464583944645"><ele>1088.0</ele><time>2026-04-27T12:08:34.999Z</time></trkpt><trkpt lat="42.11011556558946" lon="13.483246033527765"><ele>1088.0</ele><time>2026-04-27T12:08:35.999Z</time></trkpt><trkpt lat="42.11021853786346" lon="13.48304025124001"><ele>1088.0</ele><time>2026-04-27T12:08:36.999Z</time></trkpt><trkpt lat="42.11033660379914" lon="13.482849903515696"><ele>1088.0</ele><time>2026-04-27T12:08:37.999Z</time></trkpt><trkpt lat="42.11047354567636" lon="13.482680605785527"><ele>1085.6666666666667</ele><time>2026-04-27T12:08:38.999Z</time></trkpt><trkpt lat="42.11061912813766" lon="13.482523954953933"><ele>1083.3333333333333</ele><time>2026-04-27T12:08:39.999Z</time></trkpt><trkpt lat="42.110760667696134" lon="13.482363666957946"><ele>1081.0</ele><time>2026-04-27T12:08:40.999Z</time></trkpt><trkpt lat="42.11088906080097" lon="13.482186881603564"><ele>1086.0</ele><time>2026-04-27T12:08:41.999Z</time></trkpt><trkpt lat="42.11099531990482" lon="13.481980908226175"><ele>1091.0</ele><time>2026-04-27T12:08:42.999Z</time></trkpt><trkpt lat="42.11107502087717" lon="13.481756768427696"><ele>1096.0</ele><time>2026-04-27T12:08:43.999Z</time></trkpt><trkpt lat="42.11113017269253" lon="13.481521528546056"><ele>1096.0</ele><time>2026-04-27T12:08:44.999Z</time></trkpt><trkpt lat="42.1111733746778" lon="13.481281033541327"><ele>1096.0</ele><time>2026-04-27T12:08:45.999Z</time></trkpt><trkpt lat="42.111217062077955" lon="13.481040770471989"><ele>1096.0</ele><time>2026-04-27T12:08:46.999Z</time></trkpt><trkpt lat="42.11126342529377" lon="13.480804706993492"><ele>1096.3333333333333</ele><time>2026-04-27T12:08:47.999Z</time></trkpt><trkpt lat="42.11130195043467" lon="13.480573177760519"><ele>1096.6666666666667</ele><time>2026-04-27T12:08:48.999Z</time></trkpt><trkpt lat="42.111331586801775" lon="13.480345786347806"><ele>1097.0</ele><time>2026-04-27T12:08:49.999Z</time></trkpt><trkpt lat="42.11134636680936" lon="13.480114844299775"><ele>1097.6666666666667</ele><time>2026-04-27T12:08:50.999Z</time></trkpt><trkpt lat="42.11134034822849" lon="13.479877238653327"><ele>1098.3333333333333</ele><time>2026-04-27T12:08:51.999Z</time></trkpt><trkpt lat="42.11131388495669" lon="13.479640339285593"><ele>1099.0</ele><time>2026-04-27T12:08:52.999Z</time></trkpt><trkpt lat="42.11126316329113" lon="13.479408866314055"><ele>1102.0</ele><time>2026-04-27T12:08:53.999Z</time></trkpt><trkpt lat="42.11120137983507" lon="13.47918161849162"><ele>1105.0</ele><time>2026-04-27T12:08:54.999Z</time></trkpt><trkpt lat="42.11113936413459" lon="13.478952807594721"><ele>1108.0</ele><time>2026-04-27T12:08:55.999Z</time></trkpt><trkpt lat="42.11108172436241" lon="13.478731335887892"><ele>1109.0</ele><time>2026-04-27T12:08:56.999Z</time></trkpt><trkpt lat="42.11102948783848" lon="13.478513376528722"><ele>1110.0</ele><time>2026-04-27T12:08:57.999Z</time></trkpt><trkpt lat="42.11098991507776" lon="13.478295312646926"><ele>1111.0</ele><time>2026-04-27T12:08:58.998Z</time></trkpt><trkpt lat="42.110975507721015" lon="13.478072433926528"><ele>1110.6666666666665</ele><time>2026-04-27T12:08:59.998Z</time></trkpt><trkpt lat="42.11097366116506" lon="13.477845110168335"><ele>1110.3333333333333</ele><time>2026-04-27T12:09:00.998Z</time></trkpt><trkpt lat="42.11095660271629" lon="13.477616021797983"><ele>1110.0</ele><time>2026-04-27T12:09:01.998Z</time></trkpt><trkpt lat="42.11091854278838" lon="13.477407941881214"><ele>1110.0</ele><time>2026-04-27T12:09:02.998Z</time></trkpt><trkpt lat="42.11086503170917" lon="13.477223578634627"><ele>1110.0</ele><time>2026-04-27T12:09:03.998Z</time></trkpt><trkpt lat="42.11080201355604" lon="13.477058930030474"><ele>1110.0</ele><time>2026-04-27T12:09:04.998Z</time></trkpt><trkpt lat="42.11072970332004" lon="13.476905962978346"><ele>1110.0</ele><time>2026-04-27T12:09:05.998Z</time></trkpt><trkpt lat="42.11064527293168" lon="13.47675497140082"><ele>1105.6666666666667</ele><time>2026-04-27T12:09:06.998Z</time></trkpt><trkpt lat="42.11055225417016" lon="13.476604711270591"><ele>1101.3333333333335</ele><time>2026-04-27T12:09:07.998Z</time></trkpt><trkpt lat="42.11045788117276" lon="13.47644412061587"><ele>1097.0</ele><time>2026-04-27T12:09:08.998Z</time></trkpt><trkpt lat="42.110373225567194" lon="13.476271625887096"><ele>1098.6666666666667</ele><time>2026-04-27T12:09:09.998Z</time></trkpt><trkpt lat="42.110305847025906" lon="13.476083874909339"><ele>1100.3333333333333</ele><time>2026-04-27T12:09:10.998Z</time></trkpt><trkpt lat="42.11025592167747" lon="13.475881827004718"><ele>1102.0</ele><time>2026-04-27T12:09:11.998Z</time></trkpt><trkpt lat="42.1102122828855" lon="13.47567185987175"><ele>1102.0</ele><time>2026-04-27T12:09:12.998Z</time></trkpt><trkpt lat="42.11017209390067" lon="13.4754564292891"><ele>1102.0</ele><time>2026-04-27T12:09:13.998Z</time></trkpt><trkpt lat="42.11013724424983" lon="13.475240492527595"><ele>1102.0</ele><time>2026-04-27T12:09:14.998Z</time></trkpt><trkpt lat="42.11009747810205" lon="13.475025767423082"><ele>1101.6666666666665</ele><time>2026-04-27T12:09:15.998Z</time></trkpt><trkpt lat="42.11004168600107" lon="13.474812855333367"><ele>1101.3333333333333</ele><time>2026-04-27T12:09:16.998Z</time></trkpt><trkpt lat="42.10996756032691" lon="13.474602279411641"><ele>1101.0</ele><time>2026-04-27T12:09:18Z</time></trkpt><trkpt lat="42.109881642118786" lon="13.474394503559312"><ele>1098.6666666666667</ele><time>2026-04-27T12:09:19Z</time></trkpt><trkpt lat="42.10979104591924" lon="13.474184514517113"><ele>1096.3333333333335</ele><time>2026-04-27T12:09:20Z</time></trkpt><trkpt lat="42.10970083067984" lon="13.473971891995545"><ele>1094.0</ele><time>2026-04-27T12:09:21Z</time></trkpt><trkpt lat="42.10961116086106" lon="13.473757171856416"><ele>1094.0</ele><time>2026-04-27T12:09:22Z</time></trkpt><trkpt lat="42.109518605605004" lon="13.473542854469573"><ele>1094.0</ele><time>2026-04-27T12:09:23Z</time></trkpt><trkpt lat="42.10942425484526" lon="13.473330013176303"><ele>1094.0</ele><time>2026-04-27T12:09:24Z</time></trkpt><trkpt lat="42.109334201745874" lon="13.473113414641032"><ele>1095.0</ele><time>2026-04-27T12:09:25Z</time></trkpt><trkpt lat="42.10925030178287" lon="13.47289329620337"><ele>1096.0</ele><time>2026-04-27T12:09:26Z</time></trkpt><trkpt lat="42.1091756977905" lon="13.472666554293204"><ele>1097.0</ele><time>2026-04-27T12:09:27Z</time></trkpt><trkpt lat="42.1091131308156" lon="13.472433728425766"><ele>1094.6666666666667</ele><time>2026-04-27T12:09:28Z</time></trkpt><trkpt lat="42.10905653339226" lon="13.472197841898332"><ele>1092.3333333333333</ele><time>2026-04-27T12:09:29Z</time></trkpt><trkpt lat="42.108999846873004" lon="13.471959313842206"><ele>1090.0</ele><time>2026-04-27T12:09:30Z</time></trkpt><trkpt lat="42.10894276173177" lon="13.471723809129418"><ele>1090.0</ele><time>2026-04-27T12:09:31Z</time></trkpt><trkpt lat="42.10888798048503" lon="13.471485698700898"><ele>1090.0</ele><time>2026-04-27T12:09:32Z</time></trkpt><trkpt lat="42.108847089986526" lon="13.471242427053845"><ele>1090.0</ele><time>2026-04-27T12:09:33Z</time></trkpt><trkpt lat="42.108825629971285" lon="13.470994999608605"><ele>1090.3333333333333</ele><time>2026-04-27T12:09:34Z</time></trkpt><trkpt lat="42.108823129268664" lon="13.470745033895925"><ele>1090.6666666666667</ele><time>2026-04-27T12:09:35Z</time></trkpt><trkpt lat="42.10883503416108" lon="13.470493104613531"><ele>1091.0</ele><time>2026-04-27T12:09:36Z</time></trkpt><trkpt lat="42.108847640662" lon="13.470243686865556"><ele>1089.6666666666667</ele><time>2026-04-27T12:09:37Z</time></trkpt><trkpt lat="42.10883484749401" lon="13.469995750133307"><ele>1088.3333333333333</ele><time>2026-04-27T12:09:38Z</time></trkpt><trkpt lat="42.10878853374825" lon="13.469754434124926"><ele>1087.0</ele><time>2026-04-27T12:09:39Z</time></trkpt><trkpt lat="42.1087168888895" lon="13.469523057028491"><ele>1086.6666666666665</ele><time>2026-04-27T12:09:40Z</time></trkpt><trkpt lat="42.108637415976716" lon="13.469293779424413"><ele>1086.3333333333333</ele><time>2026-04-27T12:09:41Z</time></trkpt><trkpt lat="42.108554850628636" lon="13.469066555948215"><ele>1086.0</ele><time>2026-04-27T12:09:42Z</time></trkpt><trkpt lat="42.10847652697283" lon="13.468840083837048"><ele>1084.6666666666667</ele><time>2026-04-27T12:09:43Z</time></trkpt><trkpt lat="42.10839669673814" lon="13.468616211657832"><ele>1083.3333333333335</ele><time>2026-04-27T12:09:44Z</time></trkpt><trkpt lat="42.108317066793404" lon="13.468392689213168"><ele>1082.0</ele><time>2026-04-27T12:09:45Z</time></trkpt><trkpt lat="42.1082362079162" lon="13.468171358426396"><ele>1082.0</ele><time>2026-04-27T12:09:46Z</time></trkpt><trkpt lat="42.10815500630051" lon="13.46794854929738"><ele>1082.0</ele><time>2026-04-27T12:09:47Z</time></trkpt><trkpt lat="42.108073509098986" lon="13.467725209161825"><ele>1082.0</ele><time>2026-04-27T12:09:48Z</time></trkpt><trkpt lat="42.10799213473882" lon="13.467501525021216"><ele>1084.0</ele><time>2026-04-27T12:09:49Z</time></trkpt><trkpt lat="42.10790885489124" lon="13.467280202468098"><ele>1086.0</ele><time>2026-04-27T12:09:49.999Z</time></trkpt><trkpt lat="42.10782675843133" lon="13.46705755726195"><ele>1088.0</ele><time>2026-04-27T12:09:50.999Z</time></trkpt><trkpt lat="42.107747293049684" lon="13.466834907784598"><ele>1089.6666666666667</ele><time>2026-04-27T12:09:51.999Z</time></trkpt><trkpt lat="42.10767026166733" lon="13.46661466000711"><ele>1091.3333333333333</ele><time>2026-04-27T12:09:52.999Z</time></trkpt><trkpt lat="42.107593560709745" lon="13.466399098520533"><ele>1093.0</ele><time>2026-04-27T12:09:53.999Z</time></trkpt><trkpt lat="42.10751979227941" lon="13.466191592621964"><ele>1095.3333333333333</ele><time>2026-04-27T12:09:54.999Z</time></trkpt><trkpt lat="42.10745824293806" lon="13.465985586717254"><ele>1097.6666666666667</ele><time>2026-04-27T12:09:55.999Z</time></trkpt><trkpt lat="42.10741519564881" lon="13.465774741908197"><ele>1100.0</ele><time>2026-04-27T12:09:56.999Z</time></trkpt><trkpt lat="42.107392784504235" lon="13.465565195456938"><ele>1099.0</ele><time>2026-04-27T12:09:57.999Z</time></trkpt><trkpt lat="42.1073921215055" lon="13.465360864049533"><ele>1098.0</ele><time>2026-04-27T12:09:58.999Z</time></trkpt><trkpt lat="42.10741223236662" lon="13.465165570079805"><ele>1097.0</ele><time>2026-04-27T12:09:59.999Z</time></trkpt><trkpt lat="42.107448554975655" lon="13.464992592395609"><ele>1096.0</ele><time>2026-04-27T12:10:00.999Z</time></trkpt><trkpt lat="42.10750439438822" lon="13.464817479940121"><ele>1097.0</ele><time>2026-04-27T12:10:01.999Z</time></trkpt><trkpt lat="42.10757714879462" lon="13.464641633809764"><ele>1098.0</ele><time>2026-04-27T12:10:02.999Z</time></trkpt><trkpt lat="42.10766599461695" lon="13.46446485510075"><ele>1099.0</ele><time>2026-04-27T12:10:03.999Z</time></trkpt><trkpt lat="42.107766070852726" lon="13.464286497291377"><ele>1099.0</ele><time>2026-04-27T12:10:04.999Z</time></trkpt><trkpt lat="42.10786221723941" lon="13.464114105871161"><ele>1099.0</ele><time>2026-04-27T12:10:05.999Z</time></trkpt><trkpt lat="42.10796005330812" lon="13.463924615187402"><ele>1099.0</ele><time>2026-04-27T12:10:06.999Z</time></trkpt><trkpt lat="42.10806377267917" lon="13.463732445562272"><ele>1099.0</ele><time>2026-04-27T12:10:07.999Z</time></trkpt><trkpt lat="42.10817253366615" lon="13.463536306265837"><ele>1099.0</ele><time>2026-04-27T12:10:08.999Z</time></trkpt><trkpt lat="42.10827870468642" lon="13.463336110664548"><ele>1099.0</ele><time>2026-04-27T12:10:09.999Z</time></trkpt><trkpt lat="42.10837977748811" lon="13.463130150936367"><ele>1103.0</ele><time>2026-04-27T12:10:10.999Z</time></trkpt><trkpt lat="42.10846789088081" lon="13.462921380227769"><ele>1107.0</ele><time>2026-04-27T12:10:11.999Z</time></trkpt><trkpt lat="42.10853982259001" lon="13.46270429181274"><ele>1111.0</ele><time>2026-04-27T12:10:12.999Z</time></trkpt><trkpt lat="42.10860119708868" lon="13.462491353242845"><ele>1111.0</ele><time>2026-04-27T12:10:13.999Z</time></trkpt><trkpt lat="42.10865163976816" lon="13.462297021346656"><ele>1111.0</ele><time>2026-04-27T12:10:14.999Z</time></trkpt><trkpt lat="42.10869427435121" lon="13.462122795169373"><ele>1111.0</ele><time>2026-04-27T12:10:15.999Z</time></trkpt><trkpt lat="42.10873034123652" lon="13.461965269751893"><ele>1111.0</ele><time>2026-04-27T12:10:16.999Z</time></trkpt><trkpt lat="42.10876750843393" lon="13.461814406418128"><ele>1111.1666666666665</ele><time>2026-04-27T12:10:17.999Z</time></trkpt><trkpt lat="42.108798147407114" lon="13.461690051208105"><ele>1111.3333333333333</ele><time>2026-04-27T12:10:18.999Z</time></trkpt><trkpt lat="42.10880065016535" lon="13.461591383822418"><ele>1111.5</ele><time>2026-04-27T12:10:20.999Z</time></trkpt><trkpt lat="42.10871758987316" lon="13.461578863602767"><ele>1111.6666666666667</ele><time>2026-04-27T12:10:23.999Z</time></trkpt><trkpt lat="42.10870079558248" lon="13.461477680113937"><ele>1111.8333333333335</ele><time>2026-04-27T12:10:25.999Z</time></trkpt><trkpt lat="42.10870975775876" lon="13.461361080215013"><ele>1112.0</ele><time>2026-04-27T12:10:27.999Z</time></trkpt><trkpt lat="42.108684802068865" lon="13.461252205932823"><ele>1110.6</ele><time>2026-04-27T12:10:29.999Z</time></trkpt><trkpt lat="42.10865252122545" lon="13.461147481953063"><ele>1109.2</ele><time>2026-04-27T12:10:31.999Z</time></trkpt><trkpt lat="42.10862766667736" lon="13.461033659724665"><ele>1107.8</ele><time>2026-04-27T12:10:33.999Z</time></trkpt><trkpt lat="42.10860587842303" lon="13.460916443371042"><ele>1106.4</ele><time>2026-04-27T12:10:35.999Z</time></trkpt><trkpt lat="42.108571981121564" lon="13.460747716400691"><ele>1105.0</ele><time>2026-04-27T12:10:37.999Z</time></trkpt><trkpt lat="42.1085603369098" lon="13.460636901608408"><ele>1105.0</ele><time>2026-04-27T12:10:38.999Z</time></trkpt><trkpt lat="42.10853878572306" lon="13.460511854515728"><ele>1105.0</ele><time>2026-04-27T12:10:39.999Z</time></trkpt><trkpt lat="42.108507458809115" lon="13.460396036199606"><ele>1105.0</ele><time>2026-04-27T12:10:40.999Z</time></trkpt><trkpt lat="42.10846450820008" lon="13.460294785635416"><ele>1105.0</ele><time>2026-04-27T12:10:41.999Z</time></trkpt><trkpt lat="42.108438548631526" lon="13.460205374886266"><ele>1105.0</ele><time>2026-04-27T12:10:42.999Z</time></trkpt><trkpt lat="42.108461832049706" lon="13.460047658936535"><ele>1103.0</ele><time>2026-04-27T12:10:44.999Z</time></trkpt><trkpt lat="42.1085123596791" lon="13.45998806094706"><ele>1101.0</ele><time>2026-04-27T12:10:45.999Z</time></trkpt><trkpt lat="42.10854257467736" lon="13.45990997117432"><ele>1099.0</ele><time>2026-04-27T12:10:46.999Z</time></trkpt><trkpt lat="42.10857884277308" lon="13.459766186540756"><ele>1097.0</ele><time>2026-04-27T12:10:48.999Z</time></trkpt><trkpt lat="42.10857445640122" lon="13.459680047370721"><ele>1095.0</ele><time>2026-04-27T12:10:49.999Z</time></trkpt><trkpt lat="42.10855371874451" lon="13.459595618245922"><ele>1093.0</ele><time>2026-04-27T12:10:50.999Z</time></trkpt><trkpt lat="42.1085303098949" lon="13.459426809627804"><ele>1091.1666666666665</ele><time>2026-04-27T12:10:52.999Z</time></trkpt><trkpt lat="42.10852247273199" lon="13.459327816491022"><ele>1089.3333333333333</ele><time>2026-04-27T12:10:53.999Z</time></trkpt><trkpt lat="42.10851605797702" lon="13.459220694824637"><ele>1087.5</ele><time>2026-04-27T12:10:54.999Z</time></trkpt><trkpt lat="42.10850713402598" lon="13.459109711427216"><ele>1085.6666666666667</ele><time>2026-04-27T12:10:55.999Z</time></trkpt><trkpt lat="42.10850271928694" lon="13.458988715125532"><ele>1083.8333333333335</ele><time>2026-04-27T12:10:56.999Z</time></trkpt><trkpt lat="42.108506070053565" lon="13.458881774233058"><ele>1082.0</ele><time>2026-04-27T12:10:57.999Z</time></trkpt><trkpt lat="42.1085079829491" lon="13.458783383836643"><ele>1080.5</ele><time>2026-04-27T12:10:58.999Z</time></trkpt><trkpt lat="42.10851506629713" lon="13.458681530934866"><ele>1079.0</ele><time>2026-04-27T12:10:59.999Z</time></trkpt><trkpt lat="42.10853169564867" lon="13.458596661040811"><ele>1077.5</ele><time>2026-04-27T12:11:00.999Z</time></trkpt><trkpt lat="42.10853856621409" lon="13.45851088010253"><ele>1076.0</ele><time>2026-04-27T12:11:01.999Z</time></trkpt><trkpt lat="42.108554002914744" lon="13.458343623703076"><ele>1074.5</ele><time>2026-04-27T12:11:03.998Z</time></trkpt><trkpt lat="42.10855812876139" lon="13.45825435242896"><ele>1073.0</ele><time>2026-04-27T12:11:04.998Z</time></trkpt><trkpt lat="42.10855901960206" lon="13.458161395584677"><ele>1073.0</ele><time>2026-04-27T12:11:05.998Z</time></trkpt><trkpt lat="42.108558993291034" lon="13.458063606924888"><ele>1073.0</ele><time>2026-04-27T12:11:06.998Z</time></trkpt><trkpt lat="42.10856421712192" lon="13.457953523344454"><ele>1073.0</ele><time>2026-04-27T12:11:07.998Z</time></trkpt><trkpt lat="42.108585618874585" lon="13.457831410983779"><ele>1073.0</ele><time>2026-04-27T12:11:08.998Z</time></trkpt><trkpt lat="42.10862146540765" lon="13.457704996393268"><ele>1073.0</ele><time>2026-04-27T12:11:09.998Z</time></trkpt><trkpt lat="42.10865826586942" lon="13.457576832268153"><ele>1071.2</ele><time>2026-04-27T12:11:10.998Z</time></trkpt><trkpt lat="42.10867496691265" lon="13.457445931513531"><ele>1069.4</ele><time>2026-04-27T12:11:11.998Z</time></trkpt><trkpt lat="42.1086572524815" lon="13.45731152407838"><ele>1067.6000000000001</ele><time>2026-04-27T12:11:12.998Z</time></trkpt><trkpt lat="42.10864318899773" lon="13.45717867069374"><ele>1065.8</ele><time>2026-04-27T12:11:13.998Z</time></trkpt><trkpt lat="42.10864504173653" lon="13.457048770787482"><ele>1064.0</ele><time>2026-04-27T12:11:14.998Z</time></trkpt><trkpt lat="42.10864525120696" lon="13.456923394577741"><ele>1062.0</ele><time>2026-04-27T12:11:15.998Z</time></trkpt><trkpt lat="42.10864094675081" lon="13.45681354764137"><ele>1060.0</ele><time>2026-04-27T12:11:16.998Z</time></trkpt><trkpt lat="42.10867462339041" lon="13.45668644387428"><ele>1058.0</ele><time>2026-04-27T12:11:17.998Z</time></trkpt><trkpt lat="42.108662402800505" lon="13.456544378712872"><ele>1056.0</ele><time>2026-04-27T12:11:18.998Z</time></trkpt><trkpt lat="42.108653190995206" lon="13.456400788858485"><ele>1054.0</ele><time>2026-04-27T12:11:19.998Z</time></trkpt><trkpt lat="42.1086343666413" lon="13.456250961591453"><ele>1052.6000000000001</ele><time>2026-04-27T12:11:20.998Z</time></trkpt><trkpt lat="42.108609191222925" lon="13.456119813067126"><ele>1051.2</ele><time>2026-04-27T12:11:21.998Z</time></trkpt><trkpt lat="42.10858128005795" lon="13.455998626926673"><ele>1049.8000000000002</ele><time>2026-04-27T12:11:22.998Z</time></trkpt><trkpt lat="42.108539992917876" lon="13.455875422319439"><ele>1048.4</ele><time>2026-04-27T12:11:24Z</time></trkpt><trkpt lat="42.10850235584863" lon="13.455761652520584"><ele>1047.0</ele><time>2026-04-27T12:11:25Z</time></trkpt><trkpt lat="42.10847618004533" lon="13.455631242288105"><ele>1047.0</ele><time>2026-04-27T12:11:26Z</time></trkpt><trkpt lat="42.10846079888481" lon="13.45548845389475"><ele>1047.0</ele><time>2026-04-27T12:11:27Z</time></trkpt><trkpt lat="42.1084422967747" lon="13.455344612976228"><ele>1047.0</ele><time>2026-04-27T12:11:28Z</time></trkpt><trkpt lat="42.10841914519573" lon="13.455202375886794"><ele>1047.0</ele><time>2026-04-27T12:11:29Z</time></trkpt><trkpt lat="42.10839206074156" lon="13.455076571342556"><ele>1047.0</ele><time>2026-04-27T12:11:30Z</time></trkpt><trkpt lat="42.10837313127737" lon="13.454968969909453"><ele>1046.0</ele><time>2026-04-27T12:11:31Z</time></trkpt><trkpt lat="42.10835436516965" lon="13.454859336781126"><ele>1045.0</ele><time>2026-04-27T12:11:32Z</time></trkpt><trkpt lat="42.108335878417904" lon="13.454751781625212"><ele>1044.0</ele><time>2026-04-27T12:11:33Z</time></trkpt><trkpt lat="42.108319048948424" lon="13.454637605097183"><ele>1043.0</ele><time>2026-04-27T12:11:34Z</time></trkpt><trkpt lat="42.108310774702055" lon="13.454521830322825"><ele>1042.0</ele><time>2026-04-27T12:11:35Z</time></trkpt><trkpt lat="42.10829681974486" lon="13.454413133355061"><ele>1041.0</ele><time>2026-04-27T12:11:36Z</time></trkpt><trkpt lat="42.10827312698506" lon="13.454292172450936"><ele>1040.0</ele><time>2026-04-27T12:11:37Z</time></trkpt><trkpt lat="42.10826968152164" lon="13.454163438990356"><ele>1039.0</ele><time>2026-04-27T12:11:38Z</time></trkpt><trkpt lat="42.10826447489912" lon="13.45403153785889"><ele>1038.0</ele><time>2026-04-27T12:11:39Z</time></trkpt><trkpt lat="42.10824697657429" lon="13.453895155955598"><ele>1037.0</ele><time>2026-04-27T12:11:40Z</time></trkpt><trkpt lat="42.10824562582977" lon="13.453752439554862"><ele>1036.0</ele><time>2026-04-27T12:11:41Z</time></trkpt><trkpt lat="42.108226508638964" lon="13.453599529871433"><ele>1032.0</ele><time>2026-04-27T12:11:42Z</time></trkpt><trkpt lat="42.108205899747915" lon="13.453444485938704"><ele>1028.0</ele><time>2026-04-27T12:11:43Z</time></trkpt><trkpt lat="42.1081729939916" lon="13.453302538134563"><ele>1024.0</ele><time>2026-04-27T12:11:44Z</time></trkpt><trkpt lat="42.108120692515186" lon="13.453148450820064"><ele>1020.0</ele><time>2026-04-27T12:11:45Z</time></trkpt><trkpt lat="42.10807534507166" lon="13.452994821272943"><ele>1018.5</ele><time>2026-04-27T12:11:46Z</time></trkpt><trkpt lat="42.10804569294043" lon="13.452854041895883"><ele>1017.0</ele><time>2026-04-27T12:11:47Z</time></trkpt><trkpt lat="42.108053292330894" lon="13.452701259142252"><ele>1015.5</ele><time>2026-04-27T12:11:48Z</time></trkpt><trkpt lat="42.10805145073809" lon="13.452550518798102"><ele>1014.0</ele><time>2026-04-27T12:11:49Z</time></trkpt><trkpt lat="42.10803731144072" lon="13.452389039053989"><ele>1014.0</ele><time>2026-04-27T12:11:50Z</time></trkpt><trkpt lat="42.10804057798309" lon="13.45223272613208"><ele>1014.0000000000001</ele><time>2026-04-27T12:11:51Z</time></trkpt><trkpt lat="42.108040838575604" lon="13.452081377418914"><ele>1014.0000000000001</ele><time>2026-04-27T12:11:52Z</time></trkpt><trkpt lat="42.10803184806343" lon="13.45193983338084"><ele>1014.0</ele><time>2026-04-27T12:11:53Z</time></trkpt><trkpt lat="42.10800416079406" lon="13.45181466522473"><ele>1014.0</ele><time>2026-04-27T12:11:54Z</time></trkpt><trkpt lat="42.10795194764372" lon="13.451679720476628"><ele>1014.0</ele><time>2026-04-27T12:11:54.999Z</time></trkpt><trkpt lat="42.10795120953277" lon="13.451567628661396"><ele>1014.0000000000001</ele><time>2026-04-27T12:11:55.999Z</time></trkpt><trkpt lat="42.107960593086105" lon="13.45146167155623"><ele>1014.0000000000001</ele><time>2026-04-27T12:11:56.999Z</time></trkpt><trkpt lat="42.10796351958619" lon="13.451289009199353"><ele>1014.0</ele><time>2026-04-27T12:11:58.999Z</time></trkpt><trkpt lat="42.10796576630412" lon="13.45115645360067"><ele>1014.0</ele><time>2026-04-27T12:11:59.999Z</time></trkpt><trkpt lat="42.10779024890762" lon="13.451021535261244"><ele>1013.8000000000001</ele><time>2026-04-27T12:12:00.999Z</time></trkpt><trkpt lat="42.107748380050985" lon="13.450902228799594"><ele>1013.6000000000001</ele><time>2026-04-27T12:12:01.999Z</time></trkpt><trkpt lat="42.10770470587905" lon="13.45078528286725"><ele>1013.4</ele><time>2026-04-27T12:12:02.999Z</time></trkpt><trkpt lat="42.107652858506526" lon="13.450653334142649"><ele>1013.2</ele><time>2026-04-27T12:12:03.999Z</time></trkpt><trkpt lat="42.10759078464903" lon="13.450498809752665"><ele>1013.0</ele><time>2026-04-27T12:12:04.999Z</time></trkpt><trkpt lat="42.107519474617995" lon="13.450341159182672"><ele>1012.2</ele><time>2026-04-27T12:12:05.999Z</time></trkpt><trkpt lat="42.10745989062357" lon="13.450211623882941"><ele>1011.4</ele><time>2026-04-27T12:12:06.999Z</time></trkpt><trkpt lat="42.10739233420531" lon="13.450099464456006"><ele>1010.6000000000001</ele><time>2026-04-27T12:12:07.999Z</time></trkpt><trkpt lat="42.10732667024824" lon="13.44998073019358"><ele>1009.8000000000001</ele><time>2026-04-27T12:12:08.999Z</time></trkpt><trkpt lat="42.10726275078831" lon="13.449848035331273"><ele>1009.0</ele><time>2026-04-27T12:12:09.999Z</time></trkpt><trkpt lat="42.10719791343837" lon="13.449712421095475"><ele>1007.25</ele><time>2026-04-27T12:12:10.999Z</time></trkpt><trkpt lat="42.10711710964036" lon="13.44956836385813"><ele>1005.5</ele><time>2026-04-27T12:12:11.999Z</time></trkpt><trkpt lat="42.107046748389735" lon="13.449437464463262"><ele>1003.75</ele><time>2026-04-27T12:12:12.999Z</time></trkpt><trkpt lat="42.10698315934794" lon="13.449293812579892"><ele>1002.0</ele><time>2026-04-27T12:12:13.999Z</time></trkpt><trkpt lat="42.106938630710175" lon="13.449152597398468"><ele>1002.0</ele><time>2026-04-27T12:12:14.999Z</time></trkpt><trkpt lat="42.10689319107031" lon="13.449044392764645"><ele>1002.0</ele><time>2026-04-27T12:12:15.999Z</time></trkpt><trkpt lat="42.106853089638044" lon="13.448923726774904"><ele>1002.0</ele><time>2026-04-27T12:12:16.999Z</time></trkpt><trkpt lat="42.106808392586714" lon="13.448795065793083"><ele>1002.0</ele><time>2026-04-27T12:12:17.999Z</time></trkpt><trkpt lat="42.10676153577041" lon="13.448658124186855"><ele>1002.0</ele><time>2026-04-27T12:12:18.999Z</time></trkpt><trkpt lat="42.10670868323454" lon="13.448513350217516"><ele>1001.6666666666666</ele><time>2026-04-27T12:12:19.999Z</time></trkpt><trkpt lat="42.10665358086833" lon="13.448364466209616"><ele>1001.3333333333333</ele><time>2026-04-27T12:12:20.999Z</time></trkpt><trkpt lat="42.10660903736902" lon="13.448250940836518"><ele>1001.0</ele><time>2026-04-27T12:12:21.999Z</time></trkpt><trkpt lat="42.10656622646149" lon="13.44815012332828"><ele>1000.6666666666666</ele><time>2026-04-27T12:12:22.999Z</time></trkpt><trkpt lat="42.106513520783544" lon="13.448074905416272"><ele>1000.3333333333333</ele><time>2026-04-27T12:12:23.999Z</time></trkpt><trkpt lat="42.10645130866656" lon="13.448042917687863"><ele>1000.0</ele><time>2026-04-27T12:12:24.999Z</time></trkpt><trkpt lat="42.106371620195894" lon="13.448046013687051"><ele>998.9999999999999</ele><time>2026-04-27T12:12:25.999Z</time></trkpt><trkpt lat="42.10628181668219" lon="13.448040394913127"><ele>998.0</ele><time>2026-04-27T12:12:26.999Z</time></trkpt><trkpt lat="42.10619632951095" lon="13.448021582202658"><ele>997.0</ele><time>2026-04-27T12:12:27.999Z</time></trkpt><trkpt lat="42.106110163785814" lon="13.44799030550619"><ele>996.0</ele><time>2026-04-27T12:12:28.999Z</time></trkpt><trkpt lat="42.10603017935498" lon="13.447938053697321"><ele>994.9999999999999</ele><time>2026-04-27T12:12:29.999Z</time></trkpt><trkpt lat="42.10596764576386" lon="13.447867843076969"><ele>994.0</ele><time>2026-04-27T12:12:30.999Z</time></trkpt><trkpt lat="42.10591738759432" lon="13.447781703651552"><ele>993.6</ele><time>2026-04-27T12:12:31.999Z</time></trkpt><trkpt lat="42.10588846968298" lon="13.447671692921078"><ele>993.2</ele><time>2026-04-27T12:12:32.999Z</time></trkpt><trkpt lat="42.105856977806546" lon="13.447550098096823"><ele>992.8000000000001</ele><time>2026-04-27T12:12:33.999Z</time></trkpt><trkpt lat="42.105812998461204" lon="13.44741514693795"><ele>992.4000000000001</ele><time>2026-04-27T12:12:34.999Z</time></trkpt><trkpt lat="42.105778283883325" lon="13.44727797754412"><ele>992.0</ele><time>2026-04-27T12:12:35.999Z</time></trkpt><trkpt lat="42.10575415306514" lon="13.44715241612512"><ele>991.0000000000001</ele><time>2026-04-27T12:12:36.999Z</time></trkpt><trkpt lat="42.10573573486118" lon="13.44703633123619"><ele>990.0</ele><time>2026-04-27T12:12:37.999Z</time></trkpt><trkpt lat="42.105726730698" lon="13.446928861671605"><ele>989.0</ele><time>2026-04-27T12:12:38.999Z</time></trkpt><trkpt lat="42.10572960020983" lon="13.446818836641455"><ele>988.0</ele><time>2026-04-27T12:12:39.999Z</time></trkpt><trkpt lat="42.10575312072957" lon="13.446714087852321"><ele>987.0000000000001</ele><time>2026-04-27T12:12:40.999Z</time></trkpt><trkpt lat="42.10580763578569" lon="13.446635415510459"><ele>986.0</ele><time>2026-04-27T12:12:41.999Z</time></trkpt><trkpt lat="42.10584009942635" lon="13.446558439747678"><ele>986.0000000000001</ele><time>2026-04-27T12:12:42.999Z</time></trkpt><trkpt lat="42.105847205374815" lon="13.446468003821606"><ele>986.0</ele><time>2026-04-27T12:12:43.999Z</time></trkpt><trkpt lat="42.105825353358924" lon="13.446362872511864"><ele>986.0</ele><time>2026-04-27T12:12:44.999Z</time></trkpt><trkpt lat="42.105783333377694" lon="13.446263759917944"><ele>986.0</ele><time>2026-04-27T12:12:45.999Z</time></trkpt><trkpt lat="42.10573053138807" lon="13.446171223118661"><ele>986.0000000000001</ele><time>2026-04-27T12:12:46.999Z</time></trkpt><trkpt lat="42.105676409033485" lon="13.446050199116954"><ele>986.0</ele><time>2026-04-27T12:12:47.999Z</time></trkpt><trkpt lat="42.10563030612794" lon="13.445939816930721"><ele>984.1999999999999</ele><time>2026-04-27T12:12:48.999Z</time></trkpt><trkpt lat="42.10559413600107" lon="13.445850487527068"><ele>982.3999999999999</ele><time>2026-04-27T12:12:49.999Z</time></trkpt><trkpt lat="42.105550243449635" lon="13.44575333411824"><ele>980.6</ele><time>2026-04-27T12:12:50.999Z</time></trkpt><trkpt lat="42.10550286630307" lon="13.445639517642928"><ele>978.8</ele><time>2026-04-27T12:12:51.999Z</time></trkpt><trkpt lat="42.10544824782961" lon="13.445523103780728"><ele>977.0</ele><time>2026-04-27T12:12:52.999Z</time></trkpt><trkpt lat="42.105398408665906" lon="13.44540097128943"><ele>977.0</ele><time>2026-04-27T12:12:53.999Z</time></trkpt><trkpt lat="42.10536097744837" lon="13.445276855736683"><ele>977.0</ele><time>2026-04-27T12:12:54.999Z</time></trkpt><trkpt lat="42.105319911553245" lon="13.445145557228381"><ele>977.0</ele><time>2026-04-27T12:12:55.999Z</time></trkpt><trkpt lat="42.10527451979193" lon="13.445010327067598"><ele>977.0</ele><time>2026-04-27T12:12:56.999Z</time></trkpt><trkpt lat="42.10521433003461" lon="13.444881696420671"><ele>977.0</ele><time>2026-04-27T12:12:57.999Z</time></trkpt><trkpt lat="42.10516908010316" lon="13.444722573695735"><ele>976.5</ele><time>2026-04-27T12:12:58.999Z</time></trkpt><trkpt lat="42.10511275660205" lon="13.444570498691558"><ele>976.0</ele><time>2026-04-27T12:12:59.999Z</time></trkpt><trkpt lat="42.105050736881104" lon="13.44442231751236"><ele>975.5</ele><time>2026-04-27T12:13:00.999Z</time></trkpt><trkpt lat="42.10498680152579" lon="13.444275257450805"><ele>975.0</ele><time>2026-04-27T12:13:01.999Z</time></trkpt><trkpt lat="42.104922359927855" lon="13.444114960101407"><ele>974.5</ele><time>2026-04-27T12:13:02.999Z</time></trkpt><trkpt lat="42.10486361604775" lon="13.443952981369614"><ele>974.0</ele><time>2026-04-27T12:13:03.999Z</time></trkpt><trkpt lat="42.10479523016181" lon="13.443821884404473"><ele>973.5</ele><time>2026-04-27T12:13:04.999Z</time></trkpt><trkpt lat="42.10470901846263" lon="13.443704966017398"><ele>973.0</ele><time>2026-04-27T12:13:05.998Z</time></trkpt><trkpt lat="42.10463609607929" lon="13.443585838538988"><ele>973.0</ele><time>2026-04-27T12:13:06.998Z</time></trkpt><trkpt lat="42.104586140911834" lon="13.443436995141592"><ele>973.0</ele><time>2026-04-27T12:13:07.998Z</time></trkpt><trkpt lat="42.10454485248061" lon="13.443266873341077"><ele>973.0</ele><time>2026-04-27T12:13:08.998Z</time></trkpt><trkpt lat="42.10448083917767" lon="13.443114014207298"><ele>973.0</ele><time>2026-04-27T12:13:09.998Z</time></trkpt><trkpt lat="42.10439834250903" lon="13.442970304338907"><ele>973.0</ele><time>2026-04-27T12:13:10.998Z</time></trkpt><trkpt lat="42.104311051159094" lon="13.442839402174434"><ele>973.0</ele><time>2026-04-27T12:13:11.998Z</time></trkpt><trkpt lat="42.104226281503166" lon="13.442707111795196"><ele>973.0</ele><time>2026-04-27T12:13:12.998Z</time></trkpt><trkpt lat="42.104148146639446" lon="13.442565337850292"><ele>973.0</ele><time>2026-04-27T12:13:13.998Z</time></trkpt><trkpt lat="42.1040834574363" lon="13.442403966901644"><ele>972.25</ele><time>2026-04-27T12:13:14.998Z</time></trkpt><trkpt lat="42.10402434834229" lon="13.442250022030827"><ele>971.5</ele><time>2026-04-27T12:13:15.998Z</time></trkpt><trkpt lat="42.10395903456641" lon="13.44208044153225"><ele>970.75</ele><time>2026-04-27T12:13:16.998Z</time></trkpt><trkpt lat="42.10389637052689" lon="13.441910217100595"><ele>970.0</ele><time>2026-04-27T12:13:17.998Z</time></trkpt><trkpt lat="42.10383082228029" lon="13.441738772687932"><ele>970.0</ele><time>2026-04-27T12:13:18.998Z</time></trkpt><trkpt lat="42.10374926796455" lon="13.441571490957987"><ele>970.0</ele><time>2026-04-27T12:13:19.998Z</time></trkpt><trkpt lat="42.10366114395897" lon="13.441425011600499"><ele>970.0</ele><time>2026-04-27T12:13:20.998Z</time></trkpt><trkpt lat="42.10356706708451" lon="13.441282090600707"><ele>970.0</ele><time>2026-04-27T12:13:21.998Z</time></trkpt><trkpt lat="42.10347276681458" lon="13.441148908283289"><ele>970.75</ele><time>2026-04-27T12:13:22.998Z</time></trkpt><trkpt lat="42.10338413723338" lon="13.441005451377315"><ele>971.5</ele><time>2026-04-27T12:13:23.998Z</time></trkpt><trkpt lat="42.103308679760595" lon="13.44085755551413"><ele>972.25</ele><time>2026-04-27T12:13:24.998Z</time></trkpt><trkpt lat="42.10325316378588" lon="13.440719232245492"><ele>973.0</ele><time>2026-04-27T12:13:25.998Z</time></trkpt><trkpt lat="42.10318982012483" lon="13.440587928700895"><ele>972.75</ele><time>2026-04-27T12:13:26.998Z</time></trkpt><trkpt lat="42.103117899456436" lon="13.440477534782692"><ele>972.5</ele><time>2026-04-27T12:13:27.998Z</time></trkpt><trkpt lat="42.10302141312131" lon="13.440352395868256"><ele>972.25</ele><time>2026-04-27T12:13:28.998Z</time></trkpt><trkpt lat="42.10291707149204" lon="13.440238301378923"><ele>972.0</ele><time>2026-04-27T12:13:30Z</time></trkpt><trkpt lat="42.10279780385395" lon="13.44014141906182"><ele>972.0</ele><time>2026-04-27T12:13:31Z</time></trkpt><trkpt lat="42.102666542436324" lon="13.440069403779429"><ele>972.0</ele><time>2026-04-27T12:13:32Z</time></trkpt><trkpt lat="42.102538856976544" lon="13.440020674939019"><ele>972.0</ele><time>2026-04-27T12:13:33Z</time></trkpt><trkpt lat="42.10243242156285" lon="13.439960223131273"><ele>972.0</ele><time>2026-04-27T12:13:34Z</time></trkpt><trkpt lat="42.1023374861216" lon="13.439872749588922"><ele>971.75</ele><time>2026-04-27T12:13:35Z</time></trkpt><trkpt lat="42.10225380351413" lon="13.439764379306988"><ele>971.5</ele><time>2026-04-27T12:13:36Z</time></trkpt><trkpt lat="42.10216600713402" lon="13.439633806008645"><ele>971.25</ele><time>2026-04-27T12:13:37Z</time></trkpt><trkpt lat="42.10207703672405" lon="13.439496484453013"><ele>971.0</ele><time>2026-04-27T12:13:38Z</time></trkpt><trkpt lat="42.10198183227764" lon="13.439348315174628"><ele>972.0</ele><time>2026-04-27T12:13:39Z</time></trkpt><trkpt lat="42.10188989123831" lon="13.439205908784528"><ele>973.0</ele><time>2026-04-27T12:13:40Z</time></trkpt><trkpt lat="42.10178624353017" lon="13.43907315730119"><ele>974.0</ele><time>2026-04-27T12:13:41Z</time></trkpt><trkpt lat="42.101679029255195" lon="13.438935407920384"><ele>975.0</ele><time>2026-04-27T12:13:42Z</time></trkpt><trkpt lat="42.10158141307854" lon="13.438795298194956"><ele>975.0</ele><time>2026-04-27T12:13:43Z</time></trkpt><trkpt lat="42.10148224450853" lon="13.438644463213745"><ele>975.0</ele><time>2026-04-27T12:13:44Z</time></trkpt><trkpt lat="42.10138851209227" lon="13.438487091616068"><ele>975.0</ele><time>2026-04-27T12:13:45Z</time></trkpt><trkpt lat="42.10130082587223" lon="13.438329848892243"><ele>975.0</ele><time>2026-04-27T12:13:46Z</time></trkpt><trkpt lat="42.10121457937267" lon="13.438168938584111"><ele>975.0</ele><time>2026-04-27T12:13:47Z</time></trkpt><trkpt lat="42.10112185612664" lon="13.438014618627461"><ele>975.0</ele><time>2026-04-27T12:13:48Z</time></trkpt><trkpt lat="42.10102916787862" lon="13.437863550551262"><ele>975.0</ele><time>2026-04-27T12:13:49Z</time></trkpt><trkpt lat="42.10094476548452" lon="13.437718547622595"><ele>975.0</ele><time>2026-04-27T12:13:50Z</time></trkpt><trkpt lat="42.10087318677466" lon="13.43758555978563"><ele>975.0</ele><time>2026-04-27T12:13:51Z</time></trkpt><trkpt lat="42.100813357016385" lon="13.437474736298974"><ele>975.0</ele><time>2026-04-27T12:13:52Z</time></trkpt><trkpt lat="42.100759353981374" lon="13.437382898543298"><ele>975.0</ele><time>2026-04-27T12:13:53Z</time></trkpt><trkpt lat="42.100716873245375" lon="13.437307818580859"><ele>975.0</ele><time>2026-04-27T12:13:54Z</time></trkpt><trkpt lat="42.100655061277905" lon="13.437226355631937"><ele>975.0</ele><time>2026-04-27T12:13:55.999Z</time></trkpt><trkpt lat="42.10061259015371" lon="13.437150456992361"><ele>975.0</ele><time>2026-04-27T12:13:56.999Z</time></trkpt><trkpt lat="42.10056674829059" lon="13.437054037020252"><ele>974.25</ele><time>2026-04-27T12:13:57.999Z</time></trkpt><trkpt lat="42.10051179174198" lon="13.436939374503874"><ele>973.5</ele><time>2026-04-27T12:13:58.999Z</time></trkpt><trkpt lat="42.100447792276576" lon="13.436807821639947"><ele>972.75</ele><time>2026-04-27T12:13:59.999Z</time></trkpt><trkpt lat="42.10038464126328" lon="13.436674415020718"><ele>972.0</ele><time>2026-04-27T12:14:00.999Z</time></trkpt><trkpt lat="42.100306981310055" lon="13.436524369845877"><ele>972.0</ele><time>2026-04-27T12:14:01.999Z</time></trkpt><trkpt lat="42.10022513371808" lon="13.43636152427317"><ele>972.0</ele><time>2026-04-27T12:14:02.999Z</time></trkpt><trkpt lat="42.100149555169345" lon="13.436182012048016"><ele>972.0</ele><time>2026-04-27T12:14:03.999Z</time></trkpt><trkpt lat="42.10007988026591" lon="13.436008258239315"><ele>972.0</ele><time>2026-04-27T12:14:04.999Z</time></trkpt><trkpt lat="42.10001506203327" lon="13.435845492444454"><ele>972.0</ele><time>2026-04-27T12:14:05.999Z</time></trkpt><trkpt lat="42.099966008223184" lon="13.435714798148792"><ele>972.0</ele><time>2026-04-27T12:14:06.999Z</time></trkpt><trkpt lat="42.099914197581604" lon="13.435583224157895"><ele>972.0</ele><time>2026-04-27T12:14:07.999Z</time></trkpt><trkpt lat="42.09986222697773" lon="13.435443783566916"><ele>972.0</ele><time>2026-04-27T12:14:08.999Z</time></trkpt><trkpt lat="42.09981761054832" lon="13.435313543215473"><ele>972.0</ele><time>2026-04-27T12:14:09.999Z</time></trkpt><trkpt lat="42.09977125089935" lon="13.435171368551602"><ele>972.4000000000001</ele><time>2026-04-27T12:14:10.999Z</time></trkpt><trkpt lat="42.099725673047274" lon="13.435024497335306"><ele>972.8000000000001</ele><time>2026-04-27T12:14:11.999Z</time></trkpt><trkpt lat="42.099672793800316" lon="13.434887792887956"><ele>973.2</ele><time>2026-04-27T12:14:12.999Z</time></trkpt><trkpt lat="42.09962660188316" lon="13.434765093854622"><ele>973.6</ele><time>2026-04-27T12:14:13.999Z</time></trkpt><trkpt lat="42.09957838723226" lon="13.434653721344873"><ele>974.0</ele><time>2026-04-27T12:14:14.999Z</time></trkpt><trkpt lat="42.09953404368666" lon="13.43455332018178"><ele>974.1666666666667</ele><time>2026-04-27T12:14:15.999Z</time></trkpt><trkpt lat="42.099494310457686" lon="13.434452221210035"><ele>974.3333333333334</ele><time>2026-04-27T12:14:16.999Z</time></trkpt><trkpt lat="42.09945787428233" lon="13.434344918097496"><ele>974.5</ele><time>2026-04-27T12:14:17.999Z</time></trkpt><trkpt lat="42.099421720874766" lon="13.434234239837542"><ele>974.6666666666667</ele><time>2026-04-27T12:14:18.999Z</time></trkpt><trkpt lat="42.09939498760595" lon="13.434140703523086"><ele>974.8333333333334</ele><time>2026-04-27T12:14:19.999Z</time></trkpt><trkpt lat="42.09937770120209" lon="13.434058031801175"><ele>975.0</ele><time>2026-04-27T12:14:20.999Z</time></trkpt><trkpt lat="42.09936796947252" lon="13.433970086246205"><ele>975.0</ele><time>2026-04-27T12:14:22.999Z</time></trkpt><trkpt lat="42.09932696949116" lon="13.433872903958516"><ele>975.0</ele><time>2026-04-27T12:14:24.999Z</time></trkpt><trkpt lat="42.09927663627629" lon="13.433800032119345"><ele>975.0</ele><time>2026-04-27T12:14:25.999Z</time></trkpt><trkpt lat="42.09921522678197" lon="13.43372584002898"><ele>975.0</ele><time>2026-04-27T12:14:26.999Z</time></trkpt><trkpt lat="42.09914184115126" lon="13.433668373917966"><ele>975.0</ele><time>2026-04-27T12:14:27.999Z</time></trkpt><trkpt lat="42.099055850579475" lon="13.433594872384234"><ele>975.0</ele><time>2026-04-27T12:14:28.999Z</time></trkpt><trkpt lat="42.09896136499121" lon="13.43349395048967"><ele>974.25</ele><time>2026-04-27T12:14:29.999Z</time></trkpt><trkpt lat="42.098867551751475" lon="13.433392346918842"><ele>973.5</ele><time>2026-04-27T12:14:30.999Z</time></trkpt><trkpt lat="42.09876823009331" lon="13.433289357175434"><ele>972.75</ele><time>2026-04-27T12:14:31.999Z</time></trkpt><trkpt lat="42.09865599154414" lon="13.433182100297753"><ele>972.0</ele><time>2026-04-27T12:14:32.999Z</time></trkpt><trkpt lat="42.098543230662756" lon="13.433072254048128"><ele>971.25</ele><time>2026-04-27T12:14:33.999Z</time></trkpt><trkpt lat="42.09843569538786" lon="13.432965710085487"><ele>970.5</ele><time>2026-04-27T12:14:34.999Z</time></trkpt><trkpt lat="42.09833379954157" lon="13.432859959740947"><ele>969.75</ele><time>2026-04-27T12:14:35.999Z</time></trkpt><trkpt lat="42.098235336994826" lon="13.43275934958545"><ele>969.0</ele><time>2026-04-27T12:14:36.999Z</time></trkpt><trkpt lat="42.09814203745977" lon="13.43265978654318"><ele>969.0</ele><time>2026-04-27T12:14:37.999Z</time></trkpt><trkpt lat="42.09805212236048" lon="13.432565430472712"><ele>969.0</ele><time>2026-04-27T12:14:38.999Z</time></trkpt><trkpt lat="42.097980230001404" lon="13.432486721951554"><ele>969.0</ele><time>2026-04-27T12:14:39.999Z</time></trkpt><trkpt lat="42.09792304767729" lon="13.432399537406575"><ele>969.0</ele><time>2026-04-27T12:14:41.999Z</time></trkpt><trkpt lat="42.09807817289665" lon="13.432250070394833"><ele>969.0</ele><time>2026-04-27T12:14:47.999Z</time></trkpt><trkpt lat="42.09816601607404" lon="13.432314624393323"><ele>969.0</ele><time>2026-04-27T12:14:48.999Z</time></trkpt><trkpt lat="42.09824982633518" lon="13.432399829863005"><ele>969.0</ele><time>2026-04-27T12:14:49.999Z</time></trkpt><trkpt lat="42.098355428369345" lon="13.432490760473675"><ele>969.0</ele><time>2026-04-27T12:14:50.999Z</time></trkpt><trkpt lat="42.09846487074661" lon="13.43256338449717"><ele>967.5</ele><time>2026-04-27T12:14:51.999Z</time></trkpt><trkpt lat="42.09858007827013" lon="13.432667499672664"><ele>966.0</ele><time>2026-04-27T12:14:52.999Z</time></trkpt><trkpt lat="42.098682462125865" lon="13.432758045018126"><ele>964.5</ele><time>2026-04-27T12:14:53.999Z</time></trkpt><trkpt lat="42.09879172571984" lon="13.432840125251985"><ele>963.0</ele><time>2026-04-27T12:14:54.999Z</time></trkpt><trkpt lat="42.09892446534602" lon="13.432909773243653"><ele>963.0</ele><time>2026-04-27T12:14:55.999Z</time></trkpt><trkpt lat="42.09904411763625" lon="13.432945442038816"><ele>963.0</ele><time>2026-04-27T12:14:56.999Z</time></trkpt><trkpt lat="42.09916238513023" lon="13.432966807140145"><ele>963.0</ele><time>2026-04-27T12:14:57.999Z</time></trkpt><trkpt lat="42.099267179850834" lon="13.432992501431071"><ele>963.0</ele><time>2026-04-27T12:14:58.999Z</time></trkpt><trkpt lat="42.09933803636839" lon="13.433044592260796"><ele>963.0</ele><time>2026-04-27T12:14:59.999Z</time></trkpt><trkpt lat="42.09940126267824" lon="13.433105066060488"><ele>964.0</ele><time>2026-04-27T12:15:00.999Z</time></trkpt><trkpt lat="42.09946387604887" lon="13.433118168107281"><ele>965.0</ele><time>2026-04-27T12:15:01.999Z</time></trkpt><trkpt lat="42.09952685293343" lon="13.433082268926597"><ele>966.0</ele><time>2026-04-27T12:15:02.999Z</time></trkpt><trkpt lat="42.09959459262998" lon="13.43301725181047"><ele>967.0</ele><time>2026-04-27T12:15:03.999Z</time></trkpt><trkpt lat="42.09966335465506" lon="13.432953258997905"><ele>968.0</ele><time>2026-04-27T12:15:04.999Z</time></trkpt><trkpt lat="42.09974302567598" lon="13.432910177973755"><ele>969.0</ele><time>2026-04-27T12:15:05.998Z</time></trkpt><trkpt lat="42.09982009689875" lon="13.432880346345902"><ele>966.2857142857142</ele><time>2026-04-27T12:15:06.998Z</time></trkpt><trkpt lat="42.09989065801113" lon="13.432842046054438"><ele>963.5714285714286</ele><time>2026-04-27T12:15:07.998Z</time></trkpt><trkpt lat="42.09995129113522" lon="13.432788768819872"><ele>960.8571428571429</ele><time>2026-04-27T12:15:08.998Z</time></trkpt><trkpt lat="42.10001190161758" lon="13.432723374364716"><ele>958.1428571428571</ele><time>2026-04-27T12:15:09.998Z</time></trkpt><trkpt lat="42.10006125148857" lon="13.432650210161981"><ele>955.4285714285716</ele><time>2026-04-27T12:15:10.998Z</time></trkpt><trkpt lat="42.10011214304969" lon="13.43257764268338"><ele>952.7142857142858</ele><time>2026-04-27T12:15:11.998Z</time></trkpt><trkpt lat="42.10015580889022" lon="13.432499557287079"><ele>950.0</ele><time>2026-04-27T12:15:12.998Z</time></trkpt><trkpt lat="42.100190403103525" lon="13.432407350936417"><ele>950.0000000000001</ele><time>2026-04-27T12:15:13.998Z</time></trkpt><trkpt lat="42.10021918284599" lon="13.432316311305042"><ele>950.0</ele><time>2026-04-27T12:15:14.998Z</time></trkpt><trkpt lat="42.10025926472686" lon="13.432227889407391"><ele>950.0</ele><time>2026-04-27T12:15:15.998Z</time></trkpt><trkpt lat="42.10031179640893" lon="13.43214257108797"><ele>950.0</ele><time>2026-04-27T12:15:17.998Z</time></trkpt><trkpt lat="42.100313059527345" lon="13.432053125769311"><ele>950.0000000000001</ele><time>2026-04-27T12:15:21.998Z</time></trkpt><trkpt lat="42.10023147337852" lon="13.432025685530881"><ele>950.0</ele><time>2026-04-27T12:15:23.998Z</time></trkpt><trkpt lat="42.10016495666858" lon="13.431942867018527"><ele>949.3333333333334</ele><time>2026-04-27T12:15:25.998Z</time></trkpt><trkpt lat="42.10010423029897" lon="13.431861436475186"><ele>948.6666666666667</ele><time>2026-04-27T12:15:27.998Z</time></trkpt><trkpt lat="42.100032598466846" lon="13.431845765737563"><ele>948.0</ele><time>2026-04-27T12:15:29.998Z</time></trkpt><trkpt lat="42.09993639818527" lon="13.431835669046649"><ele>947.3333333333333</ele><time>2026-04-27T12:15:31.998Z</time></trkpt><trkpt lat="42.099862510840396" lon="13.43177526534457"><ele>946.6666666666666</ele><time>2026-04-27T12:15:33.998Z</time></trkpt><trkpt lat="42.09978563595964" lon="13.431708998722971"><ele>946.0</ele><time>2026-04-27T12:15:36Z</time></trkpt><trkpt lat="42.09974252886558" lon="13.431624508489678"><ele>946.5999999999999</ele><time>2026-04-27T12:15:38Z</time></trkpt><trkpt lat="42.09973356514386" lon="13.431531434437575"><ele>947.1999999999999</ele><time>2026-04-27T12:15:41Z</time></trkpt><trkpt lat="42.09976759049768" lon="13.431408166100029"><ele>947.8000000000001</ele><time>2026-04-27T12:15:43Z</time></trkpt><trkpt lat="42.09981521094779" lon="13.431300267271519"><ele>948.4000000000001</ele><time>2026-04-27T12:15:45Z</time></trkpt><trkpt lat="42.09978315445337" lon="13.431145162260265"><ele>949.0</ele><time>2026-04-27T12:15:47Z</time></trkpt><trkpt lat="42.099698988414325" lon="13.431033198576039"><ele>949.0</ele><time>2026-04-27T12:15:49Z</time></trkpt><trkpt lat="42.099628895557665" lon="13.43091107046028"><ele>949.0000000000001</ele><time>2026-04-27T12:15:51Z</time></trkpt><trkpt lat="42.099561220397" lon="13.430810836923667"><ele>949.0000000000001</ele><time>2026-04-27T12:15:53Z</time></trkpt><trkpt lat="42.0994930358085" lon="13.430674341561911"><ele>949.0</ele><time>2026-04-27T12:15:55Z</time></trkpt><trkpt lat="42.099461429272104" lon="13.430591295141365"><ele>949.0</ele><time>2026-04-27T12:15:56Z</time></trkpt><trkpt lat="42.099432309141655" lon="13.430502629472308"><ele>951.4999999999999</ele><time>2026-04-27T12:15:57Z</time></trkpt><trkpt lat="42.0993985921933" lon="13.430415824377382"><ele>954.0</ele><time>2026-04-27T12:15:58Z</time></trkpt><trkpt lat="42.09936306294768" lon="13.430327335332084"><ele>956.5</ele><time>2026-04-27T12:15:59Z</time></trkpt><trkpt lat="42.099328938301504" lon="13.430234522264888"><ele>959.0</ele><time>2026-04-27T12:15:59.999Z</time></trkpt><trkpt lat="42.09928749570876" lon="13.430132756084165"><ele>961.4999999999999</ele><time>2026-04-27T12:16:00.999Z</time></trkpt><trkpt lat="42.09924339508563" lon="13.430024549244981"><ele>964.0</ele><time>2026-04-27T12:16:01.999Z</time></trkpt><trkpt lat="42.09919632798984" lon="13.429936374890431"><ele>963.9999999999999</ele><time>2026-04-27T12:16:02.999Z</time></trkpt><trkpt lat="42.09914433680985" lon="13.429885778316647"><ele>964.0</ele><time>2026-04-27T12:16:03.999Z</time></trkpt><trkpt lat="42.099066117849425" lon="13.429850222249534"><ele>964.0</ele><time>2026-04-27T12:16:04.999Z</time></trkpt><trkpt lat="42.098982838429066" lon="13.429816075659609"><ele>964.0</ele><time>2026-04-27T12:16:05.999Z</time></trkpt><trkpt lat="42.098920505739564" lon="13.429768588486036"><ele>963.9999999999999</ele><time>2026-04-27T12:16:06.999Z</time></trkpt><trkpt lat="42.09884539355531" lon="13.429682111481"><ele>964.0</ele><time>2026-04-27T12:16:08.999Z</time></trkpt><trkpt lat="42.098766102034276" lon="13.429577281088022"><ele>961.2</ele><time>2026-04-27T12:16:10.999Z</time></trkpt><trkpt lat="42.09872413398906" lon="13.42951389283123"><ele>958.4000000000001</ele><time>2026-04-27T12:16:11.999Z</time></trkpt><trkpt lat="42.09868407899859" lon="13.429382531883762"><ele>955.6</ele><time>2026-04-27T12:16:13.999Z</time></trkpt><trkpt lat="42.098678983396" lon="13.429259036182252"><ele>952.8</ele><time>2026-04-27T12:16:15.999Z</time></trkpt><trkpt lat="42.098628526860224" lon="13.429117482014558"><ele>950.0</ele><time>2026-04-27T12:16:17.999Z</time></trkpt><trkpt lat="42.09858930764079" lon="13.428974371577786"><ele>950.0</ele><time>2026-04-27T12:16:19.999Z</time></trkpt><trkpt lat="42.098572824225606" lon="13.42889170276125"><ele>950.0000000000001</ele><time>2026-04-27T12:16:20.999Z</time></trkpt><trkpt lat="42.098547067659105" lon="13.428803825617745"><ele>950.0</ele><time>2026-04-27T12:16:21.999Z</time></trkpt><trkpt lat="42.09852018667792" lon="13.428705717251923"><ele>950.0</ele><time>2026-04-27T12:16:22.999Z</time></trkpt><trkpt lat="42.098501047311814" lon="13.428605674680279"><ele>950.0000000000001</ele><time>2026-04-27T12:16:23.999Z</time></trkpt><trkpt lat="42.09848714945965" lon="13.428514428925148"><ele>950.0</ele><time>2026-04-27T12:16:24.999Z</time></trkpt><trkpt lat="42.09845777133507" lon="13.428415258853933"><ele>950.0</ele><time>2026-04-27T12:16:25.999Z</time></trkpt><trkpt lat="42.09842040896" lon="13.42831500692081"><ele>951.0</ele><time>2026-04-27T12:16:26.999Z</time></trkpt><trkpt lat="42.09838576286672" lon="13.4282062526363"><ele>952.0</ele><time>2026-04-27T12:16:27.999Z</time></trkpt><trkpt lat="42.09836078327096" lon="13.428090419620148"><ele>953.0</ele><time>2026-04-27T12:16:28.999Z</time></trkpt><trkpt lat="42.098342225191566" lon="13.427972806763362"><ele>954.0</ele><time>2026-04-27T12:16:29.999Z</time></trkpt><trkpt lat="42.09831677087986" lon="13.42784654507491"><ele>955.0</ele><time>2026-04-27T12:16:30.999Z</time></trkpt><trkpt lat="42.09827916462897" lon="13.427694962534819"><ele>951.0</ele><time>2026-04-27T12:16:31.999Z</time></trkpt><trkpt lat="42.098240669506986" lon="13.427537594603512"><ele>947.0</ele><time>2026-04-27T12:16:32.999Z</time></trkpt><trkpt lat="42.09819802382816" lon="13.427380143536512"><ele>943.0</ele><time>2026-04-27T12:16:33.999Z</time></trkpt><trkpt lat="42.09815327049199" lon="13.427268288949147"><ele>939.0</ele><time>2026-04-27T12:16:34.999Z</time></trkpt><trkpt lat="42.09816079349213" lon="13.427149800097308"><ele>935.0</ele><time>2026-04-27T12:16:36.999Z</time></trkpt><trkpt lat="42.09819824291978" lon="13.427051410979317"><ele>939.4</ele><time>2026-04-27T12:16:38.999Z</time></trkpt><trkpt lat="42.098306337088125" lon="13.42691712010945"><ele>943.8</ele><time>2026-04-27T12:16:40.999Z</time></trkpt><trkpt lat="42.09837652964306" lon="13.426859383047079"><ele>948.2</ele><time>2026-04-27T12:16:41.999Z</time></trkpt><trkpt lat="42.098448553993805" lon="13.426754707296555"><ele>952.6</ele><time>2026-04-27T12:16:43.999Z</time></trkpt><trkpt lat="42.09848566301981" lon="13.426611269377599"><ele>957.0</ele><time>2026-04-27T12:16:45.999Z</time></trkpt><trkpt lat="42.09847626176971" lon="13.426466359347097"><ele>957.0</ele><time>2026-04-27T12:16:47.999Z</time></trkpt><trkpt lat="42.09847788389448" lon="13.426369296046094"><ele>957.0</ele><time>2026-04-27T12:16:48.999Z</time></trkpt><trkpt lat="42.09848856559673" lon="13.426261478726834"><ele>957.0</ele><time>2026-04-27T12:16:49.999Z</time></trkpt><trkpt lat="42.09847404658238" lon="13.426129580042806"><ele>957.0</ele><time>2026-04-27T12:16:50.999Z</time></trkpt><trkpt lat="42.09845331728766" lon="13.426034635792304"><ele>957.0</ele><time>2026-04-27T12:16:51.999Z</time></trkpt><trkpt lat="42.09842247907399" lon="13.425934908617318"><ele>957.0</ele><time>2026-04-27T12:16:53.999Z</time></trkpt><trkpt lat="42.09840225881292" lon="13.425841265698397"><ele>956.8333333333334</ele><time>2026-04-27T12:16:55.999Z</time></trkpt><trkpt lat="42.09843554119538" lon="13.425766341026536"><ele>956.6666666666667</ele><time>2026-04-27T12:17:09.998Z</time></trkpt><trkpt lat="42.09848047003916" lon="13.425695829148987"><ele>956.5</ele><time>2026-04-27T12:17:10.998Z</time></trkpt><trkpt lat="42.098540150820796" lon="13.42562413057166"><ele>956.3333333333334</ele><time>2026-04-27T12:17:11.998Z</time></trkpt><trkpt lat="42.098587384766454" lon="13.425562898557915"><ele>956.1666666666667</ele><time>2026-04-27T12:17:12.998Z</time></trkpt><trkpt lat="42.098699936335514" lon="13.425546929313471"><ele>956.0</ele><time>2026-04-27T12:17:14.998Z</time></trkpt><trkpt lat="42.09877837108769" lon="13.425555159172822"><ele>956.0</ele><time>2026-04-27T12:17:15.998Z</time></trkpt><trkpt lat="42.09885495832215" lon="13.425537636757081"><ele>955.9999999999999</ele><time>2026-04-27T12:17:17.998Z</time></trkpt><trkpt lat="42.09890405729062" lon="13.425399934875317"><ele>955.9999999999999</ele><time>2026-04-27T12:17:19.998Z</time></trkpt><trkpt lat="42.098951392770864" lon="13.425270024256363"><ele>956.0</ele><time>2026-04-27T12:17:21.998Z</time></trkpt><trkpt lat="42.0990092341852" lon="13.425210820648392"><ele>956.0</ele><time>2026-04-27T12:17:22.998Z</time></trkpt><trkpt lat="42.09908075099959" lon="13.42515209019488"><ele>955.5000000000001</ele><time>2026-04-27T12:17:23.998Z</time></trkpt><trkpt lat="42.09913890932329" lon="13.425083080716803"><ele>955.0</ele><time>2026-04-27T12:17:24.998Z</time></trkpt><trkpt lat="42.0991891260199" lon="13.4249123350143"><ele>954.5</ele><time>2026-04-27T12:17:26.998Z</time></trkpt><trkpt lat="42.09920557331341" lon="13.424812173545238"><ele>954.0</ele><time>2026-04-27T12:17:27.999Z</time></trkpt><trkpt lat="42.0992230331604" lon="13.424707259763256"><ele>953.5000000000001</ele><time>2026-04-27T12:17:28.999Z</time></trkpt><trkpt lat="42.09924857573174" lon="13.424606912257225"><ele>953.0</ele><time>2026-04-27T12:17:29.999Z</time></trkpt><trkpt lat="42.09927055278192" lon="13.424512089562265"><ele>952.4</ele><time>2026-04-27T12:17:30.999Z</time></trkpt><trkpt lat="42.09927836759031" lon="13.42440340058027"><ele>951.8</ele><time>2026-04-27T12:17:31.999Z</time></trkpt><trkpt lat="42.09928176832658" lon="13.42427984383361"><ele>951.2</ele><time>2026-04-27T12:17:32.999Z</time></trkpt><trkpt lat="42.09928337145332" lon="13.424157616882363"><ele>950.6</ele><time>2026-04-27T12:17:33.999Z</time></trkpt><trkpt lat="42.09930027561935" lon="13.42401051941773"><ele>950.0</ele><time>2026-04-27T12:17:34.999Z</time></trkpt><trkpt lat="42.099312582363" lon="13.423856399975612"><ele>949.25</ele><time>2026-04-27T12:17:35.999Z</time></trkpt><trkpt lat="42.099345613776045" lon="13.423712603136732"><ele>948.5</ele><time>2026-04-27T12:17:36.999Z</time></trkpt><trkpt lat="42.09937369323316" lon="13.423560545025333"><ele>947.75</ele><time>2026-04-27T12:17:37.999Z</time></trkpt><trkpt lat="42.09938496869054" lon="13.42340068821796"><ele>947.0</ele><time>2026-04-27T12:17:38.999Z</time></trkpt><trkpt lat="42.09938968621242" lon="13.423224698937075"><ele>947.0</ele><time>2026-04-27T12:17:39.999Z</time></trkpt><trkpt lat="42.0994043985863" lon="13.42304783937501"><ele>947.0</ele><time>2026-04-27T12:17:40.999Z</time></trkpt><trkpt lat="42.09941582710172" lon="13.422868800858149"><ele>947.0</ele><time>2026-04-27T12:17:42.001Z</time></trkpt><trkpt lat="42.09941453254944" lon="13.422680371994314"><ele>947.0</ele><time>2026-04-27T12:17:43.001Z</time></trkpt><trkpt lat="42.09940388417966" lon="13.422491491104893"><ele>946.25</ele><time>2026-04-27T12:17:44.001Z</time></trkpt><trkpt lat="42.099393025787435" lon="13.42229727612814"><ele>945.5</ele><time>2026-04-27T12:17:45.001Z</time></trkpt><trkpt lat="42.09938814073827" lon="13.422101205872456"><ele>944.75</ele><time>2026-04-27T12:17:46.001Z</time></trkpt><trkpt lat="42.099386730797086" lon="13.421898899346193"><ele>944.0</ele><time>2026-04-27T12:17:47.001Z</time></trkpt><trkpt lat="42.09939160578408" lon="13.421699082851768"><ele>943.0</ele><time>2026-04-27T12:17:48.001Z</time></trkpt><trkpt lat="42.09939960022679" lon="13.421505608211907"><ele>942.0</ele><time>2026-04-27T12:17:49.001Z</time></trkpt><trkpt lat="42.099410466547155" lon="13.421289391485853"><ele>941.0</ele><time>2026-04-27T12:17:50.001Z</time></trkpt><trkpt lat="42.09942187404952" lon="13.421085691647002"><ele>939.5</ele><time>2026-04-27T12:17:51.001Z</time></trkpt><trkpt lat="42.09943421378041" lon="13.420902177599343"><ele>938.0</ele><time>2026-04-27T12:17:52.001Z</time></trkpt><trkpt lat="42.09944479396748" lon="13.420728216725742"><ele>936.5</ele><time>2026-04-27T12:17:53.001Z</time></trkpt><trkpt lat="42.099445865252655" lon="13.420554512634851"><ele>935.0</ele><time>2026-04-27T12:17:54.001Z</time></trkpt><trkpt lat="42.09944400950489" lon="13.420371628922364"><ele>933.25</ele><time>2026-04-27T12:17:55.001Z</time></trkpt><trkpt lat="42.09944086641301" lon="13.420182372728279"><ele>931.5</ele><time>2026-04-27T12:17:56.001Z</time></trkpt><trkpt lat="42.099430341224206" lon="13.419987904761165"><ele>929.75</ele><time>2026-04-27T12:17:57.001Z</time></trkpt><trkpt lat="42.09943113009041" lon="13.419808028497275"><ele>928.0</ele><time>2026-04-27T12:17:58.001Z</time></trkpt><trkpt lat="42.099443729745836" lon="13.419663627858617"><ele>927.75</ele><time>2026-04-27T12:17:59.001Z</time></trkpt><trkpt lat="42.09946989747506" lon="13.41951472339032"><ele>927.5</ele><time>2026-04-27T12:18:00.001Z</time></trkpt><trkpt lat="42.099493591078236" lon="13.419356195687174"><ele>927.25</ele><time>2026-04-27T12:18:01.001Z</time></trkpt><trkpt lat="42.09950918795942" lon="13.419197047187591"><ele>927.0</ele><time>2026-04-27T12:18:02.001Z</time></trkpt><trkpt lat="42.099514668631805" lon="13.41903662517812"><ele>927.0</ele><time>2026-04-27T12:18:03Z</time></trkpt><trkpt lat="42.09952969801285" lon="13.4188868635907"><ele>927.0</ele><time>2026-04-27T12:18:04Z</time></trkpt><trkpt lat="42.09954771496688" lon="13.418714023424211"><ele>927.0</ele><time>2026-04-27T12:18:05Z</time></trkpt><trkpt lat="42.09958729861752" lon="13.418546784133559"><ele>927.0</ele><time>2026-04-27T12:18:06Z</time></trkpt><trkpt lat="42.099627263788406" lon="13.41838669216062"><ele>925.75</ele><time>2026-04-27T12:18:07Z</time></trkpt><trkpt lat="42.099659850205164" lon="13.418207118824714"><ele>924.5</ele><time>2026-04-27T12:18:08Z</time></trkpt><trkpt lat="42.099694865620364" lon="13.418006382660781"><ele>923.25</ele><time>2026-04-27T12:18:09Z</time></trkpt><trkpt lat="42.09972208344256" lon="13.417815446348959"><ele>922.0</ele><time>2026-04-27T12:18:10Z</time></trkpt><trkpt lat="42.099756803336554" lon="13.417625806039972"><ele>921.0</ele><time>2026-04-27T12:18:11Z</time></trkpt><trkpt lat="42.09978745905009" lon="13.417437990146036"><ele>920.0</ele><time>2026-04-27T12:18:12Z</time></trkpt><trkpt lat="42.09981365011664" lon="13.417248023718491"><ele>919.0</ele><time>2026-04-27T12:18:13Z</time></trkpt><trkpt lat="42.09983998390126" lon="13.417050272434304"><ele>918.0</ele><time>2026-04-27T12:18:14Z</time></trkpt><trkpt lat="42.09987259644368" lon="13.416838661457781"><ele>917.0</ele><time>2026-04-27T12:18:15Z</time></trkpt><trkpt lat="42.09989846841564" lon="13.416636856997505"><ele>916.0</ele><time>2026-04-27T12:18:16Z</time></trkpt><trkpt lat="42.099917667994866" lon="13.416429711613054"><ele>915.0</ele><time>2026-04-27T12:18:17Z</time></trkpt><trkpt lat="42.09992795642952" lon="13.416224484530089"><ele>913.0</ele><time>2026-04-27T12:18:18Z</time></trkpt><trkpt lat="42.099956171946715" lon="13.416019384228944"><ele>911.0</ele><time>2026-04-27T12:18:19Z</time></trkpt><trkpt lat="42.09998504738698" lon="13.415814394540009"><ele>909.0</ele><time>2026-04-27T12:18:20Z</time></trkpt><trkpt lat="42.1000080038162" lon="13.4156103431985"><ele>908.0</ele><time>2026-04-27T12:18:21Z</time></trkpt><trkpt lat="42.10003675570645" lon="13.415417242334236"><ele>907.0</ele><time>2026-04-27T12:18:22Z</time></trkpt><trkpt lat="42.10005980190188" lon="13.415241448432056"><ele>906.0</ele><time>2026-04-27T12:18:23Z</time></trkpt><trkpt lat="42.1000839150966" lon="13.415080996861583"><ele>905.0</ele><time>2026-04-27T12:18:24Z</time></trkpt><trkpt lat="42.10010613335857" lon="13.414918830131144"><ele>905.0</ele><time>2026-04-27T12:18:25Z</time></trkpt><trkpt lat="42.10012384466406" lon="13.414745129076016"><ele>905.0</ele><time>2026-04-27T12:18:26Z</time></trkpt><trkpt lat="42.100148059053346" lon="13.414573958032571"><ele>905.0</ele><time>2026-04-27T12:18:27Z</time></trkpt><trkpt lat="42.1001746253718" lon="13.414401970760995"><ele>905.0</ele><time>2026-04-27T12:18:28Z</time></trkpt><trkpt lat="42.10020907960432" lon="13.414224323914189"><ele>903.5</ele><time>2026-04-27T12:18:29Z</time></trkpt><trkpt lat="42.10025560921777" lon="13.414043784680342"><ele>902.0</ele><time>2026-04-27T12:18:30Z</time></trkpt><trkpt lat="42.10029661195072" lon="13.41386540126263"><ele>900.5</ele><time>2026-04-27T12:18:31Z</time></trkpt><trkpt lat="42.100334530073816" lon="13.413679459973743"><ele>899.0</ele><time>2026-04-27T12:18:32Z</time></trkpt><trkpt lat="42.10036867410098" lon="13.413489361953472"><ele>898.75</ele><time>2026-04-27T12:18:33Z</time></trkpt><trkpt lat="42.100410961601675" lon="13.413302361832768"><ele>898.5</ele><time>2026-04-27T12:18:34Z</time></trkpt><trkpt lat="42.10046302857459" lon="13.413117663355862"><ele>898.25</ele><time>2026-04-27T12:18:35Z</time></trkpt><trkpt lat="42.10050885302107" lon="13.412956668960598"><ele>898.0</ele><time>2026-04-27T12:18:36Z</time></trkpt><trkpt lat="42.10055363663936" lon="13.412818889573344"><ele>897.2</ele><time>2026-04-27T12:18:37Z</time></trkpt><trkpt lat="42.10059385015748" lon="13.412680970714735"><ele>896.4</ele><time>2026-04-27T12:18:38Z</time></trkpt><trkpt lat="42.100603825603166" lon="13.412525064573433"><ele>895.6000000000001</ele><time>2026-04-27T12:18:39Z</time></trkpt><trkpt lat="42.10059660913838" lon="13.412391417786788"><ele>894.8000000000001</ele><time>2026-04-27T12:18:40Z</time></trkpt><trkpt lat="42.100609100522206" lon="13.41226380209101"><ele>894.0</ele><time>2026-04-27T12:18:41Z</time></trkpt><trkpt lat="42.100650523091346" lon="13.412122829801069"><ele>892.5</ele><time>2026-04-27T12:18:42Z</time></trkpt><trkpt lat="42.10070680235455" lon="13.41197704228116"><ele>891.0</ele><time>2026-04-27T12:18:43Z</time></trkpt><trkpt lat="42.100754070511606" lon="13.411824414678653"><ele>889.5</ele><time>2026-04-27T12:18:44Z</time></trkpt><trkpt lat="42.100788988382355" lon="13.41167244988185"><ele>888.0</ele><time>2026-04-27T12:18:45Z</time></trkpt><trkpt lat="42.10083170839425" lon="13.411549534557796"><ele>887.4</ele><time>2026-04-27T12:18:46Z</time></trkpt><trkpt lat="42.10088600085763" lon="13.41144107746872"><ele>886.8</ele><time>2026-04-27T12:18:47Z</time></trkpt><trkpt lat="42.10094566291956" lon="13.411344081008354"><ele>886.2</ele><time>2026-04-27T12:18:48Z</time></trkpt><trkpt lat="42.10101310294834" lon="13.411220592107535"><ele>885.6</ele><time>2026-04-27T12:18:49Z</time></trkpt><trkpt lat="42.10108351667925" lon="13.411071693747944"><ele>885.0</ele><time>2026-04-27T12:18:50Z</time></trkpt><trkpt lat="42.1011403016529" lon="13.41090847738862"><ele>884.0</ele><time>2026-04-27T12:18:51Z</time></trkpt><trkpt lat="42.10119226367758" lon="13.410746469499362"><ele>883.0</ele><time>2026-04-27T12:18:52Z</time></trkpt><trkpt lat="42.10124361234738" lon="13.410579609073904"><ele>882.0</ele><time>2026-04-27T12:18:53Z</time></trkpt><trkpt lat="42.10130648580675" lon="13.410411341127972"><ele>881.0</ele><time>2026-04-27T12:18:54Z</time></trkpt><trkpt lat="42.10137696503357" lon="13.41024248732572"><ele>880.75</ele><time>2026-04-27T12:18:55Z</time></trkpt><trkpt lat="42.101447371321186" lon="13.410060312471375"><ele>880.5</ele><time>2026-04-27T12:18:56Z</time></trkpt><trkpt lat="42.10151891383784" lon="13.409886444989477"><ele>880.25</ele><time>2026-04-27T12:18:57Z</time></trkpt><trkpt lat="42.101590738725065" lon="13.409717712708392"><ele>880.0</ele><time>2026-04-27T12:18:58Z</time></trkpt><trkpt lat="42.10166965324943" lon="13.409547306607136"><ele>877.5</ele><time>2026-04-27T12:18:59Z</time></trkpt><trkpt lat="42.1017480278324" lon="13.409382451507103"><ele>875.0</ele><time>2026-04-27T12:19:00Z</time></trkpt><trkpt lat="42.10181333943046" lon="13.409203016135148"><ele>872.5</ele><time>2026-04-27T12:19:01Z</time></trkpt><trkpt lat="42.10189189384747" lon="13.409022580869046"><ele>870.0</ele><time>2026-04-27T12:19:02Z</time></trkpt><trkpt lat="42.101987613997345" lon="13.408864170023001"><ele>869.0</ele><time>2026-04-27T12:19:03Z</time></trkpt><trkpt lat="42.1020848423942" lon="13.40870399971784"><ele>868.0</ele><time>2026-04-27T12:19:04Z</time></trkpt><trkpt lat="42.10218005496299" lon="13.40854890249589"><ele>867.0</ele><time>2026-04-27T12:19:05Z</time></trkpt><trkpt lat="42.102269168216274" lon="13.408386974974611"><ele>867.0</ele><time>2026-04-27T12:19:06Z</time></trkpt><trkpt lat="42.102347782520155" lon="13.4082112386048"><ele>867.0</ele><time>2026-04-27T12:19:07Z</time></trkpt><trkpt lat="42.102411653538674" lon="13.408018723309665"><ele>867.0</ele><time>2026-04-27T12:19:08Z</time></trkpt><trkpt lat="42.10246058662855" lon="13.40783266572326"><ele>866.25</ele><time>2026-04-27T12:19:08.999Z</time></trkpt><trkpt lat="42.10250744301689" lon="13.40764875348097"><ele>865.5</ele><time>2026-04-27T12:19:09.999Z</time></trkpt><trkpt lat="42.102543516099296" lon="13.407471445400382"><ele>864.75</ele><time>2026-04-27T12:19:10.999Z</time></trkpt><trkpt lat="42.10254407025028" lon="13.407314829490417"><ele>864.0</ele><time>2026-04-27T12:19:11.999Z</time></trkpt><trkpt lat="42.1025269315686" lon="13.40715882655682"><ele>862.5</ele><time>2026-04-27T12:19:12.999Z</time></trkpt><trkpt lat="42.10250116990494" lon="13.407018975517659"><ele>861.0</ele><time>2026-04-27T12:19:13.999Z</time></trkpt><trkpt lat="42.102483903332455" lon="13.406836315133356"><ele>859.5</ele><time>2026-04-27T12:19:14.999Z</time></trkpt><trkpt lat="42.10248591292048" lon="13.40665105617257"><ele>858.0</ele><time>2026-04-27T12:19:15.999Z</time></trkpt><trkpt lat="42.10250407376604" lon="13.406463452823024"><ele>857.0</ele><time>2026-04-27T12:19:16.999Z</time></trkpt><trkpt lat="42.10252995543371" lon="13.406281848105088"><ele>856.0</ele><time>2026-04-27T12:19:17.999Z</time></trkpt><trkpt lat="42.10256271093209" lon="13.406105383008681"><ele>855.0</ele><time>2026-04-27T12:19:18.999Z</time></trkpt><trkpt lat="42.10258442606114" lon="13.405920538747774"><ele>854.0</ele><time>2026-04-27T12:19:19.999Z</time></trkpt><trkpt lat="42.10260253061808" lon="13.405743386431675"><ele>854.0</ele><time>2026-04-27T12:19:20.999Z</time></trkpt><trkpt lat="42.10263038897702" lon="13.405553817115713"><ele>854.0</ele><time>2026-04-27T12:19:21.999Z</time></trkpt><trkpt lat="42.102677273153645" lon="13.405371538584205"><ele>854.0</ele><time>2026-04-27T12:19:22.999Z</time></trkpt><trkpt lat="42.10274632640662" lon="13.405189220597082"><ele>854.0</ele><time>2026-04-27T12:19:23.999Z</time></trkpt><trkpt lat="42.10282177065254" lon="13.405016388201128"><ele>853.25</ele><time>2026-04-27T12:19:24.999Z</time></trkpt><trkpt lat="42.1028930897546" lon="13.404829889799526"><ele>852.5</ele><time>2026-04-27T12:19:25.999Z</time></trkpt><trkpt lat="42.102949084676055" lon="13.404652596736101"><ele>851.75</ele><time>2026-04-27T12:19:26.999Z</time></trkpt><trkpt lat="42.102999683865946" lon="13.404474972360264"><ele>851.0</ele><time>2026-04-27T12:19:27.999Z</time></trkpt><trkpt lat="42.1030554217561" lon="13.404300858608792"><ele>850.25</ele><time>2026-04-27T12:19:28.999Z</time></trkpt><trkpt lat="42.103118283091725" lon="13.404123451969399"><ele>849.5</ele><time>2026-04-27T12:19:29.999Z</time></trkpt><trkpt lat="42.10318716554983" lon="13.403953796740657"><ele>848.75</ele><time>2026-04-27T12:19:30.999Z</time></trkpt><trkpt lat="42.10325968761477" lon="13.403781754283873"><ele>848.0</ele><time>2026-04-27T12:19:31.999Z</time></trkpt><trkpt lat="42.10333522466813" lon="13.403611331526067"><ele>847.0</ele><time>2026-04-27T12:19:32.999Z</time></trkpt><trkpt lat="42.103419057821604" lon="13.403442272452052"><ele>846.0</ele><time>2026-04-27T12:19:33.999Z</time></trkpt><trkpt lat="42.103501752834234" lon="13.403277032098018"><ele>845.0</ele><time>2026-04-27T12:19:34.999Z</time></trkpt><trkpt lat="42.10358153930785" lon="13.4031127683828"><ele>844.0</ele><time>2026-04-27T12:19:35.999Z</time></trkpt><trkpt lat="42.103659298670784" lon="13.402938659860999"><ele>842.6666666666666</ele><time>2026-04-27T12:19:36.999Z</time></trkpt><trkpt lat="42.103743817752246" lon="13.402769435814301"><ele>841.3333333333333</ele><time>2026-04-27T12:19:37.999Z</time></trkpt><trkpt lat="42.10383409375676" lon="13.402602558348674"><ele>840.0</ele><time>2026-04-27T12:19:38.999Z</time></trkpt><trkpt lat="42.103925581492476" lon="13.402447648521203"><ele>840.0</ele><time>2026-04-27T12:19:39.999Z</time></trkpt><trkpt lat="42.10403288996929" lon="13.402296329359897"><ele>840.0</ele><time>2026-04-27T12:19:40.999Z</time></trkpt><trkpt lat="42.10415032286594" lon="13.402151994553119"><ele>840.0</ele><time>2026-04-27T12:19:41.999Z</time></trkpt><trkpt lat="42.10426256621683" lon="13.401998749523914"><ele>839.6666666666667</ele><time>2026-04-27T12:19:42.999Z</time></trkpt><trkpt lat="42.10436858417866" lon="13.401815370872566"><ele>839.3333333333334</ele><time>2026-04-27T12:19:43.999Z</time></trkpt><trkpt lat="42.10446159186811" lon="13.401615369097556"><ele>839.0</ele><time>2026-04-27T12:19:44.999Z</time></trkpt><trkpt lat="42.104557188660436" lon="13.401421964403795"><ele>838.0</ele><time>2026-04-27T12:19:45.999Z</time></trkpt><trkpt lat="42.10465687063227" lon="13.401240880209487"><ele>837.0</ele><time>2026-04-27T12:19:46.999Z</time></trkpt><trkpt lat="42.10476708983027" lon="13.401065577686929"><ele>836.0</ele><time>2026-04-27T12:19:48.001Z</time></trkpt><trkpt lat="42.104870902316755" lon="13.400885184879844"><ele>836.6666666666667</ele><time>2026-04-27T12:19:49.001Z</time></trkpt><trkpt lat="42.104967355852494" lon="13.400700916071143"><ele>837.3333333333333</ele><time>2026-04-27T12:19:50.001Z</time></trkpt><trkpt lat="42.1050631382335" lon="13.40052124315234"><ele>838.0</ele><time>2026-04-27T12:19:51.001Z</time></trkpt><trkpt lat="42.10514752005909" lon="13.400333669304615"><ele>836.6666666666666</ele><time>2026-04-27T12:19:52.001Z</time></trkpt><trkpt lat="42.10524288757673" lon="13.400162963859035"><ele>835.3333333333333</ele><time>2026-04-27T12:19:53.001Z</time></trkpt><trkpt lat="42.10533939479972" lon="13.400002231950634"><ele>834.0</ele><time>2026-04-27T12:19:54.001Z</time></trkpt><trkpt lat="42.1054252560768" lon="13.399844109402638"><ele>834.0</ele><time>2026-04-27T12:19:55.001Z</time></trkpt><trkpt lat="42.105495721787996" lon="13.399685554620799"><ele>834.0</ele><time>2026-04-27T12:19:56.001Z</time></trkpt><trkpt lat="42.10556000321141" lon="13.39953786078299"><ele>834.0</ele><time>2026-04-27T12:19:57.001Z</time></trkpt><trkpt lat="42.10561715102125" lon="13.399398576783192"><ele>834.0</ele><time>2026-04-27T12:19:58.001Z</time></trkpt><trkpt lat="42.105653342796536" lon="13.399244679127836"><ele>833.8000000000001</ele><time>2026-04-27T12:19:59.001Z</time></trkpt><trkpt lat="42.10566247161861" lon="13.399095963943912"><ele>833.6</ele><time>2026-04-27T12:20:00.001Z</time></trkpt><trkpt lat="42.105656346683546" lon="13.398942285183391"><ele>833.4</ele><time>2026-04-27T12:20:01.001Z</time></trkpt><trkpt lat="42.1056721676245" lon="13.398845235892892"><ele>833.2</ele><time>2026-04-27T12:20:02.001Z</time></trkpt><trkpt lat="42.10570189971721" lon="13.398742135641024"><ele>833.0</ele><time>2026-04-27T12:20:03.001Z</time></trkpt><trkpt lat="42.105743797590165" lon="13.39863355618879"><ele>833.0</ele><time>2026-04-27T12:20:04.001Z</time></trkpt><trkpt lat="42.10580224580117" lon="13.398530045743911"><ele>833.0</ele><time>2026-04-27T12:20:05Z</time></trkpt><trkpt lat="42.10589609177144" lon="13.39844408384575"><ele>833.0</ele><time>2026-04-27T12:20:06Z</time></trkpt><trkpt lat="42.10600631264594" lon="13.398385116287859"><ele>833.0</ele><time>2026-04-27T12:20:07Z</time></trkpt><trkpt lat="42.10611632948772" lon="13.398308674032"><ele>833.0</ele><time>2026-04-27T12:20:08Z</time></trkpt><trkpt lat="42.10622772378146" lon="13.398221243338401"><ele>833.0</ele><time>2026-04-27T12:20:09Z</time></trkpt><trkpt lat="42.10634418961482" lon="13.398137233758982"><ele>833.0</ele><time>2026-04-27T12:20:10Z</time></trkpt><trkpt lat="42.106452891645866" lon="13.39806390953413"><ele>833.0</ele><time>2026-04-27T12:20:11Z</time></trkpt><trkpt lat="42.106555306094" lon="13.397983293584044"><ele>834.0</ele><time>2026-04-27T12:20:12Z</time></trkpt><trkpt lat="42.106649265914164" lon="13.39788634432295"><ele>835.0</ele><time>2026-04-27T12:20:13Z</time></trkpt><trkpt lat="42.106736585268045" lon="13.397756179559197"><ele>836.0</ele><time>2026-04-27T12:20:14Z</time></trkpt><trkpt lat="42.10682511363376" lon="13.397619241692365"><ele>837.0</ele><time>2026-04-27T12:20:15Z</time></trkpt><trkpt lat="42.10690913666577" lon="13.397482303608902"><ele>837.0</ele><time>2026-04-27T12:20:16Z</time></trkpt><trkpt lat="42.106989405490374" lon="13.397351468842803"><ele>837.0</ele><time>2026-04-27T12:20:17Z</time></trkpt><trkpt lat="42.10706394544008" lon="13.397224973009694"><ele>837.0</ele><time>2026-04-27T12:20:18Z</time></trkpt><trkpt lat="42.1071215796339" lon="13.397107048334002"><ele>837.0</ele><time>2026-04-27T12:20:19Z</time></trkpt><trkpt lat="42.10716806116494" lon="13.397004646059724"><ele>837.0</ele><time>2026-04-27T12:20:20Z</time></trkpt><trkpt lat="42.10719662322389" lon="13.396925460271696"><ele>837.4000000000001</ele><time>2026-04-27T12:20:21Z</time></trkpt><trkpt lat="42.10723910274552" lon="13.396817743787073"><ele>837.8000000000001</ele><time>2026-04-27T12:20:23Z</time></trkpt><trkpt lat="42.10716233435498" lon="13.396697526291991"><ele>838.2</ele><time>2026-04-27T12:20:24Z</time></trkpt><trkpt lat="42.10712366438565" lon="13.396594957103764"><ele>838.6</ele><time>2026-04-27T12:20:25Z</time></trkpt><trkpt lat="42.10707558989923" lon="13.396485351522355"><ele>839.0</ele><time>2026-04-27T12:20:26Z</time></trkpt><trkpt lat="42.10702518008903" lon="13.396370260210176"><ele>839.8000000000001</ele><time>2026-04-27T12:20:27Z</time></trkpt><trkpt lat="42.10696607062074" lon="13.396261021145008"><ele>840.6</ele><time>2026-04-27T12:20:28Z</time></trkpt><trkpt lat="42.10691320403319" lon="13.396153367376789"><ele>841.4</ele><time>2026-04-27T12:20:29Z</time></trkpt><trkpt lat="42.10685659766528" lon="13.396026204111466"><ele>842.2</ele><time>2026-04-27T12:20:30Z</time></trkpt><trkpt lat="42.106804487235905" lon="13.395906590324552"><ele>843.0</ele><time>2026-04-27T12:20:31Z</time></trkpt><trkpt lat="42.106755156738345" lon="13.395792428178178"><ele>843.0</ele><time>2026-04-27T12:20:32Z</time></trkpt><trkpt lat="42.10669557424404" lon="13.395666411340178"><ele>843.0</ele><time>2026-04-27T12:20:33Z</time></trkpt><trkpt lat="42.10663358028787" lon="13.395528078501718"><ele>843.0</ele><time>2026-04-27T12:20:34Z</time></trkpt><trkpt lat="42.106561708373064" lon="13.3953869369513"><ele>843.0</ele><time>2026-04-27T12:20:35Z</time></trkpt><trkpt lat="42.10649660853924" lon="13.395247649238254"><ele>843.0</ele><time>2026-04-27T12:20:36Z</time></trkpt><trkpt lat="42.10643380259031" lon="13.395109542644688"><ele>843.0</ele><time>2026-04-27T12:20:37Z</time></trkpt><trkpt lat="42.10637795641308" lon="13.394984306629295"><ele>843.0</ele><time>2026-04-27T12:20:38Z</time></trkpt><trkpt lat="42.10632662910719" lon="13.394872321785995"><ele>843.0</ele><time>2026-04-27T12:20:39Z</time></trkpt><trkpt lat="42.10627156386258" lon="13.394761423923265"><ele>843.0</ele><time>2026-04-27T12:20:40Z</time></trkpt><trkpt lat="42.10621261725952" lon="13.394648119446533"><ele>843.0</ele><time>2026-04-27T12:20:41Z</time></trkpt><trkpt lat="42.106160172711796" lon="13.394536700644647"><ele>843.0</ele><time>2026-04-27T12:20:42Z</time></trkpt><trkpt lat="42.10612689311996" lon="13.39445252751339"><ele>843.0</ele><time>2026-04-27T12:20:43Z</time></trkpt><trkpt lat="42.106101354883684" lon="13.394355888314408"><ele>843.0</ele><time>2026-04-27T12:20:45Z</time></trkpt><trkpt lat="42.10603157469375" lon="13.394233432836888"><ele>843.0</ele><time>2026-04-27T12:20:48Z</time></trkpt><trkpt lat="42.10595404809908" lon="13.394182101827901"><ele>843.0</ele><time>2026-04-27T12:20:49Z</time></trkpt><trkpt lat="42.10588062063336" lon="13.39415071790357"><ele>843.0</ele><time>2026-04-27T12:20:50Z</time></trkpt><trkpt lat="42.10579269586338" lon="13.394120964825719"><ele>843.0</ele><time>2026-04-27T12:20:51Z</time></trkpt><trkpt lat="42.105719751332074" lon="13.394092125396519"><ele>843.0</ele><time>2026-04-27T12:20:52Z</time></trkpt><trkpt lat="42.105635213084156" lon="13.394042590608803"><ele>843.0</ele><time>2026-04-27T12:20:54Z</time></trkpt><trkpt lat="42.10558484058939" lon="13.393971944196625"><ele>843.0</ele><time>2026-04-27T12:20:58Z</time></trkpt><trkpt lat="42.10549363758723" lon="13.393935411741614"><ele>843.0</ele><time>2026-04-27T12:21:00Z</time></trkpt><trkpt lat="42.10543346281042" lon="13.393967157468698"><ele>841.2</ele><time>2026-04-27T12:21:01Z</time></trkpt><trkpt lat="42.105365589692234" lon="13.394007489528963"><ele>839.4</ele><time>2026-04-27T12:21:02Z</time></trkpt><trkpt lat="42.105286876292034" lon="13.394058197854458"><ele>837.6</ele><time>2026-04-27T12:21:03Z</time></trkpt><trkpt lat="42.10519908720761" lon="13.394128991275785"><ele>835.8000000000001</ele><time>2026-04-27T12:21:04Z</time></trkpt><trkpt lat="42.10510193034243" lon="13.39420679879438"><ele>834.0</ele><time>2026-04-27T12:21:05Z</time></trkpt><trkpt lat="42.10502121447264" lon="13.394306380287015"><ele>834.0</ele><time>2026-04-27T12:21:06Z</time></trkpt><trkpt lat="42.104939809508984" lon="13.394416036532293"><ele>834.0</ele><time>2026-04-27T12:21:07Z</time></trkpt><trkpt lat="42.10486735726559" lon="13.394547036969136"><ele>834.0</ele><time>2026-04-27T12:21:08Z</time></trkpt><trkpt lat="42.10477405019822" lon="13.394653533496001"><ele>834.0</ele><time>2026-04-27T12:21:08.999Z</time></trkpt><trkpt lat="42.104669693188555" lon="13.394752212305441"><ele>832.0</ele><time>2026-04-27T12:21:09.999Z</time></trkpt><trkpt lat="42.10455470544882" lon="13.394826597988805"><ele>830.0</ele><time>2026-04-27T12:21:10.999Z</time></trkpt><trkpt lat="42.10443188890185" lon="13.394891477685782"><ele>828.0</ele><time>2026-04-27T12:21:11.999Z</time></trkpt><trkpt lat="42.104290837196665" lon="13.394930980988212"><ele>826.0</ele><time>2026-04-27T12:21:12.999Z</time></trkpt><trkpt lat="42.10414958298059" lon="13.394977886407645"><ele>825.25</ele><time>2026-04-27T12:21:13.999Z</time></trkpt><trkpt lat="42.104004944653475" lon="13.39501897588254"><ele>824.5</ele><time>2026-04-27T12:21:14.999Z</time></trkpt><trkpt lat="42.103865565393654" lon="13.395058614583451"><ele>823.75</ele><time>2026-04-27T12:21:15.999Z</time></trkpt><trkpt lat="42.10373185554864" lon="13.395098998281844"><ele>823.0</ele><time>2026-04-27T12:21:16.999Z</time></trkpt><trkpt lat="42.10360965665615" lon="13.395133402910517"><ele>823.0</ele><time>2026-04-27T12:21:17.999Z</time></trkpt><trkpt lat="42.1034954169102" lon="13.39515591862279"><ele>823.0</ele><time>2026-04-27T12:21:18.999Z</time></trkpt><trkpt lat="42.10337782045912" lon="13.395153080549658"><ele>823.0</ele><time>2026-04-27T12:21:19.999Z</time></trkpt><trkpt lat="42.103249645882364" lon="13.395119224287361"><ele>823.0</ele><time>2026-04-27T12:21:20.999Z</time></trkpt><trkpt lat="42.10311891179912" lon="13.39506625368266"><ele>822.25</ele><time>2026-04-27T12:21:21.999Z</time></trkpt><trkpt lat="42.1029879527081" lon="13.395049813510422"><ele>821.5</ele><time>2026-04-27T12:21:22.999Z</time></trkpt><trkpt lat="42.10287678866467" lon="13.394915863351354"><ele>820.75</ele><time>2026-04-27T12:21:23.999Z</time></trkpt><trkpt lat="42.102759239203735" lon="13.394813985305511"><ele>820.0</ele><time>2026-04-27T12:21:24.999Z</time></trkpt><trkpt lat="42.10264322108797" lon="13.394697781775648"><ele>819.3333333333333</ele><time>2026-04-27T12:21:25.999Z</time></trkpt><trkpt lat="42.102524431618036" lon="13.394575697073352"><ele>818.6666666666667</ele><time>2026-04-27T12:21:26.999Z</time></trkpt><trkpt lat="42.10240337078313" lon="13.394449061028828"><ele>818.0</ele><time>2026-04-27T12:21:27.999Z</time></trkpt><trkpt lat="42.102282359260336" lon="13.394319065344472"><ele>818.0</ele><time>2026-04-27T12:21:28.999Z</time></trkpt><trkpt lat="42.1021581155461" lon="13.394189795049172"><ele>818.0</ele><time>2026-04-27T12:21:29.999Z</time></trkpt><trkpt lat="42.10203388462405" lon="13.394055773506278"><ele>818.0</ele><time>2026-04-27T12:21:30.999Z</time></trkpt><trkpt lat="42.10190695099406" lon="13.393920104766908"><ele>817.6666666666667</ele><time>2026-04-27T12:21:31.999Z</time></trkpt><trkpt lat="42.10178206019916" lon="13.393785419001615"><ele>817.3333333333333</ele><time>2026-04-27T12:21:32.999Z</time></trkpt><trkpt lat="42.10165477906229" lon="13.393655401829472"><ele>817.0</ele><time>2026-04-27T12:21:33.999Z</time></trkpt><trkpt lat="42.101525989034464" lon="13.393521956288494"><ele>817.0</ele><time>2026-04-27T12:21:34.999Z</time></trkpt><trkpt lat="42.10139663059354" lon="13.39338920012286"><ele>817.0</ele><time>2026-04-27T12:21:35.999Z</time></trkpt><trkpt lat="42.10126380079745" lon="13.393253238604935"><ele>817.0</ele><time>2026-04-27T12:21:36.999Z</time></trkpt><trkpt lat="42.101127514113976" lon="13.39310983866302"><ele>816.0</ele><time>2026-04-27T12:21:37.999Z</time></trkpt><trkpt lat="42.10098927631703" lon="13.392960835314005"><ele>815.0</ele><time>2026-04-27T12:21:38.999Z</time></trkpt><trkpt lat="42.10084782682092" lon="13.392813428950408"><ele>814.0</ele><time>2026-04-27T12:21:39.999Z</time></trkpt><trkpt lat="42.10070422555841" lon="13.392665720083405"><ele>814.0</ele><time>2026-04-27T12:21:40.999Z</time></trkpt><trkpt lat="42.10055936366968" lon="13.39251699221585"><ele>814.0</ele><time>2026-04-27T12:21:41.999Z</time></trkpt><trkpt lat="42.10041339485988" lon="13.392367490127471"><ele>814.0</ele><time>2026-04-27T12:21:42.999Z</time></trkpt><trkpt lat="42.10026597954854" lon="13.392212250362068"><ele>814.0</ele><time>2026-04-27T12:21:43.999Z</time></trkpt><trkpt lat="42.10011830705893" lon="13.392055008369583"><ele>814.0</ele><time>2026-04-27T12:21:44.999Z</time></trkpt><trkpt lat="42.099967591313955" lon="13.391895007922537"><ele>814.0</ele><time>2026-04-27T12:21:45.999Z</time></trkpt><trkpt lat="42.09981630159759" lon="13.391737559718777"><ele>814.0</ele><time>2026-04-27T12:21:46.999Z</time></trkpt><trkpt lat="42.09966596812422" lon="13.391579340221988"><ele>814.0</ele><time>2026-04-27T12:21:47.999Z</time></trkpt><trkpt lat="42.09951544887484" lon="13.391422969875363"><ele>814.0</ele><time>2026-04-27T12:21:48.999Z</time></trkpt><trkpt lat="42.09936559180664" lon="13.391265877411929"><ele>813.0</ele><time>2026-04-27T12:21:49.999Z</time></trkpt><trkpt lat="42.09921462578929" lon="13.391107726773258"><ele>812.0</ele><time>2026-04-27T12:21:50.999Z</time></trkpt><trkpt lat="42.099064763437944" lon="13.390949344512363"><ele>811.0</ele><time>2026-04-27T12:21:51.999Z</time></trkpt><trkpt lat="42.09891385842187" lon="13.390791032317265"><ele>811.0</ele><time>2026-04-27T12:21:52.999Z</time></trkpt><trkpt lat="42.09876579598954" lon="13.390639064002626"><ele>811.0</ele><time>2026-04-27T12:21:54.001Z</time></trkpt><trkpt lat="42.09862164713561" lon="13.390491301457876"><ele>811.0</ele><time>2026-04-27T12:21:55.001Z</time></trkpt><trkpt lat="42.09848527435749" lon="13.390353532921152"><ele>810.3333333333333</ele><time>2026-04-27T12:21:56.001Z</time></trkpt><trkpt lat="42.09835347844193" lon="13.390216180861694"><ele>809.6666666666667</ele><time>2026-04-27T12:21:57.001Z</time></trkpt><trkpt lat="42.0982248024765" lon="13.390076469193422"><ele>809.0</ele><time>2026-04-27T12:21:58.001Z</time></trkpt><trkpt lat="42.09809541927366" lon="13.389938376190278"><ele>809.0</ele><time>2026-04-27T12:21:59.001Z</time></trkpt><trkpt lat="42.097963246279235" lon="13.389801520726705"><ele>809.0</ele><time>2026-04-27T12:22:00.001Z</time></trkpt><trkpt lat="42.097832949306735" lon="13.389665132981598"><ele>809.0</ele><time>2026-04-27T12:22:01.001Z</time></trkpt><trkpt lat="42.09771212315901" lon="13.389538326734886"><ele>808.0</ele><time>2026-04-27T12:22:02.001Z</time></trkpt><trkpt lat="42.09759502661726" lon="13.389411731312427"><ele>807.0</ele><time>2026-04-27T12:22:03.001Z</time></trkpt><trkpt lat="42.09748030378959" lon="13.389290773127682"><ele>806.0</ele><time>2026-04-27T12:22:04.001Z</time></trkpt><trkpt lat="42.097372923454095" lon="13.38917565908245"><ele>805.0</ele><time>2026-04-27T12:22:05.001Z</time></trkpt><trkpt lat="42.09727932389499" lon="13.389060453537027"><ele>804.8</ele><time>2026-04-27T12:22:06.001Z</time></trkpt><trkpt lat="42.09719833116324" lon="13.388934824788585"><ele>804.6</ele><time>2026-04-27T12:22:07.001Z</time></trkpt><trkpt lat="42.09713689706215" lon="13.38880755236479"><ele>804.4000000000001</ele><time>2026-04-27T12:22:08Z</time></trkpt><trkpt lat="42.097087591643096" lon="13.388687028522202"><ele>804.2</ele><time>2026-04-27T12:22:09Z</time></trkpt><trkpt lat="42.097064106248276" lon="13.38859019548667"><ele>804.0</ele><time>2026-04-27T12:22:10Z</time></trkpt><trkpt lat="42.09706752415887" lon="13.388475088973935"><ele>803.8000000000001</ele><time>2026-04-27T12:22:12Z</time></trkpt><trkpt lat="42.09722576383414" lon="13.388442928211195"><ele>803.6</ele><time>2026-04-27T12:22:15Z</time></trkpt><trkpt lat="42.09730073985727" lon="13.38841309170897"><ele>803.4</ele><time>2026-04-27T12:22:16Z</time></trkpt><trkpt lat="42.09739937612063" lon="13.388415388814357"><ele>803.2</ele><time>2026-04-27T12:22:17Z</time></trkpt><trkpt lat="42.097495206637326" lon="13.388415367345708"><ele>803.0</ele><time>2026-04-27T12:22:18Z</time></trkpt><trkpt lat="42.097592882652854" lon="13.388414602704177"><ele>802.5999999999999</ele><time>2026-04-27T12:22:19Z</time></trkpt><trkpt lat="42.09769089978808" lon="13.388423576310071"><ele>802.1999999999999</ele><time>2026-04-27T12:22:20Z</time></trkpt><trkpt lat="42.097785046656455" lon="13.388451604043997"><ele>801.8</ele><time>2026-04-27T12:22:21Z</time></trkpt><trkpt lat="42.0978755053401" lon="13.388485232212938"><ele>801.4</ele><time>2026-04-27T12:22:22Z</time></trkpt><trkpt lat="42.0979712348468" lon="13.388476562198905"><ele>801.0</ele><time>2026-04-27T12:22:23Z</time></trkpt><trkpt lat="42.09807055797729" lon="13.388435983787193"><ele>801.0</ele><time>2026-04-27T12:22:24Z</time></trkpt><trkpt lat="42.09817711167441" lon="13.38840192972145"><ele>801.0</ele><time>2026-04-27T12:22:25Z</time></trkpt><trkpt lat="42.09828574724044" lon="13.388380842126407"><ele>801.0</ele><time>2026-04-27T12:22:26Z</time></trkpt><trkpt lat="42.098397704953925" lon="13.388378228728438"><ele>801.0</ele><time>2026-04-27T12:22:27Z</time></trkpt><trkpt lat="42.09852055521089" lon="13.388401822969183"><ele>801.25</ele><time>2026-04-27T12:22:28Z</time></trkpt><trkpt lat="42.098640626424356" lon="13.38845022162303"><ele>801.5</ele><time>2026-04-27T12:22:29Z</time></trkpt><trkpt lat="42.098751580776415" lon="13.388523480123592"><ele>801.75</ele><time>2026-04-27T12:22:30Z</time></trkpt><trkpt lat="42.098853492120334" lon="13.388607466750345"><ele>802.0</ele><time>2026-04-27T12:22:31Z</time></trkpt><trkpt lat="42.09895334185203" lon="13.388607131468289"><ele>802.0</ele><time>2026-04-27T12:22:32Z</time></trkpt><trkpt lat="42.09905344793006" lon="13.388614592723082"><ele>802.0</ele><time>2026-04-27T12:22:33Z</time></trkpt><trkpt lat="42.09915463648187" lon="13.38864756180913"><ele>802.0</ele><time>2026-04-27T12:22:34Z</time></trkpt><trkpt lat="42.099241727733244" lon="13.388646495967494"><ele>802.0</ele><time>2026-04-27T12:22:35Z</time></trkpt><trkpt lat="42.09931716414324" lon="13.388595717487053"><ele>802.0</ele><time>2026-04-27T12:22:36Z</time></trkpt><trkpt lat="42.099414830924424" lon="13.38858186360039"><ele>801.9999999999999</ele><time>2026-04-27T12:22:37Z</time></trkpt><trkpt lat="42.09950669983481" lon="13.388573931103965"><ele>802.0</ele><time>2026-04-27T12:22:38Z</time></trkpt><trkpt lat="42.09958947259236" lon="13.388561481144034"><ele>802.0</ele><time>2026-04-27T12:22:39Z</time></trkpt><trkpt lat="42.09965936739372" lon="13.388517973217091"><ele>802.0</ele><time>2026-04-27T12:22:40Z</time></trkpt><trkpt lat="42.09974514031968" lon="13.388452596282184"><ele>801.9999999999999</ele><time>2026-04-27T12:22:41Z</time></trkpt><trkpt lat="42.09980144853273" lon="13.388395106593382"><ele>802.0</ele><time>2026-04-27T12:22:42Z</time></trkpt><trkpt lat="42.10012082701918" lon="13.388958080240762"><ele>802.6666666666666</ele><time>2026-04-27T12:22:43Z</time></trkpt><trkpt lat="42.100216757784295" lon="13.388918852440328"><ele>803.3333333333333</ele><time>2026-04-27T12:22:44Z</time></trkpt><trkpt lat="42.100294149461824" lon="13.388848871675023"><ele>804.0</ele><time>2026-04-27T12:22:45Z</time></trkpt><trkpt lat="42.10034471774368" lon="13.3887951917234"><ele>804.6666666666667</ele><time>2026-04-27T12:22:47Z</time></trkpt><trkpt lat="42.1004362824255" lon="13.388857022920554"><ele>805.3333333333334</ele><time>2026-04-27T12:22:49Z</time></trkpt><trkpt lat="42.10050459861419" lon="13.38891359305105"><ele>806.0</ele><time>2026-04-27T12:22:50Z</time></trkpt><trkpt lat="42.10057715328854" lon="13.38895282622028"><ele>806.0</ele><time>2026-04-27T12:22:51Z</time></trkpt><trkpt lat="42.10064477416882" lon="13.388992076232011"><ele>806.0</ele><time>2026-04-27T12:22:52Z</time></trkpt><trkpt lat="42.10076004649017" lon="13.389065727177378"><ele>806.0</ele><time>2026-04-27T12:22:54Z</time></trkpt><trkpt lat="42.100841831353435" lon="13.389126676046885"><ele>806.0</ele><time>2026-04-27T12:22:55Z</time></trkpt><trkpt lat="42.10092639556698" lon="13.389178562719819"><ele>806.0</ele><time>2026-04-27T12:22:56Z</time></trkpt><trkpt lat="42.10100812501278" lon="13.389218827705422"><ele>806.1999999999999</ele><time>2026-04-27T12:22:57Z</time></trkpt><trkpt lat="42.101091953309194" lon="13.38926570925938"><ele>806.4</ele><time>2026-04-27T12:22:58Z</time></trkpt><trkpt lat="42.10118655992368" lon="13.389296172095518"><ele>806.6</ele><time>2026-04-27T12:22:59Z</time></trkpt><trkpt lat="42.101270848053474" lon="13.389324518497775"><ele>806.8</ele><time>2026-04-27T12:23:00Z</time></trkpt><trkpt lat="42.10135891437607" lon="13.389364934067677"><ele>807.0</ele><time>2026-04-27T12:23:01Z</time></trkpt><trkpt lat="42.10146521966687" lon="13.389408650687177"><ele>807.0</ele><time>2026-04-27T12:23:02Z</time></trkpt><trkpt lat="42.10156978445304" lon="13.389449419651218"><ele>807.0</ele><time>2026-04-27T12:23:03Z</time></trkpt><trkpt lat="42.10165941564419" lon="13.389493440916004"><ele>807.0</ele><time>2026-04-27T12:23:04Z</time></trkpt><trkpt lat="42.10173607323447" lon="13.389512908906628"><ele>807.0</ele><time>2026-04-27T12:23:05Z</time></trkpt><trkpt lat="42.101825546127664" lon="13.389517801153774"><ele>807.0</ele><time>2026-04-27T12:23:06Z</time></trkpt><trkpt lat="42.10192002298862" lon="13.389527517026806"><ele>808.0</ele><time>2026-04-27T12:23:07Z</time></trkpt><trkpt lat="42.10201367054425" lon="13.389549143114312"><ele>809.0</ele><time>2026-04-27T12:23:08Z</time></trkpt><trkpt lat="42.10210164300673" lon="13.389573462102556"><ele>810.0</ele><time>2026-04-27T12:23:09Z</time></trkpt><trkpt lat="42.102192229413" lon="13.3895977972865"><ele>811.0</ele><time>2026-04-27T12:23:10Z</time></trkpt><trkpt lat="42.10228300225509" lon="13.389631350649529"><ele>812.0</ele><time>2026-04-27T12:23:11Z</time></trkpt><trkpt lat="42.102378226821344" lon="13.389663134099324"><ele>812.5000000000001</ele><time>2026-04-27T12:23:11.999Z</time></trkpt><trkpt lat="42.10247610751919" lon="13.389687518766983"><ele>813.0</ele><time>2026-04-27T12:23:12.999Z</time></trkpt><trkpt lat="42.10256820433551" lon="13.389700523139194"><ele>813.5</ele><time>2026-04-27T12:23:13.999Z</time></trkpt><trkpt lat="42.10264941389485" lon="13.38970474723601"><ele>814.0</ele><time>2026-04-27T12:23:14.999Z</time></trkpt><trkpt lat="42.10272793379218" lon="13.389704973620583"><ele>814.5000000000001</ele><time>2026-04-27T12:23:15.999Z</time></trkpt><trkpt lat="42.102815202238055" lon="13.38969684354329"><ele>815.0</ele><time>2026-04-27T12:23:16.999Z</time></trkpt><trkpt lat="42.102909320369776" lon="13.389681996127162"><ele>815.8</ele><time>2026-04-27T12:23:17.999Z</time></trkpt><trkpt lat="42.10300686649868" lon="13.3896573307114"><ele>816.6</ele><time>2026-04-27T12:23:18.999Z</time></trkpt><trkpt lat="42.10311379200523" lon="13.389633305257087"><ele>817.4000000000001</ele><time>2026-04-27T12:23:19.999Z</time></trkpt><trkpt lat="42.10321574267307" lon="13.38961469813205"><ele>818.2</ele><time>2026-04-27T12:23:20.999Z</time></trkpt><trkpt lat="42.10331875006248" lon="13.389595184823438"><ele>819.0</ele><time>2026-04-27T12:23:21.999Z</time></trkpt><trkpt lat="42.10340828608388" lon="13.389574261845095"><ele>821.0</ele><time>2026-04-27T12:23:22.999Z</time></trkpt><trkpt lat="42.103510682008036" lon="13.389551420692115"><ele>823.0</ele><time>2026-04-27T12:23:23.999Z</time></trkpt><trkpt lat="42.103607552164746" lon="13.38952658479042"><ele>825.0</ele><time>2026-04-27T12:23:24.999Z</time></trkpt><trkpt lat="42.10367541150862" lon="13.389505559367572"><ele>827.0</ele><time>2026-04-27T12:23:25.999Z</time></trkpt><trkpt lat="42.103687323679" lon="13.389421865577127"><ele>829.0</ele><time>2026-04-27T12:23:27.999Z</time></trkpt><trkpt lat="42.10358358837184" lon="13.389306215724453"><ele>829.0</ele><time>2026-04-27T12:23:29.999Z</time></trkpt><trkpt lat="42.10350924735957" lon="13.389182965229844"><ele>829.0</ele><time>2026-04-27T12:23:30.999Z</time></trkpt><trkpt lat="42.10345179432325" lon="13.38902019950936"><ele>829.0</ele><time>2026-04-27T12:23:31.999Z</time></trkpt><trkpt lat="42.10339616243971" lon="13.388823822047124"><ele>829.0</ele><time>2026-04-27T12:23:32.999Z</time></trkpt><trkpt lat="42.103336859908744" lon="13.388688949719436"><ele>828.8000000000001</ele><time>2026-04-27T12:23:33.999Z</time></trkpt><trkpt lat="42.10330194503361" lon="13.388575277979935"><ele>828.6</ele><time>2026-04-27T12:23:34.999Z</time></trkpt><trkpt lat="42.10324007965154" lon="13.388449589673371"><ele>828.4</ele><time>2026-04-27T12:23:35.999Z</time></trkpt><trkpt lat="42.10317168665314" lon="13.388322822905906"><ele>828.2</ele><time>2026-04-27T12:23:36.999Z</time></trkpt><trkpt lat="42.103136165760745" lon="13.388234255896826"><ele>828.0</ele><time>2026-04-27T12:23:37.999Z</time></trkpt><trkpt lat="42.10313369545913" lon="13.388142016519812"><ele>827.5</ele><time>2026-04-27T12:23:38.999Z</time></trkpt><trkpt lat="42.10314261426038" lon="13.38803601515651"><ele>827.0</ele><time>2026-04-27T12:23:39.999Z</time></trkpt><trkpt lat="42.1031898223266" lon="13.38794732887038"><ele>826.5</ele><time>2026-04-27T12:23:40.999Z</time></trkpt><trkpt lat="42.10318279651539" lon="13.387850619626139"><ele>826.0</ele><time>2026-04-27T12:23:41.999Z</time></trkpt><trkpt lat="42.103156739634755" lon="13.387736335770725"><ele>825.5</ele><time>2026-04-27T12:23:42.999Z</time></trkpt><trkpt lat="42.10311532384899" lon="13.387619075042828"><ele>825.0</ele><time>2026-04-27T12:23:43.999Z</time></trkpt><trkpt lat="42.10307713686115" lon="13.387519053963935"><ele>825.0</ele><time>2026-04-27T12:23:44.999Z</time></trkpt><trkpt lat="42.10303781977124" lon="13.387419174430258"><ele>825.0</ele><time>2026-04-27T12:23:45.999Z</time></trkpt><trkpt lat="42.10299080045486" lon="13.387301841573155"><ele>825.0</ele><time>2026-04-27T12:23:46.999Z</time></trkpt><trkpt lat="42.10295195537219" lon="13.387180705440624"><ele>825.0</ele><time>2026-04-27T12:23:47.999Z</time></trkpt><trkpt lat="42.10292051073484" lon="13.38706480461929"><ele>825.0</ele><time>2026-04-27T12:23:48.999Z</time></trkpt><trkpt lat="42.10294311731658" lon="13.3869311089483"><ele>825.0</ele><time>2026-04-27T12:23:50.999Z</time></trkpt><trkpt lat="42.10298871499961" lon="13.386859281953777"><ele>825.0</ele><time>2026-04-27T12:23:51.999Z</time></trkpt><trkpt lat="42.10296890636349" lon="13.386750465800104"><ele>825.0</ele><time>2026-04-27T12:23:52.999Z</time></trkpt><trkpt lat="42.10289806981324" lon="13.386631985360092"><ele>825.0</ele><time>2026-04-27T12:23:53.999Z</time></trkpt><trkpt lat="42.10282021495631" lon="13.386489346533285"><ele>825.0</ele><time>2026-04-27T12:23:54.999Z</time></trkpt><trkpt lat="42.10275905707844" lon="13.386334361580783"><ele>825.25</ele><time>2026-04-27T12:23:55.999Z</time></trkpt><trkpt lat="42.102688180481785" lon="13.38616416935626"><ele>825.5</ele><time>2026-04-27T12:23:56.999Z</time></trkpt><trkpt lat="42.10261206304691" lon="13.38600269395278"><ele>825.75</ele><time>2026-04-27T12:23:57.999Z</time></trkpt><trkpt lat="42.10252669823761" lon="13.385852667988289"><ele>826.0</ele><time>2026-04-27T12:23:58.999Z</time></trkpt><trkpt lat="42.102451489386624" lon="13.3857295975644"><ele>826.3333333333333</ele><time>2026-04-27T12:24:00Z</time></trkpt><trkpt lat="42.102393850484944" lon="13.385621388118071"><ele>826.6666666666666</ele><time>2026-04-27T12:24:01Z</time></trkpt><trkpt lat="42.10232904374993" lon="13.385509880027223"><ele>827.0</ele><time>2026-04-27T12:24:02Z</time></trkpt><trkpt lat="42.10227534973529" lon="13.385436086516103"><ele>827.3333333333333</ele><time>2026-04-27T12:24:03Z</time></trkpt><trkpt lat="42.10226156597436" lon="13.385331834389076"><ele>827.6666666666666</ele><time>2026-04-27T12:24:07Z</time></trkpt><trkpt lat="42.10231261097579" lon="13.38525051925958"><ele>828.0</ele><time>2026-04-27T12:24:10Z</time></trkpt><trkpt lat="42.10242033841114" lon="13.385090161325374"><ele>828.0</ele><time>2026-04-27T12:24:11Z</time></trkpt><trkpt lat="42.10247949991863" lon="13.385015518042204"><ele>828.0</ele><time>2026-04-27T12:24:12Z</time></trkpt><trkpt lat="42.102544743585035" lon="13.384924931593632"><ele>828.0</ele><time>2026-04-27T12:24:13Z</time></trkpt><trkpt lat="42.10261561953851" lon="13.384833515882319"><ele>828.0</ele><time>2026-04-27T12:24:14Z</time></trkpt><trkpt lat="42.10269462310179" lon="13.384736766656795"><ele>828.0</ele><time>2026-04-27T12:24:15Z</time></trkpt><trkpt lat="42.10277529383627" lon="13.384658973545092"><ele>828.2</ele><time>2026-04-27T12:24:16Z</time></trkpt><trkpt lat="42.102858071483425" lon="13.384599285557941"><ele>828.4</ele><time>2026-04-27T12:24:17Z</time></trkpt><trkpt lat="42.10294291754705" lon="13.384550321946863"><ele>828.6</ele><time>2026-04-27T12:24:18Z</time></trkpt><trkpt lat="42.10302707087274" lon="13.384478657573467"><ele>828.8000000000001</ele><time>2026-04-27T12:24:19Z</time></trkpt><trkpt lat="42.10311240259735" lon="13.38439156498007"><ele>829.0</ele><time>2026-04-27T12:24:20Z</time></trkpt><trkpt lat="42.103201115473766" lon="13.38429175415348"><ele>830.5</ele><time>2026-04-27T12:24:21Z</time></trkpt><trkpt lat="42.10328578661091" lon="13.384175197948338"><ele>832.0</ele><time>2026-04-27T12:24:22Z</time></trkpt><trkpt lat="42.10337626549148" lon="13.384053222824317"><ele>833.5</ele><time>2026-04-27T12:24:23Z</time></trkpt><trkpt lat="42.103460120906554" lon="13.383925168718015"><ele>835.0</ele><time>2026-04-27T12:24:24Z</time></trkpt><trkpt lat="42.10352648465" lon="13.383775031575132"><ele>835.0</ele><time>2026-04-27T12:24:25Z</time></trkpt><trkpt lat="42.103602399024915" lon="13.383640195555941"><ele>835.0</ele><time>2026-04-27T12:24:26Z</time></trkpt><trkpt lat="42.1036874825878" lon="13.383530779310203"><ele>835.0</ele><time>2026-04-27T12:24:27Z</time></trkpt><trkpt lat="42.10378274954879" lon="13.383428027027529"><ele>835.0</ele><time>2026-04-27T12:24:28Z</time></trkpt><trkpt lat="42.10388249030038" lon="13.383320630047274"><ele>835.0</ele><time>2026-04-27T12:24:29Z</time></trkpt><trkpt lat="42.10398187227494" lon="13.383221905178146"><ele>835.0</ele><time>2026-04-27T12:24:30Z</time></trkpt><trkpt lat="42.10409118086208" lon="13.38313273184579"><ele>835.0</ele><time>2026-04-27T12:24:31Z</time></trkpt><trkpt lat="42.104199747074965" lon="13.383079451736911"><ele>835.0</ele><time>2026-04-27T12:24:32Z</time></trkpt><trkpt lat="42.104326082448004" lon="13.383055818791593"><ele>837.25</ele><time>2026-04-27T12:24:33Z</time></trkpt><trkpt lat="42.104449645923765" lon="13.38298969201922"><ele>839.5</ele><time>2026-04-27T12:24:34Z</time></trkpt><trkpt lat="42.104575330698374" lon="13.382917179538847"><ele>841.75</ele><time>2026-04-27T12:24:35Z</time></trkpt><trkpt lat="42.10470965696958" lon="13.38285587004856"><ele>844.0</ele><time>2026-04-27T12:24:36Z</time></trkpt><trkpt lat="42.10483961906305" lon="13.382796226257407"><ele>845.5</ele><time>2026-04-27T12:24:37Z</time></trkpt><trkpt lat="42.104954646423394" lon="13.382744738704357"><ele>847.0</ele><time>2026-04-27T12:24:38Z</time></trkpt><trkpt lat="42.10506396284414" lon="13.382724065671297"><ele>848.5</ele><time>2026-04-27T12:24:39Z</time></trkpt><trkpt lat="42.10517799931492" lon="13.382745872803879"><ele>850.0</ele><time>2026-04-27T12:24:40Z</time></trkpt><trkpt lat="42.105304223697" lon="13.38277893896117"><ele>850.0</ele><time>2026-04-27T12:24:41Z</time></trkpt><trkpt lat="42.105432747339286" lon="13.38281723067382"><ele>850.0</ele><time>2026-04-27T12:24:42Z</time></trkpt><trkpt lat="42.105558154700574" lon="13.382817042858795"><ele>850.0</ele><time>2026-04-27T12:24:43Z</time></trkpt><trkpt lat="42.105685458888054" lon="13.38281579170241"><ele>850.0</ele><time>2026-04-27T12:24:44Z</time></trkpt><trkpt lat="42.10580165843136" lon="13.38283783365226"><ele>851.75</ele><time>2026-04-27T12:24:45Z</time></trkpt><trkpt lat="42.10591817416205" lon="13.382859149717621"><ele>853.5</ele><time>2026-04-27T12:24:46Z</time></trkpt><trkpt lat="42.10604876631972" lon="13.382858479634809"><ele>855.25</ele><time>2026-04-27T12:24:47Z</time></trkpt><trkpt lat="42.10618777952354" lon="13.382838804022487"><ele>857.0</ele><time>2026-04-27T12:24:48Z</time></trkpt><trkpt lat="42.10631923421078" lon="13.382835121548704"><ele>857.0</ele><time>2026-04-27T12:24:49Z</time></trkpt><trkpt lat="42.106442878746115" lon="13.382835074892851"><ele>857.0</ele><time>2026-04-27T12:24:50Z</time></trkpt><trkpt lat="42.106541102567505" lon="13.382845521556508"><ele>857.0</ele><time>2026-04-27T12:24:51Z</time></trkpt><trkpt lat="42.10661526126059" lon="13.382902409826615"><ele>857.0</ele><time>2026-04-27T12:24:52Z</time></trkpt><trkpt lat="42.10667294570139" lon="13.382986539284605"><ele>857.0</ele><time>2026-04-27T12:24:53Z</time></trkpt><trkpt lat="42.10671650349415" lon="13.383094484611041"><ele>858.1428571428571</ele><time>2026-04-27T12:24:54Z</time></trkpt><trkpt lat="42.10676985382927" lon="13.383168651012927"><ele>859.2857142857142</ele><time>2026-04-27T12:24:55Z</time></trkpt><trkpt lat="42.10683556662471" lon="13.383169923839663"><ele>860.4285714285714</ele><time>2026-04-27T12:24:56Z</time></trkpt><trkpt lat="42.106899024083255" lon="13.383196521846576"><ele>861.5714285714286</ele><time>2026-04-27T12:24:57Z</time></trkpt><trkpt lat="42.106934586862664" lon="13.38328057726464"><ele>862.7142857142858</ele><time>2026-04-27T12:24:58Z</time></trkpt><trkpt lat="42.10695624030749" lon="13.383392534265523"><ele>863.8571428571429</ele><time>2026-04-27T12:24:59Z</time></trkpt><trkpt lat="42.10698336918317" lon="13.383480017720808"><ele>865.0</ele><time>2026-04-27T12:25:00Z</time></trkpt><trkpt lat="42.10707132271188" lon="13.383479331672598"><ele>865.0</ele><time>2026-04-27T12:25:02Z</time></trkpt><trkpt lat="42.10713644917488" lon="13.383345578830298"><ele>865.0</ele><time>2026-04-27T12:25:04Z</time></trkpt><trkpt lat="42.10719689854158" lon="13.383287494083374"><ele>865.0</ele><time>2026-04-27T12:25:05Z</time></trkpt><trkpt lat="42.10729263961942" lon="13.383204035738153"><ele>865.0</ele><time>2026-04-27T12:25:06Z</time></trkpt><trkpt lat="42.1073711427314" lon="13.383135545725168"><ele>865.0</ele><time>2026-04-27T12:25:07Z</time></trkpt><trkpt lat="42.10745105445668" lon="13.383057978683638"><ele>867.0</ele><time>2026-04-27T12:25:08Z</time></trkpt><trkpt lat="42.10752980078018" lon="13.383001140556226"><ele>869.0</ele><time>2026-04-27T12:25:09Z</time></trkpt><trkpt lat="42.10762072957015" lon="13.382941314982913"><ele>871.0</ele><time>2026-04-27T12:25:10Z</time></trkpt><trkpt lat="42.10772415175492" lon="13.382888836613514"><ele>873.0</ele><time>2026-04-27T12:25:11Z</time></trkpt><trkpt lat="42.1078395094582" lon="13.382884037608179"><ele>875.0</ele><time>2026-04-27T12:25:12Z</time></trkpt><trkpt lat="42.10795934901959" lon="13.382849365863153"><ele>875.0</ele><time>2026-04-27T12:25:13Z</time></trkpt><trkpt lat="42.10807580964279" lon="13.38280599996873"><ele>875.0</ele><time>2026-04-27T12:25:14Z</time></trkpt><trkpt lat="42.10820407177988" lon="13.382786422994974"><ele>875.0</ele><time>2026-04-27T12:25:14.999Z</time></trkpt><trkpt lat="42.10832334413617" lon="13.38277699038723"><ele>875.0</ele><time>2026-04-27T12:25:15.999Z</time></trkpt><trkpt lat="42.108432091315585" lon="13.382755486583736"><ele>875.8</ele><time>2026-04-27T12:25:16.999Z</time></trkpt><trkpt lat="42.10853982880802" lon="13.38272864543397"><ele>876.6</ele><time>2026-04-27T12:25:17.999Z</time></trkpt><trkpt lat="42.10864976893575" lon="13.382715740696796"><ele>877.4000000000001</ele><time>2026-04-27T12:25:18.999Z</time></trkpt><trkpt lat="42.108744444173006" lon="13.382671579920647"><ele>878.2</ele><time>2026-04-27T12:25:19.999Z</time></trkpt><trkpt lat="42.10883688876523" lon="13.382605758263919"><ele>879.0</ele><time>2026-04-27T12:25:20.999Z</time></trkpt><trkpt lat="42.10893704660509" lon="13.382545178888503"><ele>879.0</ele><time>2026-04-27T12:25:21.999Z</time></trkpt><trkpt lat="42.10903795078359" lon="13.382492259337827"><ele>879.0</ele><time>2026-04-27T12:25:22.999Z</time></trkpt><trkpt lat="42.109137006187794" lon="13.382430153419303"><ele>879.0</ele><time>2026-04-27T12:25:23.999Z</time></trkpt><trkpt lat="42.10926044881263" lon="13.382389837935978"><ele>879.0</ele><time>2026-04-27T12:25:24.999Z</time></trkpt><trkpt lat="42.10937123224228" lon="13.382329547208625"><ele>880.2</ele><time>2026-04-27T12:25:25.999Z</time></trkpt><trkpt lat="42.109487701445964" lon="13.382253888936313"><ele>881.4000000000001</ele><time>2026-04-27T12:25:26.999Z</time></trkpt><trkpt lat="42.10959760557384" lon="13.382190192013814"><ele>882.6</ele><time>2026-04-27T12:25:27.999Z</time></trkpt><trkpt lat="42.10967952415865" lon="13.382134133397308"><ele>883.8</ele><time>2026-04-27T12:25:28.999Z</time></trkpt><trkpt lat="42.109759561095984" lon="13.382061862434892"><ele>885.0</ele><time>2026-04-27T12:25:29.999Z</time></trkpt><trkpt lat="42.10983039792685" lon="13.382014384985565"><ele>885.2</ele><time>2026-04-27T12:25:30.999Z</time></trkpt><trkpt lat="42.10989674864201" lon="13.382016198976087"><ele>885.4</ele><time>2026-04-27T12:25:31.999Z</time></trkpt><trkpt lat="42.109969796594896" lon="13.382064184675817"><ele>885.5999999999999</ele><time>2026-04-27T12:25:32.999Z</time></trkpt><trkpt lat="42.11005598491172" lon="13.382116596054527"><ele>885.8</ele><time>2026-04-27T12:25:33.999Z</time></trkpt><trkpt lat="42.110158076625964" lon="13.382132957256102"><ele>886.0</ele><time>2026-04-27T12:25:34.999Z</time></trkpt><trkpt lat="42.110277573342316" lon="13.382110430709934"><ele>887.1999999999999</ele><time>2026-04-27T12:25:35.999Z</time></trkpt><trkpt lat="42.1104000504768" lon="13.382057392285606"><ele>888.3999999999999</ele><time>2026-04-27T12:25:36.999Z</time></trkpt><trkpt lat="42.11049419389763" lon="13.382010837369616"><ele>889.6</ele><time>2026-04-27T12:25:37.999Z</time></trkpt><trkpt lat="42.11055593395145" lon="13.381985711495695"><ele>890.8</ele><time>2026-04-27T12:25:38.999Z</time></trkpt><trkpt lat="42.110584090731464" lon="13.38188379593265"><ele>892.0</ele><time>2026-04-27T12:25:40.999Z</time></trkpt><trkpt lat="42.11053571828621" lon="13.381781960155886"><ele>892.0</ele><time>2026-04-27T12:25:41.999Z</time></trkpt><trkpt lat="42.11054043393084" lon="13.381693457509932"><ele>892.0</ele><time>2026-04-27T12:25:42.999Z</time></trkpt><trkpt lat="42.11053904672722" lon="13.381510215760317"><ele>892.0</ele><time>2026-04-27T12:25:44.999Z</time></trkpt><trkpt lat="42.11053328805689" lon="13.381388007307374"><ele>892.0</ele><time>2026-04-27T12:25:45.999Z</time></trkpt><trkpt lat="42.11052653060687" lon="13.381260299905275"><ele>892.0</ele><time>2026-04-27T12:25:46.999Z</time></trkpt><trkpt lat="42.110533041398405" lon="13.381130506687697"><ele>892.5</ele><time>2026-04-27T12:25:47.999Z</time></trkpt><trkpt lat="42.11053710245769" lon="13.380978863967878"><ele>893.0</ele><time>2026-04-27T12:25:48.999Z</time></trkpt><trkpt lat="42.110527505496705" lon="13.380805178685133"><ele>893.5</ele><time>2026-04-27T12:25:49.999Z</time></trkpt><trkpt lat="42.11052083246951" lon="13.380659467331933"><ele>894.0</ele><time>2026-04-27T12:25:50.999Z</time></trkpt><trkpt lat="42.11052444038784" lon="13.380508057728886"><ele>894.1666666666666</ele><time>2026-04-27T12:25:51.999Z</time></trkpt><trkpt lat="42.1105135171266" lon="13.38035779704402"><ele>894.3333333333333</ele><time>2026-04-27T12:25:52.999Z</time></trkpt><trkpt lat="42.11051883706642" lon="13.38023227572943"><ele>894.5</ele><time>2026-04-27T12:25:53.999Z</time></trkpt><trkpt lat="42.11051550472994" lon="13.380111387204527"><ele>894.6666666666666</ele><time>2026-04-27T12:25:54.999Z</time></trkpt><trkpt lat="42.11051873090136" lon="13.380025552502252"><ele>894.8333333333333</ele><time>2026-04-27T12:25:55.999Z</time></trkpt><trkpt lat="42.11056914459036" lon="13.379928449916875"><ele>895.0</ele><time>2026-04-27T12:25:57.999Z</time></trkpt><trkpt lat="42.110564417633526" lon="13.379836601946225"><ele>895.0</ele><time>2026-04-27T12:25:58.999Z</time></trkpt><trkpt lat="42.110520375310706" lon="13.379705585075952"><ele>895.0</ele><time>2026-04-27T12:25:59.999Z</time></trkpt><trkpt lat="42.11044934854205" lon="13.379579322150848"><ele>895.0</ele><time>2026-04-27T12:26:00.999Z</time></trkpt><trkpt lat="42.11037446051798" lon="13.379468887202018"><ele>895.0</ele><time>2026-04-27T12:26:01.999Z</time></trkpt><trkpt lat="42.110290525427246" lon="13.379371980169989"><ele>895.0</ele><time>2026-04-27T12:26:02.999Z</time></trkpt><trkpt lat="42.11020830349336" lon="13.379288658032372"><ele>895.2</ele><time>2026-04-27T12:26:03.999Z</time></trkpt><trkpt lat="42.11011868018136" lon="13.379233497820326"><ele>895.4</ele><time>2026-04-27T12:26:05Z</time></trkpt><trkpt lat="42.11001151396129" lon="13.379240263523139"><ele>895.5999999999999</ele><time>2026-04-27T12:26:06Z</time></trkpt><trkpt lat="42.10988249981622" lon="13.379255946270604"><ele>895.8</ele><time>2026-04-27T12:26:07Z</time></trkpt><trkpt lat="42.10977599344514" lon="13.379258508285448"><ele>896.0</ele><time>2026-04-27T12:26:08Z</time></trkpt><trkpt lat="42.10966800457738" lon="13.379227237176279"><ele>896.0</ele><time>2026-04-27T12:26:09Z</time></trkpt><trkpt lat="42.109563861425066" lon="13.379233856579493"><ele>895.9999999999999</ele><time>2026-04-27T12:26:10Z</time></trkpt><trkpt lat="42.10945373380629" lon="13.37920805152186"><ele>895.9999999999999</ele><time>2026-04-27T12:26:11Z</time></trkpt><trkpt lat="42.10934784597116" lon="13.379163191147448"><ele>896.0</ele><time>2026-04-27T12:26:12Z</time></trkpt><trkpt lat="42.1092719498463" lon="13.379104991339691"><ele>896.0</ele><time>2026-04-27T12:26:13Z</time></trkpt><trkpt lat="42.10925725305286" lon="13.378943619786858"><ele>896.5999999999999</ele><time>2026-04-27T12:26:15Z</time></trkpt><trkpt lat="42.109227692212784" lon="13.378846981278818"><ele>897.1999999999999</ele><time>2026-04-27T12:26:16Z</time></trkpt><trkpt lat="42.10920580336521" lon="13.378729722328178"><ele>897.8000000000001</ele><time>2026-04-27T12:26:17Z</time></trkpt><trkpt lat="42.10917226757119" lon="13.37861261430411"><ele>898.4000000000001</ele><time>2026-04-27T12:26:18Z</time></trkpt><trkpt lat="42.109110996697076" lon="13.378507772901031"><ele>899.0</ele><time>2026-04-27T12:26:19Z</time></trkpt><trkpt lat="42.10905986700295" lon="13.378389167091662"><ele>899.0</ele><time>2026-04-27T12:26:20Z</time></trkpt><trkpt lat="42.10899349361758" lon="13.378249088105271"><ele>899.0</ele><time>2026-04-27T12:26:21Z</time></trkpt><trkpt lat="42.10889733472543" lon="13.37810478821333"><ele>899.0</ele><time>2026-04-27T12:26:22Z</time></trkpt><trkpt lat="42.10878827476251" lon="13.377954260470906"><ele>899.0</ele><time>2026-04-27T12:26:23Z</time></trkpt><trkpt lat="42.10867409146644" lon="13.377835883064758"><ele>902.0</ele><time>2026-04-27T12:26:24Z</time></trkpt><trkpt lat="42.1085659901925" lon="13.377754335033403"><ele>905.0</ele><time>2026-04-27T12:26:25Z</time></trkpt><trkpt lat="42.108445173475396" lon="13.377687272645362"><ele>908.0</ele><time>2026-04-27T12:26:26Z</time></trkpt><trkpt lat="42.10830655117867" lon="13.377629786141036"><ele>911.0</ele><time>2026-04-27T12:26:27Z</time></trkpt><trkpt lat="42.10815778283105" lon="13.377596363388284"><ele>911.0</ele><time>2026-04-27T12:26:28Z</time></trkpt><trkpt lat="42.108024001676284" lon="13.377565364547351"><ele>910.9999999999999</ele><time>2026-04-27T12:26:29Z</time></trkpt><trkpt lat="42.10792456875976" lon="13.377529349290233"><ele>910.9999999999999</ele><time>2026-04-27T12:26:30Z</time></trkpt><trkpt lat="42.10783389607685" lon="13.377502418954755"><ele>911.0</ele><time>2026-04-27T12:26:31Z</time></trkpt><trkpt lat="42.107758729751104" lon="13.37746222346522"><ele>911.0</ele><time>2026-04-27T12:26:32Z</time></trkpt><trkpt lat="42.10769547388291" lon="13.377396665687362"><ele>911.0000000000001</ele><time>2026-04-27T12:26:33Z</time></trkpt><trkpt lat="42.10765430800691" lon="13.377326432812138"><ele>911.0</ele><time>2026-04-27T12:26:34Z</time></trkpt><trkpt lat="42.107615545793394" lon="13.377237158272173"><ele>911.0</ele><time>2026-04-27T12:26:35Z</time></trkpt><trkpt lat="42.10756282939496" lon="13.377155155657347"><ele>911.0</ele><time>2026-04-27T12:26:36Z</time></trkpt><trkpt lat="42.10749514126488" lon="13.377118346881746"><ele>911.0000000000001</ele><time>2026-04-27T12:26:37Z</time></trkpt><trkpt lat="42.10736240281585" lon="13.377056190033464"><ele>911.0</ele><time>2026-04-27T12:26:39Z</time></trkpt><trkpt lat="42.10727057523617" lon="13.376990360935043"><ele>910.3333333333334</ele><time>2026-04-27T12:26:41Z</time></trkpt><trkpt lat="42.10720388809603" lon="13.377071491894055"><ele>909.6666666666667</ele><time>2026-04-27T12:26:47Z</time></trkpt><trkpt lat="42.10713318492955" lon="13.377086322325647"><ele>909.0</ele><time>2026-04-27T12:26:49Z</time></trkpt><trkpt lat="42.107025680561634" lon="13.377031751428817"><ele>908.3333333333333</ele><time>2026-04-27T12:26:51Z</time></trkpt><trkpt lat="42.1069648111477" lon="13.376992052891557"><ele>907.6666666666666</ele><time>2026-04-27T12:26:52Z</time></trkpt><trkpt lat="42.10686834445493" lon="13.376998611903941"><ele>907.0</ele><time>2026-04-27T12:26:53Z</time></trkpt><trkpt lat="42.10680088462222" lon="13.376836279149376"><ele>906.9999999999999</ele><time>2026-04-27T12:26:55Z</time></trkpt><trkpt lat="42.10674076181869" lon="13.376777581817166"><ele>907.0</ele><time>2026-04-27T12:26:56Z</time></trkpt><trkpt lat="42.10668431036489" lon="13.37673249448362"><ele>907.0</ele><time>2026-04-27T12:26:57Z</time></trkpt><trkpt lat="42.10661478206157" lon="13.376687119109562"><ele>907.0</ele><time>2026-04-27T12:26:58Z</time></trkpt><trkpt lat="42.10653812278865" lon="13.37665389758754"><ele>906.9999999999999</ele><time>2026-04-27T12:26:59Z</time></trkpt><trkpt lat="42.106458446085256" lon="13.376633979797207"><ele>907.0</ele><time>2026-04-27T12:27:00Z</time></trkpt><trkpt lat="42.10637123827394" lon="13.37659869943821"><ele>905.3333333333333</ele><time>2026-04-27T12:27:01Z</time></trkpt><trkpt lat="42.10629068638253" lon="13.376580263220712"><ele>903.6666666666666</ele><time>2026-04-27T12:27:02Z</time></trkpt><trkpt lat="42.1062252844301" lon="13.376560851662278"><ele>902.0</ele><time>2026-04-27T12:27:03Z</time></trkpt><trkpt lat="42.10615451486258" lon="13.376541555031936"><ele>900.3333333333333</ele><time>2026-04-27T12:27:04Z</time></trkpt><trkpt lat="42.106096328637854" lon="13.376508176416552"><ele>898.6666666666666</ele><time>2026-04-27T12:27:05Z</time></trkpt><trkpt lat="42.10603870041404" lon="13.37646596355042"><ele>897.0</ele><time>2026-04-27T12:27:06Z</time></trkpt><trkpt lat="42.10596383040219" lon="13.376373803581298"><ele>896.0</ele><time>2026-04-27T12:27:08Z</time></trkpt><trkpt lat="42.105928141486665" lon="13.376284088371778"><ele>895.0</ele><time>2026-04-27T12:27:10Z</time></trkpt><trkpt lat="42.105857206002106" lon="13.37621597006754"><ele>894.0</ele><time>2026-04-27T12:27:12Z</time></trkpt><trkpt lat="42.10579577118693" lon="13.376111477147756"><ele>893.0</ele><time>2026-04-27T12:27:14Z</time></trkpt><trkpt lat="42.10574699855932" lon="13.376036817078155"><ele>892.0</ele><time>2026-04-27T12:27:15Z</time></trkpt><trkpt lat="42.10570130384726" lon="13.375962897900182"><ele>891.0</ele><time>2026-04-27T12:27:15.999Z</time></trkpt><trkpt lat="42.105646550925044" lon="13.375877201829228"><ele>889.4</ele><time>2026-04-27T12:27:16.999Z</time></trkpt><trkpt lat="42.10556444322593" lon="13.375791745790426"><ele>887.8</ele><time>2026-04-27T12:27:17.999Z</time></trkpt><trkpt lat="42.10547184803194" lon="13.37568204725992"><ele>886.1999999999999</ele><time>2026-04-27T12:27:18.999Z</time></trkpt><trkpt lat="42.105384334428784" lon="13.375580839365606"><ele>884.5999999999999</ele><time>2026-04-27T12:27:19.999Z</time></trkpt><trkpt lat="42.10532363879205" lon="13.375515608437935"><ele>883.0</ele><time>2026-04-27T12:27:20.999Z</time></trkpt><trkpt lat="42.105273411006344" lon="13.375411323367711"><ele>882.9999999999999</ele><time>2026-04-27T12:27:21.999Z</time></trkpt><trkpt lat="42.10521774981062" lon="13.375328043084293"><ele>883.0</ele><time>2026-04-27T12:27:22.999Z</time></trkpt><trkpt lat="42.105163125499324" lon="13.375262321770066"><ele>883.0</ele><time>2026-04-27T12:27:23.999Z</time></trkpt><trkpt lat="42.10509134214993" lon="13.375213799562529"><ele>883.0</ele><time>2026-04-27T12:27:24.999Z</time></trkpt><trkpt lat="42.10503302501005" lon="13.375164465641516"><ele>882.9999999999999</ele><time>2026-04-27T12:27:25.999Z</time></trkpt><trkpt lat="42.10502676293405" lon="13.375069499908971"><ele>883.0</ele><time>2026-04-27T12:27:27.999Z</time></trkpt><trkpt lat="42.1050111459242" lon="13.37495663248902"><ele>883.0</ele><time>2026-04-27T12:27:29.999Z</time></trkpt><trkpt lat="42.10496036871665" lon="13.374882788187962"><ele>883.0</ele><time>2026-04-27T12:27:30.999Z</time></trkpt><trkpt lat="42.10490664714166" lon="13.374796073471776"><ele>883.0</ele><time>2026-04-27T12:27:31.999Z</time></trkpt><trkpt lat="42.10484931453885" lon="13.374708349561292"><ele>883.0</ele><time>2026-04-27T12:27:32.999Z</time></trkpt><trkpt lat="42.10480224373632" lon="13.374581746623754"><ele>883.0</ele><time>2026-04-27T12:27:33.999Z</time></trkpt><trkpt lat="42.10476246635847" lon="13.374458521682653"><ele>881.1666666666666</ele><time>2026-04-27T12:27:34.999Z</time></trkpt><trkpt lat="42.104726740737675" lon="13.374363112742154"><ele>879.3333333333333</ele><time>2026-04-27T12:27:35.999Z</time></trkpt><trkpt lat="42.10467767959366" lon="13.374300604895712"><ele>877.5</ele><time>2026-04-27T12:27:36.999Z</time></trkpt><trkpt lat="42.10461181944817" lon="13.374281589222312"><ele>875.6666666666667</ele><time>2026-04-27T12:27:37.999Z</time></trkpt><trkpt lat="42.10450682971434" lon="13.374305384235889"><ele>873.8333333333334</ele><time>2026-04-27T12:27:39.999Z</time></trkpt><trkpt lat="42.1044844903928" lon="13.374224699197512"><ele>872.0</ele><time>2026-04-27T12:27:40.999Z</time></trkpt><trkpt lat="42.10441675129966" lon="13.374078461635001"><ele>872.0</ele><time>2026-04-27T12:27:41.999Z</time></trkpt><trkpt lat="42.10434276689786" lon="13.373913925478208"><ele>872.0</ele><time>2026-04-27T12:27:42.999Z</time></trkpt><trkpt lat="42.1042536989265" lon="13.373760713586487"><ele>872.0</ele><time>2026-04-27T12:27:43.999Z</time></trkpt><trkpt lat="42.1041495527002" lon="13.373638399271327"><ele>872.0</ele><time>2026-04-27T12:27:44.999Z</time></trkpt><trkpt lat="42.10406619448823" lon="13.373536033363566"><ele>871.0</ele><time>2026-04-27T12:27:45.999Z</time></trkpt><trkpt lat="42.10399464237267" lon="13.373445864538827"><ele>870.0</ele><time>2026-04-27T12:27:46.999Z</time></trkpt><trkpt lat="42.10393303507044" lon="13.373317337185297"><ele>869.0</ele><time>2026-04-27T12:27:47.999Z</time></trkpt><trkpt lat="42.10387274511938" lon="13.373214460323485"><ele>868.0</ele><time>2026-04-27T12:27:48.999Z</time></trkpt><trkpt lat="42.10378216361506" lon="13.373129384053831"><ele>867.0</ele><time>2026-04-27T12:27:49.999Z</time></trkpt><trkpt lat="42.10368456664612" lon="13.37302621927849"><ele>869.0</ele><time>2026-04-27T12:27:50.999Z</time></trkpt><trkpt lat="42.10359827532361" lon="13.37292629361417"><ele>871.0</ele><time>2026-04-27T12:27:51.999Z</time></trkpt><trkpt lat="42.10352710463517" lon="13.372802719514942"><ele>873.0</ele><time>2026-04-27T12:27:52.999Z</time></trkpt><trkpt lat="42.103480324794305" lon="13.372696093246674"><ele>875.0</ele><time>2026-04-27T12:27:53.999Z</time></trkpt><trkpt lat="42.1034402062311" lon="13.372626953750611"><ele>877.0</ele><time>2026-04-27T12:27:54.999Z</time></trkpt><trkpt lat="42.10339470207525" lon="13.372566742520862"><ele>876.9999999999999</ele><time>2026-04-27T12:27:55.999Z</time></trkpt><trkpt lat="42.10333236520137" lon="13.372495271886898"><ele>877.0</ele><time>2026-04-27T12:27:56.999Z</time></trkpt><trkpt lat="42.1032920168985" lon="13.372366983665044"><ele>877.0</ele><time>2026-04-27T12:27:58.999Z</time></trkpt><trkpt lat="42.10329186646471" lon="13.372276845394271"><ele>877.0</ele><time>2026-04-27T12:27:59.999Z</time></trkpt><trkpt lat="42.103271558444874" lon="13.372185848378493"><ele>876.9999999999999</ele><time>2026-04-27T12:28:00.999Z</time></trkpt><trkpt lat="42.103220650779846" lon="13.372112638846032"><ele>877.0</ele><time>2026-04-27T12:28:01.999Z</time></trkpt><trkpt lat="42.10314378805617" lon="13.372049096306394"><ele>875.1666666666666</ele><time>2026-04-27T12:28:02.999Z</time></trkpt><trkpt lat="42.103082762024464" lon="13.371988048124326"><ele>873.3333333333333</ele><time>2026-04-27T12:28:03.999Z</time></trkpt><trkpt lat="42.103019585873724" lon="13.371931644304986"><ele>871.5</ele><time>2026-04-27T12:28:04.999Z</time></trkpt><trkpt lat="42.10296198253231" lon="13.371871029193859"><ele>869.6666666666667</ele><time>2026-04-27T12:28:05.999Z</time></trkpt><trkpt lat="42.102881361692816" lon="13.371814880625827"><ele>867.8333333333334</ele><time>2026-04-27T12:28:06.999Z</time></trkpt><trkpt lat="42.102822738882374" lon="13.371761998050154"><ele>866.0</ele><time>2026-04-27T12:28:07.999Z</time></trkpt><trkpt lat="42.102767957996136" lon="13.371671778414424"><ele>866.0</ele><time>2026-04-27T12:28:08.999Z</time></trkpt><trkpt lat="42.102694698466856" lon="13.371542596037216"><ele>865.9999999999999</ele><time>2026-04-27T12:28:09.999Z</time></trkpt><trkpt lat="42.102631655007244" lon="13.37141541935765"><ele>865.9999999999999</ele><time>2026-04-27T12:28:11Z</time></trkpt><trkpt lat="42.10256632519444" lon="13.37130406762075"><ele>866.0</ele><time>2026-04-27T12:28:12Z</time></trkpt><trkpt lat="42.102512673668485" lon="13.371250354974627"><ele>866.0</ele><time>2026-04-27T12:28:13Z</time></trkpt><trkpt lat="42.10243051587747" lon="13.371195691467342"><ele>863.3333333333334</ele><time>2026-04-27T12:28:14Z</time></trkpt><trkpt lat="42.10234881434141" lon="13.371120208643054"><ele>860.6666666666667</ele><time>2026-04-27T12:28:15Z</time></trkpt><trkpt lat="42.10228654764143" lon="13.371044955797219"><ele>858.0</ele><time>2026-04-27T12:28:16Z</time></trkpt><trkpt lat="42.10221347487087" lon="13.370987851421877"><ele>855.3333333333333</ele><time>2026-04-27T12:28:17Z</time></trkpt><trkpt lat="42.10213081223036" lon="13.370938866827627"><ele>852.6666666666666</ele><time>2026-04-27T12:28:18Z</time></trkpt><trkpt lat="42.102065343810025" lon="13.37087346596292"><ele>850.0</ele><time>2026-04-27T12:28:19Z</time></trkpt><trkpt lat="42.10198235654472" lon="13.370818126153997"><ele>849.9999999999999</ele><time>2026-04-27T12:28:20Z</time></trkpt><trkpt lat="42.10190585767437" lon="13.370768873227078"><ele>850.0</ele><time>2026-04-27T12:28:21Z</time></trkpt><trkpt lat="42.10183914506591" lon="13.370696778549936"><ele>850.0</ele><time>2026-04-27T12:28:22Z</time></trkpt><trkpt lat="42.1017724377959" lon="13.370637597713937"><ele>850.0</ele><time>2026-04-27T12:28:23Z</time></trkpt><trkpt lat="42.10171015249383" lon="13.370609120506163"><ele>849.9999999999999</ele><time>2026-04-27T12:28:24Z</time></trkpt><trkpt lat="42.101674728716844" lon="13.370532791165461"><ele>850.0</ele><time>2026-04-27T12:28:25Z</time></trkpt><trkpt lat="42.10157336893666" lon="13.370482612001858"><ele>846.3333333333333</ele><time>2026-04-27T12:28:27Z</time></trkpt><trkpt lat="42.101518815816185" lon="13.370525755536377"><ele>842.6666666666666</ele><time>2026-04-27T12:28:28Z</time></trkpt><trkpt lat="42.10144335235486" lon="13.370540451407727"><ele>839.0</ele><time>2026-04-27T12:28:29Z</time></trkpt><trkpt lat="42.10138105486254" lon="13.370495314549617"><ele>835.3333333333333</ele><time>2026-04-27T12:28:30Z</time></trkpt><trkpt lat="42.10130493401748" lon="13.370488949315664"><ele>831.6666666666666</ele><time>2026-04-27T12:28:31Z</time></trkpt><trkpt lat="42.10119050754677" lon="13.370519388129575"><ele>828.0</ele><time>2026-04-27T12:28:33Z</time></trkpt><trkpt lat="42.101112922075714" lon="13.370495781164367"><ele>828.0</ele><time>2026-04-27T12:28:35Z</time></trkpt><trkpt lat="42.10100413196993" lon="13.37054589451648"><ele>828.0</ele><time>2026-04-27T12:28:37Z</time></trkpt><trkpt lat="42.10086053598231" lon="13.370470992286485"><ele>828.0</ele><time>2026-04-27T12:28:40Z</time></trkpt><trkpt lat="42.10076401320522" lon="13.370421228281568"><ele>828.0</ele><time>2026-04-27T12:28:41Z</time></trkpt><trkpt lat="42.100635260300244" lon="13.370357467416408"><ele>825.8</ele><time>2026-04-27T12:28:43Z</time></trkpt><trkpt lat="42.100566827243206" lon="13.37036255790489"><ele>823.5999999999999</ele><time>2026-04-27T12:28:44Z</time></trkpt><trkpt lat="42.100464858124596" lon="13.370363808141015"><ele>821.4000000000001</ele><time>2026-04-27T12:28:46Z</time></trkpt><trkpt lat="42.100390030381405" lon="13.370410439787593"><ele>819.2</ele><time>2026-04-27T12:28:47Z</time></trkpt><trkpt lat="42.10028956409785" lon="13.370412370054432"><ele>817.0</ele><time>2026-04-27T12:28:49Z</time></trkpt><trkpt lat="42.100146523539934" lon="13.370411882215787"><ele>817.0</ele><time>2026-04-27T12:28:51Z</time></trkpt><trkpt lat="42.100038234041975" lon="13.370316854996037"><ele>817.0</ele><time>2026-04-27T12:28:52Z</time></trkpt><trkpt lat="42.0999321704137" lon="13.370237741638991"><ele>817.0</ele><time>2026-04-27T12:28:53Z</time></trkpt><trkpt lat="42.099830737710285" lon="13.370156694273035"><ele>817.0</ele><time>2026-04-27T12:28:54Z</time></trkpt><trkpt lat="42.09974727874227" lon="13.370076739255698"><ele>814.0</ele><time>2026-04-27T12:28:55Z</time></trkpt><trkpt lat="42.099665037106284" lon="13.370015187693216"><ele>811.0</ele><time>2026-04-27T12:28:56Z</time></trkpt><trkpt lat="42.09956058856573" lon="13.369948433885556"><ele>808.0</ele><time>2026-04-27T12:28:57Z</time></trkpt><trkpt lat="42.09948274510981" lon="13.369842430158448"><ele>805.0</ele><time>2026-04-27T12:28:58Z</time></trkpt><trkpt lat="42.099390667967846" lon="13.369720333038442"><ele>802.0</ele><time>2026-04-27T12:28:59Z</time></trkpt><trkpt lat="42.09931267212513" lon="13.369612039652766"><ele>802.0</ele><time>2026-04-27T12:29:00Z</time></trkpt><trkpt lat="42.09923963241137" lon="13.369523387722946"><ele>802.0</ele><time>2026-04-27T12:29:01Z</time></trkpt><trkpt lat="42.09916354973872" lon="13.369447903609924"><ele>802.0</ele><time>2026-04-27T12:29:02Z</time></trkpt><trkpt lat="42.09908686554452" lon="13.369363028337737"><ele>802.0</ele><time>2026-04-27T12:29:03Z</time></trkpt><trkpt lat="42.099010936464296" lon="13.369290334974698"><ele>802.0</ele><time>2026-04-27T12:29:04Z</time></trkpt><trkpt lat="42.09892686121505" lon="13.369192607311575"><ele>801.6</ele><time>2026-04-27T12:29:05Z</time></trkpt><trkpt lat="42.09882864952993" lon="13.369096915635245"><ele>801.2</ele><time>2026-04-27T12:29:06Z</time></trkpt><trkpt lat="42.09876246247513" lon="13.369033410930234"><ele>800.8</ele><time>2026-04-27T12:29:07Z</time></trkpt><trkpt lat="42.09869182179599" lon="13.36896182298656"><ele>800.4</ele><time>2026-04-27T12:29:08Z</time></trkpt><trkpt lat="42.098582840530035" lon="13.368894620568677"><ele>800.0</ele><time>2026-04-27T12:29:09Z</time></trkpt><trkpt lat="42.09846849560891" lon="13.368822864441622"><ele>800.0</ele><time>2026-04-27T12:29:10Z</time></trkpt><trkpt lat="42.09835739126358" lon="13.368751651296671"><ele>800.0</ele><time>2026-04-27T12:29:11Z</time></trkpt><trkpt lat="42.098241149007244" lon="13.368696302053655"><ele>800.0</ele><time>2026-04-27T12:29:12Z</time></trkpt><trkpt lat="42.09812610303958" lon="13.368647070977321"><ele>800.0</ele><time>2026-04-27T12:29:13Z</time></trkpt><trkpt lat="42.09801081752799" lon="13.368594707333228"><ele>796.5</ele><time>2026-04-27T12:29:14Z</time></trkpt><trkpt lat="42.097897575866966" lon="13.368540976404407"><ele>793.0</ele><time>2026-04-27T12:29:15Z</time></trkpt><trkpt lat="42.09778766549704" lon="13.36848997093721"><ele>789.5</ele><time>2026-04-27T12:29:16Z</time></trkpt><trkpt lat="42.09767614507998" lon="13.36842615526964"><ele>786.0</ele><time>2026-04-27T12:29:16.999Z</time></trkpt><trkpt lat="42.097568628702376" lon="13.368377277273932"><ele>786.0</ele><time>2026-04-27T12:29:17.999Z</time></trkpt><trkpt lat="42.09746203631485" lon="13.368337998924867"><ele>786.0</ele><time>2026-04-27T12:29:18.999Z</time></trkpt><trkpt lat="42.097347498852805" lon="13.368314957902845"><ele>786.0</ele><time>2026-04-27T12:29:19.999Z</time></trkpt><trkpt lat="42.09724108290895" lon="13.36827989028165"><ele>786.0</ele><time>2026-04-27T12:29:20.999Z</time></trkpt><trkpt lat="42.0971325957087" lon="13.368247171668974"><ele>786.0</ele><time>2026-04-27T12:29:21.999Z</time></trkpt><trkpt lat="42.097034290582606" lon="13.368197936600469"><ele>782.8</ele><time>2026-04-27T12:29:22.999Z</time></trkpt><trkpt lat="42.09693516720037" lon="13.368141145295844"><ele>779.5999999999999</ele><time>2026-04-27T12:29:23.999Z</time></trkpt><trkpt lat="42.096836121659194" lon="13.368075457021948"><ele>776.4</ele><time>2026-04-27T12:29:24.999Z</time></trkpt><trkpt lat="42.09674113761553" lon="13.367996508492771"><ele>773.2</ele><time>2026-04-27T12:29:25.999Z</time></trkpt><trkpt lat="42.096656217799946" lon="13.367907431411297"><ele>770.0</ele><time>2026-04-27T12:29:26.999Z</time></trkpt><trkpt lat="42.09657750342086" lon="13.3678137721201"><ele>767.1666666666667</ele><time>2026-04-27T12:29:27.999Z</time></trkpt><trkpt lat="42.09650924966479" lon="13.36774265632055"><ele>764.3333333333334</ele><time>2026-04-27T12:29:28.999Z</time></trkpt><trkpt lat="42.09644200019036" lon="13.36768186619789"><ele>761.5</ele><time>2026-04-27T12:29:29.999Z</time></trkpt><trkpt lat="42.09638134191798" lon="13.367611457796253"><ele>758.6666666666667</ele><time>2026-04-27T12:29:30.999Z</time></trkpt><trkpt lat="42.09633348443866" lon="13.36752360062055"><ele>755.8333333333334</ele><time>2026-04-27T12:29:31.999Z</time></trkpt><trkpt lat="42.096282308703636" lon="13.367453865411262"><ele>753.0</ele><time>2026-04-27T12:29:32.999Z</time></trkpt><trkpt lat="42.09621510267445" lon="13.367384432011606"><ele>753.0</ele><time>2026-04-27T12:29:33.999Z</time></trkpt><trkpt lat="42.09613386383572" lon="13.36731634522449"><ele>753.0</ele><time>2026-04-27T12:29:34.999Z</time></trkpt><trkpt lat="42.096057114877894" lon="13.367250990224136"><ele>753.0</ele><time>2026-04-27T12:29:35.999Z</time></trkpt><trkpt lat="42.0959788200361" lon="13.36720285608687"><ele>753.0</ele><time>2026-04-27T12:29:36.999Z</time></trkpt><trkpt lat="42.09590254474418" lon="13.367128535519136"><ele>753.0</ele><time>2026-04-27T12:29:37.999Z</time></trkpt><trkpt lat="42.095818467756786" lon="13.36711602515586"><ele>750.0</ele><time>2026-04-27T12:29:38.999Z</time></trkpt><trkpt lat="42.09574949666677" lon="13.367092308112976"><ele>747.0</ele><time>2026-04-27T12:29:39.999Z</time></trkpt><trkpt lat="42.09567238404042" lon="13.367046759344825"><ele>744.0</ele><time>2026-04-27T12:29:40.999Z</time></trkpt><trkpt lat="42.09559170134693" lon="13.367016801214529"><ele>741.0</ele><time>2026-04-27T12:29:41.999Z</time></trkpt><trkpt lat="42.09549283065639" lon="13.366997739552929"><ele>738.0</ele><time>2026-04-27T12:29:42.999Z</time></trkpt><trkpt lat="42.09539866420022" lon="13.366952606096422"><ele>735.0</ele><time>2026-04-27T12:29:43.999Z</time></trkpt><trkpt lat="42.09529770128552" lon="13.366895267396906"><ele>735.0</ele><time>2026-04-27T12:29:44.999Z</time></trkpt><trkpt lat="42.09518763961747" lon="13.366833017235722"><ele>735.0</ele><time>2026-04-27T12:29:45.999Z</time></trkpt><trkpt lat="42.095072341909336" lon="13.366772068946599"><ele>735.0</ele><time>2026-04-27T12:29:46.999Z</time></trkpt><trkpt lat="42.094961871434506" lon="13.366719281655808"><ele>735.0</ele><time>2026-04-27T12:29:47.999Z</time></trkpt><trkpt lat="42.0948603344119" lon="13.366661514063361"><ele>734.8333333333334</ele><time>2026-04-27T12:29:48.999Z</time></trkpt><trkpt lat="42.09475820066816" lon="13.366665922054288"><ele>734.6666666666666</ele><time>2026-04-27T12:29:49.999Z</time></trkpt><trkpt lat="42.09466934219896" lon="13.36665907319162"><ele>734.5</ele><time>2026-04-27T12:29:50.999Z</time></trkpt><trkpt lat="42.0945990974181" lon="13.366637291455742"><ele>734.3333333333333</ele><time>2026-04-27T12:29:51.999Z</time></trkpt><trkpt lat="42.09453942314013" lon="13.366582820224682"><ele>734.1666666666666</ele><time>2026-04-27T12:29:52.999Z</time></trkpt><trkpt lat="42.094488714207614" lon="13.366526122357634"><ele>734.0</ele><time>2026-04-27T12:29:53.999Z</time></trkpt><trkpt lat="42.0943936586874" lon="13.366421762222865"><ele>733.5</ele><time>2026-04-27T12:29:55.999Z</time></trkpt><trkpt lat="42.09435162294212" lon="13.366352427448914"><ele>733.0</ele><time>2026-04-27T12:29:56.999Z</time></trkpt><trkpt lat="42.09430820299506" lon="13.366249032130733"><ele>732.5</ele><time>2026-04-27T12:29:58.999Z</time></trkpt><trkpt lat="42.0943515146926" lon="13.36613350229608"><ele>732.0</ele><time>2026-04-27T12:30:01.999Z</time></trkpt><trkpt lat="42.094385269031456" lon="13.366060821714814"><ele>731.5</ele><time>2026-04-27T12:30:03.999Z</time></trkpt><trkpt lat="42.09442029957625" lon="13.365985847860825"><ele>731.0</ele><time>2026-04-27T12:30:05.999Z</time></trkpt><trkpt lat="42.09446675328274" lon="13.36590846089326"><ele>731.0</ele><time>2026-04-27T12:30:07.999Z</time></trkpt><trkpt lat="42.094526176375936" lon="13.365828522864785"><ele>731.0</ele><time>2026-04-27T12:30:09.999Z</time></trkpt><trkpt lat="42.09460056563339" lon="13.365744210346778"><ele>731.0</ele><time>2026-04-27T12:30:11.999Z</time></trkpt><trkpt lat="42.09466363998123" lon="13.365655510192639"><ele>731.0</ele><time>2026-04-27T12:30:13.999Z</time></trkpt><trkpt lat="42.09472068178898" lon="13.365573621711965"><ele>731.0</ele><time>2026-04-27T12:30:15.999Z</time></trkpt><trkpt lat="42.094777950300596" lon="13.36549874801156"><ele>731.0</ele><time>2026-04-27T12:30:18Z</time></trkpt><trkpt lat="42.09483091033312" lon="13.36542837319579"><ele>730.6666666666666</ele><time>2026-04-27T12:30:20Z</time></trkpt><trkpt lat="42.09488214818221" lon="13.365358957995952"><ele>730.3333333333333</ele><time>2026-04-27T12:30:22Z</time></trkpt><trkpt lat="42.09493160934707" lon="13.365300394835117"><ele>730.0</ele><time>2026-04-27T12:30:24Z</time></trkpt><trkpt lat="42.0949789343586" lon="13.365237302378198"><ele>729.6666666666666</ele><time>2026-04-27T12:30:26Z</time></trkpt><trkpt lat="42.09502021863419" lon="13.365170534962155"><ele>729.3333333333334</ele><time>2026-04-27T12:30:28Z</time></trkpt><trkpt lat="42.09508059833411" lon="13.365073642697993"><ele>729.0</ele><time>2026-04-27T12:30:31Z</time></trkpt><trkpt lat="42.095144020864396" lon="13.364985194786586"><ele>729.0</ele><time>2026-04-27T12:30:34Z</time></trkpt><trkpt lat="42.09520819335599" lon="13.36489132149272"><ele>729.0</ele><time>2026-04-27T12:30:37Z</time></trkpt><trkpt lat="42.095298785851085" lon="13.364758542224175"><ele>729.0</ele><time>2026-04-27T12:30:39Z</time></trkpt><trkpt lat="42.09534570179292" lon="13.364689284870858"><ele>729.0</ele><time>2026-04-27T12:30:40Z</time></trkpt><trkpt lat="42.09539884550039" lon="13.364609821514453"><ele>729.0</ele><time>2026-04-27T12:30:41Z</time></trkpt><trkpt lat="42.09546141817112" lon="13.36452553336807"><ele>728.8000000000001</ele><time>2026-04-27T12:30:42Z</time></trkpt><trkpt lat="42.09554145483172" lon="13.364444579100002"><ele>728.6</ele><time>2026-04-27T12:30:43Z</time></trkpt><trkpt lat="42.09561909609336" lon="13.364364306244367"><ele>728.4</ele><time>2026-04-27T12:30:44Z</time></trkpt><trkpt lat="42.09569502930588" lon="13.36428674775879"><ele>728.2</ele><time>2026-04-27T12:30:45Z</time></trkpt><trkpt lat="42.09576292385778" lon="13.36420831025501"><ele>728.0</ele><time>2026-04-27T12:30:46Z</time></trkpt><trkpt lat="42.09581920134639" lon="13.364109401910182"><ele>727.4</ele><time>2026-04-27T12:30:47Z</time></trkpt><trkpt lat="42.09587557160944" lon="13.364002605658039"><ele>726.8</ele><time>2026-04-27T12:30:48Z</time></trkpt><trkpt lat="42.095940390598074" lon="13.363902632879276"><ele>726.2</ele><time>2026-04-27T12:30:49Z</time></trkpt><trkpt lat="42.09602242778445" lon="13.363786345151137"><ele>725.6</ele><time>2026-04-27T12:30:50Z</time></trkpt><trkpt lat="42.09611195311245" lon="13.363652022224972"><ele>725.0</ele><time>2026-04-27T12:30:51Z</time></trkpt><trkpt lat="42.09620717836382" lon="13.363510874661136"><ele>724.25</ele><time>2026-04-27T12:30:52Z</time></trkpt><trkpt lat="42.09629992681777" lon="13.363365423797344"><ele>723.5</ele><time>2026-04-27T12:30:53Z</time></trkpt><trkpt lat="42.09639139027801" lon="13.363218417113405"><ele>722.75</ele><time>2026-04-27T12:30:54Z</time></trkpt><trkpt lat="42.09648023962616" lon="13.363074040121543"><ele>722.0</ele><time>2026-04-27T12:30:55Z</time></trkpt><trkpt lat="42.09657387728638" lon="13.362926235384545"><ele>720.0</ele><time>2026-04-27T12:30:56Z</time></trkpt><trkpt lat="42.096676860352225" lon="13.36277144879458"><ele>718.0</ele><time>2026-04-27T12:30:57Z</time></trkpt><trkpt lat="42.09678333540922" lon="13.362608369131642"><ele>716.0</ele><time>2026-04-27T12:30:58Z</time></trkpt><trkpt lat="42.09689205992809" lon="13.362439566744923"><ele>716.0</ele><time>2026-04-27T12:30:59Z</time></trkpt><trkpt lat="42.0970056486446" lon="13.362267869163178"><ele>716.0</ele><time>2026-04-27T12:31:00Z</time></trkpt><trkpt lat="42.09711806158919" lon="13.362096506045118"><ele>716.0</ele><time>2026-04-27T12:31:01Z</time></trkpt><trkpt lat="42.097223239881295" lon="13.36193774687971"><ele>715.6666666666666</ele><time>2026-04-27T12:31:02Z</time></trkpt><trkpt lat="42.09732390310873" lon="13.361783799442616"><ele>715.3333333333334</ele><time>2026-04-27T12:31:03Z</time></trkpt><trkpt lat="42.09742933345955" lon="13.361624016568717"><ele>715.0</ele><time>2026-04-27T12:31:04Z</time></trkpt><trkpt lat="42.09753622101365" lon="13.36146161809962"><ele>714.6666666666667</ele><time>2026-04-27T12:31:05Z</time></trkpt><trkpt lat="42.09764513616835" lon="13.361297631042529"><ele>714.3333333333334</ele><time>2026-04-27T12:31:06Z</time></trkpt><trkpt lat="42.097750418077176" lon="13.361136203689135"><ele>714.0</ele><time>2026-04-27T12:31:07Z</time></trkpt><trkpt lat="42.09785397632727" lon="13.36097586851601"><ele>714.0</ele><time>2026-04-27T12:31:08Z</time></trkpt><trkpt lat="42.09795688235119" lon="13.360818871275951"><ele>714.0</ele><time>2026-04-27T12:31:09Z</time></trkpt><trkpt lat="42.09806619169416" lon="13.360667518441808"><ele>714.0</ele><time>2026-04-27T12:31:10Z</time></trkpt><trkpt lat="42.09818221871665" lon="13.360513209160912"><ele>712.3333333333334</ele><time>2026-04-27T12:31:11Z</time></trkpt><trkpt lat="42.09830150406688" lon="13.360354833135121"><ele>710.6666666666667</ele><time>2026-04-27T12:31:12Z</time></trkpt><trkpt lat="42.09842701241537" lon="13.360197371614477"><ele>709.0</ele><time>2026-04-27T12:31:13Z</time></trkpt><trkpt lat="42.09856042305991" lon="13.360045980272105"><ele>709.0</ele><time>2026-04-27T12:31:14Z</time></trkpt><trkpt lat="42.098691917937344" lon="13.359902869564179"><ele>709.0</ele><time>2026-04-27T12:31:15Z</time></trkpt><trkpt lat="42.09881982488298" lon="13.359760742058073"><ele>709.0</ele><time>2026-04-27T12:31:16Z</time></trkpt><trkpt lat="42.098947983029056" lon="13.359614334483679"><ele>708.6666666666667</ele><time>2026-04-27T12:31:17Z</time></trkpt><trkpt lat="42.09907587899502" lon="13.359465653959631"><ele>708.3333333333334</ele><time>2026-04-27T12:31:18Z</time></trkpt><trkpt lat="42.09920276082089" lon="13.359313237459487"><ele>708.0</ele><time>2026-04-27T12:31:19Z</time></trkpt><trkpt lat="42.099328158093094" lon="13.359156856914325"><ele>708.0</ele><time>2026-04-27T12:31:19.999Z</time></trkpt><trkpt lat="42.09945381004573" lon="13.358996489806952"><ele>708.0</ele><time>2026-04-27T12:31:20.999Z</time></trkpt><trkpt lat="42.09957629579569" lon="13.358831553708113"><ele>708.0</ele><time>2026-04-27T12:31:21.999Z</time></trkpt><trkpt lat="42.099695913565945" lon="13.358670974373023"><ele>708.0</ele><time>2026-04-27T12:31:22.999Z</time></trkpt><trkpt lat="42.099806929592674" lon="13.358520309708593"><ele>708.0</ele><time>2026-04-27T12:31:23.999Z</time></trkpt><trkpt lat="42.09992323937646" lon="13.358373294384787"><ele>708.0</ele><time>2026-04-27T12:31:24.999Z</time></trkpt><trkpt lat="42.10005123222824" lon="13.358228890853503"><ele>708.3333333333334</ele><time>2026-04-27T12:31:25.999Z</time></trkpt><trkpt lat="42.100183675667544" lon="13.35808643783299"><ele>708.6666666666667</ele><time>2026-04-27T12:31:26.999Z</time></trkpt><trkpt lat="42.10031942827095" lon="13.357943587465947"><ele>709.0</ele><time>2026-04-27T12:31:27.999Z</time></trkpt><trkpt lat="42.10045929182815" lon="13.357800748920024"><ele>709.0</ele><time>2026-04-27T12:31:28.999Z</time></trkpt><trkpt lat="42.1005977242767" lon="13.357658641194682"><ele>709.0</ele><time>2026-04-27T12:31:29.999Z</time></trkpt><trkpt lat="42.10072211874635" lon="13.357520312104196"><ele>709.0</ele><time>2026-04-27T12:31:30.999Z</time></trkpt><trkpt lat="42.10082779527821" lon="13.357386922180599"><ele>709.25</ele><time>2026-04-27T12:31:31.999Z</time></trkpt><trkpt lat="42.10094471080592" lon="13.357281481847716"><ele>709.5</ele><time>2026-04-27T12:31:32.999Z</time></trkpt><trkpt lat="42.10105389789746" lon="13.357192015225898"><ele>709.75</ele><time>2026-04-27T12:31:33.999Z</time></trkpt><trkpt lat="42.101174426032145" lon="13.35709648332098"><ele>710.0</ele><time>2026-04-27T12:31:34.999Z</time></trkpt><trkpt lat="42.1012990347664" lon="13.357001479588615"><ele>710.0</ele><time>2026-04-27T12:31:35.999Z</time></trkpt><trkpt lat="42.10141682775344" lon="13.356884352175229"><ele>710.0</ele><time>2026-04-27T12:31:36.999Z</time></trkpt><trkpt lat="42.10155134273241" lon="13.356781645837156"><ele>710.0</ele><time>2026-04-27T12:31:37.999Z</time></trkpt><trkpt lat="42.10166990835402" lon="13.356649566584146"><ele>711.0</ele><time>2026-04-27T12:31:38.999Z</time></trkpt><trkpt lat="42.10178781307566" lon="13.356513533685993"><ele>712.0</ele><time>2026-04-27T12:31:39.999Z</time></trkpt><trkpt lat="42.10190724440457" lon="13.356377289748748"><ele>713.0</ele><time>2026-04-27T12:31:40.999Z</time></trkpt><trkpt lat="42.10203018073837" lon="13.356232769584018"><ele>713.0</ele><time>2026-04-27T12:31:41.999Z</time></trkpt><trkpt lat="42.10214842480864" lon="13.356075747519812"><ele>713.0</ele><time>2026-04-27T12:31:42.999Z</time></trkpt><trkpt lat="42.1022628609702" lon="13.355911337937298"><ele>713.0</ele><time>2026-04-27T12:31:43.999Z</time></trkpt><trkpt lat="42.10236730027529" lon="13.355732138806811"><ele>713.0</ele><time>2026-04-27T12:31:44.999Z</time></trkpt><trkpt lat="42.102481929604075" lon="13.355582439256793"><ele>713.0</ele><time>2026-04-27T12:31:45.999Z</time></trkpt><trkpt lat="42.10260200165081" lon="13.355431334789472"><ele>713.0</ele><time>2026-04-27T12:31:46.999Z</time></trkpt><trkpt lat="42.102722856301575" lon="13.355278705338192"><ele>713.0</ele><time>2026-04-27T12:31:47.999Z</time></trkpt><trkpt lat="42.10284381722194" lon="13.35512331663062"><ele>713.0</ele><time>2026-04-27T12:31:48.999Z</time></trkpt><trkpt lat="42.10297853475128" lon="13.35498552167484"><ele>713.0</ele><time>2026-04-27T12:31:49.999Z</time></trkpt><trkpt lat="42.1031036758935" lon="13.354828051886184"><ele>713.6666666666666</ele><time>2026-04-27T12:31:50.999Z</time></trkpt><trkpt lat="42.10322957185358" lon="13.354665724778036"><ele>714.3333333333334</ele><time>2026-04-27T12:31:51.999Z</time></trkpt><trkpt lat="42.10335545573553" lon="13.354497082393486"><ele>715.0</ele><time>2026-04-27T12:31:52.999Z</time></trkpt><trkpt lat="42.1034691097565" lon="13.354307478891734"><ele>717.6666666666667</ele><time>2026-04-27T12:31:53.999Z</time></trkpt><trkpt lat="42.10359568386312" lon="13.35413520962612"><ele>720.3333333333334</ele><time>2026-04-27T12:31:54.999Z</time></trkpt><trkpt lat="42.10372385376466" lon="13.353962296872103"><ele>723.0</ele><time>2026-04-27T12:31:55.999Z</time></trkpt><trkpt lat="42.10385223439451" lon="13.35379045417155"><ele>724.6666666666666</ele><time>2026-04-27T12:31:56.999Z</time></trkpt><trkpt lat="42.10398242178505" lon="13.353618734136743"><ele>726.3333333333333</ele><time>2026-04-27T12:31:57.999Z</time></trkpt><trkpt lat="42.104113965229814" lon="13.35344803094724"><ele>728.0</ele><time>2026-04-27T12:31:58.999Z</time></trkpt><trkpt lat="42.104260725189924" lon="13.353314913779087"><ele>728.6666666666666</ele><time>2026-04-27T12:31:59.999Z</time></trkpt><trkpt lat="42.1043924088084" lon="13.353167409721866"><ele>729.3333333333334</ele><time>2026-04-27T12:32:00.999Z</time></trkpt><trkpt lat="42.10453946452401" lon="13.353052537023956"><ele>730.0</ele><time>2026-04-27T12:32:01.999Z</time></trkpt><trkpt lat="42.10468101235873" lon="13.35293801129365"><ele>731.0</ele><time>2026-04-27T12:32:02.999Z</time></trkpt><trkpt lat="42.10482393615455" lon="13.352821079433234"><ele>732.0</ele><time>2026-04-27T12:32:03.999Z</time></trkpt><trkpt lat="42.1049646575038" lon="13.35270460978789"><ele>733.0</ele><time>2026-04-27T12:32:04.999Z</time></trkpt><trkpt lat="42.10510792474655" lon="13.352589328397935"><ele>735.3333333333334</ele><time>2026-04-27T12:32:05.999Z</time></trkpt><trkpt lat="42.105250824330184" lon="13.35247373577121"><ele>737.6666666666666</ele><time>2026-04-27T12:32:06.999Z</time></trkpt><trkpt lat="42.1054014276877" lon="13.352377585389537"><ele>740.0</ele><time>2026-04-27T12:32:07.999Z</time></trkpt><trkpt lat="42.10554655933273" lon="13.352264236308267"><ele>739.6666666666666</ele><time>2026-04-27T12:32:08.999Z</time></trkpt><trkpt lat="42.105691894720685" lon="13.35214419341415"><ele>739.3333333333334</ele><time>2026-04-27T12:32:09.999Z</time></trkpt><trkpt lat="42.10583734166115" lon="13.352024357434647"><ele>739.0</ele><time>2026-04-27T12:32:10.999Z</time></trkpt><trkpt lat="42.10597470209864" lon="13.351884901269395"><ele>740.25</ele><time>2026-04-27T12:32:11.999Z</time></trkpt><trkpt lat="42.10611130401617" lon="13.351769375357167"><ele>741.5</ele><time>2026-04-27T12:32:12.999Z</time></trkpt><trkpt lat="42.10623237263044" lon="13.351665026233563"><ele>742.75</ele><time>2026-04-27T12:32:13.999Z</time></trkpt><trkpt lat="42.10634654109382" lon="13.351570089585122"><ele>744.0</ele><time>2026-04-27T12:32:14.999Z</time></trkpt><trkpt lat="42.106457550421716" lon="13.35149380502509"><ele>744.0</ele><time>2026-04-27T12:32:15.999Z</time></trkpt><trkpt lat="42.10657019315237" lon="13.351439195407565"><ele>744.0</ele><time>2026-04-27T12:32:16.999Z</time></trkpt><trkpt lat="42.10667247888739" lon="13.351400427317678"><ele>744.0</ele><time>2026-04-27T12:32:17.999Z</time></trkpt><trkpt lat="42.10677276005502" lon="13.3513560652004"><ele>744.0</ele><time>2026-04-27T12:32:18.999Z</time></trkpt><trkpt lat="42.106850417305814" lon="13.351315510519758"><ele>744.0</ele><time>2026-04-27T12:32:19.999Z</time></trkpt><trkpt lat="42.10691596620471" lon="13.351271940000858"><ele>744.5</ele><time>2026-04-27T12:32:20.999Z</time></trkpt><trkpt lat="42.106955299882465" lon="13.351199721003987"><ele>745.0</ele><time>2026-04-27T12:32:22Z</time></trkpt><trkpt lat="42.10697868992337" lon="13.351096842477594"><ele>745.5</ele><time>2026-04-27T12:32:23Z</time></trkpt><trkpt lat="42.106994102185695" lon="13.350982660765357"><ele>746.0</ele><time>2026-04-27T12:32:24Z</time></trkpt><trkpt lat="42.107017243322474" lon="13.350854101725256"><ele>746.5</ele><time>2026-04-27T12:32:25Z</time></trkpt><trkpt lat="42.107042322557625" lon="13.350721471668844"><ele>747.0</ele><time>2026-04-27T12:32:26Z</time></trkpt><trkpt lat="42.10707025959675" lon="13.350583609456772"><ele>747.4000000000001</ele><time>2026-04-27T12:32:27Z</time></trkpt><trkpt lat="42.10709323930537" lon="13.350442294975515"><ele>747.8000000000001</ele><time>2026-04-27T12:32:28Z</time></trkpt><trkpt lat="42.10711409968257" lon="13.350312902512687"><ele>748.2</ele><time>2026-04-27T12:32:29Z</time></trkpt><trkpt lat="42.107135211528885" lon="13.350192799625896"><ele>748.6</ele><time>2026-04-27T12:32:30Z</time></trkpt><trkpt lat="42.107176231628" lon="13.350075383720954"><ele>749.0</ele><time>2026-04-27T12:32:31Z</time></trkpt><trkpt lat="42.107237041910544" lon="13.349953461029099"><ele>749.0</ele><time>2026-04-27T12:32:32Z</time></trkpt><trkpt lat="42.107312706725935" lon="13.349830266750768"><ele>749.0</ele><time>2026-04-27T12:32:33Z</time></trkpt><trkpt lat="42.107401947616864" lon="13.349708615530531"><ele>749.0</ele><time>2026-04-27T12:32:34Z</time></trkpt><trkpt lat="42.10749402475512" lon="13.349583341110115"><ele>749.0</ele><time>2026-04-27T12:32:35Z</time></trkpt><trkpt lat="42.10758591603322" lon="13.349460885946522"><ele>749.4000000000001</ele><time>2026-04-27T12:32:36Z</time></trkpt><trkpt lat="42.10766019766437" lon="13.349360298949943"><ele>749.8</ele><time>2026-04-27T12:32:37Z</time></trkpt><trkpt lat="42.10771983745512" lon="13.349284613651268"><ele>750.2</ele><time>2026-04-27T12:32:41Z</time></trkpt><trkpt lat="42.10780401186195" lon="13.349357274190083"><ele>750.5999999999999</ele><time>2026-04-27T12:32:42Z</time></trkpt><trkpt lat="42.10791858773701" lon="13.349364231574798"><ele>751.0</ele><time>2026-04-27T12:32:44Z</time></trkpt><trkpt lat="42.10799107805636" lon="13.34936733596893"><ele>751.0</ele><time>2026-04-27T12:32:45Z</time></trkpt><trkpt lat="42.10807332161367" lon="13.34937085804162"><ele>751.0</ele><time>2026-04-27T12:32:46Z</time></trkpt><trkpt lat="42.1081774009429" lon="13.349354140976326"><ele>751.0</ele><time>2026-04-27T12:32:47Z</time></trkpt><trkpt lat="42.10828756714823" lon="13.349384386264887"><ele>751.0</ele><time>2026-04-27T12:32:48Z</time></trkpt><trkpt lat="42.108407141656954" lon="13.349394258826276"><ele>751.0</ele><time>2026-04-27T12:32:49Z</time></trkpt><trkpt lat="42.108518824185744" lon="13.349403479793274"><ele>752.4</ele><time>2026-04-27T12:32:50Z</time></trkpt><trkpt lat="42.1086330733671" lon="13.349411691574687"><ele>753.8</ele><time>2026-04-27T12:32:51Z</time></trkpt><trkpt lat="42.108742729696196" lon="13.349414371217026"><ele>755.1999999999999</ele><time>2026-04-27T12:32:52Z</time></trkpt><trkpt lat="42.10885775623149" lon="13.349399614964454"><ele>756.5999999999999</ele><time>2026-04-27T12:32:53Z</time></trkpt><trkpt lat="42.10896356948388" lon="13.349411626975552"><ele>758.0</ele><time>2026-04-27T12:32:54Z</time></trkpt><trkpt lat="42.1090500500185" lon="13.349404467945206"><ele>759.0</ele><time>2026-04-27T12:32:55Z</time></trkpt><trkpt lat="42.10914824655796" lon="13.349359193528283"><ele>760.0</ele><time>2026-04-27T12:32:56Z</time></trkpt><trkpt lat="42.109262737019854" lon="13.349325501297256"><ele>761.0</ele><time>2026-04-27T12:32:57Z</time></trkpt><trkpt lat="42.10937899667182" lon="13.349302521922429"><ele>762.0</ele><time>2026-04-27T12:32:58Z</time></trkpt><trkpt lat="42.10948832333148" lon="13.349266316439394"><ele>762.0</ele><time>2026-04-27T12:32:59Z</time></trkpt><trkpt lat="42.10959562617456" lon="13.349200953128904"><ele>762.0</ele><time>2026-04-27T12:33:00Z</time></trkpt><trkpt lat="42.10970943563284" lon="13.349143770004327"><ele>762.0</ele><time>2026-04-27T12:33:01Z</time></trkpt><trkpt lat="42.109827566695614" lon="13.349100104774012"><ele>762.0</ele><time>2026-04-27T12:33:02Z</time></trkpt><trkpt lat="42.10992719491217" lon="13.349064212778394"><ele>763.4000000000001</ele><time>2026-04-27T12:33:03Z</time></trkpt><trkpt lat="42.11000697151335" lon="13.349003092174375"><ele>764.8000000000001</ele><time>2026-04-27T12:33:04Z</time></trkpt><trkpt lat="42.11009207533034" lon="13.348911541087839"><ele>766.2</ele><time>2026-04-27T12:33:05Z</time></trkpt><trkpt lat="42.110179700197186" lon="13.348829644125614"><ele>767.6</ele><time>2026-04-27T12:33:06Z</time></trkpt><trkpt lat="42.110257091123536" lon="13.348739214990646"><ele>769.0</ele><time>2026-04-27T12:33:07Z</time></trkpt><trkpt lat="42.110320078524786" lon="13.348661326919617"><ele>769.25</ele><time>2026-04-27T12:33:08Z</time></trkpt><trkpt lat="42.11044894100424" lon="13.348631254055016"><ele>769.5</ele><time>2026-04-27T12:33:10Z</time></trkpt><trkpt lat="42.110545771861275" lon="13.348623985708715"><ele>769.75</ele><time>2026-04-27T12:33:11Z</time></trkpt><trkpt lat="42.11065833858241" lon="13.348615935394351"><ele>770.0</ele><time>2026-04-27T12:33:12Z</time></trkpt><trkpt lat="42.11078526264072" lon="13.348608052935816"><ele>771.5</ele><time>2026-04-27T12:33:13Z</time></trkpt><trkpt lat="42.11091579593806" lon="13.348612904107345"><ele>773.0</ele><time>2026-04-27T12:33:14Z</time></trkpt><trkpt lat="42.11104341939386" lon="13.348621410886258"><ele>774.5</ele><time>2026-04-27T12:33:15Z</time></trkpt><trkpt lat="42.11117555363247" lon="13.34863507449913"><ele>776.0</ele><time>2026-04-27T12:33:16Z</time></trkpt><trkpt lat="42.11131944511925" lon="13.348646719216177"><ele>776.0</ele><time>2026-04-27T12:33:17Z</time></trkpt><trkpt lat="42.111456074010746" lon="13.348649137687557"><ele>776.0</ele><time>2026-04-27T12:33:18Z</time></trkpt><trkpt lat="42.11159331715487" lon="13.348648274296739"><ele>776.0</ele><time>2026-04-27T12:33:19Z</time></trkpt><trkpt lat="42.11173435352424" lon="13.34861865680815"><ele>776.0</ele><time>2026-04-27T12:33:20Z</time></trkpt><trkpt lat="42.11186732605642" lon="13.348590829311696"><ele>776.5</ele><time>2026-04-27T12:33:21Z</time></trkpt><trkpt lat="42.1120023372028" lon="13.348558892618238"><ele>777.0</ele><time>2026-04-27T12:33:21.999Z</time></trkpt><trkpt lat="42.11211368399054" lon="13.348596463351498"><ele>777.5</ele><time>2026-04-27T12:33:22.999Z</time></trkpt><trkpt lat="42.11224084451568" lon="13.348595307052136"><ele>778.0</ele><time>2026-04-27T12:33:23.999Z</time></trkpt><trkpt lat="42.11237677340549" lon="13.348617892629886"><ele>780.25</ele><time>2026-04-27T12:33:24.999Z</time></trkpt><trkpt lat="42.11250869558529" lon="13.348612893917288"><ele>782.5</ele><time>2026-04-27T12:33:25.999Z</time></trkpt><trkpt lat="42.11264828446693" lon="13.348590685916575"><ele>784.75</ele><time>2026-04-27T12:33:26.999Z</time></trkpt><trkpt lat="42.11278498437508" lon="13.348561509826201"><ele>787.0</ele><time>2026-04-27T12:33:27.999Z</time></trkpt><trkpt lat="42.11292297832371" lon="13.34853167999903"><ele>787.0</ele><time>2026-04-27T12:33:28.999Z</time></trkpt><trkpt lat="42.11305861037949" lon="13.348487144577868"><ele>787.0</ele><time>2026-04-27T12:33:29.999Z</time></trkpt><trkpt lat="42.11319403555962" lon="13.348431762129762"><ele>787.0</ele><time>2026-04-27T12:33:30.999Z</time></trkpt><trkpt lat="42.11332421498073" lon="13.348373019432447"><ele>787.0</ele><time>2026-04-27T12:33:31.999Z</time></trkpt><trkpt lat="42.1134584740442" lon="13.348294226035398"><ele>788.0</ele><time>2026-04-27T12:33:32.999Z</time></trkpt><trkpt lat="42.11357981206618" lon="13.34821441375178"><ele>789.0</ele><time>2026-04-27T12:33:33.999Z</time></trkpt><trkpt lat="42.113707598584156" lon="13.348143144752687"><ele>790.0</ele><time>2026-04-27T12:33:34.999Z</time></trkpt><trkpt lat="42.1138378597897" lon="13.348077574350746"><ele>791.0</ele><time>2026-04-27T12:33:35.999Z</time></trkpt><trkpt lat="42.11397358620213" lon="13.34801645700333"><ele>792.25</ele><time>2026-04-27T12:33:36.999Z</time></trkpt><trkpt lat="42.114114440339485" lon="13.347941943173666"><ele>793.5</ele><time>2026-04-27T12:33:37.999Z</time></trkpt><trkpt lat="42.11423768873793" lon="13.347864821192585"><ele>794.75</ele><time>2026-04-27T12:33:38.999Z</time></trkpt><trkpt lat="42.1143647526488" lon="13.347797824741955"><ele>796.0</ele><time>2026-04-27T12:33:39.999Z</time></trkpt><trkpt lat="42.1144885047716" lon="13.347760292589383"><ele>796.0</ele><time>2026-04-27T12:33:40.999Z</time></trkpt><trkpt lat="42.1146170241666" lon="13.34774618179771"><ele>796.0</ele><time>2026-04-27T12:33:41.999Z</time></trkpt><trkpt lat="42.11475103100151" lon="13.347733323623006"><ele>796.0</ele><time>2026-04-27T12:33:42.999Z</time></trkpt><trkpt lat="42.11488291369643" lon="13.347724553629565"><ele>796.0</ele><time>2026-04-27T12:33:43.999Z</time></trkpt><trkpt lat="42.11501377324062" lon="13.347740677244566"><ele>797.5</ele><time>2026-04-27T12:33:44.999Z</time></trkpt><trkpt lat="42.11514155167966" lon="13.347740198523494"><ele>799.0</ele><time>2026-04-27T12:33:45.999Z</time></trkpt><trkpt lat="42.11526474452786" lon="13.347690032624536"><ele>800.5</ele><time>2026-04-27T12:33:46.999Z</time></trkpt><trkpt lat="42.115387859474026" lon="13.347647470543214"><ele>802.0</ele><time>2026-04-27T12:33:47.999Z</time></trkpt><trkpt lat="42.115506786507666" lon="13.347581436727095"><ele>802.0</ele><time>2026-04-27T12:33:48.999Z</time></trkpt><trkpt lat="42.11562003953773" lon="13.347503567346937"><ele>802.0</ele><time>2026-04-27T12:33:49.999Z</time></trkpt><trkpt lat="42.11573741185047" lon="13.347417969955949"><ele>802.0</ele><time>2026-04-27T12:33:50.999Z</time></trkpt><trkpt lat="42.11585532053548" lon="13.347327070348717"><ele>802.0</ele><time>2026-04-27T12:33:51.999Z</time></trkpt><trkpt lat="42.11597683046073" lon="13.34723256178424"><ele>803.5</ele><time>2026-04-27T12:33:52.999Z</time></trkpt><trkpt lat="42.116093611694275" lon="13.347133285446215"><ele>805.0</ele><time>2026-04-27T12:33:53.999Z</time></trkpt><trkpt lat="42.11621636350606" lon="13.347041279208996"><ele>806.5</ele><time>2026-04-27T12:33:54.999Z</time></trkpt><trkpt lat="42.11634089126074" lon="13.34696361018731"><ele>808.0</ele><time>2026-04-27T12:33:55.999Z</time></trkpt><trkpt lat="42.116471234054906" lon="13.346898875922633"><ele>809.25</ele><time>2026-04-27T12:33:56.999Z</time></trkpt><trkpt lat="42.11660203154013" lon="13.346850161356254"><ele>810.5</ele><time>2026-04-27T12:33:57.999Z</time></trkpt><trkpt lat="42.11673229220485" lon="13.346803019845813"><ele>811.75</ele><time>2026-04-27T12:33:58.999Z</time></trkpt><trkpt lat="42.11686368976906" lon="13.346762261089868"><ele>813.0</ele><time>2026-04-27T12:33:59.999Z</time></trkpt><trkpt lat="42.11699729452557" lon="13.346707143300597"><ele>813.0</ele><time>2026-04-27T12:34:00.999Z</time></trkpt><trkpt lat="42.117139541350596" lon="13.346650784619097"><ele>813.0</ele><time>2026-04-27T12:34:01.999Z</time></trkpt><trkpt lat="42.117277676490644" lon="13.346581255971158"><ele>813.0</ele><time>2026-04-27T12:34:02.999Z</time></trkpt><trkpt lat="42.11741418970428" lon="13.346510403577444"><ele>813.0</ele><time>2026-04-27T12:34:03.999Z</time></trkpt><trkpt lat="42.11755910881509" lon="13.346426942042468"><ele>815.3333333333333</ele><time>2026-04-27T12:34:04.999Z</time></trkpt><trkpt lat="42.1177204102478" lon="13.34633944352446"><ele>817.6666666666666</ele><time>2026-04-27T12:34:05.999Z</time></trkpt><trkpt lat="42.11788673283202" lon="13.346278927682556"><ele>820.0</ele><time>2026-04-27T12:34:06.999Z</time></trkpt><trkpt lat="42.118053539217776" lon="13.346239068364811"><ele>820.0</ele><time>2026-04-27T12:34:07.999Z</time></trkpt><trkpt lat="42.118228571033065" lon="13.346211793019549"><ele>820.0</ele><time>2026-04-27T12:34:08.999Z</time></trkpt><trkpt lat="42.11840632182556" lon="13.346175271677918"><ele>820.0</ele><time>2026-04-27T12:34:09.999Z</time></trkpt><trkpt lat="42.118584199811465" lon="13.346126157794155"><ele>821.3333333333333</ele><time>2026-04-27T12:34:10.999Z</time></trkpt><trkpt lat="42.11875981320254" lon="13.346068237872489"><ele>822.6666666666667</ele><time>2026-04-27T12:34:11.999Z</time></trkpt><trkpt lat="42.11893218573608" lon="13.34599464528204"><ele>824.0</ele><time>2026-04-27T12:34:12.999Z</time></trkpt><trkpt lat="42.11910647254562" lon="13.34591349897994"><ele>826.0</ele><time>2026-04-27T12:34:13.999Z</time></trkpt><trkpt lat="42.11927798509336" lon="13.345839367240053"><ele>828.0</ele><time>2026-04-27T12:34:14.999Z</time></trkpt><trkpt lat="42.11945568943958" lon="13.345778625377642"><ele>830.0</ele><time>2026-04-27T12:34:15.999Z</time></trkpt><trkpt lat="42.11963772508385" lon="13.345721318835773"><ele>830.0</ele><time>2026-04-27T12:34:16.999Z</time></trkpt><trkpt lat="42.11982060358226" lon="13.345657820258651"><ele>830.0</ele><time>2026-04-27T12:34:17.999Z</time></trkpt><trkpt lat="42.12000092422265" lon="13.345579796881324"><ele>830.0</ele><time>2026-04-27T12:34:18.999Z</time></trkpt><trkpt lat="42.120173837026854" lon="13.345485304441949"><ele>833.3333333333334</ele><time>2026-04-27T12:34:19.999Z</time></trkpt><trkpt lat="42.12032346661422" lon="13.345393723657414"><ele>836.6666666666667</ele><time>2026-04-27T12:34:20.999Z</time></trkpt><trkpt lat="42.1204671111204" lon="13.345339284287803"><ele>840.0</ele><time>2026-04-27T12:34:21.999Z</time></trkpt><trkpt lat="42.120618318675994" lon="13.345285840656487"><ele>841.3333333333333</ele><time>2026-04-27T12:34:22.999Z</time></trkpt><trkpt lat="42.120777855122746" lon="13.345249883285652"><ele>842.6666666666666</ele><time>2026-04-27T12:34:23.999Z</time></trkpt><trkpt lat="42.12094241136081" lon="13.345219513345745"><ele>844.0</ele><time>2026-04-27T12:34:24.999Z</time></trkpt><trkpt lat="42.121105699964126" lon="13.345209355369215"><ele>844.0</ele><time>2026-04-27T12:34:25.998Z</time></trkpt><trkpt lat="42.12127130785734" lon="13.345184007606992"><ele>844.0</ele><time>2026-04-27T12:34:26.998Z</time></trkpt><trkpt lat="42.121449184500705" lon="13.345123569491085"><ele>844.0</ele><time>2026-04-27T12:34:28Z</time></trkpt><trkpt lat="42.12160381717133" lon="13.34503068924877"><ele>845.25</ele><time>2026-04-27T12:34:29Z</time></trkpt><trkpt lat="42.12173604180414" lon="13.344923982649744"><ele>846.5</ele><time>2026-04-27T12:34:30Z</time></trkpt><trkpt lat="42.121857362128765" lon="13.344839152377126"><ele>847.75</ele><time>2026-04-27T12:34:31Z</time></trkpt><trkpt lat="42.121970741594154" lon="13.344777299432998"><ele>849.0</ele><time>2026-04-27T12:34:32Z</time></trkpt><trkpt lat="42.12207639966681" lon="13.344743142983173"><ele>849.0</ele><time>2026-04-27T12:34:33Z</time></trkpt><trkpt lat="42.12217901036155" lon="13.3447193732139"><ele>849.0</ele><time>2026-04-27T12:34:34Z</time></trkpt><trkpt lat="42.122254166215896" lon="13.344678481031714"><ele>849.0</ele><time>2026-04-27T12:34:35Z</time></trkpt><trkpt lat="42.12233652193098" lon="13.344744625484946"><ele>849.0</ele><time>2026-04-27T12:34:36Z</time></trkpt><trkpt lat="42.12241705444502" lon="13.344782897336145"><ele>849.0</ele><time>2026-04-27T12:34:37Z</time></trkpt><trkpt lat="42.12251634389194" lon="13.344784485862379"><ele>850.3333333333334</ele><time>2026-04-27T12:34:38Z</time></trkpt><trkpt lat="42.12259862114897" lon="13.344754227491439"><ele>851.6666666666667</ele><time>2026-04-27T12:34:39Z</time></trkpt><trkpt lat="42.12267276627919" lon="13.34472405740411"><ele>853.0</ele><time>2026-04-27T12:34:40Z</time></trkpt><trkpt lat="42.12275187590425" lon="13.344701689450075"><ele>854.3333333333334</ele><time>2026-04-27T12:34:41Z</time></trkpt><trkpt lat="42.12282582421227" lon="13.344678066006631"><ele>855.6666666666667</ele><time>2026-04-27T12:34:42Z</time></trkpt><trkpt lat="42.12289351908738" lon="13.34465346439823"><ele>857.0</ele><time>2026-04-27T12:34:43Z</time></trkpt><trkpt lat="42.12301018699054" lon="13.344619887789557"><ele>857.8333333333334</ele><time>2026-04-27T12:34:45Z</time></trkpt><trkpt lat="42.123124273517675" lon="13.34457849771794"><ele>858.6666666666667</ele><time>2026-04-27T12:34:47Z</time></trkpt><trkpt lat="42.12319054023821" lon="13.34453838420967"><ele>859.5</ele><time>2026-04-27T12:34:48Z</time></trkpt><trkpt lat="42.12325745641432" lon="13.344495559331863"><ele>860.3333333333333</ele><time>2026-04-27T12:34:49Z</time></trkpt><trkpt lat="42.12333695788562" lon="13.344456016463171"><ele>861.1666666666666</ele><time>2026-04-27T12:34:50Z</time></trkpt><trkpt lat="42.12342043778823" lon="13.34440296570927"><ele>862.0</ele><time>2026-04-27T12:34:51Z</time></trkpt><trkpt lat="42.12349958299653" lon="13.344343400142533"><ele>862.6</ele><time>2026-04-27T12:34:52Z</time></trkpt><trkpt lat="42.1235828700559" lon="13.344284760064557"><ele>863.2</ele><time>2026-04-27T12:34:53Z</time></trkpt><trkpt lat="42.12367760303933" lon="13.344222515595872"><ele>863.8</ele><time>2026-04-27T12:34:54Z</time></trkpt><trkpt lat="42.123781470539186" lon="13.344167590695353"><ele>864.4</ele><time>2026-04-27T12:34:55Z</time></trkpt><trkpt lat="42.12389489694743" lon="13.344122214751083"><ele>865.0</ele><time>2026-04-27T12:34:56Z</time></trkpt><trkpt lat="42.124009074888754" lon="13.344074947730427"><ele>866.25</ele><time>2026-04-27T12:34:57Z</time></trkpt><trkpt lat="42.12412760809032" lon="13.344036931467041"><ele>867.5</ele><time>2026-04-27T12:34:58Z</time></trkpt><trkpt lat="42.124251674862094" lon="13.343994521260168"><ele>868.75</ele><time>2026-04-27T12:34:59Z</time></trkpt><trkpt lat="42.12437100657368" lon="13.343940083998435"><ele>870.0</ele><time>2026-04-27T12:35:00Z</time></trkpt><trkpt lat="42.124497576228244" lon="13.343908335325894"><ele>870.8</ele><time>2026-04-27T12:35:01Z</time></trkpt><trkpt lat="42.12459587440073" lon="13.343830717083826"><ele>871.6</ele><time>2026-04-27T12:35:02Z</time></trkpt><trkpt lat="42.12469957023748" lon="13.343786614406405"><ele>872.4000000000001</ele><time>2026-04-27T12:35:03Z</time></trkpt><trkpt lat="42.12480221460382" lon="13.343736396998915"><ele>873.2</ele><time>2026-04-27T12:35:04Z</time></trkpt><trkpt lat="42.1249067828153" lon="13.34370526330405"><ele>874.0</ele><time>2026-04-27T12:35:05Z</time></trkpt><trkpt lat="42.12498404806548" lon="13.343687405831522"><ele>874.0</ele><time>2026-04-27T12:35:06Z</time></trkpt><trkpt lat="42.125071826061806" lon="13.343671336929201"><ele>874.0</ele><time>2026-04-27T12:35:08Z</time></trkpt><trkpt lat="42.125037251237124" lon="13.3434167653728"><ele>874.0</ele><time>2026-04-27T12:35:10Z</time></trkpt><trkpt lat="42.12497470328008" lon="13.34329768025385"><ele>874.0</ele><time>2026-04-27T12:35:11Z</time></trkpt><trkpt lat="42.12489492967037" lon="13.343183448031018"><ele>874.0</ele><time>2026-04-27T12:35:12Z</time></trkpt><trkpt lat="42.12480532012057" lon="13.34310663764402"><ele>874.0</ele><time>2026-04-27T12:35:13Z</time></trkpt><trkpt lat="42.12468420427843" lon="13.34305090570359"><ele>874.0</ele><time>2026-04-27T12:35:14Z</time></trkpt><trkpt lat="42.12457418826391" lon="13.342973878813401"><ele>874.0</ele><time>2026-04-27T12:35:15Z</time></trkpt><trkpt lat="42.124458943860375" lon="13.34287955751752"><ele>877.0</ele><time>2026-04-27T12:35:16Z</time></trkpt><trkpt lat="42.12433094381207" lon="13.342796421312517"><ele>880.0</ele><time>2026-04-27T12:35:17Z</time></trkpt><trkpt lat="42.12420192267244" lon="13.342728411234809"><ele>883.0</ele><time>2026-04-27T12:35:18Z</time></trkpt><trkpt lat="42.12408123735206" lon="13.342659357962212"><ele>886.0</ele><time>2026-04-27T12:35:19Z</time></trkpt><trkpt lat="42.12396823657273" lon="13.34259494933157"><ele>886.0</ele><time>2026-04-27T12:35:20Z</time></trkpt><trkpt lat="42.12386016480473" lon="13.342535851589638"><ele>885.9999999999999</ele><time>2026-04-27T12:35:21Z</time></trkpt><trkpt lat="42.12376286221299" lon="13.342478195279757"><ele>885.9999999999999</ele><time>2026-04-27T12:35:22Z</time></trkpt><trkpt lat="42.12368502093902" lon="13.342424243948445"><ele>886.0</ele><time>2026-04-27T12:35:23Z</time></trkpt><trkpt lat="42.12360827125755" lon="13.342385209120716"><ele>886.0</ele><time>2026-04-27T12:35:24Z</time></trkpt><trkpt lat="42.12356959454373" lon="13.342316385008203"><ele>885.9999999999999</ele><time>2026-04-27T12:35:31.999Z</time></trkpt><trkpt lat="42.12369209455284" lon="13.34232675272841"><ele>886.0</ele><time>2026-04-27T12:35:35.999Z</time></trkpt><trkpt lat="42.123764987225094" lon="13.342314288811128"><ele>886.0</ele><time>2026-04-27T12:35:36.999Z</time></trkpt><trkpt lat="42.123830503671776" lon="13.342295015325195"><ele>886.0</ele><time>2026-04-27T12:35:37.999Z</time></trkpt><trkpt lat="42.12390997070616" lon="13.342258838620035"><ele>885.9999999999999</ele><time>2026-04-27T12:35:38.999Z</time></trkpt><trkpt lat="42.12398929191424" lon="13.342236104734"><ele>886.0</ele><time>2026-04-27T12:35:39.999Z</time></trkpt><trkpt lat="42.124076735620704" lon="13.342212690441002"><ele>886.3333333333333</ele><time>2026-04-27T12:35:40.999Z</time></trkpt><trkpt lat="42.12415769368077" lon="13.34218324047714"><ele>886.6666666666666</ele><time>2026-04-27T12:35:41.999Z</time></trkpt><trkpt lat="42.12423027626329" lon="13.342162995023774"><ele>887.0</ele><time>2026-04-27T12:35:42.999Z</time></trkpt><trkpt lat="42.12430356416165" lon="13.342148754763237"><ele>887.3333333333333</ele><time>2026-04-27T12:35:43.999Z</time></trkpt><trkpt lat="42.12437726020346" lon="13.34214134801087"><ele>887.6666666666666</ele><time>2026-04-27T12:35:44.999Z</time></trkpt><trkpt lat="42.12449860655383" lon="13.342165617992773"><ele>888.0</ele><time>2026-04-27T12:35:46.999Z</time></trkpt><trkpt lat="42.12462112184778" lon="13.342229471198097"><ele>888.0</ele><time>2026-04-27T12:35:48.999Z</time></trkpt><trkpt lat="42.12468637692333" lon="13.342265558864412"><ele>888.0</ele><time>2026-04-27T12:35:49.999Z</time></trkpt><trkpt lat="42.12475830303493" lon="13.342291257326933"><ele>888.0</ele><time>2026-04-27T12:35:50.999Z</time></trkpt><trkpt lat="42.124826330617914" lon="13.342315627676054"><ele>888.0</ele><time>2026-04-27T12:35:51.999Z</time></trkpt><trkpt lat="42.124895254635355" lon="13.342326481948321"><ele>888.0</ele><time>2026-04-27T12:35:52.999Z</time></trkpt><trkpt lat="42.12496577499341" lon="13.342329446396691"><ele>888.0</ele><time>2026-04-27T12:35:53.999Z</time></trkpt><trkpt lat="42.12504541833909" lon="13.342327639243784"><ele>888.0</ele><time>2026-04-27T12:35:54.999Z</time></trkpt><trkpt lat="42.12513212626642" lon="13.342318853500297"><ele>888.0</ele><time>2026-04-27T12:35:55.999Z</time></trkpt><trkpt lat="42.12521225653344" lon="13.342307692635076"><ele>888.0</ele><time>2026-04-27T12:35:56.999Z</time></trkpt><trkpt lat="42.12527622654852" lon="13.342298748279552"><ele>888.0</ele><time>2026-04-27T12:35:57.999Z</time></trkpt><trkpt lat="42.12534003592297" lon="13.342286586023526"><ele>888.0</ele><time>2026-04-27T12:35:58.999Z</time></trkpt><trkpt lat="42.125410349482024" lon="13.342275924497583"><ele>888.0</ele><time>2026-04-27T12:35:59.999Z</time></trkpt><trkpt lat="42.12548524761047" lon="13.342261502611676"><ele>888.0</ele><time>2026-04-27T12:36:00.999Z</time></trkpt><trkpt lat="42.12556109775806" lon="13.342240960701503"><ele>888.0</ele><time>2026-04-27T12:36:01.999Z</time></trkpt><trkpt lat="42.12568539485757" lon="13.342204584320529"><ele>891.1428571428571</ele><time>2026-04-27T12:36:03.999Z</time></trkpt><trkpt lat="42.12575070460313" lon="13.34218702259441"><ele>894.2857142857143</ele><time>2026-04-27T12:36:04.999Z</time></trkpt><trkpt lat="42.12581495253783" lon="13.342164883205205"><ele>897.4285714285714</ele><time>2026-04-27T12:36:05.999Z</time></trkpt><trkpt lat="42.1258801043169" lon="13.342136215694264"><ele>900.5714285714286</ele><time>2026-04-27T12:36:06.999Z</time></trkpt><trkpt lat="42.12594509495197" lon="13.342107897548386"><ele>903.7142857142858</ele><time>2026-04-27T12:36:07.999Z</time></trkpt><trkpt lat="42.12601441208667" lon="13.342082372951099"><ele>906.8571428571429</ele><time>2026-04-27T12:36:08.999Z</time></trkpt><trkpt lat="42.126084336210546" lon="13.342054708106465"><ele>910.0</ele><time>2026-04-27T12:36:09.999Z</time></trkpt><trkpt lat="42.126157497345346" lon="13.342022870546787"><ele>909.9999999999999</ele><time>2026-04-27T12:36:10.999Z</time></trkpt><trkpt lat="42.126232860798304" lon="13.34199067771341"><ele>910.0</ele><time>2026-04-27T12:36:11.999Z</time></trkpt><trkpt lat="42.12631373575371" lon="13.341952983143127"><ele>910.0</ele><time>2026-04-27T12:36:12.999Z</time></trkpt><trkpt lat="42.12639853073089" lon="13.34191733294085"><ele>910.0</ele><time>2026-04-27T12:36:13.999Z</time></trkpt><trkpt lat="42.126486911790614" lon="13.341880592179908"><ele>909.9999999999999</ele><time>2026-04-27T12:36:14.999Z</time></trkpt><trkpt lat="42.12656664200407" lon="13.341843327971707"><ele>910.0</ele><time>2026-04-27T12:36:15.999Z</time></trkpt><trkpt lat="42.1266416162709" lon="13.341805942171325"><ele>908.1666666666666</ele><time>2026-04-27T12:36:16.999Z</time></trkpt><trkpt lat="42.12671756651342" lon="13.341766078240727"><ele>906.3333333333333</ele><time>2026-04-27T12:36:17.999Z</time></trkpt><trkpt lat="42.12679575537204" lon="13.341726673341327"><ele>904.5</ele><time>2026-04-27T12:36:18.999Z</time></trkpt><trkpt lat="42.12687990276812" lon="13.341697362290518"><ele>902.6666666666667</ele><time>2026-04-27T12:36:19.999Z</time></trkpt><trkpt lat="42.12697193356011" lon="13.341672034232923"><ele>900.8333333333334</ele><time>2026-04-27T12:36:20.999Z</time></trkpt><trkpt lat="42.127073407632665" lon="13.341655113849768"><ele>899.0</ele><time>2026-04-27T12:36:21.999Z</time></trkpt><trkpt lat="42.12717212848525" lon="13.341648498998051"><ele>899.0</ele><time>2026-04-27T12:36:22.999Z</time></trkpt><trkpt lat="42.127277153886205" lon="13.341647130281899"><ele>899.0</ele><time>2026-04-27T12:36:23.999Z</time></trkpt><trkpt lat="42.12738880612509" lon="13.341647189206192"><ele>899.0</ele><time>2026-04-27T12:36:24.999Z</time></trkpt><trkpt lat="42.12750449327149" lon="13.341653187379764"><ele>899.0</ele><time>2026-04-27T12:36:25.999Z</time></trkpt><trkpt lat="42.12762504396493" lon="13.34166726401703"><ele>899.4000000000001</ele><time>2026-04-27T12:36:26.999Z</time></trkpt><trkpt lat="42.127744514921154" lon="13.341686014032868"><ele>899.8000000000001</ele><time>2026-04-27T12:36:27.999Z</time></trkpt><trkpt lat="42.12785293375148" lon="13.341706563578763"><ele>900.1999999999999</ele><time>2026-04-27T12:36:28.999Z</time></trkpt><trkpt lat="42.127944108274306" lon="13.341733908798439"><ele>900.5999999999999</ele><time>2026-04-27T12:36:29.998Z</time></trkpt><trkpt lat="42.128016818993004" lon="13.341769586173653"><ele>901.0</ele><time>2026-04-27T12:36:30.998Z</time></trkpt><trkpt lat="42.12807953961564" lon="13.34180199436926"><ele>901.0</ele><time>2026-04-27T12:36:31.998Z</time></trkpt><trkpt lat="42.12817376000366" lon="13.341818889374629"><ele>900.9999999999999</ele><time>2026-04-27T12:36:34Z</time></trkpt><trkpt lat="42.12823028970124" lon="13.341866853820958"><ele>900.9999999999999</ele><time>2026-04-27T12:36:36Z</time></trkpt><trkpt lat="42.128323424439344" lon="13.341886597694662"><ele>901.0</ele><time>2026-04-27T12:36:38Z</time></trkpt><trkpt lat="42.12838294607566" lon="13.341937035833853"><ele>901.0</ele><time>2026-04-27T12:36:39Z</time></trkpt><trkpt lat="42.128610739504516" lon="13.342005132053421"><ele>902.5999999999999</ele><time>2026-04-27T12:36:40Z</time></trkpt><trkpt lat="42.12873407676886" lon="13.341965648535929"><ele>904.1999999999999</ele><time>2026-04-27T12:36:41Z</time></trkpt><trkpt lat="42.12882948702592" lon="13.341927646132177"><ele>905.8000000000001</ele><time>2026-04-27T12:36:42Z</time></trkpt><trkpt lat="42.12893055098004" lon="13.34188502044535"><ele>907.4000000000001</ele><time>2026-04-27T12:36:43Z</time></trkpt><trkpt lat="42.129024408442135" lon="13.341843506951133"><ele>909.0</ele><time>2026-04-27T12:36:44Z</time></trkpt><trkpt lat="42.12911145691091" lon="13.341786400935124"><ele>910.0</ele><time>2026-04-27T12:36:45Z</time></trkpt><trkpt lat="42.12919167443063" lon="13.341728373215245"><ele>911.0</ele><time>2026-04-27T12:36:46Z</time></trkpt><trkpt lat="42.12927669983513" lon="13.341710279271236"><ele>912.0</ele><time>2026-04-27T12:36:47Z</time></trkpt><trkpt lat="42.12933900520073" lon="13.341636585191141"><ele>913.0</ele><time>2026-04-27T12:36:48Z</time></trkpt><trkpt lat="42.12940501563472" lon="13.341578070990229"><ele>914.0</ele><time>2026-04-27T12:36:49Z</time></trkpt><trkpt lat="42.12947875036382" lon="13.34151292864098"><ele>915.0</ele><time>2026-04-27T12:36:50Z</time></trkpt><trkpt lat="42.12957370323104" lon="13.341409779635942"><ele>939.0</ele><time>2026-04-27T12:36:51Z</time></trkpt><trkpt lat="42.12943919800055" lon="13.340518233294354"><ele>939.0</ele><time>2026-04-27T12:36:52Z</time></trkpt><trkpt lat="42.12948834909364" lon="13.34042257216303"><ele>939.0000000000001</ele><time>2026-04-27T12:36:53Z</time></trkpt><trkpt lat="42.12955100371145" lon="13.340329401823803"><ele>939.0000000000001</ele><time>2026-04-27T12:36:54Z</time></trkpt><trkpt lat="42.129606858266044" lon="13.34023358767941"><ele>939.0</ele><time>2026-04-27T12:36:55Z</time></trkpt><trkpt lat="42.129664723005" lon="13.340131089057175"><ele>939.0</ele><time>2026-04-27T12:36:56Z</time></trkpt><trkpt lat="42.12973217289457" lon="13.340036556038221"><ele>939.0</ele><time>2026-04-27T12:36:57Z</time></trkpt><trkpt lat="42.12980093742956" lon="13.339944715665089"><ele>939.0000000000001</ele><time>2026-04-27T12:36:58Z</time></trkpt><trkpt lat="42.12986381716309" lon="13.339851128484005"><ele>939.0000000000001</ele><time>2026-04-27T12:36:59Z</time></trkpt><trkpt lat="42.1299321355058" lon="13.339738224502453"><ele>939.0</ele><time>2026-04-27T12:37:00Z</time></trkpt><trkpt lat="42.129988123831424" lon="13.33962093423198"><ele>939.0</ele><time>2026-04-27T12:37:01Z</time></trkpt><trkpt lat="42.1300255452385" lon="13.339524264192075"><ele>937.6666666666666</ele><time>2026-04-27T12:37:02Z</time></trkpt><trkpt lat="42.130081137976134" lon="13.339376397126856"><ele>936.3333333333333</ele><time>2026-04-27T12:37:04Z</time></trkpt><trkpt lat="42.13013204813668" lon="13.33932104410229"><ele>935.0</ele><time>2026-04-27T12:37:05Z</time></trkpt><trkpt lat="42.130200287318175" lon="13.339278604989826"><ele>933.6666666666666</ele><time>2026-04-27T12:37:06Z</time></trkpt><trkpt lat="42.13028313863675" lon="13.339231527196953"><ele>932.3333333333333</ele><time>2026-04-27T12:37:07Z</time></trkpt><trkpt lat="42.13033876458678" lon="13.339187533596085"><ele>931.0</ele><time>2026-04-27T12:37:08Z</time></trkpt><trkpt lat="42.130397883118455" lon="13.339145000292138"><ele>931.0</ele><time>2026-04-27T12:37:09Z</time></trkpt><trkpt lat="42.130461863424614" lon="13.339106860651388"><ele>931.0</ele><time>2026-04-27T12:37:10Z</time></trkpt><trkpt lat="42.130531134141776" lon="13.339084789309641"><ele>931.0</ele><time>2026-04-27T12:37:11Z</time></trkpt><trkpt lat="42.130612296564394" lon="13.339063891007935"><ele>931.0</ele><time>2026-04-27T12:37:12Z</time></trkpt><trkpt lat="42.130686353925384" lon="13.339068864659898"><ele>931.0</ele><time>2026-04-27T12:37:13Z</time></trkpt><trkpt lat="42.130750447688996" lon="13.339050779157851"><ele>931.0</ele><time>2026-04-27T12:37:14Z</time></trkpt><trkpt lat="42.13081508941808" lon="13.33903438285458"><ele>931.0</ele><time>2026-04-27T12:37:15Z</time></trkpt><trkpt lat="42.1308769951106" lon="13.33901707048127"><ele>932.1666666666666</ele><time>2026-04-27T12:37:16Z</time></trkpt><trkpt lat="42.13093755374194" lon="13.33899278835607"><ele>933.3333333333333</ele><time>2026-04-27T12:37:17Z</time></trkpt><trkpt lat="42.13100199709505" lon="13.338968793085542"><ele>934.5</ele><time>2026-04-27T12:37:18Z</time></trkpt><trkpt lat="42.13108151698552" lon="13.338953867322282"><ele>935.6666666666667</ele><time>2026-04-27T12:37:19Z</time></trkpt><trkpt lat="42.13116694112099" lon="13.33892797518017"><ele>936.8333333333334</ele><time>2026-04-27T12:37:20Z</time></trkpt><trkpt lat="42.13127466734023" lon="13.33887472107267"><ele>938.0</ele><time>2026-04-27T12:37:21Z</time></trkpt><trkpt lat="42.13138258150287" lon="13.338833015348056"><ele>941.8</ele><time>2026-04-27T12:37:22Z</time></trkpt><trkpt lat="42.13148891491943" lon="13.338790321709626"><ele>945.5999999999999</ele><time>2026-04-27T12:37:23Z</time></trkpt><trkpt lat="42.13159472073932" lon="13.338753646519226"><ele>949.4000000000001</ele><time>2026-04-27T12:37:24Z</time></trkpt><trkpt lat="42.131709800399264" lon="13.338732171325088"><ele>953.2</ele><time>2026-04-27T12:37:25Z</time></trkpt><trkpt lat="42.13180959808677" lon="13.338674866994992"><ele>957.0</ele><time>2026-04-27T12:37:26Z</time></trkpt><trkpt lat="42.13190166835342" lon="13.338600977251563"><ele>957.0</ele><time>2026-04-27T12:37:27Z</time></trkpt><trkpt lat="42.13199733268159" lon="13.338520771473602"><ele>957.0</ele><time>2026-04-27T12:37:27.999Z</time></trkpt><trkpt lat="42.13207825342401" lon="13.338453344598719"><ele>957.0</ele><time>2026-04-27T12:37:28.999Z</time></trkpt><trkpt lat="42.13215996718748" lon="13.338398069283532"><ele>957.0</ele><time>2026-04-27T12:37:29.999Z</time></trkpt><trkpt lat="42.132243386319814" lon="13.338344292336627"><ele>957.0</ele><time>2026-04-27T12:37:30.999Z</time></trkpt><trkpt lat="42.13233640046574" lon="13.338319805667227"><ele>956.0</ele><time>2026-04-27T12:37:31.999Z</time></trkpt><trkpt lat="42.1324317261706" lon="13.338292316838023"><ele>955.0</ele><time>2026-04-27T12:37:32.999Z</time></trkpt><trkpt lat="42.13252256940586" lon="13.338258477364034"><ele>954.0</ele><time>2026-04-27T12:37:33.999Z</time></trkpt><trkpt lat="42.132614572760254" lon="13.338204624582692"><ele>953.0</ele><time>2026-04-27T12:37:34.999Z</time></trkpt><trkpt lat="42.132690837743226" lon="13.338171434834354"><ele>952.0</ele><time>2026-04-27T12:37:35.999Z</time></trkpt><trkpt lat="42.13275946753965" lon="13.338140630971441"><ele>951.0</ele><time>2026-04-27T12:37:36.999Z</time></trkpt><trkpt lat="42.13283416763184" lon="13.338104750524005"><ele>951.0</ele><time>2026-04-27T12:37:37.999Z</time></trkpt><trkpt lat="42.132903602253556" lon="13.338069858298331"><ele>951.0</ele><time>2026-04-27T12:37:38.999Z</time></trkpt><trkpt lat="42.13297208765659" lon="13.338047376334421"><ele>951.0</ele><time>2026-04-27T12:37:39.999Z</time></trkpt><trkpt lat="42.1330508379232" lon="13.33801325634836"><ele>951.0</ele><time>2026-04-27T12:37:40.999Z</time></trkpt><trkpt lat="42.1331185939054" lon="13.337990082056965"><ele>951.0</ele><time>2026-04-27T12:37:41.999Z</time></trkpt><trkpt lat="42.1331979815513" lon="13.338015486328755"><ele>951.0</ele><time>2026-04-27T12:37:43.999Z</time></trkpt><trkpt lat="42.133269799342386" lon="13.338010665344568"><ele>956.0</ele><time>2026-04-27T12:37:45.999Z</time></trkpt><trkpt lat="42.13335451893805" lon="13.337987841256227"><ele>961.0</ele><time>2026-04-27T12:37:47.999Z</time></trkpt><trkpt lat="42.133430762572516" lon="13.33799636168394"><ele>966.0</ele><time>2026-04-27T12:37:49.999Z</time></trkpt><trkpt lat="42.13353681936337" lon="13.337995666221481"><ele>971.0</ele><time>2026-04-27T12:38:03.999Z</time></trkpt><trkpt lat="42.13360433709801" lon="13.337994767147933"><ele>976.0</ele><time>2026-04-27T12:38:06.999Z</time></trkpt><trkpt lat="42.1336673503661" lon="13.338002377108745"><ele>981.0</ele><time>2026-04-27T12:42:01.999Z</time></trkpt><trkpt lat="42.133771016369884" lon="13.338018679068988"><ele>981.1666666666666</ele><time>2026-04-27T12:42:03.999Z</time></trkpt><trkpt lat="42.133885454390985" lon="13.338057107378717"><ele>981.3333333333333</ele><time>2026-04-27T12:42:05.999Z</time></trkpt><trkpt lat="42.13395307790654" lon="13.338062081173632"><ele>981.5</ele><time>2026-04-27T12:42:06.999Z</time></trkpt><trkpt lat="42.134019898189216" lon="13.338067279794496"><ele>981.6666666666666</ele><time>2026-04-27T12:42:07.999Z</time></trkpt><trkpt lat="42.13409045275968" lon="13.33807666667217"><ele>981.8333333333333</ele><time>2026-04-27T12:42:08.999Z</time></trkpt><trkpt lat="42.13417059851183" lon="13.338061002056405"><ele>982.0</ele><time>2026-04-27T12:42:09.999Z</time></trkpt><trkpt lat="42.1342675043961" lon="13.338018864709554"><ele>982.0</ele><time>2026-04-27T12:42:10.999Z</time></trkpt><trkpt lat="42.134368826437424" lon="13.337971682302163"><ele>982.0</ele><time>2026-04-27T12:42:11.999Z</time></trkpt><trkpt lat="42.134466705460206" lon="13.337932877084889"><ele>982.0</ele><time>2026-04-27T12:42:12.999Z</time></trkpt><trkpt lat="42.134545409179964" lon="13.337924768881193"><ele>982.0</ele><time>2026-04-27T12:42:13.999Z</time></trkpt><trkpt lat="42.134650385597304" lon="13.337911359875005"><ele>982.0</ele><time>2026-04-27T12:42:15.999Z</time></trkpt><trkpt lat="42.134695960348886" lon="13.337803589117112"><ele>982.0</ele><time>2026-04-27T12:42:18.999Z</time></trkpt><trkpt lat="42.13474619023312" lon="13.337640467041442"><ele>982.0</ele><time>2026-04-27T12:42:20.999Z</time></trkpt><trkpt lat="42.13478047871379" lon="13.337545792825727"><ele>982.0</ele><time>2026-04-27T12:42:21.999Z</time></trkpt><trkpt lat="42.13482562329567" lon="13.337447040361939"><ele>982.0</ele><time>2026-04-27T12:42:22.999Z</time></trkpt><trkpt lat="42.134876265032425" lon="13.337369553174605"><ele>982.0</ele><time>2026-04-27T12:42:23.999Z</time></trkpt><trkpt lat="42.13496858292269" lon="13.337311844216662"><ele>981.8</ele><time>2026-04-27T12:42:24.999Z</time></trkpt><trkpt lat="42.13505843012244" lon="13.337235673310873"><ele>981.6</ele><time>2026-04-27T12:42:25.999Z</time></trkpt><trkpt lat="42.135121781888" lon="13.337140583140657"><ele>981.3999999999999</ele><time>2026-04-27T12:42:26.999Z</time></trkpt><trkpt lat="42.135206407444834" lon="13.337053722283095"><ele>981.1999999999999</ele><time>2026-04-27T12:42:27.999Z</time></trkpt><trkpt lat="42.13529075680587" lon="13.336960847509319"><ele>981.0</ele><time>2026-04-27T12:42:28.999Z</time></trkpt><trkpt lat="42.135376860852205" lon="13.336876704592237"><ele>984.4</ele><time>2026-04-27T12:42:29.999Z</time></trkpt><trkpt lat="42.13546194470351" lon="13.336794856401314"><ele>987.8</ele><time>2026-04-27T12:42:30.999Z</time></trkpt><trkpt lat="42.13554770000523" lon="13.336727236917872"><ele>991.1999999999999</ele><time>2026-04-27T12:42:31.999Z</time></trkpt><trkpt lat="42.13562225582499" lon="13.336669755358496"><ele>994.5999999999999</ele><time>2026-04-27T12:42:32.999Z</time></trkpt><trkpt lat="42.135732136722055" lon="13.336600852223317"><ele>998.0</ele><time>2026-04-27T12:42:34.999Z</time></trkpt><trkpt lat="42.135792263456366" lon="13.336510887416052"><ele>998.0</ele><time>2026-04-27T12:42:36.998Z</time></trkpt><trkpt lat="42.1358401682307" lon="13.336437525655837"><ele>998.0</ele><time>2026-04-27T12:42:37.998Z</time></trkpt><trkpt lat="42.13589319296814" lon="13.3363790909034"><ele>998.0</ele><time>2026-04-27T12:42:38.998Z</time></trkpt><trkpt lat="42.135945056391535" lon="13.336317664669888"><ele>998.0</ele><time>2026-04-27T12:42:39.998Z</time></trkpt><trkpt lat="42.13601882110134" lon="13.336193136564383"><ele>998.0</ele><time>2026-04-27T12:42:41.998Z</time></trkpt><trkpt lat="42.13609691215483" lon="13.336058129711104"><ele>1001.2</ele><time>2026-04-27T12:42:43.998Z</time></trkpt><trkpt lat="42.136141004860484" lon="13.335992272323388"><ele>1004.4</ele><time>2026-04-27T12:42:44.998Z</time></trkpt><trkpt lat="42.13622685048129" lon="13.33586482499031"><ele>1007.6000000000001</ele><time>2026-04-27T12:42:46.998Z</time></trkpt><trkpt lat="42.13630243217077" lon="13.335758576494456"><ele>1010.8000000000001</ele><time>2026-04-27T12:42:48.998Z</time></trkpt><trkpt lat="42.136367447016696" lon="13.335644548585707"><ele>1014.0</ele><time>2026-04-27T12:42:50.998Z</time></trkpt><trkpt lat="42.136405560263796" lon="13.335564022954681"><ele>1017.8333333333334</ele><time>2026-04-27T12:42:53Z</time></trkpt><trkpt lat="42.13641238497522" lon="13.335466937668539"><ele>1021.6666666666667</ele><time>2026-04-27T12:42:55Z</time></trkpt><trkpt lat="42.136404652185384" lon="13.335379720410025"><ele>1025.5</ele><time>2026-04-27T12:42:57Z</time></trkpt><trkpt lat="42.13639651552441" lon="13.335219901381377"><ele>1029.3333333333335</ele><time>2026-04-27T12:43:05Z</time></trkpt><trkpt lat="42.136395378051446" lon="13.335126387003992"><ele>1033.1666666666667</ele><time>2026-04-27T12:43:06Z</time></trkpt><trkpt lat="42.13640406463454" lon="13.335034837793529"><ele>1037.0</ele><time>2026-04-27T12:43:07Z</time></trkpt><trkpt lat="42.13640971530978" lon="13.33494014513132"><ele>1037.0</ele><time>2026-04-27T12:43:08Z</time></trkpt><trkpt lat="42.136401499537705" lon="13.334846094069281"><ele>1037.0</ele><time>2026-04-27T12:43:09Z</time></trkpt><trkpt lat="42.136360311604285" lon="13.33469577345504"><ele>1037.0</ele><time>2026-04-27T12:43:11Z</time></trkpt><trkpt lat="42.1363472486311" lon="13.33455730976068"><ele>1037.0</ele><time>2026-04-27T12:43:13Z</time></trkpt><trkpt lat="42.136400776357526" lon="13.334459827856271"><ele>1037.0</ele><time>2026-04-27T12:43:15Z</time></trkpt><trkpt lat="42.136419590675196" lon="13.33436215712683"><ele>1040.5</ele><time>2026-04-27T12:43:17Z</time></trkpt><trkpt lat="42.13647858987959" lon="13.334270299278362"><ele>1044.0</ele><time>2026-04-27T12:43:19Z</time></trkpt><trkpt lat="42.13651454564144" lon="13.334192823389142"><ele>1047.5</ele><time>2026-04-27T12:43:22Z</time></trkpt><trkpt lat="42.13645415295737" lon="13.334157921713976"><ele>1051.0</ele><time>2026-04-27T12:43:24Z</time></trkpt><trkpt lat="42.136340257536474" lon="13.334136762660485"><ele>1054.5</ele><time>2026-04-27T12:43:26Z</time></trkpt><trkpt lat="42.13627508247782" lon="13.334086268045764"><ele>1058.0</ele><time>2026-04-27T12:43:28Z</time></trkpt><trkpt lat="42.13627519933655" lon="13.333982995922776"><ele>1062.4</ele><time>2026-04-27T12:43:30Z</time></trkpt><trkpt lat="42.13627834876423" lon="13.33381383114119"><ele>1066.8</ele><time>2026-04-27T12:43:32Z</time></trkpt><trkpt lat="42.13628971765282" lon="13.333723087607991"><ele>1071.2</ele><time>2026-04-27T12:43:33Z</time></trkpt><trkpt lat="42.13633099304429" lon="13.333581955983249"><ele>1075.6</ele><time>2026-04-27T12:43:35Z</time></trkpt><trkpt lat="42.136342624935864" lon="13.333474186767932"><ele>1080.0</ele><time>2026-04-27T12:43:36.999Z</time></trkpt><trkpt lat="42.136389546883905" lon="13.333346892561623"><ele>1080.0</ele><time>2026-04-27T12:43:38.999Z</time></trkpt><trkpt lat="42.13640966392728" lon="13.333198757387171"><ele>1080.0</ele><time>2026-04-27T12:43:40.999Z</time></trkpt><trkpt lat="42.13640908214137" lon="13.333045897565711"><ele>1080.0</ele><time>2026-04-27T12:43:42.999Z</time></trkpt><trkpt lat="42.13641941412431" lon="13.332896038603149"><ele>1080.0</ele><time>2026-04-27T12:43:44.999Z</time></trkpt><trkpt lat="42.13638693887502" lon="13.332747483281109"><ele>1082.4285714285713</ele><time>2026-04-27T12:43:46.999Z</time></trkpt><trkpt lat="42.136373119090955" lon="13.332664317483264"><ele>1084.8571428571427</ele><time>2026-04-27T12:43:47.999Z</time></trkpt><trkpt lat="42.13635974565763" lon="13.332576347735124"><ele>1087.2857142857142</ele><time>2026-04-27T12:43:48.999Z</time></trkpt><trkpt lat="42.136345193678984" lon="13.332480626025509"><ele>1089.7142857142858</ele><time>2026-04-27T12:43:49.999Z</time></trkpt><trkpt lat="42.136333044662855" lon="13.332375762715646"><ele>1092.1428571428573</ele><time>2026-04-27T12:43:50.999Z</time></trkpt><trkpt lat="42.13633584999448" lon="13.332262624245912"><ele>1094.5714285714287</ele><time>2026-04-27T12:43:51.999Z</time></trkpt><trkpt lat="42.13635467488781" lon="13.332152578591339"><ele>1097.0</ele><time>2026-04-27T12:43:52.999Z</time></trkpt><trkpt lat="42.13639570755913" lon="13.332041996003344"><ele>1097.4</ele><time>2026-04-27T12:43:53.999Z</time></trkpt><trkpt lat="42.13643561332819" lon="13.331919018851995"><ele>1097.8000000000002</ele><time>2026-04-27T12:43:54.999Z</time></trkpt><trkpt lat="42.13645486188931" lon="13.331790499028553"><ele>1098.2</ele><time>2026-04-27T12:43:55.999Z</time></trkpt><trkpt lat="42.13648986342347" lon="13.33166618961142"><ele>1098.6000000000001</ele><time>2026-04-27T12:43:56.999Z</time></trkpt><trkpt lat="42.13652045923727" lon="13.331557527299292"><ele>1099.0</ele><time>2026-04-27T12:43:57.999Z</time></trkpt><trkpt lat="42.13658533714449" lon="13.331457869732855"><ele>1101.0</ele><time>2026-04-27T12:43:59.999Z</time></trkpt><trkpt lat="42.13651104452198" lon="13.331367778652414"><ele>1103.0</ele><time>2026-04-27T12:44:01.999Z</time></trkpt><trkpt lat="42.13638516257716" lon="13.331334700481325"><ele>1105.0</ele><time>2026-04-27T12:44:03.999Z</time></trkpt><trkpt lat="42.13630540544333" lon="13.331333301708103"><ele>1107.0</ele><time>2026-04-27T12:44:04.999Z</time></trkpt><trkpt lat="42.136226237992545" lon="13.331332214222986"><ele>1109.0</ele><time>2026-04-27T12:44:05.999Z</time></trkpt><trkpt lat="42.136144485512574" lon="13.331341070422956"><ele>1109.0</ele><time>2026-04-27T12:44:06.999Z</time></trkpt><trkpt lat="42.13604485396802" lon="13.331354586812306"><ele>1109.0</ele><time>2026-04-27T12:44:07.999Z</time></trkpt><trkpt lat="42.1359434451227" lon="13.331367538375492"><ele>1109.0</ele><time>2026-04-27T12:44:08.999Z</time></trkpt><trkpt lat="42.13584439127166" lon="13.331387999578055"><ele>1109.0</ele><time>2026-04-27T12:44:09.999Z</time></trkpt><trkpt lat="42.135755755449956" lon="13.33140680091421"><ele>1109.0</ele><time>2026-04-27T12:44:10.999Z</time></trkpt><trkpt lat="42.135670210526854" lon="13.331411251111348"><ele>1108.5</ele><time>2026-04-27T12:44:11.999Z</time></trkpt><trkpt lat="42.135586799505894" lon="13.331388445932246"><ele>1108.0</ele><time>2026-04-27T12:44:12.999Z</time></trkpt><trkpt lat="42.13550227451962" lon="13.331379874931585"><ele>1107.5</ele><time>2026-04-27T12:44:13.999Z</time></trkpt><trkpt lat="42.135439041148935" lon="13.331410369059505"><ele>1107.0</ele><time>2026-04-27T12:44:14.999Z</time></trkpt><trkpt lat="42.13536538924892" lon="13.331471693900765"><ele>1106.5</ele><time>2026-04-27T12:44:15.999Z</time></trkpt><trkpt lat="42.13528501398371" lon="13.331550735708287"><ele>1106.0</ele><time>2026-04-27T12:44:16.999Z</time></trkpt><trkpt lat="42.13520377291265" lon="13.331612968996414"><ele>1106.0</ele><time>2026-04-27T12:44:17.999Z</time></trkpt><trkpt lat="42.135118927613505" lon="13.33165460883657"><ele>1106.0</ele><time>2026-04-27T12:44:18.999Z</time></trkpt><trkpt lat="42.1350240176645" lon="13.331692683397383"><ele>1106.0</ele><time>2026-04-27T12:44:19.999Z</time></trkpt><trkpt lat="42.134940318644226" lon="13.331708861168467"><ele>1106.0</ele><time>2026-04-27T12:44:20.999Z</time></trkpt><trkpt lat="42.13487441210091" lon="13.331740808404101"><ele>1106.0</ele><time>2026-04-27T12:44:21.999Z</time></trkpt><trkpt lat="42.13481662564696" lon="13.331782225861959"><ele>1106.0</ele><time>2026-04-27T12:44:22.999Z</time></trkpt><trkpt lat="42.134723282242355" lon="13.331857071968928"><ele>1105.1666666666667</ele><time>2026-04-27T12:44:24.999Z</time></trkpt><trkpt lat="42.134645136009176" lon="13.331926009407224"><ele>1104.3333333333335</ele><time>2026-04-27T12:44:26.999Z</time></trkpt><trkpt lat="42.13458992470953" lon="13.331969098247633"><ele>1103.5</ele><time>2026-04-27T12:44:28.999Z</time></trkpt><trkpt lat="42.13454903650572" lon="13.332066213112766"><ele>1102.6666666666667</ele><time>2026-04-27T12:44:53.998Z</time></trkpt><trkpt lat="42.1346380747462" lon="13.332049836552429"><ele>1101.8333333333333</ele><time>2026-04-27T12:44:55.998Z</time></trkpt><trkpt lat="42.13465187834357" lon="13.331942440317825"><ele>1101.0</ele><time>2026-04-27T12:44:56.998Z</time></trkpt><trkpt lat="42.13464300159525" lon="13.331852303412683"><ele>1101.0</ele><time>2026-04-27T12:44:58Z</time></trkpt><trkpt lat="42.134674579684955" lon="13.331745679474231"><ele>1101.0</ele><time>2026-04-27T12:45:01Z</time></trkpt><trkpt lat="42.134735841546146" lon="13.331654167661188"><ele>1101.0</ele><time>2026-04-27T12:45:04Z</time></trkpt><trkpt lat="42.134794355697935" lon="13.331606161572964"><ele>1101.0</ele><time>2026-04-27T12:45:07Z</time></trkpt><trkpt lat="42.13478286694865" lon="13.331508202435248"><ele>1101.0</ele><time>2026-04-27T12:45:18Z</time></trkpt><trkpt lat="42.134733625543355" lon="13.331397731610473"><ele>1101.0</ele><time>2026-04-27T12:45:21Z</time></trkpt><trkpt lat="42.13471569469494" lon="13.33130891239124"><ele>1101.8333333333333</ele><time>2026-04-27T12:45:23Z</time></trkpt><trkpt lat="42.13478271982792" lon="13.331229996082191"><ele>1102.6666666666667</ele><time>2026-04-27T12:45:26Z</time></trkpt><trkpt lat="42.13486006540904" lon="13.33118363850832"><ele>1103.5</ele><time>2026-04-27T12:45:27Z</time></trkpt><trkpt lat="42.13493166954023" lon="13.331124730267051"><ele>1104.3333333333335</ele><time>2026-04-27T12:45:28Z</time></trkpt><trkpt lat="42.134998025603295" lon="13.331077335595252"><ele>1105.1666666666667</ele><time>2026-04-27T12:45:29Z</time></trkpt><trkpt lat="42.13506423397576" lon="13.331048802349565"><ele>1106.0</ele><time>2026-04-27T12:45:30Z</time></trkpt><trkpt lat="42.13513240175597" lon="13.331024922253578"><ele>1106.0</ele><time>2026-04-27T12:45:31Z</time></trkpt><trkpt lat="42.13520287854687" lon="13.331001018337544"><ele>1106.0</ele><time>2026-04-27T12:45:32Z</time></trkpt><trkpt lat="42.13526568134062" lon="13.330961440858344"><ele>1106.0</ele><time>2026-04-27T12:45:34Z</time></trkpt><trkpt lat="42.135363176290944" lon="13.33096613700096"><ele>1106.0</ele><time>2026-04-27T12:45:37Z</time></trkpt><trkpt lat="42.1354604041256" lon="13.330869256941853"><ele>1106.0</ele><time>2026-04-27T12:45:38.999Z</time></trkpt><trkpt lat="42.13548280147759" lon="13.33070260305482"><ele>1106.0</ele><time>2026-04-27T12:45:40.999Z</time></trkpt><trkpt lat="42.135449190957395" lon="13.330620510907714"><ele>1106.0</ele><time>2026-04-27T12:45:41.999Z</time></trkpt><trkpt lat="42.135414108071885" lon="13.330545782806766"><ele>1106.0</ele><time>2026-04-27T12:45:42.999Z</time></trkpt><trkpt lat="42.13537975178214" lon="13.330465524639214"><ele>1106.0</ele><time>2026-04-27T12:45:43.999Z</time></trkpt><trkpt lat="42.13534889998817" lon="13.330386098758375"><ele>1106.0</ele><time>2026-04-27T12:45:44.999Z</time></trkpt><trkpt lat="42.13530918538151" lon="13.330228421921042"><ele>1106.0</ele><time>2026-04-27T12:45:46.999Z</time></trkpt><trkpt lat="42.13529799186679" lon="13.3301386057073"><ele>1106.1666666666667</ele><time>2026-04-27T12:45:47.999Z</time></trkpt><trkpt lat="42.13528177943681" lon="13.330056225663679"><ele>1106.3333333333335</ele><time>2026-04-27T12:45:48.999Z</time></trkpt><trkpt lat="42.13527074018392" lon="13.329912968267855"><ele>1106.5</ele><time>2026-04-27T12:45:50.999Z</time></trkpt><trkpt lat="42.135275596054676" lon="13.329814398039785"><ele>1106.6666666666667</ele><time>2026-04-27T12:45:52.999Z</time></trkpt><trkpt lat="42.13525834213214" lon="13.329728477824945"><ele>1106.8333333333333</ele><time>2026-04-27T12:45:54.999Z</time></trkpt><trkpt lat="42.135295268257615" lon="13.329583734442926"><ele>1107.0</ele><time>2026-04-27T12:45:56.999Z</time></trkpt><trkpt lat="42.13531915849354" lon="13.32942402035308"><ele>1107.0</ele><time>2026-04-27T12:45:58.999Z</time></trkpt><trkpt lat="42.13536185006683" lon="13.32930198143849"><ele>1107.0</ele><time>2026-04-27T12:46:00.999Z</time></trkpt><trkpt lat="42.13537009660405" lon="13.329210407323764"><ele>1107.0</ele><time>2026-04-27T12:46:02.999Z</time></trkpt><trkpt lat="42.13529899143933" lon="13.329208127163563"><ele>1107.0</ele><time>2026-04-27T12:46:07.999Z</time></trkpt><trkpt lat="42.13522512770092" lon="13.32926745154914"><ele>1107.0</ele><time>2026-04-27T12:46:10.999Z</time></trkpt><trkpt lat="42.13513130814163" lon="13.329365696367253"><ele>1107.0</ele><time>2026-04-27T12:46:12.999Z</time></trkpt><trkpt lat="42.13509706310976" lon="13.329460926324929"><ele>1107.0</ele><time>2026-04-27T12:46:14.999Z</time></trkpt><trkpt lat="42.13505483874845" lon="13.32957109413615"><ele>1107.0</ele><time>2026-04-27T12:46:16.999Z</time></trkpt><trkpt lat="42.13499776354139" lon="13.329653739692036"><ele>1107.0</ele><time>2026-04-27T12:46:18.999Z</time></trkpt><trkpt lat="42.13498333280328" lon="13.329751856446093"><ele>1107.0</ele><time>2026-04-27T12:46:20.999Z</time></trkpt><trkpt lat="42.13502871070099" lon="13.329823049262751"><ele>1107.0</ele><time>2026-04-27T12:46:22.999Z</time></trkpt><trkpt lat="42.135101214010454" lon="13.329923025135939"><ele>1107.0</ele><time>2026-04-27T12:46:24.999Z</time></trkpt><trkpt lat="42.1351158727693" lon="13.330008717313794"><ele>1106.8333333333333</ele><time>2026-04-27T12:46:25.999Z</time></trkpt><trkpt lat="42.13512991805772" lon="13.33013539650099"><ele>1106.6666666666667</ele><time>2026-04-27T12:46:26.999Z</time></trkpt><trkpt lat="42.1351369111526" lon="13.33024003556318"><ele>1106.5</ele><time>2026-04-27T12:46:27.999Z</time></trkpt><trkpt lat="42.1351336403233" lon="13.330333900880142"><ele>1106.3333333333335</ele><time>2026-04-27T12:46:28.999Z</time></trkpt><trkpt lat="42.13514605554424" lon="13.330423179898911"><ele>1106.1666666666667</ele><time>2026-04-27T12:46:29.999Z</time></trkpt><trkpt lat="42.13516254146298" lon="13.330549329200464"><ele>1106.0</ele><time>2026-04-27T12:46:31.999Z</time></trkpt><trkpt lat="42.13509006383068" lon="13.330598953672528"><ele>1106.0</ele><time>2026-04-27T12:46:34.999Z</time></trkpt><trkpt lat="42.135050704712235" lon="13.330665377853142"><ele>1106.0</ele><time>2026-04-27T12:46:36.999Z</time></trkpt><trkpt lat="42.135064794716584" lon="13.330748137899976"><ele>1106.0</ele><time>2026-04-27T12:46:39.999Z</time></trkpt><trkpt lat="42.135101605631014" lon="13.330825617927095"><ele>1106.0</ele><time>2026-04-27T12:46:43.998Z</time></trkpt><trkpt lat="42.13510478152266" lon="13.33092101840091"><ele>1106.0</ele><time>2026-04-27T12:46:45.998Z</time></trkpt><trkpt lat="42.13510562778428" lon="13.331104697573608"><ele>1106.0</ele><time>2026-04-27T12:46:47.998Z</time></trkpt><trkpt lat="42.13507335089461" lon="13.331248979677289"><ele>1106.0</ele><time>2026-04-27T12:46:49.998Z</time></trkpt><trkpt lat="42.13503456034041" lon="13.331427822934424"><ele>1106.0</ele><time>2026-04-27T12:46:51.998Z</time></trkpt><trkpt lat="42.135009563125585" lon="13.331506018005205"><ele>1106.0</ele><time>2026-04-27T12:46:52.998Z</time></trkpt><trkpt lat="42.13498636615543" lon="13.33165585613269"><ele>1106.0</ele><time>2026-04-27T12:46:54.998Z</time></trkpt><trkpt lat="42.13495844208271" lon="13.331735008248431"><ele>1106.0</ele><time>2026-04-27T12:46:56.998Z</time></trkpt><trkpt lat="42.13489333344309" lon="13.331766452997655"><ele>1106.0</ele><time>2026-04-27T12:46:58.998Z</time></trkpt><trkpt lat="42.13479102379533" lon="13.331819972969301"><ele>1105.1666666666667</ele><time>2026-04-27T12:47:00.998Z</time></trkpt><trkpt lat="42.13473523151191" lon="13.331881751169846"><ele>1104.3333333333335</ele><time>2026-04-27T12:47:01.998Z</time></trkpt><trkpt lat="42.13468407386422" lon="13.331936503657957"><ele>1103.5</ele><time>2026-04-27T12:47:02.998Z</time></trkpt><trkpt lat="42.13462612881579" lon="13.331977573539017"><ele>1102.6666666666667</ele><time>2026-04-27T12:47:04Z</time></trkpt><trkpt lat="42.13456646579957" lon="13.332020403945128"><ele>1101.8333333333333</ele><time>2026-04-27T12:47:05Z</time></trkpt><trkpt lat="42.1344585737293" lon="13.332093236602097"><ele>1101.0</ele><time>2026-04-27T12:47:07Z</time></trkpt><trkpt lat="42.134396787663064" lon="13.332119078476124"><ele>1101.0</ele><time>2026-04-27T12:47:09Z</time></trkpt><trkpt lat="42.134338145672835" lon="13.3320679172602"><ele>1101.0</ele><time>2026-04-27T12:48:16.999Z</time></trkpt><trkpt lat="42.13426005342629" lon="13.332046603348203"><ele>1101.0</ele><time>2026-04-27T12:48:17.999Z</time></trkpt><trkpt lat="42.134166151236414" lon="13.332053748377739"><ele>1101.0</ele><time>2026-04-27T12:48:18.999Z</time></trkpt><trkpt lat="42.1340894385998" lon="13.332068748863094"><ele>1101.0</ele><time>2026-04-27T12:48:19.999Z</time></trkpt><trkpt lat="42.13401877879254" lon="13.332070732226025"><ele>1101.0</ele><time>2026-04-27T12:48:20.999Z</time></trkpt><trkpt lat="42.13388893569338" lon="13.332070302719934"><ele>1100.3333333333333</ele><time>2026-04-27T12:48:22.999Z</time></trkpt><trkpt lat="42.13380717716401" lon="13.332068979979773"><ele>1099.6666666666667</ele><time>2026-04-27T12:48:23.999Z</time></trkpt><trkpt lat="42.133704502969636" lon="13.332049954618874"><ele>1099.0</ele><time>2026-04-27T12:48:24.999Z</time></trkpt><trkpt lat="42.13361498799184" lon="13.33200779503519"><ele>1098.3333333333335</ele><time>2026-04-27T12:48:25.999Z</time></trkpt><trkpt lat="42.13354641437539" lon="13.331965514204672"><ele>1097.6666666666667</ele><time>2026-04-27T12:48:26.999Z</time></trkpt><trkpt lat="42.1334846145288" lon="13.331927476337667"><ele>1097.0</ele><time>2026-04-27T12:48:27.999Z</time></trkpt><trkpt lat="42.13338278778823" lon="13.33183505845722"><ele>1097.0</ele><time>2026-04-27T12:48:29.999Z</time></trkpt><trkpt lat="42.13334826309991" lon="13.331759605871824"><ele>1097.0</ele><time>2026-04-27T12:48:30.999Z</time></trkpt><trkpt lat="42.13332354857091" lon="13.331672340095503"><ele>1097.0</ele><time>2026-04-27T12:48:31.999Z</time></trkpt><trkpt lat="42.13330050237226" lon="13.331583603634838"><ele>1097.0</ele><time>2026-04-27T12:48:32.999Z</time></trkpt><trkpt lat="42.13327462990819" lon="13.331499440276449"><ele>1097.0</ele><time>2026-04-27T12:48:33.999Z</time></trkpt><trkpt lat="42.133240421866994" lon="13.331417403123563"><ele>1097.0</ele><time>2026-04-27T12:48:34.999Z</time></trkpt><trkpt lat="42.13320543060326" lon="13.331340493768268"><ele>1097.0</ele><time>2026-04-27T12:48:35.999Z</time></trkpt><trkpt lat="42.13316812219358" lon="13.331261087195866"><ele>1094.0</ele><time>2026-04-27T12:48:36.999Z</time></trkpt><trkpt lat="42.13310531668972" lon="13.331177138204204"><ele>1091.0</ele><time>2026-04-27T12:48:37.999Z</time></trkpt><trkpt lat="42.133026740287896" lon="13.331095960317061"><ele>1088.0</ele><time>2026-04-27T12:48:38.999Z</time></trkpt><trkpt lat="42.132946786575005" lon="13.331033376944925"><ele>1085.0</ele><time>2026-04-27T12:48:39.999Z</time></trkpt><trkpt lat="42.13286936397362" lon="13.330977653873697"><ele>1082.0</ele><time>2026-04-27T12:48:40.999Z</time></trkpt><trkpt lat="42.13278193839122" lon="13.33090490582491"><ele>1082.0</ele><time>2026-04-27T12:48:41.999Z</time></trkpt><trkpt lat="42.132675328550214" lon="13.330821596990887"><ele>1082.0</ele><time>2026-04-27T12:48:42.999Z</time></trkpt><trkpt lat="42.13254895212104" lon="13.330724670355458"><ele>1082.0</ele><time>2026-04-27T12:48:43.999Z</time></trkpt><trkpt lat="42.13241280250952" lon="13.330626576372635"><ele>1082.0</ele><time>2026-04-27T12:48:44.999Z</time></trkpt><trkpt lat="42.13227555501551" lon="13.330521383048168"><ele>1078.5</ele><time>2026-04-27T12:48:45.999Z</time></trkpt><trkpt lat="42.13215118720447" lon="13.330433941503639"><ele>1075.0</ele><time>2026-04-27T12:48:46.999Z</time></trkpt><trkpt lat="42.13202156953228" lon="13.330344731423255"><ele>1071.5</ele><time>2026-04-27T12:48:47.998Z</time></trkpt><trkpt lat="42.13188540238143" lon="13.330271624313914"><ele>1068.0</ele><time>2026-04-27T12:48:48.998Z</time></trkpt><trkpt lat="42.13173960169418" lon="13.330206754522008"><ele>1068.0</ele><time>2026-04-27T12:48:49.998Z</time></trkpt><trkpt lat="42.13160878116831" lon="13.3301448300274"><ele>1068.0</ele><time>2026-04-27T12:48:50.998Z</time></trkpt><trkpt lat="42.131499050868584" lon="13.330075973924064"><ele>1068.0</ele><time>2026-04-27T12:48:51.998Z</time></trkpt><trkpt lat="42.13140749023513" lon="13.329983904887108"><ele>1068.0</ele><time>2026-04-27T12:48:52.998Z</time></trkpt><trkpt lat="42.131337356511196" lon="13.329855016845451"><ele>1066.8</ele><time>2026-04-27T12:48:53.998Z</time></trkpt><trkpt lat="42.13126972829318" lon="13.329721596802479"><ele>1065.6</ele><time>2026-04-27T12:48:54.998Z</time></trkpt><trkpt lat="42.1311985407268" lon="13.329607497127002"><ele>1064.4</ele><time>2026-04-27T12:48:55.998Z</time></trkpt><trkpt lat="42.131103680686934" lon="13.32955706977386"><ele>1063.2</ele><time>2026-04-27T12:48:56.998Z</time></trkpt><trkpt lat="42.13099690013963" lon="13.329540558858033"><ele>1062.0</ele><time>2026-04-27T12:48:57.998Z</time></trkpt><trkpt lat="42.13089609348128" lon="13.329515432587632"><ele>1062.0</ele><time>2026-04-27T12:48:58.998Z</time></trkpt><trkpt lat="42.13082438741941" lon="13.329481915891515"><ele>1062.0</ele><time>2026-04-27T12:48:59.998Z</time></trkpt><trkpt lat="42.13075672095931" lon="13.329427651299584"><ele>1062.0</ele><time>2026-04-27T12:49:00.998Z</time></trkpt><trkpt lat="42.13070669716805" lon="13.32932278922474"><ele>1062.0</ele><time>2026-04-27T12:49:02.998Z</time></trkpt><trkpt lat="42.13070232858621" lon="13.329178909174791"><ele>1062.0</ele><time>2026-04-27T12:49:06.998Z</time></trkpt><trkpt lat="42.130695357596494" lon="13.329070793290079"><ele>1062.0</ele><time>2026-04-27T12:49:08.998Z</time></trkpt><trkpt lat="42.130683290066294" lon="13.328939857628797"><ele>1062.0</ele><time>2026-04-27T12:49:10Z</time></trkpt><trkpt lat="42.130675590674876" lon="13.32882880045123"><ele>1062.0</ele><time>2026-04-27T12:49:11Z</time></trkpt><trkpt lat="42.13066950366398" lon="13.328682973095274"><ele>1062.0</ele><time>2026-04-27T12:49:12Z</time></trkpt><trkpt lat="42.13066612117615" lon="13.32853458484128"><ele>1062.0</ele><time>2026-04-27T12:49:13Z</time></trkpt><trkpt lat="42.1306774261823" lon="13.328384202825973"><ele>1062.0</ele><time>2026-04-27T12:49:14Z</time></trkpt><trkpt lat="42.130711049567346" lon="13.328256910999123"><ele>1062.0</ele><time>2026-04-27T12:49:15Z</time></trkpt><trkpt lat="42.13072369903802" lon="13.32815950863744"><ele>1062.0</ele><time>2026-04-27T12:49:16Z</time></trkpt><trkpt lat="42.13071449623649" lon="13.328041043356597"><ele>1062.0</ele><time>2026-04-27T12:49:18Z</time></trkpt><trkpt lat="42.13063697035672" lon="13.327987228302993"><ele>1062.0</ele><time>2026-04-27T12:49:20Z</time></trkpt><trkpt lat="42.13055100002499" lon="13.327979233359574"><ele>1062.0</ele><time>2026-04-27T12:49:22Z</time></trkpt><trkpt lat="42.1304585833318" lon="13.328055633284132"><ele>1062.0</ele><time>2026-04-27T12:49:23Z</time></trkpt><trkpt lat="42.13040001238165" lon="13.328104004215817"><ele>1062.4</ele><time>2026-04-27T12:49:24Z</time></trkpt><trkpt lat="42.13031614356081" lon="13.327930474491735"><ele>1062.8000000000002</ele><time>2026-04-27T12:49:26Z</time></trkpt><trkpt lat="42.130332786678764" lon="13.32778782237115"><ele>1063.2</ele><time>2026-04-27T12:49:28Z</time></trkpt><trkpt lat="42.13034780629522" lon="13.327689878239324"><ele>1063.6000000000001</ele><time>2026-04-27T12:49:29Z</time></trkpt><trkpt lat="42.13037066964384" lon="13.32759722906707"><ele>1064.0</ele><time>2026-04-27T12:49:30Z</time></trkpt><trkpt lat="42.130387026156704" lon="13.327499443982775"><ele>1064.0</ele><time>2026-04-27T12:49:31Z</time></trkpt><trkpt lat="42.13041025133363" lon="13.327406163585458"><ele>1064.0</ele><time>2026-04-27T12:49:32Z</time></trkpt><trkpt lat="42.13041023753735" lon="13.327283525012696"><ele>1064.0</ele><time>2026-04-27T12:49:33Z</time></trkpt><trkpt lat="42.13040087165666" lon="13.327143416768076"><ele>1064.0</ele><time>2026-04-27T12:49:34Z</time></trkpt><trkpt lat="42.130411464115234" lon="13.326985195824632"><ele>1064.0</ele><time>2026-04-27T12:49:35Z</time></trkpt><trkpt lat="42.13043482911451" lon="13.326823925548252"><ele>1065.5</ele><time>2026-04-27T12:49:36Z</time></trkpt><trkpt lat="42.130473302055144" lon="13.326658173967"><ele>1067.0</ele><time>2026-04-27T12:49:37Z</time></trkpt><trkpt lat="42.13050512671469" lon="13.326495738878121"><ele>1068.5</ele><time>2026-04-27T12:49:38Z</time></trkpt><trkpt lat="42.13052395325253" lon="13.326343929850223"><ele>1070.0</ele><time>2026-04-27T12:49:39Z</time></trkpt><trkpt lat="42.13053233462437" lon="13.326168247619506"><ele>1072.25</ele><time>2026-04-27T12:49:40Z</time></trkpt><trkpt lat="42.13054262520333" lon="13.325994225787262"><ele>1074.5</ele><time>2026-04-27T12:49:41Z</time></trkpt><trkpt lat="42.13054943368125" lon="13.325840574563838"><ele>1076.75</ele><time>2026-04-27T12:49:42Z</time></trkpt><trkpt lat="42.13054898031782" lon="13.32568858366524"><ele>1079.0</ele><time>2026-04-27T12:49:43Z</time></trkpt><trkpt lat="42.13054891599087" lon="13.32553518609674"><ele>1079.8333333333335</ele><time>2026-04-27T12:49:44Z</time></trkpt><trkpt lat="42.13056642014719" lon="13.325394302664202"><ele>1080.6666666666667</ele><time>2026-04-27T12:49:45Z</time></trkpt><trkpt lat="42.13058000918226" lon="13.325294492591027"><ele>1081.5</ele><time>2026-04-27T12:49:46Z</time></trkpt><trkpt lat="42.13057517526723" lon="13.325207844432862"><ele>1082.3333333333333</ele><time>2026-04-27T12:49:46.999Z</time></trkpt><trkpt lat="42.13056241434215" lon="13.325110045368318"><ele>1083.1666666666665</ele><time>2026-04-27T12:49:47.999Z</time></trkpt><trkpt lat="42.1305444205566" lon="13.325014308108221"><ele>1084.0</ele><time>2026-04-27T12:49:48.999Z</time></trkpt><trkpt lat="42.130527302001845" lon="13.324921301250951"><ele>1084.0</ele><time>2026-04-27T12:49:49.999Z</time></trkpt><trkpt lat="42.13050651961289" lon="13.32482046325567"><ele>1084.0</ele><time>2026-04-27T12:49:50.999Z</time></trkpt><trkpt lat="42.13050243761548" lon="13.324708778698023"><ele>1084.0</ele><time>2026-04-27T12:49:51.999Z</time></trkpt><trkpt lat="42.13052030202561" lon="13.32459452190172"><ele>1084.0</ele><time>2026-04-27T12:49:52.999Z</time></trkpt><trkpt lat="42.130560465007214" lon="13.324505270599083"><ele>1084.0</ele><time>2026-04-27T12:49:53.999Z</time></trkpt><trkpt lat="42.13060938338709" lon="13.324434080154584"><ele>1084.0</ele><time>2026-04-27T12:49:54.999Z</time></trkpt><trkpt lat="42.13066866601677" lon="13.32437509742664"><ele>1084.0</ele><time>2026-04-27T12:49:55.999Z</time></trkpt><trkpt lat="42.13072087957918" lon="13.324250607907508"><ele>1084.0</ele><time>2026-04-27T12:49:57.999Z</time></trkpt><trkpt lat="42.1307264331493" lon="13.32415110922469"><ele>1084.0</ele><time>2026-04-27T12:49:58.999Z</time></trkpt><trkpt lat="42.13072399608396" lon="13.324053355114252"><ele>1084.0</ele><time>2026-04-27T12:49:59.999Z</time></trkpt><trkpt lat="42.13071028560936" lon="13.323943080520282"><ele>1084.0</ele><time>2026-04-27T12:50:00.999Z</time></trkpt><trkpt lat="42.13069437298663" lon="13.3238279525629"><ele>1084.0</ele><time>2026-04-27T12:50:01.999Z</time></trkpt><trkpt lat="42.130691796130336" lon="13.323701435065374"><ele>1085.0</ele><time>2026-04-27T12:50:02.999Z</time></trkpt><trkpt lat="42.13070639241898" lon="13.323565822210819"><ele>1086.0</ele><time>2026-04-27T12:50:03.999Z</time></trkpt><trkpt lat="42.13073637149672" lon="13.323417269782446"><ele>1087.0</ele><time>2026-04-27T12:50:04.999Z</time></trkpt><trkpt lat="42.130764943420566" lon="13.323260320460458"><ele>1088.0</ele><time>2026-04-27T12:50:05.999Z</time></trkpt><trkpt lat="42.13079616521203" lon="13.323103932392046"><ele>1085.25</ele><time>2026-04-27T12:50:06.999Z</time></trkpt><trkpt lat="42.130824845472766" lon="13.322934226970816"><ele>1082.5</ele><time>2026-04-27T12:50:07.999Z</time></trkpt><trkpt lat="42.13086149811977" lon="13.322773768360811"><ele>1079.75</ele><time>2026-04-27T12:50:08.999Z</time></trkpt><trkpt lat="42.13089543839752" lon="13.322628712866155"><ele>1077.0</ele><time>2026-04-27T12:50:09.999Z</time></trkpt><trkpt lat="42.13093831501146" lon="13.32251516939418"><ele>1077.0</ele><time>2026-04-27T12:50:10.999Z</time></trkpt><trkpt lat="42.13098057606277" lon="13.322410239050718"><ele>1077.0</ele><time>2026-04-27T12:50:11.999Z</time></trkpt><trkpt lat="42.130988746189374" lon="13.32230711027405"><ele>1077.0</ele><time>2026-04-27T12:50:12.999Z</time></trkpt><trkpt lat="42.13096899014682" lon="13.322191673741285"><ele>1077.0</ele><time>2026-04-27T12:50:13.999Z</time></trkpt><trkpt lat="42.13093889822272" lon="13.322070693044052"><ele>1077.0</ele><time>2026-04-27T12:50:14.999Z</time></trkpt><trkpt lat="42.1309207706345" lon="13.321916005470621"><ele>1077.0</ele><time>2026-04-27T12:50:15.999Z</time></trkpt><trkpt lat="42.13090883265263" lon="13.321752254301778"><ele>1077.0</ele><time>2026-04-27T12:50:16.999Z</time></trkpt><trkpt lat="42.13089979268067" lon="13.321577921943035"><ele>1077.0</ele><time>2026-04-27T12:50:17.999Z</time></trkpt><trkpt lat="42.13089063239867" lon="13.32139755177119"><ele>1077.0</ele><time>2026-04-27T12:50:18.999Z</time></trkpt><trkpt lat="42.130881591091594" lon="13.321210042286005"><ele>1076.5</ele><time>2026-04-27T12:50:19.999Z</time></trkpt><trkpt lat="42.13087636531425" lon="13.321039493347705"><ele>1076.0</ele><time>2026-04-27T12:50:20.999Z</time></trkpt><trkpt lat="42.13087144840041" lon="13.320877692945926"><ele>1075.5</ele><time>2026-04-27T12:50:21.999Z</time></trkpt><trkpt lat="42.13086285153274" lon="13.320718810109884"><ele>1075.0</ele><time>2026-04-27T12:50:22.999Z</time></trkpt><trkpt lat="42.130848888911494" lon="13.320553671018365"><ele>1075.0</ele><time>2026-04-27T12:50:23.999Z</time></trkpt><trkpt lat="42.13084126108084" lon="13.320420404398556"><ele>1075.0</ele><time>2026-04-27T12:50:24.999Z</time></trkpt><trkpt lat="42.130841938470375" lon="13.320317322768034"><ele>1075.0</ele><time>2026-04-27T12:50:25.999Z</time></trkpt><trkpt lat="42.13086497607569" lon="13.32022142690995"><ele>1075.0</ele><time>2026-04-27T12:50:26.999Z</time></trkpt><trkpt lat="42.130958640315306" lon="13.320131991893993"><ele>1075.0</ele><time>2026-04-27T12:50:28.999Z</time></trkpt><trkpt lat="42.13097590576817" lon="13.320009914804139"><ele>1075.0</ele><time>2026-04-27T12:50:30.999Z</time></trkpt><trkpt lat="42.13092814361652" lon="13.319921840913603"><ele>1075.0</ele><time>2026-04-27T12:50:32.999Z</time></trkpt><trkpt lat="42.130957177898196" lon="13.31983197403638"><ele>1075.0</ele><time>2026-04-27T12:50:34.999Z</time></trkpt><trkpt lat="42.13099463914883" lon="13.319683632430886"><ele>1075.0</ele><time>2026-04-27T12:50:36.999Z</time></trkpt><trkpt lat="42.13102490971146" lon="13.319595038567849"><ele>1075.0</ele><time>2026-04-27T12:50:37.999Z</time></trkpt><trkpt lat="42.13106788372502" lon="13.31945559494153"><ele>1075.2857142857144</ele><time>2026-04-27T12:50:39.999Z</time></trkpt><trkpt lat="42.131092745579096" lon="13.31937301914897"><ele>1075.5714285714287</ele><time>2026-04-27T12:50:40.999Z</time></trkpt><trkpt lat="42.13113465823323" lon="13.319293411767287"><ele>1075.857142857143</ele><time>2026-04-27T12:50:41.999Z</time></trkpt><trkpt lat="42.131182645095755" lon="13.319227966532651"><ele>1076.1428571428573</ele><time>2026-04-27T12:50:42.999Z</time></trkpt><trkpt lat="42.13124307382964" lon="13.319170901852415"><ele>1076.4285714285716</ele><time>2026-04-27T12:50:43.999Z</time></trkpt><trkpt lat="42.131277982205724" lon="13.319096469813225"><ele>1076.7142857142858</ele><time>2026-04-27T12:50:44.999Z</time></trkpt><trkpt lat="42.13131185857582" lon="13.318982528603321"><ele>1077.0</ele><time>2026-04-27T12:50:45.999Z</time></trkpt><trkpt lat="42.131350412532846" lon="13.31886654338918"><ele>1076.0</ele><time>2026-04-27T12:50:46.999Z</time></trkpt><trkpt lat="42.13139566551491" lon="13.318738645959261"><ele>1075.0</ele><time>2026-04-27T12:50:47.999Z</time></trkpt><trkpt lat="42.13143180247694" lon="13.318625382798212"><ele>1074.0</ele><time>2026-04-27T12:50:48.999Z</time></trkpt><trkpt lat="42.13146086603889" lon="13.318507339286475"><ele>1073.0</ele><time>2026-04-27T12:50:49.999Z</time></trkpt><trkpt lat="42.13149568157639" lon="13.318407103991593"><ele>1072.0</ele><time>2026-04-27T12:50:50.998Z</time></trkpt><trkpt lat="42.131544957536846" lon="13.31833170159773"><ele>1071.0</ele><time>2026-04-27T12:50:51.998Z</time></trkpt><trkpt lat="42.13165535862524" lon="13.31822569674799"><ele>1069.5</ele><time>2026-04-27T12:50:53.998Z</time></trkpt><trkpt lat="42.13171837581803" lon="13.318166473928333"><ele>1068.0</ele><time>2026-04-27T12:50:54.998Z</time></trkpt><trkpt lat="42.13180561111688" lon="13.318080403123036"><ele>1066.5</ele><time>2026-04-27T12:50:55.998Z</time></trkpt><trkpt lat="42.13187126909419" lon="13.317987831843814"><ele>1065.0</ele><time>2026-04-27T12:50:56.998Z</time></trkpt><trkpt lat="42.13192297487652" lon="13.317909561522255"><ele>1063.5</ele><time>2026-04-27T12:50:57.998Z</time></trkpt><trkpt lat="42.1319236641609" lon="13.317812836320817"><ele>1062.0</ele><time>2026-04-27T12:50:58.998Z</time></trkpt><trkpt lat="42.13193115710303" lon="13.317717685951612"><ele>1060.8</ele><time>2026-04-27T12:50:59.998Z</time></trkpt><trkpt lat="42.13196730086231" lon="13.317553303262304"><ele>1059.6</ele><time>2026-04-27T12:51:01.998Z</time></trkpt><trkpt lat="42.13200816611091" lon="13.317464341121804"><ele>1058.3999999999999</ele><time>2026-04-27T12:51:02.998Z</time></trkpt><trkpt lat="42.13205110097883" lon="13.317364551449856"><ele>1057.2</ele><time>2026-04-27T12:51:03.998Z</time></trkpt><trkpt lat="42.132094738411574" lon="13.317297015057683"><ele>1056.0</ele><time>2026-04-27T12:51:04.998Z</time></trkpt><trkpt lat="42.13216544313742" lon="13.317208294666571"><ele>1055.6</ele><time>2026-04-27T12:51:05.998Z</time></trkpt><trkpt lat="42.13223639889786" lon="13.317106984216062"><ele>1055.1999999999998</ele><time>2026-04-27T12:51:06.998Z</time></trkpt><trkpt lat="42.13230617863386" lon="13.316999576174817"><ele>1054.8000000000002</ele><time>2026-04-27T12:51:07.998Z</time></trkpt><trkpt lat="42.13238752727709" lon="13.316902661026731"><ele>1054.4</ele><time>2026-04-27T12:51:08.998Z</time></trkpt><trkpt lat="42.13247147647728" lon="13.316810255650095"><ele>1054.0</ele><time>2026-04-27T12:51:09.998Z</time></trkpt><trkpt lat="42.132554494724516" lon="13.316716165072897"><ele>1054.0</ele><time>2026-04-27T12:51:10.998Z</time></trkpt><trkpt lat="42.13263491459028" lon="13.316606492474671"><ele>1054.0</ele><time>2026-04-27T12:51:11.998Z</time></trkpt><trkpt lat="42.1327070453267" lon="13.316494014330429"><ele>1054.0</ele><time>2026-04-27T12:51:12.998Z</time></trkpt><trkpt lat="42.13277878008556" lon="13.316389640115682"><ele>1054.0</ele><time>2026-04-27T12:51:13.998Z</time></trkpt><trkpt lat="42.132848231125685" lon="13.316283742772239"><ele>1054.0</ele><time>2026-04-27T12:51:14.998Z</time></trkpt><trkpt lat="42.13290174564738" lon="13.316185119396476"><ele>1053.3333333333333</ele><time>2026-04-27T12:51:16Z</time></trkpt><trkpt lat="42.132948498671865" lon="13.316108184149117"><ele>1052.6666666666665</ele><time>2026-04-27T12:51:17Z</time></trkpt><trkpt lat="42.133017377773605" lon="13.316015872095372"><ele>1052.0</ele><time>2026-04-27T12:51:19Z</time></trkpt><trkpt lat="42.13306093095147" lon="13.315895627152585"><ele>1051.3333333333333</ele><time>2026-04-27T12:51:21Z</time></trkpt><trkpt lat="42.13306622524677" lon="13.315805206637624"><ele>1050.6666666666667</ele><time>2026-04-27T12:51:22Z</time></trkpt><trkpt lat="42.1330593252807" lon="13.315717795619907"><ele>1050.0</ele><time>2026-04-27T12:51:23Z</time></trkpt><trkpt lat="42.13299869244986" lon="13.315576884260082"><ele>1049.6</ele><time>2026-04-27T12:51:25Z</time></trkpt><trkpt lat="42.13291629522822" lon="13.31554007344977"><ele>1049.2</ele><time>2026-04-27T12:51:26Z</time></trkpt><trkpt lat="42.132823535326835" lon="13.315506148008438"><ele>1048.8</ele><time>2026-04-27T12:51:27Z</time></trkpt><trkpt lat="42.132744218608174" lon="13.315457513380695"><ele>1048.4</ele><time>2026-04-27T12:51:28Z</time></trkpt><trkpt lat="42.13267692108904" lon="13.31537800550676"><ele>1048.0</ele><time>2026-04-27T12:51:29Z</time></trkpt><trkpt lat="42.13262089788732" lon="13.315265300948585"><ele>1048.0</ele><time>2026-04-27T12:51:30Z</time></trkpt><trkpt lat="42.132569587262594" lon="13.315144454854376"><ele>1048.0</ele><time>2026-04-27T12:51:31Z</time></trkpt><trkpt lat="42.13252372537051" lon="13.315005864720453"><ele>1048.0</ele><time>2026-04-27T12:51:32Z</time></trkpt><trkpt lat="42.132487675228894" lon="13.314860696235645"><ele>1048.0</ele><time>2026-04-27T12:51:33Z</time></trkpt><trkpt lat="42.13244928743692" lon="13.31473382997715"><ele>1048.0</ele><time>2026-04-27T12:51:34Z</time></trkpt><trkpt lat="42.13240535118047" lon="13.314621637039753"><ele>1048.2</ele><time>2026-04-27T12:51:35Z</time></trkpt><trkpt lat="42.13235096601427" lon="13.314517313007963"><ele>1048.4</ele><time>2026-04-27T12:51:36Z</time></trkpt><trkpt lat="42.132272816501946" lon="13.314430745464284"><ele>1048.6000000000001</ele><time>2026-04-27T12:51:37Z</time></trkpt><trkpt lat="42.132178187697846" lon="13.314335762212853"><ele>1048.8</ele><time>2026-04-27T12:51:38Z</time></trkpt><trkpt lat="42.132088112389035" lon="13.31423766469119"><ele>1049.0</ele><time>2026-04-27T12:51:39Z</time></trkpt><trkpt lat="42.132005322683256" lon="13.314129491659838"><ele>1049.0</ele><time>2026-04-27T12:51:40Z</time></trkpt><trkpt lat="42.13192782301871" lon="13.314027175514164"><ele>1049.0</ele><time>2026-04-27T12:51:41Z</time></trkpt><trkpt lat="42.13187121175618" lon="13.31395202122794"><ele>1049.0</ele><time>2026-04-27T12:51:42Z</time></trkpt><trkpt lat="42.13182081619131" lon="13.313879889606882"><ele>1049.0</ele><time>2026-04-27T12:51:44Z</time></trkpt><trkpt lat="42.131800633015246" lon="13.31378105401324"><ele>1049.0</ele><time>2026-04-27T12:51:47Z</time></trkpt><trkpt lat="42.13180562172466" lon="13.31369434721367"><ele>1049.0</ele><time>2026-04-27T12:51:49Z</time></trkpt><trkpt lat="42.131800964480476" lon="13.313566279006798"><ele>1049.6000000000001</ele><time>2026-04-27T12:51:49.999Z</time></trkpt><trkpt lat="42.13180177615835" lon="13.313460815504003"><ele>1050.2</ele><time>2026-04-27T12:51:50.999Z</time></trkpt><trkpt lat="42.13180265296864" lon="13.313358717931182"><ele>1050.8000000000002</ele><time>2026-04-27T12:51:51.999Z</time></trkpt><trkpt lat="42.13181020102581" lon="13.313231333383472"><ele>1051.4</ele><time>2026-04-27T12:51:52.999Z</time></trkpt><trkpt lat="42.131812603993076" lon="13.313085340226845"><ele>1052.0</ele><time>2026-04-27T12:51:53.999Z</time></trkpt><trkpt lat="42.13182073217811" lon="13.312909034757562"><ele>1052.6</ele><time>2026-04-27T12:51:54.999Z</time></trkpt><trkpt lat="42.131842006791565" lon="13.312748277043614"><ele>1053.2</ele><time>2026-04-27T12:51:55.999Z</time></trkpt><trkpt lat="42.13187857735066" lon="13.312614539164853"><ele>1053.8</ele><time>2026-04-27T12:51:56.999Z</time></trkpt><trkpt lat="42.131941353677995" lon="13.312505769662975"><ele>1054.4</ele><time>2026-04-27T12:51:57.999Z</time></trkpt><trkpt lat="42.132007827311234" lon="13.312422979413594"><ele>1055.0</ele><time>2026-04-27T12:51:58.999Z</time></trkpt><trkpt lat="42.1320866251957" lon="13.312361337059883"><ele>1055.0</ele><time>2026-04-27T12:51:59.999Z</time></trkpt><trkpt lat="42.13214750776181" lon="13.312283601035269"><ele>1055.0</ele><time>2026-04-27T12:52:00.999Z</time></trkpt><trkpt lat="42.13218095285597" lon="13.31220354611591"><ele>1055.0</ele><time>2026-04-27T12:52:01.999Z</time></trkpt><trkpt lat="42.13219733533605" lon="13.312121026767187"><ele>1055.0</ele><time>2026-04-27T12:52:02.999Z</time></trkpt><trkpt lat="42.13222843666545" lon="13.312042977979225"><ele>1055.0</ele><time>2026-04-27T12:52:03.999Z</time></trkpt><trkpt lat="42.13234021319353" lon="13.311979090317497"><ele>1055.0</ele><time>2026-04-27T12:52:05.999Z</time></trkpt><trkpt lat="42.13240162024855" lon="13.311867042173143"><ele>1053.0</ele><time>2026-04-27T12:52:07.999Z</time></trkpt><trkpt lat="42.13241653597076" lon="13.31178135954885"><ele>1051.0</ele><time>2026-04-27T12:52:08.999Z</time></trkpt><trkpt lat="42.132477315755544" lon="13.311725910522538"><ele>1049.0</ele><time>2026-04-27T12:52:09.999Z</time></trkpt><trkpt lat="42.13255793382913" lon="13.311675535581962"><ele>1047.0</ele><time>2026-04-27T12:52:10.999Z</time></trkpt><trkpt lat="42.132636675932645" lon="13.311628878708376"><ele>1045.0</ele><time>2026-04-27T12:52:11.999Z</time></trkpt><trkpt lat="42.13271029840721" lon="13.311606609940533"><ele>1043.0</ele><time>2026-04-27T12:52:12.999Z</time></trkpt><trkpt lat="42.13275515845519" lon="13.311528420710175"><ele>1043.0</ele><time>2026-04-27T12:52:13.999Z</time></trkpt><trkpt lat="42.13279272381953" lon="13.311445605208336"><ele>1043.0</ele><time>2026-04-27T12:52:14.999Z</time></trkpt><trkpt lat="42.13286079219577" lon="13.3113108735718"><ele>1043.0</ele><time>2026-04-27T12:52:16.999Z</time></trkpt><trkpt lat="42.132928185709844" lon="13.31125300088524"><ele>1043.0</ele><time>2026-04-27T12:52:17.999Z</time></trkpt><trkpt lat="42.13300992872784" lon="13.311209749683014"><ele>1043.0</ele><time>2026-04-27T12:52:18.999Z</time></trkpt><trkpt lat="42.13310171779796" lon="13.311181579940113"><ele>1044.0</ele><time>2026-04-27T12:52:19.999Z</time></trkpt><trkpt lat="42.13318683476887" lon="13.311155187850318"><ele>1045.0</ele><time>2026-04-27T12:52:20.999Z</time></trkpt><trkpt lat="42.13325762503232" lon="13.311112858438772"><ele>1046.0</ele><time>2026-04-27T12:52:21.999Z</time></trkpt><trkpt lat="42.13326789393865" lon="13.311022859404746"><ele>1047.0</ele><time>2026-04-27T12:52:22.999Z</time></trkpt><trkpt lat="42.13325073991671" lon="13.310913027074056"><ele>1048.0</ele><time>2026-04-27T12:52:23.999Z</time></trkpt><trkpt lat="42.13326452878782" lon="13.310812398124934"><ele>1049.0</ele><time>2026-04-27T12:52:24.999Z</time></trkpt><trkpt lat="42.133310784196865" lon="13.310740088955583"><ele>1047.3333333333335</ele><time>2026-04-27T12:52:25.999Z</time></trkpt><trkpt lat="42.13340394734624" lon="13.31064664565973"><ele>1045.6666666666667</ele><time>2026-04-27T12:52:27.999Z</time></trkpt><trkpt lat="42.13345906792225" lon="13.310585781343535"><ele>1044.0</ele><time>2026-04-27T12:52:28.999Z</time></trkpt><trkpt lat="42.13351423070795" lon="13.31050954613205"><ele>1042.3333333333333</ele><time>2026-04-27T12:52:30.999Z</time></trkpt><trkpt lat="42.133563404317385" lon="13.310449299173525"><ele>1040.6666666666665</ele><time>2026-04-27T12:53:33Z</time></trkpt><trkpt lat="42.133634103214625" lon="13.310372374746697"><ele>1039.0</ele><time>2026-04-27T12:53:38Z</time></trkpt><trkpt lat="42.13367113805367" lon="13.310273325296789"><ele>1039.0</ele><time>2026-04-27T12:53:40Z</time></trkpt><trkpt lat="42.13372033145025" lon="13.310158854885682"><ele>1039.0</ele><time>2026-04-27T12:53:42Z</time></trkpt><trkpt lat="42.13378934808216" lon="13.310058721717375"><ele>1039.0</ele><time>2026-04-27T12:53:44Z</time></trkpt><trkpt lat="42.133916369534994" lon="13.310038978132878"><ele>1039.0</ele><time>2026-04-27T12:53:46Z</time></trkpt><trkpt lat="42.13399041374686" lon="13.310024287771935"><ele>1039.0</ele><time>2026-04-27T12:53:47Z</time></trkpt><trkpt lat="42.13404794600142" lon="13.30994900397074"><ele>1036.0</ele><time>2026-04-27T12:53:49Z</time></trkpt><trkpt lat="42.13410842480627" lon="13.309816978281342"><ele>1033.0</ele><time>2026-04-27T12:53:51Z</time></trkpt><trkpt lat="42.13413421720617" lon="13.30973768721178"><ele>1030.0</ele><time>2026-04-27T12:53:52Z</time></trkpt><trkpt lat="42.13413617197091" lon="13.309621654445152"><ele>1027.0</ele><time>2026-04-27T12:53:54Z</time></trkpt><trkpt lat="42.134131752403455" lon="13.309494286171427"><ele>1023.9999999999999</ele><time>2026-04-27T12:53:55.999Z</time></trkpt><trkpt lat="42.1341868131766" lon="13.309413183878728"><ele>1021.0</ele><time>2026-04-27T12:53:56.999Z</time></trkpt><trkpt lat="42.13423906598298" lon="13.309319481960031"><ele>1020.1999999999999</ele><time>2026-04-27T12:53:57.999Z</time></trkpt><trkpt lat="42.13428034687727" lon="13.309249593434824"><ele>1019.3999999999999</ele><time>2026-04-27T12:53:58.999Z</time></trkpt><trkpt lat="42.13430779390706" lon="13.309170739356636"><ele>1018.6</ele><time>2026-04-27T12:53:59.999Z</time></trkpt><trkpt lat="42.13434838264081" lon="13.309085633779667"><ele>1017.8</ele><time>2026-04-27T12:54:00.999Z</time></trkpt><trkpt lat="42.13443999859575" lon="13.308987205289844"><ele>1017.0</ele><time>2026-04-27T12:54:02.999Z</time></trkpt><trkpt lat="42.13454499708155" lon="13.308880913846641"><ele>1017.0</ele><time>2026-04-27T12:54:04.999Z</time></trkpt><trkpt lat="42.134605486429884" lon="13.308819141772148"><ele>1017.0</ele><time>2026-04-27T12:54:05.999Z</time></trkpt><trkpt lat="42.13466617427427" lon="13.308754524091313"><ele>1017.0</ele><time>2026-04-27T12:54:06.999Z</time></trkpt><trkpt lat="42.134738851371054" lon="13.308651351421306"><ele>1017.0</ele><time>2026-04-27T12:54:08.999Z</time></trkpt><trkpt lat="42.13470126989588" lon="13.308534412250728"><ele>1017.0</ele><time>2026-04-27T12:54:10.999Z</time></trkpt><trkpt lat="42.1346971298594" lon="13.308381982990177"><ele>1017.0</ele><time>2026-04-27T12:54:12.999Z</time></trkpt><trkpt lat="42.13472856874967" lon="13.308217061272726"><ele>1017.0</ele><time>2026-04-27T12:54:14.999Z</time></trkpt><trkpt lat="42.134721052964125" lon="13.308108599970653"><ele>1017.0</ele><time>2026-04-27T12:54:15.999Z</time></trkpt><trkpt lat="42.13472213670159" lon="13.308000464875951"><ele>1017.0</ele><time>2026-04-27T12:54:16.999Z</time></trkpt><trkpt lat="42.13473647945241" lon="13.307887583193999"><ele>1017.0</ele><time>2026-04-27T12:54:17.999Z</time></trkpt><trkpt lat="42.13475625743768" lon="13.307793806132105"><ele>1017.0</ele><time>2026-04-27T12:54:18.999Z</time></trkpt><trkpt lat="42.13478856530864" lon="13.307719143487692"><ele>1015.3333333333334</ele><time>2026-04-27T12:54:19.999Z</time></trkpt><trkpt lat="42.13483489384467" lon="13.30765919772942"><ele>1013.6666666666667</ele><time>2026-04-27T12:54:20.999Z</time></trkpt><trkpt lat="42.134874455478744" lon="13.3075865076207"><ele>1012.0</ele><time>2026-04-27T12:54:21.999Z</time></trkpt><trkpt lat="42.134873856298846" lon="13.307496730497785"><ele>1010.3333333333334</ele><time>2026-04-27T12:54:22.999Z</time></trkpt><trkpt lat="42.13483348953066" lon="13.307403386591947"><ele>1008.6666666666667</ele><time>2026-04-27T12:54:23.999Z</time></trkpt><trkpt lat="42.134761964313036" lon="13.307319835576719"><ele>1007.0</ele><time>2026-04-27T12:54:24.999Z</time></trkpt><trkpt lat="42.13470526471281" lon="13.307227226119807"><ele>1004.5000000000001</ele><time>2026-04-27T12:54:25.999Z</time></trkpt><trkpt lat="42.13465596420731" lon="13.307123997440854"><ele>1002.0</ele><time>2026-04-27T12:54:26.999Z</time></trkpt><trkpt lat="42.13460389888063" lon="13.307031861534776"><ele>999.5</ele><time>2026-04-27T12:54:27.999Z</time></trkpt><trkpt lat="42.13456522678392" lon="13.306945716991551"><ele>997.0</ele><time>2026-04-27T12:54:28.999Z</time></trkpt><trkpt lat="42.134542264342315" lon="13.306846357302158"><ele>994.5000000000001</ele><time>2026-04-27T12:54:29.999Z</time></trkpt><trkpt lat="42.13453533900436" lon="13.306725156000757"><ele>992.0</ele><time>2026-04-27T12:54:30.999Z</time></trkpt><trkpt lat="42.13453328168572" lon="13.306608561163328"><ele>992.0000000000001</ele><time>2026-04-27T12:54:31.999Z</time></trkpt><trkpt lat="42.134526167538226" lon="13.306505470525078"><ele>992.0</ele><time>2026-04-27T12:54:32.999Z</time></trkpt><trkpt lat="42.13452423604001" lon="13.306388407534724"><ele>992.0</ele><time>2026-04-27T12:54:33.999Z</time></trkpt><trkpt lat="42.13454186571563" lon="13.306271678819435"><ele>992.0</ele><time>2026-04-27T12:54:34.999Z</time></trkpt><trkpt lat="42.134537708708045" lon="13.306173567887594"><ele>992.0000000000001</ele><time>2026-04-27T12:54:35.999Z</time></trkpt><trkpt lat="42.134494231571736" lon="13.306092618213105"><ele>992.0</ele><time>2026-04-27T12:54:37.999Z</time></trkpt><trkpt lat="42.13442034494583" lon="13.306028299695987"><ele>989.8333333333334</ele><time>2026-04-27T12:54:39.999Z</time></trkpt><trkpt lat="42.134396443162395" lon="13.305945403259603"><ele>987.6666666666667</ele><time>2026-04-27T12:54:40.999Z</time></trkpt><trkpt lat="42.13439372893647" lon="13.305840812181321"><ele>985.5</ele><time>2026-04-27T12:54:41.999Z</time></trkpt><trkpt lat="42.13439728502636" lon="13.305738389697481"><ele>983.3333333333333</ele><time>2026-04-27T12:54:42.999Z</time></trkpt><trkpt lat="42.13438674815811" lon="13.30562974074177"><ele>981.1666666666666</ele><time>2026-04-27T12:54:43.999Z</time></trkpt><trkpt lat="42.13437188708623" lon="13.305500861542878"><ele>979.0</ele><time>2026-04-27T12:54:44.999Z</time></trkpt><trkpt lat="42.13435509111778" lon="13.305350989989854"><ele>977.4999999999999</ele><time>2026-04-27T12:54:45.999Z</time></trkpt><trkpt lat="42.13434012641735" lon="13.305206907388365"><ele>976.0</ele><time>2026-04-27T12:54:46.999Z</time></trkpt><trkpt lat="42.134320734265685" lon="13.30507258222396"><ele>974.5</ele><time>2026-04-27T12:54:47.999Z</time></trkpt><trkpt lat="42.1342938586494" lon="13.304962195930997"><ele>973.0</ele><time>2026-04-27T12:54:48.999Z</time></trkpt><trkpt lat="42.134264837788514" lon="13.304865344818769"><ele>971.4999999999999</ele><time>2026-04-27T12:54:49.999Z</time></trkpt><trkpt lat="42.1342437140823" lon="13.304777179305773"><ele>970.0</ele><time>2026-04-27T12:54:50.999Z</time></trkpt><trkpt lat="42.13423881726578" lon="13.304598801022514"><ele>968.4</ele><time>2026-04-27T12:54:52.999Z</time></trkpt><trkpt lat="42.13424468934484" lon="13.304473825249211"><ele>966.8</ele><time>2026-04-27T12:54:53.999Z</time></trkpt><trkpt lat="42.13423728484184" lon="13.30434713479774"><ele>965.2</ele><time>2026-04-27T12:54:54.999Z</time></trkpt><trkpt lat="42.13422279066113" lon="13.304215812101013"><ele>963.6</ele><time>2026-04-27T12:54:55.999Z</time></trkpt><trkpt lat="42.13420283126959" lon="13.304084743989439"><ele>962.0</ele><time>2026-04-27T12:54:56.999Z</time></trkpt><trkpt lat="42.13418165271592" lon="13.30394925610925"><ele>961.6</ele><time>2026-04-27T12:54:57.999Z</time></trkpt><trkpt lat="42.13415935150014" lon="13.3038057588073"><ele>961.2</ele><time>2026-04-27T12:54:58.998Z</time></trkpt><trkpt lat="42.13413689007763" lon="13.303662849670125"><ele>960.8</ele><time>2026-04-27T12:54:59.998Z</time></trkpt><trkpt lat="42.13412872047046" lon="13.303531888088926"><ele>960.4</ele><time>2026-04-27T12:55:00.998Z</time></trkpt><trkpt lat="42.134147646333616" lon="13.30340869796924"><ele>960.0</ele><time>2026-04-27T12:55:01.998Z</time></trkpt><trkpt lat="42.13420344294516" lon="13.303292142967557"><ele>960.0</ele><time>2026-04-27T12:55:02.998Z</time></trkpt><trkpt lat="42.134258181118035" lon="13.30318088958649"><ele>960.0</ele><time>2026-04-27T12:55:03.998Z</time></trkpt><trkpt lat="42.134308674549665" lon="13.303065900104004"><ele>960.0</ele><time>2026-04-27T12:55:04.998Z</time></trkpt><trkpt lat="42.13436331269539" lon="13.302937916086831"><ele>960.0</ele><time>2026-04-27T12:55:05.998Z</time></trkpt><trkpt lat="42.13441795235686" lon="13.302808070365193"><ele>960.0</ele><time>2026-04-27T12:55:06.998Z</time></trkpt><trkpt lat="42.134464098776014" lon="13.302675506942721"><ele>961.0</ele><time>2026-04-27T12:55:07.998Z</time></trkpt><trkpt lat="42.13451558369926" lon="13.30253555856978"><ele>962.0</ele><time>2026-04-27T12:55:08.998Z</time></trkpt><trkpt lat="42.13455904087911" lon="13.302410440019107"><ele>963.0</ele><time>2026-04-27T12:55:09.998Z</time></trkpt><trkpt lat="42.134582640440264" lon="13.302309809710101"><ele>964.0</ele><time>2026-04-27T12:55:10.998Z</time></trkpt><trkpt lat="42.13454502048724" lon="13.302176062338857"><ele>965.0</ele><time>2026-04-27T12:55:12.998Z</time></trkpt><trkpt lat="42.13457968950894" lon="13.302103290842473"><ele>966.2</ele><time>2026-04-27T12:55:14.998Z</time></trkpt><trkpt lat="42.13470290193506" lon="13.301972720351133"><ele>967.4</ele><time>2026-04-27T12:55:16.998Z</time></trkpt><trkpt lat="42.13473872741025" lon="13.301889844972921"><ele>968.5999999999999</ele><time>2026-04-27T12:55:17.998Z</time></trkpt><trkpt lat="42.13475442316482" lon="13.301776892978006"><ele>969.8</ele><time>2026-04-27T12:55:18.998Z</time></trkpt><trkpt lat="42.134783712083006" lon="13.301670076627005"><ele>971.0</ele><time>2026-04-27T12:55:19.998Z</time></trkpt><trkpt lat="42.13483888214655" lon="13.301584776331742"><ele>966.8</ele><time>2026-04-27T12:55:20.998Z</time></trkpt><trkpt lat="42.13490936500635" lon="13.301504194732098"><ele>962.5999999999999</ele><time>2026-04-27T12:55:21.998Z</time></trkpt><trkpt lat="42.13499081282232" lon="13.30143197140021"><ele>958.4</ele><time>2026-04-27T12:55:22.998Z</time></trkpt><trkpt lat="42.13506602688136" lon="13.30135605215472"><ele>954.2</ele><time>2026-04-27T12:55:23.998Z</time></trkpt><trkpt lat="42.1351415534974" lon="13.301266255897572"><ele>950.0</ele><time>2026-04-27T12:55:24.998Z</time></trkpt><trkpt lat="42.13520452892993" lon="13.301162618132745"><ele>949.1666666666667</ele><time>2026-04-27T12:55:25.998Z</time></trkpt><trkpt lat="42.13527248680479" lon="13.301065019016564"><ele>948.3333333333334</ele><time>2026-04-27T12:55:26.998Z</time></trkpt><trkpt lat="42.13533558816318" lon="13.30099019122084"><ele>947.5</ele><time>2026-04-27T12:55:28Z</time></trkpt><trkpt lat="42.13539441811539" lon="13.300932670896655"><ele>946.6666666666667</ele><time>2026-04-27T12:55:29Z</time></trkpt><trkpt lat="42.13547215276524" lon="13.300882087759682"><ele>945.8333333333334</ele><time>2026-04-27T12:55:30Z</time></trkpt><trkpt lat="42.1355578908065" lon="13.300858612273236"><ele>945.0</ele><time>2026-04-27T12:55:31Z</time></trkpt><trkpt lat="42.135630619771895" lon="13.300827868673318"><ele>945.0</ele><time>2026-04-27T12:55:32Z</time></trkpt><trkpt lat="42.135692690692274" lon="13.300691071549226"><ele>945.0</ele><time>2026-04-27T12:55:34Z</time></trkpt><trkpt lat="42.135750141849044" lon="13.30064991362413"><ele>945.0</ele><time>2026-04-27T12:55:35Z</time></trkpt><trkpt lat="42.1358244319427" lon="13.300652083269949"><ele>945.0</ele><time>2026-04-27T12:55:36Z</time></trkpt><trkpt lat="42.135899608313395" lon="13.300669160924304"><ele>945.0</ele><time>2026-04-27T12:55:37Z</time></trkpt><trkpt lat="42.135975932508416" lon="13.300671408372278"><ele>945.0</ele><time>2026-04-27T12:55:38Z</time></trkpt><trkpt lat="42.13606153143041" lon="13.300646267146842"><ele>944.8333333333334</ele><time>2026-04-27T12:55:39Z</time></trkpt><trkpt lat="42.13615155649529" lon="13.30060113185597"><ele>944.6666666666667</ele><time>2026-04-27T12:55:40Z</time></trkpt><trkpt lat="42.13623843373535" lon="13.300531173748245"><ele>944.5</ele><time>2026-04-27T12:55:41Z</time></trkpt><trkpt lat="42.13629996934169" lon="13.300462866334719"><ele>944.3333333333334</ele><time>2026-04-27T12:55:42Z</time></trkpt><trkpt lat="42.13634155476799" lon="13.300393813834294"><ele>944.1666666666667</ele><time>2026-04-27T12:55:43Z</time></trkpt><trkpt lat="42.13638499320001" lon="13.300303897516935"><ele>944.0</ele><time>2026-04-27T12:55:44Z</time></trkpt><trkpt lat="42.136419643244224" lon="13.300217607629301"><ele>943.5000000000001</ele><time>2026-04-27T12:55:45Z</time></trkpt><trkpt lat="42.13646201030764" lon="13.300136712149092"><ele>943.0</ele><time>2026-04-27T12:55:46Z</time></trkpt><trkpt lat="42.1365082676456" lon="13.300060829110043"><ele>942.5</ele><time>2026-04-27T12:55:47Z</time></trkpt><trkpt lat="42.13656745359048" lon="13.299972829733104"><ele>942.0</ele><time>2026-04-27T12:55:48Z</time></trkpt><trkpt lat="42.13662887561066" lon="13.299870550755994"><ele>941.5000000000001</ele><time>2026-04-27T12:55:49Z</time></trkpt><trkpt lat="42.1366887906892" lon="13.299757312408024"><ele>941.0</ele><time>2026-04-27T12:55:50Z</time></trkpt><trkpt lat="42.136740465140186" lon="13.299626700342294"><ele>939.1999999999999</ele><time>2026-04-27T12:55:51Z</time></trkpt><trkpt lat="42.136778532498006" lon="13.299489211425882"><ele>937.3999999999999</ele><time>2026-04-27T12:55:52Z</time></trkpt><trkpt lat="42.13678557666404" lon="13.299353505989496"><ele>935.6</ele><time>2026-04-27T12:55:53Z</time></trkpt><trkpt lat="42.136794506758065" lon="13.299217688594416"><ele>933.8</ele><time>2026-04-27T12:55:54Z</time></trkpt><trkpt lat="42.13681378923218" lon="13.299064483880032"><ele>932.0</ele><time>2026-04-27T12:55:55Z</time></trkpt><trkpt lat="42.136841606157425" lon="13.298912279811509"><ele>931.0</ele><time>2026-04-27T12:55:56Z</time></trkpt><trkpt lat="42.13687942674182" lon="13.298759230014488"><ele>930.0</ele><time>2026-04-27T12:55:57Z</time></trkpt><trkpt lat="42.13691621689331" lon="13.298598266847382"><ele>929.0</ele><time>2026-04-27T12:55:58Z</time></trkpt><trkpt lat="42.13695458736197" lon="13.298431653714513"><ele>928.0</ele><time>2026-04-27T12:55:59Z</time></trkpt><trkpt lat="42.136984668654634" lon="13.298307051077638"><ele>928.0</ele><time>2026-04-27T12:55:59.999Z</time></trkpt><trkpt lat="42.1369948358621" lon="13.29820802671044"><ele>928.0</ele><time>2026-04-27T12:56:00.999Z</time></trkpt><trkpt lat="42.136948776674714" lon="13.298118076586949"><ele>928.0</ele><time>2026-04-27T12:56:02.999Z</time></trkpt><trkpt lat="42.136873347182394" lon="13.298144768779776"><ele>928.0</ele><time>2026-04-27T12:56:04.999Z</time></trkpt><trkpt lat="42.136703757967375" lon="13.298136983100392"><ele>928.0</ele><time>2026-04-27T12:56:07.999Z</time></trkpt><trkpt lat="42.136624517964215" lon="13.29811050143809"><ele>928.8</ele><time>2026-04-27T12:56:08.999Z</time></trkpt><trkpt lat="42.136538039933605" lon="13.297994564687611"><ele>929.5999999999999</ele><time>2026-04-27T12:56:10.999Z</time></trkpt><trkpt lat="42.136495497076424" lon="13.2979171490696"><ele>930.4000000000001</ele><time>2026-04-27T12:56:11.999Z</time></trkpt><trkpt lat="42.13652519081171" lon="13.297745447139814"><ele>931.2</ele><time>2026-04-27T12:56:13.999Z</time></trkpt><trkpt lat="42.13657108338417" lon="13.297659564832465"><ele>932.0</ele><time>2026-04-27T12:56:14.999Z</time></trkpt><trkpt lat="42.13662694386389" lon="13.2975509072082"><ele>932.0</ele><time>2026-04-27T12:56:15.999Z</time></trkpt><trkpt lat="42.13666995009114" lon="13.29745744177807"><ele>932.0</ele><time>2026-04-27T12:56:16.999Z</time></trkpt><trkpt lat="42.136692437023214" lon="13.297355322877854"><ele>932.0</ele><time>2026-04-27T12:56:17.999Z</time></trkpt><trkpt lat="42.13667718631175" lon="13.297232522843066"><ele>932.0</ele><time>2026-04-27T12:56:18.999Z</time></trkpt><trkpt lat="42.136675622043825" lon="13.297078524406869"><ele>932.0</ele><time>2026-04-27T12:56:19.999Z</time></trkpt><trkpt lat="42.13668466208718" lon="13.296883019710823"><ele>931.0</ele><time>2026-04-27T12:56:20.999Z</time></trkpt><trkpt lat="42.136699544454416" lon="13.296707030892465"><ele>930.0</ele><time>2026-04-27T12:56:21.999Z</time></trkpt><trkpt lat="42.1367171152222" lon="13.296541464626992"><ele>929.0</ele><time>2026-04-27T12:56:22.999Z</time></trkpt><trkpt lat="42.13671858276691" lon="13.296377572808415"><ele>928.0</ele><time>2026-04-27T12:56:23.999Z</time></trkpt><trkpt lat="42.13669185318662" lon="13.29621978271899"><ele>926.75</ele><time>2026-04-27T12:56:24.999Z</time></trkpt><trkpt lat="42.13667233528185" lon="13.296048001134515"><ele>925.5</ele><time>2026-04-27T12:56:25.999Z</time></trkpt><trkpt lat="42.136659093591184" lon="13.295871707379272"><ele>924.25</ele><time>2026-04-27T12:56:26.999Z</time></trkpt><trkpt lat="42.13665066102538" lon="13.295709922733627"><ele>923.0</ele><time>2026-04-27T12:56:27.999Z</time></trkpt><trkpt lat="42.13664566448905" lon="13.295556508042882"><ele>921.75</ele><time>2026-04-27T12:56:28.999Z</time></trkpt><trkpt lat="42.13666974998518" lon="13.295426468297997"><ele>920.5</ele><time>2026-04-27T12:56:29.999Z</time></trkpt><trkpt lat="42.1366733837855" lon="13.295283640675628"><ele>919.25</ele><time>2026-04-27T12:56:30.999Z</time></trkpt><trkpt lat="42.13666213521892" lon="13.295121548966113"><ele>918.0</ele><time>2026-04-27T12:56:31.999Z</time></trkpt><trkpt lat="42.1366272719852" lon="13.29494751174476"><ele>918.0</ele><time>2026-04-27T12:56:32.999Z</time></trkpt><trkpt lat="42.136589639732584" lon="13.294774178392602"><ele>918.0</ele><time>2026-04-27T12:56:33.999Z</time></trkpt><trkpt lat="42.13656000417893" lon="13.29461527194323"><ele>918.0</ele><time>2026-04-27T12:56:34.999Z</time></trkpt><trkpt lat="42.13653464361966" lon="13.294468104368036"><ele>918.0</ele><time>2026-04-27T12:56:35.999Z</time></trkpt><trkpt lat="42.13651133458129" lon="13.294315742665704"><ele>916.2</ele><time>2026-04-27T12:56:36.999Z</time></trkpt><trkpt lat="42.136487808590246" lon="13.29417760620666"><ele>914.4</ele><time>2026-04-27T12:56:37.999Z</time></trkpt><trkpt lat="42.136479047881245" lon="13.294053447917193"><ele>912.6000000000001</ele><time>2026-04-27T12:56:38.999Z</time></trkpt><trkpt lat="42.13649484524589" lon="13.2939403237825"><ele>910.8000000000001</ele><time>2026-04-27T12:56:39.999Z</time></trkpt><trkpt lat="42.136491497245835" lon="13.293790861195278"><ele>909.0</ele><time>2026-04-27T12:56:41.999Z</time></trkpt><trkpt lat="42.13644047283841" lon="13.293733117199988"><ele>909.0</ele><time>2026-04-27T12:56:42.999Z</time></trkpt><trkpt lat="42.13637775694165" lon="13.293676701026252"><ele>909.0</ele><time>2026-04-27T12:56:43.999Z</time></trkpt><trkpt lat="42.13633438009645" lon="13.293580533062565"><ele>909.0</ele><time>2026-04-27T12:56:44.999Z</time></trkpt><trkpt lat="42.13631896861196" lon="13.29346858818341"><ele>909.0</ele><time>2026-04-27T12:56:45.999Z</time></trkpt><trkpt lat="42.136317594742394" lon="13.293346672988086"><ele>909.0</ele><time>2026-04-27T12:56:46.999Z</time></trkpt><trkpt lat="42.1363087740356" lon="13.293225013632673"><ele>909.0</ele><time>2026-04-27T12:56:47.999Z</time></trkpt><trkpt lat="42.13627476106799" lon="13.293102275443381"><ele>908.6</ele><time>2026-04-27T12:56:48.999Z</time></trkpt><trkpt lat="42.13622887104594" lon="13.292968542241377"><ele>908.2</ele><time>2026-04-27T12:56:49.999Z</time></trkpt><trkpt lat="42.136200078497914" lon="13.292839991146206"><ele>907.8000000000001</ele><time>2026-04-27T12:56:50.999Z</time></trkpt><trkpt lat="42.136192598731064" lon="13.292718509358169"><ele>907.4000000000001</ele><time>2026-04-27T12:56:51.999Z</time></trkpt><trkpt lat="42.13620143445038" lon="13.292589779690381"><ele>907.0</ele><time>2026-04-27T12:56:52.999Z</time></trkpt><trkpt lat="42.13621573536816" lon="13.292449447888352"><ele>907.0</ele><time>2026-04-27T12:56:53.999Z</time></trkpt><trkpt lat="42.136229640861806" lon="13.292299182022738"><ele>907.0</ele><time>2026-04-27T12:56:54.999Z</time></trkpt><trkpt lat="42.13624660401247" lon="13.292138352824606"><ele>907.0</ele><time>2026-04-27T12:56:55.999Z</time></trkpt><trkpt lat="42.136267976390585" lon="13.2919844111199"><ele>907.0</ele><time>2026-04-27T12:56:56.999Z</time></trkpt><trkpt lat="42.136282545698315" lon="13.291832364989911"><ele>905.4999999999999</ele><time>2026-04-27T12:56:57.999Z</time></trkpt><trkpt lat="42.1362865802523" lon="13.291687251304102"><ele>904.0</ele><time>2026-04-27T12:56:58.999Z</time></trkpt><trkpt lat="42.136286112201844" lon="13.29157460357654"><ele>902.5</ele><time>2026-04-27T12:56:59.999Z</time></trkpt><trkpt lat="42.13631907072525" lon="13.291458251725816"><ele>901.0</ele><time>2026-04-27T12:57:01.999Z</time></trkpt><trkpt lat="42.13636410702538" lon="13.291389807540252"><ele>899.4999999999999</ele><time>2026-04-27T12:57:02.998Z</time></trkpt><trkpt lat="42.136422187476455" lon="13.291331397208914"><ele>898.0</ele><time>2026-04-27T12:57:03.998Z</time></trkpt><trkpt lat="42.136470699596615" lon="13.291235925923989"><ele>896.9999999999999</ele><time>2026-04-27T12:57:04.998Z</time></trkpt><trkpt lat="42.13648633156217" lon="13.29111971667154"><ele>896.0</ele><time>2026-04-27T12:57:05.998Z</time></trkpt><trkpt lat="42.13650282645389" lon="13.290993553247185"><ele>895.0</ele><time>2026-04-27T12:57:06.998Z</time></trkpt><trkpt lat="42.136529981533535" lon="13.2908874196479"><ele>894.0</ele><time>2026-04-27T12:57:07.998Z</time></trkpt><trkpt lat="42.13657233243087" lon="13.290804689804943"><ele>892.9999999999999</ele><time>2026-04-27T12:57:08.998Z</time></trkpt><trkpt lat="42.136664033046635" lon="13.2907400744035"><ele>892.0</ele><time>2026-04-27T12:57:10.998Z</time></trkpt><trkpt lat="42.13681193134463" lon="13.290729671994146"><ele>891.9999999999999</ele><time>2026-04-27T12:57:12.998Z</time></trkpt><trkpt lat="42.136913260511946" lon="13.290733891746441"><ele>892.0</ele><time>2026-04-27T12:57:13.998Z</time></trkpt><trkpt lat="42.1370240485955" lon="13.290732725266874"><ele>892.0</ele><time>2026-04-27T12:57:14.998Z</time></trkpt><trkpt lat="42.13712022028521" lon="13.290723557818257"><ele>892.0</ele><time>2026-04-27T12:57:15.998Z</time></trkpt><trkpt lat="42.137183022304924" lon="13.290698756414127"><ele>891.9999999999999</ele><time>2026-04-27T12:57:16.998Z</time></trkpt><trkpt lat="42.13721483018698" lon="13.290615124701633"><ele>892.0</ele><time>2026-04-27T12:57:18.998Z</time></trkpt><trkpt lat="42.137150260826814" lon="13.290505828434627"><ele>889.4999999999999</ele><time>2026-04-27T12:57:20.998Z</time></trkpt><trkpt lat="42.137085360490644" lon="13.29047476533371"><ele>887.0</ele><time>2026-04-27T12:57:21.998Z</time></trkpt><trkpt lat="42.13700601830384" lon="13.290443473940709"><ele>884.5</ele><time>2026-04-27T12:57:22.998Z</time></trkpt><trkpt lat="42.13692804285348" lon="13.290417723016827"><ele>882.0</ele><time>2026-04-27T12:57:23.998Z</time></trkpt><trkpt lat="42.13685851955941" lon="13.29038836188141"><ele>879.4999999999999</ele><time>2026-04-27T12:57:24.998Z</time></trkpt><trkpt lat="42.13681630531137" lon="13.2902615133205"><ele>877.0</ele><time>2026-04-27T12:57:26.998Z</time></trkpt><trkpt lat="42.136851728197236" lon="13.290183219854711"><ele>877.0</ele><time>2026-04-27T12:57:27.998Z</time></trkpt><trkpt lat="42.136917081168896" lon="13.290099737915398"><ele>877.0</ele><time>2026-04-27T12:57:28.998Z</time></trkpt><trkpt lat="42.13700804115518" lon="13.290010224849539"><ele>877.0</ele><time>2026-04-27T12:57:29.998Z</time></trkpt><trkpt lat="42.13707780000419" lon="13.289917564330027"><ele>877.0</ele><time>2026-04-27T12:57:30.998Z</time></trkpt><trkpt lat="42.13713204140307" lon="13.289813028874613"><ele>877.0</ele><time>2026-04-27T12:57:31.998Z</time></trkpt><trkpt lat="42.1371561362374" lon="13.289702694076832"><ele>874.2</ele><time>2026-04-27T12:57:32.998Z</time></trkpt><trkpt lat="42.137174135724706" lon="13.289596540352946"><ele>871.4000000000001</ele><time>2026-04-27T12:57:34Z</time></trkpt><trkpt lat="42.13717876262931" lon="13.28949259801796"><ele>868.5999999999999</ele><time>2026-04-27T12:57:35Z</time></trkpt><trkpt lat="42.13713149656606" lon="13.289351518784589"><ele>865.8</ele><time>2026-04-27T12:57:37Z</time></trkpt><trkpt lat="42.13705532665059" lon="13.289223591283564"><ele>863.0</ele><time>2026-04-27T12:57:39Z</time></trkpt><trkpt lat="42.137081052367336" lon="13.289073950630055"><ele>863.0</ele><time>2026-04-27T12:57:41Z</time></trkpt><trkpt lat="42.137168881537654" lon="13.289006787864812"><ele>863.0</ele><time>2026-04-27T12:57:43Z</time></trkpt><trkpt lat="42.13722621253781" lon="13.288898768054246"><ele>863.0</ele><time>2026-04-27T12:57:45Z</time></trkpt><trkpt lat="42.13720675063063" lon="13.288801596366795"><ele>863.0</ele><time>2026-04-27T12:57:46Z</time></trkpt><trkpt lat="42.137157347716176" lon="13.288702731550872"><ele>863.0</ele><time>2026-04-27T12:57:47Z</time></trkpt><trkpt lat="42.137102062761095" lon="13.288610145919893"><ele>861.4</ele><time>2026-04-27T12:57:48Z</time></trkpt><trkpt lat="42.1370613277042" lon="13.288480969923636"><ele>859.8</ele><time>2026-04-27T12:57:49Z</time></trkpt><trkpt lat="42.137038503625064" lon="13.288351819725333"><ele>858.2</ele><time>2026-04-27T12:57:50Z</time></trkpt><trkpt lat="42.137021541751" lon="13.288234498825249"><ele>856.6</ele><time>2026-04-27T12:57:51Z</time></trkpt><trkpt lat="42.1370229862189" lon="13.28813446723967"><ele>855.0</ele><time>2026-04-27T12:57:52Z</time></trkpt><trkpt lat="42.137069069494316" lon="13.288004415355637"><ele>855.0</ele><time>2026-04-27T12:57:54Z</time></trkpt><trkpt lat="42.13713827439015" lon="13.287992643044094"><ele>855.0</ele><time>2026-04-27T12:57:56Z</time></trkpt><trkpt lat="42.13718699053721" lon="13.288114693077132"><ele>855.0</ele><time>2026-04-27T12:57:58Z</time></trkpt><trkpt lat="42.13722310771968" lon="13.288208691748386"><ele>855.0</ele><time>2026-04-27T12:57:59Z</time></trkpt><trkpt lat="42.13738941436406" lon="13.288317897336604"><ele>855.0</ele><time>2026-04-27T12:58:01Z</time></trkpt><trkpt lat="42.13747842626967" lon="13.288392229190631"><ele>855.3333333333334</ele><time>2026-04-27T12:58:01.999Z</time></trkpt><trkpt lat="42.13755524683222" lon="13.288447974302462"><ele>855.6666666666667</ele><time>2026-04-27T12:58:02.999Z</time></trkpt><trkpt lat="42.13762866009041" lon="13.288512334785235"><ele>856.0</ele><time>2026-04-27T12:58:03.999Z</time></trkpt><trkpt lat="42.13769394075121" lon="13.288584021658995"><ele>856.3333333333334</ele><time>2026-04-27T12:58:04.999Z</time></trkpt><trkpt lat="42.137759047674464" lon="13.288624109013815"><ele>856.6666666666667</ele><time>2026-04-27T12:58:05.999Z</time></trkpt><trkpt lat="42.137829894668165" lon="13.288584972627076"><ele>857.0</ele><time>2026-04-27T12:58:06.999Z</time></trkpt><trkpt lat="42.13788139017885" lon="13.288497978336776"><ele>857.0</ele><time>2026-04-27T12:58:07.999Z</time></trkpt><trkpt lat="42.13791707829007" lon="13.288382438626986"><ele>857.0</ele><time>2026-04-27T12:58:08.999Z</time></trkpt><trkpt lat="42.13790025310798" lon="13.288250475797817"><ele>857.0</ele><time>2026-04-27T12:58:09.999Z</time></trkpt><trkpt lat="42.13786137057924" lon="13.288119260175813"><ele>857.0</ele><time>2026-04-27T12:58:10.999Z</time></trkpt><trkpt lat="42.137822435834956" lon="13.288000219218358"><ele>857.0</ele><time>2026-04-27T12:58:11.999Z</time></trkpt><trkpt lat="42.13778441093651" lon="13.287867342101906"><ele>855.0</ele><time>2026-04-27T12:58:12.999Z</time></trkpt><trkpt lat="42.13773604199045" lon="13.287713817649573"><ele>853.0</ele><time>2026-04-27T12:58:13.999Z</time></trkpt><trkpt lat="42.137693691977596" lon="13.287551880208088"><ele>851.0</ele><time>2026-04-27T12:58:14.999Z</time></trkpt><trkpt lat="42.13767481039091" lon="13.28739836306042"><ele>849.0</ele><time>2026-04-27T12:58:15.999Z</time></trkpt><trkpt lat="42.13767385241813" lon="13.287244121654355"><ele>847.4000000000001</ele><time>2026-04-27T12:58:16.999Z</time></trkpt><trkpt lat="42.13768016678524" lon="13.287096156110229"><ele>845.8</ele><time>2026-04-27T12:58:17.999Z</time></trkpt><trkpt lat="42.13768333571554" lon="13.286956943562751"><ele>844.2</ele><time>2026-04-27T12:58:18.999Z</time></trkpt><trkpt lat="42.137683708582635" lon="13.286840680781669"><ele>842.5999999999999</ele><time>2026-04-27T12:58:19.999Z</time></trkpt><trkpt lat="42.137678780414596" lon="13.286727230282187"><ele>841.0</ele><time>2026-04-27T12:58:20.999Z</time></trkpt><trkpt lat="42.13766289959684" lon="13.286601302561795"><ele>841.0</ele><time>2026-04-27T12:58:21.999Z</time></trkpt><trkpt lat="42.13765828400094" lon="13.286462482579893"><ele>841.0</ele><time>2026-04-27T12:58:22.999Z</time></trkpt><trkpt lat="42.13765259585066" lon="13.286315886489188"><ele>841.0</ele><time>2026-04-27T12:58:23.999Z</time></trkpt><trkpt lat="42.1376425144829" lon="13.286179548996692"><ele>841.0</ele><time>2026-04-27T12:58:24.999Z</time></trkpt><trkpt lat="42.13762137223476" lon="13.286062269097334"><ele>841.0</ele><time>2026-04-27T12:58:25.999Z</time></trkpt><trkpt lat="42.13759341486766" lon="13.285960218341256"><ele>840.5999999999999</ele><time>2026-04-27T12:58:26.999Z</time></trkpt><trkpt lat="42.137580051544795" lon="13.285810228129249"><ele>840.2</ele><time>2026-04-27T12:58:28.999Z</time></trkpt><trkpt lat="42.137655634507745" lon="13.285733857594895"><ele>839.8</ele><time>2026-04-27T12:58:30.999Z</time></trkpt><trkpt lat="42.13772541205227" lon="13.285727990058042"><ele>839.4000000000001</ele><time>2026-04-27T12:58:31.999Z</time></trkpt><trkpt lat="42.1378274689237" lon="13.285770437675465"><ele>839.0</ele><time>2026-04-27T12:58:32.999Z</time></trkpt><trkpt lat="42.137944776772756" lon="13.285794296224418"><ele>839.0</ele><time>2026-04-27T12:58:33.999Z</time></trkpt><trkpt lat="42.13807007828634" lon="13.285823014406146"><ele>839.0</ele><time>2026-04-27T12:58:34.999Z</time></trkpt><trkpt lat="42.138180345899094" lon="13.285846896350767"><ele>839.0</ele><time>2026-04-27T12:58:35.999Z</time></trkpt><trkpt lat="42.138270672768776" lon="13.285887172366621"><ele>839.0</ele><time>2026-04-27T12:58:36.999Z</time></trkpt><trkpt lat="42.138371433979415" lon="13.285961580812556"><ele>839.0</ele><time>2026-04-27T12:58:38.999Z</time></trkpt><trkpt lat="42.13847887889576" lon="13.285886155660624"><ele>839.1666666666667</ele><time>2026-04-27T12:58:40.999Z</time></trkpt><trkpt lat="42.138555287453805" lon="13.285873846349169"><ele>839.3333333333334</ele><time>2026-04-27T12:58:41.999Z</time></trkpt><trkpt lat="42.13864733922444" lon="13.28588405703755"><ele>839.5</ele><time>2026-04-27T12:58:42.999Z</time></trkpt><trkpt lat="42.138723500532635" lon="13.285880798097097"><ele>839.6666666666667</ele><time>2026-04-27T12:58:43.999Z</time></trkpt><trkpt lat="42.13879409268896" lon="13.285877509475378"><ele>839.8333333333334</ele><time>2026-04-27T12:58:44.999Z</time></trkpt><trkpt lat="42.1388693387744" lon="13.285875126209564"><ele>840.0</ele><time>2026-04-27T12:58:45.999Z</time></trkpt><trkpt lat="42.13894822492281" lon="13.285903616727488"><ele>840.0</ele><time>2026-04-27T12:58:46.999Z</time></trkpt><trkpt lat="42.139023104207126" lon="13.285924952482016"><ele>840.0</ele><time>2026-04-27T12:58:47.999Z</time></trkpt><trkpt lat="42.13911567474032" lon="13.285932807236334"><ele>840.0</ele><time>2026-04-27T12:58:48.999Z</time></trkpt><trkpt lat="42.139213308992176" lon="13.285904311722486"><ele>840.0</ele><time>2026-04-27T12:58:49.999Z</time></trkpt><trkpt lat="42.13932145217338" lon="13.285897284683202"><ele>840.0</ele><time>2026-04-27T12:58:50.999Z</time></trkpt><trkpt lat="42.139443262396156" lon="13.285906516819239"><ele>839.25</ele><time>2026-04-27T12:58:51.999Z</time></trkpt><trkpt lat="42.13957967740772" lon="13.28592310762589"><ele>838.5</ele><time>2026-04-27T12:58:52.999Z</time></trkpt><trkpt lat="42.139718553526514" lon="13.28592155803903"><ele>837.75</ele><time>2026-04-27T12:58:53.999Z</time></trkpt><trkpt lat="42.139845022845826" lon="13.28591530048543"><ele>837.0</ele><time>2026-04-27T12:58:54.999Z</time></trkpt><trkpt lat="42.1399683531904" lon="13.285907933024834"><ele>834.5</ele><time>2026-04-27T12:58:55.999Z</time></trkpt><trkpt lat="42.14009850089792" lon="13.285923858284653"><ele>832.0</ele><time>2026-04-27T12:58:56.999Z</time></trkpt><trkpt lat="42.140227970787734" lon="13.285951127581864"><ele>829.5</ele><time>2026-04-27T12:58:57.999Z</time></trkpt><trkpt lat="42.14035567927147" lon="13.285983273323279"><ele>827.0</ele><time>2026-04-27T12:58:58.999Z</time></trkpt><trkpt lat="42.14047928155839" lon="13.28600592379678"><ele>827.0</ele><time>2026-04-27T12:58:59.999Z</time></trkpt><trkpt lat="42.14060010154056" lon="13.286019405911382"><ele>827.0</ele><time>2026-04-27T12:59:00.999Z</time></trkpt><trkpt lat="42.1407095865347" lon="13.286024735431987"><ele>827.0</ele><time>2026-04-27T12:59:01.999Z</time></trkpt><trkpt lat="42.14082469556262" lon="13.28601716305341"><ele>827.0</ele><time>2026-04-27T12:59:02.999Z</time></trkpt><trkpt lat="42.140890996198905" lon="13.286005872171225"><ele>827.0</ele><time>2026-04-27T12:59:03.998Z</time></trkpt><trkpt lat="42.1410027903627" lon="13.286052972852609"><ele>825.4000000000001</ele><time>2026-04-27T12:59:05.998Z</time></trkpt><trkpt lat="42.141088199319576" lon="13.286106374897717"><ele>823.8000000000001</ele><time>2026-04-27T12:59:06.998Z</time></trkpt><trkpt lat="42.14116671291527" lon="13.286140667954042"><ele>822.2</ele><time>2026-04-27T12:59:07.998Z</time></trkpt><trkpt lat="42.141258903663726" lon="13.286133538894148"><ele>820.6</ele><time>2026-04-27T12:59:08.998Z</time></trkpt><trkpt lat="42.14134818093477" lon="13.286088728373828"><ele>819.0</ele><time>2026-04-27T12:59:09.998Z</time></trkpt><trkpt lat="42.141440316067694" lon="13.286030027415903"><ele>819.0</ele><time>2026-04-27T12:59:10.998Z</time></trkpt><trkpt lat="42.14152407330357" lon="13.28599690264321"><ele>819.0</ele><time>2026-04-27T12:59:11.998Z</time></trkpt><trkpt lat="42.141622700791835" lon="13.285976881903416"><ele>819.0</ele><time>2026-04-27T12:59:12.998Z</time></trkpt><trkpt lat="42.14174366839146" lon="13.285975360258071"><ele>819.0</ele><time>2026-04-27T12:59:13.998Z</time></trkpt><trkpt lat="42.14185283450128" lon="13.285987735574226"><ele>819.0</ele><time>2026-04-27T12:59:14.998Z</time></trkpt><trkpt lat="42.14195452796147" lon="13.285989070756235"><ele>815.6666666666666</ele><time>2026-04-27T12:59:15.998Z</time></trkpt><trkpt lat="42.14206084361348" lon="13.285985930427447"><ele>812.3333333333333</ele><time>2026-04-27T12:59:16.998Z</time></trkpt><trkpt lat="42.142155773911846" lon="13.285994095748093"><ele>809.0</ele><time>2026-04-27T12:59:17.998Z</time></trkpt><trkpt lat="42.1422317540197" lon="13.285997478987108"><ele>805.6666666666666</ele><time>2026-04-27T12:59:18.998Z</time></trkpt><trkpt lat="42.14230057950791" lon="13.285973808440742"><ele>802.3333333333333</ele><time>2026-04-27T12:59:19.998Z</time></trkpt><trkpt lat="42.142366222550386" lon="13.285950727470341"><ele>799.0</ele><time>2026-04-27T12:59:20.998Z</time></trkpt><trkpt lat="42.14248076106899" lon="13.285957265850236"><ele>795.6666666666666</ele><time>2026-04-27T12:59:22.998Z</time></trkpt><trkpt lat="42.1425501512558" lon="13.286055562718861"><ele>792.3333333333333</ele><time>2026-04-27T12:59:24.998Z</time></trkpt><trkpt lat="42.14257081403716" lon="13.286150463980315"><ele>789.0</ele><time>2026-04-27T12:59:25.998Z</time></trkpt><trkpt lat="42.142606644826266" lon="13.286256248282324"><ele>785.6666666666667</ele><time>2026-04-27T12:59:26.998Z</time></trkpt><trkpt lat="42.14267912263618" lon="13.28632115256287"><ele>782.3333333333334</ele><time>2026-04-27T12:59:27.998Z</time></trkpt><trkpt lat="42.14277112365679" lon="13.286379631330416"><ele>779.0</ele><time>2026-04-27T12:59:28.998Z</time></trkpt><trkpt lat="42.14285601139781" lon="13.286420718505628"><ele>782.6</ele><time>2026-04-27T12:59:29.998Z</time></trkpt><trkpt lat="42.142944235317316" lon="13.286458480586772"><ele>786.2</ele><time>2026-04-27T12:59:30.998Z</time></trkpt><trkpt lat="42.143003144115426" lon="13.286527947181627"><ele>789.8000000000001</ele><time>2026-04-27T12:59:31.998Z</time></trkpt><trkpt lat="42.143065522762555" lon="13.286603891510435"><ele>793.4000000000001</ele><time>2026-04-27T12:59:32.998Z</time></trkpt><trkpt lat="42.14312381802495" lon="13.286701677511997"><ele>797.0</ele><time>2026-04-27T12:59:33.998Z</time></trkpt><trkpt lat="42.14318521998114" lon="13.286830428574468"><ele>793.25</ele><time>2026-04-27T12:59:34.998Z</time></trkpt><trkpt lat="42.14323432955363" lon="13.28698142841717"><ele>789.5</ele><time>2026-04-27T12:59:35.998Z</time></trkpt><trkpt lat="42.14327305491358" lon="13.287141760948085"><ele>785.75</ele><time>2026-04-27T12:59:36.998Z</time></trkpt><trkpt lat="42.143304252059174" lon="13.287286625053303"><ele>782.0</ele><time>2026-04-27T12:59:37.998Z</time></trkpt><trkpt lat="42.14330613664231" lon="13.287419829521875"><ele>782.0</ele><time>2026-04-27T12:59:38.998Z</time></trkpt><trkpt lat="42.1432963101706" lon="13.287543744365292"><ele>782.0</ele><time>2026-04-27T12:59:40Z</time></trkpt><trkpt lat="42.14329647425398" lon="13.287639551518076"><ele>782.0</ele><time>2026-04-27T12:59:41Z</time></trkpt><trkpt lat="42.14335735978688" lon="13.287757181311003"><ele>782.0</ele><time>2026-04-27T12:59:43Z</time></trkpt><trkpt lat="42.14345306186502" lon="13.287795579173778"><ele>782.0</ele><time>2026-04-27T12:59:45Z</time></trkpt><trkpt lat="42.14354109811867" lon="13.287847533384777"><ele>782.0</ele><time>2026-04-27T12:59:47Z</time></trkpt><trkpt lat="42.14364995461763" lon="13.287889973981388"><ele>782.0</ele><time>2026-04-27T12:59:49Z</time></trkpt><trkpt lat="42.14374040336777" lon="13.28781223810974"><ele>782.0</ele><time>2026-04-27T12:59:51Z</time></trkpt><trkpt lat="42.143787451071525" lon="13.287731242529388"><ele>782.0</ele><time>2026-04-27T12:59:52Z</time></trkpt><trkpt lat="42.14383227515582" lon="13.28763822809795"><ele>782.0</ele><time>2026-04-27T12:59:53Z</time></trkpt><trkpt lat="42.14388074571868" lon="13.28754888752454"><ele>782.0000000000001</ele><time>2026-04-27T12:59:54Z</time></trkpt><trkpt lat="42.14394673235717" lon="13.287484444568706"><ele>782.0</ele><time>2026-04-27T12:59:55Z</time></trkpt><trkpt lat="42.14402263753562" lon="13.287430755114197"><ele>782.0</ele><time>2026-04-27T12:59:56Z</time></trkpt><trkpt lat="42.144106059067504" lon="13.287404425393587"><ele>782.0</ele><time>2026-04-27T12:59:57Z</time></trkpt><trkpt lat="42.1441947943211" lon="13.28739243800731"><ele>782.0000000000001</ele><time>2026-04-27T12:59:58Z</time></trkpt><trkpt lat="42.14428016307765" lon="13.287397797038011"><ele>782.0</ele><time>2026-04-27T12:59:59Z</time></trkpt><trkpt lat="42.1443675333469" lon="13.287407324516018"><ele>783.2</ele><time>2026-04-27T13:00:00Z</time></trkpt><trkpt lat="42.14445379420867" lon="13.287399816695224"><ele>784.4000000000001</ele><time>2026-04-27T13:00:01Z</time></trkpt><trkpt lat="42.14454543464947" lon="13.28738474995822"><ele>785.5999999999999</ele><time>2026-04-27T13:00:02Z</time></trkpt><trkpt lat="42.14464005140133" lon="13.287372421482553"><ele>786.8</ele><time>2026-04-27T13:00:03Z</time></trkpt><trkpt lat="42.14473411897" lon="13.287378641412351"><ele>788.0</ele><time>2026-04-27T13:00:04Z</time></trkpt><trkpt lat="42.14482492128184" lon="13.287388764135969"><ele>789.5999999999999</ele><time>2026-04-27T13:00:05Z</time></trkpt><trkpt lat="42.14490378123523" lon="13.287429870380938"><ele>791.1999999999999</ele><time>2026-04-27T13:00:05.999Z</time></trkpt><trkpt lat="42.144964461735995" lon="13.28751531430473"><ele>792.8</ele><time>2026-04-27T13:00:06.999Z</time></trkpt><trkpt lat="42.14503759592056" lon="13.28762900047376"><ele>794.4</ele><time>2026-04-27T13:00:08.999Z</time></trkpt><trkpt lat="42.1450428476651" lon="13.287794503971524"><ele>796.0</ele><time>2026-04-27T13:00:10.999Z</time></trkpt><trkpt lat="42.14501959286186" lon="13.28791416609222"><ele>796.0</ele><time>2026-04-27T13:00:11.999Z</time></trkpt><trkpt lat="42.14498733976601" lon="13.288039254001061"><ele>796.0</ele><time>2026-04-27T13:00:12.999Z</time></trkpt><trkpt lat="42.144967884100815" lon="13.288190561771108"><ele>796.0</ele><time>2026-04-27T13:00:13.999Z</time></trkpt><trkpt lat="42.14495599540301" lon="13.288371959995853"><ele>796.0</ele><time>2026-04-27T13:00:14.999Z</time></trkpt><trkpt lat="42.14494987211916" lon="13.288544171915968"><ele>796.1999999999999</ele><time>2026-04-27T13:00:15.999Z</time></trkpt><trkpt lat="42.1449454015896" lon="13.288711985837997"><ele>796.4</ele><time>2026-04-27T13:00:16.999Z</time></trkpt><trkpt lat="42.144941581279234" lon="13.288855391972717"><ele>796.6</ele><time>2026-04-27T13:00:17.999Z</time></trkpt><trkpt lat="42.14493941492167" lon="13.288985671177533"><ele>796.8</ele><time>2026-04-27T13:00:18.999Z</time></trkpt><trkpt lat="42.144939348153095" lon="13.289108302141965"><ele>797.0</ele><time>2026-04-27T13:00:19.999Z</time></trkpt><trkpt lat="42.14494204346965" lon="13.289222867540877"><ele>797.2</ele><time>2026-04-27T13:00:20.999Z</time></trkpt><trkpt lat="42.144948932212" lon="13.289345734126835"><ele>797.4000000000001</ele><time>2026-04-27T13:00:21.999Z</time></trkpt><trkpt lat="42.14496166779984" lon="13.28949160359376"><ele>797.5999999999999</ele><time>2026-04-27T13:00:22.999Z</time></trkpt><trkpt lat="42.14498168278074" lon="13.28961852587509"><ele>797.8</ele><time>2026-04-27T13:00:23.999Z</time></trkpt><trkpt lat="42.145005686209146" lon="13.28975303363918"><ele>798.0</ele><time>2026-04-27T13:00:24.999Z</time></trkpt><trkpt lat="42.14504310374353" lon="13.289871301242753"><ele>798.0</ele><time>2026-04-27T13:00:25.999Z</time></trkpt><trkpt lat="42.14507906549521" lon="13.289988310507104"><ele>798.0</ele><time>2026-04-27T13:00:26.999Z</time></trkpt><trkpt lat="42.14513199025658" lon="13.290112779066074"><ele>798.0</ele><time>2026-04-27T13:00:27.999Z</time></trkpt><trkpt lat="42.145191780384415" lon="13.290231360257327"><ele>798.0</ele><time>2026-04-27T13:00:28.999Z</time></trkpt><trkpt lat="42.14524997571571" lon="13.290333075555266"><ele>798.0</ele><time>2026-04-27T13:00:29.999Z</time></trkpt><trkpt lat="42.14532840508166" lon="13.290418235031229"><ele>798.0</ele><time>2026-04-27T13:00:30.999Z</time></trkpt><trkpt lat="42.14542184372202" lon="13.290535579034652"><ele>798.0</ele><time>2026-04-27T13:00:31.999Z</time></trkpt><trkpt lat="42.145522603428795" lon="13.290648349167974"><ele>798.0</ele><time>2026-04-27T13:00:32.999Z</time></trkpt><trkpt lat="42.145617043430626" lon="13.290753135666618"><ele>798.0</ele><time>2026-04-27T13:00:33.999Z</time></trkpt><trkpt lat="42.14571080148417" lon="13.290837193943812"><ele>796.3333333333334</ele><time>2026-04-27T13:00:34.999Z</time></trkpt><trkpt lat="42.14579760176051" lon="13.290901793671313"><ele>794.6666666666667</ele><time>2026-04-27T13:00:35.999Z</time></trkpt><trkpt lat="42.14587934094919" lon="13.290967033227295"><ele>793.0</ele><time>2026-04-27T13:00:36.999Z</time></trkpt><trkpt lat="42.145947596852714" lon="13.291026377475085"><ele>791.3333333333334</ele><time>2026-04-27T13:00:37.999Z</time></trkpt><trkpt lat="42.14600194958089" lon="13.291082987293718"><ele>789.6666666666667</ele><time>2026-04-27T13:00:38.999Z</time></trkpt><trkpt lat="42.146072015095534" lon="13.291148621684403"><ele>788.0</ele><time>2026-04-27T13:00:40.999Z</time></trkpt><trkpt lat="42.14611976171053" lon="13.291209774226612"><ele>788.0000000000001</ele><time>2026-04-27T13:00:44.999Z</time></trkpt><trkpt lat="42.14617196850987" lon="13.291311784114642"><ele>788.0</ele><time>2026-04-27T13:00:46.999Z</time></trkpt><trkpt lat="42.146216512002106" lon="13.291379987428869"><ele>788.0</ele><time>2026-04-27T13:00:47.999Z</time></trkpt><trkpt lat="42.146276289700744" lon="13.29144930853992"><ele>788.0</ele><time>2026-04-27T13:00:48.999Z</time></trkpt><trkpt lat="42.146359783671485" lon="13.291537007357082"><ele>788.0000000000001</ele><time>2026-04-27T13:00:49.999Z</time></trkpt><trkpt lat="42.146427288249704" lon="13.291622613063845"><ele>788.0</ele><time>2026-04-27T13:00:50.999Z</time></trkpt><trkpt lat="42.146500641420346" lon="13.291723888196067"><ele>786.4</ele><time>2026-04-27T13:00:51.999Z</time></trkpt><trkpt lat="42.14657471152479" lon="13.291820928034237"><ele>784.8</ele><time>2026-04-27T13:00:52.999Z</time></trkpt><trkpt lat="42.14663681492045" lon="13.291904281867845"><ele>783.2</ele><time>2026-04-27T13:00:53.999Z</time></trkpt><trkpt lat="42.14674526703968" lon="13.291951195706158"><ele>781.6</ele><time>2026-04-27T13:00:55.999Z</time></trkpt><trkpt lat="42.146835734811525" lon="13.291835929169837"><ele>780.0</ele><time>2026-04-27T13:00:57.999Z</time></trkpt><trkpt lat="42.1469051128164" lon="13.291757419167466"><ele>780.0</ele><time>2026-04-27T13:00:58.999Z</time></trkpt><trkpt lat="42.146969449313104" lon="13.291684378753637"><ele>780.0</ele><time>2026-04-27T13:00:59.999Z</time></trkpt><trkpt lat="42.14703124363481" lon="13.291623471326252"><ele>780.0</ele><time>2026-04-27T13:01:00.999Z</time></trkpt><trkpt lat="42.14708703290011" lon="13.291574843446678"><ele>780.0</ele><time>2026-04-27T13:01:01.999Z</time></trkpt><trkpt lat="42.147149043602354" lon="13.291539591775342"><ele>780.0</ele><time>2026-04-27T13:01:02.999Z</time></trkpt><trkpt lat="42.14722865872729" lon="13.291520135298338"><ele>780.0</ele><time>2026-04-27T13:01:03.999Z</time></trkpt><trkpt lat="42.147303173275134" lon="13.29152204471923"><ele>780.0</ele><time>2026-04-27T13:01:04.999Z</time></trkpt><trkpt lat="42.14737274624372" lon="13.291544681349203"><ele>780.0</ele><time>2026-04-27T13:01:05.999Z</time></trkpt><trkpt lat="42.14743419757701" lon="13.291575103702883"><ele>780.0</ele><time>2026-04-27T13:01:06.999Z</time></trkpt><trkpt lat="42.14755040104621" lon="13.29163495851351"><ele>780.0</ele><time>2026-04-27T13:01:08.998Z</time></trkpt><trkpt lat="42.14756812172717" lon="13.291451709224784"><ele>780.0</ele><time>2026-04-27T13:01:12.998Z</time></trkpt><trkpt lat="42.14751635433933" lon="13.291354989085297"><ele>774.2</ele><time>2026-04-27T13:01:13.998Z</time></trkpt><trkpt lat="42.14746787810068" lon="13.29127315827476"><ele>768.4</ele><time>2026-04-27T13:01:14.998Z</time></trkpt><trkpt lat="42.14743731370282" lon="13.291180359820222"><ele>762.5999999999999</ele><time>2026-04-27T13:01:15.998Z</time></trkpt><trkpt lat="42.14742188567267" lon="13.291029922329018"><ele>756.8</ele><time>2026-04-27T13:01:17.998Z</time></trkpt><trkpt lat="42.14749382981416" lon="13.290870153753401"><ele>751.0</ele><time>2026-04-27T13:01:19.998Z</time></trkpt><trkpt lat="42.147562644777665" lon="13.290759914948485"><ele>751.0</ele><time>2026-04-27T13:01:20.998Z</time></trkpt><trkpt lat="42.14762381979704" lon="13.29064807572729"><ele>751.0</ele><time>2026-04-27T13:01:21.998Z</time></trkpt><trkpt lat="42.14767782156323" lon="13.290534044321253"><ele>751.0</ele><time>2026-04-27T13:01:22.998Z</time></trkpt><trkpt lat="42.147751446541214" lon="13.290433584588516"><ele>751.0</ele><time>2026-04-27T13:01:23.998Z</time></trkpt><trkpt lat="42.147842937268" lon="13.2903555491112"><ele>751.0</ele><time>2026-04-27T13:01:24.998Z</time></trkpt><trkpt lat="42.14795556482661" lon="13.290293252935285"><ele>751.5</ele><time>2026-04-27T13:01:25.998Z</time></trkpt><trkpt lat="42.14806631159551" lon="13.290224402641169"><ele>752.0</ele><time>2026-04-27T13:01:26.998Z</time></trkpt><trkpt lat="42.148180021873515" lon="13.290156609060931"><ele>752.5</ele><time>2026-04-27T13:01:27.998Z</time></trkpt><trkpt lat="42.1482958549177" lon="13.290077775023596"><ele>753.0</ele><time>2026-04-27T13:01:28.998Z</time></trkpt><trkpt lat="42.148412730388564" lon="13.2899946296545"><ele>749.5</ele><time>2026-04-27T13:01:29.998Z</time></trkpt><trkpt lat="42.148526551038465" lon="13.289895053600908"><ele>746.0</ele><time>2026-04-27T13:01:30.998Z</time></trkpt><trkpt lat="42.14864480901452" lon="13.289791928228723"><ele>742.5</ele><time>2026-04-27T13:01:31.998Z</time></trkpt><trkpt lat="42.14877268670553" lon="13.289702125580549"><ele>739.0</ele><time>2026-04-27T13:01:32.998Z</time></trkpt><trkpt lat="42.14888849594214" lon="13.289612630972533"><ele>739.25</ele><time>2026-04-27T13:01:33.998Z</time></trkpt><trkpt lat="42.14899048638443" lon="13.289517712103683"><ele>739.5</ele><time>2026-04-27T13:01:34.998Z</time></trkpt><trkpt lat="42.14907989756912" lon="13.289412022085784"><ele>739.75</ele><time>2026-04-27T13:01:35.998Z</time></trkpt><trkpt lat="42.14915976195696" lon="13.28928199069162"><ele>740.0</ele><time>2026-04-27T13:01:36.998Z</time></trkpt><trkpt lat="42.14922596740493" lon="13.289156893543817"><ele>740.0</ele><time>2026-04-27T13:01:37.998Z</time></trkpt><trkpt lat="42.14928707820403" lon="13.289043822789248"><ele>740.0</ele><time>2026-04-27T13:01:38.998Z</time></trkpt><trkpt lat="42.149355336175475" lon="13.288946960701473"><ele>740.0</ele><time>2026-04-27T13:01:39.998Z</time></trkpt><trkpt lat="42.149430589672434" lon="13.288873839638201"><ele>740.0</ele><time>2026-04-27T13:01:40.998Z</time></trkpt><trkpt lat="42.14951680019705" lon="13.288801873668723"><ele>740.0</ele><time>2026-04-27T13:01:41.998Z</time></trkpt><trkpt lat="42.14959367218278" lon="13.288718758771038"><ele>740.75</ele><time>2026-04-27T13:01:42.998Z</time></trkpt><trkpt lat="42.14967999759531" lon="13.288621131888107"><ele>741.5</ele><time>2026-04-27T13:01:43.998Z</time></trkpt><trkpt lat="42.149772563146485" lon="13.28850961025532"><ele>742.25</ele><time>2026-04-27T13:01:44.998Z</time></trkpt><trkpt lat="42.1498673208609" lon="13.288377552489834"><ele>743.0</ele><time>2026-04-27T13:01:46Z</time></trkpt><trkpt lat="42.14996347184318" lon="13.288224765184976"><ele>740.5</ele><time>2026-04-27T13:01:47Z</time></trkpt><trkpt lat="42.150055180715675" lon="13.288050808269341"><ele>738.0</ele><time>2026-04-27T13:01:48Z</time></trkpt><trkpt lat="42.15013875365687" lon="13.28788839822975"><ele>735.5</ele><time>2026-04-27T13:01:49Z</time></trkpt><trkpt lat="42.15021449998822" lon="13.287737787724817"><ele>733.0</ele><time>2026-04-27T13:01:50Z</time></trkpt><trkpt lat="42.15028455614104" lon="13.287603851655708"><ele>733.0</ele><time>2026-04-27T13:01:51Z</time></trkpt><trkpt lat="42.15034880010726" lon="13.287456585016411"><ele>733.0</ele><time>2026-04-27T13:01:52Z</time></trkpt><trkpt lat="42.15041311182835" lon="13.28731848230884"><ele>733.0</ele><time>2026-04-27T13:01:53Z</time></trkpt><trkpt lat="42.15048298482069" lon="13.287200662203656"><ele>733.0</ele><time>2026-04-27T13:01:54Z</time></trkpt><trkpt lat="42.15056176949865" lon="13.287095757693583"><ele>732.8333333333334</ele><time>2026-04-27T13:01:55Z</time></trkpt><trkpt lat="42.150640309246725" lon="13.286991539030172"><ele>732.6666666666667</ele><time>2026-04-27T13:01:56Z</time></trkpt><trkpt lat="42.15071835155327" lon="13.286931028640927"><ele>732.5</ele><time>2026-04-27T13:01:57Z</time></trkpt><trkpt lat="42.15078878276404" lon="13.286879823064314"><ele>732.3333333333334</ele><time>2026-04-27T13:01:59Z</time></trkpt><trkpt lat="42.15084999643275" lon="13.286857394686008"><ele>732.1666666666666</ele><time>2026-04-27T13:02:00Z</time></trkpt><trkpt lat="42.15090980925404" lon="13.286759735866173"><ele>732.0</ele><time>2026-04-27T13:02:01Z</time></trkpt><trkpt lat="42.15098372722236" lon="13.28668976068119"><ele>731.6</ele><time>2026-04-27T13:02:02Z</time></trkpt><trkpt lat="42.15105076033396" lon="13.286602836522142"><ele>731.2</ele><time>2026-04-27T13:02:03Z</time></trkpt><trkpt lat="42.151127048727105" lon="13.286496630331335"><ele>730.8</ele><time>2026-04-27T13:02:04Z</time></trkpt><trkpt lat="42.15121064013666" lon="13.28638416547871"><ele>730.4</ele><time>2026-04-27T13:02:05Z</time></trkpt><trkpt lat="42.1512872956655" lon="13.286266167796322"><ele>730.0</ele><time>2026-04-27T13:02:06Z</time></trkpt><trkpt lat="42.15135855051059" lon="13.286134983246344"><ele>729.5</ele><time>2026-04-27T13:02:07Z</time></trkpt><trkpt lat="42.15143982229839" lon="13.286000431563208"><ele>729.0</ele><time>2026-04-27T13:02:08Z</time></trkpt><trkpt lat="42.15152141619136" lon="13.28588645911172"><ele>728.5</ele><time>2026-04-27T13:02:08.999Z</time></trkpt><trkpt lat="42.15160675443386" lon="13.285796968483952"><ele>728.0</ele><time>2026-04-27T13:02:09.999Z</time></trkpt><trkpt lat="42.15170018322208" lon="13.285718792983296"><ele>727.5</ele><time>2026-04-27T13:02:10.999Z</time></trkpt><trkpt lat="42.15180043397457" lon="13.28563382567362"><ele>727.0</ele><time>2026-04-27T13:02:11.999Z</time></trkpt><trkpt lat="42.151900199097376" lon="13.285533458007274"><ele>726.5</ele><time>2026-04-27T13:02:12.999Z</time></trkpt><trkpt lat="42.151996343567816" lon="13.28540416717177"><ele>726.0</ele><time>2026-04-27T13:02:13.999Z</time></trkpt><trkpt lat="42.15210899634232" lon="13.285273209296305"><ele>726.0</ele><time>2026-04-27T13:02:14.999Z</time></trkpt><trkpt lat="42.152224364328106" lon="13.285143417282201"><ele>726.0</ele><time>2026-04-27T13:02:15.999Z</time></trkpt><trkpt lat="42.15233962394284" lon="13.285024597969784"><ele>726.0</ele><time>2026-04-27T13:02:16.999Z</time></trkpt><trkpt lat="42.152467248109964" lon="13.284905030177955"><ele>726.0</ele><time>2026-04-27T13:02:17.999Z</time></trkpt><trkpt lat="42.15259897383902" lon="13.28477768049862"><ele>726.0</ele><time>2026-04-27T13:02:18.999Z</time></trkpt><trkpt lat="42.152726846165855" lon="13.284631658182057"><ele>726.0</ele><time>2026-04-27T13:02:19.999Z</time></trkpt><trkpt lat="42.152852737174605" lon="13.2844744428407"><ele>726.3333333333334</ele><time>2026-04-27T13:02:20.999Z</time></trkpt><trkpt lat="42.15298193892617" lon="13.284319301249866"><ele>726.6666666666667</ele><time>2026-04-27T13:02:21.999Z</time></trkpt><trkpt lat="42.153101969094955" lon="13.284160046008283"><ele>727.0</ele><time>2026-04-27T13:02:22.999Z</time></trkpt><trkpt lat="42.153210426067375" lon="13.283986562499049"><ele>727.0</ele><time>2026-04-27T13:02:23.999Z</time></trkpt><trkpt lat="42.153317407667586" lon="13.283810375495237"><ele>727.0</ele><time>2026-04-27T13:02:24.999Z</time></trkpt><trkpt lat="42.15342043004" lon="13.283627978612826"><ele>727.0</ele><time>2026-04-27T13:02:25.999Z</time></trkpt><trkpt lat="42.153515596176504" lon="13.283450079550207"><ele>727.0</ele><time>2026-04-27T13:02:26.999Z</time></trkpt><trkpt lat="42.15361249952856" lon="13.283277863948921"><ele>727.0</ele><time>2026-04-27T13:02:27.999Z</time></trkpt><trkpt lat="42.153719106389886" lon="13.283111800724587"><ele>727.0</ele><time>2026-04-27T13:02:28.999Z</time></trkpt><trkpt lat="42.153830130577035" lon="13.282958308232997"><ele>727.0</ele><time>2026-04-27T13:02:29.999Z</time></trkpt><trkpt lat="42.15394578562125" lon="13.282808137093213"><ele>727.0</ele><time>2026-04-27T13:02:30.999Z</time></trkpt><trkpt lat="42.15405870067923" lon="13.282653599417293"><ele>727.0</ele><time>2026-04-27T13:02:31.999Z</time></trkpt><trkpt lat="42.154173843287836" lon="13.282496975099312"><ele>727.3333333333334</ele><time>2026-04-27T13:02:32.999Z</time></trkpt><trkpt lat="42.15428868907644" lon="13.282339839796723"><ele>727.6666666666666</ele><time>2026-04-27T13:02:33.999Z</time></trkpt><trkpt lat="42.15440892545213" lon="13.282185047935029"><ele>728.0</ele><time>2026-04-27T13:02:34.999Z</time></trkpt><trkpt lat="42.15453980004869" lon="13.282046386198441"><ele>728.3333333333333</ele><time>2026-04-27T13:02:35.999Z</time></trkpt><trkpt lat="42.154681416261525" lon="13.281928750071321"><ele>728.6666666666666</ele><time>2026-04-27T13:02:36.999Z</time></trkpt><trkpt lat="42.15483211522279" lon="13.281822922626338"><ele>729.0</ele><time>2026-04-27T13:02:37.999Z</time></trkpt><trkpt lat="42.15498272724612" lon="13.281732504593132"><ele>729.3333333333334</ele><time>2026-04-27T13:02:38.999Z</time></trkpt><trkpt lat="42.15513036419638" lon="13.281634120505617"><ele>729.6666666666667</ele><time>2026-04-27T13:02:39.999Z</time></trkpt><trkpt lat="42.15527722436756" lon="13.281518833999828"><ele>730.0</ele><time>2026-04-27T13:02:40.999Z</time></trkpt><trkpt lat="42.15541740699971" lon="13.28139502899423"><ele>730.0</ele><time>2026-04-27T13:02:41.999Z</time></trkpt><trkpt lat="42.15555124276327" lon="13.281257853197967"><ele>730.0</ele><time>2026-04-27T13:02:42.999Z</time></trkpt><trkpt lat="42.15568302084154" lon="13.28112618894187"><ele>730.0</ele><time>2026-04-27T13:02:43.999Z</time></trkpt><trkpt lat="42.15582656552059" lon="13.281002648640417"><ele>731.3333333333334</ele><time>2026-04-27T13:02:44.999Z</time></trkpt><trkpt lat="42.155969785017135" lon="13.280890364457978"><ele>732.6666666666666</ele><time>2026-04-27T13:02:45.999Z</time></trkpt><trkpt lat="42.156111319992384" lon="13.280779021518512"><ele>734.0</ele><time>2026-04-27T13:02:46.999Z</time></trkpt><trkpt lat="42.15624757727345" lon="13.280663877551476"><ele>734.3333333333333</ele><time>2026-04-27T13:02:47.999Z</time></trkpt><trkpt lat="42.15638351420759" lon="13.280550928333351"><ele>734.6666666666666</ele><time>2026-04-27T13:02:48.999Z</time></trkpt><trkpt lat="42.15652010910704" lon="13.280433639481279"><ele>735.0</ele><time>2026-04-27T13:02:49.999Z</time></trkpt><trkpt lat="42.15665143416421" lon="13.280310842925825"><ele>736.0</ele><time>2026-04-27T13:02:50.999Z</time></trkpt><trkpt lat="42.15678098687788" lon="13.280190832705205"><ele>737.0</ele><time>2026-04-27T13:02:51.999Z</time></trkpt><trkpt lat="42.156914552047965" lon="13.280081474205927"><ele>738.0</ele><time>2026-04-27T13:02:52.999Z</time></trkpt><trkpt lat="42.157055919759934" lon="13.279991528695374"><ele>738.0</ele><time>2026-04-27T13:02:53.999Z</time></trkpt><trkpt lat="42.15720060677041" lon="13.279904752510179"><ele>738.0</ele><time>2026-04-27T13:02:54.999Z</time></trkpt><trkpt lat="42.157350945218234" lon="13.279835084119078"><ele>738.0</ele><time>2026-04-27T13:02:55.999Z</time></trkpt><trkpt lat="42.157498960584064" lon="13.279782451491513"><ele>738.3333333333334</ele><time>2026-04-27T13:02:56.999Z</time></trkpt><trkpt lat="42.157646916028796" lon="13.279730559424477"><ele>738.6666666666667</ele><time>2026-04-27T13:02:57.999Z</time></trkpt><trkpt lat="42.15779689744927" lon="13.279673959246955"><ele>739.0</ele><time>2026-04-27T13:02:58.999Z</time></trkpt><trkpt lat="42.15794991646078" lon="13.279622962191247"><ele>739.0</ele><time>2026-04-27T13:02:59.999Z</time></trkpt><trkpt lat="42.15810515072502" lon="13.279579299951665"><ele>739.0</ele><time>2026-04-27T13:03:00.999Z</time></trkpt><trkpt lat="42.15826065945121" lon="13.279545950693898"><ele>739.0</ele><time>2026-04-27T13:03:01.999Z</time></trkpt><trkpt lat="42.158416341536075" lon="13.279523975538822"><ele>740.3333333333334</ele><time>2026-04-27T13:03:02.999Z</time></trkpt><trkpt lat="42.158574559398524" lon="13.279503489526174"><ele>741.6666666666666</ele><time>2026-04-27T13:03:03.999Z</time></trkpt><trkpt lat="42.1587288663913" lon="13.279481104192376"><ele>743.0</ele><time>2026-04-27T13:03:04.999Z</time></trkpt><trkpt lat="42.158885457413476" lon="13.279452045300179"><ele>744.6666666666666</ele><time>2026-04-27T13:03:05.999Z</time></trkpt><trkpt lat="42.15903978294153" lon="13.279420058492379"><ele>746.3333333333334</ele><time>2026-04-27T13:03:06.999Z</time></trkpt><trkpt lat="42.15919404622327" lon="13.27938554110398"><ele>748.0</ele><time>2026-04-27T13:03:07.999Z</time></trkpt><trkpt lat="42.15934794473176" lon="13.27933812003468"><ele>748.0</ele><time>2026-04-27T13:03:08.999Z</time></trkpt><trkpt lat="42.15950284953692" lon="13.279288025490333"><ele>748.0</ele><time>2026-04-27T13:03:09.998Z</time></trkpt><trkpt lat="42.15965744578619" lon="13.279243025718724"><ele>748.0</ele><time>2026-04-27T13:03:10.998Z</time></trkpt><trkpt lat="42.15981634618358" lon="13.279206093025172"><ele>749.0</ele><time>2026-04-27T13:03:11.998Z</time></trkpt><trkpt lat="42.159971500534084" lon="13.279174005521464"><ele>750.0</ele><time>2026-04-27T13:03:12.998Z</time></trkpt><trkpt lat="42.16012890029492" lon="13.279136583711544"><ele>751.0</ele><time>2026-04-27T13:03:13.998Z</time></trkpt><trkpt lat="42.16029176517368" lon="13.279091679202033"><ele>751.0</ele><time>2026-04-27T13:03:14.998Z</time></trkpt><trkpt lat="42.16045592550868" lon="13.279040409685619"><ele>751.0</ele><time>2026-04-27T13:03:15.998Z</time></trkpt><trkpt lat="42.16062154809148" lon="13.278987174361063"><ele>751.0</ele><time>2026-04-27T13:03:16.998Z</time></trkpt><trkpt lat="42.16078597184621" lon="13.278927944239118"><ele>752.0</ele><time>2026-04-27T13:03:17.998Z</time></trkpt><trkpt lat="42.160951105205264" lon="13.27886830855101"><ele>753.0</ele><time>2026-04-27T13:03:18.998Z</time></trkpt><trkpt lat="42.1611185261875" lon="13.278811996816883"><ele>754.0</ele><time>2026-04-27T13:03:19.998Z</time></trkpt><trkpt lat="42.16129090309516" lon="13.278761255968456"><ele>754.0</ele><time>2026-04-27T13:03:20.998Z</time></trkpt><trkpt lat="42.16146276787032" lon="13.278712563395981"><ele>754.0</ele><time>2026-04-27T13:03:21.998Z</time></trkpt><trkpt lat="42.16163342320852" lon="13.27866109221799"><ele>754.0</ele><time>2026-04-27T13:03:22.998Z</time></trkpt><trkpt lat="42.161802855391834" lon="13.278607887120472"><ele>755.0</ele><time>2026-04-27T13:03:23.998Z</time></trkpt><trkpt lat="42.16197383498403" lon="13.27855001675818"><ele>756.0</ele><time>2026-04-27T13:03:24.998Z</time></trkpt><trkpt lat="42.16214654527805" lon="13.278494020573056"><ele>757.0</ele><time>2026-04-27T13:03:25.998Z</time></trkpt><trkpt lat="42.16231940973627" lon="13.278430240111401"><ele>758.3333333333334</ele><time>2026-04-27T13:03:26.998Z</time></trkpt><trkpt lat="42.162488816649514" lon="13.278365357429166"><ele>759.6666666666666</ele><time>2026-04-27T13:03:27.998Z</time></trkpt><trkpt lat="42.16265927566223" lon="13.278307212201774"><ele>761.0</ele><time>2026-04-27T13:03:28.998Z</time></trkpt><trkpt lat="42.16283092378459" lon="13.278258300114592"><ele>761.0</ele><time>2026-04-27T13:03:29.998Z</time></trkpt><trkpt lat="42.163000143195745" lon="13.278207620938282"><ele>761.0</ele><time>2026-04-27T13:03:30.998Z</time></trkpt><trkpt lat="42.16316905192658" lon="13.278158888988294"><ele>761.0</ele><time>2026-04-27T13:03:31.998Z</time></trkpt><trkpt lat="42.163337720644584" lon="13.278104765301892"><ele>762.3333333333333</ele><time>2026-04-27T13:03:32.998Z</time></trkpt><trkpt lat="42.16349979740171" lon="13.278028969600904"><ele>763.6666666666666</ele><time>2026-04-27T13:03:33.998Z</time></trkpt><trkpt lat="42.16364938486715" lon="13.277942596391735"><ele>765.0</ele><time>2026-04-27T13:03:34.998Z</time></trkpt><trkpt lat="42.16378001200638" lon="13.277849636564026"><ele>765.0</ele><time>2026-04-27T13:03:35.998Z</time></trkpt><trkpt lat="42.16390095560033" lon="13.277739165793921"><ele>765.0</ele><time>2026-04-27T13:03:36.998Z</time></trkpt><trkpt lat="42.16401528327224" lon="13.277638884720375"><ele>765.0</ele><time>2026-04-27T13:03:37.998Z</time></trkpt><trkpt lat="42.164130790689704" lon="13.27756073692502"><ele>765.0</ele><time>2026-04-27T13:03:38.998Z</time></trkpt><trkpt lat="42.1642507657609" lon="13.277506124555075"><ele>765.0</ele><time>2026-04-27T13:03:39.998Z</time></trkpt><trkpt lat="42.164382958368755" lon="13.277477187108028"><ele>765.0</ele><time>2026-04-27T13:03:40.998Z</time></trkpt><trkpt lat="42.16452562779538" lon="13.277469134388378"><ele>765.0</ele><time>2026-04-27T13:03:41.998Z</time></trkpt><trkpt lat="42.16467807157935" lon="13.277474754316724"><ele>765.0</ele><time>2026-04-27T13:03:42.998Z</time></trkpt><trkpt lat="42.1648307900197" lon="13.277482188093783"><ele>764.5</ele><time>2026-04-27T13:03:43.998Z</time></trkpt><trkpt lat="42.16498340468988" lon="13.277487446685718"><ele>764.0</ele><time>2026-04-27T13:03:44.998Z</time></trkpt><trkpt lat="42.165135120444724" lon="13.277483836252083"><ele>763.5</ele><time>2026-04-27T13:03:45.998Z</time></trkpt><trkpt lat="42.16527962238236" lon="13.277472001781806"><ele>763.0</ele><time>2026-04-27T13:03:46.998Z</time></trkpt><trkpt lat="42.165424990672115" lon="13.27745826373402"><ele>763.0</ele><time>2026-04-27T13:03:47.998Z</time></trkpt><trkpt lat="42.1655682020049" lon="13.27745934083675"><ele>763.0</ele><time>2026-04-27T13:03:48.998Z</time></trkpt><trkpt lat="42.1657099839211" lon="13.277464058026851"><ele>763.0</ele><time>2026-04-27T13:03:49.998Z</time></trkpt><trkpt lat="42.16585073467595" lon="13.277445259167749"><ele>763.0</ele><time>2026-04-27T13:03:50.998Z</time></trkpt><trkpt lat="42.165979911883056" lon="13.277415013508945"><ele>762.5</ele><time>2026-04-27T13:03:52Z</time></trkpt><trkpt lat="42.16609423598235" lon="13.277379358503778"><ele>762.0</ele><time>2026-04-27T13:03:53Z</time></trkpt><trkpt lat="42.16619852271671" lon="13.27733175053256"><ele>761.5</ele><time>2026-04-27T13:03:54Z</time></trkpt><trkpt lat="42.166309597052454" lon="13.27728450253274"><ele>761.0</ele><time>2026-04-27T13:03:55Z</time></trkpt><trkpt lat="42.16641611353522" lon="13.277236992056903"><ele>760.75</ele><time>2026-04-27T13:03:56Z</time></trkpt><trkpt lat="42.16651652062746" lon="13.27718571670275"><ele>760.5</ele><time>2026-04-27T13:03:57Z</time></trkpt><trkpt lat="42.166622382488846" lon="13.27712726245352"><ele>760.25</ele><time>2026-04-27T13:03:58Z</time></trkpt><trkpt lat="42.166730066713995" lon="13.277059682382468"><ele>760.0</ele><time>2026-04-27T13:03:59Z</time></trkpt><trkpt lat="42.16683816234911" lon="13.276984667419866"><ele>761.5</ele><time>2026-04-27T13:04:00Z</time></trkpt><trkpt lat="42.16695438241591" lon="13.276959547108628"><ele>763.0</ele><time>2026-04-27T13:04:01Z</time></trkpt><trkpt lat="42.16707109954426" lon="13.27696308385353"><ele>764.5</ele><time>2026-04-27T13:04:02Z</time></trkpt><trkpt lat="42.16717655518184" lon="13.276973200371518"><ele>766.0</ele><time>2026-04-27T13:04:03Z</time></trkpt><trkpt lat="42.16729748957657" lon="13.27697977700098"><ele>768.1999999999999</ele><time>2026-04-27T13:04:04Z</time></trkpt><trkpt lat="42.16739935689459" lon="13.276977427556892"><ele>770.4</ele><time>2026-04-27T13:04:05Z</time></trkpt><trkpt lat="42.16747386112988" lon="13.276935578675296"><ele>772.6</ele><time>2026-04-27T13:04:06Z</time></trkpt><trkpt lat="42.167524092730766" lon="13.276795182012695"><ele>774.8</ele><time>2026-04-27T13:04:08Z</time></trkpt><trkpt lat="42.16753661779032" lon="13.276683020709726"><ele>777.0</ele><time>2026-04-27T13:04:09Z</time></trkpt><trkpt lat="42.16758541679287" lon="13.276588555215916"><ele>777.0</ele><time>2026-04-27T13:04:10Z</time></trkpt><trkpt lat="42.16761667063322" lon="13.27649450452264"><ele>777.0</ele><time>2026-04-27T13:04:11Z</time></trkpt><trkpt lat="42.16763636264205" lon="13.276405781930443"><ele>777.0</ele><time>2026-04-27T13:04:11.999Z</time></trkpt><trkpt lat="42.16768261175935" lon="13.276276833578853"><ele>777.0</ele><time>2026-04-27T13:04:12.999Z</time></trkpt><trkpt lat="42.167752346885955" lon="13.276196372343632"><ele>777.0</ele><time>2026-04-27T13:04:13.999Z</time></trkpt><trkpt lat="42.16784845762144" lon="13.276190858810933"><ele>777.0</ele><time>2026-04-27T13:04:14.999Z</time></trkpt><trkpt lat="42.16791530016939" lon="13.27618952996911"><ele>778.0</ele><time>2026-04-27T13:04:15.999Z</time></trkpt><trkpt lat="42.167978919711736" lon="13.276263746236731"><ele>779.0</ele><time>2026-04-27T13:04:16.999Z</time></trkpt><trkpt lat="42.1680771042557" lon="13.27628765064229"><ele>780.0</ele><time>2026-04-27T13:04:17.999Z</time></trkpt><trkpt lat="42.1681824492617" lon="13.276301470887969"><ele>781.0</ele><time>2026-04-27T13:04:18.999Z</time></trkpt><trkpt lat="42.16829629428452" lon="13.27629002073683"><ele>782.0</ele><time>2026-04-27T13:04:19.999Z</time></trkpt><trkpt lat="42.16841557083142" lon="13.276272038159524"><ele>782.0</ele><time>2026-04-27T13:04:20.999Z</time></trkpt><trkpt lat="42.168543099251245" lon="13.276249087973945"><ele>782.0</ele><time>2026-04-27T13:04:21.999Z</time></trkpt><trkpt lat="42.16868253318365" lon="13.276216603931555"><ele>782.0</ele><time>2026-04-27T13:04:22.999Z</time></trkpt><trkpt lat="42.168824892323805" lon="13.276188460047738"><ele>782.0</ele><time>2026-04-27T13:04:23.999Z</time></trkpt><trkpt lat="42.1689654867862" lon="13.276148910273003"><ele>784.3333333333334</ele><time>2026-04-27T13:04:24.999Z</time></trkpt><trkpt lat="42.169108797341266" lon="13.276094186964398"><ele>786.6666666666667</ele><time>2026-04-27T13:04:25.999Z</time></trkpt><trkpt lat="42.169262545158844" lon="13.276039084273418"><ele>789.0</ele><time>2026-04-27T13:04:26.999Z</time></trkpt><trkpt lat="42.16941947442085" lon="13.27599585423443"><ele>789.0</ele><time>2026-04-27T13:04:27.999Z</time></trkpt><trkpt lat="42.169577465818406" lon="13.27594897794903"><ele>789.0</ele><time>2026-04-27T13:04:28.999Z</time></trkpt><trkpt lat="42.16972919540091" lon="13.275902196753858"><ele>789.0</ele><time>2026-04-27T13:04:29.999Z</time></trkpt><trkpt lat="42.169876133322354" lon="13.275855934638859"><ele>790.25</ele><time>2026-04-27T13:04:30.999Z</time></trkpt><trkpt lat="42.170015888186704" lon="13.27581550428054"><ele>791.5</ele><time>2026-04-27T13:04:31.999Z</time></trkpt><trkpt lat="42.17015519433408" lon="13.27576915052068"><ele>792.75</ele><time>2026-04-27T13:04:32.999Z</time></trkpt><trkpt lat="42.170297578270755" lon="13.275730253368463"><ele>794.0</ele><time>2026-04-27T13:04:33.999Z</time></trkpt><trkpt lat="42.17044710845135" lon="13.275717921296065"><ele>794.0</ele><time>2026-04-27T13:04:34.999Z</time></trkpt><trkpt lat="42.17057837264074" lon="13.275707784770828"><ele>794.0</ele><time>2026-04-27T13:04:35.999Z</time></trkpt><trkpt lat="42.17069822405988" lon="13.275702617108715"><ele>794.0</ele><time>2026-04-27T13:04:36.999Z</time></trkpt><trkpt lat="42.17078316319464" lon="13.275695423304985"><ele>794.0</ele><time>2026-04-27T13:04:37.999Z</time></trkpt><trkpt lat="42.17087572946952" lon="13.275661172943641"><ele>794.0</ele><time>2026-04-27T13:04:39.999Z</time></trkpt><trkpt lat="42.17099644702622" lon="13.275633552392161"><ele>795.2</ele><time>2026-04-27T13:04:41.999Z</time></trkpt><trkpt lat="42.17108194849581" lon="13.275651484078658"><ele>796.4000000000001</ele><time>2026-04-27T13:04:42.999Z</time></trkpt><trkpt lat="42.171183563622535" lon="13.275645621764532"><ele>797.6</ele><time>2026-04-27T13:04:43.999Z</time></trkpt><trkpt lat="42.17127810965149" lon="13.27566792093617"><ele>798.8</ele><time>2026-04-27T13:04:44.999Z</time></trkpt><trkpt lat="42.17136818048134" lon="13.27569915152759"><ele>800.0</ele><time>2026-04-27T13:04:45.999Z</time></trkpt><trkpt lat="42.171460234405274" lon="13.275724371863147"><ele>800.25</ele><time>2026-04-27T13:04:46.999Z</time></trkpt><trkpt lat="42.17156936528928" lon="13.27575949402605"><ele>800.5</ele><time>2026-04-27T13:04:47.999Z</time></trkpt><trkpt lat="42.17168616757017" lon="13.275821011714227"><ele>800.75</ele><time>2026-04-27T13:04:48.999Z</time></trkpt><trkpt lat="42.17180290009982" lon="13.275914483429135"><ele>801.0</ele><time>2026-04-27T13:04:49.999Z</time></trkpt><trkpt lat="42.17192452484488" lon="13.275987050405966"><ele>801.0</ele><time>2026-04-27T13:04:50.999Z</time></trkpt><trkpt lat="42.17205631815643" lon="13.276040930618395"><ele>801.0</ele><time>2026-04-27T13:04:51.999Z</time></trkpt><trkpt lat="42.17218698870698" lon="13.276083059695326"><ele>801.0</ele><time>2026-04-27T13:04:52.999Z</time></trkpt><trkpt lat="42.17231323524489" lon="13.276127522948343"><ele>801.0</ele><time>2026-04-27T13:04:53.999Z</time></trkpt><trkpt lat="42.17243493941122" lon="13.276177501641223"><ele>801.25</ele><time>2026-04-27T13:04:54.999Z</time></trkpt><trkpt lat="42.17255292313874" lon="13.276221475743167"><ele>801.5</ele><time>2026-04-27T13:04:55.999Z</time></trkpt><trkpt lat="42.172663255298374" lon="13.276269073089747"><ele>801.75</ele><time>2026-04-27T13:04:56.999Z</time></trkpt><trkpt lat="42.172774159129865" lon="13.27632022867209"><ele>802.0</ele><time>2026-04-27T13:04:57.999Z</time></trkpt><trkpt lat="42.17289530966811" lon="13.276347326967171"><ele>802.0</ele><time>2026-04-27T13:04:58.999Z</time></trkpt><trkpt lat="42.173002885508126" lon="13.276370398830853"><ele>802.0</ele><time>2026-04-27T13:04:59.999Z</time></trkpt><trkpt lat="42.173113534401786" lon="13.276393114363184"><ele>802.0</ele><time>2026-04-27T13:05:00.999Z</time></trkpt><trkpt lat="42.1732317310309" lon="13.276391269159076"><ele>802.0</ele><time>2026-04-27T13:05:01.999Z</time></trkpt><trkpt lat="42.17333662886908" lon="13.276343249313996"><ele>804.5</ele><time>2026-04-27T13:05:02.999Z</time></trkpt><trkpt lat="42.173430636761736" lon="13.276267060677055"><ele>807.0</ele><time>2026-04-27T13:05:03.999Z</time></trkpt><trkpt lat="42.173541367251595" lon="13.2762332921633"><ele>809.5</ele><time>2026-04-27T13:05:04.999Z</time></trkpt><trkpt lat="42.17365279837262" lon="13.276189333147546"><ele>812.0</ele><time>2026-04-27T13:05:05.999Z</time></trkpt><trkpt lat="42.17377521937199" lon="13.276155579805565"><ele>812.0000000000001</ele><time>2026-04-27T13:05:06.999Z</time></trkpt><trkpt lat="42.17389552167416" lon="13.276116408348996"><ele>812.0</ele><time>2026-04-27T13:05:07.999Z</time></trkpt><trkpt lat="42.17399910150746" lon="13.276109834726112"><ele>812.0</ele><time>2026-04-27T13:05:08.999Z</time></trkpt><trkpt lat="42.174080601443954" lon="13.276120473696796"><ele>812.0</ele><time>2026-04-27T13:05:09.999Z</time></trkpt><trkpt lat="42.1741406389559" lon="13.276146283091965"><ele>812.0000000000001</ele><time>2026-04-27T13:05:10.999Z</time></trkpt><trkpt lat="42.17418429640366" lon="13.27620821744327"><ele>812.0</ele><time>2026-04-27T13:05:11.999Z</time></trkpt><trkpt lat="42.174249457701826" lon="13.276266543716478"><ele>814.2</ele><time>2026-04-27T13:05:12.999Z</time></trkpt><trkpt lat="42.174339126574615" lon="13.276315394368437"><ele>816.4000000000001</ele><time>2026-04-27T13:05:13.998Z</time></trkpt><trkpt lat="42.174418104307584" lon="13.276406464473158"><ele>818.5999999999999</ele><time>2026-04-27T13:05:14.998Z</time></trkpt><trkpt lat="42.174497450360185" lon="13.276480991583561"><ele>820.8</ele><time>2026-04-27T13:05:15.998Z</time></trkpt><trkpt lat="42.174577170330764" lon="13.27654637809148"><ele>823.0</ele><time>2026-04-27T13:05:16.998Z</time></trkpt><trkpt lat="42.17467470854746" lon="13.27660595637472"><ele>823.5</ele><time>2026-04-27T13:05:17.998Z</time></trkpt><trkpt lat="42.17479017317086" lon="13.276640815132556"><ele>824.0</ele><time>2026-04-27T13:05:18.998Z</time></trkpt><trkpt lat="42.17491575115559" lon="13.276643110712902"><ele>824.5</ele><time>2026-04-27T13:05:19.998Z</time></trkpt><trkpt lat="42.175044812104034" lon="13.276594538147659"><ele>825.0</ele><time>2026-04-27T13:05:20.998Z</time></trkpt><trkpt lat="42.175156993583045" lon="13.276487555636674"><ele>826.25</ele><time>2026-04-27T13:05:21.998Z</time></trkpt><trkpt lat="42.175251286093136" lon="13.27634059124935"><ele>827.5</ele><time>2026-04-27T13:05:22.998Z</time></trkpt><trkpt lat="42.17532586472643" lon="13.27617156701491"><ele>828.75</ele><time>2026-04-27T13:05:23.998Z</time></trkpt><trkpt lat="42.17540209477304" lon="13.276000179088438"><ele>830.0</ele><time>2026-04-27T13:05:24.998Z</time></trkpt><trkpt lat="42.17547684643542" lon="13.275833142004009"><ele>830.0</ele><time>2026-04-27T13:05:25.998Z</time></trkpt><trkpt lat="42.17553971648642" lon="13.27566333289376"><ele>830.0</ele><time>2026-04-27T13:05:26.998Z</time></trkpt><trkpt lat="42.17560491371653" lon="13.275522644129378"><ele>830.0</ele><time>2026-04-27T13:05:27.998Z</time></trkpt><trkpt lat="42.17569631717245" lon="13.27540670119499"><ele>830.0</ele><time>2026-04-27T13:05:28.998Z</time></trkpt><trkpt lat="42.175822669847875" lon="13.275355686726016"><ele>830.0</ele><time>2026-04-27T13:05:29.998Z</time></trkpt><trkpt lat="42.175970913783466" lon="13.27532691273277"><ele>830.0</ele><time>2026-04-27T13:05:30.998Z</time></trkpt><trkpt lat="42.17612753278927" lon="13.275288531517674"><ele>830.0</ele><time>2026-04-27T13:05:31.998Z</time></trkpt><trkpt lat="42.17627949757213" lon="13.275242688848529"><ele>830.0</ele><time>2026-04-27T13:05:32.998Z</time></trkpt><trkpt lat="42.17642607409012" lon="13.275206664614652"><ele>830.0</ele><time>2026-04-27T13:05:33.998Z</time></trkpt><trkpt lat="42.17656012881301" lon="13.275168959931166"><ele>830.0</ele><time>2026-04-27T13:05:34.998Z</time></trkpt><trkpt lat="42.17669061736443" lon="13.275128793108783"><ele>830.0</ele><time>2026-04-27T13:05:35.998Z</time></trkpt><trkpt lat="42.176811914601906" lon="13.27509241385118"><ele>828.4</ele><time>2026-04-27T13:05:36.998Z</time></trkpt><trkpt lat="42.17692931331795" lon="13.275056167700194"><ele>826.8</ele><time>2026-04-27T13:05:37.998Z</time></trkpt><trkpt lat="42.17703084313207" lon="13.275018447212041"><ele>825.2</ele><time>2026-04-27T13:05:38.998Z</time></trkpt><trkpt lat="42.17711391590809" lon="13.274989211187695"><ele>823.6</ele><time>2026-04-27T13:05:39.998Z</time></trkpt><trkpt lat="42.17719131654713" lon="13.27499363725586"><ele>822.0</ele><time>2026-04-27T13:05:40.998Z</time></trkpt><trkpt lat="42.17727617539101" lon="13.275039706135889"><ele>822.0</ele><time>2026-04-27T13:05:41.998Z</time></trkpt><trkpt lat="42.17733740670674" lon="13.27511393126874"><ele>822.0</ele><time>2026-04-27T13:05:42.998Z</time></trkpt><trkpt lat="42.17736729801303" lon="13.275221528890988"><ele>822.0</ele><time>2026-04-27T13:05:43.998Z</time></trkpt><trkpt lat="42.17737517888025" lon="13.275342188657248"><ele>822.0</ele><time>2026-04-27T13:05:44.998Z</time></trkpt><trkpt lat="42.177369512256845" lon="13.275426964424408"><ele>822.0</ele><time>2026-04-27T13:05:46.998Z</time></trkpt><trkpt lat="42.17744319817141" lon="13.2753278987332"><ele>822.0</ele><time>2026-04-27T13:05:48.998Z</time></trkpt><trkpt lat="42.17743805974459" lon="13.275211569116161"><ele>821.5</ele><time>2026-04-27T13:05:49.998Z</time></trkpt><trkpt lat="42.17745234580585" lon="13.27511549288951"><ele>821.0</ele><time>2026-04-27T13:05:50.998Z</time></trkpt><trkpt lat="42.17752855401412" lon="13.275096103696507"><ele>820.5</ele><time>2026-04-27T13:05:52.998Z</time></trkpt><trkpt lat="42.17756474316066" lon="13.275267620763763"><ele>820.0</ele><time>2026-04-27T13:05:54.998Z</time></trkpt><trkpt lat="42.177550601382976" lon="13.27537604053076"><ele>819.5</ele><time>2026-04-27T13:05:55.998Z</time></trkpt><trkpt lat="42.17755254884039" lon="13.275477174959578"><ele>819.0</ele><time>2026-04-27T13:05:56.998Z</time></trkpt><trkpt lat="42.17754115527346" lon="13.275577829503906"><ele>819.1666666666666</ele><time>2026-04-27T13:05:58Z</time></trkpt><trkpt lat="42.177560332952794" lon="13.275708314136127"><ele>819.3333333333333</ele><time>2026-04-27T13:05:59Z</time></trkpt><trkpt lat="42.177578926953245" lon="13.275835866993075"><ele>819.5</ele><time>2026-04-27T13:06:00Z</time></trkpt><trkpt lat="42.17762898223571" lon="13.275943037432272"><ele>819.6666666666666</ele><time>2026-04-27T13:06:01Z</time></trkpt><trkpt lat="42.17765018777241" lon="13.276040415805312"><ele>819.8333333333333</ele><time>2026-04-27T13:06:02Z</time></trkpt><trkpt lat="42.17766036074086" lon="13.276134594054172"><ele>820.0</ele><time>2026-04-27T13:06:03Z</time></trkpt><trkpt lat="42.17767493847007" lon="13.27624007630247"><ele>820.0</ele><time>2026-04-27T13:06:04Z</time></trkpt><trkpt lat="42.17769029979065" lon="13.27636454619345"><ele>820.0</ele><time>2026-04-27T13:06:05Z</time></trkpt><trkpt lat="42.17767810973428" lon="13.276490229469067"><ele>820.0</ele><time>2026-04-27T13:06:06Z</time></trkpt><trkpt lat="42.17765096691635" lon="13.276617074550533"><ele>820.0</ele><time>2026-04-27T13:06:07Z</time></trkpt><trkpt lat="42.17761800175558" lon="13.2767615876813"><ele>820.0</ele><time>2026-04-27T13:06:08Z</time></trkpt><trkpt lat="42.17759289002102" lon="13.276923095197533"><ele>820.5</ele><time>2026-04-27T13:06:09Z</time></trkpt><trkpt lat="42.17757522922072" lon="13.27709052541244"><ele>821.0</ele><time>2026-04-27T13:06:10Z</time></trkpt><trkpt lat="42.177573493774624" lon="13.277260655582605"><ele>821.5</ele><time>2026-04-27T13:06:11Z</time></trkpt><trkpt lat="42.17756127810304" lon="13.27744501832506"><ele>822.0</ele><time>2026-04-27T13:06:12Z</time></trkpt><trkpt lat="42.17755312570829" lon="13.277636095379233"><ele>822.5</ele><time>2026-04-27T13:06:13Z</time></trkpt><trkpt lat="42.17754408924977" lon="13.277813810353283"><ele>823.0</ele><time>2026-04-27T13:06:14Z</time></trkpt><trkpt lat="42.17753650835051" lon="13.277960208699367"><ele>823.5</ele><time>2026-04-27T13:06:14.999Z</time></trkpt><trkpt lat="42.17750190207068" lon="13.278101319935447"><ele>824.0</ele><time>2026-04-27T13:06:15.999Z</time></trkpt><trkpt lat="42.177460671732234" lon="13.27824009317487"><ele>824.5</ele><time>2026-04-27T13:06:16.999Z</time></trkpt><trkpt lat="42.17739798965518" lon="13.278342846990284"><ele>825.0</ele><time>2026-04-27T13:06:17.999Z</time></trkpt><trkpt lat="42.17729852311423" lon="13.278444032057816"><ele>825.5</ele><time>2026-04-27T13:06:18.999Z</time></trkpt><trkpt lat="42.17719234456923" lon="13.278545318244682"><ele>826.0</ele><time>2026-04-27T13:06:19.999Z</time></trkpt><trkpt lat="42.17712985571864" lon="13.278673618563822"><ele>827.1666666666666</ele><time>2026-04-27T13:06:20.999Z</time></trkpt><trkpt lat="42.17707682215497" lon="13.278816885743977"><ele>828.3333333333333</ele><time>2026-04-27T13:06:21.999Z</time></trkpt><trkpt lat="42.17702203476263" lon="13.278910478737563"><ele>829.5</ele><time>2026-04-27T13:06:22.999Z</time></trkpt><trkpt lat="42.17694936198714" lon="13.278990715065193"><ele>830.6666666666667</ele><time>2026-04-27T13:06:23.999Z</time></trkpt><trkpt lat="42.17689789513616" lon="13.279045801401926"><ele>831.8333333333334</ele><time>2026-04-27T13:06:24.999Z</time></trkpt><trkpt lat="42.176921906201926" lon="13.279139741188944"><ele>833.0</ele><time>2026-04-27T13:06:26.999Z</time></trkpt><trkpt lat="42.176989822920405" lon="13.279256466720774"><ele>833.3333333333334</ele><time>2026-04-27T13:06:28.999Z</time></trkpt><trkpt lat="42.17703445129348" lon="13.279339439601742"><ele>833.6666666666667</ele><time>2026-04-27T13:06:29.999Z</time></trkpt><trkpt lat="42.17707963522381" lon="13.279437670247559"><ele>834.0</ele><time>2026-04-27T13:06:30.999Z</time></trkpt><trkpt lat="42.17714671431879" lon="13.27954525961299"><ele>834.3333333333333</ele><time>2026-04-27T13:06:31.999Z</time></trkpt><trkpt lat="42.17717002110741" lon="13.279648209274889"><ele>834.6666666666666</ele><time>2026-04-27T13:06:32.999Z</time></trkpt><trkpt lat="42.177208271990864" lon="13.279764746475333"><ele>835.0</ele><time>2026-04-27T13:06:33.999Z</time></trkpt><trkpt lat="42.17726896466362" lon="13.27986213237121"><ele>835.2</ele><time>2026-04-27T13:06:34.999Z</time></trkpt><trkpt lat="42.17733665773724" lon="13.279966790513653"><ele>835.4</ele><time>2026-04-27T13:06:35.999Z</time></trkpt><trkpt lat="42.17740050097837" lon="13.280086398432964"><ele>835.5999999999999</ele><time>2026-04-27T13:06:36.999Z</time></trkpt><trkpt lat="42.17746188009754" lon="13.280214510650126"><ele>835.8</ele><time>2026-04-27T13:06:37.999Z</time></trkpt><trkpt lat="42.177521890069194" lon="13.28034368940991"><ele>836.0</ele><time>2026-04-27T13:06:38.999Z</time></trkpt><trkpt lat="42.177595583567786" lon="13.280485121922078"><ele>836.75</ele><time>2026-04-27T13:06:39.999Z</time></trkpt><trkpt lat="42.17768343877352" lon="13.280632958847765"><ele>837.5</ele><time>2026-04-27T13:06:40.999Z</time></trkpt><trkpt lat="42.17777345129961" lon="13.28078995638752"><ele>838.25</ele><time>2026-04-27T13:06:41.999Z</time></trkpt><trkpt lat="42.17785205971436" lon="13.280957378581864"><ele>839.0</ele><time>2026-04-27T13:06:42.999Z</time></trkpt><trkpt lat="42.17792830919027" lon="13.281116031995138"><ele>839.0</ele><time>2026-04-27T13:06:43.999Z</time></trkpt><trkpt lat="42.177991338897066" lon="13.281247348502859"><ele>839.0</ele><time>2026-04-27T13:06:44.999Z</time></trkpt><trkpt lat="42.178024560143115" lon="13.281404042105331"><ele>839.0</ele><time>2026-04-27T13:06:45.999Z</time></trkpt><trkpt lat="42.178062983480125" lon="13.281548790376437"><ele>839.0</ele><time>2026-04-27T13:06:46.999Z</time></trkpt><trkpt lat="42.17809789592211" lon="13.28168477017176"><ele>839.3333333333334</ele><time>2026-04-27T13:06:47.999Z</time></trkpt><trkpt lat="42.1781351101782" lon="13.281809623514292"><ele>839.6666666666667</ele><time>2026-04-27T13:06:48.999Z</time></trkpt><trkpt lat="42.17815410291365" lon="13.282125397041682"><ele>840.0</ele><time>2026-04-27T13:06:49.999Z</time></trkpt><trkpt lat="42.178270027602785" lon="13.282257480077718"><ele>840.5</ele><time>2026-04-27T13:06:51.999Z</time></trkpt><trkpt lat="42.1783886671434" lon="13.282410524425636"><ele>841.0</ele><time>2026-04-27T13:06:52.999Z</time></trkpt><trkpt lat="42.17878997217341" lon="13.28177722025372"><ele>841.0</ele><time>2026-04-27T13:06:53.999Z</time></trkpt><trkpt lat="42.17886447081558" lon="13.281706521387406"><ele>841.0</ele><time>2026-04-27T13:06:54.999Z</time></trkpt><trkpt lat="42.17894626198876" lon="13.28162068442161"><ele>841.0</ele><time>2026-04-27T13:06:55.999Z</time></trkpt><trkpt lat="42.1790325447568" lon="13.281565532005294"><ele>841.0</ele><time>2026-04-27T13:06:56.999Z</time></trkpt><trkpt lat="42.17909956829311" lon="13.281558130639509"><ele>841.0</ele><time>2026-04-27T13:06:57.999Z</time></trkpt><trkpt lat="42.17919620767748" lon="13.281637420818987"><ele>839.8333333333333</ele><time>2026-04-27T13:06:59.999Z</time></trkpt><trkpt lat="42.17922905089621" lon="13.28176887085765"><ele>838.6666666666666</ele><time>2026-04-27T13:07:00.999Z</time></trkpt><trkpt lat="42.179288422310194" lon="13.281825513938445"><ele>837.5</ele><time>2026-04-27T13:07:01.999Z</time></trkpt><trkpt lat="42.179373550988956" lon="13.281818901073997"><ele>836.3333333333333</ele><time>2026-04-27T13:07:03.999Z</time></trkpt><trkpt lat="42.17942359190623" lon="13.281733207880679"><ele>835.1666666666666</ele><time>2026-04-27T13:07:04.999Z</time></trkpt><trkpt lat="42.17945919496525" lon="13.281603807752221"><ele>834.0</ele><time>2026-04-27T13:07:05.999Z</time></trkpt><trkpt lat="42.17950425258217" lon="13.281488909540188"><ele>833.2</ele><time>2026-04-27T13:07:06.999Z</time></trkpt><trkpt lat="42.17954340767512" lon="13.281382682315307"><ele>832.4000000000001</ele><time>2026-04-27T13:07:07.999Z</time></trkpt><trkpt lat="42.17962671778059" lon="13.281310417468413"><ele>831.6</ele><time>2026-04-27T13:07:08.999Z</time></trkpt><trkpt lat="42.17965908481935" lon="13.281180243008725"><ele>830.8</ele><time>2026-04-27T13:07:09.999Z</time></trkpt><trkpt lat="42.17971842772357" lon="13.281052601410233"><ele>830.0</ele><time>2026-04-27T13:07:10.999Z</time></trkpt><trkpt lat="42.17978928195427" lon="13.280908745730388"><ele>828.75</ele><time>2026-04-27T13:07:11.999Z</time></trkpt><trkpt lat="42.17986065667792" lon="13.28076073664841"><ele>827.5</ele><time>2026-04-27T13:07:12.999Z</time></trkpt><trkpt lat="42.17993367987122" lon="13.280608307218785"><ele>826.25</ele><time>2026-04-27T13:07:13.999Z</time></trkpt><trkpt lat="42.18001525075265" lon="13.280444105513237"><ele>825.0</ele><time>2026-04-27T13:07:14.999Z</time></trkpt><trkpt lat="42.180107313757" lon="13.280282247241466"><ele>825.0</ele><time>2026-04-27T13:07:15.999Z</time></trkpt><trkpt lat="42.18020969232126" lon="13.280127655985822"><ele>825.0</ele><time>2026-04-27T13:07:16.999Z</time></trkpt><trkpt lat="42.18032955549866" lon="13.279991604172999"><ele>825.0</ele><time>2026-04-27T13:07:17.998Z</time></trkpt><trkpt lat="42.18045774264067" lon="13.279877106373938"><ele>824.2</ele><time>2026-04-27T13:07:18.998Z</time></trkpt><trkpt lat="42.180576836757936" lon="13.279763210646236"><ele>823.4</ele><time>2026-04-27T13:07:19.998Z</time></trkpt><trkpt lat="42.180674035082845" lon="13.279633324074751"><ele>822.5999999999999</ele><time>2026-04-27T13:07:20.998Z</time></trkpt><trkpt lat="42.1807201833487" lon="13.279521434998935"><ele>821.8</ele><time>2026-04-27T13:07:21.998Z</time></trkpt><trkpt lat="42.180726726539426" lon="13.279427330989368"><ele>821.0</ele><time>2026-04-27T13:07:22.998Z</time></trkpt><trkpt lat="42.18070043448284" lon="13.27931673090398"><ele>820.75</ele><time>2026-04-27T13:07:23.998Z</time></trkpt><trkpt lat="42.18065970837451" lon="13.27917740958426"><ele>820.5</ele><time>2026-04-27T13:07:24.998Z</time></trkpt><trkpt lat="42.18059749254539" lon="13.279021587927204"><ele>820.25</ele><time>2026-04-27T13:07:25.998Z</time></trkpt><trkpt lat="42.18056178970834" lon="13.278841600054928"><ele>820.0</ele><time>2026-04-27T13:07:26.998Z</time></trkpt><trkpt lat="42.180585073994074" lon="13.278652622297853"><ele>819.6666666666666</ele><time>2026-04-27T13:07:27.998Z</time></trkpt><trkpt lat="42.18059549086878" lon="13.278458630474836"><ele>819.3333333333333</ele><time>2026-04-27T13:07:28.998Z</time></trkpt><trkpt lat="42.18063369096964" lon="13.278262733791607"><ele>819.0</ele><time>2026-04-27T13:07:29.998Z</time></trkpt><trkpt lat="42.180665611162254" lon="13.278045705251214"><ele>817.6666666666667</ele><time>2026-04-27T13:07:30.998Z</time></trkpt><trkpt lat="42.18069307138913" lon="13.277820706751417"><ele>816.3333333333334</ele><time>2026-04-27T13:07:31.998Z</time></trkpt><trkpt lat="42.180721015637396" lon="13.277596263668547"><ele>815.0</ele><time>2026-04-27T13:07:32.998Z</time></trkpt><trkpt lat="42.18074923313689" lon="13.27737353904777"><ele>814.3333333333334</ele><time>2026-04-27T13:07:33.998Z</time></trkpt><trkpt lat="42.18077777775144" lon="13.27715273587329"><ele>813.6666666666667</ele><time>2026-04-27T13:07:34.998Z</time></trkpt><trkpt lat="42.180812487864664" lon="13.276932120268471"><ele>813.0</ele><time>2026-04-27T13:07:35.998Z</time></trkpt><trkpt lat="42.18085008639256" lon="13.276710214938634"><ele>813.0</ele><time>2026-04-27T13:07:36.998Z</time></trkpt><trkpt lat="42.18088821862601" lon="13.276490491387689"><ele>813.0</ele><time>2026-04-27T13:07:37.998Z</time></trkpt><trkpt lat="42.18092344767177" lon="13.276269084820765"><ele>813.0</ele><time>2026-04-27T13:07:38.998Z</time></trkpt><trkpt lat="42.18095616893265" lon="13.27604754952617"><ele>812.3333333333333</ele><time>2026-04-27T13:07:39.998Z</time></trkpt><trkpt lat="42.180992328518045" lon="13.275828076913257"><ele>811.6666666666666</ele><time>2026-04-27T13:07:40.998Z</time></trkpt><trkpt lat="42.18103349443937" lon="13.275611210846847"><ele>811.0</ele><time>2026-04-27T13:07:41.998Z</time></trkpt><trkpt lat="42.18107834314382" lon="13.275400720574659"><ele>810.3333333333333</ele><time>2026-04-27T13:07:42.998Z</time></trkpt><trkpt lat="42.18112632127199" lon="13.275185244031944"><ele>809.6666666666667</ele><time>2026-04-27T13:07:43.998Z</time></trkpt><trkpt lat="42.181168550125186" lon="13.274983245065737"><ele>809.0</ele><time>2026-04-27T13:07:44.998Z</time></trkpt><trkpt lat="42.181206351805635" lon="13.274801849437758"><ele>808.0</ele><time>2026-04-27T13:07:45.998Z</time></trkpt><trkpt lat="42.18124245830067" lon="13.274633266488484"><ele>807.0</ele><time>2026-04-27T13:07:46.998Z</time></trkpt><trkpt lat="42.181277973584656" lon="13.274475772693963"><ele>806.0</ele><time>2026-04-27T13:07:47.998Z</time></trkpt><trkpt lat="42.181314113824506" lon="13.27433454303591"><ele>805.0</ele><time>2026-04-27T13:07:48.998Z</time></trkpt><trkpt lat="42.18134673810041" lon="13.274210581920107"><ele>805.0</ele><time>2026-04-27T13:07:49.998Z</time></trkpt><trkpt lat="42.18137260413604" lon="13.274107845803577"><ele>805.0</ele><time>2026-04-27T13:07:50.998Z</time></trkpt><trkpt lat="42.181402994783554" lon="13.273967821984634"><ele>805.0</ele><time>2026-04-27T13:07:52.998Z</time></trkpt><trkpt lat="42.18143213596887" lon="13.273849805659585"><ele>805.0</ele><time>2026-04-27T13:08:01.998Z</time></trkpt><trkpt lat="42.18141772172341" lon="13.273697005692915"><ele>805.0</ele><time>2026-04-27T13:08:04Z</time></trkpt><trkpt lat="42.18163770868429" lon="13.273819354560274"><ele>804.5</ele><time>2026-04-27T13:08:05.999Z</time></trkpt><trkpt lat="42.181699471883846" lon="13.273531743903959"><ele>804.0</ele><time>2026-04-27T13:08:07Z</time></trkpt><trkpt lat="42.18177785263284" lon="13.273430805211124"><ele>803.5</ele><time>2026-04-27T13:08:08Z</time></trkpt><trkpt lat="42.181849529430934" lon="13.27332090744943"><ele>803.0</ele><time>2026-04-27T13:08:08.999Z</time></trkpt><trkpt lat="42.18192116118411" lon="13.273201901036318"><ele>802.75</ele><time>2026-04-27T13:08:10Z</time></trkpt><trkpt lat="42.1818496775962" lon="13.272993341732503"><ele>802.5</ele><time>2026-04-27T13:08:11Z</time></trkpt><trkpt lat="42.18190980300256" lon="13.272851353395687"><ele>802.25</ele><time>2026-04-27T13:08:11.999Z</time></trkpt><trkpt lat="42.18197917931772" lon="13.272687518691031"><ele>802.0</ele><time>2026-04-27T13:08:12.999Z</time></trkpt><trkpt lat="42.18223094317364" lon="13.272723090129142"><ele>802.0</ele><time>2026-04-27T13:08:14Z</time></trkpt><trkpt lat="42.182340072596986" lon="13.272635235781001"><ele>802.0</ele><time>2026-04-27T13:08:14.999Z</time></trkpt><trkpt lat="42.18245347376237" lon="13.272541332023346"><ele>802.0</ele><time>2026-04-27T13:08:15.999Z</time></trkpt><trkpt lat="42.18255984544797" lon="13.272420865727478"><ele>802.0</ele><time>2026-04-27T13:08:17Z</time></trkpt><trkpt lat="42.18265218529608" lon="13.272278454604539"><ele>802.0</ele><time>2026-04-27T13:08:17.999Z</time></trkpt><trkpt lat="42.1827442402353" lon="13.27212497676525"><ele>802.0</ele><time>2026-04-27T13:08:19Z</time></trkpt><trkpt lat="42.182840376018646" lon="13.271992611139046"><ele>802.0</ele><time>2026-04-27T13:08:20Z</time></trkpt><trkpt lat="42.182932654968006" lon="13.27184952153015"><ele>802.0</ele><time>2026-04-27T13:08:21Z</time></trkpt><trkpt lat="42.18301580912699" lon="13.271687014275283"><ele>802.0</ele><time>2026-04-27T13:08:22Z</time></trkpt><trkpt lat="42.18308650105182" lon="13.271522297377837"><ele>802.0</ele><time>2026-04-27T13:08:23Z</time></trkpt><trkpt lat="42.18314769723381" lon="13.271357644819506"><ele>802.0</ele><time>2026-04-27T13:08:24Z</time></trkpt><trkpt lat="42.183208907253615" lon="13.271192606167192"><ele>802.0</ele><time>2026-04-27T13:08:25Z</time></trkpt><trkpt lat="42.18328505270246" lon="13.271068412004462"><ele>801.6</ele><time>2026-04-27T13:08:26Z</time></trkpt><trkpt lat="42.183366601431814" lon="13.270975122349192"><ele>801.2</ele><time>2026-04-27T13:08:27Z</time></trkpt><trkpt lat="42.183446987002" lon="13.270921623674399"><ele>800.8</ele><time>2026-04-27T13:08:28Z</time></trkpt><trkpt lat="42.18353086671312" lon="13.270905957742867"><ele>800.4</ele><time>2026-04-27T13:08:29Z</time></trkpt><trkpt lat="42.18362858273232" lon="13.270924535059493"><ele>800.0</ele><time>2026-04-27T13:08:30Z</time></trkpt><trkpt lat="42.18374528655012" lon="13.270926494721579"><ele>800.0</ele><time>2026-04-27T13:08:31Z</time></trkpt><trkpt lat="42.18388506713613" lon="13.270933286316286"><ele>800.0</ele><time>2026-04-27T13:08:32Z</time></trkpt><trkpt lat="42.18402222137796" lon="13.27091283039582"><ele>800.0</ele><time>2026-04-27T13:08:33Z</time></trkpt><trkpt lat="42.184145392076026" lon="13.270888852406102"><ele>800.0</ele><time>2026-04-27T13:08:34Z</time></trkpt><trkpt lat="42.18429345542717" lon="13.270873475005029"><ele>800.0</ele><time>2026-04-27T13:08:35Z</time></trkpt><trkpt lat="42.18442486770706" lon="13.27081212038322"><ele>800.0</ele><time>2026-04-27T13:08:36Z</time></trkpt><trkpt lat="42.18455143437783" lon="13.270703154878156"><ele>800.0</ele><time>2026-04-27T13:08:37Z</time></trkpt><trkpt lat="42.184675631391805" lon="13.270601276411918"><ele>800.0</ele><time>2026-04-27T13:08:38Z</time></trkpt><trkpt lat="42.18480359899552" lon="13.270477176284253"><ele>800.6666666666667</ele><time>2026-04-27T13:08:39Z</time></trkpt><trkpt lat="42.184935204737016" lon="13.270337392153495"><ele>801.3333333333333</ele><time>2026-04-27T13:08:40Z</time></trkpt><trkpt lat="42.1850695193598" lon="13.270200692163572"><ele>802.0</ele><time>2026-04-27T13:08:41Z</time></trkpt><trkpt lat="42.185211296694014" lon="13.270071521570545"><ele>802.0</ele><time>2026-04-27T13:08:42Z</time></trkpt><trkpt lat="42.18535993407271" lon="13.269956739698474"><ele>802.0</ele><time>2026-04-27T13:08:43Z</time></trkpt><trkpt lat="42.18551934723579" lon="13.269852649627005"><ele>802.0</ele><time>2026-04-27T13:08:44Z</time></trkpt><trkpt lat="42.1856741132771" lon="13.269749532999647"><ele>802.3333333333333</ele><time>2026-04-27T13:08:45Z</time></trkpt><trkpt lat="42.18583135242705" lon="13.269637235809537"><ele>802.6666666666667</ele><time>2026-04-27T13:08:46Z</time></trkpt><trkpt lat="42.18598908372849" lon="13.26953586969072"><ele>803.0</ele><time>2026-04-27T13:08:47Z</time></trkpt><trkpt lat="42.18614731475861" lon="13.269438492152371"><ele>803.0</ele><time>2026-04-27T13:08:48Z</time></trkpt><trkpt lat="42.18629924353088" lon="13.269332503690741"><ele>803.0</ele><time>2026-04-27T13:08:49Z</time></trkpt><trkpt lat="42.18644571178993" lon="13.26924494468608"><ele>803.0</ele><time>2026-04-27T13:08:50Z</time></trkpt><trkpt lat="42.186601080295624" lon="13.269167831281624"><ele>803.0</ele><time>2026-04-27T13:08:51Z</time></trkpt><trkpt lat="42.18675083722479" lon="13.269085408868726"><ele>803.0</ele><time>2026-04-27T13:08:52Z</time></trkpt><trkpt lat="42.18689122510418" lon="13.268979448935852"><ele>803.0</ele><time>2026-04-27T13:08:53Z</time></trkpt><trkpt lat="42.187025949972586" lon="13.268847470136153"><ele>802.6666666666667</ele><time>2026-04-27T13:08:54Z</time></trkpt><trkpt lat="42.18716134835446" lon="13.268712439932042"><ele>802.3333333333333</ele><time>2026-04-27T13:08:55Z</time></trkpt><trkpt lat="42.18728993021158" lon="13.268580179501587"><ele>802.0</ele><time>2026-04-27T13:08:56Z</time></trkpt><trkpt lat="42.187437231889724" lon="13.268463330464591"><ele>802.0</ele><time>2026-04-27T13:08:57Z</time></trkpt><trkpt lat="42.187584172579854" lon="13.268366496021194"><ele>802.0</ele><time>2026-04-27T13:08:58Z</time></trkpt><trkpt lat="42.187728020408" lon="13.268254414152947"><ele>802.0</ele><time>2026-04-27T13:08:59Z</time></trkpt><trkpt lat="42.18786710517124" lon="13.26813807209969"><ele>802.0</ele><time>2026-04-27T13:09:00Z</time></trkpt><trkpt lat="42.187981571339776" lon="13.268044838516635"><ele>802.0</ele><time>2026-04-27T13:09:01Z</time></trkpt><trkpt lat="42.18808218906624" lon="13.267958738452402"><ele>802.0</ele><time>2026-04-27T13:09:02Z</time></trkpt><trkpt lat="42.188172718086484" lon="13.267896794266647"><ele>802.0</ele><time>2026-04-27T13:09:03Z</time></trkpt><trkpt lat="42.188270517777745" lon="13.26785182143053"><ele>802.75</ele><time>2026-04-27T13:09:04Z</time></trkpt><trkpt lat="42.18839698773707" lon="13.26782785822529"><ele>803.5</ele><time>2026-04-27T13:09:05Z</time></trkpt><trkpt lat="42.18853072390921" lon="13.267794124120057"><ele>804.25</ele><time>2026-04-27T13:09:06Z</time></trkpt><trkpt lat="42.188673432894035" lon="13.267730549561643"><ele>805.0</ele><time>2026-04-27T13:09:07Z</time></trkpt><trkpt lat="42.18880810700235" lon="13.267647300675298"><ele>805.0</ele><time>2026-04-27T13:09:08Z</time></trkpt><trkpt lat="42.188933847430874" lon="13.267558853901951"><ele>805.0</ele><time>2026-04-27T13:09:09Z</time></trkpt><trkpt lat="42.18904022884447" lon="13.267482819834445"><ele>805.0</ele><time>2026-04-27T13:09:10Z</time></trkpt><trkpt lat="42.18915192630183" lon="13.26740773901476"><ele>805.0</ele><time>2026-04-27T13:09:11Z</time></trkpt><trkpt lat="42.18927365492931" lon="13.26731376204473"><ele>804.6666666666666</ele><time>2026-04-27T13:09:12Z</time></trkpt><trkpt lat="42.18939902030042" lon="13.267207784322745"><ele>804.3333333333333</ele><time>2026-04-27T13:09:13Z</time></trkpt><trkpt lat="42.18952468700236" lon="13.267085299742355"><ele>804.0</ele><time>2026-04-27T13:09:14Z</time></trkpt><trkpt lat="42.1896489905781" lon="13.266958498617438"><ele>804.0</ele><time>2026-04-27T13:09:15Z</time></trkpt><trkpt lat="42.18976811519105" lon="13.26683665022581"><ele>804.0</ele><time>2026-04-27T13:09:16Z</time></trkpt><trkpt lat="42.189896407488284" lon="13.266716828645276"><ele>804.0</ele><time>2026-04-27T13:09:17Z</time></trkpt><trkpt lat="42.19003957683661" lon="13.266617481985211"><ele>804.5</ele><time>2026-04-27T13:09:18Z</time></trkpt><trkpt lat="42.19018438602597" lon="13.266535213567126"><ele>805.0</ele><time>2026-04-27T13:09:19Z</time></trkpt><trkpt lat="42.19031000483118" lon="13.266465232164496"><ele>805.5</ele><time>2026-04-27T13:09:20Z</time></trkpt><trkpt lat="42.19042540330077" lon="13.266366143316569"><ele>806.0</ele><time>2026-04-27T13:09:20.999Z</time></trkpt><trkpt lat="42.19053636642981" lon="13.26622983436139"><ele>806.0</ele><time>2026-04-27T13:09:21.999Z</time></trkpt><trkpt lat="42.190655377562315" lon="13.266088965632097"><ele>806.0</ele><time>2026-04-27T13:09:22.999Z</time></trkpt><trkpt lat="42.19079074292557" lon="13.26596062130031"><ele>806.0</ele><time>2026-04-27T13:09:23.999Z</time></trkpt><trkpt lat="42.19091228352931" lon="13.265808544987511"><ele>806.3333333333334</ele><time>2026-04-27T13:09:24.999Z</time></trkpt><trkpt lat="42.19102472563255" lon="13.265643943494588"><ele>806.6666666666667</ele><time>2026-04-27T13:09:25.999Z</time></trkpt><trkpt lat="42.19113271039517" lon="13.265492221258091"><ele>807.0</ele><time>2026-04-27T13:09:26.999Z</time></trkpt><trkpt lat="42.19125660260154" lon="13.265348282177834"><ele>807.0</ele><time>2026-04-27T13:09:27.999Z</time></trkpt><trkpt lat="42.19137911955137" lon="13.265208418670879"><ele>807.0</ele><time>2026-04-27T13:09:28.999Z</time></trkpt><trkpt lat="42.19148413167724" lon="13.265055905501882"><ele>807.0</ele><time>2026-04-27T13:09:29.999Z</time></trkpt><trkpt lat="42.19157022158977" lon="13.264887842846765"><ele>807.5</ele><time>2026-04-27T13:09:30.999Z</time></trkpt><trkpt lat="42.1916622512645" lon="13.264736434947691"><ele>808.0</ele><time>2026-04-27T13:09:31.999Z</time></trkpt><trkpt lat="42.19178262388563" lon="13.264653637566209"><ele>808.5</ele><time>2026-04-27T13:09:32.999Z</time></trkpt><trkpt lat="42.19190369589869" lon="13.264563314396353"><ele>809.0</ele><time>2026-04-27T13:09:33.999Z</time></trkpt><trkpt lat="42.19203025856569" lon="13.26447313301512"><ele>809.0</ele><time>2026-04-27T13:09:34.999Z</time></trkpt><trkpt lat="42.19215790681374" lon="13.26438094883761"><ele>809.0</ele><time>2026-04-27T13:09:35.999Z</time></trkpt><trkpt lat="42.192294827194104" lon="13.264320537583433"><ele>809.0</ele><time>2026-04-27T13:09:36.999Z</time></trkpt><trkpt lat="42.19242478092428" lon="13.264265264530582"><ele>809.0</ele><time>2026-04-27T13:09:37.999Z</time></trkpt><trkpt lat="42.19255818949253" lon="13.264198038875374"><ele>810.0</ele><time>2026-04-27T13:09:38.999Z</time></trkpt><trkpt lat="42.192692254856475" lon="13.264116235601772"><ele>811.0</ele><time>2026-04-27T13:09:39.999Z</time></trkpt><trkpt lat="42.192822492435525" lon="13.264032132874767"><ele>812.0</ele><time>2026-04-27T13:09:40.999Z</time></trkpt><trkpt lat="42.19295060200759" lon="13.26396078050814"><ele>813.0</ele><time>2026-04-27T13:09:41.999Z</time></trkpt><trkpt lat="42.19308432701349" lon="13.263890956806929"><ele>813.3333333333333</ele><time>2026-04-27T13:09:42.999Z</time></trkpt><trkpt lat="42.1932183413777" lon="13.263810741215536"><ele>813.6666666666666</ele><time>2026-04-27T13:09:43.999Z</time></trkpt><trkpt lat="42.193352839150194" lon="13.263711641959688"><ele>814.0</ele><time>2026-04-27T13:09:44.999Z</time></trkpt><trkpt lat="42.19348503481381" lon="13.26359988057768"><ele>814.0</ele><time>2026-04-27T13:09:45.999Z</time></trkpt><trkpt lat="42.19361532872601" lon="13.263485154141014"><ele>814.0</ele><time>2026-04-27T13:09:46.999Z</time></trkpt><trkpt lat="42.1937523140984" lon="13.263365515193577"><ele>814.0</ele><time>2026-04-27T13:09:47.999Z</time></trkpt><trkpt lat="42.193873770426315" lon="13.263261911796516"><ele>814.0</ele><time>2026-04-27T13:09:48.999Z</time></trkpt><trkpt lat="42.193992325430095" lon="13.263176759724958"><ele>814.0</ele><time>2026-04-27T13:09:49.999Z</time></trkpt><trkpt lat="42.19410765591425" lon="13.263098525558538"><ele>814.0</ele><time>2026-04-27T13:09:50.999Z</time></trkpt><trkpt lat="42.19420384478999" lon="13.263026127758959"><ele>814.0</ele><time>2026-04-27T13:09:51.999Z</time></trkpt><trkpt lat="42.19430609943581" lon="13.262999568922881"><ele>814.25</ele><time>2026-04-27T13:09:52.999Z</time></trkpt><trkpt lat="42.1944221754673" lon="13.262988227236477"><ele>814.5</ele><time>2026-04-27T13:09:53.999Z</time></trkpt><trkpt lat="42.19455446181745" lon="13.26293588297494"><ele>814.75</ele><time>2026-04-27T13:09:54.999Z</time></trkpt><trkpt lat="42.194686176321575" lon="13.262905013222232"><ele>815.0</ele><time>2026-04-27T13:09:55.999Z</time></trkpt><trkpt lat="42.19481128126669" lon="13.262851074879586"><ele>815.0</ele><time>2026-04-27T13:09:56.999Z</time></trkpt><trkpt lat="42.19492842253413" lon="13.262819613150597"><ele>815.0</ele><time>2026-04-27T13:09:57.999Z</time></trkpt><trkpt lat="42.1950315910793" lon="13.26285651916067"><ele>815.0</ele><time>2026-04-27T13:09:58.999Z</time></trkpt><trkpt lat="42.19514522204921" lon="13.262897776159667"><ele>815.0</ele><time>2026-04-27T13:09:59.999Z</time></trkpt><trkpt lat="42.19526185243391" lon="13.26292846582995"><ele>815.0</ele><time>2026-04-27T13:10:00.999Z</time></trkpt><trkpt lat="42.19534839439556" lon="13.262976634542682"><ele>815.0</ele><time>2026-04-27T13:10:01.999Z</time></trkpt><trkpt lat="42.19541490916847" lon="13.263007475681102"><ele>815.0</ele><time>2026-04-27T13:10:02.999Z</time></trkpt><trkpt lat="42.19549033015195" lon="13.262967235302366"><ele>815.0</ele><time>2026-04-27T13:10:03.999Z</time></trkpt><trkpt lat="42.19554510917909" lon="13.262846006034293"><ele>815.0</ele><time>2026-04-27T13:10:04.999Z</time></trkpt><trkpt lat="42.195599927812744" lon="13.262709008103997"><ele>815.0</ele><time>2026-04-27T13:10:05.999Z</time></trkpt><trkpt lat="42.19565052960479" lon="13.26255135968209"><ele>815.0</ele><time>2026-04-27T13:10:06.999Z</time></trkpt><trkpt lat="42.19571144223849" lon="13.26238251551802"><ele>815.0</ele><time>2026-04-27T13:10:07.999Z</time></trkpt><trkpt lat="42.19577743650233" lon="13.26220547010987"><ele>815.0</ele><time>2026-04-27T13:10:08.999Z</time></trkpt><trkpt lat="42.195852755018215" lon="13.262035849899545"><ele>815.0</ele><time>2026-04-27T13:10:10Z</time></trkpt><trkpt lat="42.19592546871099" lon="13.261869117933198"><ele>815.0</ele><time>2026-04-27T13:10:11Z</time></trkpt><trkpt lat="42.19598131829075" lon="13.261698874234211"><ele>815.0</ele><time>2026-04-27T13:10:12Z</time></trkpt><trkpt lat="42.196029581261634" lon="13.261518347397336"><ele>815.0</ele><time>2026-04-27T13:10:13Z</time></trkpt><trkpt lat="42.196078845244166" lon="13.261347932260863"><ele>814.75</ele><time>2026-04-27T13:10:14Z</time></trkpt><trkpt lat="42.19613606045276" lon="13.261188431595992"><ele>814.5</ele><time>2026-04-27T13:10:15Z</time></trkpt><trkpt lat="42.19618405932255" lon="13.261019290717286"><ele>814.25</ele><time>2026-04-27T13:10:16Z</time></trkpt><trkpt lat="42.19621053808982" lon="13.260835885565724"><ele>814.0</ele><time>2026-04-27T13:10:17Z</time></trkpt><trkpt lat="42.196233901684465" lon="13.260662660773631"><ele>813.4999999999999</ele><time>2026-04-27T13:10:18Z</time></trkpt><trkpt lat="42.19626326487022" lon="13.260524965859236"><ele>813.0</ele><time>2026-04-27T13:10:19Z</time></trkpt><trkpt lat="42.19630764094768" lon="13.26043388691778"><ele>812.5</ele><time>2026-04-27T13:10:20Z</time></trkpt><trkpt lat="42.19636590038293" lon="13.260384285710243"><ele>812.0</ele><time>2026-04-27T13:10:21Z</time></trkpt><trkpt lat="42.19644798146709" lon="13.26038614158887"><ele>811.4999999999999</ele><time>2026-04-27T13:10:22Z</time></trkpt><trkpt lat="42.19653683489935" lon="13.260344411115366"><ele>811.0</ele><time>2026-04-27T13:10:23Z</time></trkpt><trkpt lat="42.19664569807586" lon="13.260337723975477"><ele>810.5</ele><time>2026-04-27T13:10:24Z</time></trkpt><trkpt lat="42.19677875802974" lon="13.260349226676245"><ele>810.0</ele><time>2026-04-27T13:10:25Z</time></trkpt><trkpt lat="42.19690755082207" lon="13.260335053699748"><ele>809.5</ele><time>2026-04-27T13:10:26Z</time></trkpt><trkpt lat="42.197034321895785" lon="13.260289287852267"><ele>809.0</ele><time>2026-04-27T13:10:27Z</time></trkpt><trkpt lat="42.19715932796158" lon="13.260237484187055"><ele>809.0</ele><time>2026-04-27T13:10:28Z</time></trkpt><trkpt lat="42.197291305172435" lon="13.260184451637208"><ele>809.0</ele><time>2026-04-27T13:10:29Z</time></trkpt><trkpt lat="42.197417487972594" lon="13.260122259190615"><ele>809.0</ele><time>2026-04-27T13:10:30Z</time></trkpt><trkpt lat="42.19754586962642" lon="13.260036585706063"><ele>809.0</ele><time>2026-04-27T13:10:31Z</time></trkpt><trkpt lat="42.19767068396966" lon="13.259935417235067"><ele>808.75</ele><time>2026-04-27T13:10:32Z</time></trkpt><trkpt lat="42.197788830736705" lon="13.259813871758135"><ele>808.5</ele><time>2026-04-27T13:10:33Z</time></trkpt><trkpt lat="42.197897802382776" lon="13.259697098218155"><ele>808.25</ele><time>2026-04-27T13:10:34Z</time></trkpt><trkpt lat="42.198006450265524" lon="13.259590633290683"><ele>808.0</ele><time>2026-04-27T13:10:35Z</time></trkpt><trkpt lat="42.19811571200362" lon="13.259495537765"><ele>808.8333333333333</ele><time>2026-04-27T13:10:36Z</time></trkpt><trkpt lat="42.198204138005536" lon="13.259419295667346"><ele>809.6666666666666</ele><time>2026-04-27T13:10:37Z</time></trkpt><trkpt lat="42.19827630745498" lon="13.259386942233881"><ele>810.5</ele><time>2026-04-27T13:10:38Z</time></trkpt><trkpt lat="42.198342340007734" lon="13.259381806244825"><ele>811.3333333333333</ele><time>2026-04-27T13:10:39Z</time></trkpt><trkpt lat="42.19842141032706" lon="13.25944034044"><ele>812.1666666666666</ele><time>2026-04-27T13:10:40Z</time></trkpt><trkpt lat="42.198526166690854" lon="13.259434027093537"><ele>813.0</ele><time>2026-04-27T13:10:41Z</time></trkpt><trkpt lat="42.19863247445811" lon="13.25941713883485"><ele>813.0</ele><time>2026-04-27T13:10:42Z</time></trkpt><trkpt lat="42.198741455490506" lon="13.259353873148086"><ele>813.0</ele><time>2026-04-27T13:10:43Z</time></trkpt><trkpt lat="42.1988641873937" lon="13.25928023250546"><ele>813.0</ele><time>2026-04-27T13:10:44Z</time></trkpt><trkpt lat="42.198997692899006" lon="13.25920003360198"><ele>813.0</ele><time>2026-04-27T13:10:45Z</time></trkpt><trkpt lat="42.19911943739495" lon="13.259115318712032"><ele>813.5999999999999</ele><time>2026-04-27T13:10:46Z</time></trkpt><trkpt lat="42.19922005102853" lon="13.259039961718887"><ele>814.1999999999999</ele><time>2026-04-27T13:10:47Z</time></trkpt><trkpt lat="42.199310291179025" lon="13.258983730442905"><ele>814.8</ele><time>2026-04-27T13:10:48Z</time></trkpt><trkpt lat="42.19940402574988" lon="13.259000796318452"><ele>815.4</ele><time>2026-04-27T13:10:49Z</time></trkpt><trkpt lat="42.19950662087826" lon="13.2590328128286"><ele>816.0</ele><time>2026-04-27T13:10:50Z</time></trkpt><trkpt lat="42.19962106572941" lon="13.259080070060998"><ele>816.0</ele><time>2026-04-27T13:10:51Z</time></trkpt><trkpt lat="42.19971509596749" lon="13.259141854177674"><ele>816.0</ele><time>2026-04-27T13:10:52Z</time></trkpt><trkpt lat="42.19978676459847" lon="13.25920678515846"><ele>816.0</ele><time>2026-04-27T13:10:53Z</time></trkpt><trkpt lat="42.199866012865506" lon="13.25927311317645"><ele>816.0</ele><time>2026-04-27T13:10:55Z</time></trkpt><trkpt lat="42.199892802743534" lon="13.259192012256733"><ele>816.0</ele><time>2026-04-27T13:10:58Z</time></trkpt><trkpt lat="42.199919015041075" lon="13.259051569777977"><ele>815.8</ele><time>2026-04-27T13:11:02Z</time></trkpt><trkpt lat="42.199892049874826" lon="13.258947424130374"><ele>815.5999999999999</ele><time>2026-04-27T13:11:03Z</time></trkpt><trkpt lat="42.19984961041739" lon="13.258827877128954"><ele>815.4</ele><time>2026-04-27T13:11:04Z</time></trkpt><trkpt lat="42.19980105441338" lon="13.258687616828942"><ele>815.2</ele><time>2026-04-27T13:11:05Z</time></trkpt><trkpt lat="42.19975720544184" lon="13.258542477517368"><ele>815.0</ele><time>2026-04-27T13:11:06Z</time></trkpt><trkpt lat="42.199709853123004" lon="13.258389745655073"><ele>815.0</ele><time>2026-04-27T13:11:07Z</time></trkpt><trkpt lat="42.199661471357864" lon="13.258241316696843"><ele>815.0</ele><time>2026-04-27T13:11:08Z</time></trkpt><trkpt lat="42.19961522081102" lon="13.25810816044227"><ele>815.0</ele><time>2026-04-27T13:11:09Z</time></trkpt><trkpt lat="42.19957897504296" lon="13.257986751064324"><ele>815.0</ele><time>2026-04-27T13:11:10Z</time></trkpt><trkpt lat="42.199571648036915" lon="13.257875540647179"><ele>815.0</ele><time>2026-04-27T13:11:11Z</time></trkpt><trkpt lat="42.19958969908493" lon="13.257747292329581"><ele>815.4</ele><time>2026-04-27T13:11:12Z</time></trkpt><trkpt lat="42.19963026094936" lon="13.257602022550117"><ele>815.8</ele><time>2026-04-27T13:11:13Z</time></trkpt><trkpt lat="42.19966956532425" lon="13.257456848543539"><ele>816.2</ele><time>2026-04-27T13:11:14Z</time></trkpt><trkpt lat="42.199704571460515" lon="13.257356309391309"><ele>816.6</ele><time>2026-04-27T13:11:15Z</time></trkpt><trkpt lat="42.19973661809963" lon="13.257279181585526"><ele>817.0</ele><time>2026-04-27T13:11:16Z</time></trkpt><trkpt lat="42.19978864555597" lon="13.25720817695927"><ele>818.0</ele><time>2026-04-27T13:11:17Z</time></trkpt><trkpt lat="42.19986662511337" lon="13.257203412561319"><ele>819.0</ele><time>2026-04-27T13:11:18Z</time></trkpt><trkpt lat="42.19982293320336" lon="13.257035903297977"><ele>820.0</ele><time>2026-04-27T13:11:21Z</time></trkpt><trkpt lat="42.19975913324126" lon="13.256957629317347"><ele>821.0</ele><time>2026-04-27T13:11:21.999Z</time></trkpt><trkpt lat="42.19969961774651" lon="13.256873263629704"><ele>822.0</ele><time>2026-04-27T13:11:22.999Z</time></trkpt><trkpt lat="42.19965193418912" lon="13.256779883395854"><ele>822.0</ele><time>2026-04-27T13:11:23.999Z</time></trkpt><trkpt lat="42.19965435300619" lon="13.256662807641243"><ele>822.0</ele><time>2026-04-27T13:11:25.999Z</time></trkpt><trkpt lat="42.19973161899268" lon="13.256701794759751"><ele>822.0</ele><time>2026-04-27T13:11:27.999Z</time></trkpt><trkpt lat="42.19979222880516" lon="13.256741275295616"><ele>822.0</ele><time>2026-04-27T13:11:28.999Z</time></trkpt><trkpt lat="42.199861418471755" lon="13.256802144458561"><ele>822.0</ele><time>2026-04-27T13:11:29.999Z</time></trkpt><trkpt lat="42.19992839258698" lon="13.256862551131425"><ele>822.0</ele><time>2026-04-27T13:11:30.999Z</time></trkpt><trkpt lat="42.20001169689013" lon="13.256896661566387"><ele>825.75</ele><time>2026-04-27T13:11:31.999Z</time></trkpt><trkpt lat="42.20011634467361" lon="13.256924858084027"><ele>829.5</ele><time>2026-04-27T13:11:32.999Z</time></trkpt><trkpt lat="42.20022378760279" lon="13.256957451038607"><ele>833.25</ele><time>2026-04-27T13:11:33.999Z</time></trkpt><trkpt lat="42.200338791526654" lon="13.25697427404901"><ele>837.0</ele><time>2026-04-27T13:11:34.999Z</time></trkpt><trkpt lat="42.20045656532761" lon="13.256989872870445"><ele>837.0</ele><time>2026-04-27T13:11:35.999Z</time></trkpt><trkpt lat="42.20057461299197" lon="13.257010496574772"><ele>837.0</ele><time>2026-04-27T13:11:36.999Z</time></trkpt><trkpt lat="42.20069408445288" lon="13.257034283749219"><ele>837.0</ele><time>2026-04-27T13:11:37.999Z</time></trkpt><trkpt lat="42.20079809060063" lon="13.257050480124368"><ele>837.0</ele><time>2026-04-27T13:11:38.999Z</time></trkpt><trkpt lat="42.200874036550715" lon="13.257066814702075"><ele>837.0</ele><time>2026-04-27T13:11:39.999Z</time></trkpt><trkpt lat="42.200947444185466" lon="13.257079692211999"><ele>840.2</ele><time>2026-04-27T13:11:41.999Z</time></trkpt><trkpt lat="42.2008833173144" lon="13.256918245532084"><ele>843.4000000000001</ele><time>2026-04-27T13:11:45.999Z</time></trkpt><trkpt lat="42.20096911453441" lon="13.2568768791093"><ele>846.5999999999999</ele><time>2026-04-27T13:11:48.999Z</time></trkpt><trkpt lat="42.20103970711905" lon="13.256862834450558"><ele>849.8</ele><time>2026-04-27T13:11:49.999Z</time></trkpt><trkpt lat="42.20111613611797" lon="13.25685970216829"><ele>853.0</ele><time>2026-04-27T13:11:50.999Z</time></trkpt><trkpt lat="42.20119333643387" lon="13.256869451933357"><ele>852.9999999999999</ele><time>2026-04-27T13:11:51.999Z</time></trkpt><trkpt lat="42.20127367820747" lon="13.256877321209407"><ele>853.0</ele><time>2026-04-27T13:11:52.999Z</time></trkpt><trkpt lat="42.201348928053434" lon="13.256865254629835"><ele>853.0</ele><time>2026-04-27T13:11:53.999Z</time></trkpt><trkpt lat="42.20142776773877" lon="13.256844711018092"><ele>853.0</ele><time>2026-04-27T13:11:54.999Z</time></trkpt><trkpt lat="42.201518075077956" lon="13.256832731299673"><ele>852.9999999999999</ele><time>2026-04-27T13:11:55.999Z</time></trkpt><trkpt lat="42.2016149128077" lon="13.256846352558608"><ele>853.0</ele><time>2026-04-27T13:11:56.999Z</time></trkpt><trkpt lat="42.20171342861274" lon="13.256849358667163"><ele>856.4</ele><time>2026-04-27T13:11:57.999Z</time></trkpt><trkpt lat="42.20181335916688" lon="13.256847317140364"><ele>859.8</ele><time>2026-04-27T13:11:58.999Z</time></trkpt><trkpt lat="42.201911197125455" lon="13.256860936572394"><ele>863.2</ele><time>2026-04-27T13:11:59.999Z</time></trkpt><trkpt lat="42.20200759875503" lon="13.256863246064654"><ele>866.6</ele><time>2026-04-27T13:12:00.999Z</time></trkpt><trkpt lat="42.20210922932662" lon="13.256855804836556"><ele>870.0</ele><time>2026-04-27T13:12:01.999Z</time></trkpt><trkpt lat="42.202211516964795" lon="13.256845227856456"><ele>870.0</ele><time>2026-04-27T13:12:02.999Z</time></trkpt><trkpt lat="42.20231758905404" lon="13.256836201103363"><ele>870.0</ele><time>2026-04-27T13:12:03.999Z</time></trkpt><trkpt lat="42.20241419705205" lon="13.256802538338608"><ele>870.0</ele><time>2026-04-27T13:12:04.999Z</time></trkpt><trkpt lat="42.20250101671153" lon="13.256754133286416"><ele>870.0</ele><time>2026-04-27T13:12:05.999Z</time></trkpt><trkpt lat="42.202590088970354" lon="13.256713152064165"><ele>870.0</ele><time>2026-04-27T13:12:06.999Z</time></trkpt><trkpt lat="42.20267533035002" lon="13.256691544490641"><ele>871.4</ele><time>2026-04-27T13:12:07.999Z</time></trkpt><trkpt lat="42.202757077807966" lon="13.25666913005188"><ele>872.8</ele><time>2026-04-27T13:12:08.999Z</time></trkpt><trkpt lat="42.202821171573596" lon="13.25664315121211"><ele>874.2</ele><time>2026-04-27T13:12:09.999Z</time></trkpt><trkpt lat="42.20291513365296" lon="13.256495801377607"><ele>875.6</ele><time>2026-04-27T13:12:11.999Z</time></trkpt><trkpt lat="42.20296115446922" lon="13.256383364750894"><ele>877.0</ele><time>2026-04-27T13:12:12.999Z</time></trkpt><trkpt lat="42.20301473695415" lon="13.256281655143798"><ele>877.9999999999999</ele><time>2026-04-27T13:12:13.999Z</time></trkpt><trkpt lat="42.20305500593488" lon="13.256182675642487"><ele>879.0</ele><time>2026-04-27T13:12:14.999Z</time></trkpt><trkpt lat="42.20308954832506" lon="13.25608998672017"><ele>880.0</ele><time>2026-04-27T13:12:16Z</time></trkpt><trkpt lat="42.2031256484041" lon="13.256007193884706"><ele>881.0</ele><time>2026-04-27T13:12:17Z</time></trkpt><trkpt lat="42.20318225741801" lon="13.255898825754413"><ele>881.9999999999999</ele><time>2026-04-27T13:12:18Z</time></trkpt><trkpt lat="42.20325353897115" lon="13.255796142220802"><ele>883.0</ele><time>2026-04-27T13:12:19Z</time></trkpt><trkpt lat="42.20331358952652" lon="13.255701064485297"><ele>885.2</ele><time>2026-04-27T13:12:20Z</time></trkpt><trkpt lat="42.20334815717771" lon="13.255609028920617"><ele>887.4</ele><time>2026-04-27T13:12:21Z</time></trkpt><trkpt lat="42.20331598753767" lon="13.255422235622055"><ele>889.6000000000001</ele><time>2026-04-27T13:12:23Z</time></trkpt><trkpt lat="42.20328015703179" lon="13.255309004758187"><ele>891.8000000000001</ele><time>2026-04-27T13:12:24Z</time></trkpt><trkpt lat="42.20327754228232" lon="13.255184914970668"><ele>894.0</ele><time>2026-04-27T13:12:25Z</time></trkpt><trkpt lat="42.203255305351206" lon="13.255065008522182"><ele>894.0</ele><time>2026-04-27T13:12:26Z</time></trkpt><trkpt lat="42.20326180537452" lon="13.25495803343673"><ele>894.0</ele><time>2026-04-27T13:12:27Z</time></trkpt><trkpt lat="42.20331536002297" lon="13.254902140638809"><ele>894.0</ele><time>2026-04-27T13:12:29Z</time></trkpt><trkpt lat="42.203416864533175" lon="13.254992058469035"><ele>894.0</ele><time>2026-04-27T13:12:31Z</time></trkpt><trkpt lat="42.203461087782216" lon="13.255065757608618"><ele>894.0</ele><time>2026-04-27T13:12:32Z</time></trkpt><trkpt lat="42.20355825936325" lon="13.255123427859457"><ele>894.0</ele><time>2026-04-27T13:12:34Z</time></trkpt><trkpt lat="42.203642678552576" lon="13.255169646906356"><ele>894.0</ele><time>2026-04-27T13:12:35Z</time></trkpt><trkpt lat="42.20370752817701" lon="13.255238464237475"><ele>894.0000000000001</ele><time>2026-04-27T13:12:36Z</time></trkpt><trkpt lat="42.20378813533503" lon="13.255318217691443"><ele>894.0000000000001</ele><time>2026-04-27T13:12:37Z</time></trkpt><trkpt lat="42.203871553359484" lon="13.25540078586688"><ele>894.0</ele><time>2026-04-27T13:12:38Z</time></trkpt><trkpt lat="42.20396122903341" lon="13.2554885134564"><ele>894.0</ele><time>2026-04-27T13:12:39Z</time></trkpt><trkpt lat="42.2040394869612" lon="13.255589012924695"><ele>895.5</ele><time>2026-04-27T13:12:40Z</time></trkpt><trkpt lat="42.20411386120251" lon="13.255708522810265"><ele>897.0</ele><time>2026-04-27T13:12:41Z</time></trkpt><trkpt lat="42.20419035658888" lon="13.255840276625474"><ele>898.5</ele><time>2026-04-27T13:12:42Z</time></trkpt><trkpt lat="42.20429125969909" lon="13.255947011676191"><ele>900.0</ele><time>2026-04-27T13:12:43Z</time></trkpt><trkpt lat="42.20441916521085" lon="13.256043316030201"><ele>900.0</ele><time>2026-04-27T13:12:44Z</time></trkpt><trkpt lat="42.204553770686" lon="13.256118628415344"><ele>900.0</ele><time>2026-04-27T13:12:45Z</time></trkpt><trkpt lat="42.2046906555519" lon="13.256194098310738"><ele>900.0</ele><time>2026-04-27T13:12:46Z</time></trkpt><trkpt lat="42.20482351802055" lon="13.256293867348987"><ele>900.0</ele><time>2026-04-27T13:12:47Z</time></trkpt><trkpt lat="42.20493722079964" lon="13.256414080191306"><ele>903.3333333333333</ele><time>2026-04-27T13:12:48Z</time></trkpt><trkpt lat="42.205034395824796" lon="13.256565393428728"><ele>906.6666666666666</ele><time>2026-04-27T13:12:49Z</time></trkpt><trkpt lat="42.20512512144739" lon="13.25674516983518"><ele>910.0</ele><time>2026-04-27T13:12:50Z</time></trkpt><trkpt lat="42.20521539015753" lon="13.256932233706701"><ele>910.0</ele><time>2026-04-27T13:12:51Z</time></trkpt><trkpt lat="42.20530363526972" lon="13.257115488469594"><ele>910.0</ele><time>2026-04-27T13:12:52Z</time></trkpt><trkpt lat="42.205384440478" lon="13.2573116842009"><ele>910.0</ele><time>2026-04-27T13:12:53Z</time></trkpt><trkpt lat="42.20545658645691" lon="13.257516237872387"><ele>907.0</ele><time>2026-04-27T13:12:54Z</time></trkpt><trkpt lat="42.20553838662717" lon="13.257702056794193"><ele>904.0</ele><time>2026-04-27T13:12:55Z</time></trkpt><trkpt lat="42.20561870694365" lon="13.257829204485867"><ele>901.0</ele><time>2026-04-27T13:12:56Z</time></trkpt><trkpt lat="42.20570806897852" lon="13.257881416417261"><ele>898.0</ele><time>2026-04-27T13:12:57Z</time></trkpt><trkpt lat="42.20582585895434" lon="13.257941261428458"><ele>902.75</ele><time>2026-04-27T13:12:58Z</time></trkpt><trkpt lat="42.20595136341891" lon="13.258025358586874"><ele>907.5</ele><time>2026-04-27T13:12:59Z</time></trkpt><trkpt lat="42.206068993902264" lon="13.258113594074914"><ele>912.25</ele><time>2026-04-27T13:13:00Z</time></trkpt><trkpt lat="42.2061425305034" lon="13.258204876903278"><ele>917.0</ele><time>2026-04-27T13:13:01Z</time></trkpt><trkpt lat="42.20619852457921" lon="13.258317755813378"><ele>917.0</ele><time>2026-04-27T13:13:02Z</time></trkpt><trkpt lat="42.2061675318713" lon="13.258487813146221"><ele>917.0</ele><time>2026-04-27T13:13:03Z</time></trkpt><trkpt lat="42.206160523629926" lon="13.258666811328816"><ele>917.0</ele><time>2026-04-27T13:13:04Z</time></trkpt><trkpt lat="42.206152061083706" lon="13.25885532418559"><ele>917.0</ele><time>2026-04-27T13:13:05Z</time></trkpt><trkpt lat="42.20614183484856" lon="13.259068690025874"><ele>915.0</ele><time>2026-04-27T13:13:06Z</time></trkpt><trkpt lat="42.20615625860623" lon="13.259287052505154"><ele>913.0</ele><time>2026-04-27T13:13:07Z</time></trkpt><trkpt lat="42.206155786052086" lon="13.259499426937788"><ele>911.0</ele><time>2026-04-27T13:13:08Z</time></trkpt><trkpt lat="42.20618928162627" lon="13.259689635726412"><ele>909.5</ele><time>2026-04-27T13:13:09Z</time></trkpt><trkpt lat="42.206259037035196" lon="13.259848188609192"><ele>908.0</ele><time>2026-04-27T13:13:10Z</time></trkpt><trkpt lat="42.20636360642734" lon="13.259987282266664"><ele>906.5</ele><time>2026-04-27T13:13:11Z</time></trkpt><trkpt lat="42.20647713838009" lon="13.260134519829696"><ele>905.0</ele><time>2026-04-27T13:13:12Z</time></trkpt><trkpt lat="42.20657657024514" lon="13.260299210827128"><ele>912.0</ele><time>2026-04-27T13:13:13Z</time></trkpt><trkpt lat="42.20669786327485" lon="13.260450240748332"><ele>919.0</ele><time>2026-04-27T13:13:14Z</time></trkpt><trkpt lat="42.206807582048576" lon="13.260633847445932"><ele>926.0</ele><time>2026-04-27T13:13:15Z</time></trkpt><trkpt lat="42.20692464444887" lon="13.260816057976806"><ele>926.0</ele><time>2026-04-27T13:13:16Z</time></trkpt><trkpt lat="42.207025230057745" lon="13.261018335971244"><ele>926.0</ele><time>2026-04-27T13:13:17Z</time></trkpt><trkpt lat="42.207129203741545" lon="13.261212188316145"><ele>926.0</ele><time>2026-04-27T13:13:18Z</time></trkpt><trkpt lat="42.20722349456493" lon="13.261399905422108"><ele>930.25</ele><time>2026-04-27T13:13:19Z</time></trkpt><trkpt lat="42.20731166787608" lon="13.261567387264837"><ele>934.5</ele><time>2026-04-27T13:13:20Z</time></trkpt><trkpt lat="42.20740887173649" lon="13.261729484004215"><ele>938.75</ele><time>2026-04-27T13:13:21Z</time></trkpt><trkpt lat="42.207514164296924" lon="13.261844161080553"><ele>943.0</ele><time>2026-04-27T13:13:22Z</time></trkpt><trkpt lat="42.207607126468446" lon="13.26190995362126"><ele>943.0</ele><time>2026-04-27T13:13:23Z</time></trkpt><trkpt lat="42.20769557017955" lon="13.261908697838095"><ele>943.0</ele><time>2026-04-27T13:13:24Z</time></trkpt><trkpt lat="42.20776885886177" lon="13.261827500792101"><ele>943.0</ele><time>2026-04-27T13:13:24.999Z</time></trkpt><trkpt lat="42.20783427468575" lon="13.261734974918314"><ele>943.0</ele><time>2026-04-27T13:13:25.999Z</time></trkpt><trkpt lat="42.207889928385036" lon="13.26164500071809"><ele>943.0</ele><time>2026-04-27T13:13:26.999Z</time></trkpt><trkpt lat="42.207869968244275" lon="13.261508035839363"><ele>943.0</ele><time>2026-04-27T13:13:28.999Z</time></trkpt><trkpt lat="42.20775251246798" lon="13.261566203613771"><ele>943.0</ele><time>2026-04-27T13:13:30.999Z</time></trkpt><trkpt lat="42.20768762867861" lon="13.26160529778009"><ele>943.0</ele><time>2026-04-27T13:13:31.999Z</time></trkpt><trkpt lat="42.20761706367517" lon="13.261475366977693"><ele>943.0</ele><time>2026-04-27T13:13:33.999Z</time></trkpt><trkpt lat="42.207597719501" lon="13.261357857407257"><ele>943.0</ele><time>2026-04-27T13:13:34.999Z</time></trkpt><trkpt lat="42.2075560968818" lon="13.261236470924237"><ele>943.0</ele><time>2026-04-27T13:13:35.999Z</time></trkpt><trkpt lat="42.207502436877505" lon="13.261100123129822"><ele>943.0</ele><time>2026-04-27T13:13:36.999Z</time></trkpt><trkpt lat="42.20744201643582" lon="13.260960996036008"><ele>943.0</ele><time>2026-04-27T13:13:37.999Z</time></trkpt><trkpt lat="42.20735011152337" lon="13.260786658149872"><ele>943.0</ele><time>2026-04-27T13:13:38.999Z</time></trkpt><trkpt lat="42.207267432546374" lon="13.260613078506902"><ele>943.0</ele><time>2026-04-27T13:13:39.999Z</time></trkpt><trkpt lat="42.20718506270554" lon="13.260423551597007"><ele>943.0</ele><time>2026-04-27T13:13:40.999Z</time></trkpt><trkpt lat="42.207112883730716" lon="13.260215726687958"><ele>943.0</ele><time>2026-04-27T13:13:41.999Z</time></trkpt><trkpt lat="42.20705075967848" lon="13.260004350325183"><ele>943.0</ele><time>2026-04-27T13:13:42.999Z</time></trkpt><trkpt lat="42.206992212629864" lon="13.259805837259792"><ele>943.0</ele><time>2026-04-27T13:13:43.999Z</time></trkpt><trkpt lat="42.20694523995078" lon="13.259644032443092"><ele>943.0</ele><time>2026-04-27T13:13:44.999Z</time></trkpt><trkpt lat="42.20692204641249" lon="13.2595079610832"><ele>943.0</ele><time>2026-04-27T13:13:45.999Z</time></trkpt><trkpt lat="42.206936722934216" lon="13.259379776611066"><ele>945.0</ele><time>2026-04-27T13:13:46.999Z</time></trkpt><trkpt lat="42.206987534952205" lon="13.259230297134854"><ele>947.0</ele><time>2026-04-27T13:13:47.999Z</time></trkpt><trkpt lat="42.207055206562615" lon="13.259073572166924"><ele>949.0</ele><time>2026-04-27T13:13:48.999Z</time></trkpt><trkpt lat="42.20713008706919" lon="13.258901237989217"><ele>951.0</ele><time>2026-04-27T13:13:49.999Z</time></trkpt><trkpt lat="42.20719895386717" lon="13.258723155450879"><ele>951.0</ele><time>2026-04-27T13:13:50.999Z</time></trkpt><trkpt lat="42.20724842274781" lon="13.258531348928809"><ele>951.0</ele><time>2026-04-27T13:13:51.999Z</time></trkpt><trkpt lat="42.207275504514726" lon="13.25833156546485"><ele>951.0</ele><time>2026-04-27T13:13:52.999Z</time></trkpt><trkpt lat="42.20729766927421" lon="13.25812248726052"><ele>954.75</ele><time>2026-04-27T13:13:53.999Z</time></trkpt><trkpt lat="42.20730640154969" lon="13.2579382261562"><ele>958.5</ele><time>2026-04-27T13:13:54.999Z</time></trkpt><trkpt lat="42.20729074235566" lon="13.25776408590243"><ele>962.25</ele><time>2026-04-27T13:13:55.999Z</time></trkpt><trkpt lat="42.20723520656993" lon="13.257605332919983"><ele>966.0</ele><time>2026-04-27T13:13:56.999Z</time></trkpt><trkpt lat="42.207145417529" lon="13.257460815553985"><ele>966.0</ele><time>2026-04-27T13:13:57.999Z</time></trkpt><trkpt lat="42.20703684698358" lon="13.257327501556276"><ele>966.0</ele><time>2026-04-27T13:13:58.999Z</time></trkpt><trkpt lat="42.20692338556958" lon="13.257192687873653"><ele>966.0</ele><time>2026-04-27T13:13:59.999Z</time></trkpt><trkpt lat="42.20681274516629" lon="13.257044159126478"><ele>971.25</ele><time>2026-04-27T13:14:00.999Z</time></trkpt><trkpt lat="42.20671441135744" lon="13.256895269650125"><ele>976.5</ele><time>2026-04-27T13:14:01.999Z</time></trkpt><trkpt lat="42.20664584000665" lon="13.256744327648617"><ele>981.75</ele><time>2026-04-27T13:14:02.999Z</time></trkpt><trkpt lat="42.206592372433896" lon="13.256579225711622"><ele>987.0</ele><time>2026-04-27T13:14:03.999Z</time></trkpt><trkpt lat="42.206539593741155" lon="13.256405201098264"><ele>990.5</ele><time>2026-04-27T13:14:04.999Z</time></trkpt><trkpt lat="42.20649599761845" lon="13.256222335360388"><ele>994.0</ele><time>2026-04-27T13:14:05.999Z</time></trkpt><trkpt lat="42.20646499292015" lon="13.256029868173284"><ele>997.5</ele><time>2026-04-27T13:14:06.999Z</time></trkpt><trkpt lat="42.20644161187252" lon="13.25582875158449"><ele>1001.0</ele><time>2026-04-27T13:14:07.999Z</time></trkpt><trkpt lat="42.20644057276743" lon="13.255625737899186"><ele>992.3333333333334</ele><time>2026-04-27T13:14:08.999Z</time></trkpt><trkpt lat="42.20645662199506" lon="13.255421122183932"><ele>983.6666666666667</ele><time>2026-04-27T13:14:09.999Z</time></trkpt><trkpt lat="42.20648035715877" lon="13.255222514332926"><ele>975.0</ele><time>2026-04-27T13:14:10.999Z</time></trkpt><trkpt lat="42.20648199230368" lon="13.255012262498637"><ele>975.0</ele><time>2026-04-27T13:14:11.999Z</time></trkpt><trkpt lat="42.2064574028878" lon="13.254791270041329"><ele>975.0</ele><time>2026-04-27T13:14:12.999Z</time></trkpt><trkpt lat="42.20642670625813" lon="13.25457408590857"><ele>975.0</ele><time>2026-04-27T13:14:13.999Z</time></trkpt><trkpt lat="42.206411964898265" lon="13.254393484519445"><ele>974.75</ele><time>2026-04-27T13:14:14.999Z</time></trkpt><trkpt lat="42.20640362648185" lon="13.254231293542388"><ele>974.5</ele><time>2026-04-27T13:14:15.999Z</time></trkpt><trkpt lat="42.20640839537068" lon="13.254055995833218"><ele>974.25</ele><time>2026-04-27T13:14:16.999Z</time></trkpt><trkpt lat="42.20643393488261" lon="13.253874194470503"><ele>974.0</ele><time>2026-04-27T13:14:17.999Z</time></trkpt><trkpt lat="42.20647052015244" lon="13.253684061742186"><ele>981.25</ele><time>2026-04-27T13:14:18.999Z</time></trkpt><trkpt lat="42.206521224101415" lon="13.253497614390799"><ele>988.5</ele><time>2026-04-27T13:14:19.999Z</time></trkpt><trkpt lat="42.20660070200434" lon="13.253327959196936"><ele>995.75</ele><time>2026-04-27T13:14:20.999Z</time></trkpt><trkpt lat="42.20665252712442" lon="13.25313640636016"><ele>1003.0</ele><time>2026-04-27T13:14:22Z</time></trkpt><trkpt lat="42.206717904191" lon="13.252956854435464"><ele>1003.0</ele><time>2026-04-27T13:14:23Z</time></trkpt><trkpt lat="42.20676255397735" lon="13.25280919306165"><ele>1003.0</ele><time>2026-04-27T13:14:24Z</time></trkpt><trkpt lat="42.206812937612064" lon="13.252716312654034"><ele>1003.0</ele><time>2026-04-27T13:14:25Z</time></trkpt><trkpt lat="42.20687027269213" lon="13.252644895262732"><ele>1003.0</ele><time>2026-04-27T13:14:27Z</time></trkpt><trkpt lat="42.206858992032096" lon="13.252751954549165"><ele>1003.0</ele><time>2026-04-27T13:14:29Z</time></trkpt><trkpt lat="42.206836340050515" lon="13.252871308281717"><ele>1003.0</ele><time>2026-04-27T13:14:30Z</time></trkpt><trkpt lat="42.2068355857506" lon="13.252987239298237"><ele>1003.0</ele><time>2026-04-27T13:14:31Z</time></trkpt><trkpt lat="42.20680887840965" lon="13.25312511653576"><ele>1003.0</ele><time>2026-04-27T13:14:32Z</time></trkpt><trkpt lat="42.20679871959221" lon="13.253276547358526"><ele>1003.0</ele><time>2026-04-27T13:14:33Z</time></trkpt><trkpt lat="42.2067980726308" lon="13.253448534998983"><ele>1003.0</ele><time>2026-04-27T13:14:34Z</time></trkpt><trkpt lat="42.206838408615134" lon="13.253619825568247"><ele>1004.0</ele><time>2026-04-27T13:14:35Z</time></trkpt><trkpt lat="42.20683686635969" lon="13.253774767961314"><ele>1005.0</ele><time>2026-04-27T13:14:36Z</time></trkpt><trkpt lat="42.206871164015695" lon="13.25389185865928"><ele>1006.0</ele><time>2026-04-27T13:14:37Z</time></trkpt><trkpt lat="42.20692460415244" lon="13.254009794383448"><ele>1007.0</ele><time>2026-04-27T13:14:38Z</time></trkpt><trkpt lat="42.20697678753026" lon="13.254148261087131"><ele>1008.0</ele><time>2026-04-27T13:14:39Z</time></trkpt><trkpt lat="42.20704044614317" lon="13.254277000283734"><ele>1007.5</ele><time>2026-04-27T13:14:40Z</time></trkpt><trkpt lat="42.207037341503195" lon="13.254441465674851"><ele>1007.0</ele><time>2026-04-27T13:14:41Z</time></trkpt><trkpt lat="42.207069441841355" lon="13.254606643580335"><ele>1006.5</ele><time>2026-04-27T13:14:42Z</time></trkpt><trkpt lat="42.20712669592046" lon="13.254765075575028"><ele>1006.0</ele><time>2026-04-27T13:14:43Z</time></trkpt><trkpt lat="42.207185758930066" lon="13.254936748870318"><ele>1006.0</ele><time>2026-04-27T13:14:44Z</time></trkpt><trkpt lat="42.20721388685985" lon="13.25511870026573"><ele>1006.0</ele><time>2026-04-27T13:14:45Z</time></trkpt><trkpt lat="42.207243404366196" lon="13.255308802583263"><ele>1006.0</ele><time>2026-04-27T13:14:46Z</time></trkpt><trkpt lat="42.207279674398656" lon="13.255502714965584"><ele>1006.0</ele><time>2026-04-27T13:14:47Z</time></trkpt><trkpt lat="42.20733545167489" lon="13.255689022308456"><ele>1016.3333333333333</ele><time>2026-04-27T13:14:48Z</time></trkpt><trkpt lat="42.20737117772851" lon="13.255891918796728"><ele>1026.6666666666667</ele><time>2026-04-27T13:14:49Z</time></trkpt><trkpt lat="42.20742422771148" lon="13.256090283182186"><ele>1037.0</ele><time>2026-04-27T13:14:50Z</time></trkpt><trkpt lat="42.20749460330806" lon="13.25625308082949"><ele>1037.0</ele><time>2026-04-27T13:14:51Z</time></trkpt><trkpt lat="42.20756504917563" lon="13.25638693605213"><ele>1037.0</ele><time>2026-04-27T13:14:52Z</time></trkpt><trkpt lat="42.20765319922779" lon="13.256491299942228"><ele>1037.0</ele><time>2026-04-27T13:14:53Z</time></trkpt><trkpt lat="42.20776939930681" lon="13.256583792917388"><ele>1037.0</ele><time>2026-04-27T13:14:54Z</time></trkpt><trkpt lat="42.20788140612652" lon="13.256697571596545"><ele>1039.25</ele><time>2026-04-27T13:14:55Z</time></trkpt><trkpt lat="42.20797947410054" lon="13.256828240790181"><ele>1041.5</ele><time>2026-04-27T13:14:56Z</time></trkpt><trkpt lat="42.20806244993552" lon="13.256983611020349"><ele>1043.75</ele><time>2026-04-27T13:14:57Z</time></trkpt><trkpt lat="42.2081465932833" lon="13.25713438313716"><ele>1046.0</ele><time>2026-04-27T13:14:58Z</time></trkpt><trkpt lat="42.20822479012138" lon="13.257286132545804"><ele>1046.0</ele><time>2026-04-27T13:14:59Z</time></trkpt><trkpt lat="42.20829595090048" lon="13.257456945083865"><ele>1046.0</ele><time>2026-04-27T13:15:00Z</time></trkpt><trkpt lat="42.20833897860137" lon="13.257625375456811"><ele>1046.0</ele><time>2026-04-27T13:15:01Z</time></trkpt><trkpt lat="42.20836540308028" lon="13.257808812002468"><ele>1046.0</ele><time>2026-04-27T13:15:02Z</time></trkpt><trkpt lat="42.20838355736246" lon="13.258000088624687"><ele>1043.6666666666667</ele><time>2026-04-27T13:15:03Z</time></trkpt><trkpt lat="42.20839525390617" lon="13.258213814187913"><ele>1041.3333333333333</ele><time>2026-04-27T13:15:04Z</time></trkpt><trkpt lat="42.208413566825485" lon="13.258426657799273"><ele>1039.0</ele><time>2026-04-27T13:15:05Z</time></trkpt><trkpt lat="42.20845473420081" lon="13.258643174788642"><ele>1039.0</ele><time>2026-04-27T13:15:06Z</time></trkpt><trkpt lat="42.20850514837036" lon="13.25881988246448"><ele>1039.0</ele><time>2026-04-27T13:15:07Z</time></trkpt><trkpt lat="42.20857372823245" lon="13.25893966722517"><ele>1039.0</ele><time>2026-04-27T13:15:08Z</time></trkpt><trkpt lat="42.208620846090405" lon="13.2590171094369"><ele>1039.0</ele><time>2026-04-27T13:15:09Z</time></trkpt><trkpt lat="42.20868837031391" lon="13.259064048766465"><ele>1039.0</ele><time>2026-04-27T13:15:10Z</time></trkpt><trkpt lat="42.2087889958777" lon="13.259100575743762"><ele>1037.25</ele><time>2026-04-27T13:15:11Z</time></trkpt><trkpt lat="42.208902263787955" lon="13.259115347616683"><ele>1035.5</ele><time>2026-04-27T13:15:12Z</time></trkpt><trkpt lat="42.209021699287426" lon="13.259140937128548"><ele>1033.75</ele><time>2026-04-27T13:15:13Z</time></trkpt><trkpt lat="42.2091372032391" lon="13.259176813287393"><ele>1032.0</ele><time>2026-04-27T13:15:14Z</time></trkpt><trkpt lat="42.20927171044739" lon="13.259204228901009"><ele>1039.0</ele><time>2026-04-27T13:15:15Z</time></trkpt><trkpt lat="42.20939580784541" lon="13.259228904428914"><ele>1046.0</ele><time>2026-04-27T13:15:16Z</time></trkpt><trkpt lat="42.209526429437226" lon="13.259266681100371"><ele>1053.0</ele><time>2026-04-27T13:15:17Z</time></trkpt><trkpt lat="42.209656910273154" lon="13.259297164704833"><ele>1060.0</ele><time>2026-04-27T13:15:18Z</time></trkpt><trkpt lat="42.20977379118729" lon="13.259344752985731"><ele>1066.25</ele><time>2026-04-27T13:15:19Z</time></trkpt><trkpt lat="42.20990000190224" lon="13.259396555976071"><ele>1072.5</ele><time>2026-04-27T13:15:20Z</time></trkpt><trkpt lat="42.210022939536785" lon="13.2594659857985"><ele>1078.75</ele><time>2026-04-27T13:15:21Z</time></trkpt><trkpt lat="42.21014044569071" lon="13.259553671332506"><ele>1085.0</ele><time>2026-04-27T13:15:22Z</time></trkpt><trkpt lat="42.210261581857814" lon="13.25965561494513"><ele>1085.0</ele><time>2026-04-27T13:15:23Z</time></trkpt><trkpt lat="42.21037540919446" lon="13.259767975870307"><ele>1085.0</ele><time>2026-04-27T13:15:24Z</time></trkpt><trkpt lat="42.21047911247161" lon="13.25989915683309"><ele>1085.0</ele><time>2026-04-27T13:15:25Z</time></trkpt><trkpt lat="42.21057894216108" lon="13.260038952035412"><ele>1085.0</ele><time>2026-04-27T13:15:26Z</time></trkpt><trkpt lat="42.2106460723252" lon="13.260214956006935"><ele>1087.0</ele><time>2026-04-27T13:15:27Z</time></trkpt><trkpt lat="42.21072984408124" lon="13.260372528075465"><ele>1089.0</ele><time>2026-04-27T13:15:28Z</time></trkpt><trkpt lat="42.21083096371137" lon="13.260521692991702"><ele>1091.0</ele><time>2026-04-27T13:15:29Z</time></trkpt><trkpt lat="42.210938256589785" lon="13.260657325655059"><ele>1093.0</ele><time>2026-04-27T13:15:30Z</time></trkpt><trkpt lat="42.21105519388667" lon="13.260767754364112"><ele>1095.0</ele><time>2026-04-27T13:15:30.999Z</time></trkpt><trkpt lat="42.21116928199848" lon="13.26084964858953"><ele>1097.0</ele><time>2026-04-27T13:15:31.999Z</time></trkpt><trkpt lat="42.2112936006697" lon="13.260908022932103"><ele>1099.0</ele><time>2026-04-27T13:15:32.999Z</time></trkpt><trkpt lat="42.21142152572706" lon="13.260961250653487"><ele>1101.0</ele><time>2026-04-27T13:15:33.999Z</time></trkpt><trkpt lat="42.211554315055814" lon="13.260995298496386"><ele>1101.0</ele><time>2026-04-27T13:15:34.999Z</time></trkpt><trkpt lat="42.211672145732294" lon="13.261018142431682"><ele>1101.0</ele><time>2026-04-27T13:15:35.999Z</time></trkpt><trkpt lat="42.21176216060148" lon="13.26110021084179"><ele>1101.0</ele><time>2026-04-27T13:15:36.999Z</time></trkpt><trkpt lat="42.21187379221546" lon="13.261194197008004"><ele>1101.0</ele><time>2026-04-27T13:15:37.999Z</time></trkpt><trkpt lat="42.21198355085468" lon="13.261254737266533"><ele>1101.0</ele><time>2026-04-27T13:15:38.999Z</time></trkpt><trkpt lat="42.21206133370198" lon="13.26129591438323"><ele>1101.0</ele><time>2026-04-27T13:15:39.999Z</time></trkpt><trkpt lat="42.212153011400275" lon="13.261311813971377"><ele>1101.0</ele><time>2026-04-27T13:15:40.999Z</time></trkpt><trkpt lat="42.21226632958173" lon="13.261303485992165"><ele>1101.0</ele><time>2026-04-27T13:15:41.999Z</time></trkpt><trkpt lat="42.212393665741295" lon="13.261273096796648"><ele>1101.0</ele><time>2026-04-27T13:15:42.999Z</time></trkpt><trkpt lat="42.21248786518323" lon="13.261251201919272"><ele>1100.6</ele><time>2026-04-27T13:15:43.999Z</time></trkpt><trkpt lat="42.212570420031994" lon="13.261268752695846"><ele>1100.1999999999998</ele><time>2026-04-27T13:15:44.999Z</time></trkpt><trkpt lat="42.21263541275581" lon="13.26132090618829"><ele>1099.8000000000002</ele><time>2026-04-27T13:15:45.999Z</time></trkpt><trkpt lat="42.21264771521225" lon="13.26143513932236"><ele>1099.4</ele><time>2026-04-27T13:15:46.999Z</time></trkpt><trkpt lat="42.21269587400168" lon="13.261548873731607"><ele>1099.0</ele><time>2026-04-27T13:15:47.999Z</time></trkpt><trkpt lat="42.212756213034424" lon="13.261690086572337"><ele>1099.0</ele><time>2026-04-27T13:15:48.999Z</time></trkpt><trkpt lat="42.21283364795956" lon="13.26180563255885"><ele>1099.0</ele><time>2026-04-27T13:15:49.999Z</time></trkpt><trkpt lat="42.212883720935956" lon="13.261897851441287"><ele>1099.0</ele><time>2026-04-27T13:15:50.999Z</time></trkpt><trkpt lat="42.21295193137028" lon="13.26196650152669"><ele>1099.0</ele><time>2026-04-27T13:15:51.999Z</time></trkpt><trkpt lat="42.21302331779817" lon="13.262024665855115"><ele>1099.0</ele><time>2026-04-27T13:15:52.999Z</time></trkpt><trkpt lat="42.21309323593767" lon="13.26211811406242"><ele>1101.0</ele><time>2026-04-27T13:15:53.999Z</time></trkpt><trkpt lat="42.21316623527121" lon="13.262235446767939"><ele>1103.0</ele><time>2026-04-27T13:15:54.999Z</time></trkpt><trkpt lat="42.21324885586882" lon="13.262345365076934"><ele>1105.0</ele><time>2026-04-27T13:15:55.999Z</time></trkpt><trkpt lat="42.21334471385501" lon="13.262451321371103"><ele>1107.0</ele><time>2026-04-27T13:15:56.999Z</time></trkpt><trkpt lat="42.21345054977862" lon="13.262560290591885"><ele>1107.0</ele><time>2026-04-27T13:15:57.999Z</time></trkpt><trkpt lat="42.213551460991695" lon="13.262683803809493"><ele>1107.0</ele><time>2026-04-27T13:15:58.999Z</time></trkpt><trkpt lat="42.21365441309968" lon="13.262791023540812"><ele>1107.0</ele><time>2026-04-27T13:15:59.999Z</time></trkpt><trkpt lat="42.213753577474" lon="13.262887474133462"><ele>1107.0</ele><time>2026-04-27T13:16:00.999Z</time></trkpt><trkpt lat="42.21385999359799" lon="13.262948954843592"><ele>1107.0</ele><time>2026-04-27T13:16:01.999Z</time></trkpt><trkpt lat="42.21397115574138" lon="13.263015545682524"><ele>1107.0</ele><time>2026-04-27T13:16:02.999Z</time></trkpt><trkpt lat="42.214098312777274" lon="13.26307488982709"><ele>1107.0</ele><time>2026-04-27T13:16:03.999Z</time></trkpt><trkpt lat="42.214226988164164" lon="13.26311447204249"><ele>1107.0</ele><time>2026-04-27T13:16:04.999Z</time></trkpt><trkpt lat="42.2143237306047" lon="13.263123571748785"><ele>1105.75</ele><time>2026-04-27T13:16:05.999Z</time></trkpt><trkpt lat="42.21444806588282" lon="13.263142395844037"><ele>1104.5</ele><time>2026-04-27T13:16:06.999Z</time></trkpt><trkpt lat="42.214584080305464" lon="13.263142036342888"><ele>1103.25</ele><time>2026-04-27T13:16:07.999Z</time></trkpt><trkpt lat="42.21471327839797" lon="13.263127011071088"><ele>1102.0</ele><time>2026-04-27T13:16:08.999Z</time></trkpt><trkpt lat="42.21484505245335" lon="13.263101492065974"><ele>1101.0</ele><time>2026-04-27T13:16:09.999Z</time></trkpt><trkpt lat="42.21496420322581" lon="13.263117400392481"><ele>1100.0</ele><time>2026-04-27T13:16:10.999Z</time></trkpt><trkpt lat="42.215088038159905" lon="13.263145239996463"><ele>1099.0</ele><time>2026-04-27T13:16:11.999Z</time></trkpt><trkpt lat="42.215184475823456" lon="13.263157372211177"><ele>1098.0</ele><time>2026-04-27T13:16:12.999Z</time></trkpt><trkpt lat="42.215280402883614" lon="13.263244553009484"><ele>1098.0</ele><time>2026-04-27T13:16:13.999Z</time></trkpt><trkpt lat="42.21535781242551" lon="13.263336572534106"><ele>1098.0</ele><time>2026-04-27T13:16:14.999Z</time></trkpt><trkpt lat="42.21546683789486" lon="13.263419821348695"><ele>1098.0</ele><time>2026-04-27T13:16:15.999Z</time></trkpt><trkpt lat="42.21551838005219" lon="13.263517944390316"><ele>1098.0</ele><time>2026-04-27T13:16:16.999Z</time></trkpt><trkpt lat="42.215559335291026" lon="13.263620072712081"><ele>1098.0</ele><time>2026-04-27T13:16:17.999Z</time></trkpt><trkpt lat="42.21553169986893" lon="13.263717333844385"><ele>1098.0</ele><time>2026-04-27T13:16:19.999Z</time></trkpt><trkpt lat="42.21546164137572" lon="13.263767319689014"><ele>1098.0</ele><time>2026-04-27T13:16:21.999Z</time></trkpt><trkpt lat="42.21537516650699" lon="13.263839473695139"><ele>1098.0</ele><time>2026-04-27T13:16:22.999Z</time></trkpt><trkpt lat="42.215337661973955" lon="13.263909516891617"><ele>1098.0</ele><time>2026-04-27T13:16:23.999Z</time></trkpt><trkpt lat="42.215320618355875" lon="13.264014181298123"><ele>1098.0</ele><time>2026-04-27T13:16:24.999Z</time></trkpt><trkpt lat="42.2154339263306" lon="13.264152392081703"><ele>1098.0</ele><time>2026-04-27T13:16:25.999Z</time></trkpt><trkpt lat="42.21551925475965" lon="13.264238676575893"><ele>1098.0</ele><time>2026-04-27T13:16:26.999Z</time></trkpt><trkpt lat="42.215660213134335" lon="13.264308272391318"><ele>1098.0</ele><time>2026-04-27T13:16:28Z</time></trkpt><trkpt lat="42.21580019636357" lon="13.26429758980082"><ele>1098.0</ele><time>2026-04-27T13:16:29Z</time></trkpt><trkpt lat="42.215929285151795" lon="13.264323127208218"><ele>1101.0</ele><time>2026-04-27T13:16:30Z</time></trkpt><trkpt lat="42.2160172469097" lon="13.264356368517904"><ele>1104.0</ele><time>2026-04-27T13:16:31Z</time></trkpt><trkpt lat="42.21611556178368" lon="13.264462531817621"><ele>1107.0</ele><time>2026-04-27T13:16:33Z</time></trkpt><trkpt lat="42.21615287754356" lon="13.26454390181899"><ele>1110.0</ele><time>2026-04-27T13:16:34Z</time></trkpt><trkpt lat="42.216158878226054" lon="13.264642357266693"><ele>1113.0</ele><time>2026-04-27T13:16:35Z</time></trkpt><trkpt lat="42.216163668038575" lon="13.264782026165156"><ele>1114.8</ele><time>2026-04-27T13:16:36Z</time></trkpt><trkpt lat="42.2161493285498" lon="13.264913045187006"><ele>1116.6</ele><time>2026-04-27T13:16:37Z</time></trkpt><trkpt lat="42.216116099200775" lon="13.26505371776873"><ele>1118.4</ele><time>2026-04-27T13:16:38Z</time></trkpt><trkpt lat="42.21610967482154" lon="13.265158916836167"><ele>1120.2</ele><time>2026-04-27T13:16:39Z</time></trkpt><trkpt lat="42.216142373148536" lon="13.26527134105026"><ele>1122.0</ele><time>2026-04-27T13:16:40Z</time></trkpt><trkpt lat="42.21621725913732" lon="13.265375990586982"><ele>1122.0</ele><time>2026-04-27T13:16:41Z</time></trkpt><trkpt lat="42.216274403129326" lon="13.265500842399419"><ele>1122.0</ele><time>2026-04-27T13:16:42Z</time></trkpt><trkpt lat="42.21638337164552" lon="13.265499103449027"><ele>1122.0</ele><time>2026-04-27T13:16:43Z</time></trkpt><trkpt lat="42.21644528445739" lon="13.265599219272204"><ele>1122.0</ele><time>2026-04-27T13:16:44Z</time></trkpt><trkpt lat="42.21651858447453" lon="13.265715393178782"><ele>1122.0</ele><time>2026-04-27T13:16:45Z</time></trkpt><trkpt lat="42.216598868437714" lon="13.265813020571553"><ele>1121.5</ele><time>2026-04-27T13:16:46Z</time></trkpt><trkpt lat="42.21665974797603" lon="13.265890928188742"><ele>1121.0</ele><time>2026-04-27T13:16:47Z</time></trkpt><trkpt lat="42.216774776366634" lon="13.265945267050546"><ele>1120.5</ele><time>2026-04-27T13:16:48Z</time></trkpt><trkpt lat="42.21692107181516" lon="13.266019313550181"><ele>1120.0</ele><time>2026-04-27T13:16:49Z</time></trkpt><trkpt lat="42.21708124945788" lon="13.266032719610234"><ele>1120.0</ele><time>2026-04-27T13:16:50Z</time></trkpt><trkpt lat="42.2172018111612" lon="13.266048235823748"><ele>1120.0</ele><time>2026-04-27T13:16:51Z</time></trkpt><trkpt lat="42.21731747640737" lon="13.266078138363847"><ele>1120.0</ele><time>2026-04-27T13:16:52Z</time></trkpt><trkpt lat="42.217431752954305" lon="13.266068554077044"><ele>1120.0</ele><time>2026-04-27T13:16:53Z</time></trkpt><trkpt lat="42.21753497492464" lon="13.2660634834776"><ele>1118.0</ele><time>2026-04-27T13:16:54Z</time></trkpt><trkpt lat="42.217610300464564" lon="13.26604890683982"><ele>1116.0</ele><time>2026-04-27T13:16:55Z</time></trkpt><trkpt lat="42.21767619151732" lon="13.266091645671327"><ele>1114.0</ele><time>2026-04-27T13:16:56Z</time></trkpt><trkpt lat="42.21779394356645" lon="13.266201785868933"><ele>1112.0</ele><time>2026-04-27T13:16:57Z</time></trkpt><trkpt lat="42.217886442877926" lon="13.266272947537205"><ele>1110.0</ele><time>2026-04-27T13:16:58Z</time></trkpt><trkpt lat="42.21795265903477" lon="13.266291541558006"><ele>1110.0</ele><time>2026-04-27T13:16:59Z</time></trkpt><trkpt lat="42.21803634606577" lon="13.266295777533507"><ele>1110.0</ele><time>2026-04-27T13:17:00Z</time></trkpt><trkpt lat="42.218139241784456" lon="13.266246987833046"><ele>1110.0</ele><time>2026-04-27T13:17:01Z</time></trkpt><trkpt lat="42.218218348858855" lon="13.266178898188805"><ele>1110.0</ele><time>2026-04-27T13:17:02Z</time></trkpt><trkpt lat="42.21823987247888" lon="13.265983362326933"><ele>1110.0</ele><time>2026-04-27T13:17:03Z</time></trkpt><trkpt lat="42.21837566400498" lon="13.26591981788567"><ele>1110.75</ele><time>2026-04-27T13:17:05Z</time></trkpt><trkpt lat="42.218493921293025" lon="13.265872964826093"><ele>1111.5</ele><time>2026-04-27T13:17:07Z</time></trkpt><trkpt lat="42.21857356033102" lon="13.265846430772928"><ele>1112.25</ele><time>2026-04-27T13:17:08Z</time></trkpt><trkpt lat="42.218714738005424" lon="13.265803455785045"><ele>1113.0</ele><time>2026-04-27T13:17:09Z</time></trkpt><trkpt lat="42.218843602808796" lon="13.265735605720318"><ele>1113.0</ele><time>2026-04-27T13:17:10Z</time></trkpt><trkpt lat="42.21897763074396" lon="13.265680042106048"><ele>1113.0</ele><time>2026-04-27T13:17:11Z</time></trkpt><trkpt lat="42.21908684781573" lon="13.265618050202624"><ele>1113.0</ele><time>2026-04-27T13:17:12Z</time></trkpt><trkpt lat="42.21918233394172" lon="13.265504838304851"><ele>1113.0</ele><time>2026-04-27T13:17:13Z</time></trkpt><trkpt lat="42.21928484674174" lon="13.265371576091775"><ele>1113.75</ele><time>2026-04-27T13:17:14Z</time></trkpt><trkpt lat="42.219406770189664" lon="13.265264495805582"><ele>1114.5</ele><time>2026-04-27T13:17:15Z</time></trkpt><trkpt lat="42.21952495675428" lon="13.26516416698287"><ele>1115.25</ele><time>2026-04-27T13:17:16Z</time></trkpt><trkpt lat="42.21966261373838" lon="13.265054369278658"><ele>1116.0</ele><time>2026-04-27T13:17:17Z</time></trkpt><trkpt lat="42.21976047715347" lon="13.264918221007912"><ele>1117.3999999999999</ele><time>2026-04-27T13:17:18Z</time></trkpt><trkpt lat="42.21982449790919" lon="13.264777529211209"><ele>1118.8</ele><time>2026-04-27T13:17:19Z</time></trkpt><trkpt lat="42.21990366829566" lon="13.264678457950358"><ele>1120.1999999999998</ele><time>2026-04-27T13:17:20Z</time></trkpt><trkpt lat="42.22000332299686" lon="13.264628866515592"><ele>1121.6</ele><time>2026-04-27T13:17:21Z</time></trkpt><trkpt lat="42.22005646826036" lon="13.26454777646086"><ele>1123.0</ele><time>2026-04-27T13:17:22Z</time></trkpt><trkpt lat="42.2201264682306" lon="13.26452363020082"><ele>1123.0</ele><time>2026-04-27T13:17:23Z</time></trkpt><trkpt lat="42.220191540805764" lon="13.264533245897537"><ele>1123.0</ele><time>2026-04-27T13:17:24Z</time></trkpt><trkpt lat="42.22032153755281" lon="13.264642716834196"><ele>1123.0</ele><time>2026-04-27T13:17:26Z</time></trkpt><trkpt lat="42.22038736485751" lon="13.264681465969243"><ele>1123.0</ele><time>2026-04-27T13:17:27Z</time></trkpt><trkpt lat="42.220476022768096" lon="13.264634423751394"><ele>1123.0</ele><time>2026-04-27T13:17:28Z</time></trkpt><trkpt lat="42.22056720545364" lon="13.26464833561517"><ele>1123.0</ele><time>2026-04-27T13:17:29Z</time></trkpt><trkpt lat="42.2206436901457" lon="13.26472291427784"><ele>1123.0</ele><time>2026-04-27T13:17:31Z</time></trkpt><trkpt lat="42.22072416891866" lon="13.264755410176937"><ele>1123.0</ele><time>2026-04-27T13:17:32Z</time></trkpt><trkpt lat="42.22084783470165" lon="13.26480097474914"><ele>1123.0</ele><time>2026-04-27T13:17:33Z</time></trkpt><trkpt lat="42.22097247637468" lon="13.26486272176264"><ele>1123.0</ele><time>2026-04-27T13:17:34Z</time></trkpt><trkpt lat="42.22111345871874" lon="13.264962843165485"><ele>1123.2</ele><time>2026-04-27T13:17:34.999Z</time></trkpt><trkpt lat="42.221213122982526" lon="13.265051458088545"><ele>1123.4</ele><time>2026-04-27T13:17:35.999Z</time></trkpt><trkpt lat="42.22133985066415" lon="13.26512734907383"><ele>1123.6000000000001</ele><time>2026-04-27T13:17:36.999Z</time></trkpt><trkpt lat="42.22139396683635" lon="13.265182361347701"><ele>1123.8</ele><time>2026-04-27T13:17:37.999Z</time></trkpt><trkpt lat="42.22148484756559" lon="13.265118007769871"><ele>1124.0</ele><time>2026-04-27T13:17:39.999Z</time></trkpt><trkpt lat="42.2215385729878" lon="13.265022966644064"><ele>1124.0</ele><time>2026-04-27T13:17:40.999Z</time></trkpt><trkpt lat="42.22164444302931" lon="13.26493338439374"><ele>1124.0</ele><time>2026-04-27T13:17:41.999Z</time></trkpt><trkpt lat="42.22176034928607" lon="13.264863704833518"><ele>1124.0</ele><time>2026-04-27T13:17:42.999Z</time></trkpt><trkpt lat="42.221854746205125" lon="13.264778823321365"><ele>1124.0</ele><time>2026-04-27T13:17:43.999Z</time></trkpt><trkpt lat="42.22192950820562" lon="13.264687947974185"><ele>1124.6000000000001</ele><time>2026-04-27T13:17:44.999Z</time></trkpt><trkpt lat="42.222029500698405" lon="13.264616792584222"><ele>1125.2</ele><time>2026-04-27T13:17:45.999Z</time></trkpt><trkpt lat="42.22211452680293" lon="13.264567701072245"><ele>1125.8000000000002</ele><time>2026-04-27T13:17:46.999Z</time></trkpt><trkpt lat="42.22217849383354" lon="13.264510080777079"><ele>1126.4</ele><time>2026-04-27T13:17:47.999Z</time></trkpt><trkpt lat="42.222281804060856" lon="13.26446344225683"><ele>1127.0</ele><time>2026-04-27T13:17:48.999Z</time></trkpt><trkpt lat="42.222378505789756" lon="13.264368216548155"><ele>1127.0</ele><time>2026-04-27T13:17:49.999Z</time></trkpt><trkpt lat="42.222456173557894" lon="13.264264867769795"><ele>1127.0</ele><time>2026-04-27T13:17:50.999Z</time></trkpt><trkpt lat="42.22253309861815" lon="13.264179115517608"><ele>1127.0</ele><time>2026-04-27T13:17:51.999Z</time></trkpt><trkpt lat="42.222606920366665" lon="13.264122151043033"><ele>1127.0</ele><time>2026-04-27T13:17:52.999Z</time></trkpt><trkpt lat="42.222706210837416" lon="13.264092916931101"><ele>1127.0</ele><time>2026-04-27T13:17:53.999Z</time></trkpt><trkpt lat="42.222809139560034" lon="13.264045363781767"><ele>1127.0</ele><time>2026-04-27T13:17:54.999Z</time></trkpt><trkpt lat="42.22291253291364" lon="13.263975716261186"><ele>1127.0</ele><time>2026-04-27T13:17:55.999Z</time></trkpt><trkpt lat="42.223014664794135" lon="13.26389609070184"><ele>1127.0</ele><time>2026-04-27T13:17:56.999Z</time></trkpt><trkpt lat="42.22312222559526" lon="13.263827182253053"><ele>1127.0</ele><time>2026-04-27T13:17:57.999Z</time></trkpt><trkpt lat="42.2232168720567" lon="13.263745356627938"><ele>1127.0</ele><time>2026-04-27T13:17:58.999Z</time></trkpt><trkpt lat="42.22331279279734" lon="13.263666934418922"><ele>1127.0</ele><time>2026-04-27T13:17:59.999Z</time></trkpt><trkpt lat="42.223401525254395" lon="13.263575083721362"><ele>1127.0</ele><time>2026-04-27T13:18:00.999Z</time></trkpt><trkpt lat="42.22348495064292" lon="13.263481483406103"><ele>1127.0</ele><time>2026-04-27T13:18:01.999Z</time></trkpt><trkpt lat="42.223550064213825" lon="13.263403373936125"><ele>1127.0</ele><time>2026-04-27T13:18:02.999Z</time></trkpt><trkpt lat="42.22361491980844" lon="13.263374865874322"><ele>1127.0</ele><time>2026-04-27T13:18:03.999Z</time></trkpt><trkpt lat="42.2236955533188" lon="13.26338573903904"><ele>1127.0</ele><time>2026-04-27T13:18:04.999Z</time></trkpt><trkpt lat="42.22380434593241" lon="13.263415770205336"><ele>1127.0</ele><time>2026-04-27T13:18:05.999Z</time></trkpt><trkpt lat="42.22393092258674" lon="13.263432936878148"><ele>1127.0</ele><time>2026-04-27T13:18:06.999Z</time></trkpt><trkpt lat="42.224047470583784" lon="13.263443866710405"><ele>1127.0</ele><time>2026-04-27T13:18:07.999Z</time></trkpt><trkpt lat="42.22417259292814" lon="13.263454327201684"><ele>1129.5</ele><time>2026-04-27T13:18:08.999Z</time></trkpt><trkpt lat="42.22430192779065" lon="13.263465629007129"><ele>1132.0</ele><time>2026-04-27T13:18:09.999Z</time></trkpt><trkpt lat="42.22442142330301" lon="13.263472804003866"><ele>1134.5</ele><time>2026-04-27T13:18:10.999Z</time></trkpt><trkpt lat="42.224530592629336" lon="13.263465125466178"><ele>1137.0</ele><time>2026-04-27T13:18:11.999Z</time></trkpt><trkpt lat="42.22463343995778" lon="13.26346908780491"><ele>1137.0</ele><time>2026-04-27T13:18:12.999Z</time></trkpt><trkpt lat="42.22474309089282" lon="13.263489425269226"><ele>1137.0</ele><time>2026-04-27T13:18:13.999Z</time></trkpt><trkpt lat="42.224834395078915" lon="13.263472101764817"><ele>1137.0</ele><time>2026-04-27T13:18:14.999Z</time></trkpt><trkpt lat="42.22493916228568" lon="13.26341780178055"><ele>1137.0</ele><time>2026-04-27T13:18:15.999Z</time></trkpt><trkpt lat="42.22505940937035" lon="13.263376777179193"><ele>1137.0</ele><time>2026-04-27T13:18:16.999Z</time></trkpt><trkpt lat="42.22516369978401" lon="13.263356733536947"><ele>1138.6</ele><time>2026-04-27T13:18:17.999Z</time></trkpt><trkpt lat="42.22524311203381" lon="13.2633277535145"><ele>1140.2</ele><time>2026-04-27T13:18:18.999Z</time></trkpt><trkpt lat="42.225343604207204" lon="13.26330706593329"><ele>1141.8</ele><time>2026-04-27T13:18:19.999Z</time></trkpt><trkpt lat="42.225446930710916" lon="13.263303249560035"><ele>1143.4</ele><time>2026-04-27T13:18:20.999Z</time></trkpt><trkpt lat="42.22555701610607" lon="13.26328795959856"><ele>1145.0</ele><time>2026-04-27T13:18:21.999Z</time></trkpt><trkpt lat="42.22567096491636" lon="13.263237159137068"><ele>1146.75</ele><time>2026-04-27T13:18:22.999Z</time></trkpt><trkpt lat="42.225788376001354" lon="13.26315528134957"><ele>1148.5</ele><time>2026-04-27T13:18:23.999Z</time></trkpt><trkpt lat="42.2259077943327" lon="13.263122909102329"><ele>1150.25</ele><time>2026-04-27T13:18:24.999Z</time></trkpt><trkpt lat="42.2260315702414" lon="13.263123732002057"><ele>1152.0</ele><time>2026-04-27T13:18:25.999Z</time></trkpt><trkpt lat="42.22614652726437" lon="13.26312293482808"><ele>1152.0</ele><time>2026-04-27T13:18:26.999Z</time></trkpt><trkpt lat="42.22626272349402" lon="13.263124821205915"><ele>1152.0</ele><time>2026-04-27T13:18:27.999Z</time></trkpt><trkpt lat="42.226377655565585" lon="13.263144874017545"><ele>1152.0</ele><time>2026-04-27T13:18:28.999Z</time></trkpt><trkpt lat="42.22648311722728" lon="13.263197222935325"><ele>1152.0</ele><time>2026-04-27T13:18:29.999Z</time></trkpt><trkpt lat="42.22657179075688" lon="13.26325223831739"><ele>1152.0</ele><time>2026-04-27T13:18:30.999Z</time></trkpt><trkpt lat="42.22664496510973" lon="13.263339180616194"><ele>1152.0</ele><time>2026-04-27T13:18:31.999Z</time></trkpt><trkpt lat="42.22671048488223" lon="13.263469306243103"><ele>1152.0</ele><time>2026-04-27T13:18:32.999Z</time></trkpt><trkpt lat="42.22676218174037" lon="13.263620948242261"><ele>1152.0</ele><time>2026-04-27T13:18:34Z</time></trkpt><trkpt lat="42.22680799095318" lon="13.263780807333328"><ele>1152.0</ele><time>2026-04-27T13:18:35Z</time></trkpt><trkpt lat="42.22684015670895" lon="13.26393566120913"><ele>1154.6</ele><time>2026-04-27T13:18:36Z</time></trkpt><trkpt lat="42.22687632319548" lon="13.264081782213498"><ele>1157.2</ele><time>2026-04-27T13:18:37Z</time></trkpt><trkpt lat="42.22694322206947" lon="13.264214228967873"><ele>1159.8</ele><time>2026-04-27T13:18:38Z</time></trkpt><trkpt lat="42.22700620800924" lon="13.264326731093906"><ele>1162.4</ele><time>2026-04-27T13:18:39Z</time></trkpt><trkpt lat="42.227059895356476" lon="13.264436957328323"><ele>1165.0</ele><time>2026-04-27T13:18:40Z</time></trkpt><trkpt lat="42.22711245692915" lon="13.264532967265048"><ele>1165.0</ele><time>2026-04-27T13:18:41Z</time></trkpt><trkpt lat="42.22718779249845" lon="13.26459629666761"><ele>1165.0</ele><time>2026-04-27T13:18:42Z</time></trkpt><trkpt lat="42.227268684260856" lon="13.264634244820293"><ele>1165.0</ele><time>2026-04-27T13:18:43Z</time></trkpt><trkpt lat="42.22735770099502" lon="13.264628869451853"><ele>1165.0</ele><time>2026-04-27T13:18:44Z</time></trkpt><trkpt lat="42.22746812073629" lon="13.264584334517039"><ele>1165.0</ele><time>2026-04-27T13:18:45Z</time></trkpt><trkpt lat="42.227587646433925" lon="13.264524881277907"><ele>1164.25</ele><time>2026-04-27T13:18:46Z</time></trkpt><trkpt lat="42.227715765464" lon="13.264496239626164"><ele>1163.5</ele><time>2026-04-27T13:18:47Z</time></trkpt><trkpt lat="42.22783245868158" lon="13.264465879227648"><ele>1162.75</ele><time>2026-04-27T13:18:48Z</time></trkpt><trkpt lat="42.227949376079636" lon="13.264442849632655"><ele>1162.0</ele><time>2026-04-27T13:18:49Z</time></trkpt><trkpt lat="42.22805978860484" lon="13.264378135724483"><ele>1165.75</ele><time>2026-04-27T13:18:50Z</time></trkpt><trkpt lat="42.22817870582637" lon="13.264311712255783"><ele>1169.5</ele><time>2026-04-27T13:18:51Z</time></trkpt><trkpt lat="42.22829210105055" lon="13.264250713791457"><ele>1173.25</ele><time>2026-04-27T13:18:52Z</time></trkpt><trkpt lat="42.22837932442111" lon="13.26417599858438"><ele>1177.0</ele><time>2026-04-27T13:18:53Z</time></trkpt><trkpt lat="42.22844826532407" lon="13.264067848609992"><ele>1173.5</ele><time>2026-04-27T13:18:54Z</time></trkpt><trkpt lat="42.228515884111275" lon="13.263932057715452"><ele>1170.0</ele><time>2026-04-27T13:18:55Z</time></trkpt><trkpt lat="42.228588269871544" lon="13.26381865184359"><ele>1166.5</ele><time>2026-04-27T13:18:56Z</time></trkpt><trkpt lat="42.22868050639558" lon="13.263737984045793"><ele>1163.0</ele><time>2026-04-27T13:18:57Z</time></trkpt><trkpt lat="42.228773358332695" lon="13.26364197181461"><ele>1163.0</ele><time>2026-04-27T13:18:58Z</time></trkpt><trkpt lat="42.228887118663934" lon="13.263525111870962"><ele>1163.0</ele><time>2026-04-27T13:18:59Z</time></trkpt><trkpt lat="42.22898065802742" lon="13.263428951940279"><ele>1163.0</ele><time>2026-04-27T13:19:00Z</time></trkpt><trkpt lat="42.22909802367228" lon="13.263320524317479"><ele>1163.0</ele><time>2026-04-27T13:19:01Z</time></trkpt><trkpt lat="42.22921233495148" lon="13.263205494857145"><ele>1166.4</ele><time>2026-04-27T13:19:02Z</time></trkpt><trkpt lat="42.229319323266154" lon="13.263098054497135"><ele>1169.8</ele><time>2026-04-27T13:19:03Z</time></trkpt><trkpt lat="42.229398716511284" lon="13.263020420095382"><ele>1173.2</ele><time>2026-04-27T13:19:04Z</time></trkpt><trkpt lat="42.22945264313225" lon="13.262934133544329"><ele>1176.6</ele><time>2026-04-27T13:19:05Z</time></trkpt><trkpt lat="42.22946331645719" lon="13.262831300524274"><ele>1180.0</ele><time>2026-04-27T13:19:06Z</time></trkpt><trkpt lat="42.22945570303404" lon="13.262716992019383"><ele>1180.0</ele><time>2026-04-27T13:19:07Z</time></trkpt><trkpt lat="42.229416828772976" lon="13.2625744445791"><ele>1180.0</ele><time>2026-04-27T13:19:08Z</time></trkpt><trkpt lat="42.229360482776094" lon="13.262440845262434"><ele>1180.0</ele><time>2026-04-27T13:19:09Z</time></trkpt><trkpt lat="42.22932887180135" lon="13.262326535802112"><ele>1180.0</ele><time>2026-04-27T13:19:10Z</time></trkpt><trkpt lat="42.229322104848485" lon="13.262236316203603"><ele>1180.0</ele><time>2026-04-27T13:19:11Z</time></trkpt><trkpt lat="42.229372718918" lon="13.26218044798034"><ele>1180.0</ele><time>2026-04-27T13:19:12Z</time></trkpt><trkpt lat="42.229448669722956" lon="13.262161003166112"><ele>1179.5</ele><time>2026-04-27T13:19:13Z</time></trkpt><trkpt lat="42.229505746180116" lon="13.262068930902652"><ele>1179.0</ele><time>2026-04-27T13:19:14Z</time></trkpt><trkpt lat="42.22955444155201" lon="13.261940190315887"><ele>1178.5</ele><time>2026-04-27T13:19:15Z</time></trkpt><trkpt lat="42.22963595503586" lon="13.261799875062078"><ele>1178.0</ele><time>2026-04-27T13:19:16Z</time></trkpt><trkpt lat="42.229695244993195" lon="13.261639989249199"><ele>1178.0</ele><time>2026-04-27T13:19:17Z</time></trkpt><trkpt lat="42.22972300484321" lon="13.261527355207333"><ele>1178.0</ele><time>2026-04-27T13:19:18Z</time></trkpt><trkpt lat="42.229731045555226" lon="13.261429415565999"><ele>1178.0</ele><time>2026-04-27T13:19:19Z</time></trkpt><trkpt lat="42.229660001839875" lon="13.261297588354223"><ele>1178.0</ele><time>2026-04-27T13:19:20Z</time></trkpt><trkpt lat="42.229655290738314" lon="13.261195995825565"><ele>1178.0</ele><time>2026-04-27T13:19:21Z</time></trkpt><trkpt lat="42.22963734750368" lon="13.261072424976447"><ele>1177.2</ele><time>2026-04-27T13:19:22Z</time></trkpt><trkpt lat="42.229670296228285" lon="13.260942894113917"><ele>1176.4</ele><time>2026-04-27T13:19:23Z</time></trkpt><trkpt lat="42.22971861765408" lon="13.260827281364238"><ele>1175.6000000000001</ele><time>2026-04-27T13:19:24Z</time></trkpt><trkpt lat="42.22981300987287" lon="13.260791313858055"><ele>1174.8</ele><time>2026-04-27T13:19:25Z</time></trkpt><trkpt lat="42.229927248915516" lon="13.26074792691427"><ele>1174.0</ele><time>2026-04-27T13:19:27Z</time></trkpt><trkpt lat="42.22997847277542" lon="13.260648100826222"><ele>1178.6000000000001</ele><time>2026-04-27T13:19:28Z</time></trkpt><trkpt lat="42.230066224179424" lon="13.260717962761978"><ele>1183.2</ele><time>2026-04-27T13:19:29Z</time></trkpt><trkpt lat="42.23015974121463" lon="13.260778530531482"><ele>1187.8000000000002</ele><time>2026-04-27T13:19:30Z</time></trkpt><trkpt lat="42.23024754243188" lon="13.260831709120405"><ele>1192.4</ele><time>2026-04-27T13:19:31Z</time></trkpt><trkpt lat="42.23031173442444" lon="13.260871044939691"><ele>1197.0</ele><time>2026-04-27T13:19:32Z</time></trkpt><trkpt lat="42.23043791300645" lon="13.260775740166654"><ele>1197.0</ele><time>2026-04-27T13:19:34Z</time></trkpt><trkpt lat="42.23050192529471" lon="13.260695337043986"><ele>1197.0</ele><time>2026-04-27T13:19:35Z</time></trkpt><trkpt lat="42.230595907564386" lon="13.26076794636855"><ele>1197.0</ele><time>2026-04-27T13:19:36Z</time></trkpt><trkpt lat="42.23069646204997" lon="13.260700947324175"><ele>1197.0</ele><time>2026-04-27T13:19:37Z</time></trkpt><trkpt lat="42.23080328194235" lon="13.260621990210039"><ele>1197.0</ele><time>2026-04-27T13:19:37.999Z</time></trkpt><trkpt lat="42.23090639446202" lon="13.26054697863415"><ele>1195.25</ele><time>2026-04-27T13:19:38.999Z</time></trkpt><trkpt lat="42.23102314336961" lon="13.260480858690952"><ele>1193.5</ele><time>2026-04-27T13:19:39.999Z</time></trkpt><trkpt lat="42.231142697718035" lon="13.260442894483326"><ele>1191.75</ele><time>2026-04-27T13:19:40.999Z</time></trkpt><trkpt lat="42.231255626502374" lon="13.260406499471593"><ele>1190.0</ele><time>2026-04-27T13:19:41.999Z</time></trkpt><trkpt lat="42.23136500005644" lon="13.260376925363849"><ele>1190.0</ele><time>2026-04-27T13:19:42.999Z</time></trkpt><trkpt lat="42.23147017547231" lon="13.260393443092527"><ele>1190.0</ele><time>2026-04-27T13:19:43.999Z</time></trkpt><trkpt lat="42.23158428430597" lon="13.260392574737738"><ele>1190.0</ele><time>2026-04-27T13:19:44.999Z</time></trkpt><trkpt lat="42.23169922806718" lon="13.260421981355192"><ele>1190.0</ele><time>2026-04-27T13:19:45.999Z</time></trkpt><trkpt lat="42.23180523432127" lon="13.260457876340851"><ele>1190.0</ele><time>2026-04-27T13:19:46.999Z</time></trkpt><trkpt lat="42.23186305198519" lon="13.260664302044045"><ele>1193.25</ele><time>2026-04-27T13:19:47.999Z</time></trkpt><trkpt lat="42.23195173376334" lon="13.26071308466098"><ele>1196.5</ele><time>2026-04-27T13:19:48.999Z</time></trkpt><trkpt lat="42.23205913201914" lon="13.260775078014632"><ele>1199.75</ele><time>2026-04-27T13:19:49.999Z</time></trkpt><trkpt lat="42.232167684859704" lon="13.2608405261241"><ele>1203.0</ele><time>2026-04-27T13:19:50.999Z</time></trkpt><trkpt lat="42.232336451611296" lon="13.260948311034976"><ele>1203.0</ele><time>2026-04-27T13:19:51.999Z</time></trkpt><trkpt lat="42.23248406611822" lon="13.261046292727118"><ele>1203.0</ele><time>2026-04-27T13:19:52.999Z</time></trkpt><trkpt lat="42.23259493458046" lon="13.261122682301957"><ele>1203.0</ele><time>2026-04-27T13:19:53.999Z</time></trkpt><trkpt lat="42.23285081139589" lon="13.26133098162389"><ele>1203.0</ele><time>2026-04-27T13:19:54.999Z</time></trkpt><trkpt lat="42.23296732989562" lon="13.26143161537873"><ele>1203.0</ele><time>2026-04-27T13:19:55.999Z</time></trkpt><trkpt lat="42.23306839796666" lon="13.261489856368827"><ele>1203.0</ele><time>2026-04-27T13:19:56.999Z</time></trkpt><trkpt lat="42.23312922369566" lon="13.261578415750463"><ele>1203.0</ele><time>2026-04-27T13:19:57.999Z</time></trkpt><trkpt lat="42.23319988263244" lon="13.261644478112222"><ele>1203.0</ele><time>2026-04-27T13:19:58.999Z</time></trkpt><trkpt lat="42.23328143555862" lon="13.261708956363911"><ele>1203.75</ele><time>2026-04-27T13:19:59.999Z</time></trkpt><trkpt lat="42.23338785982196" lon="13.261772922417832"><ele>1204.5</ele><time>2026-04-27T13:20:00.999Z</time></trkpt><trkpt lat="42.233516077379434" lon="13.261856080628109"><ele>1205.25</ele><time>2026-04-27T13:20:01.999Z</time></trkpt><trkpt lat="42.23363833060132" lon="13.261942862570145"><ele>1206.0</ele><time>2026-04-27T13:20:02.999Z</time></trkpt><trkpt lat="42.23373013754358" lon="13.26200735943814"><ele>1206.0</ele><time>2026-04-27T13:20:03.999Z</time></trkpt><trkpt lat="42.23384820767386" lon="13.262045964895655"><ele>1206.0</ele><time>2026-04-27T13:20:04.999Z</time></trkpt><trkpt lat="42.233926642636646" lon="13.262066361555332"><ele>1206.0</ele><time>2026-04-27T13:20:05.999Z</time></trkpt><trkpt lat="42.23401704929938" lon="13.262067835958915"><ele>1206.0</ele><time>2026-04-27T13:20:06.999Z</time></trkpt><trkpt lat="42.23410900516682" lon="13.262032126855443"><ele>1206.0</ele><time>2026-04-27T13:20:07.999Z</time></trkpt><trkpt lat="42.234213230850585" lon="13.262008429481249"><ele>1204.75</ele><time>2026-04-27T13:20:08.999Z</time></trkpt><trkpt lat="42.23434357836793" lon="13.261951068853678"><ele>1203.5</ele><time>2026-04-27T13:20:09.999Z</time></trkpt><trkpt lat="42.234474802542735" lon="13.261893322467412"><ele>1202.25</ele><time>2026-04-27T13:20:10.999Z</time></trkpt><trkpt lat="42.2345965905317" lon="13.261831231803152"><ele>1201.0</ele><time>2026-04-27T13:20:11.999Z</time></trkpt><trkpt lat="42.23471299005987" lon="13.261762912755316"><ele>1203.8</ele><time>2026-04-27T13:20:12.999Z</time></trkpt><trkpt lat="42.23482843452177" lon="13.261706230377209"><ele>1206.6</ele><time>2026-04-27T13:20:13.999Z</time></trkpt><trkpt lat="42.23493327706739" lon="13.261659341373804"><ele>1209.4</ele><time>2026-04-27T13:20:14.999Z</time></trkpt><trkpt lat="42.23503386262535" lon="13.261615147888193"><ele>1212.2</ele><time>2026-04-27T13:20:15.999Z</time></trkpt><trkpt lat="42.23512217692766" lon="13.261562556262943"><ele>1215.0</ele><time>2026-04-27T13:20:16.999Z</time></trkpt><trkpt lat="42.23522560354648" lon="13.261550178823088"><ele>1215.0</ele><time>2026-04-27T13:20:17.999Z</time></trkpt><trkpt lat="42.23532188256607" lon="13.261495450824555"><ele>1215.0</ele><time>2026-04-27T13:20:18.999Z</time></trkpt><trkpt lat="42.23539903485091" lon="13.261452801915693"><ele>1215.0</ele><time>2026-04-27T13:20:19.999Z</time></trkpt><trkpt lat="42.235490173598386" lon="13.261381521560523"><ele>1215.0</ele><time>2026-04-27T13:20:20.999Z</time></trkpt><trkpt lat="42.23556889187139" lon="13.261315286952232"><ele>1215.0</ele><time>2026-04-27T13:20:21.999Z</time></trkpt><trkpt lat="42.23566004385053" lon="13.261240460312383"><ele>1217.0</ele><time>2026-04-27T13:20:22.999Z</time></trkpt><trkpt lat="42.23576001913582" lon="13.26115602140894"><ele>1219.0</ele><time>2026-04-27T13:20:23.999Z</time></trkpt><trkpt lat="42.23587039583254" lon="13.261065770602734"><ele>1221.0</ele><time>2026-04-27T13:20:24.999Z</time></trkpt><trkpt lat="42.23597786945968" lon="13.260994402220494"><ele>1223.0</ele><time>2026-04-27T13:20:25.999Z</time></trkpt><trkpt lat="42.23608507711008" lon="13.260928552506904"><ele>1223.0</ele><time>2026-04-27T13:20:26.999Z</time></trkpt><trkpt lat="42.236209094158184" lon="13.260900463730858"><ele>1223.0</ele><time>2026-04-27T13:20:27.999Z</time></trkpt><trkpt lat="42.236328459996116" lon="13.260859428162192"><ele>1223.0</ele><time>2026-04-27T13:20:28.999Z</time></trkpt><trkpt lat="42.23644853682725" lon="13.260826898148355"><ele>1223.0</ele><time>2026-04-27T13:20:29.999Z</time></trkpt><trkpt lat="42.23657126233067" lon="13.260793704934372"><ele>1224.0</ele><time>2026-04-27T13:20:30.999Z</time></trkpt><trkpt lat="42.236692085339016" lon="13.260727596138521"><ele>1225.0</ele><time>2026-04-27T13:20:31.999Z</time></trkpt><trkpt lat="42.23680331136516" lon="13.26063243024674"><ele>1226.0</ele><time>2026-04-27T13:20:32.999Z</time></trkpt><trkpt lat="42.236914226284895" lon="13.260593786954038"><ele>1227.0</ele><time>2026-04-27T13:20:33.999Z</time></trkpt><trkpt lat="42.23701184450898" lon="13.260584512034088"><ele>1227.0</ele><time>2026-04-27T13:20:34.999Z</time></trkpt><trkpt lat="42.237105179179366" lon="13.260595887709002"><ele>1227.0</ele><time>2026-04-27T13:20:35.999Z</time></trkpt><trkpt lat="42.23721822956999" lon="13.260630102820851"><ele>1227.0</ele><time>2026-04-27T13:20:36.999Z</time></trkpt><trkpt lat="42.237346117692056" lon="13.260687563764355"><ele>1227.0</ele><time>2026-04-27T13:20:37.999Z</time></trkpt><trkpt lat="42.237481026390434" lon="13.260673110286023"><ele>1226.75</ele><time>2026-04-27T13:20:38.999Z</time></trkpt><trkpt lat="42.237615487458484" lon="13.260639143480958"><ele>1226.5</ele><time>2026-04-27T13:20:40Z</time></trkpt><trkpt lat="42.23774174622035" lon="13.260614682833486"><ele>1226.25</ele><time>2026-04-27T13:20:41Z</time></trkpt><trkpt lat="42.23785376866241" lon="13.260591478652401"><ele>1226.0</ele><time>2026-04-27T13:20:42Z</time></trkpt><trkpt lat="42.237970794856324" lon="13.260541580284045"><ele>1224.75</ele><time>2026-04-27T13:20:43Z</time></trkpt><trkpt lat="42.238115985497124" lon="13.260498532678572"><ele>1223.5</ele><time>2026-04-27T13:20:44Z</time></trkpt><trkpt lat="42.238248715019516" lon="13.260474511519003"><ele>1222.25</ele><time>2026-04-27T13:20:45Z</time></trkpt><trkpt lat="42.23837850928766" lon="13.260431850924748"><ele>1221.0</ele><time>2026-04-27T13:20:46Z</time></trkpt><trkpt lat="42.23848525297816" lon="13.260380699236752"><ele>1221.0</ele><time>2026-04-27T13:20:47Z</time></trkpt><trkpt lat="42.23858580624892" lon="13.26033307433561"><ele>1221.0</ele><time>2026-04-27T13:20:48Z</time></trkpt><trkpt lat="42.23867540564846" lon="13.260221987407633"><ele>1221.0</ele><time>2026-04-27T13:20:49Z</time></trkpt><trkpt lat="42.23875662859183" lon="13.260153164324377"><ele>1221.0</ele><time>2026-04-27T13:20:50Z</time></trkpt><trkpt lat="42.23884947047111" lon="13.26013810728035"><ele>1221.0</ele><time>2026-04-27T13:20:51Z</time></trkpt><trkpt lat="42.23894421767774" lon="13.260168790175983"><ele>1219.75</ele><time>2026-04-27T13:20:52Z</time></trkpt><trkpt lat="42.239026419363405" lon="13.26023510359334"><ele>1218.5</ele><time>2026-04-27T13:20:53Z</time></trkpt><trkpt lat="42.239100412051634" lon="13.26033916732408"><ele>1217.25</ele><time>2026-04-27T13:20:54Z</time></trkpt><trkpt lat="42.23918512958437" lon="13.260453850821635"><ele>1216.0</ele><time>2026-04-27T13:20:55Z</time></trkpt><trkpt lat="42.23929151573948" lon="13.260553028418038"><ele>1221.0</ele><time>2026-04-27T13:20:56Z</time></trkpt><trkpt lat="42.23941628200512" lon="13.260651247192278"><ele>1226.0</ele><time>2026-04-27T13:20:57Z</time></trkpt><trkpt lat="42.239538638040734" lon="13.260737758460756"><ele>1231.0</ele><time>2026-04-27T13:20:58Z</time></trkpt><trkpt lat="42.239662818200806" lon="13.260774689605025"><ele>1236.0</ele><time>2026-04-27T13:20:59Z</time></trkpt><trkpt lat="42.23977099365392" lon="13.260798831727532"><ele>1234.25</ele><time>2026-04-27T13:21:00Z</time></trkpt><trkpt lat="42.239881304352494" lon="13.260840911338223"><ele>1232.5</ele><time>2026-04-27T13:21:01Z</time></trkpt><trkpt lat="42.240010487777525" lon="13.260792891994765"><ele>1230.75</ele><time>2026-04-27T13:21:02Z</time></trkpt><trkpt lat="42.24014456495774" lon="13.260764380160458"><ele>1229.0</ele><time>2026-04-27T13:21:03Z</time></trkpt><trkpt lat="42.240292592380804" lon="13.260706365756226"><ele>1229.0</ele><time>2026-04-27T13:21:04Z</time></trkpt><trkpt lat="42.240444189503805" lon="13.260650806648066"><ele>1229.0</ele><time>2026-04-27T13:21:05Z</time></trkpt><trkpt lat="42.24059287385922" lon="13.260603804462475"><ele>1229.0</ele><time>2026-04-27T13:21:06Z</time></trkpt><trkpt lat="42.24072640686875" lon="13.260572474891987"><ele>1229.0</ele><time>2026-04-27T13:21:07Z</time></trkpt><trkpt lat="42.24082818300304" lon="13.260541882811976"><ele>1227.0</ele><time>2026-04-27T13:21:08Z</time></trkpt><trkpt lat="42.24092108161229" lon="13.26049225284505"><ele>1225.0</ele><time>2026-04-27T13:21:09Z</time></trkpt><trkpt lat="42.241007815470866" lon="13.260467687216545"><ele>1223.0</ele><time>2026-04-27T13:21:10Z</time></trkpt><trkpt lat="42.241118265615555" lon="13.260410655780976"><ele>1221.0</ele><time>2026-04-27T13:21:11Z</time></trkpt><trkpt lat="42.24120915372154" lon="13.260334821635745"><ele>1219.0</ele><time>2026-04-27T13:21:12Z</time></trkpt><trkpt lat="42.24128328921171" lon="13.260250169199226"><ele>1219.0</ele><time>2026-04-27T13:21:13Z</time></trkpt><trkpt lat="42.24135731345066" lon="13.260152806822834"><ele>1219.0</ele><time>2026-04-27T13:21:14Z</time></trkpt><trkpt lat="42.24142744397725" lon="13.260057441448122"><ele>1219.0</ele><time>2026-04-27T13:21:15Z</time></trkpt><trkpt lat="42.241538080462036" lon="13.259977625770402"><ele>1219.0</ele><time>2026-04-27T13:21:17Z</time></trkpt><trkpt lat="42.24160499749846" lon="13.260040292407123"><ele>1219.0</ele><time>2026-04-27T13:21:18Z</time></trkpt><trkpt lat="42.24171427744888" lon="13.260044946431494"><ele>1221.8</ele><time>2026-04-27T13:21:19Z</time></trkpt><trkpt lat="42.24182015557079" lon="13.260038737588781"><ele>1224.6000000000001</ele><time>2026-04-27T13:21:20Z</time></trkpt><trkpt lat="42.241901189912696" lon="13.260023255594012"><ele>1227.4</ele><time>2026-04-27T13:21:21Z</time></trkpt><trkpt lat="42.24197329342614" lon="13.260008195254313"><ele>1230.2</ele><time>2026-04-27T13:21:22Z</time></trkpt><trkpt lat="42.242111260649516" lon="13.259971758313345"><ele>1233.0</ele><time>2026-04-27T13:21:24Z</time></trkpt><trkpt lat="42.242198480869284" lon="13.259945208708633"><ele>1231.5</ele><time>2026-04-27T13:21:25Z</time></trkpt><trkpt lat="42.242341154212056" lon="13.259891057679644"><ele>1230.0</ele><time>2026-04-27T13:21:26Z</time></trkpt><trkpt lat="42.24246337107046" lon="13.259835810071847"><ele>1228.5</ele><time>2026-04-27T13:21:27Z</time></trkpt><trkpt lat="42.24256923192909" lon="13.259786009379031"><ele>1227.0</ele><time>2026-04-27T13:21:28Z</time></trkpt><trkpt lat="42.242660351982224" lon="13.25972773019409"><ele>1227.0</ele><time>2026-04-27T13:21:29Z</time></trkpt><trkpt lat="42.24277437390968" lon="13.25971167589554"><ele>1227.0</ele><time>2026-04-27T13:21:30Z</time></trkpt><trkpt lat="42.24289022552436" lon="13.259679651631384"><ele>1227.0</ele><time>2026-04-27T13:21:31Z</time></trkpt><trkpt lat="42.243004219934335" lon="13.259623482736528"><ele>1227.0</ele><time>2026-04-27T13:21:32Z</time></trkpt><trkpt lat="42.243098362220735" lon="13.259567815777505"><ele>1230.4</ele><time>2026-04-27T13:21:33Z</time></trkpt><trkpt lat="42.24319548046835" lon="13.2594828209468"><ele>1233.8000000000002</ele><time>2026-04-27T13:21:34Z</time></trkpt><trkpt lat="42.243297770984384" lon="13.25938902639822"><ele>1237.2</ele><time>2026-04-27T13:21:35Z</time></trkpt><trkpt lat="42.243379826864874" lon="13.259324294143775"><ele>1240.6000000000001</ele><time>2026-04-27T13:21:36Z</time></trkpt><trkpt lat="42.24346497686458" lon="13.259259767981593"><ele>1244.0</ele><time>2026-04-27T13:21:37Z</time></trkpt><trkpt lat="42.24355785469738" lon="13.259190651986698"><ele>1244.0</ele><time>2026-04-27T13:21:38Z</time></trkpt><trkpt lat="42.243663543290474" lon="13.259098625324542"><ele>1244.0</ele><time>2026-04-27T13:21:39Z</time></trkpt><trkpt lat="42.24378211304817" lon="13.259047236127376"><ele>1244.0</ele><time>2026-04-27T13:21:40Z</time></trkpt><trkpt lat="42.24387834714703" lon="13.258978151642205"><ele>1244.0</ele><time>2026-04-27T13:21:41Z</time></trkpt><trkpt lat="42.24395233613899" lon="13.258874726784738"><ele>1245.4</ele><time>2026-04-27T13:21:41.999Z</time></trkpt><trkpt lat="42.244012513232136" lon="13.25876121181804"><ele>1246.8000000000002</ele><time>2026-04-27T13:21:42.999Z</time></trkpt><trkpt lat="42.244066561955336" lon="13.258658049972576"><ele>1248.1999999999998</ele><time>2026-04-27T13:21:43.999Z</time></trkpt><trkpt lat="42.2441337579377" lon="13.258597828097816"><ele>1249.6</ele><time>2026-04-27T13:21:44.999Z</time></trkpt><trkpt lat="42.2442405347681" lon="13.258549628740639"><ele>1251.0</ele><time>2026-04-27T13:21:45.999Z</time></trkpt><trkpt lat="42.24436523691065" lon="13.258567270474575"><ele>1251.0</ele><time>2026-04-27T13:21:46.999Z</time></trkpt><trkpt lat="42.24449291969148" lon="13.258574691559275"><ele>1251.0</ele><time>2026-04-27T13:21:47.999Z</time></trkpt><trkpt lat="42.24459478175663" lon="13.258599536864496"><ele>1251.0</ele><time>2026-04-27T13:21:48.999Z</time></trkpt><trkpt lat="42.24468480404556" lon="13.258655919828751"><ele>1251.0</ele><time>2026-04-27T13:21:49.999Z</time></trkpt><trkpt lat="42.244786747341756" lon="13.258732828591295"><ele>1251.0</ele><time>2026-04-27T13:21:50.999Z</time></trkpt><trkpt lat="42.244862288558416" lon="13.258810265894674"><ele>1250.25</ele><time>2026-04-27T13:21:51.999Z</time></trkpt><trkpt lat="42.24495659721365" lon="13.258903765866137"><ele>1249.5</ele><time>2026-04-27T13:21:52.999Z</time></trkpt><trkpt lat="42.24506475625674" lon="13.259004492682976"><ele>1248.75</ele><time>2026-04-27T13:21:53.999Z</time></trkpt><trkpt lat="42.24516883006592" lon="13.259091922945387"><ele>1248.0</ele><time>2026-04-27T13:21:54.999Z</time></trkpt><trkpt lat="42.2453109326556" lon="13.259177536849561"><ele>1249.5</ele><time>2026-04-27T13:21:55.999Z</time></trkpt><trkpt lat="42.24544208704688" lon="13.259233793211997"><ele>1251.0</ele><time>2026-04-27T13:21:56.999Z</time></trkpt><trkpt lat="42.245586142464035" lon="13.25928880127736"><ele>1252.5</ele><time>2026-04-27T13:21:57.999Z</time></trkpt><trkpt lat="42.24570629253372" lon="13.25933144937287"><ele>1254.0</ele><time>2026-04-27T13:21:58.999Z</time></trkpt><trkpt lat="42.24583434688247" lon="13.259376975844264"><ele>1254.0</ele><time>2026-04-27T13:21:59.999Z</time></trkpt><trkpt lat="42.2459540722693" lon="13.259421106443465"><ele>1254.0</ele><time>2026-04-27T13:22:00.999Z</time></trkpt><trkpt lat="42.246072435490895" lon="13.259473656644957"><ele>1254.0</ele><time>2026-04-27T13:22:01.999Z</time></trkpt><trkpt lat="42.24617724223341" lon="13.259551160703014"><ele>1254.0</ele><time>2026-04-27T13:22:02.999Z</time></trkpt><trkpt lat="42.24623647882548" lon="13.25968736981928"><ele>1258.5</ele><time>2026-04-27T13:22:04.999Z</time></trkpt><trkpt lat="42.246184446243376" lon="13.259993231573672"><ele>1263.0</ele><time>2026-04-27T13:22:06.999Z</time></trkpt><trkpt lat="42.24621716809352" lon="13.260067131120662"><ele>1267.5</ele><time>2026-04-27T13:22:07.999Z</time></trkpt><trkpt lat="42.24631893202941" lon="13.260183587061185"><ele>1272.0</ele><time>2026-04-27T13:22:09.999Z</time></trkpt><trkpt lat="42.2464486785303" lon="13.260131810617144"><ele>1273.2</ele><time>2026-04-27T13:22:10.999Z</time></trkpt><trkpt lat="42.24655502083115" lon="13.260118751828946"><ele>1274.4</ele><time>2026-04-27T13:22:11.999Z</time></trkpt><trkpt lat="42.24665318215586" lon="13.260074015573446"><ele>1275.6</ele><time>2026-04-27T13:22:12.999Z</time></trkpt><trkpt lat="42.24674644022689" lon="13.260024754376659"><ele>1276.8</ele><time>2026-04-27T13:22:13.999Z</time></trkpt><trkpt lat="42.246846035452975" lon="13.259937128895304"><ele>1278.0</ele><time>2026-04-27T13:22:14.999Z</time></trkpt><trkpt lat="42.246926122882144" lon="13.25980261632067"><ele>1278.0</ele><time>2026-04-27T13:22:15.999Z</time></trkpt><trkpt lat="42.24697817355668" lon="13.259693925055476"><ele>1278.0</ele><time>2026-04-27T13:22:16.999Z</time></trkpt><trkpt lat="42.24707978393538" lon="13.259729557482496"><ele>1278.0</ele><time>2026-04-27T13:22:18.999Z</time></trkpt><trkpt lat="42.24714060926988" lon="13.259811652602941"><ele>1278.0</ele><time>2026-04-27T13:22:20.999Z</time></trkpt><trkpt lat="42.24705910755619" lon="13.26000860742812"><ele>1278.0</ele><time>2026-04-27T13:22:21.999Z</time></trkpt><trkpt lat="42.24703529980147" lon="13.260122192615086"><ele>1278.0</ele><time>2026-04-27T13:22:22.999Z</time></trkpt><trkpt lat="42.247009394976324" lon="13.260230784227206"><ele>1278.0</ele><time>2026-04-27T13:22:23.999Z</time></trkpt><trkpt lat="42.247037893687875" lon="13.26036828301865"><ele>1278.0</ele><time>2026-04-27T13:22:25.999Z</time></trkpt><trkpt lat="42.24718758417611" lon="13.260337390821824"><ele>1278.0</ele><time>2026-04-27T13:22:27.999Z</time></trkpt><trkpt lat="42.24730721258043" lon="13.2602988143892"><ele>1280.0</ele><time>2026-04-27T13:22:29.999Z</time></trkpt><trkpt lat="42.24738058748775" lon="13.260111283434131"><ele>1282.0</ele><time>2026-04-27T13:22:31.999Z</time></trkpt><trkpt lat="42.2474197457049" lon="13.259995790536749"><ele>1284.0</ele><time>2026-04-27T13:22:32.999Z</time></trkpt><trkpt lat="42.247447671419486" lon="13.259767985211239"><ele>1286.0</ele><time>2026-04-27T13:22:33.999Z</time></trkpt><trkpt lat="42.247500167217986" lon="13.259586641859814"><ele>1286.0</ele><time>2026-04-27T13:22:34.999Z</time></trkpt><trkpt lat="42.24755843835821" lon="13.259428724531379"><ele>1286.0</ele><time>2026-04-27T13:22:35.999Z</time></trkpt><trkpt lat="42.247661759884565" lon="13.259364270958322"><ele>1286.0</ele><time>2026-04-27T13:22:36.999Z</time></trkpt><trkpt lat="42.2477167202715" lon="13.259240011742293"><ele>1286.0</ele><time>2026-04-27T13:22:37.999Z</time></trkpt><trkpt lat="42.2477631647012" lon="13.259133298655414"><ele>1286.0</ele><time>2026-04-27T13:22:38.999Z</time></trkpt><trkpt lat="42.24782904190036" lon="13.259028354944853"><ele>1286.0</ele><time>2026-04-27T13:22:39.999Z</time></trkpt><trkpt lat="42.24790459235618" lon="13.25900157896045"><ele>1286.0</ele><time>2026-04-27T13:22:40.999Z</time></trkpt><trkpt lat="42.247975374618406" lon="13.258919835211762"><ele>1286.0</ele><time>2026-04-27T13:22:41.999Z</time></trkpt><trkpt lat="42.24805573059716" lon="13.25885176943478"><ele>1286.0</ele><time>2026-04-27T13:22:42.998Z</time></trkpt><trkpt lat="42.24810425591108" lon="13.258736102147148"><ele>1286.0</ele><time>2026-04-27T13:22:43.998Z</time></trkpt><trkpt lat="42.24813369632122" lon="13.258591244333717"><ele>1285.6</ele><time>2026-04-27T13:22:45Z</time></trkpt><trkpt lat="42.2481799675476" lon="13.258463698528718"><ele>1285.1999999999998</ele><time>2026-04-27T13:22:46Z</time></trkpt><trkpt lat="42.24822131522494" lon="13.258337014569292"><ele>1284.8000000000002</ele><time>2026-04-27T13:22:47Z</time></trkpt><trkpt lat="42.248280258003916" lon="13.258221442338794"><ele>1284.4</ele><time>2026-04-27T13:22:48Z</time></trkpt><trkpt lat="42.24835264681043" lon="13.258094416432547"><ele>1284.0</ele><time>2026-04-27T13:22:49Z</time></trkpt><trkpt lat="42.248433716666625" lon="13.257967251481375"><ele>1284.0</ele><time>2026-04-27T13:22:50Z</time></trkpt><trkpt lat="42.24849453644639" lon="13.257785306191533"><ele>1284.0</ele><time>2026-04-27T13:22:51Z</time></trkpt><trkpt lat="42.248534240011516" lon="13.2576255418097"><ele>1284.0</ele><time>2026-04-27T13:22:52Z</time></trkpt><trkpt lat="42.248573240175766" lon="13.25747925945564"><ele>1284.0</ele><time>2026-04-27T13:22:53Z</time></trkpt><trkpt lat="42.24865005714793" lon="13.257361968942709"><ele>1285.75</ele><time>2026-04-27T13:22:54Z</time></trkpt><trkpt lat="42.24872891611665" lon="13.257244397187344"><ele>1287.5</ele><time>2026-04-27T13:22:55Z</time></trkpt><trkpt lat="42.248820915693045" lon="13.257140213560467"><ele>1289.25</ele><time>2026-04-27T13:22:56Z</time></trkpt><trkpt lat="42.24892236418368" lon="13.257072992501053"><ele>1291.0</ele><time>2026-04-27T13:22:57Z</time></trkpt><trkpt lat="42.249027718219416" lon="13.257009807070762"><ele>1291.0</ele><time>2026-04-27T13:22:58Z</time></trkpt><trkpt lat="42.24913837351049" lon="13.256949822329343"><ele>1291.0</ele><time>2026-04-27T13:22:59Z</time></trkpt><trkpt lat="42.249248064814175" lon="13.256894648857497"><ele>1291.0</ele><time>2026-04-27T13:23:00Z</time></trkpt><trkpt lat="42.24938266571015" lon="13.256870104083522"><ele>1291.0</ele><time>2026-04-27T13:23:01Z</time></trkpt><trkpt lat="42.249501216793035" lon="13.256867575333821"><ele>1291.0</ele><time>2026-04-27T13:23:02Z</time></trkpt><trkpt lat="42.24963146215034" lon="13.25685055033106"><ele>1291.0</ele><time>2026-04-27T13:23:03Z</time></trkpt><trkpt lat="42.249742880452324" lon="13.256852197983985"><ele>1291.0</ele><time>2026-04-27T13:23:04Z</time></trkpt><trkpt lat="42.249830312620304" lon="13.256847415572677"><ele>1291.0</ele><time>2026-04-27T13:23:05Z</time></trkpt><trkpt lat="42.24992699912979" lon="13.256826953841877"><ele>1291.0</ele><time>2026-04-27T13:23:06Z</time></trkpt><trkpt lat="42.25002240433306" lon="13.256746507485879"><ele>1291.75</ele><time>2026-04-27T13:23:07Z</time></trkpt><trkpt lat="42.250150340027986" lon="13.256688750405608"><ele>1292.5</ele><time>2026-04-27T13:23:08Z</time></trkpt><trkpt lat="42.25026611963791" lon="13.256567470027921"><ele>1293.25</ele><time>2026-04-27T13:23:09Z</time></trkpt><trkpt lat="42.25039212869697" lon="13.2564744531888"><ele>1294.0</ele><time>2026-04-27T13:23:10Z</time></trkpt><trkpt lat="42.250494365062075" lon="13.256436778550736"><ele>1290.6000000000001</ele><time>2026-04-27T13:23:11Z</time></trkpt><trkpt lat="42.250582410011326" lon="13.256416610847307"><ele>1287.2</ele><time>2026-04-27T13:23:12Z</time></trkpt><trkpt lat="42.25067358475271" lon="13.256411041759556"><ele>1283.8000000000002</ele><time>2026-04-27T13:23:13Z</time></trkpt><trkpt lat="42.25079669661824" lon="13.256379206076671"><ele>1280.4</ele><time>2026-04-27T13:23:14Z</time></trkpt><trkpt lat="42.25091636968514" lon="13.256380961717484"><ele>1277.0</ele><time>2026-04-27T13:23:15Z</time></trkpt><trkpt lat="42.25102931174218" lon="13.256367711243207"><ele>1277.0</ele><time>2026-04-27T13:23:16Z</time></trkpt><trkpt lat="42.25112915743803" lon="13.256404892808245"><ele>1277.0</ele><time>2026-04-27T13:23:17Z</time></trkpt><trkpt lat="42.25124107202952" lon="13.256458183706886"><ele>1277.0</ele><time>2026-04-27T13:23:18Z</time></trkpt><trkpt lat="42.25135402977737" lon="13.256512894645988"><ele>1277.0</ele><time>2026-04-27T13:23:19Z</time></trkpt><trkpt lat="42.25145525979872" lon="13.256565142217614"><ele>1281.2</ele><time>2026-04-27T13:23:20Z</time></trkpt><trkpt lat="42.25157164208168" lon="13.256629888936635"><ele>1285.4</ele><time>2026-04-27T13:23:21Z</time></trkpt><trkpt lat="42.251685352711085" lon="13.256694248311387"><ele>1289.6000000000001</ele><time>2026-04-27T13:23:22Z</time></trkpt><trkpt lat="42.251761166176415" lon="13.256716054988342"><ele>1293.8000000000002</ele><time>2026-04-27T13:23:23Z</time></trkpt><trkpt lat="42.251854917378125" lon="13.256738173799075"><ele>1298.0</ele><time>2026-04-27T13:23:25Z</time></trkpt><trkpt lat="42.25183754489154" lon="13.256823914116863"><ele>1298.0</ele><time>2026-04-27T13:26:03.999Z</time></trkpt><trkpt lat="42.251783847744946" lon="13.256751795980774"><ele>1298.0</ele><time>2026-04-27T13:35:27.999Z</time></trkpt><trkpt lat="42.25181743774308" lon="13.256592816631626"><ele>1298.0</ele><time>2026-04-27T13:35:29.999Z</time></trkpt><trkpt lat="42.25187358421037" lon="13.256508596148484"><ele>1298.0</ele><time>2026-04-27T13:35:30.999Z</time></trkpt><trkpt lat="42.25194889268546" lon="13.256411884808736"><ele>1298.0</ele><time>2026-04-27T13:35:31.999Z</time></trkpt><trkpt lat="42.252018569509474" lon="13.25630025631146"><ele>1294.25</ele><time>2026-04-27T13:35:32.999Z</time></trkpt><trkpt lat="42.25207364302488" lon="13.256178747092049"><ele>1290.5</ele><time>2026-04-27T13:35:33.999Z</time></trkpt><trkpt lat="42.25213534206939" lon="13.256045863345562"><ele>1286.75</ele><time>2026-04-27T13:35:34.999Z</time></trkpt><trkpt lat="42.25220752184555" lon="13.255916688357837"><ele>1283.0</ele><time>2026-04-27T13:35:35.999Z</time></trkpt><trkpt lat="42.25228536723389" lon="13.255799384701197"><ele>1284.0</ele><time>2026-04-27T13:35:36.999Z</time></trkpt><trkpt lat="42.25235121254581" lon="13.25568740478131"><ele>1285.0</ele><time>2026-04-27T13:35:37.999Z</time></trkpt><trkpt lat="42.25241939646791" lon="13.255586679538776"><ele>1286.0</ele><time>2026-04-27T13:35:38.999Z</time></trkpt><trkpt lat="42.25247932379332" lon="13.255490581647424"><ele>1287.0</ele><time>2026-04-27T13:35:39.999Z</time></trkpt><trkpt lat="42.252554120774995" lon="13.25539948011957"><ele>1288.0</ele><time>2026-04-27T13:35:40.999Z</time></trkpt><trkpt lat="42.25263315102186" lon="13.25531349110944"><ele>1288.0</ele><time>2026-04-27T13:35:41.999Z</time></trkpt><trkpt lat="42.25273651454303" lon="13.255239638600317"><ele>1288.0</ele><time>2026-04-27T13:35:42.999Z</time></trkpt><trkpt lat="42.25283845548753" lon="13.255167921768575"><ele>1288.0</ele><time>2026-04-27T13:35:43.999Z</time></trkpt><trkpt lat="42.25292954366373" lon="13.25510905784585"><ele>1288.0</ele><time>2026-04-27T13:35:44.999Z</time></trkpt><trkpt lat="42.253023566027835" lon="13.255073828860132"><ele>1288.0</ele><time>2026-04-27T13:35:45.999Z</time></trkpt><trkpt lat="42.25312990791749" lon="13.255055621449275"><ele>1289.2</ele><time>2026-04-27T13:35:46.999Z</time></trkpt><trkpt lat="42.25323935026647" lon="13.255031641395075"><ele>1290.4</ele><time>2026-04-27T13:35:47.999Z</time></trkpt><trkpt lat="42.25335353945319" lon="13.254987713738409"><ele>1291.6000000000001</ele><time>2026-04-27T13:35:48.999Z</time></trkpt><trkpt lat="42.25346337999759" lon="13.254938822191827"><ele>1292.8000000000002</ele><time>2026-04-27T13:35:49.999Z</time></trkpt><trkpt lat="42.253557507171216" lon="13.254883552691796"><ele>1294.0</ele><time>2026-04-27T13:35:50.999Z</time></trkpt><trkpt lat="42.253658588454726" lon="13.254807766987236"><ele>1291.5</ele><time>2026-04-27T13:35:51.999Z</time></trkpt><trkpt lat="42.253775044919095" lon="13.254755519525862"><ele>1289.0</ele><time>2026-04-27T13:35:52.999Z</time></trkpt><trkpt lat="42.25390706865298" lon="13.254684059359558"><ele>1286.5</ele><time>2026-04-27T13:35:53.999Z</time></trkpt><trkpt lat="42.25402548601666" lon="13.254612185141852"><ele>1284.0</ele><time>2026-04-27T13:35:54.999Z</time></trkpt><trkpt lat="42.2541517497406" lon="13.25453165564731"><ele>1284.0</ele><time>2026-04-27T13:35:55.999Z</time></trkpt><trkpt lat="42.254289796525086" lon="13.25443629167479"><ele>1284.0</ele><time>2026-04-27T13:35:56.999Z</time></trkpt><trkpt lat="42.25442114677236" lon="13.254363635418667"><ele>1284.0</ele><time>2026-04-27T13:35:57.999Z</time></trkpt><trkpt lat="42.254566693260124" lon="13.254261782477702"><ele>1284.0</ele><time>2026-04-27T13:35:58.999Z</time></trkpt><trkpt lat="42.25469621430832" lon="13.254171484374938"><ele>1284.0</ele><time>2026-04-27T13:35:59.999Z</time></trkpt><trkpt lat="42.25482009225687" lon="13.25411479518152"><ele>1284.0</ele><time>2026-04-27T13:36:00.999Z</time></trkpt><trkpt lat="42.254953865112434" lon="13.25405482930389"><ele>1284.0</ele><time>2026-04-27T13:36:01.999Z</time></trkpt><trkpt lat="42.25509317476764" lon="13.254001944213073"><ele>1281.75</ele><time>2026-04-27T13:36:02.999Z</time></trkpt><trkpt lat="42.25521198058967" lon="13.253928806437305"><ele>1279.5</ele><time>2026-04-27T13:36:03.999Z</time></trkpt><trkpt lat="42.255340463241254" lon="13.253878718984554"><ele>1277.25</ele><time>2026-04-27T13:36:04.999Z</time></trkpt><trkpt lat="42.2554699884384" lon="13.253783324968923"><ele>1275.0</ele><time>2026-04-27T13:36:05.999Z</time></trkpt><trkpt lat="42.25558168199485" lon="13.25367567852174"><ele>1277.4</ele><time>2026-04-27T13:36:06.999Z</time></trkpt><trkpt lat="42.255689182441834" lon="13.253609771451552"><ele>1279.8</ele><time>2026-04-27T13:36:07.999Z</time></trkpt><trkpt lat="42.25575993704804" lon="13.253523089837271"><ele>1282.1999999999998</ele><time>2026-04-27T13:36:08.999Z</time></trkpt><trkpt lat="42.255804079356665" lon="13.253395049079677"><ele>1284.6</ele><time>2026-04-27T13:36:09.999Z</time></trkpt><trkpt lat="42.2558310130989" lon="13.253223378612452"><ele>1287.0</ele><time>2026-04-27T13:36:10.999Z</time></trkpt><trkpt lat="42.25581817023451" lon="13.253047084345784"><ele>1287.0</ele><time>2026-04-27T13:36:11.999Z</time></trkpt><trkpt lat="42.25583983002923" lon="13.252890516019306"><ele>1287.0</ele><time>2026-04-27T13:36:12.999Z</time></trkpt><trkpt lat="42.25585160586778" lon="13.252751343586946"><ele>1287.0</ele><time>2026-04-27T13:36:13.999Z</time></trkpt><trkpt lat="42.25587464628998" lon="13.252628778660998"><ele>1287.0</ele><time>2026-04-27T13:36:14.999Z</time></trkpt><trkpt lat="42.25591156503617" lon="13.252492828549228"><ele>1287.0</ele><time>2026-04-27T13:36:15.999Z</time></trkpt><trkpt lat="42.25595750074768" lon="13.252335040339453"><ele>1286.1999999999998</ele><time>2026-04-27T13:36:16.999Z</time></trkpt><trkpt lat="42.256001730037944" lon="13.252236271054262"><ele>1285.4</ele><time>2026-04-27T13:36:17.999Z</time></trkpt><trkpt lat="42.25606854070103" lon="13.252148591188462"><ele>1284.6</ele><time>2026-04-27T13:36:18.999Z</time></trkpt><trkpt lat="42.25615055832716" lon="13.25209115414625"><ele>1283.8000000000002</ele><time>2026-04-27T13:36:19.999Z</time></trkpt><trkpt lat="42.2562686362493" lon="13.251986895421338"><ele>1283.0</ele><time>2026-04-27T13:36:20.999Z</time></trkpt><trkpt lat="42.25635071118584" lon="13.251889411301029"><ele>1283.0</ele><time>2026-04-27T13:36:21.999Z</time></trkpt><trkpt lat="42.25643112473153" lon="13.251795132706794"><ele>1283.0</ele><time>2026-04-27T13:36:22.999Z</time></trkpt><trkpt lat="42.256505506721886" lon="13.251721916515487"><ele>1283.0</ele><time>2026-04-27T13:36:23.999Z</time></trkpt><trkpt lat="42.25658635286742" lon="13.251667619299022"><ele>1283.0</ele><time>2026-04-27T13:36:24.999Z</time></trkpt><trkpt lat="42.25669018133841" lon="13.251632697260765"><ele>1283.0</ele><time>2026-04-27T13:36:25.999Z</time></trkpt><trkpt lat="42.25680449277833" lon="13.25159604001684"><ele>1285.3333333333335</ele><time>2026-04-27T13:36:26.999Z</time></trkpt><trkpt lat="42.25692836800632" lon="13.251555790991826"><ele>1287.6666666666667</ele><time>2026-04-27T13:36:27.999Z</time></trkpt><trkpt lat="42.25699170526038" lon="13.251523861025742"><ele>1290.0</ele><time>2026-04-27T13:36:28.999Z</time></trkpt><trkpt lat="42.257055792971414" lon="13.25159545857475"><ele>1292.3333333333333</ele><time>2026-04-27T13:36:31.999Z</time></trkpt><trkpt lat="42.25705881488746" lon="13.251726395812886"><ele>1294.6666666666665</ele><time>2026-04-27T13:36:32.999Z</time></trkpt><trkpt lat="42.2570703740736" lon="13.251816673031213"><ele>1297.0</ele><time>2026-04-27T13:36:33.999Z</time></trkpt><trkpt lat="42.25708798347756" lon="13.251952067385286"><ele>1297.0</ele><time>2026-04-27T13:36:34.999Z</time></trkpt><trkpt lat="42.25710633656997" lon="13.252084646047994"><ele>1297.0</ele><time>2026-04-27T13:36:35.999Z</time></trkpt><trkpt lat="42.257122183985345" lon="13.252206313305287"><ele>1297.0</ele><time>2026-04-27T13:36:36.999Z</time></trkpt><trkpt lat="42.25714316542196" lon="13.252356884470561"><ele>1297.0</ele><time>2026-04-27T13:36:37.999Z</time></trkpt><trkpt lat="42.25716162092573" lon="13.252477334926413"><ele>1297.0</ele><time>2026-04-27T13:36:38.999Z</time></trkpt><trkpt lat="42.25720501825426" lon="13.252614622323366"><ele>1295.6</ele><time>2026-04-27T13:36:40.999Z</time></trkpt><trkpt lat="42.257324901347225" lon="13.252710401144764"><ele>1294.1999999999998</ele><time>2026-04-27T13:36:42.999Z</time></trkpt><trkpt lat="42.257400203592354" lon="13.252698912271963"><ele>1292.8</ele><time>2026-04-27T13:36:43.999Z</time></trkpt><trkpt lat="42.2574413719693" lon="13.25261398868699"><ele>1291.4</ele><time>2026-04-27T13:36:44.999Z</time></trkpt><trkpt lat="42.257526002881" lon="13.252595380536684"><ele>1290.0</ele><time>2026-04-27T13:36:45.999Z</time></trkpt><trkpt lat="42.2576365127569" lon="13.252604191998472"><ele>1290.0</ele><time>2026-04-27T13:36:46.999Z</time></trkpt><trkpt lat="42.25778035481047" lon="13.252607568072039"><ele>1290.0</ele><time>2026-04-27T13:36:47.999Z</time></trkpt><trkpt lat="42.25787646031543" lon="13.252596925900226"><ele>1290.0</ele><time>2026-04-27T13:36:48.999Z</time></trkpt><trkpt lat="42.25796097124057" lon="13.252589997297125"><ele>1290.0</ele><time>2026-04-27T13:36:49.999Z</time></trkpt><trkpt lat="42.25805275116469" lon="13.252574769112254"><ele>1290.0</ele><time>2026-04-27T13:36:50.999Z</time></trkpt><trkpt lat="42.25817545489925" lon="13.252533281418824"><ele>1290.0</ele><time>2026-04-27T13:36:51.999Z</time></trkpt><trkpt lat="42.25833022727664" lon="13.252442946164512"><ele>1290.0</ele><time>2026-04-27T13:36:52.999Z</time></trkpt><trkpt lat="42.25845450213349" lon="13.252343238845295"><ele>1290.0</ele><time>2026-04-27T13:36:53.999Z</time></trkpt><trkpt lat="42.258549760393045" lon="13.252229376809778"><ele>1290.0</ele><time>2026-04-27T13:36:54.999Z</time></trkpt><trkpt lat="42.25862686073897" lon="13.252068326957996"><ele>1289.4</ele><time>2026-04-27T13:36:55.999Z</time></trkpt><trkpt lat="42.25866839756258" lon="13.251925058965845"><ele>1288.8</ele><time>2026-04-27T13:36:56.998Z</time></trkpt><trkpt lat="42.258723494709315" lon="13.2518239456044"><ele>1288.1999999999998</ele><time>2026-04-27T13:36:57.998Z</time></trkpt><trkpt lat="42.25879399804705" lon="13.251718648825271"><ele>1287.6</ele><time>2026-04-27T13:36:58.998Z</time></trkpt><trkpt lat="42.258876596199784" lon="13.251613964829684"><ele>1287.0</ele><time>2026-04-27T13:36:59.998Z</time></trkpt><trkpt lat="42.25896331986743" lon="13.251521071519935"><ele>1282.25</ele><time>2026-04-27T13:37:00.998Z</time></trkpt><trkpt lat="42.259063948474804" lon="13.25144585905118"><ele>1277.5</ele><time>2026-04-27T13:37:01.998Z</time></trkpt><trkpt lat="42.25916599119047" lon="13.251391693992435"><ele>1272.75</ele><time>2026-04-27T13:37:02.998Z</time></trkpt><trkpt lat="42.259279066514104" lon="13.251323441072094"><ele>1268.0</ele><time>2026-04-27T13:37:03.998Z</time></trkpt><trkpt lat="42.259386367921316" lon="13.251278362681033"><ele>1268.0</ele><time>2026-04-27T13:37:04.998Z</time></trkpt><trkpt lat="42.25949900904748" lon="13.251238322341022"><ele>1268.0</ele><time>2026-04-27T13:37:05.998Z</time></trkpt><trkpt lat="42.259599078131245" lon="13.251140491763074"><ele>1268.0</ele><time>2026-04-27T13:37:06.998Z</time></trkpt><trkpt lat="42.25965235344505" lon="13.250984411545373"><ele>1268.0</ele><time>2026-04-27T13:37:07.998Z</time></trkpt><trkpt lat="42.259716354101215" lon="13.250857246325095"><ele>1269.3333333333335</ele><time>2026-04-27T13:37:08.998Z</time></trkpt><trkpt lat="42.25978527219627" lon="13.250688633814818"><ele>1270.6666666666667</ele><time>2026-04-27T13:37:09.998Z</time></trkpt><trkpt lat="42.259857057699" lon="13.250498313481952"><ele>1272.0</ele><time>2026-04-27T13:37:10.998Z</time></trkpt><trkpt lat="42.259887541855896" lon="13.25027942894223"><ele>1272.0</ele><time>2026-04-27T13:37:11.998Z</time></trkpt><trkpt lat="42.25992310505938" lon="13.250070247724503"><ele>1272.0</ele><time>2026-04-27T13:37:12.998Z</time></trkpt><trkpt lat="42.259943534116246" lon="13.249890194417238"><ele>1272.0</ele><time>2026-04-27T13:37:13.998Z</time></trkpt><trkpt lat="42.25996375402775" lon="13.249730735887097"><ele>1272.0</ele><time>2026-04-27T13:37:14.998Z</time></trkpt><trkpt lat="42.259988336697106" lon="13.249565824287687"><ele>1270.0</ele><time>2026-04-27T13:37:15.998Z</time></trkpt><trkpt lat="42.26003629574323" lon="13.24940149110597"><ele>1268.0</ele><time>2026-04-27T13:37:16.998Z</time></trkpt><trkpt lat="42.26008187659953" lon="13.249222391454483"><ele>1266.0</ele><time>2026-04-27T13:37:17.998Z</time></trkpt><trkpt lat="42.260133634536245" lon="13.249048339640122"><ele>1264.0</ele><time>2026-04-27T13:37:18.998Z</time></trkpt><trkpt lat="42.26016732027581" lon="13.248860735250108"><ele>1262.75</ele><time>2026-04-27T13:37:19.998Z</time></trkpt><trkpt lat="42.260195152440836" lon="13.248690883739974"><ele>1261.5</ele><time>2026-04-27T13:37:20.998Z</time></trkpt><trkpt lat="42.2602175737806" lon="13.248502834519565"><ele>1260.25</ele><time>2026-04-27T13:37:21.998Z</time></trkpt><trkpt lat="42.260239600878684" lon="13.248328895340514"><ele>1259.0</ele><time>2026-04-27T13:37:22.998Z</time></trkpt><trkpt lat="42.260270002292295" lon="13.248147296521516"><ele>1257.5</ele><time>2026-04-27T13:37:23.998Z</time></trkpt><trkpt lat="42.26029263058415" lon="13.247966041352257"><ele>1256.0</ele><time>2026-04-27T13:37:24.998Z</time></trkpt><trkpt lat="42.26031298448049" lon="13.247790494797165"><ele>1254.5</ele><time>2026-04-27T13:37:25.998Z</time></trkpt><trkpt lat="42.260343975913294" lon="13.24760463180137"><ele>1253.0</ele><time>2026-04-27T13:37:26.999Z</time></trkpt><trkpt lat="42.26036636522893" lon="13.247444615345634"><ele>1253.0</ele><time>2026-04-27T13:37:27.999Z</time></trkpt><trkpt lat="42.260412977018596" lon="13.247335615917494"><ele>1253.0</ele><time>2026-04-27T13:37:28.999Z</time></trkpt><trkpt lat="42.26046161843134" lon="13.247248038806347"><ele>1253.0</ele><time>2026-04-27T13:37:29.999Z</time></trkpt><trkpt lat="42.26053880672065" lon="13.247151405618888"><ele>1253.0</ele><time>2026-04-27T13:37:30.999Z</time></trkpt><trkpt lat="42.26061706301156" lon="13.24702838642685"><ele>1253.0</ele><time>2026-04-27T13:37:31.999Z</time></trkpt><trkpt lat="42.26069368592991" lon="13.246901895006848"><ele>1252.6</ele><time>2026-04-27T13:37:32.999Z</time></trkpt><trkpt lat="42.260753098649964" lon="13.246803814794022"><ele>1252.1999999999998</ele><time>2026-04-27T13:37:33.999Z</time></trkpt><trkpt lat="42.26081381572451" lon="13.246698953221514"><ele>1251.8</ele><time>2026-04-27T13:37:34.999Z</time></trkpt><trkpt lat="42.26086236731065" lon="13.246612716299186"><ele>1251.3999999999999</ele><time>2026-04-27T13:37:35.999Z</time></trkpt><trkpt lat="42.26091836497276" lon="13.246508378667592"><ele>1251.0</ele><time>2026-04-27T13:37:36.999Z</time></trkpt><trkpt lat="42.26096493625989" lon="13.246417010859266"><ele>1251.0</ele><time>2026-04-27T13:37:37.999Z</time></trkpt><trkpt lat="42.26100358502969" lon="13.246339107037086"><ele>1251.0</ele><time>2026-04-27T13:37:39Z</time></trkpt><trkpt lat="42.26104431054276" lon="13.246234097698938"><ele>1251.0</ele><time>2026-04-27T13:37:40Z</time></trkpt><trkpt lat="42.26109577536027" lon="13.246127849581235"><ele>1251.0</ele><time>2026-04-27T13:37:41Z</time></trkpt><trkpt lat="42.261155123784945" lon="13.246028554227742"><ele>1251.0</ele><time>2026-04-27T13:37:42Z</time></trkpt><trkpt lat="42.26121368689855" lon="13.245885088781094"><ele>1251.0</ele><time>2026-04-27T13:37:43Z</time></trkpt><trkpt lat="42.26129011269476" lon="13.24572843655047"><ele>1251.0</ele><time>2026-04-27T13:37:44Z</time></trkpt><trkpt lat="42.26136857458619" lon="13.245561747011271"><ele>1251.0</ele><time>2026-04-27T13:37:45Z</time></trkpt><trkpt lat="42.26146204247263" lon="13.245421223444652"><ele>1251.0</ele><time>2026-04-27T13:37:45.999Z</time></trkpt><trkpt lat="42.26154846757671" lon="13.245235519086478"><ele>1251.5</ele><time>2026-04-27T13:37:46.999Z</time></trkpt><trkpt lat="42.26161018460255" lon="13.245036139083565"><ele>1252.0</ele><time>2026-04-27T13:37:47.999Z</time></trkpt><trkpt lat="42.261665212321944" lon="13.244879836192982"><ele>1252.5</ele><time>2026-04-27T13:37:48.999Z</time></trkpt><trkpt lat="42.26170703213002" lon="13.244718941349552"><ele>1253.0</ele><time>2026-04-27T13:37:49.999Z</time></trkpt><trkpt lat="42.261733969511006" lon="13.244562682103162"><ele>1253.0</ele><time>2026-04-27T13:37:50.999Z</time></trkpt><trkpt lat="42.261750668083074" lon="13.244407280357574"><ele>1253.0</ele><time>2026-04-27T13:37:51.999Z</time></trkpt><trkpt lat="42.26174842307388" lon="13.244244156818455"><ele>1253.0</ele><time>2026-04-27T13:37:52.999Z</time></trkpt><trkpt lat="42.26171936817897" lon="13.24408401180311"><ele>1253.0</ele><time>2026-04-27T13:37:53.999Z</time></trkpt><trkpt lat="42.261645935040015" lon="13.243927207632819"><ele>1253.0</ele><time>2026-04-27T13:37:54.999Z</time></trkpt><trkpt lat="42.26153197541876" lon="13.243775134203213"><ele>1253.0</ele><time>2026-04-27T13:37:55.999Z</time></trkpt><trkpt lat="42.26139391349488" lon="13.243648379607361"><ele>1253.0</ele><time>2026-04-27T13:37:56.999Z</time></trkpt><trkpt lat="42.26126095006504" lon="13.243522280709465"><ele>1253.0</ele><time>2026-04-27T13:37:57.999Z</time></trkpt><trkpt lat="42.26110976182375" lon="13.243391436011823"><ele>1253.0</ele><time>2026-04-27T13:37:58.999Z</time></trkpt><trkpt lat="42.26099234931543" lon="13.243256108156672"><ele>1253.0</ele><time>2026-04-27T13:37:59.999Z</time></trkpt><trkpt lat="42.260903437647166" lon="13.243152181994235"><ele>1253.0</ele><time>2026-04-27T13:38:00.999Z</time></trkpt><trkpt lat="42.26085252141442" lon="13.243047508412426"><ele>1253.0</ele><time>2026-04-27T13:38:01.999Z</time></trkpt><trkpt lat="42.26082838448878" lon="13.24292840048454"><ele>1253.0</ele><time>2026-04-27T13:38:02.999Z</time></trkpt><trkpt lat="42.260810218116006" lon="13.24276733933439"><ele>1253.0</ele><time>2026-04-27T13:38:03.999Z</time></trkpt><trkpt lat="42.26077408673741" lon="13.242584410518061"><ele>1253.0</ele><time>2026-04-27T13:38:04.999Z</time></trkpt><trkpt lat="42.260769811719385" lon="13.242390492946114"><ele>1252.5</ele><time>2026-04-27T13:38:05.999Z</time></trkpt><trkpt lat="42.260736887671165" lon="13.242212421895847"><ele>1252.0</ele><time>2026-04-27T13:38:06.999Z</time></trkpt><trkpt lat="42.26065642728675" lon="13.242046224811391"><ele>1251.5</ele><time>2026-04-27T13:38:07.999Z</time></trkpt><trkpt lat="42.26059791838622" lon="13.241871269615997"><ele>1251.0</ele><time>2026-04-27T13:38:08.999Z</time></trkpt><trkpt lat="42.26057799718558" lon="13.241686757816456"><ele>1249.0</ele><time>2026-04-27T13:38:09.999Z</time></trkpt><trkpt lat="42.26058255934915" lon="13.241506118992817"><ele>1247.0</ele><time>2026-04-27T13:38:10.999Z</time></trkpt><trkpt lat="42.26060425809826" lon="13.241327793915081"><ele>1245.0</ele><time>2026-04-27T13:38:11.999Z</time></trkpt><trkpt lat="42.26063128528621" lon="13.241166436104693"><ele>1243.0</ele><time>2026-04-27T13:38:12.999Z</time></trkpt><trkpt lat="42.260663149699354" lon="13.241037378167304"><ele>1243.0</ele><time>2026-04-27T13:38:13.999Z</time></trkpt><trkpt lat="42.26071051070626" lon="13.240953122850954"><ele>1243.0</ele><time>2026-04-27T13:38:14.999Z</time></trkpt><trkpt lat="42.26077232747092" lon="13.240886600413095"><ele>1243.0</ele><time>2026-04-27T13:38:15.999Z</time></trkpt><trkpt lat="42.2608435952443" lon="13.24085398841185"><ele>1243.0</ele><time>2026-04-27T13:38:16.999Z</time></trkpt><trkpt lat="42.26096302229772" lon="13.240765957406953"><ele>1243.0</ele><time>2026-04-27T13:38:17.999Z</time></trkpt><trkpt lat="42.261123448331276" lon="13.24066123729735"><ele>1240.6666666666665</ele><time>2026-04-27T13:38:18.999Z</time></trkpt><trkpt lat="42.26127921546223" lon="13.240566966484797"><ele>1238.3333333333333</ele><time>2026-04-27T13:38:19.999Z</time></trkpt><trkpt lat="42.261422068057634" lon="13.240476310268578"><ele>1236.0</ele><time>2026-04-27T13:38:20.999Z</time></trkpt><trkpt lat="42.26154354824695" lon="13.240348383267316"><ele>1236.0</ele><time>2026-04-27T13:38:21.999Z</time></trkpt><trkpt lat="42.26166212782385" lon="13.240240869322358"><ele>1236.0</ele><time>2026-04-27T13:38:22.999Z</time></trkpt><trkpt lat="42.26179134708358" lon="13.24013334732632"><ele>1236.0</ele><time>2026-04-27T13:38:23.999Z</time></trkpt><trkpt lat="42.261911666185696" lon="13.24004250467958"><ele>1236.0</ele><time>2026-04-27T13:38:24.999Z</time></trkpt><trkpt lat="42.262025405238546" lon="13.239969777150257"><ele>1236.0</ele><time>2026-04-27T13:38:25.999Z</time></trkpt><trkpt lat="42.2621484758901" lon="13.239911202488127"><ele>1236.0</ele><time>2026-04-27T13:38:26.999Z</time></trkpt><trkpt lat="42.262274850568886" lon="13.239877086845288"><ele>1236.0</ele><time>2026-04-27T13:38:27.999Z</time></trkpt><trkpt lat="42.26240279322753" lon="13.239849393428434"><ele>1236.0</ele><time>2026-04-27T13:38:28.999Z</time></trkpt><trkpt lat="42.26253093626002" lon="13.239827052195292"><ele>1231.0</ele><time>2026-04-27T13:38:29.999Z</time></trkpt><trkpt lat="42.262692262164684" lon="13.239797474702067"><ele>1226.0</ele><time>2026-04-27T13:38:30.999Z</time></trkpt><trkpt lat="42.26282566662015" lon="13.239775565603205"><ele>1221.0</ele><time>2026-04-27T13:38:31.999Z</time></trkpt><trkpt lat="42.26294461724474" lon="13.239758213322713"><ele>1216.0</ele><time>2026-04-27T13:38:32.999Z</time></trkpt><trkpt lat="42.263053010021025" lon="13.23971960171389"><ele>1218.0</ele><time>2026-04-27T13:38:33.999Z</time></trkpt><trkpt lat="42.263140532164755" lon="13.23966853108247"><ele>1220.0</ele><time>2026-04-27T13:38:34.999Z</time></trkpt><trkpt lat="42.263209071829145" lon="13.239582867457173"><ele>1222.0</ele><time>2026-04-27T13:38:35.999Z</time></trkpt><trkpt lat="42.263268596372775" lon="13.239464462911354"><ele>1224.0</ele><time>2026-04-27T13:38:36.999Z</time></trkpt><trkpt lat="42.26327219469697" lon="13.239300708064569"><ele>1226.0</ele><time>2026-04-27T13:38:37.999Z</time></trkpt><trkpt lat="42.263284583364374" lon="13.239120206682621"><ele>1223.25</ele><time>2026-04-27T13:38:38.999Z</time></trkpt><trkpt lat="42.26330389329708" lon="13.23893133347682"><ele>1220.5</ele><time>2026-04-27T13:38:39.999Z</time></trkpt><trkpt lat="42.26329374818638" lon="13.238771598531681"><ele>1217.75</ele><time>2026-04-27T13:38:40.999Z</time></trkpt><trkpt lat="42.263297228068566" lon="13.238609774606019"><ele>1215.0</ele><time>2026-04-27T13:38:41.999Z</time></trkpt><trkpt lat="42.263347764473636" lon="13.2384783519448"><ele>1215.0</ele><time>2026-04-27T13:38:42.999Z</time></trkpt><trkpt lat="42.263401574693596" lon="13.238345815148687"><ele>1215.0</ele><time>2026-04-27T13:38:43.999Z</time></trkpt><trkpt lat="42.26347367143322" lon="13.23821154685047"><ele>1215.0</ele><time>2026-04-27T13:38:44.999Z</time></trkpt><trkpt lat="42.263561560858896" lon="13.23807406613931"><ele>1215.0</ele><time>2026-04-27T13:38:45.999Z</time></trkpt><trkpt lat="42.26364046013234" lon="13.237955202053978"><ele>1214.25</ele><time>2026-04-27T13:38:46.999Z</time></trkpt><trkpt lat="42.26371177470683" lon="13.23784006711965"><ele>1213.5</ele><time>2026-04-27T13:38:47.999Z</time></trkpt><trkpt lat="42.26375763152182" lon="13.237722925561767"><ele>1212.75</ele><time>2026-04-27T13:38:48.999Z</time></trkpt><trkpt lat="42.26382063918623" lon="13.237629370412057"><ele>1212.0</ele><time>2026-04-27T13:38:49.999Z</time></trkpt><trkpt lat="42.263975710441194" lon="13.237657663287646"><ele>1212.0</ele><time>2026-04-27T13:38:50.999Z</time></trkpt><trkpt lat="42.264090240596005" lon="13.237568364444758"><ele>1212.0</ele><time>2026-04-27T13:38:51.999Z</time></trkpt><trkpt lat="42.264216679849284" lon="13.237480249326678"><ele>1212.0</ele><time>2026-04-27T13:38:52.999Z</time></trkpt><trkpt lat="42.264339883223656" lon="13.237422741610962"><ele>1212.0</ele><time>2026-04-27T13:38:53.999Z</time></trkpt><trkpt lat="42.26444986917132" lon="13.237390403546149"><ele>1212.0</ele><time>2026-04-27T13:38:54.999Z</time></trkpt><trkpt lat="42.264545718505964" lon="13.237361487986316"><ele>1212.0</ele><time>2026-04-27T13:38:55.999Z</time></trkpt><trkpt lat="42.264638972688" lon="13.23741274639924"><ele>1212.0</ele><time>2026-04-27T13:38:56.999Z</time></trkpt><trkpt lat="42.26473381516748" lon="13.237491050165676"><ele>1212.0</ele><time>2026-04-27T13:38:57.999Z</time></trkpt><trkpt lat="42.264797604698956" lon="13.237611332583034"><ele>1212.0</ele><time>2026-04-27T13:38:58.999Z</time></trkpt><trkpt lat="42.264877690415695" lon="13.237725783701558"><ele>1212.6</ele><time>2026-04-27T13:38:59.999Z</time></trkpt><trkpt lat="42.264962556125234" lon="13.237822789408359"><ele>1213.2</ele><time>2026-04-27T13:39:00.999Z</time></trkpt><trkpt lat="42.265070216626285" lon="13.237887728384392"><ele>1213.8</ele><time>2026-04-27T13:39:01.999Z</time></trkpt><trkpt lat="42.26516413421602" lon="13.237973581834646"><ele>1214.4</ele><time>2026-04-27T13:39:02.999Z</time></trkpt><trkpt lat="42.265239126271176" lon="13.238074431015212"><ele>1215.0</ele><time>2026-04-27T13:39:03.999Z</time></trkpt><trkpt lat="42.265272404126975" lon="13.238193113301348"><ele>1213.4</ele><time>2026-04-27T13:39:04.999Z</time></trkpt><trkpt lat="42.26531566566022" lon="13.23830831202992"><ele>1211.8</ele><time>2026-04-27T13:39:05.999Z</time></trkpt><trkpt lat="42.26536508286249" lon="13.23840060436055"><ele>1210.2</ele><time>2026-04-27T13:39:06.999Z</time></trkpt><trkpt lat="42.265417212901355" lon="13.238522762124784"><ele>1208.6</ele><time>2026-04-27T13:39:07.999Z</time></trkpt><trkpt lat="42.26548459791501" lon="13.238656976539987"><ele>1207.0</ele><time>2026-04-27T13:39:08.999Z</time></trkpt><trkpt lat="42.26556193775814" lon="13.23880378929943"><ele>1206.0</ele><time>2026-04-27T13:39:09.999Z</time></trkpt><trkpt lat="42.26564346542644" lon="13.238959102580521"><ele>1205.0</ele><time>2026-04-27T13:39:10.999Z</time></trkpt><trkpt lat="42.265705715807975" lon="13.239102622625081"><ele>1204.0</ele><time>2026-04-27T13:39:11.998Z</time></trkpt><trkpt lat="42.26573354309597" lon="13.239266232043"><ele>1203.0</ele><time>2026-04-27T13:39:12.998Z</time></trkpt><trkpt lat="42.26578635194606" lon="13.23941615861636"><ele>1203.0</ele><time>2026-04-27T13:39:13.998Z</time></trkpt><trkpt lat="42.265837007535474" lon="13.239557819452854"><ele>1203.0</ele><time>2026-04-27T13:39:14.998Z</time></trkpt><trkpt lat="42.26590843563229" lon="13.23969965947515"><ele>1203.0</ele><time>2026-04-27T13:39:15.998Z</time></trkpt><trkpt lat="42.26598596624334" lon="13.239821198825933"><ele>1203.0</ele><time>2026-04-27T13:39:16.998Z</time></trkpt><trkpt lat="42.266063266201385" lon="13.239929595151597"><ele>1201.4</ele><time>2026-04-27T13:39:17.998Z</time></trkpt><trkpt lat="42.2661388437226" lon="13.240029290067492"><ele>1199.8</ele><time>2026-04-27T13:39:18.998Z</time></trkpt><trkpt lat="42.266211397975155" lon="13.240128547898454"><ele>1198.2</ele><time>2026-04-27T13:39:19.998Z</time></trkpt><trkpt lat="42.26628342183774" lon="13.240226972444244"><ele>1196.6</ele><time>2026-04-27T13:39:20.998Z</time></trkpt><trkpt lat="42.26635853041424" lon="13.2403235113326"><ele>1195.0</ele><time>2026-04-27T13:39:21.998Z</time></trkpt><trkpt lat="42.26644338172195" lon="13.24041382243856"><ele>1195.4</ele><time>2026-04-27T13:39:22.998Z</time></trkpt><trkpt lat="42.26653546426642" lon="13.24050102557868"><ele>1195.8</ele><time>2026-04-27T13:39:23.998Z</time></trkpt><trkpt lat="42.266638231300114" lon="13.240572342747797"><ele>1196.2</ele><time>2026-04-27T13:39:24.998Z</time></trkpt><trkpt lat="42.26673641981986" lon="13.240627638326059"><ele>1196.6</ele><time>2026-04-27T13:39:25.998Z</time></trkpt><trkpt lat="42.26682939624612" lon="13.240676631521172"><ele>1197.0</ele><time>2026-04-27T13:39:26.998Z</time></trkpt><trkpt lat="42.26692852284221" lon="13.240727170819158"><ele>1194.6</ele><time>2026-04-27T13:39:27.998Z</time></trkpt><trkpt lat="42.2670349779806" lon="13.240770447901925"><ele>1192.2</ele><time>2026-04-27T13:39:28.998Z</time></trkpt><trkpt lat="42.26714426220161" lon="13.240796681030552"><ele>1189.8</ele><time>2026-04-27T13:39:29.998Z</time></trkpt><trkpt lat="42.267253255661146" lon="13.240830939525274"><ele>1187.4</ele><time>2026-04-27T13:39:30.998Z</time></trkpt><trkpt lat="42.26735902387667" lon="13.24085982004564"><ele>1185.0</ele><time>2026-04-27T13:39:31.998Z</time></trkpt><trkpt lat="42.267469363931916" lon="13.240896479038824"><ele>1184.75</ele><time>2026-04-27T13:39:33Z</time></trkpt><trkpt lat="42.2675831722997" lon="13.240950722602165"><ele>1184.5</ele><time>2026-04-27T13:39:34Z</time></trkpt><trkpt lat="42.267698405819324" lon="13.241022350328045"><ele>1184.25</ele><time>2026-04-27T13:39:35Z</time></trkpt><trkpt lat="42.26780208654598" lon="13.241104323738968"><ele>1184.0</ele><time>2026-04-27T13:39:36Z</time></trkpt><trkpt lat="42.26788194716808" lon="13.241194438360088"><ele>1184.0</ele><time>2026-04-27T13:39:37Z</time></trkpt><trkpt lat="42.26792853071133" lon="13.241295235258791"><ele>1184.0</ele><time>2026-04-27T13:39:38Z</time></trkpt><trkpt lat="42.26794578698849" lon="13.241420533934148"><ele>1184.0</ele><time>2026-04-27T13:39:39Z</time></trkpt><trkpt lat="42.26794158386714" lon="13.241579995063782"><ele>1184.0</ele><time>2026-04-27T13:39:40Z</time></trkpt><trkpt lat="42.26793554162235" lon="13.24175537066996"><ele>1184.0</ele><time>2026-04-27T13:39:41Z</time></trkpt><trkpt lat="42.267938596414396" lon="13.241934358143489"><ele>1184.25</ele><time>2026-04-27T13:39:42Z</time></trkpt><trkpt lat="42.26796055568861" lon="13.242113373874542"><ele>1184.5</ele><time>2026-04-27T13:39:43Z</time></trkpt><trkpt lat="42.26799391619813" lon="13.2422863409797"><ele>1184.75</ele><time>2026-04-27T13:39:44Z</time></trkpt><trkpt lat="42.26803525807392" lon="13.24245468892622"><ele>1185.0</ele><time>2026-04-27T13:39:45Z</time></trkpt><trkpt lat="42.26807454857688" lon="13.242602113099162"><ele>1183.8</ele><time>2026-04-27T13:39:46Z</time></trkpt><trkpt lat="42.26811183851122" lon="13.242731139614852"><ele>1182.6</ele><time>2026-04-27T13:39:47Z</time></trkpt><trkpt lat="42.268157401187274" lon="13.24284444064571"><ele>1181.4</ele><time>2026-04-27T13:39:48Z</time></trkpt><trkpt lat="42.26821765769524" lon="13.242939911899379"><ele>1180.2</ele><time>2026-04-27T13:39:49Z</time></trkpt><trkpt lat="42.26828417513439" lon="13.242998045096071"><ele>1179.0</ele><time>2026-04-27T13:39:50Z</time></trkpt><trkpt lat="42.26836618695315" lon="13.243022509065092"><ele>1179.0</ele><time>2026-04-27T13:39:51Z</time></trkpt><trkpt lat="42.268465785902826" lon="13.243028611506471"><ele>1179.0</ele><time>2026-04-27T13:39:52Z</time></trkpt><trkpt lat="42.268571800579764" lon="13.243017631191496"><ele>1179.0</ele><time>2026-04-27T13:39:53Z</time></trkpt><trkpt lat="42.26868236123812" lon="13.24300522134915"><ele>1179.0</ele><time>2026-04-27T13:39:54Z</time></trkpt><trkpt lat="42.268796507605416" lon="13.243014085237586"><ele>1179.0</ele><time>2026-04-27T13:39:55Z</time></trkpt><trkpt lat="42.26890688230451" lon="13.243047250709338"><ele>1180.25</ele><time>2026-04-27T13:39:56Z</time></trkpt><trkpt lat="42.26901891186543" lon="13.243096807159889"><ele>1181.5</ele><time>2026-04-27T13:39:57Z</time></trkpt><trkpt lat="42.2691332833846" lon="13.243159406397256"><ele>1182.75</ele><time>2026-04-27T13:39:58Z</time></trkpt><trkpt lat="42.26924028470068" lon="13.24322815927655"><ele>1184.0</ele><time>2026-04-27T13:39:59Z</time></trkpt><trkpt lat="42.269352092254266" lon="13.243286603075884"><ele>1184.75</ele><time>2026-04-27T13:40:00Z</time></trkpt><trkpt lat="42.26947851273766" lon="13.24332992965899"><ele>1185.5</ele><time>2026-04-27T13:40:01Z</time></trkpt><trkpt lat="42.26958970957023" lon="13.243364246837762"><ele>1186.25</ele><time>2026-04-27T13:40:02Z</time></trkpt><trkpt lat="42.26970011321161" lon="13.243388502922626"><ele>1187.0</ele><time>2026-04-27T13:40:03Z</time></trkpt><trkpt lat="42.26981710451872" lon="13.243384167905894"><ele>1188.5</ele><time>2026-04-27T13:40:04Z</time></trkpt><trkpt lat="42.26992908631688" lon="13.243361086935868"><ele>1190.0</ele><time>2026-04-27T13:40:05Z</time></trkpt><trkpt lat="42.2700294964103" lon="13.243316972504575"><ele>1191.5</ele><time>2026-04-27T13:40:06Z</time></trkpt><trkpt lat="42.27012752937549" lon="13.243240471898089"><ele>1193.0</ele><time>2026-04-27T13:40:07Z</time></trkpt><trkpt lat="42.27021820049848" lon="13.243138651498745"><ele>1193.4</ele><time>2026-04-27T13:40:08Z</time></trkpt><trkpt lat="42.27030370271006" lon="13.243016630481174"><ele>1193.8</ele><time>2026-04-27T13:40:08.999Z</time></trkpt><trkpt lat="42.27039968136505" lon="13.242930571136588"><ele>1194.2</ele><time>2026-04-27T13:40:09.999Z</time></trkpt><trkpt lat="42.27048000289524" lon="13.242866644358347"><ele>1194.6</ele><time>2026-04-27T13:40:10.999Z</time></trkpt><trkpt lat="42.27056616609581" lon="13.242818055780164"><ele>1195.0</ele><time>2026-04-27T13:40:11.999Z</time></trkpt><trkpt lat="42.27063064346543" lon="13.242778225703892"><ele>1194.0</ele><time>2026-04-27T13:40:12.999Z</time></trkpt><trkpt lat="42.27069485521727" lon="13.242727344947285"><ele>1193.0</ele><time>2026-04-27T13:40:13.999Z</time></trkpt><trkpt lat="42.27077748982771" lon="13.242663105809461"><ele>1192.0</ele><time>2026-04-27T13:40:14.999Z</time></trkpt><trkpt lat="42.27086886884526" lon="13.242601910635477"><ele>1191.0</ele><time>2026-04-27T13:40:15.999Z</time></trkpt><trkpt lat="42.27096214046203" lon="13.242533918622275"><ele>1190.0</ele><time>2026-04-27T13:40:16.999Z</time></trkpt><trkpt lat="42.271054191233446" lon="13.242449047296548"><ele>1190.0</ele><time>2026-04-27T13:40:17.999Z</time></trkpt><trkpt lat="42.27116248770041" lon="13.242391396557107"><ele>1190.0</ele><time>2026-04-27T13:40:18.999Z</time></trkpt><trkpt lat="42.27127384045632" lon="13.242298012528689"><ele>1190.0</ele><time>2026-04-27T13:40:19.999Z</time></trkpt><trkpt lat="42.27141484028421" lon="13.242214952558767"><ele>1190.0</ele><time>2026-04-27T13:40:20.999Z</time></trkpt><trkpt lat="42.2715210309717" lon="13.242141971994513"><ele>1189.25</ele><time>2026-04-27T13:40:21.999Z</time></trkpt><trkpt lat="42.271623935709584" lon="13.24205022956861"><ele>1188.5</ele><time>2026-04-27T13:40:22.999Z</time></trkpt><trkpt lat="42.271721276675024" lon="13.241936923917029"><ele>1187.75</ele><time>2026-04-27T13:40:23.999Z</time></trkpt><trkpt lat="42.27181047980529" lon="13.241822692062902"><ele>1187.0</ele><time>2026-04-27T13:40:24.999Z</time></trkpt><trkpt lat="42.2718952797825" lon="13.241721652241171"><ele>1187.0</ele><time>2026-04-27T13:40:25.999Z</time></trkpt><trkpt lat="42.271980327901886" lon="13.241636133989378"><ele>1187.0</ele><time>2026-04-27T13:40:26.999Z</time></trkpt><trkpt lat="42.27206795190516" lon="13.241565740624466"><ele>1187.0</ele><time>2026-04-27T13:40:27.999Z</time></trkpt><trkpt lat="42.272167613908074" lon="13.241546043297163"><ele>1187.0</ele><time>2026-04-27T13:40:28.999Z</time></trkpt><trkpt lat="42.272274313775135" lon="13.241524579209269"><ele>1187.0</ele><time>2026-04-27T13:40:29.999Z</time></trkpt><trkpt lat="42.27238974571457" lon="13.241504642315993"><ele>1185.75</ele><time>2026-04-27T13:40:30.999Z</time></trkpt><trkpt lat="42.272516454633525" lon="13.241529556614376"><ele>1184.5</ele><time>2026-04-27T13:40:31.999Z</time></trkpt><trkpt lat="42.27264372979466" lon="13.241584315219741"><ele>1183.25</ele><time>2026-04-27T13:40:32.999Z</time></trkpt><trkpt lat="42.272775523533674" lon="13.241619824963928"><ele>1182.0</ele><time>2026-04-27T13:40:33.999Z</time></trkpt><trkpt lat="42.272911394146526" lon="13.241627018984392"><ele>1182.0</ele><time>2026-04-27T13:40:34.999Z</time></trkpt><trkpt lat="42.27303593913235" lon="13.241650897538126"><ele>1182.0</ele><time>2026-04-27T13:40:35.999Z</time></trkpt><trkpt lat="42.27316349799902" lon="13.241671521470396"><ele>1182.0</ele><time>2026-04-27T13:40:36.999Z</time></trkpt><trkpt lat="42.2732986318814" lon="13.241681798461107"><ele>1182.0</ele><time>2026-04-27T13:40:37.999Z</time></trkpt><trkpt lat="42.27341281724869" lon="13.24169158513896"><ele>1181.4</ele><time>2026-04-27T13:40:38.999Z</time></trkpt><trkpt lat="42.27351154701365" lon="13.24172242135871"><ele>1180.8000000000002</ele><time>2026-04-27T13:40:39.999Z</time></trkpt><trkpt lat="42.27359190373584" lon="13.24178069536172"><ele>1180.2</ele><time>2026-04-27T13:40:40.999Z</time></trkpt><trkpt lat="42.273674073075526" lon="13.241875585580459"><ele>1179.6000000000001</ele><time>2026-04-27T13:40:41.999Z</time></trkpt><trkpt lat="42.27376632825133" lon="13.24198575372988"><ele>1179.0</ele><time>2026-04-27T13:40:42.999Z</time></trkpt><trkpt lat="42.27386543936655" lon="13.242084678637083"><ele>1179.6000000000001</ele><time>2026-04-27T13:40:43.999Z</time></trkpt><trkpt lat="42.27396528259811" lon="13.242175538476966"><ele>1180.2</ele><time>2026-04-27T13:40:44.999Z</time></trkpt><trkpt lat="42.274051765213066" lon="13.242251828696467"><ele>1180.8000000000002</ele><time>2026-04-27T13:40:45.999Z</time></trkpt><trkpt lat="42.27412225772087" lon="13.242316307792015"><ele>1181.4</ele><time>2026-04-27T13:40:46.999Z</time></trkpt><trkpt lat="42.274177022322746" lon="13.242389690905496"><ele>1182.0</ele><time>2026-04-27T13:40:47.999Z</time></trkpt><trkpt lat="42.27418620354152" lon="13.24249684596393"><ele>1183.0</ele><time>2026-04-27T13:40:48.999Z</time></trkpt><trkpt lat="42.27420189679066" lon="13.24259259411036"><ele>1184.0</ele><time>2026-04-27T13:40:49.999Z</time></trkpt><trkpt lat="42.274214126516384" lon="13.242690995835018"><ele>1185.0</ele><time>2026-04-27T13:40:50.999Z</time></trkpt><trkpt lat="42.27424178721981" lon="13.24279726192861"><ele>1186.0</ele><time>2026-04-27T13:40:51.999Z</time></trkpt><trkpt lat="42.27423185747274" lon="13.242923542556097"><ele>1187.0</ele><time>2026-04-27T13:40:52.999Z</time></trkpt><trkpt lat="42.27425966724125" lon="13.243052785966954"><ele>1188.0</ele><time>2026-04-27T13:40:53.999Z</time></trkpt><trkpt lat="42.27432370728625" lon="13.243161598029724"><ele>1188.0</ele><time>2026-04-27T13:40:54.999Z</time></trkpt><trkpt lat="42.27438839710503" lon="13.243270797475642"><ele>1188.0</ele><time>2026-04-27T13:40:55.999Z</time></trkpt><trkpt lat="42.274472701552604" lon="13.243362956446678"><ele>1188.0</ele><time>2026-04-27T13:40:56.999Z</time></trkpt><trkpt lat="42.27457932494251" lon="13.24343711183652"><ele>1188.0</ele><time>2026-04-27T13:40:57.999Z</time></trkpt><trkpt lat="42.27467862093543" lon="13.243530652073748"><ele>1191.75</ele><time>2026-04-27T13:40:58.999Z</time></trkpt><trkpt lat="42.27479007485027" lon="13.24361553351146"><ele>1195.5</ele><time>2026-04-27T13:40:59.999Z</time></trkpt><trkpt lat="42.27490481316446" lon="13.243708714077957"><ele>1199.25</ele><time>2026-04-27T13:41:00.999Z</time></trkpt><trkpt lat="42.27502566873056" lon="13.243806652147612"><ele>1203.0</ele><time>2026-04-27T13:41:01.999Z</time></trkpt><trkpt lat="42.275150780615185" lon="13.243906545992948"><ele>1202.25</ele><time>2026-04-27T13:41:02.999Z</time></trkpt><trkpt lat="42.27527438624537" lon="13.244005188255175"><ele>1201.5</ele><time>2026-04-27T13:41:03.999Z</time></trkpt><trkpt lat="42.27539431720288" lon="13.244100658597102"><ele>1200.75</ele><time>2026-04-27T13:41:04.999Z</time></trkpt><trkpt lat="42.27552129535237" lon="13.244198588099028"><ele>1200.0</ele><time>2026-04-27T13:41:05.999Z</time></trkpt><trkpt lat="42.275629650079054" lon="13.244293222891041"><ele>1202.25</ele><time>2026-04-27T13:41:06.999Z</time></trkpt><trkpt lat="42.275721760750486" lon="13.244399289183379"><ele>1204.5</ele><time>2026-04-27T13:41:07.999Z</time></trkpt><trkpt lat="42.27583737856744" lon="13.244454275180455"><ele>1206.75</ele><time>2026-04-27T13:41:08.999Z</time></trkpt><trkpt lat="42.27595584613385" lon="13.244498004106458"><ele>1209.0</ele><time>2026-04-27T13:41:09.999Z</time></trkpt><trkpt lat="42.27607151992171" lon="13.244531014250875"><ele>1209.0</ele><time>2026-04-27T13:41:10.999Z</time></trkpt><trkpt lat="42.27618292922125" lon="13.244545555089193"><ele>1209.0</ele><time>2026-04-27T13:41:11.999Z</time></trkpt><trkpt lat="42.27627732778509" lon="13.244573169608488"><ele>1209.0</ele><time>2026-04-27T13:41:12.999Z</time></trkpt><trkpt lat="42.27635635246813" lon="13.244651346603773"><ele>1209.0</ele><time>2026-04-27T13:41:13.999Z</time></trkpt><trkpt lat="42.2764441228539" lon="13.244751371430636"><ele>1209.0</ele><time>2026-04-27T13:41:14.999Z</time></trkpt><trkpt lat="42.276540326021745" lon="13.24485055597831"><ele>1209.8</ele><time>2026-04-27T13:41:15.999Z</time></trkpt><trkpt lat="42.27663360608669" lon="13.244950350619941"><ele>1210.6000000000001</ele><time>2026-04-27T13:41:16.999Z</time></trkpt><trkpt lat="42.2767197720599" lon="13.245040404767039"><ele>1211.4</ele><time>2026-04-27T13:41:17.999Z</time></trkpt><trkpt lat="42.276793755808406" lon="13.24511484333903"><ele>1212.2</ele><time>2026-04-27T13:41:18.999Z</time></trkpt><trkpt lat="42.27687268322964" lon="13.245175057131291"><ele>1213.0</ele><time>2026-04-27T13:41:19.999Z</time></trkpt><trkpt lat="42.27696324247255" lon="13.245235920160942"><ele>1213.0</ele><time>2026-04-27T13:41:20.999Z</time></trkpt><trkpt lat="42.277066852305765" lon="13.245297436291592"><ele>1213.0</ele><time>2026-04-27T13:41:21.999Z</time></trkpt><trkpt lat="42.27717892295392" lon="13.245346573869663"><ele>1213.0</ele><time>2026-04-27T13:41:22.999Z</time></trkpt><trkpt lat="42.27726290693932" lon="13.24540702727775"><ele>1213.0</ele><time>2026-04-27T13:41:23.999Z</time></trkpt><trkpt lat="42.27731151208948" lon="13.245496212857484"><ele>1213.0</ele><time>2026-04-27T13:41:24.999Z</time></trkpt><trkpt lat="42.277340396076625" lon="13.245621804662843"><ele>1211.6666666666665</ele><time>2026-04-27T13:41:25.999Z</time></trkpt><trkpt lat="42.277405460239564" lon="13.245714792794226"><ele>1210.3333333333333</ele><time>2026-04-27T13:41:26.999Z</time></trkpt><trkpt lat="42.27746241197437" lon="13.245783506772268"><ele>1209.0</ele><time>2026-04-27T13:41:27.998Z</time></trkpt><trkpt lat="42.27755662685969" lon="13.24582746201624"><ele>1207.6666666666667</ele><time>2026-04-27T13:41:28.998Z</time></trkpt><trkpt lat="42.27762964031959" lon="13.245870851845181"><ele>1206.3333333333335</ele><time>2026-04-27T13:41:29.998Z</time></trkpt><trkpt lat="42.277722368084724" lon="13.245884463980497"><ele>1205.0</ele><time>2026-04-27T13:41:30.998Z</time></trkpt><trkpt lat="42.27783751222029" lon="13.245881210533057"><ele>1205.0</ele><time>2026-04-27T13:41:31.998Z</time></trkpt><trkpt lat="42.27799146644673" lon="13.24589463357584"><ele>1205.0</ele><time>2026-04-27T13:41:32.998Z</time></trkpt><trkpt lat="42.27812413489405" lon="13.24591268570455"><ele>1205.0</ele><time>2026-04-27T13:41:33.998Z</time></trkpt><trkpt lat="42.278259530168626" lon="13.24592984923539"><ele>1205.0</ele><time>2026-04-27T13:41:34.998Z</time></trkpt><trkpt lat="42.278390139691346" lon="13.245923784549566"><ele>1202.0</ele><time>2026-04-27T13:41:35.998Z</time></trkpt><trkpt lat="42.278508750205496" lon="13.24589592916282"><ele>1199.0</ele><time>2026-04-27T13:41:36.998Z</time></trkpt><trkpt lat="42.27862720906719" lon="13.245838051472157"><ele>1196.0</ele><time>2026-04-27T13:41:37.998Z</time></trkpt><trkpt lat="42.278752971547355" lon="13.245768969501446"><ele>1193.0</ele><time>2026-04-27T13:41:39Z</time></trkpt><trkpt lat="42.27887917195627" lon="13.245705787177561"><ele>1192.5</ele><time>2026-04-27T13:41:40Z</time></trkpt><trkpt lat="42.279009925250186" lon="13.245650522329974"><ele>1192.0</ele><time>2026-04-27T13:41:41Z</time></trkpt><trkpt lat="42.27914507755137" lon="13.245610218842645"><ele>1191.5</ele><time>2026-04-27T13:41:42Z</time></trkpt><trkpt lat="42.279286068277614" lon="13.245600718217883"><ele>1191.0</ele><time>2026-04-27T13:41:43Z</time></trkpt><trkpt lat="42.27941607738234" lon="13.245542288798696"><ele>1191.25</ele><time>2026-04-27T13:41:44Z</time></trkpt><trkpt lat="42.279556213869284" lon="13.245489721181162"><ele>1191.5</ele><time>2026-04-27T13:41:45Z</time></trkpt><trkpt lat="42.279698068704526" lon="13.24542764094125"><ele>1191.75</ele><time>2026-04-27T13:41:46Z</time></trkpt><trkpt lat="42.2798371000432" lon="13.245362112747495"><ele>1192.0</ele><time>2026-04-27T13:41:47Z</time></trkpt><trkpt lat="42.27998045808806" lon="13.245280894015727"><ele>1192.0</ele><time>2026-04-27T13:41:48Z</time></trkpt><trkpt lat="42.28011950722908" lon="13.245177978965016"><ele>1192.0</ele><time>2026-04-27T13:41:49Z</time></trkpt><trkpt lat="42.280252779798566" lon="13.245049732475351"><ele>1192.0</ele><time>2026-04-27T13:41:50Z</time></trkpt><trkpt lat="42.280386171479805" lon="13.244931917800235"><ele>1192.0</ele><time>2026-04-27T13:41:51Z</time></trkpt><trkpt lat="42.28053179079237" lon="13.244825695141733"><ele>1192.0</ele><time>2026-04-27T13:41:52Z</time></trkpt><trkpt lat="42.28067872951754" lon="13.244743223959906"><ele>1192.0</ele><time>2026-04-27T13:41:53Z</time></trkpt><trkpt lat="42.2808306998948" lon="13.244672852626215"><ele>1192.75</ele><time>2026-04-27T13:41:54Z</time></trkpt><trkpt lat="42.28098216597349" lon="13.244605528676065"><ele>1193.5</ele><time>2026-04-27T13:41:55Z</time></trkpt><trkpt lat="42.28111926568706" lon="13.244552869769555"><ele>1194.25</ele><time>2026-04-27T13:41:56Z</time></trkpt><trkpt lat="42.28123081081602" lon="13.24451487750422"><ele>1195.0</ele><time>2026-04-27T13:41:57Z</time></trkpt><trkpt lat="42.28132169348475" lon="13.24450270224164"><ele>1195.0</ele><time>2026-04-27T13:41:58Z</time></trkpt><trkpt lat="42.28141334606524" lon="13.244508113350614"><ele>1195.0</ele><time>2026-04-27T13:41:59Z</time></trkpt><trkpt lat="42.28150772825136" lon="13.244531488486516"><ele>1195.0</ele><time>2026-04-27T13:42:00Z</time></trkpt><trkpt lat="42.28160983601184" lon="13.24456931480865"><ele>1195.0</ele><time>2026-04-27T13:42:01Z</time></trkpt><trkpt lat="42.28172441534726" lon="13.244611559109787"><ele>1195.0</ele><time>2026-04-27T13:42:02Z</time></trkpt><trkpt lat="42.28184005790072" lon="13.24464849358421"><ele>1193.4</ele><time>2026-04-27T13:42:03Z</time></trkpt><trkpt lat="42.281944575241134" lon="13.244680494188712"><ele>1191.8</ele><time>2026-04-27T13:42:04Z</time></trkpt><trkpt lat="42.282049110138246" lon="13.244697884682003"><ele>1190.2</ele><time>2026-04-27T13:42:05Z</time></trkpt><trkpt lat="42.28214380778441" lon="13.244689712178062"><ele>1188.6</ele><time>2026-04-27T13:42:06Z</time></trkpt><trkpt lat="42.282228815167684" lon="13.244673888996939"><ele>1187.0</ele><time>2026-04-27T13:42:07Z</time></trkpt><trkpt lat="42.28228593378145" lon="13.244612688783729"><ele>1185.5</ele><time>2026-04-27T13:42:08Z</time></trkpt><trkpt lat="42.28230805097701" lon="13.244412385772728"><ele>1184.0</ele><time>2026-04-27T13:42:10Z</time></trkpt><trkpt lat="42.28232836949502" lon="13.24428526450887"><ele>1182.5</ele><time>2026-04-27T13:42:11Z</time></trkpt><trkpt lat="42.28238037843354" lon="13.244150826078313"><ele>1181.0</ele><time>2026-04-27T13:42:12Z</time></trkpt><trkpt lat="42.28246677987095" lon="13.244039342602768"><ele>1182.5</ele><time>2026-04-27T13:42:13Z</time></trkpt><trkpt lat="42.282552089004795" lon="13.24392889293951"><ele>1184.0</ele><time>2026-04-27T13:42:14Z</time></trkpt><trkpt lat="42.282636383263025" lon="13.243796380724513"><ele>1185.5</ele><time>2026-04-27T13:42:15Z</time></trkpt><trkpt lat="42.28273640619112" lon="13.243682883320464"><ele>1187.0</ele><time>2026-04-27T13:42:16Z</time></trkpt><trkpt lat="42.28282518819369" lon="13.243587131873518"><ele>1187.0</ele><time>2026-04-27T13:42:17Z</time></trkpt><trkpt lat="42.282915919058084" lon="13.243499276065556"><ele>1187.0</ele><time>2026-04-27T13:42:18Z</time></trkpt><trkpt lat="42.282962465812986" lon="13.243380962668708"><ele>1187.0</ele><time>2026-04-27T13:42:19Z</time></trkpt><trkpt lat="42.28300033534944" lon="13.243243181185962"><ele>1187.0</ele><time>2026-04-27T13:42:20Z</time></trkpt><trkpt lat="42.28299883852461" lon="13.243087543562662"><ele>1187.0</ele><time>2026-04-27T13:42:21Z</time></trkpt><trkpt lat="42.282985899630155" lon="13.242927622460003"><ele>1185.75</ele><time>2026-04-27T13:42:22Z</time></trkpt><trkpt lat="42.28296777588908" lon="13.242754799390477"><ele>1184.5</ele><time>2026-04-27T13:42:22.999Z</time></trkpt><trkpt lat="42.28292175440437" lon="13.242585335381914"><ele>1183.25</ele><time>2026-04-27T13:42:23.999Z</time></trkpt><trkpt lat="42.282871375697965" lon="13.242421039793065"><ele>1182.0</ele><time>2026-04-27T13:42:24.999Z</time></trkpt><trkpt lat="42.282847229926944" lon="13.242271721703093"><ele>1181.1666666666667</ele><time>2026-04-27T13:42:25.999Z</time></trkpt><trkpt lat="42.28283016719848" lon="13.24214317088563"><ele>1180.3333333333333</ele><time>2026-04-27T13:42:26.999Z</time></trkpt><trkpt lat="42.282808513172" lon="13.242027355142326"><ele>1179.5</ele><time>2026-04-27T13:42:27.999Z</time></trkpt><trkpt lat="42.282820647006226" lon="13.241937245237738"><ele>1178.6666666666665</ele><time>2026-04-27T13:42:28.999Z</time></trkpt><trkpt lat="42.28289024207071" lon="13.241824999542736"><ele>1177.8333333333333</ele><time>2026-04-27T13:42:30.999Z</time></trkpt><trkpt lat="42.282963311475235" lon="13.241799450368832"><ele>1177.0</ele><time>2026-04-27T13:42:31.999Z</time></trkpt><trkpt lat="42.28306252262927" lon="13.2418356112195"><ele>1179.0</ele><time>2026-04-27T13:42:32.999Z</time></trkpt><trkpt lat="42.28316742939232" lon="13.241839728808761"><ele>1181.0</ele><time>2026-04-27T13:42:33.999Z</time></trkpt><trkpt lat="42.28327522630105" lon="13.241841089783936"><ele>1183.0</ele><time>2026-04-27T13:42:34.999Z</time></trkpt><trkpt lat="42.28339047876767" lon="13.241862263147375"><ele>1185.0</ele><time>2026-04-27T13:42:35.999Z</time></trkpt><trkpt lat="42.28351307330937" lon="13.241888212720115"><ele>1185.0</ele><time>2026-04-27T13:42:36.999Z</time></trkpt><trkpt lat="42.28364366470944" lon="13.241902573337999"><ele>1185.0</ele><time>2026-04-27T13:42:37.999Z</time></trkpt><trkpt lat="42.28377030253958" lon="13.241876610672588"><ele>1185.0</ele><time>2026-04-27T13:42:38.999Z</time></trkpt><trkpt lat="42.283885546360715" lon="13.241823644104667"><ele>1185.0</ele><time>2026-04-27T13:42:39.999Z</time></trkpt><trkpt lat="42.28397912277772" lon="13.241752502775931"><ele>1186.0</ele><time>2026-04-27T13:42:40.999Z</time></trkpt><trkpt lat="42.284073168998034" lon="13.241650148057255"><ele>1187.0</ele><time>2026-04-27T13:42:41.999Z</time></trkpt><trkpt lat="42.28417932152835" lon="13.241544349154582"><ele>1188.0</ele><time>2026-04-27T13:42:42.999Z</time></trkpt><trkpt lat="42.28429976039698" lon="13.24145093979201"><ele>1189.0</ele><time>2026-04-27T13:42:43.999Z</time></trkpt><trkpt lat="42.28443010962196" lon="13.241358533019229"><ele>1189.6666666666665</ele><time>2026-04-27T13:42:44.999Z</time></trkpt><trkpt lat="42.28456359148661" lon="13.241255976054909"><ele>1190.3333333333333</ele><time>2026-04-27T13:42:45.999Z</time></trkpt><trkpt lat="42.28468629885266" lon="13.241127444339908"><ele>1191.0</ele><time>2026-04-27T13:42:46.999Z</time></trkpt><trkpt lat="42.2848162676225" lon="13.240985534347956"><ele>1191.0</ele><time>2026-04-27T13:42:47.999Z</time></trkpt><trkpt lat="42.28492030991106" lon="13.240797599448642"><ele>1191.0</ele><time>2026-04-27T13:42:48.999Z</time></trkpt><trkpt lat="42.28505114428533" lon="13.240638873227105"><ele>1191.0</ele><time>2026-04-27T13:42:49.999Z</time></trkpt><trkpt lat="42.28519904338662" lon="13.240494571525781"><ele>1196.6666666666667</ele><time>2026-04-27T13:42:50.999Z</time></trkpt><trkpt lat="42.285359773962426" lon="13.240373736565015"><ele>1202.3333333333335</ele><time>2026-04-27T13:42:51.999Z</time></trkpt><trkpt lat="42.2855371715715" lon="13.240298548122462"><ele>1208.0</ele><time>2026-04-27T13:42:52.999Z</time></trkpt><trkpt lat="42.285712518705715" lon="13.240194380388289"><ele>1208.0</ele><time>2026-04-27T13:42:53.999Z</time></trkpt><trkpt lat="42.285874870169444" lon="13.240055969650923"><ele>1208.0</ele><time>2026-04-27T13:42:54.999Z</time></trkpt><trkpt lat="42.286051602848424" lon="13.239953492174491"><ele>1208.0</ele><time>2026-04-27T13:42:55.999Z</time></trkpt><trkpt lat="42.2862299001701" lon="13.239860955497546"><ele>1215.0</ele><time>2026-04-27T13:42:56.999Z</time></trkpt><trkpt lat="42.2864121818306" lon="13.239788830659183"><ele>1222.0</ele><time>2026-04-27T13:42:57.999Z</time></trkpt><trkpt lat="42.28655928262355" lon="13.239682671551368"><ele>1229.0</ele><time>2026-04-27T13:42:58.999Z</time></trkpt><trkpt lat="42.28670128061212" lon="13.239625986523599"><ele>1229.0</ele><time>2026-04-27T13:42:59.999Z</time></trkpt><trkpt lat="42.28685082625875" lon="13.239617597901015"><ele>1229.0</ele><time>2026-04-27T13:43:00.999Z</time></trkpt><trkpt lat="42.28699998722082" lon="13.239681888076271"><ele>1229.0</ele><time>2026-04-27T13:43:01.999Z</time></trkpt><trkpt lat="42.287163076554855" lon="13.23968278905784"><ele>1227.75</ele><time>2026-04-27T13:43:02.999Z</time></trkpt><trkpt lat="42.287317618133336" lon="13.23963669640627"><ele>1226.5</ele><time>2026-04-27T13:43:03.999Z</time></trkpt><trkpt lat="42.2874540797975" lon="13.23963892212368"><ele>1225.25</ele><time>2026-04-27T13:43:04.999Z</time></trkpt><trkpt lat="42.287573265367136" lon="13.23968362662168"><ele>1224.0</ele><time>2026-04-27T13:43:05.999Z</time></trkpt><trkpt lat="42.28766760272162" lon="13.239793290608361"><ele>1225.5</ele><time>2026-04-27T13:43:06.999Z</time></trkpt><trkpt lat="42.28776240024899" lon="13.239862880743809"><ele>1227.0</ele><time>2026-04-27T13:43:07.999Z</time></trkpt><trkpt lat="42.2878658755807" lon="13.239924122118762"><ele>1228.5</ele><time>2026-04-27T13:43:08.999Z</time></trkpt><trkpt lat="42.28799148788629" lon="13.239863146067387"><ele>1230.0</ele><time>2026-04-27T13:43:09.999Z</time></trkpt><trkpt lat="42.28811503932346" lon="13.239785539453083"><ele>1230.0</ele><time>2026-04-27T13:43:10.999Z</time></trkpt><trkpt lat="42.28824410954216" lon="13.239681060702289"><ele>1230.0</ele><time>2026-04-27T13:43:11.999Z</time></trkpt><trkpt lat="42.288376910997435" lon="13.23960509066045"><ele>1230.0</ele><time>2026-04-27T13:43:12.999Z</time></trkpt><trkpt lat="42.28852508899742" lon="13.239544850907707"><ele>1230.0</ele><time>2026-04-27T13:43:13.999Z</time></trkpt><trkpt lat="42.28868224716434" lon="13.239481124710954"><ele>1230.0</ele><time>2026-04-27T13:43:14.999Z</time></trkpt><trkpt lat="42.28884129633097" lon="13.239418793809875"><ele>1230.0</ele><time>2026-04-27T13:43:15.999Z</time></trkpt><trkpt lat="42.28900137467952" lon="13.23936084037779"><ele>1230.0</ele><time>2026-04-27T13:43:16.999Z</time></trkpt><trkpt lat="42.28916118065821" lon="13.239305545603052"><ele>1229.3333333333333</ele><time>2026-04-27T13:43:17.999Z</time></trkpt><trkpt lat="42.28932034342719" lon="13.23928627462085"><ele>1228.6666666666665</ele><time>2026-04-27T13:43:18.999Z</time></trkpt><trkpt lat="42.289470664643105" lon="13.239307371421257"><ele>1228.0</ele><time>2026-04-27T13:43:19.999Z</time></trkpt><trkpt lat="42.289615747507256" lon="13.239336335872574"><ele>1229.0</ele><time>2026-04-27T13:43:20.999Z</time></trkpt><trkpt lat="42.28976332734056" lon="13.239313618839546"><ele>1230.0</ele><time>2026-04-27T13:43:21.999Z</time></trkpt><trkpt lat="42.28990153099287" lon="13.239241241573245"><ele>1231.0</ele><time>2026-04-27T13:43:22.999Z</time></trkpt><trkpt lat="42.290037600687306" lon="13.239172413487571"><ele>1232.0</ele><time>2026-04-27T13:43:23.999Z</time></trkpt><trkpt lat="42.29018469199136" lon="13.239148102948317"><ele>1232.0</ele><time>2026-04-27T13:43:24.999Z</time></trkpt><trkpt lat="42.29033150006894" lon="13.239186650405895"><ele>1232.0</ele><time>2026-04-27T13:43:25.999Z</time></trkpt><trkpt lat="42.29046042705551" lon="13.239258544110541"><ele>1232.0</ele><time>2026-04-27T13:43:26.999Z</time></trkpt><trkpt lat="42.290589837590964" lon="13.239306033414596"><ele>1232.0</ele><time>2026-04-27T13:43:27.999Z</time></trkpt><trkpt lat="42.29073015282247" lon="13.239288215945148"><ele>1232.3333333333335</ele><time>2026-04-27T13:43:28.999Z</time></trkpt><trkpt lat="42.290872057285775" lon="13.239224034172329"><ele>1232.6666666666667</ele><time>2026-04-27T13:43:29.999Z</time></trkpt><trkpt lat="42.29100626652008" lon="13.239122622769118"><ele>1233.0</ele><time>2026-04-27T13:43:30.999Z</time></trkpt><trkpt lat="42.29114630901342" lon="13.239029955078708"><ele>1233.0</ele><time>2026-04-27T13:43:31.999Z</time></trkpt><trkpt lat="42.29129424797509" lon="13.238971310738082"><ele>1233.0</ele><time>2026-04-27T13:43:32.999Z</time></trkpt><trkpt lat="42.29145579819223" lon="13.238938049951797"><ele>1233.0</ele><time>2026-04-27T13:43:33.999Z</time></trkpt><trkpt lat="42.29162789109463" lon="13.238942975336261"><ele>1243.3333333333333</ele><time>2026-04-27T13:43:34.999Z</time></trkpt><trkpt lat="42.29180470688049" lon="13.23889684600151"><ele>1253.6666666666665</ele><time>2026-04-27T13:43:35.999Z</time></trkpt><trkpt lat="42.2919706533308" lon="13.238804861626837"><ele>1264.0</ele><time>2026-04-27T13:43:36.999Z</time></trkpt><trkpt lat="42.292144184486745" lon="13.238742869950926"><ele>1262.3333333333333</ele><time>2026-04-27T13:43:37.999Z</time></trkpt><trkpt lat="42.29232234323453" lon="13.238698864288743"><ele>1260.6666666666667</ele><time>2026-04-27T13:43:38.998Z</time></trkpt><trkpt lat="42.292502965625474" lon="13.238678267060621"><ele>1259.0</ele><time>2026-04-27T13:43:39.998Z</time></trkpt><trkpt lat="42.292678820181344" lon="13.238660629453031"><ele>1259.0</ele><time>2026-04-27T13:43:40.998Z</time></trkpt><trkpt lat="42.29285105424472" lon="13.23861250291561"><ele>1259.0</ele><time>2026-04-27T13:43:41.998Z</time></trkpt><trkpt lat="42.29301721750164" lon="13.238515593285925"><ele>1259.0</ele><time>2026-04-27T13:43:42.998Z</time></trkpt><trkpt lat="42.29317443351054" lon="13.238394850649966"><ele>1255.3333333333335</ele><time>2026-04-27T13:43:43.998Z</time></trkpt><trkpt lat="42.293335352190205" lon="13.23828017033208"><ele>1251.6666666666667</ele><time>2026-04-27T13:43:45Z</time></trkpt><trkpt lat="42.29350352382654" lon="13.238180184972684"><ele>1248.0</ele><time>2026-04-27T13:43:46Z</time></trkpt><trkpt lat="42.29366936004386" lon="13.23808237295932"><ele>1254.6666666666667</ele><time>2026-04-27T13:43:47Z</time></trkpt><trkpt lat="42.29384058132394" lon="13.237987374156821"><ele>1261.3333333333335</ele><time>2026-04-27T13:43:48Z</time></trkpt><trkpt lat="42.29400952817903" lon="13.237890091678251"><ele>1268.0</ele><time>2026-04-27T13:43:49Z</time></trkpt><trkpt lat="42.2941737208809" lon="13.237799959786607"><ele>1268.0</ele><time>2026-04-27T13:43:50Z</time></trkpt><trkpt lat="42.29432209137685" lon="13.237707830966917"><ele>1268.0</ele><time>2026-04-27T13:43:51Z</time></trkpt><trkpt lat="42.294458998111196" lon="13.23761577393599"><ele>1268.0</ele><time>2026-04-27T13:43:52Z</time></trkpt><trkpt lat="42.2945842332695" lon="13.237534372537281"><ele>1268.0</ele><time>2026-04-27T13:43:53Z</time></trkpt><trkpt lat="42.294725786503136" lon="13.237466512919703"><ele>1268.0</ele><time>2026-04-27T13:43:54Z</time></trkpt><trkpt lat="42.2948801318575" lon="13.237422001656252"><ele>1268.0</ele><time>2026-04-27T13:43:55Z</time></trkpt><trkpt lat="42.295037932754354" lon="13.237388503410305"><ele>1265.0</ele><time>2026-04-27T13:43:56Z</time></trkpt><trkpt lat="42.29519756377501" lon="13.237353202072985"><ele>1262.0</ele><time>2026-04-27T13:43:57Z</time></trkpt><trkpt lat="42.29535925535564" lon="13.23731764201649"><ele>1259.0</ele><time>2026-04-27T13:43:58Z</time></trkpt><trkpt lat="42.29552201340311" lon="13.237283850004376"><ele>1271.0</ele><time>2026-04-27T13:43:59Z</time></trkpt><trkpt lat="42.29568474369402" lon="13.23725328434539"><ele>1283.0</ele><time>2026-04-27T13:44:00Z</time></trkpt><trkpt lat="42.295846811530744" lon="13.23722142203448"><ele>1295.0</ele><time>2026-04-27T13:44:01Z</time></trkpt><trkpt lat="42.2960092081724" lon="13.237191154562344"><ele>1295.0</ele><time>2026-04-27T13:44:02Z</time></trkpt><trkpt lat="42.29617265603388" lon="13.237162309683823"><ele>1295.0</ele><time>2026-04-27T13:44:03Z</time></trkpt><trkpt lat="42.29633889434431" lon="13.237139706991554"><ele>1295.0</ele><time>2026-04-27T13:44:04Z</time></trkpt><trkpt lat="42.29650640788819" lon="13.23711945516501"><ele>1292.3333333333335</ele><time>2026-04-27T13:44:05Z</time></trkpt><trkpt lat="42.29667376829778" lon="13.237114652757"><ele>1289.6666666666667</ele><time>2026-04-27T13:44:06Z</time></trkpt><trkpt lat="42.29684089017402" lon="13.237132565888231"><ele>1287.0</ele><time>2026-04-27T13:44:07Z</time></trkpt><trkpt lat="42.29700844287707" lon="13.237166398915674"><ele>1287.0</ele><time>2026-04-27T13:44:08Z</time></trkpt><trkpt lat="42.297179528151815" lon="13.237205214565144"><ele>1287.0</ele><time>2026-04-27T13:44:09Z</time></trkpt><trkpt lat="42.297353271953185" lon="13.237236240234871"><ele>1287.0</ele><time>2026-04-27T13:44:10Z</time></trkpt><trkpt lat="42.297529620213524" lon="13.237271065301902"><ele>1282.0</ele><time>2026-04-27T13:44:11Z</time></trkpt><trkpt lat="42.29769948402803" lon="13.237319595178352"><ele>1277.0</ele><time>2026-04-27T13:44:12Z</time></trkpt><trkpt lat="42.29785021383552" lon="13.237377789170102"><ele>1272.0</ele><time>2026-04-27T13:44:13Z</time></trkpt><trkpt lat="42.29799414495721" lon="13.237442660983492"><ele>1273.6666666666667</ele><time>2026-04-27T13:44:14Z</time></trkpt><trkpt lat="42.29813841151893" lon="13.237521282221978"><ele>1275.3333333333335</ele><time>2026-04-27T13:44:15Z</time></trkpt><trkpt lat="42.29827581301103" lon="13.237626198939138"><ele>1277.0</ele><time>2026-04-27T13:44:16Z</time></trkpt><trkpt lat="42.2984028757796" lon="13.237758036989453"><ele>1277.0</ele><time>2026-04-27T13:44:17Z</time></trkpt><trkpt lat="42.29852359404725" lon="13.23788542133495"><ele>1277.0</ele><time>2026-04-27T13:44:18Z</time></trkpt><trkpt lat="42.29865309363667" lon="13.237981112974682"><ele>1277.0</ele><time>2026-04-27T13:44:19Z</time></trkpt><trkpt lat="42.29878732828123" lon="13.238021056856505"><ele>1277.0</ele><time>2026-04-27T13:44:20Z</time></trkpt><trkpt lat="42.29891645425935" lon="13.238009568026731"><ele>1277.75</ele><time>2026-04-27T13:44:21Z</time></trkpt><trkpt lat="42.299043477599675" lon="13.237953589512262"><ele>1278.5</ele><time>2026-04-27T13:44:22Z</time></trkpt><trkpt lat="42.299169707968815" lon="13.237871982312733"><ele>1279.25</ele><time>2026-04-27T13:44:23Z</time></trkpt><trkpt lat="42.29931339597608" lon="13.23781574889318"><ele>1280.0</ele><time>2026-04-27T13:44:24Z</time></trkpt><trkpt lat="42.299468548704226" lon="13.237795984459174"><ele>1280.0</ele><time>2026-04-27T13:44:25Z</time></trkpt><trkpt lat="42.29962967662188" lon="13.237803720206388"><ele>1280.0</ele><time>2026-04-27T13:44:26Z</time></trkpt><trkpt lat="42.299773393862196" lon="13.237886623314376"><ele>1280.0</ele><time>2026-04-27T13:44:27Z</time></trkpt><trkpt lat="42.29992002414032" lon="13.237955842566699"><ele>1278.6666666666667</ele><time>2026-04-27T13:44:28Z</time></trkpt><trkpt lat="42.300075519346564" lon="13.237998619788618"><ele>1277.3333333333333</ele><time>2026-04-27T13:44:29Z</time></trkpt><trkpt lat="42.30024075643831" lon="13.237978226715986"><ele>1276.0</ele><time>2026-04-27T13:44:30Z</time></trkpt><trkpt lat="42.30040291640621" lon="13.237941488416975"><ele>1276.0</ele><time>2026-04-27T13:44:31Z</time></trkpt><trkpt lat="42.30055717654808" lon="13.237866107423516"><ele>1276.0</ele><time>2026-04-27T13:44:31.999Z</time></trkpt><trkpt lat="42.300707033110804" lon="13.23777332281131"><ele>1276.0</ele><time>2026-04-27T13:44:32.999Z</time></trkpt><trkpt lat="42.30085983162568" lon="13.237705003767577"><ele>1276.3333333333333</ele><time>2026-04-27T13:44:33.999Z</time></trkpt><trkpt lat="42.301022382756194" lon="13.237713432034305"><ele>1276.6666666666667</ele><time>2026-04-27T13:44:34.999Z</time></trkpt><trkpt lat="42.30119128189186" lon="13.237726264184388"><ele>1277.0</ele><time>2026-04-27T13:44:35.999Z</time></trkpt><trkpt lat="42.301363729862395" lon="13.237721716221866"><ele>1275.3333333333335</ele><time>2026-04-27T13:44:36.999Z</time></trkpt><trkpt lat="42.30153652961955" lon="13.237758951287063"><ele>1273.6666666666667</ele><time>2026-04-27T13:44:37.999Z</time></trkpt><trkpt lat="42.30171143008733" lon="13.237768743822924"><ele>1272.0</ele><time>2026-04-27T13:44:38.999Z</time></trkpt><trkpt lat="42.301885281879045" lon="13.237767661702213"><ele>1272.0</ele><time>2026-04-27T13:44:39.999Z</time></trkpt><trkpt lat="42.302050440301734" lon="13.237755401097218"><ele>1272.0</ele><time>2026-04-27T13:44:40.999Z</time></trkpt><trkpt lat="42.302209726765625" lon="13.237725182387916"><ele>1272.0</ele><time>2026-04-27T13:44:41.999Z</time></trkpt><trkpt lat="42.30236568834156" lon="13.23767194280125"><ele>1272.3333333333333</ele><time>2026-04-27T13:44:42.999Z</time></trkpt><trkpt lat="42.30251822370733" lon="13.237661832723857"><ele>1272.6666666666665</ele><time>2026-04-27T13:44:43.999Z</time></trkpt><trkpt lat="42.302671861695764" lon="13.237689496135596"><ele>1273.0</ele><time>2026-04-27T13:44:44.999Z</time></trkpt><trkpt lat="42.30281904713024" lon="13.237751250458265"><ele>1273.0</ele><time>2026-04-27T13:44:45.999Z</time></trkpt><trkpt lat="42.30294587541472" lon="13.237809350130142"><ele>1273.0</ele><time>2026-04-27T13:44:46.999Z</time></trkpt><trkpt lat="42.30305382118822" lon="13.237854897813294"><ele>1273.0</ele><time>2026-04-27T13:44:47.999Z</time></trkpt><trkpt lat="42.30313890400497" lon="13.237892258797848"><ele>1273.0</ele><time>2026-04-27T13:44:48.999Z</time></trkpt><trkpt lat="42.30322446956035" lon="13.237947302622652"><ele>1273.0</ele><time>2026-04-27T13:44:50.999Z</time></trkpt><trkpt lat="42.30315524587439" lon="13.238230189669014"><ele>1272.1666666666665</ele><time>2026-04-27T13:44:56.999Z</time></trkpt><trkpt lat="42.3031121658556" lon="13.23833733474142"><ele>1271.3333333333333</ele><time>2026-04-27T13:44:59.999Z</time></trkpt><trkpt lat="42.30305271797501" lon="13.238423806160023"><ele>1270.5</ele><time>2026-04-27T13:45:01.999Z</time></trkpt><trkpt lat="42.30299518066916" lon="13.238521066346449"><ele>1269.6666666666667</ele><time>2026-04-27T13:45:03.999Z</time></trkpt><trkpt lat="42.30295471217932" lon="13.238622405323841"><ele>1268.8333333333335</ele><time>2026-04-27T13:45:05.999Z</time></trkpt><trkpt lat="42.30294316052226" lon="13.238716087269534"><ele>1268.0</ele><time>2026-04-27T13:45:07.999Z</time></trkpt><trkpt lat="42.30302313060285" lon="13.238773973172174"><ele>1268.0</ele><time>2026-04-27T13:45:10.999Z</time></trkpt><trkpt lat="42.30308603048228" lon="13.238798389802891"><ele>1268.0</ele><time>2026-04-27T13:45:13.999Z</time></trkpt><trkpt lat="42.30317480186704" lon="13.238850844073673"><ele>1268.0</ele><time>2026-04-27T13:46:09Z</time></trkpt><trkpt lat="42.30325002342682" lon="13.238947681031062"><ele>1268.0</ele><time>2026-04-27T13:46:11Z</time></trkpt><trkpt lat="42.30334012381003" lon="13.239048036956548"><ele>1268.0</ele><time>2026-04-27T13:46:13Z</time></trkpt><trkpt lat="42.30339444606597" lon="13.239105515013202"><ele>1269.8</ele><time>2026-04-27T13:46:14Z</time></trkpt><trkpt lat="42.3034547737625" lon="13.239174448726477"><ele>1271.6</ele><time>2026-04-27T13:46:15Z</time></trkpt><trkpt lat="42.30352650923569" lon="13.239259676851622"><ele>1273.4</ele><time>2026-04-27T13:46:16Z</time></trkpt><trkpt lat="42.30360723842683" lon="13.23933296340524"><ele>1275.2</ele><time>2026-04-27T13:46:17Z</time></trkpt><trkpt lat="42.30369557286805" lon="13.23941566152019"><ele>1277.0</ele><time>2026-04-27T13:46:18Z</time></trkpt><trkpt lat="42.303778933882455" lon="13.23950176736689"><ele>1277.0</ele><time>2026-04-27T13:46:19Z</time></trkpt><trkpt lat="42.30385682054102" lon="13.239600823539089"><ele>1277.0</ele><time>2026-04-27T13:46:20Z</time></trkpt><trkpt lat="42.3039185633107" lon="13.23968613376351"><ele>1277.0</ele><time>2026-04-27T13:46:21Z</time></trkpt><trkpt lat="42.303934221364315" lon="13.239819884312977"><ele>1277.0</ele><time>2026-04-27T13:46:22Z</time></trkpt><trkpt lat="42.30393382842524" lon="13.239956694320155"><ele>1277.0</ele><time>2026-04-27T13:46:23Z</time></trkpt><trkpt lat="42.30396220550618" lon="13.240106611819524"><ele>1277.25</ele><time>2026-04-27T13:46:24Z</time></trkpt><trkpt lat="42.303985612050255" lon="13.240274269429957"><ele>1277.5</ele><time>2026-04-27T13:46:25Z</time></trkpt><trkpt lat="42.30401723965803" lon="13.240447428097664"><ele>1277.75</ele><time>2026-04-27T13:46:26Z</time></trkpt><trkpt lat="42.30403702117681" lon="13.240645775194611"><ele>1278.0</ele><time>2026-04-27T13:46:27Z</time></trkpt><trkpt lat="42.304063866461824" lon="13.240816499784563"><ele>1278.0</ele><time>2026-04-27T13:46:28Z</time></trkpt><trkpt lat="42.30410003526904" lon="13.240958250322665"><ele>1278.0</ele><time>2026-04-27T13:46:29Z</time></trkpt><trkpt lat="42.30411167204809" lon="13.241119117602558"><ele>1278.0</ele><time>2026-04-27T13:46:30Z</time></trkpt><trkpt lat="42.304115017442996" lon="13.241270218733629"><ele>1278.0</ele><time>2026-04-27T13:46:31Z</time></trkpt><trkpt lat="42.30408029340808" lon="13.241394437951548"><ele>1278.0</ele><time>2026-04-27T13:46:32Z</time></trkpt><trkpt lat="42.304026336156625" lon="13.241534691000078"><ele>1278.5</ele><time>2026-04-27T13:46:33Z</time></trkpt><trkpt lat="42.30398082933134" lon="13.241674401048392"><ele>1279.0</ele><time>2026-04-27T13:46:34Z</time></trkpt><trkpt lat="42.303938867716695" lon="13.241825749505342"><ele>1279.5</ele><time>2026-04-27T13:46:35Z</time></trkpt><trkpt lat="42.30388531622353" lon="13.241977725149509"><ele>1280.0</ele><time>2026-04-27T13:46:35.999Z</time></trkpt><trkpt lat="42.303809376067164" lon="13.242125481628829"><ele>1284.5</ele><time>2026-04-27T13:46:36.999Z</time></trkpt><trkpt lat="42.303736737897715" lon="13.242269789642341"><ele>1289.0</ele><time>2026-04-27T13:46:37.999Z</time></trkpt><trkpt lat="42.303675049059024" lon="13.242415675476847"><ele>1293.5</ele><time>2026-04-27T13:46:38.999Z</time></trkpt><trkpt lat="42.30363869046127" lon="13.242585815568805"><ele>1298.0</ele><time>2026-04-27T13:46:39.999Z</time></trkpt><trkpt lat="42.303609938730595" lon="13.242765246745844"><ele>1298.0</ele><time>2026-04-27T13:46:40.999Z</time></trkpt><trkpt lat="42.303581162285326" lon="13.242948228419245"><ele>1298.0</ele><time>2026-04-27T13:46:41.999Z</time></trkpt><trkpt lat="42.30357240524331" lon="13.243131052011517"><ele>1298.0</ele><time>2026-04-27T13:46:42.999Z</time></trkpt><trkpt lat="42.303569482897935" lon="13.243309688813497"><ele>1298.0</ele><time>2026-04-27T13:46:43.999Z</time></trkpt><trkpt lat="42.30356494172806" lon="13.243475626181153"><ele>1298.0</ele><time>2026-04-27T13:46:44.999Z</time></trkpt><trkpt lat="42.303566011820365" lon="13.24362406749575"><ele>1298.0</ele><time>2026-04-27T13:46:45.999Z</time></trkpt><trkpt lat="42.303582280441404" lon="13.243777836809086"><ele>1298.0</ele><time>2026-04-27T13:46:46.999Z</time></trkpt><trkpt lat="42.30360521296863" lon="13.24394509314162"><ele>1298.0</ele><time>2026-04-27T13:46:47.999Z</time></trkpt><trkpt lat="42.303623002870204" lon="13.24411232812484"><ele>1299.0</ele><time>2026-04-27T13:46:48.999Z</time></trkpt><trkpt lat="42.30360369086603" lon="13.244259264690522"><ele>1300.0</ele><time>2026-04-27T13:46:49.999Z</time></trkpt><trkpt lat="42.30357965055349" lon="13.244382014370805"><ele>1301.0</ele><time>2026-04-27T13:46:50.999Z</time></trkpt><trkpt lat="42.30354562643757" lon="13.244464825350994"><ele>1302.0</ele><time>2026-04-27T13:46:51.999Z</time></trkpt><trkpt lat="42.30350993500262" lon="13.244552169515915"><ele>1303.0</ele><time>2026-04-27T13:46:52.999Z</time></trkpt><trkpt lat="42.30347035546855" lon="13.244668210023661"><ele>1304.0</ele><time>2026-04-27T13:46:53.999Z</time></trkpt><trkpt lat="42.303415398802294" lon="13.244794628439491"><ele>1305.25</ele><time>2026-04-27T13:46:54.999Z</time></trkpt><trkpt lat="42.30335537049516" lon="13.244932060766"><ele>1306.5</ele><time>2026-04-27T13:46:55.999Z</time></trkpt><trkpt lat="42.303295756452414" lon="13.245076846434158"><ele>1307.75</ele><time>2026-04-27T13:46:56.999Z</time></trkpt><trkpt lat="42.303237961876306" lon="13.245197078941617"><ele>1309.0</ele><time>2026-04-27T13:46:57.999Z</time></trkpt><trkpt lat="42.303189031372234" lon="13.245329798986866"><ele>1309.0</ele><time>2026-04-27T13:46:58.999Z</time></trkpt><trkpt lat="42.303162651497566" lon="13.245439671008299"><ele>1309.0</ele><time>2026-04-27T13:46:59.999Z</time></trkpt><trkpt lat="42.303152462180634" lon="13.24553100851413"><ele>1309.0</ele><time>2026-04-27T13:47:00.999Z</time></trkpt><trkpt lat="42.3031521249971" lon="13.245633317389622"><ele>1309.0</ele><time>2026-04-27T13:47:01.999Z</time></trkpt><trkpt lat="42.303139198488374" lon="13.245741174360345"><ele>1309.0</ele><time>2026-04-27T13:47:02.999Z</time></trkpt><trkpt lat="42.303098205035816" lon="13.245845863192672"><ele>1309.0</ele><time>2026-04-27T13:47:03.999Z</time></trkpt><trkpt lat="42.303039245932176" lon="13.24594875994963"><ele>1310.1666666666665</ele><time>2026-04-27T13:47:04.999Z</time></trkpt><trkpt lat="42.30299285482527" lon="13.246028288742787"><ele>1311.3333333333333</ele><time>2026-04-27T13:47:05.999Z</time></trkpt><trkpt lat="42.302967651280596" lon="13.246146033125791"><ele>1312.5</ele><time>2026-04-27T13:47:06.999Z</time></trkpt><trkpt lat="42.30295372722053" lon="13.246252338086121"><ele>1313.6666666666667</ele><time>2026-04-27T13:47:07.999Z</time></trkpt><trkpt lat="42.30292827547944" lon="13.246332383119551"><ele>1314.8333333333335</ele><time>2026-04-27T13:47:08.999Z</time></trkpt><trkpt lat="42.30286505128014" lon="13.246400977574885"><ele>1316.0</ele><time>2026-04-27T13:47:09.999Z</time></trkpt><trkpt lat="42.30281632668678" lon="13.24648435610761"><ele>1317.8</ele><time>2026-04-27T13:47:10.999Z</time></trkpt><trkpt lat="42.30276973199654" lon="13.246586115439854"><ele>1319.6</ele><time>2026-04-27T13:47:11.999Z</time></trkpt><trkpt lat="42.30272658300798" lon="13.246695421665141"><ele>1321.4</ele><time>2026-04-27T13:47:12.999Z</time></trkpt><trkpt lat="42.3026895753683" lon="13.246817284535574"><ele>1323.2</ele><time>2026-04-27T13:47:13.999Z</time></trkpt><trkpt lat="42.30264415141281" lon="13.246941007030584"><ele>1325.0</ele><time>2026-04-27T13:47:14.999Z</time></trkpt><trkpt lat="42.30257998353627" lon="13.247049465647942"><ele>1325.0</ele><time>2026-04-27T13:47:15.999Z</time></trkpt><trkpt lat="42.30250463060242" lon="13.24714957420276"><ele>1325.0</ele><time>2026-04-27T13:47:16.999Z</time></trkpt><trkpt lat="42.30243898175683" lon="13.24725107349316"><ele>1325.0</ele><time>2026-04-27T13:47:17.999Z</time></trkpt><trkpt lat="42.30239711610119" lon="13.24735946454741"><ele>1325.0</ele><time>2026-04-27T13:47:18.999Z</time></trkpt><trkpt lat="42.30234718081758" lon="13.24746617849888"><ele>1325.0</ele><time>2026-04-27T13:47:19.999Z</time></trkpt><trkpt lat="42.302290978861876" lon="13.247563889195671"><ele>1329.4</ele><time>2026-04-27T13:47:20.999Z</time></trkpt><trkpt lat="42.30222859152906" lon="13.247660407811738"><ele>1333.8</ele><time>2026-04-27T13:47:21.999Z</time></trkpt><trkpt lat="42.30215501319263" lon="13.24775234709296"><ele>1338.1999999999998</ele><time>2026-04-27T13:47:22.999Z</time></trkpt><trkpt lat="42.30208551023839" lon="13.24785301899986"><ele>1342.6</ele><time>2026-04-27T13:47:23.999Z</time></trkpt><trkpt lat="42.302023905173506" lon="13.247964044270537"><ele>1347.0</ele><time>2026-04-27T13:47:24.999Z</time></trkpt><trkpt lat="42.301966441244744" lon="13.248081358435325"><ele>1347.8</ele><time>2026-04-27T13:47:25.999Z</time></trkpt><trkpt lat="42.30190925275889" lon="13.248184477040965"><ele>1348.6</ele><time>2026-04-27T13:47:26.999Z</time></trkpt><trkpt lat="42.30185339977747" lon="13.24829422576482"><ele>1349.3999999999999</ele><time>2026-04-27T13:47:27.999Z</time></trkpt><trkpt lat="42.3017821441931" lon="13.248398064665025"><ele>1350.1999999999998</ele><time>2026-04-27T13:47:28.999Z</time></trkpt><trkpt lat="42.30171192787795" lon="13.248497770324143"><ele>1351.0</ele><time>2026-04-27T13:47:29.999Z</time></trkpt><trkpt lat="42.301651660804445" lon="13.24858909315897"><ele>1351.0</ele><time>2026-04-27T13:47:30.999Z</time></trkpt><trkpt lat="42.30160212815634" lon="13.248659926413788"><ele>1351.0</ele><time>2026-04-27T13:47:31.999Z</time></trkpt><trkpt lat="42.30153593853853" lon="13.248793229079718"><ele>1351.0</ele><time>2026-04-27T13:47:33.999Z</time></trkpt><trkpt lat="42.301515724436626" lon="13.248895950515283"><ele>1351.0</ele><time>2026-04-27T13:47:34.999Z</time></trkpt><trkpt lat="42.30150994393138" lon="13.249002518149775"><ele>1351.0</ele><time>2026-04-27T13:47:35.999Z</time></trkpt><trkpt lat="42.301508266350176" lon="13.249137459300508"><ele>1351.0</ele><time>2026-04-27T13:47:36.999Z</time></trkpt><trkpt lat="42.30147610765965" lon="13.249270056481835"><ele>1352.4</ele><time>2026-04-27T13:47:37.999Z</time></trkpt><trkpt lat="42.301462195063834" lon="13.249412090647503"><ele>1353.8</ele><time>2026-04-27T13:47:38.999Z</time></trkpt><trkpt lat="42.301437100720655" lon="13.249559462280102"><ele>1355.2</ele><time>2026-04-27T13:47:39.999Z</time></trkpt><trkpt lat="42.301424126996714" lon="13.249711500294545"><ele>1356.6000000000001</ele><time>2026-04-27T13:47:40.999Z</time></trkpt><trkpt lat="42.30141916348399" lon="13.249836754222306"><ele>1358.0</ele><time>2026-04-27T13:47:41.999Z</time></trkpt><trkpt lat="42.30141760873211" lon="13.24995387582829"><ele>1358.0</ele><time>2026-04-27T13:47:42.999Z</time></trkpt><trkpt lat="42.30142354210936" lon="13.250073364364045"><ele>1358.0</ele><time>2026-04-27T13:47:43.999Z</time></trkpt><trkpt lat="42.30142820212045" lon="13.250204225818264"><ele>1358.0</ele><time>2026-04-27T13:47:44.998Z</time></trkpt><trkpt lat="42.30144744331559" lon="13.250343337534181"><ele>1358.0</ele><time>2026-04-27T13:47:45.998Z</time></trkpt><trkpt lat="42.30148827978836" lon="13.250495088828057"><ele>1358.0</ele><time>2026-04-27T13:47:46.998Z</time></trkpt><trkpt lat="42.30154016706541" lon="13.250638157246808"><ele>1354.25</ele><time>2026-04-27T13:47:47.998Z</time></trkpt><trkpt lat="42.30161740273612" lon="13.250771422961906"><ele>1350.5</ele><time>2026-04-27T13:47:48.998Z</time></trkpt><trkpt lat="42.30167552989192" lon="13.25090919074706"><ele>1346.75</ele><time>2026-04-27T13:47:49.998Z</time></trkpt><trkpt lat="42.301731053941474" lon="13.251050925367533"><ele>1343.0</ele><time>2026-04-27T13:47:50.998Z</time></trkpt><trkpt lat="42.30178306022206" lon="13.2511871291618"><ele>1343.0</ele><time>2026-04-27T13:47:51.998Z</time></trkpt><trkpt lat="42.30184230514792" lon="13.251321743087226"><ele>1343.0</ele><time>2026-04-27T13:47:52.998Z</time></trkpt><trkpt lat="42.30191294165393" lon="13.251446267403232"><ele>1343.0</ele><time>2026-04-27T13:47:53.998Z</time></trkpt><trkpt lat="42.301998945452254" lon="13.251554760672393"><ele>1343.0</ele><time>2026-04-27T13:47:54.998Z</time></trkpt><trkpt lat="42.30209666301035" lon="13.251654992076173"><ele>1343.25</ele><time>2026-04-27T13:47:55.998Z</time></trkpt><trkpt lat="42.302200888143645" lon="13.25174663465293"><ele>1343.5</ele><time>2026-04-27T13:47:57Z</time></trkpt><trkpt lat="42.30231326444592" lon="13.251821719329588"><ele>1343.75</ele><time>2026-04-27T13:47:58Z</time></trkpt><trkpt lat="42.30243491242529" lon="13.251876172657008"><ele>1344.0</ele><time>2026-04-27T13:47:59Z</time></trkpt><trkpt lat="42.30256345795071" lon="13.251884913695765"><ele>1344.0</ele><time>2026-04-27T13:48:00Z</time></trkpt><trkpt lat="42.30269372757529" lon="13.251870891416575"><ele>1344.0</ele><time>2026-04-27T13:48:01Z</time></trkpt><trkpt lat="42.302821202371746" lon="13.251853209313195"><ele>1344.0</ele><time>2026-04-27T13:48:02Z</time></trkpt><trkpt lat="42.30294902354837" lon="13.251841166480078"><ele>1344.0</ele><time>2026-04-27T13:48:03Z</time></trkpt><trkpt lat="42.303076748609776" lon="13.251835974404154"><ele>1345.5</ele><time>2026-04-27T13:48:04Z</time></trkpt><trkpt lat="42.30320282289068" lon="13.251846792491898"><ele>1347.0</ele><time>2026-04-27T13:48:05Z</time></trkpt><trkpt lat="42.3033254989417" lon="13.251854621311411"><ele>1348.5</ele><time>2026-04-27T13:48:06Z</time></trkpt><trkpt lat="42.30343690042289" lon="13.251860984774769"><ele>1350.0</ele><time>2026-04-27T13:48:07Z</time></trkpt><trkpt lat="42.30354688860115" lon="13.251873090671682"><ele>1350.0</ele><time>2026-04-27T13:48:08Z</time></trkpt><trkpt lat="42.30366328243729" lon="13.251912571500718"><ele>1350.0</ele><time>2026-04-27T13:48:09Z</time></trkpt><trkpt lat="42.3037783183884" lon="13.251977786679419"><ele>1350.0</ele><time>2026-04-27T13:48:10Z</time></trkpt><trkpt lat="42.30388012446371" lon="13.252052387885753"><ele>1350.0</ele><time>2026-04-27T13:48:11Z</time></trkpt><trkpt lat="42.303970393827875" lon="13.252152328937491"><ele>1347.25</ele><time>2026-04-27T13:48:12Z</time></trkpt><trkpt lat="42.304044846842594" lon="13.252277891474108"><ele>1344.5</ele><time>2026-04-27T13:48:13Z</time></trkpt><trkpt lat="42.30410354014168" lon="13.252434454898019"><ele>1341.75</ele><time>2026-04-27T13:48:14Z</time></trkpt><trkpt lat="42.30414819772016" lon="13.252609662741781"><ele>1339.0</ele><time>2026-04-27T13:48:15Z</time></trkpt><trkpt lat="42.30419928378321" lon="13.25279139494122"><ele>1339.0</ele><time>2026-04-27T13:48:16Z</time></trkpt><trkpt lat="42.30425807931271" lon="13.252979030491227"><ele>1339.0</ele><time>2026-04-27T13:48:17Z</time></trkpt><trkpt lat="42.30431664136057" lon="13.253166041517355"><ele>1339.0</ele><time>2026-04-27T13:48:18Z</time></trkpt><trkpt lat="42.304375872300824" lon="13.253350724982266"><ele>1331.0</ele><time>2026-04-27T13:48:19Z</time></trkpt><trkpt lat="42.30443709503776" lon="13.253543432984483"><ele>1323.0</ele><time>2026-04-27T13:48:20Z</time></trkpt><trkpt lat="42.30450172327349" lon="13.253738187765473"><ele>1315.0</ele><time>2026-04-27T13:48:21Z</time></trkpt><trkpt lat="42.304571970614255" lon="13.253934232865237"><ele>1319.0</ele><time>2026-04-27T13:48:22Z</time></trkpt><trkpt lat="42.30464375239431" lon="13.254121597175507"><ele>1323.0</ele><time>2026-04-27T13:48:23Z</time></trkpt><trkpt lat="42.30471015567109" lon="13.254290712161854"><ele>1327.0</ele><time>2026-04-27T13:48:24Z</time></trkpt><trkpt lat="42.304769470416836" lon="13.254435147290456"><ele>1331.0</ele><time>2026-04-27T13:48:25Z</time></trkpt><trkpt lat="42.30481515635151" lon="13.254551689858829"><ele>1331.0</ele><time>2026-04-27T13:48:26Z</time></trkpt><trkpt lat="42.30488989534467" lon="13.25462412135163"><ele>1331.0</ele><time>2026-04-27T13:48:27Z</time></trkpt><trkpt lat="42.30499410715148" lon="13.254614851291933"><ele>1331.0</ele><time>2026-04-27T13:48:28Z</time></trkpt><trkpt lat="42.30510935453291" lon="13.254587677111807"><ele>1331.0</ele><time>2026-04-27T13:48:29Z</time></trkpt><trkpt lat="42.305234031494116" lon="13.254535664768753"><ele>1331.0</ele><time>2026-04-27T13:48:30Z</time></trkpt><trkpt lat="42.30536501822557" lon="13.254472567090477"><ele>1331.0</ele><time>2026-04-27T13:48:31Z</time></trkpt><trkpt lat="42.305502544266915" lon="13.254400522629991"><ele>1331.0</ele><time>2026-04-27T13:48:32Z</time></trkpt><trkpt lat="42.30563872140032" lon="13.254312869866354"><ele>1331.0</ele><time>2026-04-27T13:48:33Z</time></trkpt><trkpt lat="42.305773739648295" lon="13.254218211897712"><ele>1329.0</ele><time>2026-04-27T13:48:34Z</time></trkpt><trkpt lat="42.30590516452101" lon="13.254144915809219"><ele>1327.0</ele><time>2026-04-27T13:48:35Z</time></trkpt><trkpt lat="42.30603111805812" lon="13.254107468578422"><ele>1325.0</ele><time>2026-04-27T13:48:36Z</time></trkpt><trkpt lat="42.30615372298076" lon="13.254086363189188"><ele>1323.0</ele><time>2026-04-27T13:48:37Z</time></trkpt><trkpt lat="42.30628227634177" lon="13.254076083307893"><ele>1323.0</ele><time>2026-04-27T13:48:37.999Z</time></trkpt><trkpt lat="42.306400509007204" lon="13.254015167720876"><ele>1323.0</ele><time>2026-04-27T13:48:38.999Z</time></trkpt><trkpt lat="42.306514761633764" lon="13.253979063268243"><ele>1323.0</ele><time>2026-04-27T13:48:39.999Z</time></trkpt><trkpt lat="42.306629680130975" lon="13.253948108476497"><ele>1323.0</ele><time>2026-04-27T13:48:40.999Z</time></trkpt><trkpt lat="42.30673931702256" lon="13.253921725364052"><ele>1325.1666666666667</ele><time>2026-04-27T13:48:41.999Z</time></trkpt><trkpt lat="42.30683762580741" lon="13.253903540591665"><ele>1327.3333333333333</ele><time>2026-04-27T13:48:42.999Z</time></trkpt><trkpt lat="42.30692059029879" lon="13.253915749509277"><ele>1329.5</ele><time>2026-04-27T13:48:43.999Z</time></trkpt><trkpt lat="42.307032645677516" lon="13.253890613188107"><ele>1331.6666666666665</ele><time>2026-04-27T13:48:45.999Z</time></trkpt><trkpt lat="42.30710924632359" lon="13.253854780425463"><ele>1333.8333333333333</ele><time>2026-04-27T13:48:47.999Z</time></trkpt><trkpt lat="42.307178341833264" lon="13.253831437665395"><ele>1336.0</ele><time>2026-04-27T13:48:50.999Z</time></trkpt><trkpt lat="42.30725290151145" lon="13.253817748454283"><ele>1336.0</ele><time>2026-04-27T13:48:54.999Z</time></trkpt><trkpt lat="42.3073272794782" lon="13.253793029894359"><ele>1336.0</ele><time>2026-04-27T13:48:56.999Z</time></trkpt><trkpt lat="42.307425357257486" lon="13.253747995213821"><ele>1336.0</ele><time>2026-04-27T13:48:58.999Z</time></trkpt><trkpt lat="42.30749370718" lon="13.253737723362987"><ele>1336.0</ele><time>2026-04-27T13:48:59.999Z</time></trkpt><trkpt lat="42.30757688946265" lon="13.253745588810059"><ele>1336.0</ele><time>2026-04-27T13:49:00.999Z</time></trkpt><trkpt lat="42.307671488228365" lon="13.253749345387055"><ele>1336.0</ele><time>2026-04-27T13:49:01.999Z</time></trkpt><trkpt lat="42.30776202413674" lon="13.25375646127097"><ele>1336.0</ele><time>2026-04-27T13:49:02.999Z</time></trkpt><trkpt lat="42.307863542196515" lon="13.25376368081802"><ele>1336.0</ele><time>2026-04-27T13:49:03.999Z</time></trkpt><trkpt lat="42.3079704710704" lon="13.253769327662988"><ele>1336.0</ele><time>2026-04-27T13:49:04.999Z</time></trkpt><trkpt lat="42.30808635433568" lon="13.253774940520493"><ele>1336.0</ele><time>2026-04-27T13:49:05.999Z</time></trkpt><trkpt lat="42.30820507281752" lon="13.253779293343635"><ele>1336.0</ele><time>2026-04-27T13:49:06.999Z</time></trkpt><trkpt lat="42.30832697282038" lon="13.253789354334277"><ele>1333.5</ele><time>2026-04-27T13:49:07.999Z</time></trkpt><trkpt lat="42.308449303134196" lon="13.253816423367319"><ele>1331.0</ele><time>2026-04-27T13:49:08.999Z</time></trkpt><trkpt lat="42.30857046886801" lon="13.253858355481208"><ele>1328.5</ele><time>2026-04-27T13:49:09.999Z</time></trkpt><trkpt lat="42.30869254483369" lon="13.253906196057569"><ele>1326.0</ele><time>2026-04-27T13:49:10.999Z</time></trkpt><trkpt lat="42.308812926803924" lon="13.253951534207378"><ele>1319.0</ele><time>2026-04-27T13:49:11.999Z</time></trkpt><trkpt lat="42.30892850993249" lon="13.253996718640423"><ele>1312.0</ele><time>2026-04-27T13:49:12.999Z</time></trkpt><trkpt lat="42.309041382331515" lon="13.254035672104528"><ele>1305.0</ele><time>2026-04-27T13:49:13.999Z</time></trkpt><trkpt lat="42.3091568697771" lon="13.254061648438674"><ele>1298.0</ele><time>2026-04-27T13:49:14.999Z</time></trkpt><trkpt lat="42.30927557298205" lon="13.254052208245978"><ele>1298.0</ele><time>2026-04-27T13:49:15.999Z</time></trkpt><trkpt lat="42.30939182478434" lon="13.253994567662955"><ele>1298.0</ele><time>2026-04-27T13:49:16.999Z</time></trkpt><trkpt lat="42.30951030329345" lon="13.253896174965467"><ele>1298.0</ele><time>2026-04-27T13:49:17.999Z</time></trkpt><trkpt lat="42.309639105336636" lon="13.25381792845454"><ele>1298.0</ele><time>2026-04-27T13:49:18.999Z</time></trkpt><trkpt lat="42.30975752977092" lon="13.253698023956279"><ele>1301.0</ele><time>2026-04-27T13:49:19.999Z</time></trkpt><trkpt lat="42.3098917935399" lon="13.253604500837373"><ele>1304.0</ele><time>2026-04-27T13:49:20.999Z</time></trkpt><trkpt lat="42.310022179648875" lon="13.25350112538566"><ele>1307.0</ele><time>2026-04-27T13:49:21.999Z</time></trkpt><trkpt lat="42.310153002304325" lon="13.253398421972047"><ele>1307.0</ele><time>2026-04-27T13:49:22.999Z</time></trkpt><trkpt lat="42.3102819818735" lon="13.253299538515591"><ele>1307.0</ele><time>2026-04-27T13:49:23.999Z</time></trkpt><trkpt lat="42.310410280805414" lon="13.253204010424742"><ele>1307.0</ele><time>2026-04-27T13:49:24.999Z</time></trkpt><trkpt lat="42.31053651328353" lon="13.25310864706013"><ele>1307.0</ele><time>2026-04-27T13:49:25.999Z</time></trkpt><trkpt lat="42.31066545245356" lon="13.253029182335295"><ele>1309.0</ele><time>2026-04-27T13:49:26.999Z</time></trkpt><trkpt lat="42.31080180389419" lon="13.25297059283686"><ele>1311.0</ele><time>2026-04-27T13:49:27.999Z</time></trkpt><trkpt lat="42.310947200673105" lon="13.252932870061615"><ele>1313.0</ele><time>2026-04-27T13:49:28.999Z</time></trkpt><trkpt lat="42.31109654772317" lon="13.252916099824613"><ele>1315.0</ele><time>2026-04-27T13:49:29.999Z</time></trkpt><trkpt lat="42.31124990054214" lon="13.252932545221885"><ele>1315.0</ele><time>2026-04-27T13:49:30.999Z</time></trkpt><trkpt lat="42.311403336823844" lon="13.25288129206919"><ele>1315.0</ele><time>2026-04-27T13:49:31.999Z</time></trkpt><trkpt lat="42.311550794515824" lon="13.252841199963523"><ele>1315.0</ele><time>2026-04-27T13:49:32.999Z</time></trkpt><trkpt lat="42.311689722572844" lon="13.252806722414082"><ele>1312.5</ele><time>2026-04-27T13:49:33.999Z</time></trkpt><trkpt lat="42.31182725928305" lon="13.25280460436261"><ele>1310.0</ele><time>2026-04-27T13:49:34.999Z</time></trkpt><trkpt lat="42.31196412579258" lon="13.252831746793946"><ele>1307.5</ele><time>2026-04-27T13:49:35.999Z</time></trkpt><trkpt lat="42.31208329601876" lon="13.252885560161422"><ele>1305.0</ele><time>2026-04-27T13:49:36.999Z</time></trkpt><trkpt lat="42.3121986824428" lon="13.252925565865985"><ele>1301.25</ele><time>2026-04-27T13:49:37.999Z</time></trkpt><trkpt lat="42.31229919997044" lon="13.252898776959755"><ele>1297.5</ele><time>2026-04-27T13:49:38.999Z</time></trkpt><trkpt lat="42.31239659328863" lon="13.252820354834009"><ele>1293.75</ele><time>2026-04-27T13:49:39.999Z</time></trkpt><trkpt lat="42.31248691777951" lon="13.252707077611108"><ele>1290.0</ele><time>2026-04-27T13:49:40.999Z</time></trkpt><trkpt lat="42.31259654236117" lon="13.25261459822489"><ele>1290.0</ele><time>2026-04-27T13:49:41.999Z</time></trkpt><trkpt lat="42.312710218791416" lon="13.252547541198048"><ele>1290.0</ele><time>2026-04-27T13:49:42.999Z</time></trkpt><trkpt lat="42.31280487259835" lon="13.252459383786888"><ele>1290.0</ele><time>2026-04-27T13:49:43.999Z</time></trkpt><trkpt lat="42.3128736324882" lon="13.252314889864538"><ele>1290.0</ele><time>2026-04-27T13:49:44.998Z</time></trkpt><trkpt lat="42.31293827137461" lon="13.25215928735845"><ele>1288.5</ele><time>2026-04-27T13:49:45.998Z</time></trkpt><trkpt lat="42.31297912286162" lon="13.252012840139397"><ele>1287.0</ele><time>2026-04-27T13:49:46.998Z</time></trkpt><trkpt lat="42.313060856804135" lon="13.251903290305428"><ele>1285.5</ele><time>2026-04-27T13:49:47.998Z</time></trkpt><trkpt lat="42.31316203833598" lon="13.251843211485706"><ele>1284.0</ele><time>2026-04-27T13:49:48.998Z</time></trkpt><trkpt lat="42.31327983218778" lon="13.251810212262734"><ele>1284.0</ele><time>2026-04-27T13:49:49.998Z</time></trkpt><trkpt lat="42.313389779145915" lon="13.251764962715024"><ele>1284.0</ele><time>2026-04-27T13:49:50.998Z</time></trkpt><trkpt lat="42.31349051014583" lon="13.251690600821714"><ele>1284.0</ele><time>2026-04-27T13:49:51.998Z</time></trkpt><trkpt lat="42.313552212904185" lon="13.251540134470229"><ele>1284.0</ele><time>2026-04-27T13:49:52.998Z</time></trkpt><trkpt lat="42.31362025233368" lon="13.251415332144012"><ele>1287.0</ele><time>2026-04-27T13:49:53.998Z</time></trkpt><trkpt lat="42.31370962931672" lon="13.251333248070022"><ele>1290.0</ele><time>2026-04-27T13:49:54.998Z</time></trkpt><trkpt lat="42.313826517549685" lon="13.2513098931872"><ele>1293.0</ele><time>2026-04-27T13:49:55.998Z</time></trkpt><trkpt lat="42.31394669724447" lon="13.251291296527091"><ele>1296.0</ele><time>2026-04-27T13:49:56.998Z</time></trkpt><trkpt lat="42.31406689725146" lon="13.251246959489762"><ele>1296.0</ele><time>2026-04-27T13:49:57.998Z</time></trkpt><trkpt lat="42.31418072145009" lon="13.251177608743706"><ele>1296.0</ele><time>2026-04-27T13:49:58.998Z</time></trkpt><trkpt lat="42.31428711540784" lon="13.251120880604901"><ele>1296.0</ele><time>2026-04-27T13:49:59.998Z</time></trkpt><trkpt lat="42.31438971371008" lon="13.251091416287252"><ele>1296.0</ele><time>2026-04-27T13:50:00.998Z</time></trkpt><trkpt lat="42.314486550693076" lon="13.251100104576693"><ele>1296.0</ele><time>2026-04-27T13:50:02Z</time></trkpt><trkpt lat="42.31458180251782" lon="13.251169823007638"><ele>1296.0</ele><time>2026-04-27T13:50:03Z</time></trkpt><trkpt lat="42.314675548185626" lon="13.251276587961767"><ele>1296.0</ele><time>2026-04-27T13:50:04Z</time></trkpt><trkpt lat="42.31477593011824" lon="13.251382434310804"><ele>1296.0</ele><time>2026-04-27T13:50:05Z</time></trkpt><trkpt lat="42.31488528970462" lon="13.251485812751353"><ele>1296.0</ele><time>2026-04-27T13:50:06Z</time></trkpt><trkpt lat="42.314989955624426" lon="13.251593283642483"><ele>1290.25</ele><time>2026-04-27T13:50:07Z</time></trkpt><trkpt lat="42.31509111520804" lon="13.25170668300317"><ele>1284.5</ele><time>2026-04-27T13:50:08Z</time></trkpt><trkpt lat="42.315187791676394" lon="13.251827606630783"><ele>1278.75</ele><time>2026-04-27T13:50:09Z</time></trkpt><trkpt lat="42.31527326265702" lon="13.251958731440872"><ele>1273.0</ele><time>2026-04-27T13:50:10Z</time></trkpt><trkpt lat="42.31534763556349" lon="13.252077080465936"><ele>1273.0</ele><time>2026-04-27T13:50:11Z</time></trkpt><trkpt lat="42.31543580119798" lon="13.252156919493366"><ele>1273.0</ele><time>2026-04-27T13:50:12Z</time></trkpt><trkpt lat="42.3155502904539" lon="13.252202049811775"><ele>1273.0</ele><time>2026-04-27T13:50:13Z</time></trkpt><trkpt lat="42.3156770418528" lon="13.252212714287984"><ele>1273.0</ele><time>2026-04-27T13:50:14Z</time></trkpt><trkpt lat="42.31580526199668" lon="13.25220425837679"><ele>1278.5</ele><time>2026-04-27T13:50:15Z</time></trkpt><trkpt lat="42.31593383133832" lon="13.252176817352673"><ele>1284.0</ele><time>2026-04-27T13:50:16Z</time></trkpt><trkpt lat="42.31605788706839" lon="13.252136684253871"><ele>1289.5</ele><time>2026-04-27T13:50:17Z</time></trkpt><trkpt lat="42.31617179928924" lon="13.252096655669913"><ele>1295.0</ele><time>2026-04-27T13:50:18Z</time></trkpt><trkpt lat="42.316275381530566" lon="13.25206030238052"><ele>1295.0</ele><time>2026-04-27T13:50:19Z</time></trkpt><trkpt lat="42.316369645574675" lon="13.252028652814069"><ele>1295.0</ele><time>2026-04-27T13:50:20Z</time></trkpt><trkpt lat="42.31645720818837" lon="13.252027222384935"><ele>1295.0</ele><time>2026-04-27T13:50:21Z</time></trkpt><trkpt lat="42.31653768714199" lon="13.252063596910707"><ele>1295.0</ele><time>2026-04-27T13:50:22Z</time></trkpt><trkpt lat="42.31660206748518" lon="13.252132650166574"><ele>1295.0</ele><time>2026-04-27T13:50:23Z</time></trkpt><trkpt lat="42.31663698486935" lon="13.252231771659238"><ele>1295.0</ele><time>2026-04-27T13:50:24Z</time></trkpt><trkpt lat="42.316649613072826" lon="13.252356911376573"><ele>1290.8</ele><time>2026-04-27T13:50:25Z</time></trkpt><trkpt lat="42.316628318061944" lon="13.252495721308954"><ele>1286.6</ele><time>2026-04-27T13:50:26Z</time></trkpt><trkpt lat="42.3165400721434" lon="13.25259151501341"><ele>1282.4</ele><time>2026-04-27T13:50:27Z</time></trkpt><trkpt lat="42.316475067831306" lon="13.252704165763063"><ele>1278.2</ele><time>2026-04-27T13:50:28Z</time></trkpt><trkpt lat="42.316419721461784" lon="13.252808433517526"><ele>1274.0</ele><time>2026-04-27T13:50:29Z</time></trkpt><trkpt lat="42.31638732644299" lon="13.252923315773662"><ele>1274.0</ele><time>2026-04-27T13:50:30Z</time></trkpt><trkpt lat="42.31641326442557" lon="13.25303949409461"><ele>1274.0</ele><time>2026-04-27T13:50:31Z</time></trkpt><trkpt lat="42.31649092215276" lon="13.253099601077809"><ele>1274.0</ele><time>2026-04-27T13:50:32Z</time></trkpt><trkpt lat="42.31657615495796" lon="13.25311330595955"><ele>1274.0</ele><time>2026-04-27T13:50:33Z</time></trkpt><trkpt lat="42.31667198277313" lon="13.253084469407995"><ele>1274.0</ele><time>2026-04-27T13:50:34Z</time></trkpt><trkpt lat="42.31677747519297" lon="13.253027948523398"><ele>1274.0</ele><time>2026-04-27T13:50:35Z</time></trkpt><trkpt lat="42.316882976531346" lon="13.25298928116911"><ele>1274.0</ele><time>2026-04-27T13:50:36Z</time></trkpt><trkpt lat="42.31698798958651" lon="13.252959721691104"><ele>1274.0</ele><time>2026-04-27T13:50:37Z</time></trkpt><trkpt lat="42.3171048368476" lon="13.252917567091371"><ele>1274.0</ele><time>2026-04-27T13:50:37.999Z</time></trkpt><trkpt lat="42.31722803774533" lon="13.252866847994172"><ele>1274.5</ele><time>2026-04-27T13:50:38.999Z</time></trkpt><trkpt lat="42.3173574017531" lon="13.25281668815792"><ele>1275.0</ele><time>2026-04-27T13:50:39.999Z</time></trkpt><trkpt lat="42.317489811823904" lon="13.25276636590358"><ele>1275.5</ele><time>2026-04-27T13:50:40.999Z</time></trkpt><trkpt lat="42.317623497560426" lon="13.252717517632796"><ele>1276.0</ele><time>2026-04-27T13:50:41.999Z</time></trkpt><trkpt lat="42.317760930848905" lon="13.252671975287816"><ele>1276.0</ele><time>2026-04-27T13:50:42.999Z</time></trkpt><trkpt lat="42.31789896778915" lon="13.25263043342388"><ele>1276.0</ele><time>2026-04-27T13:50:43.999Z</time></trkpt><trkpt lat="42.3180413993617" lon="13.252595778087407"><ele>1276.0</ele><time>2026-04-27T13:50:44.999Z</time></trkpt><trkpt lat="42.318186065926696" lon="13.252579232566148"><ele>1276.0</ele><time>2026-04-27T13:50:45.999Z</time></trkpt><trkpt lat="42.31832804575702" lon="13.25257184996098"><ele>1274.0</ele><time>2026-04-27T13:50:46.999Z</time></trkpt><trkpt lat="42.31847912070024" lon="13.25256233277382"><ele>1272.0</ele><time>2026-04-27T13:50:47.999Z</time></trkpt><trkpt lat="42.31863692915433" lon="13.252542499592444"><ele>1270.0</ele><time>2026-04-27T13:50:48.999Z</time></trkpt><trkpt lat="42.31879761330724" lon="13.252516368936046"><ele>1268.3333333333333</ele><time>2026-04-27T13:50:49.999Z</time></trkpt><trkpt lat="42.31896075040772" lon="13.252479555917663"><ele>1266.6666666666667</ele><time>2026-04-27T13:50:50.999Z</time></trkpt><trkpt lat="42.3191222218184" lon="13.25243988216582"><ele>1265.0</ele><time>2026-04-27T13:50:51.999Z</time></trkpt><trkpt lat="42.31927437773179" lon="13.252407205872641"><ele>1265.0</ele><time>2026-04-27T13:50:52.999Z</time></trkpt><trkpt lat="42.31941704948457" lon="13.252383546008986"><ele>1265.0</ele><time>2026-04-27T13:50:53.999Z</time></trkpt><trkpt lat="42.31955013937771" lon="13.252366845506286"><ele>1265.0</ele><time>2026-04-27T13:50:54.999Z</time></trkpt><trkpt lat="42.31967184568988" lon="13.252338086814087"><ele>1265.0</ele><time>2026-04-27T13:50:55.999Z</time></trkpt><trkpt lat="42.31978255881412" lon="13.252264979590116"><ele>1269.0</ele><time>2026-04-27T13:50:56.999Z</time></trkpt><trkpt lat="42.31988214123759" lon="13.252147273352907"><ele>1273.0</ele><time>2026-04-27T13:50:57.999Z</time></trkpt><trkpt lat="42.319966345481674" lon="13.251991083303555"><ele>1277.0</ele><time>2026-04-27T13:50:58.999Z</time></trkpt><trkpt lat="42.32005708938315" lon="13.251832509920474"><ele>1281.0</ele><time>2026-04-27T13:50:59.999Z</time></trkpt><trkpt lat="42.320154883870565" lon="13.251679563441597"><ele>1281.0</ele><time>2026-04-27T13:51:00.999Z</time></trkpt><trkpt lat="42.320240351757235" lon="13.251522746377058"><ele>1281.0</ele><time>2026-04-27T13:51:01.999Z</time></trkpt><trkpt lat="42.32030237356805" lon="13.251361687238308"><ele>1281.0</ele><time>2026-04-27T13:51:02.999Z</time></trkpt><trkpt lat="42.32036829158321" lon="13.251211764800171"><ele>1281.0</ele><time>2026-04-27T13:51:03.999Z</time></trkpt><trkpt lat="42.320432232574284" lon="13.251060232525509"><ele>1279.25</ele><time>2026-04-27T13:51:04.999Z</time></trkpt><trkpt lat="42.32047385191916" lon="13.250891444073046"><ele>1277.5</ele><time>2026-04-27T13:51:05.999Z</time></trkpt><trkpt lat="42.32050189001132" lon="13.250735185781005"><ele>1275.75</ele><time>2026-04-27T13:51:06.999Z</time></trkpt><trkpt lat="42.32054189880416" lon="13.25060043502894"><ele>1274.0</ele><time>2026-04-27T13:51:07.999Z</time></trkpt><trkpt lat="42.32061274316211" lon="13.250493462131026"><ele>1274.0</ele><time>2026-04-27T13:51:08.999Z</time></trkpt><trkpt lat="42.32070950618934" lon="13.250421248315986"><ele>1274.0</ele><time>2026-04-27T13:51:09.999Z</time></trkpt><trkpt lat="42.32082595371842" lon="13.250371767489272"><ele>1274.0</ele><time>2026-04-27T13:51:10.999Z</time></trkpt><trkpt lat="42.32094373137739" lon="13.250364891812367"><ele>1274.0</ele><time>2026-04-27T13:51:11.999Z</time></trkpt><trkpt lat="42.3210628462259" lon="13.250427116176153"><ele>1274.0</ele><time>2026-04-27T13:51:12.999Z</time></trkpt><trkpt lat="42.321187368275794" lon="13.250498511104956"><ele>1274.0</ele><time>2026-04-27T13:51:13.999Z</time></trkpt><trkpt lat="42.32131404662053" lon="13.250553709159764"><ele>1274.0</ele><time>2026-04-27T13:51:14.999Z</time></trkpt><trkpt lat="42.321432468211356" lon="13.250617875024805"><ele>1274.0</ele><time>2026-04-27T13:51:15.999Z</time></trkpt><trkpt lat="42.32155025834662" lon="13.250679074871513"><ele>1267.75</ele><time>2026-04-27T13:51:16.999Z</time></trkpt><trkpt lat="42.321657807307844" lon="13.250739351262395"><ele>1261.5</ele><time>2026-04-27T13:51:17.999Z</time></trkpt><trkpt lat="42.321759721939216" lon="13.250822418901375"><ele>1255.25</ele><time>2026-04-27T13:51:18.999Z</time></trkpt><trkpt lat="42.32186355690952" lon="13.25088229901985"><ele>1249.0</ele><time>2026-04-27T13:51:19.999Z</time></trkpt><trkpt lat="42.32194683633082" lon="13.250962235019662"><ele>1249.0</ele><time>2026-04-27T13:51:20.999Z</time></trkpt><trkpt lat="42.32201258675683" lon="13.251053062706063"><ele>1249.0</ele><time>2026-04-27T13:51:21.999Z</time></trkpt><trkpt lat="42.322050362896746" lon="13.251149159784696"><ele>1249.0</ele><time>2026-04-27T13:51:22.999Z</time></trkpt><trkpt lat="42.322046164897415" lon="13.251238503410475"><ele>1249.0</ele><time>2026-04-27T13:51:23.999Z</time></trkpt><trkpt lat="42.32200199263266" lon="13.251307585155631"><ele>1249.0</ele><time>2026-04-27T13:51:24.999Z</time></trkpt><trkpt lat="42.32192372182757" lon="13.251320107137651"><ele>1249.0</ele><time>2026-04-27T13:51:25.999Z</time></trkpt><trkpt lat="42.32183986562881" lon="13.251304455395438"><ele>1249.0</ele><time>2026-04-27T13:51:26.999Z</time></trkpt><trkpt lat="42.3217414676656" lon="13.251288408274624"><ele>1249.0</ele><time>2026-04-27T13:51:27.999Z</time></trkpt><trkpt lat="42.32163391269554" lon="13.251253141776663"><ele>1249.0</ele><time>2026-04-27T13:51:28.999Z</time></trkpt><trkpt lat="42.321536113440615" lon="13.251188798948347"><ele>1249.0</ele><time>2026-04-27T13:51:29.999Z</time></trkpt><trkpt lat="42.32145071485042" lon="13.251095109730342"><ele>1249.0</ele><time>2026-04-27T13:51:30.999Z</time></trkpt><trkpt lat="42.3213795985562" lon="13.250991714199461"><ele>1249.4</ele><time>2026-04-27T13:51:31.999Z</time></trkpt><trkpt lat="42.321312718556534" lon="13.250893066503505"><ele>1249.8000000000002</ele><time>2026-04-27T13:51:32.999Z</time></trkpt><trkpt lat="42.32124786915456" lon="13.250801910034967"><ele>1250.1999999999998</ele><time>2026-04-27T13:51:33.999Z</time></trkpt><trkpt lat="42.32117622267889" lon="13.250734283418621"><ele>1250.6</ele><time>2026-04-27T13:51:34.999Z</time></trkpt><trkpt lat="42.32109777199694" lon="13.250662371171243"><ele>1251.0</ele><time>2026-04-27T13:51:35.999Z</time></trkpt><trkpt lat="42.32099808484551" lon="13.250628936013701"><ele>1251.0</ele><time>2026-04-27T13:51:36.999Z</time></trkpt><trkpt lat="42.320907729034055" lon="13.250622643254935"><ele>1251.0</ele><time>2026-04-27T13:51:37.999Z</time></trkpt><trkpt lat="42.320835535244086" lon="13.250631425517403"><ele>1251.0</ele><time>2026-04-27T13:51:38.999Z</time></trkpt><trkpt lat="42.320787908611635" lon="13.250703231449776"><ele>1251.0</ele><time>2026-04-27T13:51:39.999Z</time></trkpt><trkpt lat="42.32071682387833" lon="13.25082758065947"><ele>1251.0</ele><time>2026-04-27T13:51:41.998Z</time></trkpt><trkpt lat="42.32071031529141" lon="13.250957089808372"><ele>1251.0</ele><time>2026-04-27T13:51:42.998Z</time></trkpt><trkpt lat="42.320663972000695" lon="13.25107134530523"><ele>1251.0</ele><time>2026-04-27T13:51:43.998Z</time></trkpt><trkpt lat="42.320602622015855" lon="13.251197060264955"><ele>1251.0</ele><time>2026-04-27T13:51:44.998Z</time></trkpt><trkpt lat="42.32054076989062" lon="13.251353278645562"><ele>1251.0</ele><time>2026-04-27T13:51:45.998Z</time></trkpt><trkpt lat="42.320479679853165" lon="13.251518897230097"><ele>1251.0</ele><time>2026-04-27T13:51:46.998Z</time></trkpt><trkpt lat="42.32042830652017" lon="13.251695208977583"><ele>1250.25</ele><time>2026-04-27T13:51:47.998Z</time></trkpt><trkpt lat="42.32035747508776" lon="13.25185515248555"><ele>1249.5</ele><time>2026-04-27T13:51:48.998Z</time></trkpt><trkpt lat="42.320284337097725" lon="13.252006534542636"><ele>1248.75</ele><time>2026-04-27T13:51:49.998Z</time></trkpt><trkpt lat="42.32019930271487" lon="13.25215501892273"><ele>1248.0</ele><time>2026-04-27T13:51:50.998Z</time></trkpt><trkpt lat="42.32012505700976" lon="13.252324750258106"><ele>1248.0</ele><time>2026-04-27T13:51:51.998Z</time></trkpt><trkpt lat="42.320063444078606" lon="13.252487794018023"><ele>1248.0</ele><time>2026-04-27T13:51:52.998Z</time></trkpt><trkpt lat="42.32000351924734" lon="13.252641776881248"><ele>1248.0</ele><time>2026-04-27T13:51:53.998Z</time></trkpt><trkpt lat="42.319921211625505" lon="13.25275768083889"><ele>1248.0</ele><time>2026-04-27T13:51:54.998Z</time></trkpt><trkpt lat="42.31980904512142" lon="13.25284210850736"><ele>1252.25</ele><time>2026-04-27T13:51:55.998Z</time></trkpt><trkpt lat="42.31968744996214" lon="13.252929286105923"><ele>1256.5</ele><time>2026-04-27T13:51:56.998Z</time></trkpt><trkpt lat="42.319548605525476" lon="13.252954497323778"><ele>1260.75</ele><time>2026-04-27T13:51:57.998Z</time></trkpt><trkpt lat="42.319403798971386" lon="13.252988825442552"><ele>1265.0</ele><time>2026-04-27T13:51:58.998Z</time></trkpt><trkpt lat="42.3192589070429" lon="13.253028783699863"><ele>1265.0</ele><time>2026-04-27T13:51:59.998Z</time></trkpt><trkpt lat="42.319111989616054" lon="13.253076827204804"><ele>1265.0</ele><time>2026-04-27T13:52:00.998Z</time></trkpt><trkpt lat="42.318968471692635" lon="13.253144487044192"><ele>1265.0</ele><time>2026-04-27T13:52:01.998Z</time></trkpt><trkpt lat="42.31883797537339" lon="13.253229852695307"><ele>1265.0</ele><time>2026-04-27T13:52:02.998Z</time></trkpt><trkpt lat="42.31869774182479" lon="13.25326923625558"><ele>1257.25</ele><time>2026-04-27T13:52:03.998Z</time></trkpt><trkpt lat="42.318557099112404" lon="13.25328432899601"><ele>1249.5</ele><time>2026-04-27T13:52:04.998Z</time></trkpt><trkpt lat="42.318411708009364" lon="13.253270592230729"><ele>1241.75</ele><time>2026-04-27T13:52:05.998Z</time></trkpt><trkpt lat="42.318262355451516" lon="13.25331263957468"><ele>1234.0</ele><time>2026-04-27T13:52:06.998Z</time></trkpt><trkpt lat="42.31811588965829" lon="13.253374328550892"><ele>1236.6666666666665</ele><time>2026-04-27T13:52:08Z</time></trkpt><trkpt lat="42.31797122859678" lon="13.253458128367564"><ele>1239.3333333333333</ele><time>2026-04-27T13:52:09Z</time></trkpt><trkpt lat="42.317818077340306" lon="13.253519555280624"><ele>1242.0</ele><time>2026-04-27T13:52:10Z</time></trkpt><trkpt lat="42.31766161762144" lon="13.253580348021648"><ele>1242.0</ele><time>2026-04-27T13:52:11Z</time></trkpt><trkpt lat="42.31750248103053" lon="13.25363716245069"><ele>1242.0</ele><time>2026-04-27T13:52:12Z</time></trkpt><trkpt lat="42.31734257682515" lon="13.253702475154203"><ele>1242.0</ele><time>2026-04-27T13:52:13Z</time></trkpt><trkpt lat="42.31718126214631" lon="13.25377931481616"><ele>1245.3333333333333</ele><time>2026-04-27T13:52:14Z</time></trkpt><trkpt lat="42.317013461668516" lon="13.253841368733795"><ele>1248.6666666666665</ele><time>2026-04-27T13:52:15Z</time></trkpt><trkpt lat="42.3168518521897" lon="13.25392712331748"><ele>1252.0</ele><time>2026-04-27T13:52:16Z</time></trkpt><trkpt lat="42.3167065486731" lon="13.254033742482653"><ele>1241.5</ele><time>2026-04-27T13:52:17Z</time></trkpt><trkpt lat="42.316567759546224" lon="13.254111216044409"><ele>1231.0</ele><time>2026-04-27T13:52:18Z</time></trkpt><trkpt lat="42.31643913776892" lon="13.254173407520836"><ele>1220.5</ele><time>2026-04-27T13:52:19Z</time></trkpt><trkpt lat="42.316316869090016" lon="13.254205573356254"><ele>1210.0</ele><time>2026-04-27T13:52:20Z</time></trkpt><trkpt lat="42.31619614369163" lon="13.254186362812314"><ele>1208.75</ele><time>2026-04-27T13:52:21Z</time></trkpt><trkpt lat="42.31608702543779" lon="13.254100072152015"><ele>1207.5</ele><time>2026-04-27T13:52:22Z</time></trkpt><trkpt lat="42.31596590908396" lon="13.254008090368314"><ele>1206.25</ele><time>2026-04-27T13:52:23Z</time></trkpt><trkpt lat="42.315831902483865" lon="13.253926068978435"><ele>1205.0</ele><time>2026-04-27T13:52:24Z</time></trkpt><trkpt lat="42.3156911190472" lon="13.253877673147768"><ele>1205.75</ele><time>2026-04-27T13:52:25Z</time></trkpt><trkpt lat="42.31556584514346" lon="13.253867813785416"><ele>1206.5</ele><time>2026-04-27T13:52:26Z</time></trkpt><trkpt lat="42.31546058583185" lon="13.25381249874504"><ele>1207.25</ele><time>2026-04-27T13:52:27Z</time></trkpt><trkpt lat="42.315373716567926" lon="13.253721669955796"><ele>1208.0</ele><time>2026-04-27T13:52:28Z</time></trkpt><trkpt lat="42.31531694934127" lon="13.253593517781425"><ele>1208.0</ele><time>2026-04-27T13:52:29Z</time></trkpt><trkpt lat="42.315284761497814" lon="13.253439896473266"><ele>1208.0</ele><time>2026-04-27T13:52:30Z</time></trkpt><trkpt lat="42.31520382771939" lon="13.253316764042758"><ele>1208.0</ele><time>2026-04-27T13:52:31Z</time></trkpt><trkpt lat="42.31505102227614" lon="13.253305510611243"><ele>1208.0</ele><time>2026-04-27T13:52:32Z</time></trkpt><trkpt lat="42.314929047205084" lon="13.253243691578922"><ele>1208.0</ele><time>2026-04-27T13:52:33Z</time></trkpt><trkpt lat="42.314818735780584" lon="13.253157335834372"><ele>1208.0</ele><time>2026-04-27T13:52:34Z</time></trkpt><trkpt lat="42.31473396879854" lon="13.253053765627552"><ele>1208.0</ele><time>2026-04-27T13:52:35Z</time></trkpt><trkpt lat="42.3146467717569" lon="13.252960334164525"><ele>1208.0</ele><time>2026-04-27T13:52:36Z</time></trkpt><trkpt lat="42.31453499871382" lon="13.252915261022272"><ele>1207.0</ele><time>2026-04-27T13:52:37Z</time></trkpt><trkpt lat="42.31441045255843" lon="13.25296391919631"><ele>1206.0</ele><time>2026-04-27T13:52:38Z</time></trkpt><trkpt lat="42.31429557824552" lon="13.253022626919073"><ele>1205.0</ele><time>2026-04-27T13:52:38.999Z</time></trkpt><trkpt lat="42.31417935414699" lon="13.253088498166099"><ele>1204.0</ele><time>2026-04-27T13:52:39.999Z</time></trkpt><trkpt lat="42.31406491223524" lon="13.253164190512411"><ele>1204.0</ele><time>2026-04-27T13:52:40.999Z</time></trkpt><trkpt lat="42.313968489009746" lon="13.25328508181268"><ele>1204.0</ele><time>2026-04-27T13:52:41.999Z</time></trkpt><trkpt lat="42.31392231954029" lon="13.253458376257571"><ele>1204.0</ele><time>2026-04-27T13:52:42.999Z</time></trkpt><trkpt lat="42.31386537261733" lon="13.253618490286625"><ele>1204.0</ele><time>2026-04-27T13:52:43.999Z</time></trkpt><trkpt lat="42.31378512307902" lon="13.25375256080035"><ele>1209.75</ele><time>2026-04-27T13:52:44.999Z</time></trkpt><trkpt lat="42.31369566368912" lon="13.253885887760617"><ele>1215.5</ele><time>2026-04-27T13:52:45.999Z</time></trkpt><trkpt lat="42.31360229491069" lon="13.25402157461159"><ele>1221.25</ele><time>2026-04-27T13:52:46.999Z</time></trkpt><trkpt lat="42.31358690825268" lon="13.254222432784976"><ele>1227.0</ele><time>2026-04-27T13:52:47.999Z</time></trkpt><trkpt lat="42.31355209876726" lon="13.254409502491113"><ele>1227.0</ele><time>2026-04-27T13:52:48.999Z</time></trkpt><trkpt lat="42.31353142660806" lon="13.254597302157341"><ele>1227.0</ele><time>2026-04-27T13:52:49.999Z</time></trkpt><trkpt lat="42.3135000364571" lon="13.254777083821944"><ele>1227.0</ele><time>2026-04-27T13:52:50.999Z</time></trkpt><trkpt lat="42.31346182809501" lon="13.254943837580383"><ele>1227.0</ele><time>2026-04-27T13:52:51.999Z</time></trkpt><trkpt lat="42.31342103242893" lon="13.255090462772344"><ele>1226.2</ele><time>2026-04-27T13:52:52.999Z</time></trkpt><trkpt lat="42.313374175447336" lon="13.255220189239244"><ele>1225.4</ele><time>2026-04-27T13:52:53.999Z</time></trkpt><trkpt lat="42.313293553425396" lon="13.255301216221396"><ele>1224.6</ele><time>2026-04-27T13:52:54.999Z</time></trkpt><trkpt lat="42.31319688830958" lon="13.255345081250814"><ele>1223.8</ele><time>2026-04-27T13:52:55.999Z</time></trkpt><trkpt lat="42.31309312954871" lon="13.255311084018043"><ele>1223.0</ele><time>2026-04-27T13:52:56.999Z</time></trkpt><trkpt lat="42.31298742500516" lon="13.25525859718899"><ele>1223.0</ele><time>2026-04-27T13:52:57.999Z</time></trkpt><trkpt lat="42.31286778782101" lon="13.255228826316833"><ele>1223.0</ele><time>2026-04-27T13:52:58.999Z</time></trkpt><trkpt lat="42.312749864774894" lon="13.255175019089021"><ele>1223.0</ele><time>2026-04-27T13:52:59.999Z</time></trkpt><trkpt lat="42.312639481025386" lon="13.255141819398222"><ele>1223.0</ele><time>2026-04-27T13:53:00.999Z</time></trkpt><trkpt lat="42.31253499419505" lon="13.255114457393153"><ele>1223.0</ele><time>2026-04-27T13:53:01.999Z</time></trkpt><trkpt lat="42.3124392536927" lon="13.255177771438806"><ele>1223.0</ele><time>2026-04-27T13:53:02.999Z</time></trkpt><trkpt lat="42.31234139873046" lon="13.255243000670449"><ele>1223.0</ele><time>2026-04-27T13:53:03.999Z</time></trkpt><trkpt lat="42.31226525189627" lon="13.25535603653039"><ele>1223.0</ele><time>2026-04-27T13:53:04.999Z</time></trkpt><trkpt lat="42.31225756553822" lon="13.255518748187047"><ele>1223.0</ele><time>2026-04-27T13:53:05.999Z</time></trkpt><trkpt lat="42.31226013477619" lon="13.255681451658752"><ele>1216.5</ele><time>2026-04-27T13:53:06.999Z</time></trkpt><trkpt lat="42.312278239567355" lon="13.255851416498897"><ele>1210.0</ele><time>2026-04-27T13:53:07.999Z</time></trkpt><trkpt lat="42.31227433809661" lon="13.256009898669047"><ele>1203.5</ele><time>2026-04-27T13:53:08.999Z</time></trkpt><trkpt lat="42.31227999815392" lon="13.256168217988332"><ele>1197.0</ele><time>2026-04-27T13:53:09.999Z</time></trkpt><trkpt lat="42.3122801714855" lon="13.256309532272134"><ele>1196.0</ele><time>2026-04-27T13:53:10.999Z</time></trkpt><trkpt lat="42.3122224359578" lon="13.256445815847641"><ele>1195.0</ele><time>2026-04-27T13:53:11.999Z</time></trkpt><trkpt lat="42.312136159390214" lon="13.256567094652373"><ele>1194.0</ele><time>2026-04-27T13:53:12.999Z</time></trkpt><trkpt lat="42.31203591270911" lon="13.256658660525762"><ele>1193.0</ele><time>2026-04-27T13:53:13.999Z</time></trkpt><trkpt lat="42.311927277328515" lon="13.256702398723734"><ele>1193.0</ele><time>2026-04-27T13:53:14.999Z</time></trkpt><trkpt lat="42.31180924571163" lon="13.256700069489398"><ele>1193.0</ele><time>2026-04-27T13:53:15.999Z</time></trkpt><trkpt lat="42.31168649947974" lon="13.25665166355071"><ele>1193.0</ele><time>2026-04-27T13:53:16.999Z</time></trkpt><trkpt lat="42.31157339768692" lon="13.25657834304214"><ele>1193.0</ele><time>2026-04-27T13:53:17.999Z</time></trkpt><trkpt lat="42.31146676505439" lon="13.256513134526902"><ele>1197.25</ele><time>2026-04-27T13:53:18.999Z</time></trkpt><trkpt lat="42.31135785873181" lon="13.256502866708079"><ele>1201.5</ele><time>2026-04-27T13:53:19.999Z</time></trkpt><trkpt lat="42.31124401126994" lon="13.256543795857143"><ele>1205.75</ele><time>2026-04-27T13:53:20.999Z</time></trkpt><trkpt lat="42.31113753318512" lon="13.25663368287218"><ele>1210.0</ele><time>2026-04-27T13:53:21.999Z</time></trkpt><trkpt lat="42.31105193233263" lon="13.256771535632055"><ele>1210.0</ele><time>2026-04-27T13:53:22.999Z</time></trkpt><trkpt lat="42.31099486898758" lon="13.256939849278169"><ele>1210.0</ele><time>2026-04-27T13:53:23.999Z</time></trkpt><trkpt lat="42.310919243203436" lon="13.257101780753127"><ele>1210.0</ele><time>2026-04-27T13:53:24.999Z</time></trkpt><trkpt lat="42.31086649223648" lon="13.257281435164781"><ele>1210.0</ele><time>2026-04-27T13:53:25.999Z</time></trkpt><trkpt lat="42.31080124679272" lon="13.25744824432477"><ele>1209.25</ele><time>2026-04-27T13:53:26.999Z</time></trkpt><trkpt lat="42.31073162208307" lon="13.257598164770139"><ele>1208.5</ele><time>2026-04-27T13:53:27.999Z</time></trkpt><trkpt lat="42.31065152590264" lon="13.257738536359481"><ele>1207.75</ele><time>2026-04-27T13:53:28.999Z</time></trkpt><trkpt lat="42.310567154000594" lon="13.257870980297431"><ele>1207.0</ele><time>2026-04-27T13:53:29.999Z</time></trkpt><trkpt lat="42.31045343739755" lon="13.257952983197217"><ele>1207.0</ele><time>2026-04-27T13:53:30.999Z</time></trkpt><trkpt lat="42.31032682549421" lon="13.25799349377809"><ele>1207.0</ele><time>2026-04-27T13:53:31.999Z</time></trkpt><trkpt lat="42.31019724151595" lon="13.257988045856942"><ele>1207.0</ele><time>2026-04-27T13:53:32.999Z</time></trkpt><trkpt lat="42.310073452401674" lon="13.257981483602528"><ele>1207.0</ele><time>2026-04-27T13:53:33.999Z</time></trkpt><trkpt lat="42.3099516369375" lon="13.258026698710022"><ele>1204.5</ele><time>2026-04-27T13:53:34.999Z</time></trkpt><trkpt lat="42.30984510023715" lon="13.258131052383478"><ele>1202.0</ele><time>2026-04-27T13:53:35.999Z</time></trkpt><trkpt lat="42.30975144382619" lon="13.258266436616616"><ele>1199.5</ele><time>2026-04-27T13:53:36.999Z</time></trkpt><trkpt lat="42.30967677546904" lon="13.258428092109595"><ele>1197.0</ele><time>2026-04-27T13:53:37.999Z</time></trkpt><trkpt lat="42.30959723654162" lon="13.258587202479626"><ele>1197.0</ele><time>2026-04-27T13:53:38.999Z</time></trkpt><trkpt lat="42.309518822208254" lon="13.258732158925723"><ele>1197.0</ele><time>2026-04-27T13:53:39.999Z</time></trkpt><trkpt lat="42.309435769576844" lon="13.25887172866869"><ele>1197.0</ele><time>2026-04-27T13:53:40.998Z</time></trkpt><trkpt lat="42.309329730264736" lon="13.25897194043649"><ele>1197.0</ele><time>2026-04-27T13:53:41.998Z</time></trkpt><trkpt lat="42.30921826741634" lon="13.259053359723719"><ele>1192.25</ele><time>2026-04-27T13:53:42.998Z</time></trkpt><trkpt lat="42.30908429116141" lon="13.259080516308309"><ele>1187.5</ele><time>2026-04-27T13:53:43.998Z</time></trkpt><trkpt lat="42.30894525597885" lon="13.259121706734813"><ele>1182.75</ele><time>2026-04-27T13:53:44.998Z</time></trkpt><trkpt lat="42.30881218673868" lon="13.259203930065443"><ele>1178.0</ele><time>2026-04-27T13:53:45.998Z</time></trkpt><trkpt lat="42.30867726753216" lon="13.25928624398512"><ele>1178.0</ele><time>2026-04-27T13:53:46.998Z</time></trkpt><trkpt lat="42.3085370420715" lon="13.25935973566842"><ele>1178.0</ele><time>2026-04-27T13:53:47.998Z</time></trkpt><trkpt lat="42.30840629047537" lon="13.259458527778504"><ele>1178.0</ele><time>2026-04-27T13:53:48.998Z</time></trkpt><trkpt lat="42.3082790253046" lon="13.259556485041706"><ele>1178.0</ele><time>2026-04-27T13:53:49.998Z</time></trkpt><trkpt lat="42.308152254340975" lon="13.259654062065838"><ele>1176.75</ele><time>2026-04-27T13:53:50.998Z</time></trkpt><trkpt lat="42.30802580610108" lon="13.259750877124533"><ele>1175.5</ele><time>2026-04-27T13:53:51.998Z</time></trkpt><trkpt lat="42.30791406323776" lon="13.25986039857125"><ele>1174.25</ele><time>2026-04-27T13:53:52.998Z</time></trkpt><trkpt lat="42.307798214899826" lon="13.259935998317275"><ele>1173.0</ele><time>2026-04-27T13:53:53.998Z</time></trkpt><trkpt lat="42.3076761865304" lon="13.25998831510659"><ele>1168.75</ele><time>2026-04-27T13:53:54.998Z</time></trkpt><trkpt lat="42.30755053559749" lon="13.26000734557943"><ele>1164.5</ele><time>2026-04-27T13:53:55.998Z</time></trkpt><trkpt lat="42.30743021067238" lon="13.259990306008826"><ele>1160.25</ele><time>2026-04-27T13:53:56.998Z</time></trkpt><trkpt lat="42.307324539283684" lon="13.25992184152559"><ele>1156.0</ele><time>2026-04-27T13:53:57.998Z</time></trkpt><trkpt lat="42.30722698640967" lon="13.259813722878077"><ele>1153.5</ele><time>2026-04-27T13:53:58.998Z</time></trkpt><trkpt lat="42.30713713943509" lon="13.259677652940278"><ele>1151.0</ele><time>2026-04-27T13:53:59.998Z</time></trkpt><trkpt lat="42.30704573720656" lon="13.259532426769315"><ele>1148.5</ele><time>2026-04-27T13:54:00.998Z</time></trkpt><trkpt lat="42.30695453485822" lon="13.259380274443044"><ele>1146.0</ele><time>2026-04-27T13:54:01.998Z</time></trkpt><trkpt lat="42.306874527250116" lon="13.259217953524299"><ele>1146.0</ele><time>2026-04-27T13:54:02.998Z</time></trkpt><trkpt lat="42.30681523136831" lon="13.259041742458995"><ele>1146.0</ele><time>2026-04-27T13:54:03.998Z</time></trkpt><trkpt lat="42.30676389259363" lon="13.25885960672327"><ele>1146.0</ele><time>2026-04-27T13:54:04.998Z</time></trkpt><trkpt lat="42.30671081677964" lon="13.25867603061564"><ele>1146.0</ele><time>2026-04-27T13:54:05.998Z</time></trkpt><trkpt lat="42.30664843595413" lon="13.258497767601106"><ele>1148.25</ele><time>2026-04-27T13:54:06.998Z</time></trkpt><trkpt lat="42.30657741404623" lon="13.25832776609995"><ele>1150.5</ele><time>2026-04-27T13:54:07.998Z</time></trkpt><trkpt lat="42.306511153656764" lon="13.258162243391642"><ele>1152.75</ele><time>2026-04-27T13:54:08.998Z</time></trkpt><trkpt lat="42.30641520776708" lon="13.258025990431811"><ele>1155.0</ele><time>2026-04-27T13:54:09.998Z</time></trkpt><trkpt lat="42.30629589770105" lon="13.257925831390379"><ele>1157.0</ele><time>2026-04-27T13:54:10.998Z</time></trkpt><trkpt lat="42.30617807533222" lon="13.25782190810285"><ele>1159.0</ele><time>2026-04-27T13:54:11.998Z</time></trkpt><trkpt lat="42.30603252290977" lon="13.25780128213536"><ele>1161.0</ele><time>2026-04-27T13:54:12.998Z</time></trkpt><trkpt lat="42.30588748797656" lon="13.257796106736196"><ele>1163.0</ele><time>2026-04-27T13:54:14Z</time></trkpt><trkpt lat="42.30574041509676" lon="13.25779489460689"><ele>1163.0</ele><time>2026-04-27T13:54:15Z</time></trkpt><trkpt lat="42.30559727878655" lon="13.25781580219761"><ele>1163.0</ele><time>2026-04-27T13:54:16Z</time></trkpt><trkpt lat="42.305446095326225" lon="13.25786649840044"><ele>1163.0</ele><time>2026-04-27T13:54:17Z</time></trkpt><trkpt lat="42.30529624567988" lon="13.257911347309593"><ele>1161.3333333333335</ele><time>2026-04-27T13:54:18Z</time></trkpt><trkpt lat="42.305144128328266" lon="13.257938191877216"><ele>1159.6666666666667</ele><time>2026-04-27T13:54:19Z</time></trkpt><trkpt lat="42.30498508073638" lon="13.257909965500572"><ele>1158.0</ele><time>2026-04-27T13:54:20Z</time></trkpt><trkpt lat="42.30482806378327" lon="13.257871026683649"><ele>1160.0</ele><time>2026-04-27T13:54:21Z</time></trkpt><trkpt lat="42.30466806339347" lon="13.257863688462514"><ele>1162.0</ele><time>2026-04-27T13:54:22Z</time></trkpt><trkpt lat="42.304506170204284" lon="13.257899124145677"><ele>1164.0</ele><time>2026-04-27T13:54:23Z</time></trkpt><trkpt lat="42.304347202107444" lon="13.257955505258158"><ele>1164.0</ele><time>2026-04-27T13:54:24Z</time></trkpt><trkpt lat="42.30418857592548" lon="13.258021333947443"><ele>1164.0</ele><time>2026-04-27T13:54:25Z</time></trkpt><trkpt lat="42.30402865907341" lon="13.258086690126227"><ele>1164.0</ele><time>2026-04-27T13:54:26Z</time></trkpt><trkpt lat="42.303870451716435" lon="13.258151612569202"><ele>1155.25</ele><time>2026-04-27T13:54:27Z</time></trkpt><trkpt lat="42.30372242143962" lon="13.258187357530968"><ele>1146.5</ele><time>2026-04-27T13:54:28Z</time></trkpt><trkpt lat="42.30358954761442" lon="13.258239822181055"><ele>1137.75</ele><time>2026-04-27T13:54:29Z</time></trkpt><trkpt lat="42.3034603055413" lon="13.258290449997837"><ele>1129.0</ele><time>2026-04-27T13:54:30Z</time></trkpt><trkpt lat="42.30333367818317" lon="13.258351140413463"><ele>1129.0</ele><time>2026-04-27T13:54:31Z</time></trkpt><trkpt lat="42.30321160288222" lon="13.258346157929662"><ele>1129.0</ele><time>2026-04-27T13:54:32Z</time></trkpt><trkpt lat="42.30310038724943" lon="13.258309429433874"><ele>1129.0</ele><time>2026-04-27T13:54:33Z</time></trkpt><trkpt lat="42.303019731264556" lon="13.258194345916694"><ele>1129.0</ele><time>2026-04-27T13:54:34Z</time></trkpt><trkpt lat="42.302921308916254" lon="13.258073671322686"><ele>1130.0</ele><time>2026-04-27T13:54:35Z</time></trkpt><trkpt lat="42.302806755281686" lon="13.25796152737363"><ele>1131.0</ele><time>2026-04-27T13:54:36Z</time></trkpt><trkpt lat="42.302701217391274" lon="13.257823426288263"><ele>1132.0</ele><time>2026-04-27T13:54:37Z</time></trkpt><trkpt lat="42.30259387382523" lon="13.257682377826077"><ele>1133.0</ele><time>2026-04-27T13:54:38Z</time></trkpt><trkpt lat="42.30248331355829" lon="13.257545481571917"><ele>1133.0</ele><time>2026-04-27T13:54:38.999Z</time></trkpt><trkpt lat="42.302369618839094" lon="13.25741296621403"><ele>1133.0</ele><time>2026-04-27T13:54:39.999Z</time></trkpt><trkpt lat="42.302250026377756" lon="13.25728785745987"><ele>1133.0</ele><time>2026-04-27T13:54:40.999Z</time></trkpt><trkpt lat="42.30212173962699" lon="13.25717986894131"><ele>1132.25</ele><time>2026-04-27T13:54:41.999Z</time></trkpt><trkpt lat="42.301989611407194" lon="13.25708337482462"><ele>1131.5</ele><time>2026-04-27T13:54:42.999Z</time></trkpt><trkpt lat="42.30185834008771" lon="13.256991908911676"><ele>1130.75</ele><time>2026-04-27T13:54:43.999Z</time></trkpt><trkpt lat="42.30173734482876" lon="13.25691267675211"><ele>1130.0</ele><time>2026-04-27T13:54:44.999Z</time></trkpt><trkpt lat="42.30162330698622" lon="13.256843364678916"><ele>1130.0</ele><time>2026-04-27T13:54:45.999Z</time></trkpt><trkpt lat="42.301513768743604" lon="13.256795597717833"><ele>1130.0</ele><time>2026-04-27T13:54:46.999Z</time></trkpt><trkpt lat="42.30140854535344" lon="13.256798857407277"><ele>1130.0</ele><time>2026-04-27T13:54:47.999Z</time></trkpt><trkpt lat="42.301318939824775" lon="13.256873356733712"><ele>1130.0</ele><time>2026-04-27T13:54:48.999Z</time></trkpt><trkpt lat="42.301243769790204" lon="13.256997620699702"><ele>1130.0</ele><time>2026-04-27T13:54:49.999Z</time></trkpt><trkpt lat="42.30119088029708" lon="13.257168315860657"><ele>1137.0</ele><time>2026-04-27T13:54:50.999Z</time></trkpt><trkpt lat="42.30114911247042" lon="13.257358638548641"><ele>1144.0</ele><time>2026-04-27T13:54:51.999Z</time></trkpt><trkpt lat="42.30109793028983" lon="13.257565572210444"><ele>1151.0</ele><time>2026-04-27T13:54:52.999Z</time></trkpt><trkpt lat="42.301067356612116" lon="13.25778518713885"><ele>1151.0</ele><time>2026-04-27T13:54:53.999Z</time></trkpt><trkpt lat="42.30104067602343" lon="13.258006684819485"><ele>1151.0</ele><time>2026-04-27T13:54:54.999Z</time></trkpt><trkpt lat="42.30101334509875" lon="13.258231242930858"><ele>1151.0</ele><time>2026-04-27T13:54:55.999Z</time></trkpt><trkpt lat="42.30098628976057" lon="13.258433879438762"><ele>1148.0</ele><time>2026-04-27T13:54:56.999Z</time></trkpt><trkpt lat="42.30097961399906" lon="13.258632308700678"><ele>1145.0</ele><time>2026-04-27T13:54:57.999Z</time></trkpt><trkpt lat="42.300960362086464" lon="13.258817814716204"><ele>1142.0</ele><time>2026-04-27T13:54:58.999Z</time></trkpt><trkpt lat="42.30095497947155" lon="13.259008104877974"><ele>1139.0</ele><time>2026-04-27T13:54:59.999Z</time></trkpt><trkpt lat="42.300962765439735" lon="13.259207559719936"><ele>1138.0</ele><time>2026-04-27T13:55:00.999Z</time></trkpt><trkpt lat="42.30097326946698" lon="13.25940540640782"><ele>1137.0</ele><time>2026-04-27T13:55:01.999Z</time></trkpt><trkpt lat="42.300976858980746" lon="13.259589184734287"><ele>1136.0</ele><time>2026-04-27T13:55:02.999Z</time></trkpt><trkpt lat="42.30098997059977" lon="13.259781250832937"><ele>1135.0</ele><time>2026-04-27T13:55:03.999Z</time></trkpt><trkpt lat="42.3010097468354" lon="13.259961893199456"><ele>1134.25</ele><time>2026-04-27T13:55:04.999Z</time></trkpt><trkpt lat="42.30104687425266" lon="13.260126575162127"><ele>1133.5</ele><time>2026-04-27T13:55:05.999Z</time></trkpt><trkpt lat="42.30108199151119" lon="13.260294579146409"><ele>1132.75</ele><time>2026-04-27T13:55:06.999Z</time></trkpt><trkpt lat="42.301111641184306" lon="13.26046839206514"><ele>1132.0</ele><time>2026-04-27T13:55:07.999Z</time></trkpt><trkpt lat="42.30113733893641" lon="13.260638089592305"><ele>1129.4</ele><time>2026-04-27T13:55:08.999Z</time></trkpt><trkpt lat="42.30115147705659" lon="13.260797004876897"><ele>1126.8000000000002</ele><time>2026-04-27T13:55:09.999Z</time></trkpt><trkpt lat="42.301137506557495" lon="13.26094487144944"><ele>1124.2</ele><time>2026-04-27T13:55:10.999Z</time></trkpt><trkpt lat="42.3010938315025" lon="13.261062007320763"><ele>1121.6000000000001</ele><time>2026-04-27T13:55:11.999Z</time></trkpt><trkpt lat="42.30102098220911" lon="13.261171949856248"><ele>1119.0</ele><time>2026-04-27T13:55:12.999Z</time></trkpt><trkpt lat="42.30091584781319" lon="13.261267250304618"><ele>1119.0</ele><time>2026-04-27T13:55:13.999Z</time></trkpt><trkpt lat="42.30080082807122" lon="13.261356090629686"><ele>1119.0</ele><time>2026-04-27T13:55:14.999Z</time></trkpt><trkpt lat="42.30068292860659" lon="13.261429916937926"><ele>1119.0</ele><time>2026-04-27T13:55:15.999Z</time></trkpt><trkpt lat="42.30056846037897" lon="13.261471000124093"><ele>1119.0</ele><time>2026-04-27T13:55:16.999Z</time></trkpt><trkpt lat="42.30046395942444" lon="13.26151222836591"><ele>1117.25</ele><time>2026-04-27T13:55:17.999Z</time></trkpt><trkpt lat="42.30036717702749" lon="13.261594028204378"><ele>1115.5</ele><time>2026-04-27T13:55:18.999Z</time></trkpt><trkpt lat="42.30028848925966" lon="13.2617238944808"><ele>1113.75</ele><time>2026-04-27T13:55:19.999Z</time></trkpt><trkpt lat="42.30022977864292" lon="13.261881462269937"><ele>1112.0</ele><time>2026-04-27T13:55:20.999Z</time></trkpt><trkpt lat="42.300184916731936" lon="13.262049281661588"><ele>1112.0</ele><time>2026-04-27T13:55:21.999Z</time></trkpt><trkpt lat="42.30012906683566" lon="13.262179296789077"><ele>1112.0</ele><time>2026-04-27T13:55:22.999Z</time></trkpt><trkpt lat="42.30003873933808" lon="13.262243585971857"><ele>1112.0</ele><time>2026-04-27T13:55:23.999Z</time></trkpt><trkpt lat="42.29993939469832" lon="13.262300383075656"><ele>1112.0</ele><time>2026-04-27T13:55:24.999Z</time></trkpt><trkpt lat="42.2998268443236" lon="13.262366242036526"><ele>1112.0</ele><time>2026-04-27T13:55:25.999Z</time></trkpt><trkpt lat="42.29970882964617" lon="13.262445224772339"><ele>1106.0</ele><time>2026-04-27T13:55:26.999Z</time></trkpt><trkpt lat="42.29960828914405" lon="13.26253942223073"><ele>1100.0</ele><time>2026-04-27T13:55:27.999Z</time></trkpt><trkpt lat="42.29953004979371" lon="13.262649742478215"><ele>1094.0</ele><time>2026-04-27T13:55:28.999Z</time></trkpt><trkpt lat="42.299439363599184" lon="13.26269396219288"><ele>1088.0</ele><time>2026-04-27T13:55:29.999Z</time></trkpt><trkpt lat="42.29935259545631" lon="13.262683618882216"><ele>1082.0</ele><time>2026-04-27T13:55:30.999Z</time></trkpt><trkpt lat="42.299271287275815" lon="13.262611863849255"><ele>1082.0</ele><time>2026-04-27T13:55:31.999Z</time></trkpt><trkpt lat="42.29920755513779" lon="13.2624904104494"><ele>1082.0</ele><time>2026-04-27T13:55:32.999Z</time></trkpt><trkpt lat="42.29916686987559" lon="13.262344518108671"><ele>1082.0</ele><time>2026-04-27T13:55:33.999Z</time></trkpt><trkpt lat="42.29913043862798" lon="13.262181018026805"><ele>1082.0</ele><time>2026-04-27T13:55:34.999Z</time></trkpt><trkpt lat="42.29909161205929" lon="13.262020319957537"><ele>1085.0</ele><time>2026-04-27T13:55:35.999Z</time></trkpt><trkpt lat="42.29904991062257" lon="13.26187124201847"><ele>1088.0</ele><time>2026-04-27T13:55:36.999Z</time></trkpt><trkpt lat="42.29901494518886" lon="13.261734410816405"><ele>1091.0</ele><time>2026-04-27T13:55:37.999Z</time></trkpt><trkpt lat="42.29897811434881" lon="13.261613744722988"><ele>1094.0</ele><time>2026-04-27T13:55:38.999Z</time></trkpt><trkpt lat="42.29891748468433" lon="13.261523479696677"><ele>1097.0</ele><time>2026-04-27T13:55:39.998Z</time></trkpt><trkpt lat="42.298844057027516" lon="13.261459294368965"><ele>1097.0</ele><time>2026-04-27T13:55:40.998Z</time></trkpt><trkpt lat="42.29874059616756" lon="13.261506510287365"><ele>1097.0</ele><time>2026-04-27T13:55:41.998Z</time></trkpt><trkpt lat="42.298653996556844" lon="13.261585713591254"><ele>1097.0</ele><time>2026-04-27T13:55:42.998Z</time></trkpt><trkpt lat="42.29857558796351" lon="13.261706940597925"><ele>1097.0</ele><time>2026-04-27T13:55:43.998Z</time></trkpt><trkpt lat="42.298481855810856" lon="13.261800147797572"><ele>1097.0</ele><time>2026-04-27T13:55:44.998Z</time></trkpt><trkpt lat="42.2983868731989" lon="13.2618816989103"><ele>1097.0</ele><time>2026-04-27T13:55:45.998Z</time></trkpt><trkpt lat="42.29828986517173" lon="13.261967615289683"><ele>1097.0</ele><time>2026-04-27T13:55:46.998Z</time></trkpt><trkpt lat="42.298172848310195" lon="13.261963784171803"><ele>1097.0</ele><time>2026-04-27T13:55:47.998Z</time></trkpt><trkpt lat="42.29806649753575" lon="13.262006224741206"><ele>1097.0</ele><time>2026-04-27T13:55:48.998Z</time></trkpt><trkpt lat="42.297967950500656" lon="13.262081811503997"><ele>1096.5</ele><time>2026-04-27T13:55:49.998Z</time></trkpt><trkpt lat="42.29789778974624" lon="13.262196171239552"><ele>1096.0</ele><time>2026-04-27T13:55:50.998Z</time></trkpt><trkpt lat="42.29786238471308" lon="13.262328205215345"><ele>1095.5</ele><time>2026-04-27T13:55:51.998Z</time></trkpt><trkpt lat="42.29787194198912" lon="13.26247800512153"><ele>1095.0</ele><time>2026-04-27T13:55:52.998Z</time></trkpt><trkpt lat="42.29788136753209" lon="13.262650276297242"><ele>1095.0</ele><time>2026-04-27T13:55:53.998Z</time></trkpt><trkpt lat="42.29783808936881" lon="13.262816909532004"><ele>1095.0</ele><time>2026-04-27T13:55:54.998Z</time></trkpt><trkpt lat="42.29778853085065" lon="13.26297588372219"><ele>1095.0</ele><time>2026-04-27T13:55:55.998Z</time></trkpt><trkpt lat="42.2977274978787" lon="13.263114295242929"><ele>1095.0</ele><time>2026-04-27T13:55:56.998Z</time></trkpt><trkpt lat="42.297666791964396" lon="13.263211187607572"><ele>1093.4</ele><time>2026-04-27T13:55:57.998Z</time></trkpt><trkpt lat="42.297575538648026" lon="13.263249745148437"><ele>1091.8</ele><time>2026-04-27T13:55:58.998Z</time></trkpt><trkpt lat="42.29746929443497" lon="13.263252754820254"><ele>1090.2</ele><time>2026-04-27T13:55:59.998Z</time></trkpt><trkpt lat="42.29735897104386" lon="13.263234820102651"><ele>1088.6</ele><time>2026-04-27T13:56:00.998Z</time></trkpt><trkpt lat="42.29725734793199" lon="13.263203810863205"><ele>1087.0</ele><time>2026-04-27T13:56:01.998Z</time></trkpt><trkpt lat="42.29716335706753" lon="13.263170667015366"><ele>1087.0</ele><time>2026-04-27T13:56:02.998Z</time></trkpt><trkpt lat="42.2970693859986" lon="13.26313982066346"><ele>1087.0</ele><time>2026-04-27T13:56:03.998Z</time></trkpt><trkpt lat="42.29696372885619" lon="13.263179917452636"><ele>1087.0</ele><time>2026-04-27T13:56:04.998Z</time></trkpt><trkpt lat="42.29687650924319" lon="13.263298701411093"><ele>1087.0</ele><time>2026-04-27T13:56:05.998Z</time></trkpt><trkpt lat="42.29680062985216" lon="13.263425876113587"><ele>1087.0</ele><time>2026-04-27T13:56:06.998Z</time></trkpt><trkpt lat="42.29673531423157" lon="13.26356333301496"><ele>1087.0</ele><time>2026-04-27T13:56:07.998Z</time></trkpt><trkpt lat="42.29673285661309" lon="13.26374691569745"><ele>1087.0</ele><time>2026-04-27T13:56:08.998Z</time></trkpt><trkpt lat="42.29675484782638" lon="13.263906730289607"><ele>1087.0</ele><time>2026-04-27T13:56:09.998Z</time></trkpt><trkpt lat="42.29676316731712" lon="13.264061019395074"><ele>1083.8</ele><time>2026-04-27T13:56:10.998Z</time></trkpt><trkpt lat="42.296750596623255" lon="13.26420202622874"><ele>1080.6</ele><time>2026-04-27T13:56:11.998Z</time></trkpt><trkpt lat="42.29668604692272" lon="13.26432154054729"><ele>1077.3999999999999</ele><time>2026-04-27T13:56:12.998Z</time></trkpt><trkpt lat="42.29659101790753" lon="13.264410662004153"><ele>1074.2</ele><time>2026-04-27T13:56:13.998Z</time></trkpt><trkpt lat="42.296513386819306" lon="13.264512892282154"><ele>1071.0</ele><time>2026-04-27T13:56:14.998Z</time></trkpt><trkpt lat="42.296454944101995" lon="13.26464859003268"><ele>1068.0</ele><time>2026-04-27T13:56:15.998Z</time></trkpt><trkpt lat="42.29646541928292" lon="13.264824938885344"><ele>1065.0</ele><time>2026-04-27T13:56:16.998Z</time></trkpt><trkpt lat="42.296475550746074" lon="13.264987485004351"><ele>1062.0</ele><time>2026-04-27T13:56:17.998Z</time></trkpt><trkpt lat="42.29647173306145" lon="13.265119284483568"><ele>1059.0</ele><time>2026-04-27T13:56:19Z</time></trkpt><trkpt lat="42.296439357448605" lon="13.265219405539723"><ele>1056.0</ele><time>2026-04-27T13:56:20Z</time></trkpt><trkpt lat="42.296467434312746" lon="13.265341890639268"><ele>1056.0</ele><time>2026-04-27T13:56:21Z</time></trkpt><trkpt lat="42.296460181791275" lon="13.265445412402157"><ele>1056.0</ele><time>2026-04-27T13:56:22Z</time></trkpt><trkpt lat="42.29643262275626" lon="13.265554305173588"><ele>1056.0</ele><time>2026-04-27T13:56:23Z</time></trkpt><trkpt lat="42.296394511636734" lon="13.265676955271559"><ele>1056.0</ele><time>2026-04-27T13:56:24Z</time></trkpt><trkpt lat="42.29635724418819" lon="13.265799357988529"><ele>1056.0</ele><time>2026-04-27T13:56:25Z</time></trkpt><trkpt lat="42.29632342808184" lon="13.265907401732717"><ele>1056.0</ele><time>2026-04-27T13:56:26Z</time></trkpt><trkpt lat="42.29629614079636" lon="13.265998614431558"><ele>1054.0</ele><time>2026-04-27T13:56:27Z</time></trkpt><trkpt lat="42.296315938158834" lon="13.266141660276663"><ele>1052.0</ele><time>2026-04-27T13:56:29Z</time></trkpt><trkpt lat="42.296444836492256" lon="13.266139057953849"><ele>1050.0</ele><time>2026-04-27T13:56:31Z</time></trkpt><trkpt lat="42.296525560718756" lon="13.266077570561851"><ele>1048.0</ele><time>2026-04-27T13:56:32Z</time></trkpt><trkpt lat="42.29661709180823" lon="13.26602445219819"><ele>1046.0</ele><time>2026-04-27T13:56:33Z</time></trkpt><trkpt lat="42.2967076818534" lon="13.265981743932604"><ele>1046.0</ele><time>2026-04-27T13:56:34Z</time></trkpt><trkpt lat="42.29679786007678" lon="13.265956178209517"><ele>1046.0</ele><time>2026-04-27T13:56:35Z</time></trkpt><trkpt lat="42.29688745976581" lon="13.265945510574825"><ele>1046.0</ele><time>2026-04-27T13:56:36Z</time></trkpt><trkpt lat="42.29697550416864" lon="13.265950308177105"><ele>1046.0</ele><time>2026-04-27T13:56:37Z</time></trkpt><trkpt lat="42.297052079508184" lon="13.265992400949411"><ele>1046.0</ele><time>2026-04-27T13:56:38Z</time></trkpt><trkpt lat="42.29712016876137" lon="13.266059726219236"><ele>1046.0</ele><time>2026-04-27T13:56:39Z</time></trkpt><trkpt lat="42.29716907440484" lon="13.26615600715388"><ele>1046.0</ele><time>2026-04-27T13:56:40Z</time></trkpt><trkpt lat="42.29718884083259" lon="13.2662608472186"><ele>1046.0</ele><time>2026-04-27T13:56:40.999Z</time></trkpt><trkpt lat="42.29716707797509" lon="13.26634989012929"><ele>1046.0</ele><time>2026-04-27T13:56:41.999Z</time></trkpt><trkpt lat="42.297104936578705" lon="13.266395357329605"><ele>1046.0</ele><time>2026-04-27T13:56:42.999Z</time></trkpt><trkpt lat="42.29701170867049" lon="13.266405099241107"><ele>1046.0</ele><time>2026-04-27T13:56:43.999Z</time></trkpt><trkpt lat="42.296912953232805" lon="13.266408183274784"><ele>1046.0</ele><time>2026-04-27T13:56:44.999Z</time></trkpt><trkpt lat="42.29681834394968" lon="13.266474911639754"><ele>1043.0</ele><time>2026-04-27T13:56:45.999Z</time></trkpt><trkpt lat="42.296770079140025" lon="13.266629868351012"><ele>1040.0</ele><time>2026-04-27T13:56:46.999Z</time></trkpt><trkpt lat="42.29672318116854" lon="13.266749973298289"><ele>1037.0</ele><time>2026-04-27T13:56:47.999Z</time></trkpt><trkpt lat="42.29667011182096" lon="13.26688044048751"><ele>1034.0</ele><time>2026-04-27T13:56:48.999Z</time></trkpt><trkpt lat="42.29661617508934" lon="13.267007147692969"><ele>1031.0</ele><time>2026-04-27T13:56:49.999Z</time></trkpt><trkpt lat="42.2965603925228" lon="13.267136437236845"><ele>1031.0</ele><time>2026-04-27T13:56:50.999Z</time></trkpt><trkpt lat="42.296507946083466" lon="13.267269248275813"><ele>1031.0</ele><time>2026-04-27T13:56:51.999Z</time></trkpt><trkpt lat="42.2964576662702" lon="13.267413390006912"><ele>1031.0</ele><time>2026-04-27T13:56:52.999Z</time></trkpt><trkpt lat="42.29639529714028" lon="13.267567615082482"><ele>1031.0</ele><time>2026-04-27T13:56:53.999Z</time></trkpt><trkpt lat="42.29635227504596" lon="13.267745323822595"><ele>1033.75</ele><time>2026-04-27T13:56:54.999Z</time></trkpt><trkpt lat="42.296323978634724" lon="13.267928682716219"><ele>1036.5</ele><time>2026-04-27T13:56:55.999Z</time></trkpt><trkpt lat="42.296324017811024" lon="13.26811905996236"><ele>1039.25</ele><time>2026-04-27T13:56:56.999Z</time></trkpt><trkpt lat="42.29630610871317" lon="13.268318913833271"><ele>1042.0</ele><time>2026-04-27T13:56:57.999Z</time></trkpt><trkpt lat="42.29627085456497" lon="13.268520752124639"><ele>1036.25</ele><time>2026-04-27T13:56:58.999Z</time></trkpt><trkpt lat="42.29621681099736" lon="13.268717664619233"><ele>1030.5</ele><time>2026-04-27T13:56:59.999Z</time></trkpt><trkpt lat="42.29615357943787" lon="13.268899906507615"><ele>1024.75</ele><time>2026-04-27T13:57:00.999Z</time></trkpt><trkpt lat="42.29608444082145" lon="13.26906651016049"><ele>1019.0</ele><time>2026-04-27T13:57:01.999Z</time></trkpt><trkpt lat="42.2960223651845" lon="13.269202708382455"><ele>1016.1666666666667</ele><time>2026-04-27T13:57:02.999Z</time></trkpt><trkpt lat="42.29596973916019" lon="13.269310052997975"><ele>1013.3333333333334</ele><time>2026-04-27T13:57:03.999Z</time></trkpt><trkpt lat="42.29593716999293" lon="13.26941517060728"><ele>1010.5</ele><time>2026-04-27T13:57:04.999Z</time></trkpt><trkpt lat="42.29593083624848" lon="13.269512070550638"><ele>1007.6666666666667</ele><time>2026-04-27T13:57:05.999Z</time></trkpt><trkpt lat="42.295963004122605" lon="13.269593634467537"><ele>1004.8333333333334</ele><time>2026-04-27T13:57:06.999Z</time></trkpt><trkpt lat="42.29606670290174" lon="13.269574113164147"><ele>1002.0</ele><time>2026-04-27T13:57:07.999Z</time></trkpt><trkpt lat="42.29615500089173" lon="13.269523421910213"><ele>1002.0</ele><time>2026-04-27T13:57:08.999Z</time></trkpt><trkpt lat="42.296246826086225" lon="13.269428196049246"><ele>1002.0</ele><time>2026-04-27T13:57:09.999Z</time></trkpt><trkpt lat="42.296347567643174" lon="13.269336135570528"><ele>1002.0</ele><time>2026-04-27T13:57:10.999Z</time></trkpt><trkpt lat="42.29645749756578" lon="13.269269854916496"><ele>1002.0</ele><time>2026-04-27T13:57:11.999Z</time></trkpt><trkpt lat="42.2965729057908" lon="13.269206210580915"><ele>998.3333333333334</ele><time>2026-04-27T13:57:12.999Z</time></trkpt><trkpt lat="42.29667151961717" lon="13.269166356222557"><ele>994.6666666666667</ele><time>2026-04-27T13:57:13.999Z</time></trkpt><trkpt lat="42.29675313233876" lon="13.269164511487508"><ele>991.0</ele><time>2026-04-27T13:57:14.999Z</time></trkpt><trkpt lat="42.296816849475114" lon="13.269200040275186"><ele>987.3333333333334</ele><time>2026-04-27T13:57:15.999Z</time></trkpt><trkpt lat="42.29685606398568" lon="13.269286956528868"><ele>983.6666666666667</ele><time>2026-04-27T13:57:16.999Z</time></trkpt><trkpt lat="42.29687918463844" lon="13.269412937042233"><ele>980.0</ele><time>2026-04-27T13:57:17.999Z</time></trkpt><trkpt lat="42.296899299664624" lon="13.269560346627935"><ele>980.0</ele><time>2026-04-27T13:57:18.999Z</time></trkpt><trkpt lat="42.29693134565008" lon="13.269708716171005"><ele>980.0</ele><time>2026-04-27T13:57:19.999Z</time></trkpt><trkpt lat="42.296961908752785" lon="13.269872163685848"><ele>980.0</ele><time>2026-04-27T13:57:20.999Z</time></trkpt><trkpt lat="42.296979741181836" lon="13.270046405064413"><ele>980.0</ele><time>2026-04-27T13:57:21.999Z</time></trkpt><trkpt lat="42.29699878753018" lon="13.270218736091786"><ele>978.75</ele><time>2026-04-27T13:57:22.999Z</time></trkpt><trkpt lat="42.2970185271542" lon="13.270383670175603"><ele>977.5</ele><time>2026-04-27T13:57:23.999Z</time></trkpt><trkpt lat="42.29704702502328" lon="13.270558830145061"><ele>976.25</ele><time>2026-04-27T13:57:24.999Z</time></trkpt><trkpt lat="42.297084463122346" lon="13.270736236108863"><ele>975.0</ele><time>2026-04-27T13:57:25.999Z</time></trkpt><trkpt lat="42.29713338322717" lon="13.270904314237983"><ele>972.25</ele><time>2026-04-27T13:57:26.999Z</time></trkpt><trkpt lat="42.297189805548776" lon="13.271071812439516"><ele>969.5</ele><time>2026-04-27T13:57:27.999Z</time></trkpt><trkpt lat="42.297257505587545" lon="13.2712359435278"><ele>966.75</ele><time>2026-04-27T13:57:28.999Z</time></trkpt><trkpt lat="42.29733788955614" lon="13.271389073940597"><ele>964.0</ele><time>2026-04-27T13:57:29.999Z</time></trkpt><trkpt lat="42.29743623971433" lon="13.271532327001035"><ele>960.0</ele><time>2026-04-27T13:57:30.999Z</time></trkpt><trkpt lat="42.29754868068908" lon="13.271661970265232"><ele>956.0</ele><time>2026-04-27T13:57:31.999Z</time></trkpt><trkpt lat="42.29764854838082" lon="13.271774812555934"><ele>952.0</ele><time>2026-04-27T13:57:32.999Z</time></trkpt><trkpt lat="42.29771534004163" lon="13.271846514794376"><ele>948.0</ele><time>2026-04-27T13:57:33.999Z</time></trkpt><trkpt lat="42.297794678411414" lon="13.271920311899342"><ele>948.0</ele><time>2026-04-27T13:57:35.999Z</time></trkpt><trkpt lat="42.297717531949935" lon="13.271845271428441"><ele>948.0</ele><time>2026-04-27T13:57:43.998Z</time></trkpt><trkpt lat="42.297646753948136" lon="13.271773282260096"><ele>948.0</ele><time>2026-04-27T13:57:44.998Z</time></trkpt><trkpt lat="42.29759367438328" lon="13.271703124047823"><ele>948.0</ele><time>2026-04-27T13:57:45.998Z</time></trkpt><trkpt lat="42.29753106200232" lon="13.271624671497753"><ele>948.0</ele><time>2026-04-27T13:57:46.998Z</time></trkpt><trkpt lat="42.29746413786832" lon="13.271573933110666"><ele>948.0</ele><time>2026-04-27T13:57:47.998Z</time></trkpt><trkpt lat="42.297383521451735" lon="13.271483499773456"><ele>948.1666666666666</ele><time>2026-04-27T13:57:48.998Z</time></trkpt><trkpt lat="42.29730304568769" lon="13.271324569739184"><ele>948.3333333333333</ele><time>2026-04-27T13:57:49.998Z</time></trkpt><trkpt lat="42.29725852450637" lon="13.27122937491973"><ele>948.5</ele><time>2026-04-27T13:57:50.998Z</time></trkpt><trkpt lat="42.29722104999296" lon="13.271130348933148"><ele>948.6666666666666</ele><time>2026-04-27T13:57:51.998Z</time></trkpt><trkpt lat="42.29719460801562" lon="13.27103736432378"><ele>948.8333333333333</ele><time>2026-04-27T13:57:52.998Z</time></trkpt><trkpt lat="42.297142038099544" lon="13.270980375876311"><ele>949.0</ele><time>2026-04-27T13:57:54.998Z</time></trkpt><trkpt lat="42.29714244662726" lon="13.271110362197925"><ele>951.4999999999999</ele><time>2026-04-27T13:59:14Z</time></trkpt><trkpt lat="42.29716509124288" lon="13.271196494379794"><ele>954.0</ele><time>2026-04-27T13:59:16Z</time></trkpt><trkpt lat="42.297151187610915" lon="13.271291391491435"><ele>956.5</ele><time>2026-04-27T13:59:21Z</time></trkpt><trkpt lat="42.29709684593058" lon="13.27139031371769"><ele>959.0</ele><time>2026-04-27T13:59:31Z</time></trkpt><trkpt lat="42.2971226436319" lon="13.27130115440729"><ele>961.4999999999999</ele><time>2026-04-27T13:59:35Z</time></trkpt><trkpt lat="42.297145713228126" lon="13.271177535896447"><ele>964.0</ele><time>2026-04-27T13:59:37Z</time></trkpt><trkpt lat="42.29713350875454" lon="13.271072934949496"><ele>963.9999999999999</ele><time>2026-04-27T13:59:39Z</time></trkpt><trkpt lat="42.29713818834093" lon="13.270984548617024"><ele>964.0</ele><time>2026-04-27T13:59:41.999Z</time></trkpt><trkpt lat="42.29711095778083" lon="13.270839660216389"><ele>964.0</ele><time>2026-04-27T13:59:43.999Z</time></trkpt><trkpt lat="42.29706135103696" lon="13.270759964632834"><ele>964.0</ele><time>2026-04-27T13:59:45.999Z</time></trkpt><trkpt lat="42.29701687605089" lon="13.270834111091736"><ele>963.9999999999999</ele><time>2026-04-27T13:59:47.999Z</time></trkpt><trkpt lat="42.29706369891736" lon="13.270962041135757"><ele>964.0</ele><time>2026-04-27T13:59:49.999Z</time></trkpt><trkpt lat="42.29707163110051" lon="13.271061823372428"><ele>963.9999999999999</ele><time>2026-04-27T13:59:51.999Z</time></trkpt><trkpt lat="42.29704283053142" lon="13.271176964450216"><ele>964.0</ele><time>2026-04-27T13:59:53.999Z</time></trkpt><trkpt lat="42.29699249120611" lon="13.271292854657462"><ele>964.0</ele><time>2026-04-27T13:59:55.999Z</time></trkpt><trkpt lat="42.29691982183312" lon="13.271391384441701"><ele>964.0</ele><time>2026-04-27T13:59:57.999Z</time></trkpt><trkpt lat="42.29686872022272" lon="13.271465524324068"><ele>963.9999999999999</ele><time>2026-04-27T13:59:58.999Z</time></trkpt><trkpt lat="42.29681342080603" lon="13.271528733237519"><ele>964.0</ele><time>2026-04-27T13:59:59.999Z</time></trkpt><trkpt lat="42.296757418688124" lon="13.27166008201509"><ele>963.2</ele><time>2026-04-27T14:00:01.999Z</time></trkpt><trkpt lat="42.29675510170946" lon="13.271783665010025"><ele>962.4000000000001</ele><time>2026-04-27T14:00:02.999Z</time></trkpt><trkpt lat="42.296731270414234" lon="13.271905633781916"><ele>961.6</ele><time>2026-04-27T14:00:03.999Z</time></trkpt><trkpt lat="42.296714696458466" lon="13.272045020941496"><ele>960.8</ele><time>2026-04-27T14:00:04.999Z</time></trkpt><trkpt lat="42.296695818209166" lon="13.27218422273067"><ele>960.0</ele><time>2026-04-27T14:00:05.999Z</time></trkpt><trkpt lat="42.2966593181598" lon="13.272311823859864"><ele>959.1666666666666</ele><time>2026-04-27T14:00:06.999Z</time></trkpt><trkpt lat="42.29664004241173" lon="13.27239583620037"><ele>958.3333333333333</ele><time>2026-04-27T14:00:07.999Z</time></trkpt><trkpt lat="42.29668131860168" lon="13.272541463369976"><ele>957.5</ele><time>2026-04-27T14:00:09.999Z</time></trkpt><trkpt lat="42.29670884268454" lon="13.27266775790137"><ele>956.6666666666666</ele><time>2026-04-27T14:00:10.999Z</time></trkpt><trkpt lat="42.29673767906108" lon="13.272773132439823"><ele>955.8333333333333</ele><time>2026-04-27T14:00:11.999Z</time></trkpt><trkpt lat="42.296746381439476" lon="13.27288318482794"><ele>955.0</ele><time>2026-04-27T14:00:12.999Z</time></trkpt><trkpt lat="42.2967614901219" lon="13.272991592569548"><ele>954.4</ele><time>2026-04-27T14:00:13.999Z</time></trkpt><trkpt lat="42.29676241576961" lon="13.273154416453053"><ele>953.8</ele><time>2026-04-27T14:00:15.999Z</time></trkpt><trkpt lat="42.2967465898589" lon="13.273282713556567"><ele>953.2</ele><time>2026-04-27T14:00:17.999Z</time></trkpt><trkpt lat="42.296746477116514" lon="13.273386876713774"><ele>952.6</ele><time>2026-04-27T14:00:19.999Z</time></trkpt><trkpt lat="42.29674451319222" lon="13.27349437915022"><ele>952.0</ele><time>2026-04-27T14:00:22.999Z</time></trkpt><trkpt lat="42.296722641097695" lon="13.273601251056693"><ele>951.9999999999999</ele><time>2026-04-27T14:00:24.999Z</time></trkpt><trkpt lat="42.29667340921457" lon="13.273665382457592"><ele>952.0</ele><time>2026-04-27T14:00:26.999Z</time></trkpt><trkpt lat="42.296591343485126" lon="13.273767025797135"><ele>952.0</ele><time>2026-04-27T14:00:28.999Z</time></trkpt><trkpt lat="42.29650850305197" lon="13.273880124504116"><ele>952.0</ele><time>2026-04-27T14:00:31.001Z</time></trkpt><trkpt lat="42.29645877353651" lon="13.273962913353039"><ele>951.9999999999999</ele><time>2026-04-27T14:00:32Z</time></trkpt><trkpt lat="42.2964191340721" lon="13.274042231259203"><ele>952.0</ele><time>2026-04-27T14:00:33Z</time></trkpt><trkpt lat="42.296389550511606" lon="13.27411975231248"><ele>954.6666666666666</ele><time>2026-04-27T14:00:34.001Z</time></trkpt><trkpt lat="42.29635040475111" lon="13.274207591179849"><ele>957.3333333333333</ele><time>2026-04-27T14:00:35Z</time></trkpt><trkpt lat="42.29630808749553" lon="13.274275631729012"><ele>960.0</ele><time>2026-04-27T14:00:36Z</time></trkpt><trkpt lat="42.296266602733056" lon="13.274361933144464"><ele>962.6666666666667</ele><time>2026-04-27T14:00:37Z</time></trkpt><trkpt lat="42.296239798532476" lon="13.274475118302485"><ele>965.3333333333334</ele><time>2026-04-27T14:00:38Z</time></trkpt><trkpt lat="42.296207551190086" lon="13.274573580894227"><ele>968.0</ele><time>2026-04-27T14:00:39Z</time></trkpt><trkpt lat="42.2961842078381" lon="13.274669179877426"><ele>968.0</ele><time>2026-04-27T14:00:40Z</time></trkpt><trkpt lat="42.29616746070212" lon="13.27476309025592"><ele>968.0</ele><time>2026-04-27T14:00:41Z</time></trkpt><trkpt lat="42.296121102208275" lon="13.274902594891293"><ele>968.0</ele><time>2026-04-27T14:00:43Z</time></trkpt><trkpt lat="42.29608660232398" lon="13.275014749961807"><ele>968.0</ele><time>2026-04-27T14:00:45Z</time></trkpt><trkpt lat="42.29604308763891" lon="13.275156972459099"><ele>968.0</ele><time>2026-04-27T14:00:47Z</time></trkpt><trkpt lat="42.295972241242694" lon="13.275282844270313"><ele>963.5</ele><time>2026-04-27T14:00:49Z</time></trkpt><trkpt lat="42.29590029903775" lon="13.27539197863666"><ele>959.0</ele><time>2026-04-27T14:00:51Z</time></trkpt><trkpt lat="42.29583120033208" lon="13.27552136231218"><ele>954.5</ele><time>2026-04-27T14:00:53Z</time></trkpt><trkpt lat="42.29579208571641" lon="13.27566597848999"><ele>950.0</ele><time>2026-04-27T14:00:55Z</time></trkpt><trkpt lat="42.295707182918804" lon="13.275760694165161"><ele>948.4</ele><time>2026-04-27T14:00:57Z</time></trkpt><trkpt lat="42.29562172581835" lon="13.275855836255557"><ele>946.8</ele><time>2026-04-27T14:00:59Z</time></trkpt><trkpt lat="42.29553387573219" lon="13.275957182355269"><ele>945.2</ele><time>2026-04-27T14:01:01Z</time></trkpt><trkpt lat="42.29546083448323" lon="13.276086328908598"><ele>943.6</ele><time>2026-04-27T14:01:03Z</time></trkpt><trkpt lat="42.29541732052555" lon="13.276208669819395"><ele>942.0</ele><time>2026-04-27T14:01:05Z</time></trkpt><trkpt lat="42.29538806626632" lon="13.276340779272813"><ele>940.4000000000001</ele><time>2026-04-27T14:01:07Z</time></trkpt><trkpt lat="42.29535131438068" lon="13.276446435871781"><ele>938.8000000000001</ele><time>2026-04-27T14:01:09Z</time></trkpt><trkpt lat="42.29532180279255" lon="13.276561237803003"><ele>937.2</ele><time>2026-04-27T14:01:11Z</time></trkpt><trkpt lat="42.29529170629181" lon="13.276682890900682"><ele>935.6</ele><time>2026-04-27T14:01:13Z</time></trkpt><trkpt lat="42.295241468924836" lon="13.276785291917742"><ele>934.0</ele><time>2026-04-27T14:01:15Z</time></trkpt><trkpt lat="42.295189942460496" lon="13.276892076237731"><ele>933.9999999999999</ele><time>2026-04-27T14:01:17Z</time></trkpt><trkpt lat="42.29514937099175" lon="13.276984370257962"><ele>934.0</ele><time>2026-04-27T14:01:19Z</time></trkpt><trkpt lat="42.29510918916146" lon="13.27707323996787"><ele>934.0</ele><time>2026-04-27T14:01:21Z</time></trkpt><trkpt lat="42.29508916549909" lon="13.277166368679984"><ele>934.0</ele><time>2026-04-27T14:01:23Z</time></trkpt><trkpt lat="42.29511950183319" lon="13.277259244498106"><ele>933.9999999999999</ele><time>2026-04-27T14:01:26Z</time></trkpt><trkpt lat="42.29505335400701" lon="13.277345188414268"><ele>934.0</ele><time>2026-04-27T14:02:15.999Z</time></trkpt><trkpt lat="42.295001097831815" lon="13.277442899691334"><ele>931.8000000000001</ele><time>2026-04-27T14:02:17.999Z</time></trkpt><trkpt lat="42.294978463141625" lon="13.277522717155298"><ele>929.6000000000001</ele><time>2026-04-27T14:02:18.999Z</time></trkpt><trkpt lat="42.29497893871883" lon="13.277675868463277"><ele>927.4</ele><time>2026-04-27T14:02:20.999Z</time></trkpt><trkpt lat="42.29496908428593" lon="13.277832224679598"><ele>925.2</ele><time>2026-04-27T14:02:22.999Z</time></trkpt><trkpt lat="42.29497851715678" lon="13.278015948326757"><ele>923.0</ele><time>2026-04-27T14:02:24.999Z</time></trkpt><trkpt lat="42.294982739325214" lon="13.278112767011757"><ele>920.4</ele><time>2026-04-27T14:02:25.999Z</time></trkpt><trkpt lat="42.294987443015216" lon="13.278227828937615"><ele>917.8</ele><time>2026-04-27T14:02:26.999Z</time></trkpt><trkpt lat="42.29501957938271" lon="13.278311765024739"><ele>915.2</ele><time>2026-04-27T14:02:27.999Z</time></trkpt><trkpt lat="42.295045318234976" lon="13.278453055045626"><ele>912.6</ele><time>2026-04-27T14:02:29.999Z</time></trkpt><trkpt lat="42.29512491257191" lon="13.278589333972494"><ele>910.0</ele><time>2026-04-27T14:02:31.999Z</time></trkpt><trkpt lat="42.295169320532445" lon="13.278654855768433"><ele>909.9999999999999</ele><time>2026-04-27T14:02:32.999Z</time></trkpt><trkpt lat="42.295217376120895" lon="13.278712885457843"><ele>910.0</ele><time>2026-04-27T14:02:33.999Z</time></trkpt><trkpt lat="42.29528467807604" lon="13.27879229710781"><ele>910.0</ele><time>2026-04-27T14:02:36Z</time></trkpt><trkpt lat="42.295346355752955" lon="13.278887904352509"><ele>910.0</ele><time>2026-04-27T14:02:38Z</time></trkpt><trkpt lat="42.29536168708522" lon="13.278983899442673"><ele>909.9999999999999</ele><time>2026-04-27T14:02:39Z</time></trkpt><trkpt lat="42.29531915962072" lon="13.279064584118306"><ele>910.0</ele><time>2026-04-27T14:02:40Z</time></trkpt><trkpt lat="42.29528128729111" lon="13.279165264683808"><ele>907.6666666666666</ele><time>2026-04-27T14:02:41Z</time></trkpt><trkpt lat="42.295233372158755" lon="13.279260863323085"><ele>905.3333333333333</ele><time>2026-04-27T14:02:42Z</time></trkpt><trkpt lat="42.29520029726032" lon="13.279370377861976"><ele>903.0</ele><time>2026-04-27T14:02:43Z</time></trkpt><trkpt lat="42.29516040030345" lon="13.279474903238679"><ele>900.6666666666667</ele><time>2026-04-27T14:02:44Z</time></trkpt><trkpt lat="42.29512796400275" lon="13.279588824583966"><ele>898.3333333333334</ele><time>2026-04-27T14:02:45Z</time></trkpt><trkpt lat="42.295113094689306" lon="13.279697610138468"><ele>896.0</ele><time>2026-04-27T14:02:46Z</time></trkpt><trkpt lat="42.29511295347614" lon="13.279819900226018"><ele>896.0000000000001</ele><time>2026-04-27T14:02:47Z</time></trkpt><trkpt lat="42.295151073181714" lon="13.279903367246746"><ele>896.0</ele><time>2026-04-27T14:02:48Z</time></trkpt><trkpt lat="42.295198636853534" lon="13.279998891743245"><ele>896.0</ele><time>2026-04-27T14:02:49Z</time></trkpt><trkpt lat="42.295265708892266" lon="13.28007847743584"><ele>896.0</ele><time>2026-04-27T14:02:50Z</time></trkpt><trkpt lat="42.295350505646596" lon="13.280130274356692"><ele>896.0000000000001</ele><time>2026-04-27T14:02:51Z</time></trkpt><trkpt lat="42.2954079123294" lon="13.280181919883104"><ele>896.0</ele><time>2026-04-27T14:02:52Z</time></trkpt><trkpt lat="42.29545501365035" lon="13.28024064515261"><ele>896.0000000000001</ele><time>2026-04-27T14:02:53Z</time></trkpt><trkpt lat="42.295515302067166" lon="13.280310296356134"><ele>896.0</ele><time>2026-04-27T14:02:54Z</time></trkpt><trkpt lat="42.295586903904606" lon="13.280400126627951"><ele>896.0</ele><time>2026-04-27T14:02:55Z</time></trkpt><trkpt lat="42.2956519476055" lon="13.28045854391383"><ele>896.0</ele><time>2026-04-27T14:02:56Z</time></trkpt><trkpt lat="42.29573694648281" lon="13.280497356305641"><ele>896.0000000000001</ele><time>2026-04-27T14:02:57Z</time></trkpt><trkpt lat="42.29580428531726" lon="13.28054470060525"><ele>896.0</ele><time>2026-04-27T14:02:58Z</time></trkpt><trkpt lat="42.29586671910658" lon="13.2805980550815"><ele>891.4</ele><time>2026-04-27T14:02:59Z</time></trkpt><trkpt lat="42.295966387390834" lon="13.28071425110081"><ele>886.8</ele><time>2026-04-27T14:03:01Z</time></trkpt><trkpt lat="42.29601778631341" lon="13.280766131473584"><ele>882.1999999999999</ele><time>2026-04-27T14:03:02Z</time></trkpt><trkpt lat="42.29612567176306" lon="13.280855695548315"><ele>877.5999999999999</ele><time>2026-04-27T14:03:04Z</time></trkpt><trkpt lat="42.29617743465056" lon="13.280909242166734"><ele>873.0</ele><time>2026-04-27T14:03:05Z</time></trkpt><trkpt lat="42.29622624418932" lon="13.280968340539337"><ele>873.0</ele><time>2026-04-27T14:03:06Z</time></trkpt><trkpt lat="42.29628522719386" lon="13.281046611956933"><ele>873.0</ele><time>2026-04-27T14:03:07Z</time></trkpt><trkpt lat="42.296351513879145" lon="13.28116166093643"><ele>873.0</ele><time>2026-04-27T14:03:08Z</time></trkpt><trkpt lat="42.29641382407713" lon="13.28125823006567"><ele>873.0</ele><time>2026-04-27T14:03:09Z</time></trkpt><trkpt lat="42.29649524690073" lon="13.281369455159767"><ele>873.0</ele><time>2026-04-27T14:03:10Z</time></trkpt><trkpt lat="42.29655483886767" lon="13.28147907288582"><ele>869.5999999999999</ele><time>2026-04-27T14:03:11Z</time></trkpt><trkpt lat="42.29661969032572" lon="13.281574420264464"><ele>866.1999999999999</ele><time>2026-04-27T14:03:12Z</time></trkpt><trkpt lat="42.29669895263731" lon="13.281624682889547"><ele>862.8</ele><time>2026-04-27T14:03:13Z</time></trkpt><trkpt lat="42.296791214328934" lon="13.281653639203535"><ele>859.4</ele><time>2026-04-27T14:03:14Z</time></trkpt><trkpt lat="42.296872126134076" lon="13.281711455144162"><ele>856.0</ele><time>2026-04-27T14:03:15Z</time></trkpt><trkpt lat="42.296948359816476" lon="13.281744615117887"><ele>855.9999999999999</ele><time>2026-04-27T14:03:16Z</time></trkpt><trkpt lat="42.29701552736073" lon="13.28177383139744"><ele>856.0</ele><time>2026-04-27T14:03:17Z</time></trkpt><trkpt lat="42.297078291328035" lon="13.281801132233715"><ele>856.0</ele><time>2026-04-27T14:03:18Z</time></trkpt><trkpt lat="42.29715443266145" lon="13.281820441876423"><ele>856.0</ele><time>2026-04-27T14:03:19Z</time></trkpt><trkpt lat="42.297232145772526" lon="13.281845726419787"><ele>855.9999999999999</ele><time>2026-04-27T14:03:20Z</time></trkpt><trkpt lat="42.29732095398113" lon="13.281844546687914"><ele>856.0</ele><time>2026-04-27T14:03:21Z</time></trkpt><trkpt lat="42.29740295595895" lon="13.281817274898112"><ele>855.1666666666666</ele><time>2026-04-27T14:03:22Z</time></trkpt><trkpt lat="42.29748532561865" lon="13.281783790697627"><ele>854.3333333333333</ele><time>2026-04-27T14:03:23Z</time></trkpt><trkpt lat="42.297576366863304" lon="13.28174887207429"><ele>853.5</ele><time>2026-04-27T14:03:24Z</time></trkpt><trkpt lat="42.29766881343436" lon="13.28172180499642"><ele>852.6666666666667</ele><time>2026-04-27T14:03:25Z</time></trkpt><trkpt lat="42.2977498881977" lon="13.281695640477531"><ele>851.8333333333334</ele><time>2026-04-27T14:03:26Z</time></trkpt><trkpt lat="42.29782595742481" lon="13.281656757482367"><ele>851.0</ele><time>2026-04-27T14:03:27Z</time></trkpt><trkpt lat="42.29790128770799" lon="13.281620642268987"><ele>851.0000000000001</ele><time>2026-04-27T14:03:28Z</time></trkpt><trkpt lat="42.297978323195885" lon="13.281569875730668"><ele>851.0</ele><time>2026-04-27T14:03:29Z</time></trkpt><trkpt lat="42.2980397954036" lon="13.281524907597236"><ele>851.0</ele><time>2026-04-27T14:03:30Z</time></trkpt><trkpt lat="42.29811945223141" lon="13.281486541592129"><ele>851.0</ele><time>2026-04-27T14:03:31Z</time></trkpt><trkpt lat="42.29819048794752" lon="13.281441009681526"><ele>851.0000000000001</ele><time>2026-04-27T14:03:32Z</time></trkpt><trkpt lat="42.29827217720909" lon="13.281409607340153"><ele>851.0</ele><time>2026-04-27T14:03:33Z</time></trkpt><trkpt lat="42.29835974042215" lon="13.28138802721714"><ele>848.5</ele><time>2026-04-27T14:03:34Z</time></trkpt><trkpt lat="42.29845652069641" lon="13.281370232960542"><ele>846.0</ele><time>2026-04-27T14:03:35Z</time></trkpt><trkpt lat="42.29858797756791" lon="13.281327281436845"><ele>843.5</ele><time>2026-04-27T14:03:36Z</time></trkpt><trkpt lat="42.298673681496794" lon="13.28128343721836"><ele>841.0</ele><time>2026-04-27T14:03:37Z</time></trkpt><trkpt lat="42.29881201415854" lon="13.281247010724163"><ele>841.0</ele><time>2026-04-27T14:03:39Z</time></trkpt><trkpt lat="42.29889426023248" lon="13.281262563815657"><ele>841.0</ele><time>2026-04-27T14:03:40Z</time></trkpt><trkpt lat="42.2989576415386" lon="13.281352767242003"><ele>841.0</ele><time>2026-04-27T14:03:40.999Z</time></trkpt><trkpt lat="42.29902203563591" lon="13.281440626098863"><ele>841.0</ele><time>2026-04-27T14:03:41.999Z</time></trkpt><trkpt lat="42.29910532814821" lon="13.281519059030359"><ele>841.0</ele><time>2026-04-27T14:03:42.999Z</time></trkpt><trkpt lat="42.29918946062581" lon="13.28157864415918"><ele>842.8333333333333</ele><time>2026-04-27T14:03:43.999Z</time></trkpt><trkpt lat="42.29927166886174" lon="13.281625941063929"><ele>844.6666666666666</ele><time>2026-04-27T14:03:44.999Z</time></trkpt><trkpt lat="42.29934770854576" lon="13.28165115877882"><ele>846.5</ele><time>2026-04-27T14:03:45.999Z</time></trkpt><trkpt lat="42.299397475393974" lon="13.281707504681206"><ele>848.3333333333333</ele><time>2026-04-27T14:03:46.999Z</time></trkpt><trkpt lat="42.29946800055191" lon="13.28175999503489"><ele>850.1666666666666</ele><time>2026-04-27T14:03:47.999Z</time></trkpt><trkpt lat="42.29953671785971" lon="13.281843128764425"><ele>852.0</ele><time>2026-04-27T14:03:48.999Z</time></trkpt><trkpt lat="42.29958345782129" lon="13.281914416406334"><ele>852.0</ele><time>2026-04-27T14:03:49.999Z</time></trkpt><trkpt lat="42.29962625017172" lon="13.281986447924284"><ele>852.0</ele><time>2026-04-27T14:03:50.999Z</time></trkpt><trkpt lat="42.29967856934527" lon="13.282052214411761"><ele>852.0</ele><time>2026-04-27T14:03:51.999Z</time></trkpt><trkpt lat="42.29974066930185" lon="13.282109714205548"><ele>852.0</ele><time>2026-04-27T14:03:52.999Z</time></trkpt><trkpt lat="42.29978900720453" lon="13.282185465914889"><ele>852.0</ele><time>2026-04-27T14:03:53.999Z</time></trkpt><trkpt lat="42.29982454161307" lon="13.282277141353049"><ele>852.0</ele><time>2026-04-27T14:03:54.999Z</time></trkpt><trkpt lat="42.29987891979479" lon="13.282375742241758"><ele>849.8</ele><time>2026-04-27T14:03:55.999Z</time></trkpt><trkpt lat="42.29991946587052" lon="13.282483037420945"><ele>847.6</ele><time>2026-04-27T14:03:56.999Z</time></trkpt><trkpt lat="42.29998734653871" lon="13.282607403574266"><ele>845.4</ele><time>2026-04-27T14:03:57.999Z</time></trkpt><trkpt lat="42.30004790195067" lon="13.282715864322249"><ele>843.1999999999999</ele><time>2026-04-27T14:03:58.999Z</time></trkpt><trkpt lat="42.30011401802831" lon="13.282832528809589"><ele>841.0</ele><time>2026-04-27T14:03:59.999Z</time></trkpt><trkpt lat="42.30017473169804" lon="13.282936662199697"><ele>840.9999999999999</ele><time>2026-04-27T14:04:00.999Z</time></trkpt><trkpt lat="42.30024092876002" lon="13.283050200488026"><ele>841.0</ele><time>2026-04-27T14:04:01.999Z</time></trkpt><trkpt lat="42.30029319343096" lon="13.283153880541406"><ele>841.0</ele><time>2026-04-27T14:04:02.999Z</time></trkpt><trkpt lat="42.300341872061416" lon="13.283247305399918"><ele>841.0</ele><time>2026-04-27T14:04:03.999Z</time></trkpt><trkpt lat="42.300364827184914" lon="13.283330555546733"><ele>840.9999999999999</ele><time>2026-04-27T14:04:04.999Z</time></trkpt><trkpt lat="42.300346224619105" lon="13.283434899038081"><ele>841.0</ele><time>2026-04-27T14:04:07.999Z</time></trkpt><trkpt lat="42.30020736981457" lon="13.283440809466915"><ele>839.0</ele><time>2026-04-27T14:04:09.999Z</time></trkpt><trkpt lat="42.30013154056544" lon="13.283447431811584"><ele>837.0</ele><time>2026-04-27T14:04:10.999Z</time></trkpt><trkpt lat="42.300044812638546" lon="13.283463318221264"><ele>835.0</ele><time>2026-04-27T14:04:11.999Z</time></trkpt><trkpt lat="42.29995711146737" lon="13.283491314613798"><ele>833.0</ele><time>2026-04-27T14:04:12.999Z</time></trkpt><trkpt lat="42.29985908798395" lon="13.283531989942766"><ele>831.0</ele><time>2026-04-27T14:04:13.999Z</time></trkpt><trkpt lat="42.29975100285854" lon="13.283589018521027"><ele>831.5</ele><time>2026-04-27T14:04:14.999Z</time></trkpt><trkpt lat="42.29963767649808" lon="13.28366492227654"><ele>832.0</ele><time>2026-04-27T14:04:15.999Z</time></trkpt><trkpt lat="42.299529496864956" lon="13.283747710499881"><ele>832.5</ele><time>2026-04-27T14:04:16.999Z</time></trkpt><trkpt lat="42.29943007630232" lon="13.283834983235844"><ele>833.0</ele><time>2026-04-27T14:04:17.999Z</time></trkpt><trkpt lat="42.29931817278441" lon="13.283900126151837"><ele>829.75</ele><time>2026-04-27T14:04:18.999Z</time></trkpt><trkpt lat="42.29921650392605" lon="13.283973353854767"><ele>826.5</ele><time>2026-04-27T14:04:19.999Z</time></trkpt><trkpt lat="42.29910964301392" lon="13.284035978764058"><ele>823.25</ele><time>2026-04-27T14:04:20.999Z</time></trkpt><trkpt lat="42.29899910239493" lon="13.284051622613893"><ele>820.0</ele><time>2026-04-27T14:04:21.999Z</time></trkpt><trkpt lat="42.29888829903404" lon="13.284053701168723"><ele>819.4</ele><time>2026-04-27T14:04:22.999Z</time></trkpt><trkpt lat="42.298778195942894" lon="13.284003099009185"><ele>818.8</ele><time>2026-04-27T14:04:23.999Z</time></trkpt><trkpt lat="42.29867786655241" lon="13.283936152915789"><ele>818.2</ele><time>2026-04-27T14:04:24.999Z</time></trkpt><trkpt lat="42.298590525637664" lon="13.283850229898233"><ele>817.6</ele><time>2026-04-27T14:04:25.999Z</time></trkpt><trkpt lat="42.29849571217017" lon="13.283790561749122"><ele>817.0</ele><time>2026-04-27T14:04:26.999Z</time></trkpt><trkpt lat="42.29840809486853" lon="13.283753726386069"><ele>818.1666666666666</ele><time>2026-04-27T14:04:27.999Z</time></trkpt><trkpt lat="42.298327468470085" lon="13.283749461301259"><ele>819.3333333333333</ele><time>2026-04-27T14:04:28.999Z</time></trkpt><trkpt lat="42.29825033346346" lon="13.283764416864688"><ele>820.5</ele><time>2026-04-27T14:04:29.999Z</time></trkpt><trkpt lat="42.2981658638988" lon="13.28379913237707"><ele>821.6666666666667</ele><time>2026-04-27T14:04:30.999Z</time></trkpt><trkpt lat="42.298081157464836" lon="13.283845661428963"><ele>822.8333333333334</ele><time>2026-04-27T14:04:31.999Z</time></trkpt><trkpt lat="42.298014447442846" lon="13.28389000700548"><ele>824.0</ele><time>2026-04-27T14:04:32.999Z</time></trkpt><trkpt lat="42.29792236414288" lon="13.283955691264504"><ele>824.0</ele><time>2026-04-27T14:04:34.999Z</time></trkpt><trkpt lat="42.29786930513518" lon="13.284011465129296"><ele>824.0</ele><time>2026-04-27T14:04:37.999Z</time></trkpt><trkpt lat="42.297972128020504" lon="13.284182334273869"><ele>824.0</ele><time>2026-04-27T14:04:38.999Z</time></trkpt><trkpt lat="42.29804312005598" lon="13.284196116993467"><ele>824.0</ele><time>2026-04-27T14:04:39.999Z</time></trkpt><trkpt lat="42.29811614463975" lon="13.284206050651768"><ele>824.0</ele><time>2026-04-27T14:04:40.999Z</time></trkpt><trkpt lat="42.29819523614409" lon="13.284217459178295"><ele>822.6</ele><time>2026-04-27T14:04:42Z</time></trkpt><trkpt lat="42.29828024172169" lon="13.284227242040268"><ele>821.2</ele><time>2026-04-27T14:04:43Z</time></trkpt><trkpt lat="42.29837034297324" lon="13.284249357993735"><ele>819.8000000000001</ele><time>2026-04-27T14:04:44Z</time></trkpt><trkpt lat="42.298458987038416" lon="13.284281121366206"><ele>818.4000000000001</ele><time>2026-04-27T14:04:45Z</time></trkpt><trkpt lat="42.298545031110194" lon="13.284320106894866"><ele>817.0</ele><time>2026-04-27T14:04:46Z</time></trkpt><trkpt lat="42.29863178961694" lon="13.284372625975742"><ele>817.0</ele><time>2026-04-27T14:04:47Z</time></trkpt><trkpt lat="42.29872342481134" lon="13.28443493163994"><ele>817.0</ele><time>2026-04-27T14:04:48Z</time></trkpt><trkpt lat="42.298812532987434" lon="13.284521973639196"><ele>817.0</ele><time>2026-04-27T14:04:49Z</time></trkpt><trkpt lat="42.29889277669139" lon="13.28462914749557"><ele>817.0</ele><time>2026-04-27T14:04:50Z</time></trkpt><trkpt lat="42.298965043945074" lon="13.284749605403798"><ele>817.0</ele><time>2026-04-27T14:04:51Z</time></trkpt><trkpt lat="42.29904064045472" lon="13.284883392945265"><ele>815.5</ele><time>2026-04-27T14:04:52Z</time></trkpt><trkpt lat="42.299123529051194" lon="13.285024845819974"><ele>814.0</ele><time>2026-04-27T14:04:53Z</time></trkpt><trkpt lat="42.299189618417756" lon="13.285166139905122"><ele>812.5</ele><time>2026-04-27T14:04:54Z</time></trkpt><trkpt lat="42.29925090081886" lon="13.285309211027785"><ele>811.0</ele><time>2026-04-27T14:04:55Z</time></trkpt><trkpt lat="42.299301270285106" lon="13.28546333181945"><ele>809.75</ele><time>2026-04-27T14:04:56Z</time></trkpt><trkpt lat="42.299341326622304" lon="13.285621714330183"><ele>808.5</ele><time>2026-04-27T14:04:57Z</time></trkpt><trkpt lat="42.299378394249786" lon="13.285787924789487"><ele>807.25</ele><time>2026-04-27T14:04:58Z</time></trkpt><trkpt lat="42.29940937399431" lon="13.285967325939136"><ele>806.0</ele><time>2026-04-27T14:04:59Z</time></trkpt><trkpt lat="42.29941437672267" lon="13.28615773100943"><ele>806.0</ele><time>2026-04-27T14:05:00Z</time></trkpt><trkpt lat="42.299439997876945" lon="13.286338738006599"><ele>806.0</ele><time>2026-04-27T14:05:01Z</time></trkpt><trkpt lat="42.299449357871325" lon="13.286523978640673"><ele>806.0</ele><time>2026-04-27T14:05:02Z</time></trkpt><trkpt lat="42.29944043568179" lon="13.286702813637405"><ele>806.0</ele><time>2026-04-27T14:05:03Z</time></trkpt><trkpt lat="42.2994481555708" lon="13.28687042968819"><ele>804.5</ele><time>2026-04-27T14:05:04Z</time></trkpt><trkpt lat="42.29947219986346" lon="13.287030171592603"><ele>803.0</ele><time>2026-04-27T14:05:05Z</time></trkpt><trkpt lat="42.29948397241689" lon="13.287190741900867"><ele>801.5</ele><time>2026-04-27T14:05:06Z</time></trkpt><trkpt lat="42.29951511360196" lon="13.287350523397144"><ele>800.0</ele><time>2026-04-27T14:05:07Z</time></trkpt><trkpt lat="42.299568154782094" lon="13.287486943724248"><ele>800.5</ele><time>2026-04-27T14:05:08Z</time></trkpt><trkpt lat="42.299646540694866" lon="13.287610750720264"><ele>801.0</ele><time>2026-04-27T14:05:09Z</time></trkpt><trkpt lat="42.29974021729049" lon="13.287711278853813"><ele>801.5</ele><time>2026-04-27T14:05:10Z</time></trkpt><trkpt lat="42.29985320098174" lon="13.287761314681886"><ele>802.0</ele><time>2026-04-27T14:05:11Z</time></trkpt><trkpt lat="42.29997175030231" lon="13.287762715975875"><ele>802.0</ele><time>2026-04-27T14:05:12Z</time></trkpt><trkpt lat="42.300095849738916" lon="13.287720491958337"><ele>802.0</ele><time>2026-04-27T14:05:13Z</time></trkpt><trkpt lat="42.300230010587065" lon="13.28768370159472"><ele>802.0</ele><time>2026-04-27T14:05:14Z</time></trkpt><trkpt lat="42.300369183509986" lon="13.287674463482006"><ele>802.0</ele><time>2026-04-27T14:05:15Z</time></trkpt><trkpt lat="42.300516792384634" lon="13.287677203556425"><ele>800.75</ele><time>2026-04-27T14:05:16Z</time></trkpt><trkpt lat="42.30066917067771" lon="13.28767939528726"><ele>799.5</ele><time>2026-04-27T14:05:17Z</time></trkpt><trkpt lat="42.300818002440266" lon="13.287678481560542"><ele>798.25</ele><time>2026-04-27T14:05:18Z</time></trkpt><trkpt lat="42.30096237973813" lon="13.287674874211314"><ele>797.0</ele><time>2026-04-27T14:05:19Z</time></trkpt><trkpt lat="42.30109810246231" lon="13.287665768765764"><ele>797.0</ele><time>2026-04-27T14:05:20Z</time></trkpt><trkpt lat="42.30123102309855" lon="13.28763340059791"><ele>797.0</ele><time>2026-04-27T14:05:21Z</time></trkpt><trkpt lat="42.30134737525729" lon="13.287568749380858"><ele>797.0</ele><time>2026-04-27T14:05:22Z</time></trkpt><trkpt lat="42.301452943779466" lon="13.28749816377309"><ele>797.0</ele><time>2026-04-27T14:05:23Z</time></trkpt><trkpt lat="42.30155617256716" lon="13.287428121838865"><ele>793.8</ele><time>2026-04-27T14:05:24Z</time></trkpt><trkpt lat="42.3016606354391" lon="13.287377633097535"><ele>790.6</ele><time>2026-04-27T14:05:25Z</time></trkpt><trkpt lat="42.3017692582979" lon="13.287344875714604"><ele>787.4</ele><time>2026-04-27T14:05:26Z</time></trkpt><trkpt lat="42.30187491187219" lon="13.287325251207339"><ele>784.1999999999999</ele><time>2026-04-27T14:05:27Z</time></trkpt><trkpt lat="42.30196367183183" lon="13.28732427236321"><ele>781.0</ele><time>2026-04-27T14:05:28Z</time></trkpt><trkpt lat="42.302038392120465" lon="13.287333213193914"><ele>781.0</ele><time>2026-04-27T14:05:29Z</time></trkpt><trkpt lat="42.302107011882015" lon="13.287370895656643"><ele>781.0</ele><time>2026-04-27T14:05:31Z</time></trkpt><trkpt lat="42.30209378836811" lon="13.287768433402494"><ele>781.0</ele><time>2026-04-27T14:05:36Z</time></trkpt><trkpt lat="42.3020970293681" lon="13.287897255185175"><ele>781.0</ele><time>2026-04-27T14:05:37Z</time></trkpt><trkpt lat="42.30208777780003" lon="13.288041410652154"><ele>781.0</ele><time>2026-04-27T14:05:38Z</time></trkpt><trkpt lat="42.302080505880205" lon="13.288183251102675"><ele>781.0</ele><time>2026-04-27T14:05:39Z</time></trkpt><trkpt lat="42.30207608038759" lon="13.288330469179787"><ele>781.0</ele><time>2026-04-27T14:05:40Z</time></trkpt><trkpt lat="42.30207472638472" lon="13.288463246631464"><ele>781.0</ele><time>2026-04-27T14:05:41Z</time></trkpt><trkpt lat="42.30207460597294" lon="13.288586680007919"><ele>780.7142857142858</ele><time>2026-04-27T14:05:42Z</time></trkpt><trkpt lat="42.30207140636227" lon="13.28868914545646"><ele>780.4285714285714</ele><time>2026-04-27T14:05:43Z</time></trkpt><trkpt lat="42.30208499323418" lon="13.288781644257451"><ele>780.1428571428571</ele><time>2026-04-27T14:05:44Z</time></trkpt><trkpt lat="42.30212341984017" lon="13.288853459482015"><ele>779.8571428571429</ele><time>2026-04-27T14:05:45Z</time></trkpt><trkpt lat="42.302180908399556" lon="13.288906389493722"><ele>779.5714285714286</ele><time>2026-04-27T14:05:46Z</time></trkpt><trkpt lat="42.30225235830853" lon="13.288948681967655"><ele>779.2857142857143</ele><time>2026-04-27T14:05:47Z</time></trkpt><trkpt lat="42.302320858080485" lon="13.288980013648745"><ele>779.0</ele><time>2026-04-27T14:05:48Z</time></trkpt><trkpt lat="42.30238636003396" lon="13.28899902181129"><ele>779.0</ele><time>2026-04-27T14:05:48.999Z</time></trkpt><trkpt lat="42.30245905534347" lon="13.289020975040998"><ele>779.0</ele><time>2026-04-27T14:05:49.999Z</time></trkpt><trkpt lat="42.30253888694888" lon="13.28901935884509"><ele>779.0</ele><time>2026-04-27T14:05:50.999Z</time></trkpt><trkpt lat="42.30264054982862" lon="13.289005994917252"><ele>779.0</ele><time>2026-04-27T14:05:51.999Z</time></trkpt><trkpt lat="42.302751330314734" lon="13.288998336372034"><ele>779.0</ele><time>2026-04-27T14:05:52.999Z</time></trkpt><trkpt lat="42.3028658033551" lon="13.288996679182151"><ele>779.0</ele><time>2026-04-27T14:05:53.999Z</time></trkpt><trkpt lat="42.302988684498196" lon="13.28898032806428"><ele>779.0</ele><time>2026-04-27T14:05:54.999Z</time></trkpt><trkpt lat="42.303116696658314" lon="13.288939198944666"><ele>779.0</ele><time>2026-04-27T14:05:55.999Z</time></trkpt><trkpt lat="42.30324897255689" lon="13.28889893276957"><ele>779.0</ele><time>2026-04-27T14:05:56.999Z</time></trkpt><trkpt lat="42.30337118446809" lon="13.288851013480434"><ele>776.5</ele><time>2026-04-27T14:05:57.999Z</time></trkpt><trkpt lat="42.30347830049126" lon="13.288791078865342"><ele>774.0</ele><time>2026-04-27T14:05:58.999Z</time></trkpt><trkpt lat="42.30358203976912" lon="13.288741411961755"><ele>771.5</ele><time>2026-04-27T14:05:59.999Z</time></trkpt><trkpt lat="42.30368994324806" lon="13.28868605719061"><ele>769.0</ele><time>2026-04-27T14:06:00.999Z</time></trkpt><trkpt lat="42.3038202825583" lon="13.288647896412215"><ele>769.0</ele><time>2026-04-27T14:06:01.999Z</time></trkpt><trkpt lat="42.30393882908664" lon="13.288652621325916"><ele>769.0</ele><time>2026-04-27T14:06:02.999Z</time></trkpt><trkpt lat="42.30405691318665" lon="13.28862488426784"><ele>769.0</ele><time>2026-04-27T14:06:03.999Z</time></trkpt><trkpt lat="42.30417494298761" lon="13.288587604548063"><ele>769.0</ele><time>2026-04-27T14:06:04.999Z</time></trkpt><trkpt lat="42.30429103690122" lon="13.288548932582005"><ele>769.0</ele><time>2026-04-27T14:06:05.999Z</time></trkpt><trkpt lat="42.30443325608187" lon="13.288493178219742"><ele>769.0</ele><time>2026-04-27T14:06:06.999Z</time></trkpt><trkpt lat="42.304570215730294" lon="13.288436828384906"><ele>769.0</ele><time>2026-04-27T14:06:07.999Z</time></trkpt><trkpt lat="42.30469547691144" lon="13.288372053635957"><ele>769.0</ele><time>2026-04-27T14:06:08.999Z</time></trkpt><trkpt lat="42.30482393371988" lon="13.28831291836881"><ele>768.75</ele><time>2026-04-27T14:06:09.999Z</time></trkpt><trkpt lat="42.30495459739631" lon="13.288281743155602"><ele>768.5</ele><time>2026-04-27T14:06:10.999Z</time></trkpt><trkpt lat="42.30506696518616" lon="13.288246409957733"><ele>768.25</ele><time>2026-04-27T14:06:11.999Z</time></trkpt><trkpt lat="42.305168726348136" lon="13.288224773812344"><ele>768.0</ele><time>2026-04-27T14:06:12.999Z</time></trkpt><trkpt lat="42.30526980063661" lon="13.288210923719575"><ele>768.0</ele><time>2026-04-27T14:06:13.999Z</time></trkpt><trkpt lat="42.305390541088705" lon="13.288211768966878"><ele>768.0</ele><time>2026-04-27T14:06:14.999Z</time></trkpt><trkpt lat="42.30549760817712" lon="13.28822148623767"><ele>768.0</ele><time>2026-04-27T14:06:15.999Z</time></trkpt><trkpt lat="42.30561030255183" lon="13.288263326353356"><ele>768.0</ele><time>2026-04-27T14:06:16.999Z</time></trkpt><trkpt lat="42.30571005112763" lon="13.28826752600555"><ele>768.0</ele><time>2026-04-27T14:06:17.999Z</time></trkpt><trkpt lat="42.305816931868435" lon="13.288239848961009"><ele>767.75</ele><time>2026-04-27T14:06:18.999Z</time></trkpt><trkpt lat="42.30592340769711" lon="13.288200205077255"><ele>767.5</ele><time>2026-04-27T14:06:19.999Z</time></trkpt><trkpt lat="42.30602369253305" lon="13.288155979644491"><ele>767.25</ele><time>2026-04-27T14:06:20.999Z</time></trkpt><trkpt lat="42.30613629296468" lon="13.288084696478657"><ele>767.0</ele><time>2026-04-27T14:06:21.999Z</time></trkpt><trkpt lat="42.306261429778914" lon="13.288015642874276"><ele>766.5</ele><time>2026-04-27T14:06:22.999Z</time></trkpt><trkpt lat="42.30639030320075" lon="13.287962956101532"><ele>766.0</ele><time>2026-04-27T14:06:23.999Z</time></trkpt><trkpt lat="42.30651863166872" lon="13.287906936494524"><ele>765.5</ele><time>2026-04-27T14:06:24.999Z</time></trkpt><trkpt lat="42.30664146292488" lon="13.28786162710702"><ele>765.0</ele><time>2026-04-27T14:06:25.999Z</time></trkpt><trkpt lat="42.30673227274005" lon="13.287827936810249"><ele>765.0</ele><time>2026-04-27T14:06:26.999Z</time></trkpt><trkpt lat="42.30680492785223" lon="13.287810063145487"><ele>765.0</ele><time>2026-04-27T14:06:27.999Z</time></trkpt><trkpt lat="42.306904152073415" lon="13.28780350512317"><ele>765.0</ele><time>2026-04-27T14:06:29.999Z</time></trkpt><trkpt lat="42.30701874461692" lon="13.287719671258916"><ele>765.0</ele><time>2026-04-27T14:06:31.999Z</time></trkpt><trkpt lat="42.30709577840744" lon="13.28762285766967"><ele>765.0</ele><time>2026-04-27T14:06:32.999Z</time></trkpt><trkpt lat="42.307175176806226" lon="13.287514743542587"><ele>764.5</ele><time>2026-04-27T14:06:33.999Z</time></trkpt><trkpt lat="42.307266978568656" lon="13.287397930624806"><ele>764.0</ele><time>2026-04-27T14:06:34.999Z</time></trkpt><trkpt lat="42.307351229170486" lon="13.287274544571241"><ele>763.5</ele><time>2026-04-27T14:06:35.999Z</time></trkpt><trkpt lat="42.30745328015971" lon="13.287137693965425"><ele>763.0</ele><time>2026-04-27T14:06:36.999Z</time></trkpt><trkpt lat="42.30754256404316" lon="13.287016385628164"><ele>763.0</ele><time>2026-04-27T14:06:37.999Z</time></trkpt><trkpt lat="42.3076373361818" lon="13.286905319295329"><ele>763.0</ele><time>2026-04-27T14:06:38.999Z</time></trkpt><trkpt lat="42.307733721875316" lon="13.286802904827267"><ele>763.0</ele><time>2026-04-27T14:06:39.999Z</time></trkpt><trkpt lat="42.30783356285599" lon="13.286703129791196"><ele>763.0</ele><time>2026-04-27T14:06:40.999Z</time></trkpt><trkpt lat="42.30794438671083" lon="13.286618627026922"><ele>763.0</ele><time>2026-04-27T14:06:41.999Z</time></trkpt><trkpt lat="42.30806003312221" lon="13.286542713044806"><ele>763.0</ele><time>2026-04-27T14:06:42.999Z</time></trkpt><trkpt lat="42.30817184173402" lon="13.286473388153045"><ele>763.0</ele><time>2026-04-27T14:06:43.999Z</time></trkpt><trkpt lat="42.30827083946208" lon="13.28640064103122"><ele>763.0</ele><time>2026-04-27T14:06:44.999Z</time></trkpt><trkpt lat="42.308365156577075" lon="13.286335251161562"><ele>761.8</ele><time>2026-04-27T14:06:45.999Z</time></trkpt><trkpt lat="42.30845247223122" lon="13.286275393399272"><ele>760.5999999999999</ele><time>2026-04-27T14:06:46.999Z</time></trkpt><trkpt lat="42.30853299977118" lon="13.286222524627446"><ele>759.4000000000001</ele><time>2026-04-27T14:06:48Z</time></trkpt><trkpt lat="42.308609923394464" lon="13.286172501019626"><ele>758.2</ele><time>2026-04-27T14:06:49Z</time></trkpt><trkpt lat="42.308689926043634" lon="13.286123548298416"><ele>757.0</ele><time>2026-04-27T14:06:50Z</time></trkpt><trkpt lat="42.3087729932269" lon="13.286077046837896"><ele>757.0</ele><time>2026-04-27T14:06:51Z</time></trkpt><trkpt lat="42.30885572427519" lon="13.28603067639977"><ele>757.0</ele><time>2026-04-27T14:06:52Z</time></trkpt><trkpt lat="42.30894515660823" lon="13.285988713522539"><ele>757.0</ele><time>2026-04-27T14:06:53Z</time></trkpt><trkpt lat="42.30903596130524" lon="13.285959726910148"><ele>757.0</ele><time>2026-04-27T14:06:54Z</time></trkpt><trkpt lat="42.309117538561985" lon="13.285937018212696"><ele>757.0</ele><time>2026-04-27T14:06:55Z</time></trkpt><trkpt lat="42.30919155381034" lon="13.28591859347521"><ele>757.0</ele><time>2026-04-27T14:06:56Z</time></trkpt><trkpt lat="42.30927787828153" lon="13.285912409402318"><ele>757.0</ele><time>2026-04-27T14:06:57Z</time></trkpt><trkpt lat="42.30937976179359" lon="13.2859079495437"><ele>757.0</ele><time>2026-04-27T14:06:58Z</time></trkpt><trkpt lat="42.309480240868936" lon="13.285900939659342"><ele>757.0</ele><time>2026-04-27T14:06:59Z</time></trkpt><trkpt lat="42.309564691636176" lon="13.285893129254713"><ele>757.0</ele><time>2026-04-27T14:07:00Z</time></trkpt><trkpt lat="42.30963194799479" lon="13.285888205095835"><ele>757.0</ele><time>2026-04-27T14:07:01Z</time></trkpt><trkpt lat="42.309517447172404" lon="13.285965827529388"><ele>757.0</ele><time>2026-04-27T14:07:07Z</time></trkpt><trkpt lat="42.30942971464591" lon="13.285965687582578"><ele>757.0</ele><time>2026-04-27T14:07:08Z</time></trkpt><trkpt lat="42.30935700631762" lon="13.285969969651966"><ele>757.0</ele><time>2026-04-27T14:07:09Z</time></trkpt><trkpt lat="42.309268957080334" lon="13.285982719442682"><ele>757.0</ele><time>2026-04-27T14:07:10Z</time></trkpt><trkpt lat="42.30917785968156" lon="13.28601291981642"><ele>757.0</ele><time>2026-04-27T14:07:11Z</time></trkpt><trkpt lat="42.309082361225336" lon="13.286053534727868"><ele>757.0</ele><time>2026-04-27T14:07:12Z</time></trkpt><trkpt lat="42.308978570681745" lon="13.286077941026651"><ele>757.0</ele><time>2026-04-27T14:07:13Z</time></trkpt><trkpt lat="42.30888588924907" lon="13.286149338358225"><ele>757.0</ele><time>2026-04-27T14:07:14Z</time></trkpt><trkpt lat="42.308790781411616" lon="13.28620505571353"><ele>757.0</ele><time>2026-04-27T14:07:15Z</time></trkpt><trkpt lat="42.30869589038426" lon="13.286263964132175"><ele>757.0</ele><time>2026-04-27T14:07:16Z</time></trkpt><trkpt lat="42.30860278699331" lon="13.28631512860914"><ele>757.0</ele><time>2026-04-27T14:07:17Z</time></trkpt><trkpt lat="42.30852433433759" lon="13.286364766839764"><ele>757.0</ele><time>2026-04-27T14:07:18Z</time></trkpt><trkpt lat="42.30846754283877" lon="13.286426787681854"><ele>757.0</ele><time>2026-04-27T14:07:19Z</time></trkpt><trkpt lat="42.308443627519736" lon="13.286524658726782"><ele>757.0</ele><time>2026-04-27T14:07:20Z</time></trkpt><trkpt lat="42.30847684139384" lon="13.28661038841133"><ele>757.0</ele><time>2026-04-27T14:07:21Z</time></trkpt><trkpt lat="42.308545928709584" lon="13.286659439929805"><ele>757.0</ele><time>2026-04-27T14:07:22Z</time></trkpt><trkpt lat="42.308643116783585" lon="13.286650534796548"><ele>757.0</ele><time>2026-04-27T14:07:23Z</time></trkpt><trkpt lat="42.3087476457036" lon="13.28661532951063"><ele>759.0</ele><time>2026-04-27T14:07:24Z</time></trkpt><trkpt lat="42.3088510669698" lon="13.28659198089106"><ele>761.0</ele><time>2026-04-27T14:07:25Z</time></trkpt><trkpt lat="42.30892011389268" lon="13.28661520582511"><ele>763.0</ele><time>2026-04-27T14:07:26Z</time></trkpt><trkpt lat="42.30904932695565" lon="13.286606998881519"><ele>765.0</ele><time>2026-04-27T14:07:27Z</time></trkpt><trkpt lat="42.309186996287075" lon="13.286598273222284"><ele>767.0</ele><time>2026-04-27T14:07:28Z</time></trkpt><trkpt lat="42.3092924159337" lon="13.286579204708415"><ele>768.5</ele><time>2026-04-27T14:07:29Z</time></trkpt><trkpt lat="42.309407909591606" lon="13.28656608377716"><ele>770.0</ele><time>2026-04-27T14:07:30Z</time></trkpt><trkpt lat="42.30952313202678" lon="13.286553817529247"><ele>771.5</ele><time>2026-04-27T14:07:31Z</time></trkpt><trkpt lat="42.30964040594573" lon="13.286533936611553"><ele>773.0</ele><time>2026-04-27T14:07:32Z</time></trkpt><trkpt lat="42.30977808605652" lon="13.286505607828543"><ele>777.3333333333334</ele><time>2026-04-27T14:07:33Z</time></trkpt><trkpt lat="42.30993376153724" lon="13.286473112449587"><ele>781.6666666666667</ele><time>2026-04-27T14:07:34Z</time></trkpt><trkpt lat="42.31008694340865" lon="13.286453310403889"><ele>786.0</ele><time>2026-04-27T14:07:35Z</time></trkpt><trkpt lat="42.310228024137636" lon="13.286429495337636"><ele>781.6666666666667</ele><time>2026-04-27T14:07:36Z</time></trkpt><trkpt lat="42.31038300768749" lon="13.286403333412018"><ele>777.3333333333334</ele><time>2026-04-27T14:07:37Z</time></trkpt><trkpt lat="42.31053214015875" lon="13.28637953448861"><ele>773.0</ele><time>2026-04-27T14:07:38Z</time></trkpt><trkpt lat="42.310676044929096" lon="13.286362684636327"><ele>773.0</ele><time>2026-04-27T14:07:39Z</time></trkpt><trkpt lat="42.31082476491374" lon="13.286362808609475"><ele>773.0</ele><time>2026-04-27T14:07:40Z</time></trkpt><trkpt lat="42.31096511667937" lon="13.2863734041758"><ele>773.0</ele><time>2026-04-27T14:07:41Z</time></trkpt><trkpt lat="42.3110967580986" lon="13.28638413566392"><ele>773.0</ele><time>2026-04-27T14:07:42Z</time></trkpt><trkpt lat="42.311175256175005" lon="13.28634585328295"><ele>773.0</ele><time>2026-04-27T14:07:43Z</time></trkpt><trkpt lat="42.31132542151586" lon="13.28628299359586"><ele>773.0</ele><time>2026-04-27T14:07:45Z</time></trkpt><trkpt lat="42.31139124151353" lon="13.286220872269931"><ele>773.0</ele><time>2026-04-27T14:07:46Z</time></trkpt><trkpt lat="42.31145639685357" lon="13.286150143108957"><ele>773.0</ele><time>2026-04-27T14:07:47Z</time></trkpt><trkpt lat="42.31151449287248" lon="13.286070908115757"><ele>773.0</ele><time>2026-04-27T14:07:48Z</time></trkpt><trkpt lat="42.31157796024819" lon="13.285999806396902"><ele>775.0000000000001</ele><time>2026-04-27T14:07:49Z</time></trkpt><trkpt lat="42.31163819154915" lon="13.285972531779697"><ele>777.0</ele><time>2026-04-27T14:07:50Z</time></trkpt><trkpt lat="42.31168510479701" lon="13.286043229444562"><ele>779.0</ele><time>2026-04-27T14:07:51Z</time></trkpt><trkpt lat="42.3117044827037" lon="13.286171234897353"><ele>781.0</ele><time>2026-04-27T14:07:53Z</time></trkpt><trkpt lat="42.31161990963782" lon="13.286239793025159"><ele>783.0000000000001</ele><time>2026-04-27T14:07:53.999Z</time></trkpt><trkpt lat="42.31156784495274" lon="13.286360484050155"><ele>785.0</ele><time>2026-04-27T14:07:54.999Z</time></trkpt><trkpt lat="42.31150226150898" lon="13.286512312619694"><ele>786.5</ele><time>2026-04-27T14:07:55.999Z</time></trkpt><trkpt lat="42.31143238621448" lon="13.286669396593929"><ele>788.0</ele><time>2026-04-27T14:07:56.999Z</time></trkpt><trkpt lat="42.31136405121208" lon="13.286816430164006"><ele>789.5</ele><time>2026-04-27T14:07:57.999Z</time></trkpt><trkpt lat="42.31129318497578" lon="13.286965692878095"><ele>791.0</ele><time>2026-04-27T14:07:58.999Z</time></trkpt><trkpt lat="42.31121872749034" lon="13.287115096250545"><ele>792.5</ele><time>2026-04-27T14:07:59.999Z</time></trkpt><trkpt lat="42.311136988774706" lon="13.287265586416854"><ele>794.0</ele><time>2026-04-27T14:08:00.999Z</time></trkpt><trkpt lat="42.311044003137575" lon="13.287399925609616"><ele>795.5</ele><time>2026-04-27T14:08:01.999Z</time></trkpt><trkpt lat="42.31094485661471" lon="13.287509463882618"><ele>797.0</ele><time>2026-04-27T14:08:02.999Z</time></trkpt><trkpt lat="42.310842115315054" lon="13.287617952441215"><ele>797.0</ele><time>2026-04-27T14:08:03.999Z</time></trkpt><trkpt lat="42.31073651422301" lon="13.287724540734922"><ele>797.0</ele><time>2026-04-27T14:08:04.999Z</time></trkpt><trkpt lat="42.31062842027177" lon="13.287826436559278"><ele>797.0</ele><time>2026-04-27T14:08:05.999Z</time></trkpt><trkpt lat="42.310522697060364" lon="13.287930427494597"><ele>797.0</ele><time>2026-04-27T14:08:06.999Z</time></trkpt><trkpt lat="42.31042297280444" lon="13.288035425984312"><ele>797.25</ele><time>2026-04-27T14:08:07.999Z</time></trkpt><trkpt lat="42.310328825605175" lon="13.288135771487278"><ele>797.5</ele><time>2026-04-27T14:08:08.999Z</time></trkpt><trkpt lat="42.31023086425969" lon="13.288242377099438"><ele>797.75</ele><time>2026-04-27T14:08:09.999Z</time></trkpt><trkpt lat="42.31012890650219" lon="13.288353843878337"><ele>798.0</ele><time>2026-04-27T14:08:10.999Z</time></trkpt><trkpt lat="42.31002811219832" lon="13.288465635319069"><ele>798.0</ele><time>2026-04-27T14:08:11.999Z</time></trkpt><trkpt lat="42.30992244336977" lon="13.288585170773874"><ele>798.0</ele><time>2026-04-27T14:08:12.999Z</time></trkpt><trkpt lat="42.309807285942824" lon="13.288716948870007"><ele>798.0</ele><time>2026-04-27T14:08:13.999Z</time></trkpt><trkpt lat="42.30969013671296" lon="13.288851883600843"><ele>798.0</ele><time>2026-04-27T14:08:14.999Z</time></trkpt><trkpt lat="42.309585862455194" lon="13.288972007047047"><ele>798.0</ele><time>2026-04-27T14:08:15.999Z</time></trkpt><trkpt lat="42.30949326306037" lon="13.289078681091043"><ele>798.0</ele><time>2026-04-27T14:08:16.999Z</time></trkpt><trkpt lat="42.30941058572819" lon="13.289171911083875"><ele>798.0</ele><time>2026-04-27T14:08:17.999Z</time></trkpt><trkpt lat="42.30934756676902" lon="13.289242579138975"><ele>798.0</ele><time>2026-04-27T14:08:18.999Z</time></trkpt><trkpt lat="42.30926492152583" lon="13.289335255625911"><ele>798.0</ele><time>2026-04-27T14:08:20.999Z</time></trkpt><trkpt lat="42.30916865234794" lon="13.289440570260588"><ele>798.0</ele><time>2026-04-27T14:08:23.999Z</time></trkpt><trkpt lat="42.30909813934419" lon="13.289516975581185"><ele>798.0</ele><time>2026-04-27T14:08:24.999Z</time></trkpt><trkpt lat="42.30902552951926" lon="13.289594425719969"><ele>798.0</ele><time>2026-04-27T14:08:25.999Z</time></trkpt><trkpt lat="42.30894713506669" lon="13.289676205717845"><ele>798.0</ele><time>2026-04-27T14:08:26.999Z</time></trkpt><trkpt lat="42.30887241600394" lon="13.289751144454279"><ele>798.0</ele><time>2026-04-27T14:08:27.999Z</time></trkpt><trkpt lat="42.30881485773858" lon="13.289808526875735"><ele>798.0</ele><time>2026-04-27T14:08:28.999Z</time></trkpt><trkpt lat="42.30872329532703" lon="13.289899809431304"><ele>799.0</ele><time>2026-04-27T14:08:30.999Z</time></trkpt><trkpt lat="42.30884141771697" lon="13.290181482432523"><ele>800.0</ele><time>2026-04-27T14:08:33.999Z</time></trkpt><trkpt lat="42.30890389451476" lon="13.290267563161263"><ele>801.0</ele><time>2026-04-27T14:08:34.999Z</time></trkpt><trkpt lat="42.3089662682409" lon="13.290377708812425"><ele>802.0</ele><time>2026-04-27T14:08:35.999Z</time></trkpt><trkpt lat="42.30902083248996" lon="13.290476382283162"><ele>801.9999999999999</ele><time>2026-04-27T14:08:36.999Z</time></trkpt><trkpt lat="42.309071629688624" lon="13.29055631939115"><ele>802.0</ele><time>2026-04-27T14:08:37.999Z</time></trkpt><trkpt lat="42.30911693174659" lon="13.290629230911955"><ele>802.0</ele><time>2026-04-27T14:08:38.999Z</time></trkpt><trkpt lat="42.309151490615236" lon="13.290761246157773"><ele>802.0</ele><time>2026-04-27T14:08:40.999Z</time></trkpt><trkpt lat="42.30912835492992" lon="13.290856877011521"><ele>801.9999999999999</ele><time>2026-04-27T14:08:41.999Z</time></trkpt><trkpt lat="42.30914667474479" lon="13.290955453032154"><ele>802.0</ele><time>2026-04-27T14:08:42.999Z</time></trkpt><trkpt lat="42.30918325339459" lon="13.291085174098887"><ele>802.0</ele><time>2026-04-27T14:08:43.999Z</time></trkpt><trkpt lat="42.30922779537971" lon="13.291230686604845"><ele>802.0</ele><time>2026-04-27T14:08:44.999Z</time></trkpt><trkpt lat="42.30926674199205" lon="13.291363049239216"><ele>802.0</ele><time>2026-04-27T14:08:45.999Z</time></trkpt><trkpt lat="42.309294459890815" lon="13.291504695123846"><ele>802.0</ele><time>2026-04-27T14:08:46.999Z</time></trkpt><trkpt lat="42.30931844299388" lon="13.291654427686979"><ele>802.0</ele><time>2026-04-27T14:08:47.999Z</time></trkpt><trkpt lat="42.30933736814495" lon="13.291789769257264"><ele>801.6</ele><time>2026-04-27T14:08:48.999Z</time></trkpt><trkpt lat="42.309368580155734" lon="13.29190371550071"><ele>801.2</ele><time>2026-04-27T14:08:49.999Z</time></trkpt><trkpt lat="42.30936988176764" lon="13.292031063778575"><ele>800.8</ele><time>2026-04-27T14:08:50.999Z</time></trkpt><trkpt lat="42.30940801986813" lon="13.292155689814425"><ele>800.4</ele><time>2026-04-27T14:08:51.999Z</time></trkpt><trkpt lat="42.309412194433634" lon="13.292278222377664"><ele>800.0</ele><time>2026-04-27T14:08:52.999Z</time></trkpt><trkpt lat="42.30942460366534" lon="13.292407922409469"><ele>799.6</ele><time>2026-04-27T14:08:54Z</time></trkpt><trkpt lat="42.30944959608957" lon="13.292536896971278"><ele>799.2</ele><time>2026-04-27T14:08:55Z</time></trkpt><trkpt lat="42.309478096242664" lon="13.292662992328053"><ele>798.8</ele><time>2026-04-27T14:08:56Z</time></trkpt><trkpt lat="42.309510286593095" lon="13.292799896783634"><ele>798.4</ele><time>2026-04-27T14:08:57Z</time></trkpt><trkpt lat="42.30953935800324" lon="13.292968186439014"><ele>798.0</ele><time>2026-04-27T14:08:58Z</time></trkpt><trkpt lat="42.309547563002326" lon="13.293155696314187"><ele>797.0</ele><time>2026-04-27T14:08:59Z</time></trkpt><trkpt lat="42.30955348348378" lon="13.293317440897216"><ele>796.0</ele><time>2026-04-27T14:09:00Z</time></trkpt><trkpt lat="42.309563427536936" lon="13.293464133646363"><ele>795.0</ele><time>2026-04-27T14:09:01Z</time></trkpt><trkpt lat="42.30957101386603" lon="13.293581386443837"><ele>794.0</ele><time>2026-04-27T14:09:02Z</time></trkpt><trkpt lat="42.30959441886003" lon="13.293666193571196"><ele>793.0</ele><time>2026-04-27T14:09:03Z</time></trkpt><trkpt lat="42.30967976238398" lon="13.2937379654565"><ele>792.9999999999999</ele><time>2026-04-27T14:09:05Z</time></trkpt><trkpt lat="42.30973910731675" lon="13.293709069334932"><ele>793.0</ele><time>2026-04-27T14:09:06Z</time></trkpt><trkpt lat="42.30979193972603" lon="13.29364509478841"><ele>793.0</ele><time>2026-04-27T14:09:07Z</time></trkpt><trkpt lat="42.30985336668869" lon="13.293576440577016"><ele>793.0</ele><time>2026-04-27T14:09:08Z</time></trkpt><trkpt lat="42.30992777669404" lon="13.293526045948719"><ele>792.9999999999999</ele><time>2026-04-27T14:09:09Z</time></trkpt><trkpt lat="42.31000233385779" lon="13.293547834806356"><ele>793.0</ele><time>2026-04-27T14:09:10Z</time></trkpt><trkpt lat="42.31007126624517" lon="13.293628593220314"><ele>790.8</ele><time>2026-04-27T14:09:11Z</time></trkpt><trkpt lat="42.31011136902217" lon="13.293725239958022"><ele>788.5999999999999</ele><time>2026-04-27T14:09:12Z</time></trkpt><trkpt lat="42.31012684284092" lon="13.293826100707523"><ele>786.4000000000001</ele><time>2026-04-27T14:09:13Z</time></trkpt><trkpt lat="42.31008546632445" lon="13.294002047575601"><ele>784.2</ele><time>2026-04-27T14:09:15Z</time></trkpt><trkpt lat="42.31000227461649" lon="13.29409384251641"><ele>782.0</ele><time>2026-04-27T14:09:16Z</time></trkpt><trkpt lat="42.309890346568245" lon="13.294132459468383"><ele>782.2</ele><time>2026-04-27T14:09:17Z</time></trkpt><trkpt lat="42.3097705442635" lon="13.294135181197298"><ele>782.4000000000001</ele><time>2026-04-27T14:09:18Z</time></trkpt><trkpt lat="42.30965441999749" lon="13.294153879616974"><ele>782.5999999999999</ele><time>2026-04-27T14:09:19Z</time></trkpt><trkpt lat="42.3095551927572" lon="13.294200578164638"><ele>782.8</ele><time>2026-04-27T14:09:20Z</time></trkpt><trkpt lat="42.30949633717005" lon="13.294244375184887"><ele>783.0</ele><time>2026-04-27T14:09:21Z</time></trkpt><trkpt lat="42.30947927435552" lon="13.294396737980735"><ele>783.0</ele><time>2026-04-27T14:09:23Z</time></trkpt><trkpt lat="42.30948489723976" lon="13.294513628996036"><ele>783.0</ele><time>2026-04-27T14:09:24Z</time></trkpt><trkpt lat="42.30949088510913" lon="13.294611377456892"><ele>783.0</ele><time>2026-04-27T14:09:25Z</time></trkpt><trkpt lat="42.30948417760999" lon="13.294719452261633"><ele>783.0</ele><time>2026-04-27T14:09:26Z</time></trkpt><trkpt lat="42.30947478874472" lon="13.294847407833773"><ele>783.0</ele><time>2026-04-27T14:09:27Z</time></trkpt><trkpt lat="42.30943199690133" lon="13.295004325941123"><ele>781.75</ele><time>2026-04-27T14:09:28Z</time></trkpt><trkpt lat="42.30936523737885" lon="13.29514043264104"><ele>780.5</ele><time>2026-04-27T14:09:29Z</time></trkpt><trkpt lat="42.30930051213533" lon="13.29529912712302"><ele>779.25</ele><time>2026-04-27T14:09:30Z</time></trkpt><trkpt lat="42.30924730042032" lon="13.295450675388365"><ele>778.0</ele><time>2026-04-27T14:09:31Z</time></trkpt><trkpt lat="42.30919613244271" lon="13.295612755317423"><ele>776.25</ele><time>2026-04-27T14:09:32Z</time></trkpt><trkpt lat="42.30915156172169" lon="13.295773597310259"><ele>774.5</ele><time>2026-04-27T14:09:33Z</time></trkpt><trkpt lat="42.30908890570166" lon="13.295935767975404"><ele>772.75</ele><time>2026-04-27T14:09:34Z</time></trkpt><trkpt lat="42.30902168925189" lon="13.296084422732934"><ele>771.0</ele><time>2026-04-27T14:09:35Z</time></trkpt><trkpt lat="42.30895636753424" lon="13.296229238688406"><ele>771.75</ele><time>2026-04-27T14:09:36Z</time></trkpt><trkpt lat="42.308884421037924" lon="13.296369825604687"><ele>772.5</ele><time>2026-04-27T14:09:37Z</time></trkpt><trkpt lat="42.308816310457956" lon="13.296506459393468"><ele>773.25</ele><time>2026-04-27T14:09:38Z</time></trkpt><trkpt lat="42.30875303963155" lon="13.296652432906349"><ele>774.0</ele><time>2026-04-27T14:09:39Z</time></trkpt><trkpt lat="42.30869740514607" lon="13.296808129722047"><ele>774.0</ele><time>2026-04-27T14:09:40Z</time></trkpt><trkpt lat="42.30864868515646" lon="13.296960103127297"><ele>774.0</ele><time>2026-04-27T14:09:41Z</time></trkpt><trkpt lat="42.30859577084613" lon="13.29710155483277"><ele>774.0</ele><time>2026-04-27T14:09:42Z</time></trkpt><trkpt lat="42.308530319458896" lon="13.297244278446277"><ele>774.0</ele><time>2026-04-27T14:09:43Z</time></trkpt><trkpt lat="42.30846428222394" lon="13.297365623382808"><ele>773.4000000000001</ele><time>2026-04-27T14:09:44Z</time></trkpt><trkpt lat="42.30840201964222" lon="13.297478703018356"><ele>772.8</ele><time>2026-04-27T14:09:45Z</time></trkpt><trkpt lat="42.308347461516014" lon="13.297603044624923"><ele>772.2</ele><time>2026-04-27T14:09:46Z</time></trkpt><trkpt lat="42.308322705131935" lon="13.297739144842959"><ele>771.5999999999999</ele><time>2026-04-27T14:09:47Z</time></trkpt><trkpt lat="42.30834484355391" lon="13.297883141826757"><ele>771.0</ele><time>2026-04-27T14:09:48Z</time></trkpt><trkpt lat="42.30836471920852" lon="13.298032409694207"><ele>770.5</ele><time>2026-04-27T14:09:49Z</time></trkpt><trkpt lat="42.308381329154315" lon="13.298172141712966"><ele>770.0</ele><time>2026-04-27T14:09:50Z</time></trkpt><trkpt lat="42.30839508440125" lon="13.298287436573036"><ele>769.5</ele><time>2026-04-27T14:09:51Z</time></trkpt><trkpt lat="42.30839522304902" lon="13.29838225908293"><ele>769.0</ele><time>2026-04-27T14:09:52Z</time></trkpt><trkpt lat="42.308307113079074" lon="13.298473656594796"><ele>768.5</ele><time>2026-04-27T14:09:54Z</time></trkpt><trkpt lat="42.308232663991944" lon="13.298490973602876"><ele>768.0</ele><time>2026-04-27T14:09:55Z</time></trkpt><trkpt lat="42.30816177746413" lon="13.298545775236683"><ele>768.0</ele><time>2026-04-27T14:09:56Z</time></trkpt><trkpt lat="42.30807887655366" lon="13.29861170133825"><ele>768.0</ele><time>2026-04-27T14:09:57Z</time></trkpt><trkpt lat="42.30797648900297" lon="13.298632184145458"><ele>768.0</ele><time>2026-04-27T14:09:58Z</time></trkpt><trkpt lat="42.307862502691" lon="13.298622013867487"><ele>768.0</ele><time>2026-04-27T14:09:58.999Z</time></trkpt><trkpt lat="42.307752992133565" lon="13.298631991383925"><ele>768.0</ele><time>2026-04-27T14:09:59.999Z</time></trkpt><trkpt lat="42.30766067679756" lon="13.29867607492472"><ele>769.4</ele><time>2026-04-27T14:10:00.999Z</time></trkpt><trkpt lat="42.30758649891637" lon="13.298761175432368"><ele>770.8</ele><time>2026-04-27T14:10:01.999Z</time></trkpt><trkpt lat="42.307518642113536" lon="13.298858989522403"><ele>772.2</ele><time>2026-04-27T14:10:02.999Z</time></trkpt><trkpt lat="42.30748061626342" lon="13.298996927776379"><ele>773.6</ele><time>2026-04-27T14:10:03.999Z</time></trkpt><trkpt lat="42.30745164897073" lon="13.299138365304728"><ele>775.0</ele><time>2026-04-27T14:10:04.999Z</time></trkpt><trkpt lat="42.30741450588674" lon="13.299268015492139"><ele>775.2</ele><time>2026-04-27T14:10:05.999Z</time></trkpt><trkpt lat="42.307350829182816" lon="13.29932939029385"><ele>775.4</ele><time>2026-04-27T14:10:06.999Z</time></trkpt><trkpt lat="42.30726641796256" lon="13.299333906321587"><ele>775.5999999999999</ele><time>2026-04-27T14:10:07.999Z</time></trkpt><trkpt lat="42.30714198939042" lon="13.299313496054161"><ele>775.8</ele><time>2026-04-27T14:10:08.999Z</time></trkpt><trkpt lat="42.3070249584991" lon="13.299307535998045"><ele>776.0</ele><time>2026-04-27T14:10:09.999Z</time></trkpt><trkpt lat="42.306956024817595" lon="13.29927697039834"><ele>776.0000000000001</ele><time>2026-04-27T14:10:10.999Z</time></trkpt><trkpt lat="42.30686883190329" lon="13.299343243465566"><ele>776.0</ele><time>2026-04-27T14:10:12.999Z</time></trkpt><trkpt lat="42.306813023919844" lon="13.299439936913176"><ele>776.0</ele><time>2026-04-27T14:10:13.999Z</time></trkpt><trkpt lat="42.30671913275602" lon="13.299483914768713"><ele>776.0</ele><time>2026-04-27T14:10:15.999Z</time></trkpt><trkpt lat="42.30665616224125" lon="13.299469555552044"><ele>776.0000000000001</ele><time>2026-04-27T14:10:16.999Z</time></trkpt><trkpt lat="42.30659266869684" lon="13.299493320332436"><ele>776.0</ele><time>2026-04-27T14:10:17.999Z</time></trkpt><trkpt lat="42.306600226418915" lon="13.29960251443243"><ele>776.0</ele><time>2026-04-27T14:10:19.999Z</time></trkpt><trkpt lat="42.30655628765309" lon="13.299719265519261"><ele>776.0</ele><time>2026-04-27T14:10:20.999Z</time></trkpt><trkpt lat="42.3064813425827" lon="13.299792798889317"><ele>776.0</ele><time>2026-04-27T14:10:21.999Z</time></trkpt><trkpt lat="42.30641222249615" lon="13.299830220673645"><ele>776.0</ele><time>2026-04-27T14:10:22.999Z</time></trkpt><trkpt lat="42.30629825562597" lon="13.299909120128302"><ele>776.0</ele><time>2026-04-27T14:10:24.999Z</time></trkpt><trkpt lat="42.30623995781878" lon="13.299973205330446"><ele>776.1999999999999</ele><time>2026-04-27T14:10:25.999Z</time></trkpt><trkpt lat="42.306181021359805" lon="13.300022994916255"><ele>776.4</ele><time>2026-04-27T14:10:26.999Z</time></trkpt><trkpt lat="42.30607340705845" lon="13.300016161188323"><ele>776.6</ele><time>2026-04-27T14:10:28.999Z</time></trkpt><trkpt lat="42.30595934771316" lon="13.299977970685136"><ele>776.8</ele><time>2026-04-27T14:10:30.999Z</time></trkpt><trkpt lat="42.30589646683999" lon="13.30001971953376"><ele>777.0</ele><time>2026-04-27T14:10:31.999Z</time></trkpt><trkpt lat="42.30582963073934" lon="13.300090647507865"><ele>777.0</ele><time>2026-04-27T14:10:32.999Z</time></trkpt><trkpt lat="42.30575246326973" lon="13.300171546576964"><ele>777.0</ele><time>2026-04-27T14:10:33.999Z</time></trkpt><trkpt lat="42.30567503260999" lon="13.300232866597522"><ele>777.0</ele><time>2026-04-27T14:10:34.999Z</time></trkpt><trkpt lat="42.30557251068637" lon="13.300285349524142"><ele>777.0</ele><time>2026-04-27T14:10:35.999Z</time></trkpt><trkpt lat="42.30550565643741" lon="13.300344272434437"><ele>777.0</ele><time>2026-04-27T14:10:36.999Z</time></trkpt><trkpt lat="42.30545422088478" lon="13.300420902305651"><ele>777.3333333333334</ele><time>2026-04-27T14:10:37.999Z</time></trkpt><trkpt lat="42.30539945243001" lon="13.300472019449439"><ele>777.6666666666667</ele><time>2026-04-27T14:10:38.999Z</time></trkpt><trkpt lat="42.30531734282971" lon="13.30047221261546"><ele>778.0</ele><time>2026-04-27T14:10:39.999Z</time></trkpt><trkpt lat="42.30523685291459" lon="13.30047659173842"><ele>778.3333333333334</ele><time>2026-04-27T14:10:40.999Z</time></trkpt><trkpt lat="42.30517668276883" lon="13.300522058670737"><ele>778.6666666666667</ele><time>2026-04-27T14:10:41.999Z</time></trkpt><trkpt lat="42.305120685518084" lon="13.300611299795815"><ele>779.0</ele><time>2026-04-27T14:10:42.999Z</time></trkpt><trkpt lat="42.30504031151817" lon="13.300700110463705"><ele>779.0</ele><time>2026-04-27T14:10:43.999Z</time></trkpt><trkpt lat="42.30494178539719" lon="13.300769033798483"><ele>779.0</ele><time>2026-04-27T14:10:44.999Z</time></trkpt><trkpt lat="42.30483466671838" lon="13.300829626359151"><ele>779.0</ele><time>2026-04-27T14:10:45.999Z</time></trkpt><trkpt lat="42.30472858426008" lon="13.300897509549305"><ele>779.0</ele><time>2026-04-27T14:10:46.999Z</time></trkpt><trkpt lat="42.30461958015866" lon="13.300947710821864"><ele>779.1666666666667</ele><time>2026-04-27T14:10:47.999Z</time></trkpt><trkpt lat="42.30453504407694" lon="13.300962480001257"><ele>779.3333333333334</ele><time>2026-04-27T14:10:48.999Z</time></trkpt><trkpt lat="42.30446165923989" lon="13.300955664928527"><ele>779.5</ele><time>2026-04-27T14:10:49.999Z</time></trkpt><trkpt lat="42.30438991482763" lon="13.300938238566554"><ele>779.6666666666667</ele><time>2026-04-27T14:10:50.999Z</time></trkpt><trkpt lat="42.30430951508132" lon="13.300916589320611"><ele>779.8333333333334</ele><time>2026-04-27T14:10:51.999Z</time></trkpt><trkpt lat="42.304225348870055" lon="13.300914378900993"><ele>780.0</ele><time>2026-04-27T14:10:52.999Z</time></trkpt><trkpt lat="42.30414660417661" lon="13.300960801451815"><ele>780.0</ele><time>2026-04-27T14:10:53.999Z</time></trkpt><trkpt lat="42.30409986108463" lon="13.301077890664322"><ele>780.0</ele><time>2026-04-27T14:10:54.999Z</time></trkpt><trkpt lat="42.30405271557563" lon="13.301195830308195"><ele>780.0</ele><time>2026-04-27T14:10:55.999Z</time></trkpt><trkpt lat="42.303994389291965" lon="13.301286598023024"><ele>780.0</ele><time>2026-04-27T14:10:56.999Z</time></trkpt><trkpt lat="42.30388785669117" lon="13.301369811347316"><ele>780.0</ele><time>2026-04-27T14:10:57.999Z</time></trkpt><trkpt lat="42.30380999690871" lon="13.301414038436222"><ele>781.0</ele><time>2026-04-27T14:10:58.999Z</time></trkpt><trkpt lat="42.30374227884852" lon="13.301411610791702"><ele>782.0</ele><time>2026-04-27T14:11:00Z</time></trkpt><trkpt lat="42.3036256796575" lon="13.301422384759986"><ele>783.0</ele><time>2026-04-27T14:11:02Z</time></trkpt><trkpt lat="42.30350065551337" lon="13.301435094702583"><ele>784.0</ele><time>2026-04-27T14:11:04Z</time></trkpt><trkpt lat="42.30342134449968" lon="13.301486815902946"><ele>785.0</ele><time>2026-04-27T14:11:05Z</time></trkpt><trkpt lat="42.30335092097792" lon="13.301532465319863"><ele>785.0000000000001</ele><time>2026-04-27T14:11:06Z</time></trkpt><trkpt lat="42.30327504212823" lon="13.301562218353295"><ele>785.0</ele><time>2026-04-27T14:11:07Z</time></trkpt><trkpt lat="42.30320637518646" lon="13.301563340276804"><ele>785.0</ele><time>2026-04-27T14:11:08Z</time></trkpt><trkpt lat="42.30314177711" lon="13.301555346696173"><ele>785.0</ele><time>2026-04-27T14:11:09Z</time></trkpt><trkpt lat="42.30305372984705" lon="13.30154034756503"><ele>785.0000000000001</ele><time>2026-04-27T14:11:10Z</time></trkpt><trkpt lat="42.302960906511984" lon="13.301546814158442"><ele>785.0</ele><time>2026-04-27T14:11:11Z</time></trkpt><trkpt lat="42.30286115230947" lon="13.301589941289432"><ele>785.4</ele><time>2026-04-27T14:11:12Z</time></trkpt><trkpt lat="42.30276751610008" lon="13.301630851376192"><ele>785.8</ele><time>2026-04-27T14:11:13Z</time></trkpt><trkpt lat="42.302669806850794" lon="13.30168004535188"><ele>786.2</ele><time>2026-04-27T14:11:14Z</time></trkpt><trkpt lat="42.30258595025288" lon="13.301705858585558"><ele>786.6</ele><time>2026-04-27T14:11:15Z</time></trkpt><trkpt lat="42.302506654644134" lon="13.301690515432785"><ele>787.0</ele><time>2026-04-27T14:11:16Z</time></trkpt><trkpt lat="42.30242683628055" lon="13.301653025861414"><ele>787.0</ele><time>2026-04-27T14:11:17Z</time></trkpt><trkpt lat="42.30231493431573" lon="13.301686370611263"><ele>787.0</ele><time>2026-04-27T14:11:19Z</time></trkpt><trkpt lat="42.30224892268366" lon="13.301740202557566"><ele>787.0</ele><time>2026-04-27T14:11:20Z</time></trkpt><trkpt lat="42.30217202991858" lon="13.301813641607053"><ele>787.0</ele><time>2026-04-27T14:11:21Z</time></trkpt><trkpt lat="42.302092982376074" lon="13.30185289631539"><ele>787.0</ele><time>2026-04-27T14:11:22Z</time></trkpt><trkpt lat="42.3020072340316" lon="13.301878350964593"><ele>787.0</ele><time>2026-04-27T14:11:24Z</time></trkpt><trkpt lat="42.30194078980087" lon="13.301971305194924"><ele>787.0</ele><time>2026-04-27T14:11:26Z</time></trkpt><trkpt lat="42.301891378777746" lon="13.30207571226226"><ele>787.0</ele><time>2026-04-27T14:11:28Z</time></trkpt><trkpt lat="42.301805171710214" lon="13.302175352405675"><ele>787.0</ele><time>2026-04-27T14:11:30Z</time></trkpt><trkpt lat="42.301786233589254" lon="13.302283516427059"><ele>787.0</ele><time>2026-04-27T14:11:31Z</time></trkpt><trkpt lat="42.30185879341944" lon="13.3022039244095"><ele>788.1428571428571</ele><time>2026-04-27T14:11:37Z</time></trkpt><trkpt lat="42.30192204145161" lon="13.302255646835999"><ele>789.2857142857142</ele><time>2026-04-27T14:11:38Z</time></trkpt><trkpt lat="42.30195473006482" lon="13.302329099722476"><ele>790.4285714285714</ele><time>2026-04-27T14:11:39Z</time></trkpt><trkpt lat="42.30199687399645" lon="13.302404068494598"><ele>791.5714285714286</ele><time>2026-04-27T14:11:40Z</time></trkpt><trkpt lat="42.30204344382872" lon="13.302486628741208"><ele>792.7142857142858</ele><time>2026-04-27T14:11:41Z</time></trkpt><trkpt lat="42.30209407053955" lon="13.302553087500943"><ele>793.8571428571429</ele><time>2026-04-27T14:11:42Z</time></trkpt><trkpt lat="42.30215154618502" lon="13.302603542306263"><ele>795.0</ele><time>2026-04-27T14:11:43Z</time></trkpt><trkpt lat="42.30222551935318" lon="13.302630243202993"><ele>794.6</ele><time>2026-04-27T14:11:44Z</time></trkpt><trkpt lat="42.30229197073975" lon="13.302640878890557"><ele>794.2</ele><time>2026-04-27T14:11:45Z</time></trkpt><trkpt lat="42.30239973694799" lon="13.30268445680314"><ele>793.8</ele><time>2026-04-27T14:11:47Z</time></trkpt><trkpt lat="42.30246086986192" lon="13.302715605115381"><ele>793.4</ele><time>2026-04-27T14:11:48Z</time></trkpt><trkpt lat="42.302581496028225" lon="13.30280237713501"><ele>793.0</ele><time>2026-04-27T14:11:50Z</time></trkpt><trkpt lat="42.30264762415214" lon="13.302838963033496"><ele>792.9999999999999</ele><time>2026-04-27T14:11:51Z</time></trkpt><trkpt lat="42.302710727993166" lon="13.302860604447606"><ele>793.0</ele><time>2026-04-27T14:11:52Z</time></trkpt><trkpt lat="42.30277768195791" lon="13.302870936781696"><ele>793.0</ele><time>2026-04-27T14:11:53Z</time></trkpt><trkpt lat="42.302905492446484" lon="13.302855938146159"><ele>793.0</ele><time>2026-04-27T14:11:55Z</time></trkpt><trkpt lat="42.302975557055376" lon="13.302844307934778"><ele>792.9999999999999</ele><time>2026-04-27T14:11:56Z</time></trkpt><trkpt lat="42.30305536192882" lon="13.302814003027972"><ele>793.0</ele><time>2026-04-27T14:11:57Z</time></trkpt><trkpt lat="42.30315092466101" lon="13.302794995710792"><ele>793.0</ele><time>2026-04-27T14:11:58Z</time></trkpt><trkpt lat="42.303262457036006" lon="13.302797597852845"><ele>793.0</ele><time>2026-04-27T14:11:59Z</time></trkpt><trkpt lat="42.30337176826167" lon="13.302773571947167"><ele>793.0</ele><time>2026-04-27T14:12:00Z</time></trkpt><trkpt lat="42.30348730611444" lon="13.30275202187744"><ele>793.0</ele><time>2026-04-27T14:12:00.999Z</time></trkpt><trkpt lat="42.30360611468994" lon="13.302732433134485"><ele>793.0</ele><time>2026-04-27T14:12:01.999Z</time></trkpt><trkpt lat="42.30372294636147" lon="13.302719545137935"><ele>793.0</ele><time>2026-04-27T14:12:02.999Z</time></trkpt><trkpt lat="42.3038384219884" lon="13.302719220158927"><ele>793.0</ele><time>2026-04-27T14:12:03.999Z</time></trkpt><trkpt lat="42.30395326368327" lon="13.302708739058094"><ele>793.0</ele><time>2026-04-27T14:12:04.999Z</time></trkpt><trkpt lat="42.30408577857071" lon="13.302734359992238"><ele>794.3333333333333</ele><time>2026-04-27T14:12:05.999Z</time></trkpt><trkpt lat="42.30423100700406" lon="13.302782882087223"><ele>795.6666666666667</ele><time>2026-04-27T14:12:06.999Z</time></trkpt><trkpt lat="42.304397574970736" lon="13.302805973246645"><ele>797.0</ele><time>2026-04-27T14:12:07.999Z</time></trkpt><trkpt lat="42.304555460488345" lon="13.302777969347598"><ele>797.0</ele><time>2026-04-27T14:12:08.999Z</time></trkpt><trkpt lat="42.30470892884612" lon="13.302722555273098"><ele>797.0</ele><time>2026-04-27T14:12:09.999Z</time></trkpt><trkpt lat="42.30486582100073" lon="13.302645194398055"><ele>797.0</ele><time>2026-04-27T14:12:10.999Z</time></trkpt><trkpt lat="42.30502902022128" lon="13.30257426955787"><ele>799.3333333333334</ele><time>2026-04-27T14:12:11.999Z</time></trkpt><trkpt lat="42.305197491247206" lon="13.30251785001672"><ele>801.6666666666667</ele><time>2026-04-27T14:12:12.999Z</time></trkpt><trkpt lat="42.30536759289446" lon="13.302469453063186"><ele>804.0</ele><time>2026-04-27T14:12:13.999Z</time></trkpt><trkpt lat="42.30554226758764" lon="13.302421223412912"><ele>804.6666666666667</ele><time>2026-04-27T14:12:14.999Z</time></trkpt><trkpt lat="42.30572423642736" lon="13.302376895273948"><ele>805.3333333333334</ele><time>2026-04-27T14:12:15.999Z</time></trkpt><trkpt lat="42.305909764665095" lon="13.302326787799394"><ele>806.0</ele><time>2026-04-27T14:12:16.999Z</time></trkpt><trkpt lat="42.30609806269519" lon="13.302273123647236"><ele>803.0</ele><time>2026-04-27T14:12:17.999Z</time></trkpt><trkpt lat="42.30628207521257" lon="13.302206207103891"><ele>800.0</ele><time>2026-04-27T14:12:18.999Z</time></trkpt><trkpt lat="42.30646502285025" lon="13.302129870558575"><ele>797.0</ele><time>2026-04-27T14:12:19.999Z</time></trkpt><trkpt lat="42.30664766456583" lon="13.302046068158326"><ele>797.0</ele><time>2026-04-27T14:12:20.999Z</time></trkpt><trkpt lat="42.30683010973402" lon="13.30196381806588"><ele>797.0</ele><time>2026-04-27T14:12:21.999Z</time></trkpt><trkpt lat="42.30701609082379" lon="13.301893190944007"><ele>797.0</ele><time>2026-04-27T14:12:22.999Z</time></trkpt><trkpt lat="42.307207313091986" lon="13.301832289298735"><ele>798.0</ele><time>2026-04-27T14:12:23.999Z</time></trkpt><trkpt lat="42.30740245891545" lon="13.301780400420311"><ele>799.0</ele><time>2026-04-27T14:12:24.999Z</time></trkpt><trkpt lat="42.30759966838654" lon="13.301726190538734"><ele>800.0</ele><time>2026-04-27T14:12:25.999Z</time></trkpt><trkpt lat="42.30777881272818" lon="13.30167134432876"><ele>800.0</ele><time>2026-04-27T14:12:26.999Z</time></trkpt><trkpt lat="42.30794100633958" lon="13.301596257630068"><ele>800.0</ele><time>2026-04-27T14:12:27.999Z</time></trkpt><trkpt lat="42.30809709380983" lon="13.301510133958791"><ele>800.0</ele><time>2026-04-27T14:12:28.999Z</time></trkpt><trkpt lat="42.308230220614604" lon="13.301356107328541"><ele>799.0</ele><time>2026-04-27T14:12:29.999Z</time></trkpt><trkpt lat="42.30834960464715" lon="13.30118200464746"><ele>798.0</ele><time>2026-04-27T14:12:30.999Z</time></trkpt><trkpt lat="42.30847268800335" lon="13.301023790864182"><ele>797.0</ele><time>2026-04-27T14:12:31.999Z</time></trkpt><trkpt lat="42.308600956573926" lon="13.300870159020004"><ele>797.0</ele><time>2026-04-27T14:12:32.999Z</time></trkpt><trkpt lat="42.30872944768213" lon="13.30073436219033"><ele>797.0</ele><time>2026-04-27T14:12:33.999Z</time></trkpt><trkpt lat="42.30886812167974" lon="13.300619692347059"><ele>797.0</ele><time>2026-04-27T14:12:34.999Z</time></trkpt><trkpt lat="42.30901752285905" lon="13.300523700114132"><ele>796.3333333333334</ele><time>2026-04-27T14:12:35.999Z</time></trkpt><trkpt lat="42.309170791662844" lon="13.300432892755044"><ele>795.6666666666667</ele><time>2026-04-27T14:12:36.999Z</time></trkpt><trkpt lat="42.309330748988415" lon="13.300359575048862"><ele>795.0</ele><time>2026-04-27T14:12:37.999Z</time></trkpt><trkpt lat="42.30949118091669" lon="13.300301587301707"><ele>795.0</ele><time>2026-04-27T14:12:38.999Z</time></trkpt><trkpt lat="42.30964068751079" lon="13.300258761875893"><ele>795.0</ele><time>2026-04-27T14:12:39.999Z</time></trkpt><trkpt lat="42.30979420842326" lon="13.300213900778875"><ele>795.0</ele><time>2026-04-27T14:12:40.999Z</time></trkpt><trkpt lat="42.3099381718743" lon="13.300153966742885"><ele>797.25</ele><time>2026-04-27T14:12:41.999Z</time></trkpt><trkpt lat="42.31007020612229" lon="13.300068557383828"><ele>799.5</ele><time>2026-04-27T14:12:42.999Z</time></trkpt><trkpt lat="42.31015979305911" lon="13.299932045907278"><ele>801.75</ele><time>2026-04-27T14:12:43.999Z</time></trkpt><trkpt lat="42.31021520430043" lon="13.299784015247626"><ele>804.0</ele><time>2026-04-27T14:12:44.999Z</time></trkpt><trkpt lat="42.31024593910294" lon="13.299705978018899"><ele>804.8000000000001</ele><time>2026-04-27T14:12:45.999Z</time></trkpt><trkpt lat="42.310228972616834" lon="13.299822491871623"><ele>805.6</ele><time>2026-04-27T14:12:51.999Z</time></trkpt><trkpt lat="42.310300804076185" lon="13.299905808523151"><ele>806.4</ele><time>2026-04-27T14:12:52.999Z</time></trkpt><trkpt lat="42.31036264231774" lon="13.300006103073065"><ele>807.2</ele><time>2026-04-27T14:12:53.999Z</time></trkpt><trkpt lat="42.31042593369686" lon="13.300118263823443"><ele>808.0</ele><time>2026-04-27T14:12:54.999Z</time></trkpt><trkpt lat="42.310490644674154" lon="13.300238045871469"><ele>808.0</ele><time>2026-04-27T14:12:55.999Z</time></trkpt><trkpt lat="42.310548048019065" lon="13.300356715032722"><ele>808.0</ele><time>2026-04-27T14:12:56.999Z</time></trkpt><trkpt lat="42.31060399438971" lon="13.300458595218636"><ele>808.0</ele><time>2026-04-27T14:12:57.999Z</time></trkpt><trkpt lat="42.3106603974273" lon="13.300549640704313"><ele>808.0</ele><time>2026-04-27T14:12:58.999Z</time></trkpt><trkpt lat="42.3107228612126" lon="13.300622917645164"><ele>808.0</ele><time>2026-04-27T14:12:59.999Z</time></trkpt><trkpt lat="42.31080023027658" lon="13.300680511050963"><ele>810.6666666666666</ele><time>2026-04-27T14:13:00.999Z</time></trkpt><trkpt lat="42.3108645446468" lon="13.300733667733372"><ele>813.3333333333333</ele><time>2026-04-27T14:13:01.999Z</time></trkpt><trkpt lat="42.310912243022166" lon="13.300816790862733"><ele>816.0</ele><time>2026-04-27T14:13:02.999Z</time></trkpt><trkpt lat="42.31093762610421" lon="13.300925660648264"><ele>818.6666666666667</ele><time>2026-04-27T14:13:03.999Z</time></trkpt><trkpt lat="42.310977308943976" lon="13.301029530360045"><ele>821.3333333333334</ele><time>2026-04-27T14:13:04.998Z</time></trkpt><trkpt lat="42.31102083398837" lon="13.3011454976801"><ele>824.0</ele><time>2026-04-27T14:13:06Z</time></trkpt><trkpt lat="42.311047067976375" lon="13.301251399741044"><ele>824.0000000000001</ele><time>2026-04-27T14:13:07Z</time></trkpt><trkpt lat="42.311051751766854" lon="13.301367040676478"><ele>824.0</ele><time>2026-04-27T14:13:09Z</time></trkpt><trkpt lat="42.31100549584329" lon="13.301440292027216"><ele>824.0</ele><time>2026-04-27T14:13:10Z</time></trkpt><trkpt lat="42.31094697724002" lon="13.301516011720384"><ele>824.0</ele><time>2026-04-27T14:13:11Z</time></trkpt><trkpt lat="42.3108852904939" lon="13.301601206470824"><ele>824.0000000000001</ele><time>2026-04-27T14:13:12Z</time></trkpt><trkpt lat="42.31082220646541" lon="13.301676657836863"><ele>824.0</ele><time>2026-04-27T14:13:13Z</time></trkpt><trkpt lat="42.31077166710775" lon="13.301772276591741"><ele>825.8000000000001</ele><time>2026-04-27T14:13:14Z</time></trkpt><trkpt lat="42.31072254626396" lon="13.301882442140437"><ele>827.6</ele><time>2026-04-27T14:13:15Z</time></trkpt><trkpt lat="42.31069652602491" lon="13.30197139027387"><ele>829.4</ele><time>2026-04-27T14:13:16Z</time></trkpt><trkpt lat="42.31073101563105" lon="13.3020573629503"><ele>831.2</ele><time>2026-04-27T14:13:17Z</time></trkpt><trkpt lat="42.31081640136679" lon="13.302157738441212"><ele>833.0</ele><time>2026-04-27T14:13:18Z</time></trkpt><trkpt lat="42.31089176658945" lon="13.302269117316113"><ele>834.2</ele><time>2026-04-27T14:13:19Z</time></trkpt><trkpt lat="42.31095022707786" lon="13.302375574819088"><ele>835.4</ele><time>2026-04-27T14:13:20Z</time></trkpt><trkpt lat="42.31097331515781" lon="13.302474287417512"><ele>836.6</ele><time>2026-04-27T14:13:21Z</time></trkpt><trkpt lat="42.31098796417914" lon="13.302600916604552"><ele>837.8000000000001</ele><time>2026-04-27T14:13:22Z</time></trkpt><trkpt lat="42.31099830308106" lon="13.302731916678765"><ele>839.0</ele><time>2026-04-27T14:13:23Z</time></trkpt><trkpt lat="42.311015004755006" lon="13.302856285981935"><ele>839.0</ele><time>2026-04-27T14:13:24Z</time></trkpt><trkpt lat="42.31103865107254" lon="13.302974399314298"><ele>839.0</ele><time>2026-04-27T14:13:25Z</time></trkpt><trkpt lat="42.311053858334255" lon="13.303097651021245"><ele>839.0</ele><time>2026-04-27T14:13:26Z</time></trkpt><trkpt lat="42.31107100182884" lon="13.303223201818321"><ele>839.0</ele><time>2026-04-27T14:13:27Z</time></trkpt><trkpt lat="42.31109214985651" lon="13.303352914174315"><ele>839.0</ele><time>2026-04-27T14:13:28Z</time></trkpt><trkpt lat="42.311106097377724" lon="13.303504179097"><ele>841.2</ele><time>2026-04-27T14:13:29Z</time></trkpt><trkpt lat="42.311106881190305" lon="13.303645117298052"><ele>843.4000000000001</ele><time>2026-04-27T14:13:30Z</time></trkpt><trkpt lat="42.311085400319826" lon="13.303788421512401"><ele>845.6</ele><time>2026-04-27T14:13:31Z</time></trkpt><trkpt lat="42.31105267044616" lon="13.303929257702482"><ele>847.8</ele><time>2026-04-27T14:13:32Z</time></trkpt><trkpt lat="42.31101864105176" lon="13.304066282030588"><ele>850.0</ele><time>2026-04-27T14:13:33Z</time></trkpt><trkpt lat="42.31098152473723" lon="13.304167887740338"><ele>852.3333333333333</ele><time>2026-04-27T14:13:34Z</time></trkpt><trkpt lat="42.31096062148289" lon="13.304253912143412"><ele>854.6666666666666</ele><time>2026-04-27T14:13:35Z</time></trkpt><trkpt lat="42.31096445493315" lon="13.30435583578678"><ele>857.0</ele><time>2026-04-27T14:13:36Z</time></trkpt><trkpt lat="42.310983934194205" lon="13.304485543782292"><ele>859.3333333333333</ele><time>2026-04-27T14:13:37Z</time></trkpt><trkpt lat="42.311008974777906" lon="13.304614217236526"><ele>861.6666666666666</ele><time>2026-04-27T14:13:38Z</time></trkpt><trkpt lat="42.31102513132377" lon="13.30473826979332"><ele>864.0</ele><time>2026-04-27T14:13:39Z</time></trkpt><trkpt lat="42.31102627854908" lon="13.304864111619631"><ele>865.8333333333334</ele><time>2026-04-27T14:13:40Z</time></trkpt><trkpt lat="42.31102439358089" lon="13.304989975981377"><ele>867.6666666666667</ele><time>2026-04-27T14:13:41Z</time></trkpt><trkpt lat="42.31102854380525" lon="13.30511463459604"><ele>869.5</ele><time>2026-04-27T14:13:42Z</time></trkpt><trkpt lat="42.311031077438784" lon="13.30522319979371"><ele>871.3333333333334</ele><time>2026-04-27T14:13:43Z</time></trkpt><trkpt lat="42.31101724972887" lon="13.305317853629624"><ele>873.1666666666667</ele><time>2026-04-27T14:13:44Z</time></trkpt><trkpt lat="42.3109959743001" lon="13.305425631062429"><ele>875.0</ele><time>2026-04-27T14:13:45Z</time></trkpt><trkpt lat="42.31097495613637" lon="13.305530687406945"><ele>876.2</ele><time>2026-04-27T14:13:46Z</time></trkpt><trkpt lat="42.31095967973697" lon="13.305630489760556"><ele>877.4</ele><time>2026-04-27T14:13:47Z</time></trkpt><trkpt lat="42.31103851362063" lon="13.305655473159558"><ele>878.5999999999999</ele><time>2026-04-27T14:13:50Z</time></trkpt><trkpt lat="42.31116574845729" lon="13.305669575915896"><ele>879.8</ele><time>2026-04-27T14:13:52Z</time></trkpt><trkpt lat="42.31124565232759" lon="13.30564490627705"><ele>881.0</ele><time>2026-04-27T14:13:53Z</time></trkpt><trkpt lat="42.31134178996142" lon="13.305616371824108"><ele>881.8333333333334</ele><time>2026-04-27T14:13:55Z</time></trkpt><trkpt lat="42.311410392080866" lon="13.305677970454552"><ele>882.6666666666667</ele><time>2026-04-27T14:13:56Z</time></trkpt><trkpt lat="42.311491316492685" lon="13.305699027286627"><ele>883.5</ele><time>2026-04-27T14:13:57Z</time></trkpt><trkpt lat="42.31154046877769" lon="13.305768940701764"><ele>884.3333333333333</ele><time>2026-04-27T14:13:59Z</time></trkpt><trkpt lat="42.31160083273609" lon="13.305858527112107"><ele>885.1666666666666</ele><time>2026-04-27T14:14:02Z</time></trkpt><trkpt lat="42.31169519090412" lon="13.305856726411143"><ele>886.0</ele><time>2026-04-27T14:14:04Z</time></trkpt><trkpt lat="42.311846288361586" lon="13.30584193339568"><ele>885.9999999999999</ele><time>2026-04-27T14:14:05.999Z</time></trkpt><trkpt lat="42.311906943794966" lon="13.305775653257529"><ele>886.0</ele><time>2026-04-27T14:14:06.999Z</time></trkpt><trkpt lat="42.311972097686315" lon="13.305717854500228"><ele>886.0</ele><time>2026-04-27T14:14:07.999Z</time></trkpt><trkpt lat="42.31204493143981" lon="13.305651711514795"><ele>886.0</ele><time>2026-04-27T14:14:08.999Z</time></trkpt><trkpt lat="42.312119878125124" lon="13.305576913878156"><ele>885.9999999999999</ele><time>2026-04-27T14:14:09.999Z</time></trkpt><trkpt lat="42.31219131796175" lon="13.305501206660873"><ele>886.0</ele><time>2026-04-27T14:14:10.999Z</time></trkpt><trkpt lat="42.31225462527776" lon="13.305411453734552"><ele>886.4</ele><time>2026-04-27T14:14:11.999Z</time></trkpt><trkpt lat="42.312321586755736" lon="13.305322019733204"><ele>886.8</ele><time>2026-04-27T14:14:12.999Z</time></trkpt><trkpt lat="42.312381128167026" lon="13.305222764357545"><ele>887.1999999999999</ele><time>2026-04-27T14:14:13.999Z</time></trkpt><trkpt lat="42.31245326794146" lon="13.305115007323591"><ele>887.5999999999999</ele><time>2026-04-27T14:14:14.999Z</time></trkpt><trkpt lat="42.31252245785801" lon="13.30501307266013"><ele>888.0</ele><time>2026-04-27T14:14:15.999Z</time></trkpt><trkpt lat="42.31259672330174" lon="13.30490894081189"><ele>888.0</ele><time>2026-04-27T14:14:16.999Z</time></trkpt><trkpt lat="42.312661099782375" lon="13.304819529499609"><ele>888.0</ele><time>2026-04-27T14:14:17.999Z</time></trkpt><trkpt lat="42.312756147047324" lon="13.304718594545557"><ele>888.0</ele><time>2026-04-27T14:14:18.999Z</time></trkpt><trkpt lat="42.312846970475306" lon="13.304611522658941"><ele>888.0</ele><time>2026-04-27T14:14:19.999Z</time></trkpt><trkpt lat="42.312929220098404" lon="13.304520057167654"><ele>888.0</ele><time>2026-04-27T14:14:20.999Z</time></trkpt><trkpt lat="42.31300953452709" lon="13.304451501523465"><ele>887.8</ele><time>2026-04-27T14:14:21.999Z</time></trkpt><trkpt lat="42.313107739834855" lon="13.30443878519505"><ele>887.5999999999999</ele><time>2026-04-27T14:14:22.999Z</time></trkpt><trkpt lat="42.31324515139332" lon="13.304385685944563"><ele>887.4000000000001</ele><time>2026-04-27T14:14:23.999Z</time></trkpt><trkpt lat="42.3133125677809" lon="13.304350289829591"><ele>887.2</ele><time>2026-04-27T14:14:24.999Z</time></trkpt><trkpt lat="42.31337466339085" lon="13.304323411509722"><ele>887.0</ele><time>2026-04-27T14:14:27.999Z</time></trkpt><trkpt lat="42.31349122342025" lon="13.304355533216533"><ele>887.0</ele><time>2026-04-27T14:14:29.999Z</time></trkpt><trkpt lat="42.313552905699765" lon="13.30438455295141"><ele>887.0</ele><time>2026-04-27T14:14:31.999Z</time></trkpt><trkpt lat="42.313585133336176" lon="13.304461076334501"><ele>887.0</ele><time>2026-04-27T14:14:33.999Z</time></trkpt><trkpt lat="42.31375238475948" lon="13.304644066316317"><ele>887.0</ele><time>2026-04-27T14:14:36.999Z</time></trkpt><trkpt lat="42.313720589716084" lon="13.304745885905591"><ele>887.0</ele><time>2026-04-27T14:14:37.999Z</time></trkpt><trkpt lat="42.31366624628027" lon="13.304852287857116"><ele>887.5000000000001</ele><time>2026-04-27T14:14:38.999Z</time></trkpt><trkpt lat="42.31366138735039" lon="13.304957826413522"><ele>888.0</ele><time>2026-04-27T14:14:39.999Z</time></trkpt><trkpt lat="42.313649420559386" lon="13.30506479819101"><ele>888.5</ele><time>2026-04-27T14:14:40.999Z</time></trkpt><trkpt lat="42.313638118379615" lon="13.305180424395155"><ele>889.0</ele><time>2026-04-27T14:14:41.999Z</time></trkpt><trkpt lat="42.31363890022018" lon="13.305301309724896"><ele>889.5000000000001</ele><time>2026-04-27T14:14:42.999Z</time></trkpt><trkpt lat="42.31362212123625" lon="13.305426993256617"><ele>890.0</ele><time>2026-04-27T14:14:43.999Z</time></trkpt><trkpt lat="42.31360704754581" lon="13.305549474739605"><ele>889.8</ele><time>2026-04-27T14:14:44.999Z</time></trkpt><trkpt lat="42.31359633333344" lon="13.30566789492049"><ele>889.6</ele><time>2026-04-27T14:14:45.999Z</time></trkpt><trkpt lat="42.31359390402328" lon="13.305809126183899"><ele>889.4000000000001</ele><time>2026-04-27T14:14:46.999Z</time></trkpt><trkpt lat="42.31366353626251" lon="13.305932051785199"><ele>889.2</ele><time>2026-04-27T14:14:47.999Z</time></trkpt><trkpt lat="42.313712353292516" lon="13.306040819259733"><ele>889.0</ele><time>2026-04-27T14:14:48.999Z</time></trkpt><trkpt lat="42.31376795217022" lon="13.306111472337362"><ele>889.0</ele><time>2026-04-27T14:14:49.999Z</time></trkpt><trkpt lat="42.31387484892468" lon="13.306145542542257"><ele>889.0000000000001</ele><time>2026-04-27T14:14:51.999Z</time></trkpt><trkpt lat="42.313949861443525" lon="13.306185025090155"><ele>889.0000000000001</ele><time>2026-04-27T14:14:52.999Z</time></trkpt><trkpt lat="42.3140427312265" lon="13.306212087717347"><ele>889.0</ele><time>2026-04-27T14:14:53.999Z</time></trkpt><trkpt lat="42.31411611001567" lon="13.30620633473386"><ele>889.0</ele><time>2026-04-27T14:14:54.999Z</time></trkpt><trkpt lat="42.314216457079205" lon="13.306284289368186"><ele>886.9999999999999</ele><time>2026-04-27T14:14:56.999Z</time></trkpt><trkpt lat="42.31431030256781" lon="13.306319774645328"><ele>885.0</ele><time>2026-04-27T14:14:58.999Z</time></trkpt><trkpt lat="42.31439203404221" lon="13.306301914383731"><ele>883.0</ele><time>2026-04-27T14:15:00.999Z</time></trkpt><trkpt lat="42.31445730322118" lon="13.306244054469072"><ele>881.0</ele><time>2026-04-27T14:15:01.999Z</time></trkpt><trkpt lat="42.31452430934644" lon="13.306136789998178"><ele>878.9999999999999</ele><time>2026-04-27T14:15:02.999Z</time></trkpt><trkpt lat="42.314566841655314" lon="13.306067992235718"><ele>877.0</ele><time>2026-04-27T14:15:03.999Z</time></trkpt><trkpt lat="42.31463496639499" lon="13.3060459933533"><ele>876.9999999999999</ele><time>2026-04-27T14:15:04.999Z</time></trkpt><trkpt lat="42.31471879559011" lon="13.306064031734746"><ele>877.0</ele><time>2026-04-27T14:15:05.999Z</time></trkpt><trkpt lat="42.31479068549886" lon="13.306165320220941"><ele>877.0</ele><time>2026-04-27T14:15:06.999Z</time></trkpt><trkpt lat="42.31483352330592" lon="13.306235055861723"><ele>877.0</ele><time>2026-04-27T14:15:07.999Z</time></trkpt><trkpt lat="42.3148603860106" lon="13.306313350590674"><ele>876.9999999999999</ele><time>2026-04-27T14:15:08.999Z</time></trkpt><trkpt lat="42.31484808046474" lon="13.306419589645307"><ele>877.0</ele><time>2026-04-27T14:15:09.998Z</time></trkpt><trkpt lat="42.31482527412669" lon="13.306539874275746"><ele>876.6</ele><time>2026-04-27T14:15:10.998Z</time></trkpt><trkpt lat="42.31480645294575" lon="13.306685318831976"><ele>876.2</ele><time>2026-04-27T14:15:12Z</time></trkpt><trkpt lat="42.31477577123098" lon="13.306832228066556"><ele>875.8</ele><time>2026-04-27T14:15:13Z</time></trkpt><trkpt lat="42.31472245116498" lon="13.306937023675413"><ele>875.4</ele><time>2026-04-27T14:15:14Z</time></trkpt><trkpt lat="42.31464853736883" lon="13.307067325969122"><ele>875.0</ele><time>2026-04-27T14:15:15Z</time></trkpt><trkpt lat="42.31457914232858" lon="13.307197867407458"><ele>872.5000000000001</ele><time>2026-04-27T14:15:16Z</time></trkpt><trkpt lat="42.314514983080336" lon="13.307309443945146"><ele>870.0</ele><time>2026-04-27T14:15:17Z</time></trkpt><trkpt lat="42.31446441183613" lon="13.307392416031018"><ele>867.5</ele><time>2026-04-27T14:15:18Z</time></trkpt><trkpt lat="42.31441596864546" lon="13.307474880963758"><ele>865.0</ele><time>2026-04-27T14:15:19Z</time></trkpt><trkpt lat="42.314379538024575" lon="13.307547035470042"><ele>862.5000000000001</ele><time>2026-04-27T14:15:20Z</time></trkpt><trkpt lat="42.31435445391594" lon="13.30763447287432"><ele>860.0</ele><time>2026-04-27T14:15:21Z</time></trkpt><trkpt lat="42.314326447301056" lon="13.307721593932184"><ele>860.0000000000001</ele><time>2026-04-27T14:15:22Z</time></trkpt><trkpt lat="42.3143065660218" lon="13.307804150502596"><ele>860.0</ele><time>2026-04-27T14:15:23Z</time></trkpt><trkpt lat="42.31430265850026" lon="13.307906440705347"><ele>860.0</ele><time>2026-04-27T14:15:24Z</time></trkpt><trkpt lat="42.31430934642853" lon="13.30800551356244"><ele>860.0</ele><time>2026-04-27T14:15:25Z</time></trkpt><trkpt lat="42.31433646103054" lon="13.308084027220943"><ele>860.0000000000001</ele><time>2026-04-27T14:15:26Z</time></trkpt><trkpt lat="42.31442785082471" lon="13.308208449252238"><ele>860.0</ele><time>2026-04-27T14:15:28Z</time></trkpt><trkpt lat="42.314523838230166" lon="13.308248267204137"><ele>858.1666666666667</ele><time>2026-04-27T14:15:29Z</time></trkpt><trkpt lat="42.314612068771254" lon="13.30828490229931"><ele>856.3333333333334</ele><time>2026-04-27T14:15:30Z</time></trkpt><trkpt lat="42.314679514634015" lon="13.30828895278096"><ele>854.5</ele><time>2026-04-27T14:15:31Z</time></trkpt><trkpt lat="42.31476838422153" lon="13.308272454663136"><ele>852.6666666666667</ele><time>2026-04-27T14:15:32Z</time></trkpt><trkpt lat="42.31486720115244" lon="13.308225905968456"><ele>850.8333333333334</ele><time>2026-04-27T14:15:33Z</time></trkpt><trkpt lat="42.3149417339892" lon="13.308178077928025"><ele>849.0</ele><time>2026-04-27T14:15:34Z</time></trkpt><trkpt lat="42.31501112924018" lon="13.308119721348382"><ele>848.2</ele><time>2026-04-27T14:15:35Z</time></trkpt><trkpt lat="42.3150920274341" lon="13.308019024208667"><ele>847.4000000000001</ele><time>2026-04-27T14:15:36Z</time></trkpt><trkpt lat="42.31517767729207" lon="13.307920245901581"><ele>846.6</ele><time>2026-04-27T14:15:37Z</time></trkpt><trkpt lat="42.31527427299071" lon="13.307858479526955"><ele>845.8</ele><time>2026-04-27T14:15:38Z</time></trkpt><trkpt lat="42.315387336009934" lon="13.30780663314541"><ele>845.0</ele><time>2026-04-27T14:15:39Z</time></trkpt><trkpt lat="42.31549159881112" lon="13.30775020670825"><ele>841.5</ele><time>2026-04-27T14:15:40Z</time></trkpt><trkpt lat="42.315586293233785" lon="13.30772589135034"><ele>838.0</ele><time>2026-04-27T14:15:41Z</time></trkpt><trkpt lat="42.31570313003597" lon="13.307725737902032"><ele>834.5</ele><time>2026-04-27T14:15:42Z</time></trkpt><trkpt lat="42.31583049966003" lon="13.307735484387313"><ele>831.0</ele><time>2026-04-27T14:15:43Z</time></trkpt><trkpt lat="42.315949800882834" lon="13.307748335004685"><ele>831.0</ele><time>2026-04-27T14:15:44Z</time></trkpt><trkpt lat="42.316040213877876" lon="13.307805448956215"><ele>831.0</ele><time>2026-04-27T14:15:45Z</time></trkpt><trkpt lat="42.31611708324538" lon="13.30789977781882"><ele>831.0</ele><time>2026-04-27T14:15:46Z</time></trkpt><trkpt lat="42.31617182074624" lon="13.308009492709546"><ele>831.0</ele><time>2026-04-27T14:15:47Z</time></trkpt><trkpt lat="42.31621794664661" lon="13.308121811422962"><ele>831.0</ele><time>2026-04-27T14:15:48Z</time></trkpt><trkpt lat="42.31626624324251" lon="13.30822442882881"><ele>830.1428571428571</ele><time>2026-04-27T14:15:49Z</time></trkpt><trkpt lat="42.3163043161213" lon="13.30829419245217"><ele>829.2857142857142</ele><time>2026-04-27T14:15:50Z</time></trkpt><trkpt lat="42.31634217018822" lon="13.308370493572308"><ele>828.4285714285713</ele><time>2026-04-27T14:15:51Z</time></trkpt><trkpt lat="42.316382915934014" lon="13.308441938883607"><ele>827.5714285714286</ele><time>2026-04-27T14:15:52Z</time></trkpt><trkpt lat="42.31645292317866" lon="13.308542827044134"><ele>826.7142857142858</ele><time>2026-04-27T14:15:54Z</time></trkpt><trkpt lat="42.31650056047604" lon="13.308614091048021"><ele>825.8571428571428</ele><time>2026-04-27T14:15:56Z</time></trkpt><trkpt lat="42.31648639135887" lon="13.308712370054778"><ele>825.0</ele><time>2026-04-27T14:15:59Z</time></trkpt><trkpt lat="42.31646904421943" lon="13.308801489737549"><ele>824.6</ele><time>2026-04-27T14:16:01Z</time></trkpt><trkpt lat="42.31644442251402" lon="13.30889139921078"><ele>824.2</ele><time>2026-04-27T14:16:04Z</time></trkpt><trkpt lat="42.31635012972316" lon="13.30907232381073"><ele>823.8</ele><time>2026-04-27T14:19:18.998Z</time></trkpt><trkpt lat="42.31628573371988" lon="13.309176428387257"><ele>823.4</ele><time>2026-04-27T14:19:19.998Z</time></trkpt><trkpt lat="42.31618724498225" lon="13.309254498011951"><ele>823.0</ele><time>2026-04-27T14:19:20.998Z</time></trkpt><trkpt lat="42.31611040780799" lon="13.30937163129121"><ele>823.0</ele><time>2026-04-27T14:19:21.998Z</time></trkpt><trkpt lat="42.316028391697905" lon="13.309501041170522"><ele>823.0</ele><time>2026-04-27T14:19:23Z</time></trkpt><trkpt lat="42.31595251298011" lon="13.309628421439713"><ele>823.0</ele><time>2026-04-27T14:19:24Z</time></trkpt><trkpt lat="42.3158643254836" lon="13.309785275024382"><ele>823.0</ele><time>2026-04-27T14:19:25Z</time></trkpt><trkpt lat="42.315794373319875" lon="13.309916135965487"><ele>824.0</ele><time>2026-04-27T14:19:26Z</time></trkpt><trkpt lat="42.3157383327116" lon="13.310020988380623"><ele>825.0</ele><time>2026-04-27T14:19:27Z</time></trkpt><trkpt lat="42.31567879961907" lon="13.310132375118425"><ele>826.0</ele><time>2026-04-27T14:19:28Z</time></trkpt><trkpt lat="42.31560580938888" lon="13.31026777192684"><ele>827.0</ele><time>2026-04-27T14:19:29Z</time></trkpt><trkpt lat="42.315555104860096" lon="13.31036129039948"><ele>828.0</ele><time>2026-04-27T14:19:30Z</time></trkpt><trkpt lat="42.31551477902495" lon="13.31044694129803"><ele>829.4</ele><time>2026-04-27T14:19:31Z</time></trkpt><trkpt lat="42.315461271075435" lon="13.310528367871015"><ele>830.8</ele><time>2026-04-27T14:19:32Z</time></trkpt><trkpt lat="42.315397897398604" lon="13.310618899667416"><ele>832.2</ele><time>2026-04-27T14:19:33Z</time></trkpt><trkpt lat="42.31533863806172" lon="13.310722739168623"><ele>833.6</ele><time>2026-04-27T14:19:34Z</time></trkpt><trkpt lat="42.31526368410626" lon="13.310819266039775"><ele>835.0</ele><time>2026-04-27T14:19:35Z</time></trkpt><trkpt lat="42.31519802792369" lon="13.310905018821975"><ele>835.0</ele><time>2026-04-27T14:19:36Z</time></trkpt><trkpt lat="42.31511844974268" lon="13.310985690135125"><ele>835.0</ele><time>2026-04-27T14:19:37Z</time></trkpt><trkpt lat="42.315024837635576" lon="13.31107153777498"><ele>835.0</ele><time>2026-04-27T14:19:38Z</time></trkpt><trkpt lat="42.31494300528401" lon="13.31113030499777"><ele>835.0</ele><time>2026-04-27T14:19:39Z</time></trkpt><trkpt lat="42.31488417429661" lon="13.311163680915701"><ele>835.0</ele><time>2026-04-27T14:19:40Z</time></trkpt><trkpt lat="42.314793244277276" lon="13.311185645124688"><ele>835.0</ele><time>2026-04-27T14:19:42Z</time></trkpt><trkpt lat="42.314752013226375" lon="13.311279528778313"><ele>835.0</ele><time>2026-04-27T14:19:45Z</time></trkpt><trkpt lat="42.314811232270166" lon="13.311516470729444"><ele>835.0</ele><time>2026-04-27T14:19:47Z</time></trkpt><trkpt lat="42.31487180565404" lon="13.311583904940868"><ele>835.0</ele><time>2026-04-27T14:19:49Z</time></trkpt><trkpt lat="42.314948185705354" lon="13.311643097929517"><ele>835.0</ele><time>2026-04-27T14:19:51Z</time></trkpt><trkpt lat="42.31503389667349" lon="13.311759135101624"><ele>834.0</ele><time>2026-04-27T14:19:53Z</time></trkpt><trkpt lat="42.31512086048314" lon="13.3118955116314"><ele>833.0</ele><time>2026-04-27T14:19:55Z</time></trkpt><trkpt lat="42.31517998778083" lon="13.311988208149264"><ele>832.0</ele><time>2026-04-27T14:19:56Z</time></trkpt><trkpt lat="42.31525761359679" lon="13.312084116591416"><ele>831.0</ele><time>2026-04-27T14:19:57Z</time></trkpt><trkpt lat="42.31533193643367" lon="13.31220094633285"><ele>830.0</ele><time>2026-04-27T14:19:58Z</time></trkpt><trkpt lat="42.31539880517916" lon="13.312302742994616"><ele>830.0</ele><time>2026-04-27T14:19:59Z</time></trkpt><trkpt lat="42.31546601744922" lon="13.31239644520279"><ele>830.0</ele><time>2026-04-27T14:20:00Z</time></trkpt><trkpt lat="42.315527738693156" lon="13.312481948528822"><ele>830.0</ele><time>2026-04-27T14:20:01Z</time></trkpt><trkpt lat="42.31558735180367" lon="13.312549589432605"><ele>830.0</ele><time>2026-04-27T14:20:02Z</time></trkpt><trkpt lat="42.31570428952902" lon="13.312586682131402"><ele>830.0</ele><time>2026-04-27T14:20:04Z</time></trkpt><trkpt lat="42.31577011004444" lon="13.312568386140226"><ele>830.2857142857143</ele><time>2026-04-27T14:20:05Z</time></trkpt><trkpt lat="42.31582604247206" lon="13.312519379380564"><ele>830.5714285714287</ele><time>2026-04-27T14:20:06Z</time></trkpt><trkpt lat="42.315892179521484" lon="13.31252430711829"><ele>830.8571428571429</ele><time>2026-04-27T14:20:07Z</time></trkpt><trkpt lat="42.31596551336587" lon="13.312566005262035"><ele>831.1428571428571</ele><time>2026-04-27T14:20:08Z</time></trkpt><trkpt lat="42.31603401416969" lon="13.312624575510815"><ele>831.4285714285714</ele><time>2026-04-27T14:20:09Z</time></trkpt><trkpt lat="42.31609072542941" lon="13.312676150172425"><ele>831.7142857142857</ele><time>2026-04-27T14:20:10Z</time></trkpt><trkpt lat="42.31615693028442" lon="13.312710594536252"><ele>832.0</ele><time>2026-04-27T14:20:11Z</time></trkpt><trkpt lat="42.31622602598339" lon="13.312740002030118"><ele>831.9999999999999</ele><time>2026-04-27T14:20:12Z</time></trkpt><trkpt lat="42.31631034097604" lon="13.312791891059316"><ele>832.0</ele><time>2026-04-27T14:20:12.999Z</time></trkpt><trkpt lat="42.31638062019297" lon="13.312854645953133"><ele>832.0</ele><time>2026-04-27T14:20:13.999Z</time></trkpt><trkpt lat="42.31647763607864" lon="13.312909329393113"><ele>832.0</ele><time>2026-04-27T14:20:14.999Z</time></trkpt><trkpt lat="42.31655623375586" lon="13.3129485330792"><ele>831.9999999999999</ele><time>2026-04-27T14:20:15.999Z</time></trkpt><trkpt lat="42.31663599074705" lon="13.312975924278682"><ele>832.0</ele><time>2026-04-27T14:20:16.999Z</time></trkpt><trkpt lat="42.31672763196216" lon="13.313027794625748"><ele>835.2</ele><time>2026-04-27T14:20:17.999Z</time></trkpt><trkpt lat="42.31682617085945" lon="13.313097506487251"><ele>838.4000000000001</ele><time>2026-04-27T14:20:18.999Z</time></trkpt><trkpt lat="42.31693299813136" lon="13.31315602862319"><ele>841.5999999999999</ele><time>2026-04-27T14:20:19.999Z</time></trkpt><trkpt lat="42.31703329107021" lon="13.313173563584481"><ele>844.8</ele><time>2026-04-27T14:20:20.999Z</time></trkpt><trkpt lat="42.31711769636018" lon="13.313158812483604"><ele>848.0</ele><time>2026-04-27T14:20:21.999Z</time></trkpt><trkpt lat="42.317202148429466" lon="13.31313916788539"><ele>848.8333333333334</ele><time>2026-04-27T14:20:22.999Z</time></trkpt><trkpt lat="42.31726466767714" lon="13.31315179900926"><ele>849.6666666666667</ele><time>2026-04-27T14:20:23.999Z</time></trkpt><trkpt lat="42.31732533357668" lon="13.313196476159277"><ele>850.5</ele><time>2026-04-27T14:20:24.999Z</time></trkpt><trkpt lat="42.31738406788893" lon="13.313257058857618"><ele>851.3333333333333</ele><time>2026-04-27T14:20:25.999Z</time></trkpt><trkpt lat="42.317453146630896" lon="13.313337064874837"><ele>852.1666666666666</ele><time>2026-04-27T14:20:26.999Z</time></trkpt><trkpt lat="42.317517499719074" lon="13.313435696243326"><ele>853.0</ele><time>2026-04-27T14:20:27.999Z</time></trkpt><trkpt lat="42.31760246668257" lon="13.313538167695862"><ele>853.0</ele><time>2026-04-27T14:20:28.999Z</time></trkpt><trkpt lat="42.31769394517397" lon="13.313633575586303"><ele>853.0</ele><time>2026-04-27T14:20:29.999Z</time></trkpt><trkpt lat="42.31779243555446" lon="13.313735377754192"><ele>853.0</ele><time>2026-04-27T14:20:30.999Z</time></trkpt><trkpt lat="42.31789329740955" lon="13.313833948909263"><ele>853.0</ele><time>2026-04-27T14:20:31.999Z</time></trkpt><trkpt lat="42.31798204161944" lon="13.313927603089617"><ele>853.4999999999999</ele><time>2026-04-27T14:20:32.999Z</time></trkpt><trkpt lat="42.31805043040738" lon="13.313990464731928"><ele>854.0</ele><time>2026-04-27T14:20:33.999Z</time></trkpt><trkpt lat="42.31812449411801" lon="13.31404303301858"><ele>854.5</ele><time>2026-04-27T14:20:34.999Z</time></trkpt><trkpt lat="42.318197618152205" lon="13.314069170071104"><ele>855.0</ele><time>2026-04-27T14:20:35.999Z</time></trkpt><trkpt lat="42.3182770383857" lon="13.314089312529566"><ele>855.4999999999999</ele><time>2026-04-27T14:20:37.999Z</time></trkpt><trkpt lat="42.31833977031145" lon="13.314078606126703"><ele>856.0</ele><time>2026-04-27T14:20:45.999Z</time></trkpt><trkpt lat="42.318462303138425" lon="13.314002164096694"><ele>856.0</ele><time>2026-04-27T14:20:47.999Z</time></trkpt><trkpt lat="42.318523898134075" lon="13.313911761836936"><ele>855.9999999999999</ele><time>2026-04-27T14:20:48.999Z</time></trkpt><trkpt lat="42.318595720206716" lon="13.313803572756331"><ele>855.9999999999999</ele><time>2026-04-27T14:20:49.999Z</time></trkpt><trkpt lat="42.31864716094312" lon="13.313724615422538"><ele>856.0</ele><time>2026-04-27T14:20:50.999Z</time></trkpt><trkpt lat="42.318761336298294" lon="13.313733037257219"><ele>856.0</ele><time>2026-04-27T14:20:52.999Z</time></trkpt><trkpt lat="42.318826532104666" lon="13.313783492863372"><ele>855.1999999999999</ele><time>2026-04-27T14:20:53.999Z</time></trkpt><trkpt lat="42.31889722152927" lon="13.313846464561758"><ele>854.3999999999999</ele><time>2026-04-27T14:20:54.999Z</time></trkpt><trkpt lat="42.318981911523295" lon="13.313913291682242"><ele>853.6</ele><time>2026-04-27T14:20:55.999Z</time></trkpt><trkpt lat="42.31907274600686" lon="13.313978357207196"><ele>852.8</ele><time>2026-04-27T14:20:56.999Z</time></trkpt><trkpt lat="42.319170169396585" lon="13.314054582871032"><ele>852.0</ele><time>2026-04-27T14:20:57.999Z</time></trkpt><trkpt lat="42.319266448398395" lon="13.314131621693402"><ele>851.0</ele><time>2026-04-27T14:20:58.999Z</time></trkpt><trkpt lat="42.31936294997276" lon="13.314206849950759"><ele>850.0</ele><time>2026-04-27T14:20:59.999Z</time></trkpt><trkpt lat="42.319453185921326" lon="13.314285142869188"><ele>849.0</ele><time>2026-04-27T14:21:00.999Z</time></trkpt><trkpt lat="42.31954247382314" lon="13.314359477104958"><ele>848.0</ele><time>2026-04-27T14:21:01.999Z</time></trkpt><trkpt lat="42.319638096043995" lon="13.314435282099339"><ele>847.0</ele><time>2026-04-27T14:21:02.999Z</time></trkpt><trkpt lat="42.31974073403984" lon="13.314518736829232"><ele>845.5</ele><time>2026-04-27T14:21:03.999Z</time></trkpt><trkpt lat="42.319842536424595" lon="13.314606330079782"><ele>844.0</ele><time>2026-04-27T14:21:04.999Z</time></trkpt><trkpt lat="42.31995107893472" lon="13.314688583148053"><ele>842.5</ele><time>2026-04-27T14:21:05.999Z</time></trkpt><trkpt lat="42.32006284902199" lon="13.314779357448362"><ele>841.0</ele><time>2026-04-27T14:21:06.999Z</time></trkpt><trkpt lat="42.320180543796056" lon="13.314871465504744"><ele>840.4</ele><time>2026-04-27T14:21:07.999Z</time></trkpt><trkpt lat="42.32028416702206" lon="13.314955448683207"><ele>839.8</ele><time>2026-04-27T14:21:08.999Z</time></trkpt><trkpt lat="42.320359598289876" lon="13.315028977797317"><ele>839.1999999999999</ele><time>2026-04-27T14:21:09.999Z</time></trkpt><trkpt lat="42.32040905886568" lon="13.31509984747475"><ele>838.5999999999999</ele><time>2026-04-27T14:21:10.999Z</time></trkpt><trkpt lat="42.32044119531171" lon="13.315200825531834"><ele>838.0</ele><time>2026-04-27T14:21:11.999Z</time></trkpt><trkpt lat="42.32045437584782" lon="13.315315885417144"><ele>837.9999999999999</ele><time>2026-04-27T14:21:12.999Z</time></trkpt><trkpt lat="42.32039256351327" lon="13.315398864753968"><ele>838.0</ele><time>2026-04-27T14:21:13.999Z</time></trkpt><trkpt lat="42.32037239051147" lon="13.315480512403477"><ele>838.0</ele><time>2026-04-27T14:21:16.998Z</time></trkpt><trkpt lat="42.32043831313554" lon="13.315536843307608"><ele>838.0</ele><time>2026-04-27T14:21:18.998Z</time></trkpt><trkpt lat="42.3204979465666" lon="13.31562955606533"><ele>837.9999999999999</ele><time>2026-04-27T14:21:20.998Z</time></trkpt><trkpt lat="42.32055555686334" lon="13.315672454333166"><ele>838.0</ele><time>2026-04-27T14:21:21.998Z</time></trkpt><trkpt lat="42.32066808972177" lon="13.31575772248192"><ele>836.2</ele><time>2026-04-27T14:21:23.998Z</time></trkpt><trkpt lat="42.32074962089692" lon="13.315846758351258"><ele>834.4</ele><time>2026-04-27T14:21:25.998Z</time></trkpt><trkpt lat="42.32069560586509" lon="13.315953206745085"><ele>832.6</ele><time>2026-04-27T14:21:26.998Z</time></trkpt><trkpt lat="42.32068829085363" lon="13.316038732325248"><ele>830.8000000000001</ele><time>2026-04-27T14:21:27.998Z</time></trkpt><trkpt lat="42.320748464716935" lon="13.316132027939437"><ele>829.0</ele><time>2026-04-27T14:21:30Z</time></trkpt><trkpt lat="42.32092111871266" lon="13.316138643778121"><ele>829.0</ele><time>2026-04-27T14:21:31Z</time></trkpt><trkpt lat="42.32107647638301" lon="13.315950108851668"><ele>829.0</ele><time>2026-04-27T14:21:32Z</time></trkpt><trkpt lat="42.32116496284053" lon="13.31598884871286"><ele>829.0</ele><time>2026-04-27T14:21:33Z</time></trkpt><trkpt lat="42.321246083318535" lon="13.316100549957092"><ele>829.0</ele><time>2026-04-27T14:21:34Z</time></trkpt><trkpt lat="42.32135758804456" lon="13.316113497917966"><ele>828.2857142857142</ele><time>2026-04-27T14:21:35Z</time></trkpt><trkpt lat="42.321434468610796" lon="13.316121292669884"><ele>827.5714285714286</ele><time>2026-04-27T14:21:36Z</time></trkpt><trkpt lat="42.32149906320673" lon="13.316180961619764"><ele>826.8571428571429</ele><time>2026-04-27T14:21:37Z</time></trkpt><trkpt lat="42.32155924946678" lon="13.316207770245818"><ele>826.1428571428571</ele><time>2026-04-27T14:21:38Z</time></trkpt><trkpt lat="42.321628718867245" lon="13.316210392748971"><ele>825.4285714285714</ele><time>2026-04-27T14:21:39Z</time></trkpt><trkpt lat="42.3217049160505" lon="13.316209010500877"><ele>824.7142857142857</ele><time>2026-04-27T14:21:40Z</time></trkpt><trkpt lat="42.32177863868126" lon="13.31620648984501"><ele>824.0</ele><time>2026-04-27T14:21:41Z</time></trkpt><trkpt lat="42.321860268884144" lon="13.316214056135564"><ele>824.0</ele><time>2026-04-27T14:21:42Z</time></trkpt><trkpt lat="42.32195846676313" lon="13.31623484994446"><ele>824.0</ele><time>2026-04-27T14:21:43Z</time></trkpt><trkpt lat="42.32205288869234" lon="13.316265230341282"><ele>824.0</ele><time>2026-04-27T14:21:44Z</time></trkpt><trkpt lat="42.32218187482327" lon="13.316169199307888"><ele>824.0</ele><time>2026-04-27T14:21:45Z</time></trkpt><trkpt lat="42.32227428322328" lon="13.316216419190505"><ele>824.0</ele><time>2026-04-27T14:21:46Z</time></trkpt><trkpt lat="42.32236047063567" lon="13.31625995120341"><ele>823.1666666666667</ele><time>2026-04-27T14:21:47Z</time></trkpt><trkpt lat="42.32244451072794" lon="13.31629923759679"><ele>822.3333333333334</ele><time>2026-04-27T14:21:48Z</time></trkpt><trkpt lat="42.32254412867662" lon="13.316345806141769"><ele>821.5</ele><time>2026-04-27T14:21:49Z</time></trkpt><trkpt lat="42.32263439999089" lon="13.316385519006303"><ele>820.6666666666667</ele><time>2026-04-27T14:21:50Z</time></trkpt><trkpt lat="42.32271901232832" lon="13.3164220136149"><ele>819.8333333333334</ele><time>2026-04-27T14:21:51Z</time></trkpt><trkpt lat="42.3227853804109" lon="13.3164504246992"><ele>819.0</ele><time>2026-04-27T14:21:53Z</time></trkpt><trkpt lat="42.32274923600923" lon="13.316577503583659"><ele>819.0</ele><time>2026-04-27T14:22:11Z</time></trkpt><trkpt lat="42.3227714247456" lon="13.31646898082164"><ele>819.0</ele><time>2026-04-27T14:22:18.999Z</time></trkpt><trkpt lat="42.32282108616099" lon="13.316343790408814"><ele>819.0</ele><time>2026-04-27T14:22:20.999Z</time></trkpt><trkpt lat="42.32287488354448" lon="13.316186502189248"><ele>819.0</ele><time>2026-04-27T14:22:22.999Z</time></trkpt><trkpt lat="42.32287005771297" lon="13.316066896476668"><ele>819.0</ele><time>2026-04-27T14:22:23.999Z</time></trkpt><trkpt lat="42.32295632341706" lon="13.31600629372516"><ele>818.0</ele><time>2026-04-27T14:22:25.999Z</time></trkpt><trkpt lat="42.323048168139955" lon="13.316060240975098"><ele>817.0</ele><time>2026-04-27T14:22:26.999Z</time></trkpt><trkpt lat="42.32315504437163" lon="13.316106124726959"><ele>816.0</ele><time>2026-04-27T14:22:27.999Z</time></trkpt><trkpt lat="42.32326409084688" lon="13.31614149231716"><ele>815.0</ele><time>2026-04-27T14:22:28.999Z</time></trkpt><trkpt lat="42.32336286523504" lon="13.3161621496155"><ele>814.0</ele><time>2026-04-27T14:22:29.999Z</time></trkpt><trkpt lat="42.3234609264676" lon="13.316179209730743"><ele>812.0</ele><time>2026-04-27T14:22:30.999Z</time></trkpt><trkpt lat="42.32356941544692" lon="13.316198399988233"><ele>810.0</ele><time>2026-04-27T14:22:31.999Z</time></trkpt><trkpt lat="42.32369002007781" lon="13.31622395692099"><ele>808.0</ele><time>2026-04-27T14:22:32.999Z</time></trkpt><trkpt lat="42.32380008477414" lon="13.316256331729749"><ele>806.0</ele><time>2026-04-27T14:22:33.999Z</time></trkpt><trkpt lat="42.32390409994945" lon="13.316295080296612"><ele>806.8</ele><time>2026-04-27T14:22:34.999Z</time></trkpt><trkpt lat="42.32400524025856" lon="13.31633890851113"><ele>807.5999999999999</ele><time>2026-04-27T14:22:35.999Z</time></trkpt><trkpt lat="42.32410576830373" lon="13.316382813023012"><ele>808.4</ele><time>2026-04-27T14:22:36.999Z</time></trkpt><trkpt lat="42.32420512054772" lon="13.316424169174317"><ele>809.2</ele><time>2026-04-27T14:22:37.999Z</time></trkpt><trkpt lat="42.32430541053686" lon="13.31645814854"><ele>810.0</ele><time>2026-04-27T14:22:38.999Z</time></trkpt><trkpt lat="42.32439808644275" lon="13.316496130476727"><ele>810.0</ele><time>2026-04-27T14:22:39.999Z</time></trkpt><trkpt lat="42.32447472746041" lon="13.316529121913979"><ele>810.0</ele><time>2026-04-27T14:22:40.999Z</time></trkpt><trkpt lat="42.32453746683205" lon="13.316742470865266"><ele>810.0</ele><time>2026-04-27T14:22:41.999Z</time></trkpt><trkpt lat="42.32461065624922" lon="13.316751261646552"><ele>810.0</ele><time>2026-04-27T14:22:42.999Z</time></trkpt><trkpt lat="42.32468419419911" lon="13.316759217317351"><ele>810.0</ele><time>2026-04-27T14:22:43.999Z</time></trkpt><trkpt lat="42.32475853261958" lon="13.316766872829232"><ele>809.4</ele><time>2026-04-27T14:22:44.999Z</time></trkpt><trkpt lat="42.324842458199825" lon="13.316775515640414"><ele>808.8</ele><time>2026-04-27T14:22:45.999Z</time></trkpt><trkpt lat="42.324933944233116" lon="13.316784937050128"><ele>808.2</ele><time>2026-04-27T14:22:46.999Z</time></trkpt><trkpt lat="42.3250269678033" lon="13.316792881487068"><ele>807.6</ele><time>2026-04-27T14:22:47.999Z</time></trkpt><trkpt lat="42.32511559723996" lon="13.316799928360533"><ele>807.0</ele><time>2026-04-27T14:22:48.999Z</time></trkpt><trkpt lat="42.32520857261459" lon="13.31680623589433"><ele>807.0</ele><time>2026-04-27T14:22:49.999Z</time></trkpt><trkpt lat="42.3252832800851" lon="13.31680968735258"><ele>807.0</ele><time>2026-04-27T14:22:50.999Z</time></trkpt><trkpt lat="42.32535822045664" lon="13.316813539847727"><ele>807.0</ele><time>2026-04-27T14:22:51.999Z</time></trkpt><trkpt lat="42.3254331733114" lon="13.316815351758137"><ele>807.0</ele><time>2026-04-27T14:22:52.999Z</time></trkpt><trkpt lat="42.3255108692388" lon="13.316817230015593"><ele>807.0</ele><time>2026-04-27T14:22:53.999Z</time></trkpt><trkpt lat="42.32558816638232" lon="13.31680691260968"><ele>807.0</ele><time>2026-04-27T14:22:54.999Z</time></trkpt><trkpt lat="42.325666767122755" lon="13.316792959113522"><ele>807.25</ele><time>2026-04-27T14:22:55.999Z</time></trkpt><trkpt lat="42.325756346635174" lon="13.316776469084264"><ele>807.5</ele><time>2026-04-27T14:22:56.999Z</time></trkpt><trkpt lat="42.32585234224469" lon="13.31675579979696"><ele>807.75</ele><time>2026-04-27T14:22:57.999Z</time></trkpt><trkpt lat="42.32594600307887" lon="13.316715488833623"><ele>808.0</ele><time>2026-04-27T14:22:58.999Z</time></trkpt><trkpt lat="42.32660614529887" lon="13.315913852966249"><ele>805.4</ele><time>2026-04-27T14:23:06.999Z</time></trkpt><trkpt lat="42.32668703362207" lon="13.315884046692053"><ele>802.8</ele><time>2026-04-27T14:23:07.999Z</time></trkpt><trkpt lat="42.32678564232431" lon="13.315895675226935"><ele>800.2</ele><time>2026-04-27T14:23:08.999Z</time></trkpt><trkpt lat="42.32688782057861" lon="13.315922815475282"><ele>797.6</ele><time>2026-04-27T14:23:09.999Z</time></trkpt><trkpt lat="42.32699521887017" lon="13.315938412597852"><ele>795.0</ele><time>2026-04-27T14:23:10.999Z</time></trkpt><trkpt lat="42.32711821499134" lon="13.315938546874511"><ele>794.0</ele><time>2026-04-27T14:23:11.999Z</time></trkpt><trkpt lat="42.327255308401284" lon="13.315941374854873"><ele>793.0</ele><time>2026-04-27T14:23:12.999Z</time></trkpt><trkpt lat="42.327381262646654" lon="13.315957733549753"><ele>792.0</ele><time>2026-04-27T14:23:13.999Z</time></trkpt><trkpt lat="42.3274968354199" lon="13.315982580081121"><ele>791.0</ele><time>2026-04-27T14:23:14.999Z</time></trkpt><trkpt lat="42.3276122945932" lon="13.315995172775194"><ele>791.0</ele><time>2026-04-27T14:23:15.999Z</time></trkpt><trkpt lat="42.32772307314994" lon="13.315988972303384"><ele>791.0</ele><time>2026-04-27T14:23:16.999Z</time></trkpt><trkpt lat="42.327824669991266" lon="13.315982429997513"><ele>791.0</ele><time>2026-04-27T14:23:17.999Z</time></trkpt><trkpt lat="42.327933169411" lon="13.316011519909468"><ele>791.0</ele><time>2026-04-27T14:23:18.999Z</time></trkpt><trkpt lat="42.3280265036121" lon="13.3160526657006"><ele>791.0</ele><time>2026-04-27T14:23:19.999Z</time></trkpt><trkpt lat="42.328114256539195" lon="13.316084717674176"><ele>789.0</ele><time>2026-04-27T14:23:20.998Z</time></trkpt><trkpt lat="42.328213535460876" lon="13.316131425743272"><ele>787.0</ele><time>2026-04-27T14:23:21.998Z</time></trkpt><trkpt lat="42.32832656606511" lon="13.316182384933873"><ele>785.0</ele><time>2026-04-27T14:23:22.998Z</time></trkpt><trkpt lat="42.32843128651842" lon="13.31624325461038"><ele>783.0</ele><time>2026-04-27T14:23:23.998Z</time></trkpt><trkpt lat="42.328529567580055" lon="13.316314167962723"><ele>783.0</ele><time>2026-04-27T14:23:24.998Z</time></trkpt><trkpt lat="42.32862305620673" lon="13.316384245610532"><ele>783.0</ele><time>2026-04-27T14:23:25.998Z</time></trkpt><trkpt lat="42.32870830130091" lon="13.316427435925814"><ele>783.0</ele><time>2026-04-27T14:23:26.998Z</time></trkpt><trkpt lat="42.328785984411624" lon="13.316482541331771"><ele>783.0</ele><time>2026-04-27T14:23:27.998Z</time></trkpt><trkpt lat="42.328870062156774" lon="13.31652845389154"><ele>783.0</ele><time>2026-04-27T14:23:28.998Z</time></trkpt><trkpt lat="42.328975846222484" lon="13.316526123121943"><ele>785.0</ele><time>2026-04-27T14:23:29.998Z</time></trkpt><trkpt lat="42.329093470008594" lon="13.316516626485864"><ele>787.0</ele><time>2026-04-27T14:23:30.998Z</time></trkpt><trkpt lat="42.32920675446816" lon="13.316744803430232"><ele>789.0</ele><time>2026-04-27T14:23:31.998Z</time></trkpt><trkpt lat="42.32931653300416" lon="13.316741725631479"><ele>791.0</ele><time>2026-04-27T14:23:32.998Z</time></trkpt><trkpt lat="42.32943286544186" lon="13.316738464074023"><ele>791.0</ele><time>2026-04-27T14:23:33.998Z</time></trkpt><trkpt lat="42.329553881644195" lon="13.316735071210758"><ele>791.0</ele><time>2026-04-27T14:23:35Z</time></trkpt><trkpt lat="42.3296701081209" lon="13.31673181262752"><ele>791.0</ele><time>2026-04-27T14:23:36Z</time></trkpt><trkpt lat="42.32977106186399" lon="13.316728982235336"><ele>791.0</ele><time>2026-04-27T14:23:37Z</time></trkpt><trkpt lat="42.329866099221164" lon="13.316726397381872"><ele>791.0</ele><time>2026-04-27T14:23:38Z</time></trkpt><trkpt lat="42.32996515077279" lon="13.316724036018211"><ele>790.1999999999999</ele><time>2026-04-27T14:23:39Z</time></trkpt><trkpt lat="42.33005634652692" lon="13.316721861924169"><ele>789.4</ele><time>2026-04-27T14:23:40Z</time></trkpt><trkpt lat="42.33016189166368" lon="13.316719345755281"><ele>788.6</ele><time>2026-04-27T14:23:41Z</time></trkpt><trkpt lat="42.330286939623306" lon="13.316716364639266"><ele>787.8</ele><time>2026-04-27T14:23:42Z</time></trkpt><trkpt lat="42.33040993443597" lon="13.31671343247546"><ele>787.0</ele><time>2026-04-27T14:23:43Z</time></trkpt><trkpt lat="42.330532369099906" lon="13.316710513667335"><ele>786.8</ele><time>2026-04-27T14:23:44Z</time></trkpt><trkpt lat="42.33064423550705" lon="13.316707846799005"><ele>786.6</ele><time>2026-04-27T14:23:45Z</time></trkpt><trkpt lat="42.33074477672087" lon="13.31670544325607"><ele>786.4</ele><time>2026-04-27T14:23:46Z</time></trkpt><trkpt lat="42.33084014116546" lon="13.31670316979235"><ele>786.1999999999999</ele><time>2026-04-27T14:23:47Z</time></trkpt><trkpt lat="42.33092909283132" lon="13.316701049213654"><ele>786.0</ele><time>2026-04-27T14:23:48Z</time></trkpt><trkpt lat="42.33102257065538" lon="13.316698820725847"><ele>786.0000000000001</ele><time>2026-04-27T14:23:49Z</time></trkpt><trkpt lat="42.33110285590086" lon="13.316696419661152"><ele>786.0</ele><time>2026-04-27T14:23:50Z</time></trkpt><trkpt lat="42.3311691428127" lon="13.316694396483964"><ele>786.0</ele><time>2026-04-27T14:23:51Z</time></trkpt><trkpt lat="42.33123268790024" lon="13.316692456995034"><ele>786.0</ele><time>2026-04-27T14:23:52Z</time></trkpt><trkpt lat="42.33130101417826" lon="13.316690371582661"><ele>786.0</ele><time>2026-04-27T14:23:53Z</time></trkpt><trkpt lat="42.331382252052514" lon="13.316687892091917"><ele>786.0000000000001</ele><time>2026-04-27T14:23:54Z</time></trkpt><trkpt lat="42.331464819242676" lon="13.31668537203418"><ele>786.0</ele><time>2026-04-27T14:23:55Z</time></trkpt><trkpt lat="42.331537282999996" lon="13.316683160319402"><ele>785.1666666666666</ele><time>2026-04-27T14:23:56Z</time></trkpt><trkpt lat="42.33161083160464" lon="13.316681144363352"><ele>784.3333333333333</ele><time>2026-04-27T14:23:57Z</time></trkpt><trkpt lat="42.33168072205108" lon="13.316679310522462"><ele>783.5</ele><time>2026-04-27T14:23:58Z</time></trkpt><trkpt lat="42.33176219753731" lon="13.316677172728925"><ele>782.6666666666666</ele><time>2026-04-27T14:23:59Z</time></trkpt><trkpt lat="42.33184449047491" lon="13.316675013468174"><ele>781.8333333333333</ele><time>2026-04-27T14:24:00Z</time></trkpt><trkpt lat="42.33193728422795" lon="13.316672578694522"><ele>781.0</ele><time>2026-04-27T14:24:01Z</time></trkpt><trkpt lat="42.33201640092122" lon="13.316670502799244"><ele>781.0</ele><time>2026-04-27T14:24:02Z</time></trkpt><trkpt lat="42.33210226079099" lon="13.316668345678575"><ele>781.0</ele><time>2026-04-27T14:24:03Z</time></trkpt><trkpt lat="42.332192374410056" lon="13.3166662350096"><ele>781.0</ele><time>2026-04-27T14:24:04Z</time></trkpt><trkpt lat="42.33229664529314" lon="13.316663792722496"><ele>781.0</ele><time>2026-04-27T14:24:05Z</time></trkpt><trkpt lat="42.33240070347177" lon="13.3166613554304"><ele>781.0</ele><time>2026-04-27T14:24:06Z</time></trkpt><trkpt lat="42.3325176433248" lon="13.316658616420627"><ele>780.0</ele><time>2026-04-27T14:24:07Z</time></trkpt><trkpt lat="42.33262339877168" lon="13.31665613936552"><ele>779.0</ele><time>2026-04-27T14:24:08Z</time></trkpt><trkpt lat="42.3327353881513" lon="13.316653516299795"><ele>778.0</ele><time>2026-04-27T14:24:09Z</time></trkpt><trkpt lat="42.33283943671219" lon="13.316651079216566"><ele>777.0</ele><time>2026-04-27T14:24:10Z</time></trkpt><trkpt lat="42.332950765796994" lon="13.316648471600535"><ele>776.0</ele><time>2026-04-27T14:24:11Z</time></trkpt><trkpt lat="42.33305662812858" lon="13.316645992047688"><ele>775.8</ele><time>2026-04-27T14:24:12Z</time></trkpt><trkpt lat="42.33315461320788" lon="13.31664369698675"><ele>775.5999999999999</ele><time>2026-04-27T14:24:13Z</time></trkpt><trkpt lat="42.33324893409419" lon="13.316641412974816"><ele>775.4</ele><time>2026-04-27T14:24:14Z</time></trkpt><trkpt lat="42.33334309315109" lon="13.31663913092138"><ele>775.2</ele><time>2026-04-27T14:24:15Z</time></trkpt><trkpt lat="42.333450288328855" lon="13.316636532903054"><ele>775.0</ele><time>2026-04-27T14:24:16Z</time></trkpt><trkpt lat="42.333564183133184" lon="13.316633772523648"><ele>775.0</ele><time>2026-04-27T14:24:17Z</time></trkpt><trkpt lat="42.333692672107176" lon="13.316630658452482"><ele>775.0</ele><time>2026-04-27T14:24:17.999Z</time></trkpt><trkpt lat="42.33381274134415" lon="13.316627748453943"><ele>775.0</ele><time>2026-04-27T14:24:18.999Z</time></trkpt><trkpt lat="42.333934832728374" lon="13.316625031193496"><ele>775.0</ele><time>2026-04-27T14:24:19.999Z</time></trkpt><trkpt lat="42.33404989212581" lon="13.316622487725608"><ele>773.8</ele><time>2026-04-27T14:24:20.999Z</time></trkpt><trkpt lat="42.33416620726638" lon="13.316619916520878"><ele>772.6</ele><time>2026-04-27T14:24:21.999Z</time></trkpt><trkpt lat="42.33427345861105" lon="13.316617312594385"><ele>771.4000000000001</ele><time>2026-04-27T14:24:22.999Z</time></trkpt><trkpt lat="42.33436567817988" lon="13.316615035768022"><ele>770.2</ele><time>2026-04-27T14:24:23.999Z</time></trkpt><trkpt lat="42.3344603900947" lon="13.31661269739575"><ele>769.0</ele><time>2026-04-27T14:24:24.999Z</time></trkpt><trkpt lat="42.33456021578376" lon="13.31661023277283"><ele>769.0</ele><time>2026-04-27T14:24:25.999Z</time></trkpt><trkpt lat="42.3346686040136" lon="13.31660755675983"><ele>769.0</ele><time>2026-04-27T14:24:26.999Z</time></trkpt><trkpt lat="42.33478125171396" lon="13.316604775565201"><ele>769.0</ele><time>2026-04-27T14:24:27.999Z</time></trkpt><trkpt lat="42.33488813536365" lon="13.316602136685608"><ele>769.0</ele><time>2026-04-27T14:24:28.999Z</time></trkpt><trkpt lat="42.33499790671577" lon="13.316599426520789"><ele>769.0</ele><time>2026-04-27T14:24:29.999Z</time></trkpt><trkpt lat="42.33510765085348" lon="13.316596717003014"><ele>769.0</ele><time>2026-04-27T14:24:30.999Z</time></trkpt><trkpt lat="42.33523436166391" lon="13.316593588580602"><ele>769.0</ele><time>2026-04-27T14:24:31.999Z</time></trkpt><trkpt lat="42.33536727574341" lon="13.316589490862402"><ele>769.0</ele><time>2026-04-27T14:24:32.999Z</time></trkpt><trkpt lat="42.335497076170384" lon="13.316583785955785"><ele>769.0</ele><time>2026-04-27T14:24:33.999Z</time></trkpt><trkpt lat="42.33562322966322" lon="13.316578241378664"><ele>768.6</ele><time>2026-04-27T14:24:34.999Z</time></trkpt><trkpt lat="42.335727231168654" lon="13.316573663526784"><ele>768.2</ele><time>2026-04-27T14:24:35.999Z</time></trkpt><trkpt lat="42.335827360336694" lon="13.316569262729079"><ele>767.8000000000001</ele><time>2026-04-27T14:24:36.999Z</time></trkpt><trkpt lat="42.33592312467451" lon="13.316565053786467"><ele>767.4000000000001</ele><time>2026-04-27T14:24:37.999Z</time></trkpt><trkpt lat="42.33602210453151" lon="13.316561189404775"><ele>767.0</ele><time>2026-04-27T14:24:38.999Z</time></trkpt><trkpt lat="42.33611879872687" lon="13.31655874563213"><ele>767.0</ele><time>2026-04-27T14:24:39.999Z</time></trkpt><trkpt lat="42.33622273160628" lon="13.316556118910185"><ele>767.0</ele><time>2026-04-27T14:24:40.999Z</time></trkpt><trkpt lat="42.3363252964022" lon="13.316553526745649"><ele>767.0</ele><time>2026-04-27T14:24:41.999Z</time></trkpt><trkpt lat="42.33643565402933" lon="13.316550737648653"><ele>767.0</ele><time>2026-04-27T14:24:42.999Z</time></trkpt><trkpt lat="42.33654166123991" lon="13.316548058503965"><ele>767.0</ele><time>2026-04-27T14:24:43.999Z</time></trkpt><trkpt lat="42.33665626233775" lon="13.316545162149671"><ele>765.8</ele><time>2026-04-27T14:24:44.999Z</time></trkpt><trkpt lat="42.336763802443116" lon="13.316542444251942"><ele>764.6</ele><time>2026-04-27T14:24:45.999Z</time></trkpt><trkpt lat="42.33687982724184" lon="13.316539508697455"><ele>763.4</ele><time>2026-04-27T14:24:46.999Z</time></trkpt><trkpt lat="42.336996504340135" lon="13.316536548311776"><ele>762.1999999999999</ele><time>2026-04-27T14:24:47.999Z</time></trkpt><trkpt lat="42.33710032004818" lon="13.31653391424168"><ele>761.0</ele><time>2026-04-27T14:24:48.999Z</time></trkpt><trkpt lat="42.33722045724721" lon="13.31653086606533"><ele>759.75</ele><time>2026-04-27T14:24:49.999Z</time></trkpt><trkpt lat="42.33734839152906" lon="13.316527620068609"><ele>758.5</ele><time>2026-04-27T14:24:50.999Z</time></trkpt><trkpt lat="42.33747428376903" lon="13.316524425870366"><ele>757.25</ele><time>2026-04-27T14:24:51.999Z</time></trkpt><trkpt lat="42.33760242783101" lon="13.316521174558538"><ele>756.0</ele><time>2026-04-27T14:24:52.999Z</time></trkpt><trkpt lat="42.337716963022565" lon="13.316516962321968"><ele>756.0</ele><time>2026-04-27T14:24:53.999Z</time></trkpt><trkpt lat="42.33783006813636" lon="13.316512196798966"><ele>756.0</ele><time>2026-04-27T14:24:54.999Z</time></trkpt><trkpt lat="42.337935057615304" lon="13.316508634061899"><ele>756.0</ele><time>2026-04-27T14:24:55.999Z</time></trkpt><trkpt lat="42.33803548023961" lon="13.316506033575813"><ele>756.0</ele><time>2026-04-27T14:24:56.999Z</time></trkpt><trkpt lat="42.33813530641183" lon="13.316504089926884"><ele>756.0</ele><time>2026-04-27T14:24:57.999Z</time></trkpt><trkpt lat="42.33825104243982" lon="13.316501836502416"><ele>755.0</ele><time>2026-04-27T14:24:58.999Z</time></trkpt><trkpt lat="42.33836706896154" lon="13.316462649331859"><ele>754.0</ele><time>2026-04-27T14:24:59.999Z</time></trkpt><trkpt lat="42.33847838247919" lon="13.316478339655918"><ele>753.0</ele><time>2026-04-27T14:25:00.999Z</time></trkpt><trkpt lat="42.33900892815065" lon="13.31649071940673"><ele>752.4</ele><time>2026-04-27T14:25:05.999Z</time></trkpt><trkpt lat="42.33910930665736" lon="13.316494135802184"><ele>751.8</ele><time>2026-04-27T14:25:06.999Z</time></trkpt><trkpt lat="42.3392239609139" lon="13.316498275803825"><ele>751.2</ele><time>2026-04-27T14:25:07.999Z</time></trkpt><trkpt lat="42.339335380478424" lon="13.316502299008148"><ele>750.6</ele><time>2026-04-27T14:25:08.999Z</time></trkpt><trkpt lat="42.33943270229983" lon="13.316506935437403"><ele>750.0</ele><time>2026-04-27T14:25:09.999Z</time></trkpt><trkpt lat="42.33952560607207" lon="13.316511566548423"><ele>750.0</ele><time>2026-04-27T14:25:10.999Z</time></trkpt><trkpt lat="42.339621893223296" lon="13.316516366324402"><ele>750.0</ele><time>2026-04-27T14:25:11.999Z</time></trkpt><trkpt lat="42.33973656793953" lon="13.316522082701347"><ele>750.0</ele><time>2026-04-27T14:25:12.999Z</time></trkpt><trkpt lat="42.33984428914174" lon="13.316529399959002"><ele>750.0</ele><time>2026-04-27T14:25:13.999Z</time></trkpt><trkpt lat="42.339940383555735" lon="13.316537398103444"><ele>750.0</ele><time>2026-04-27T14:25:14.999Z</time></trkpt><trkpt lat="42.34003982131134" lon="13.316548393151429"><ele>749.5</ele><time>2026-04-27T14:25:15.999Z</time></trkpt><trkpt lat="42.340141699032685" lon="13.31655965800036"><ele>749.0</ele><time>2026-04-27T14:25:16.999Z</time></trkpt><trkpt lat="42.34022503817586" lon="13.316571873239429"><ele>748.5</ele><time>2026-04-27T14:25:17.999Z</time></trkpt><trkpt lat="42.34030688642226" lon="13.316583825118865"><ele>748.0</ele><time>2026-04-27T14:25:18.999Z</time></trkpt><trkpt lat="42.34038965923695" lon="13.31659591202058"><ele>747.5</ele><time>2026-04-27T14:25:19.999Z</time></trkpt><trkpt lat="42.34048083546132" lon="13.316610825218234"><ele>747.0</ele><time>2026-04-27T14:25:20.999Z</time></trkpt><trkpt lat="42.34056217529316" lon="13.316623994548339"><ele>746.6</ele><time>2026-04-27T14:25:21.999Z</time></trkpt><trkpt lat="42.340645156148206" lon="13.31663743654368"><ele>746.2</ele><time>2026-04-27T14:25:22.998Z</time></trkpt><trkpt lat="42.34072482563924" lon="13.316652426706122"><ele>745.8</ele><time>2026-04-27T14:25:23.998Z</time></trkpt><trkpt lat="42.34084341014802" lon="13.31663735446661"><ele>745.4</ele><time>2026-04-27T14:25:24.998Z</time></trkpt><trkpt lat="42.34094466020104" lon="13.316680618807244"><ele>745.0</ele><time>2026-04-27T14:25:25.998Z</time></trkpt><trkpt lat="42.341177541121716" lon="13.31672097467311"><ele>742.5</ele><time>2026-04-27T14:25:27.998Z</time></trkpt><trkpt lat="42.341595687292774" lon="13.316731627759376"><ele>740.0</ele><time>2026-04-27T14:25:31.998Z</time></trkpt><trkpt lat="42.341702956872325" lon="13.316706902156255"><ele>740.0</ele><time>2026-04-27T14:25:32.998Z</time></trkpt><trkpt lat="42.34202058830765" lon="13.316678957984042"><ele>740.0</ele><time>2026-04-27T14:25:33.998Z</time></trkpt><trkpt lat="42.342095720382055" lon="13.316625144286327"><ele>740.0</ele><time>2026-04-27T14:25:34.998Z</time></trkpt><trkpt lat="42.34216392553801" lon="13.316580616640303"><ele>738.5</ele><time>2026-04-27T14:25:35.998Z</time></trkpt><trkpt lat="42.34223098334875" lon="13.316016630354142"><ele>737.0</ele><time>2026-04-27T14:25:36.998Z</time></trkpt><trkpt lat="42.34232433656362" lon="13.316038036718346"><ele>737.0</ele><time>2026-04-27T14:25:37.998Z</time></trkpt><trkpt lat="42.34241287625016" lon="13.316024792018936"><ele>737.0</ele><time>2026-04-27T14:25:38.998Z</time></trkpt><trkpt lat="42.342489824343204" lon="13.315972042891191"><ele>737.0</ele><time>2026-04-27T14:25:40Z</time></trkpt><trkpt lat="42.342557507102974" lon="13.315882225627423"><ele>737.0</ele><time>2026-04-27T14:25:41Z</time></trkpt><trkpt lat="42.342624910443085" lon="13.315776062588576"><ele>737.0</ele><time>2026-04-27T14:25:42Z</time></trkpt><trkpt lat="42.3426984089316" lon="13.315687460847283"><ele>737.0</ele><time>2026-04-27T14:25:43Z</time></trkpt><trkpt lat="42.34278181742932" lon="13.315644483264895"><ele>737.0</ele><time>2026-04-27T14:25:44Z</time></trkpt><trkpt lat="42.34288377151255" lon="13.315591148445609"><ele>737.0</ele><time>2026-04-27T14:25:45Z</time></trkpt><trkpt lat="42.34297316831522" lon="13.31551546888141"><ele>737.0</ele><time>2026-04-27T14:25:46Z</time></trkpt><trkpt lat="42.34306898529364" lon="13.31545787892303"><ele>737.0</ele><time>2026-04-27T14:25:47Z</time></trkpt><trkpt lat="42.34315148770698" lon="13.315418850939094"><ele>735.6666666666666</ele><time>2026-04-27T14:25:48Z</time></trkpt><trkpt lat="42.34322890129397" lon="13.315400447299481"><ele>734.3333333333333</ele><time>2026-04-27T14:25:49Z</time></trkpt><trkpt lat="42.34330045156923" lon="13.315395768805557"><ele>733.0</ele><time>2026-04-27T14:25:50Z</time></trkpt><trkpt lat="42.34338037332673" lon="13.315408671979085"><ele>731.6666666666666</ele><time>2026-04-27T14:25:51Z</time></trkpt><trkpt lat="42.3434683316662" lon="13.315441517730967"><ele>730.3333333333334</ele><time>2026-04-27T14:25:52Z</time></trkpt><trkpt lat="42.34355870946719" lon="13.315475607363146"><ele>729.0</ele><time>2026-04-27T14:25:53Z</time></trkpt><trkpt lat="42.34364222640092" lon="13.315497401321657"><ele>729.0</ele><time>2026-04-27T14:25:54Z</time></trkpt><trkpt lat="42.3437225294928" lon="13.315515005105423"><ele>729.0</ele><time>2026-04-27T14:25:55Z</time></trkpt><trkpt lat="42.343823063556535" lon="13.315539363770837"><ele>729.0</ele><time>2026-04-27T14:25:56Z</time></trkpt><trkpt lat="42.34392138343079" lon="13.31555483508118"><ele>729.0</ele><time>2026-04-27T14:25:57Z</time></trkpt><trkpt lat="42.34403891432555" lon="13.315553022580783"><ele>729.0</ele><time>2026-04-27T14:25:58Z</time></trkpt><trkpt lat="42.34418128611583" lon="13.315546251621335"><ele>727.25</ele><time>2026-04-27T14:25:59Z</time></trkpt><trkpt lat="42.34432244701081" lon="13.315535694695047"><ele>725.5</ele><time>2026-04-27T14:26:00Z</time></trkpt><trkpt lat="42.34446903348653" lon="13.315532272546687"><ele>723.75</ele><time>2026-04-27T14:26:01Z</time></trkpt><trkpt lat="42.34460102957134" lon="13.315535327700498"><ele>722.0</ele><time>2026-04-27T14:26:02Z</time></trkpt><trkpt lat="42.34471627875326" lon="13.315532807309005"><ele>720.5</ele><time>2026-04-27T14:26:03Z</time></trkpt><trkpt lat="42.344816396453176" lon="13.315510241728067"><ele>719.0</ele><time>2026-04-27T14:26:04Z</time></trkpt><trkpt lat="42.34493179391577" lon="13.3154829847247"><ele>717.5</ele><time>2026-04-27T14:26:05Z</time></trkpt><trkpt lat="42.345053995254084" lon="13.315443076464044"><ele>716.0</ele><time>2026-04-27T14:26:06Z</time></trkpt><trkpt lat="42.34516783033548" lon="13.31541843608902"><ele>716.0</ele><time>2026-04-27T14:26:07Z</time></trkpt><trkpt lat="42.3452681897014" lon="13.315407037901316"><ele>716.0</ele><time>2026-04-27T14:26:08Z</time></trkpt><trkpt lat="42.34536079677056" lon="13.315387305551823"><ele>716.0</ele><time>2026-04-27T14:26:09Z</time></trkpt><trkpt lat="42.34544971290455" lon="13.31537658964131"><ele>716.0</ele><time>2026-04-27T14:26:10Z</time></trkpt><trkpt lat="42.34554796378659" lon="13.315404993037829"><ele>716.0</ele><time>2026-04-27T14:26:11Z</time></trkpt><trkpt lat="42.3456554946544" lon="13.315470796749606"><ele>715.5</ele><time>2026-04-27T14:26:12Z</time></trkpt><trkpt lat="42.3457708938774" lon="13.315548000650066"><ele>715.0</ele><time>2026-04-27T14:26:13Z</time></trkpt><trkpt lat="42.34589177613998" lon="13.315582888062428"><ele>714.5</ele><time>2026-04-27T14:26:14Z</time></trkpt><trkpt lat="42.346013030763146" lon="13.31560143440791"><ele>714.0</ele><time>2026-04-27T14:26:15Z</time></trkpt><trkpt lat="42.3461296813074" lon="13.315616681176662"><ele>715.5</ele><time>2026-04-27T14:26:16Z</time></trkpt><trkpt lat="42.34624735593975" lon="13.315649361515218"><ele>717.0</ele><time>2026-04-27T14:26:17Z</time></trkpt><trkpt lat="42.346364256665694" lon="13.3156735396412"><ele>718.5</ele><time>2026-04-27T14:26:18Z</time></trkpt><trkpt lat="42.346467433038605" lon="13.315693624209208"><ele>720.0</ele><time>2026-04-27T14:26:19Z</time></trkpt><trkpt lat="42.346583256557246" lon="13.315718533915208"><ele>720.4</ele><time>2026-04-27T14:26:19.999Z</time></trkpt><trkpt lat="42.346693644361686" lon="13.315749060326642"><ele>720.8</ele><time>2026-04-27T14:26:20.999Z</time></trkpt><trkpt lat="42.34678326560664" lon="13.315787551039511"><ele>721.2</ele><time>2026-04-27T14:26:21.999Z</time></trkpt><trkpt lat="42.346870863566664" lon="13.315848656254111"><ele>721.6</ele><time>2026-04-27T14:26:22.999Z</time></trkpt><trkpt lat="42.34695862847756" lon="13.315931037516679"><ele>722.0</ele><time>2026-04-27T14:26:23.999Z</time></trkpt><trkpt lat="42.347036509074584" lon="13.316018190500385"><ele>722.0</ele><time>2026-04-27T14:26:24.999Z</time></trkpt><trkpt lat="42.347125878573024" lon="13.316121445849314"><ele>722.0</ele><time>2026-04-27T14:26:25.999Z</time></trkpt><trkpt lat="42.347223242054305" lon="13.31622600106396"><ele>722.0</ele><time>2026-04-27T14:26:26.999Z</time></trkpt><trkpt lat="42.34732386383698" lon="13.316288365019103"><ele>722.0</ele><time>2026-04-27T14:26:27.999Z</time></trkpt><trkpt lat="42.347405239018414" lon="13.316362589023116"><ele>721.4000000000001</ele><time>2026-04-27T14:26:28.999Z</time></trkpt><trkpt lat="42.34751142483481" lon="13.316417859790862"><ele>720.8000000000001</ele><time>2026-04-27T14:26:29.999Z</time></trkpt><trkpt lat="42.347615132920865" lon="13.316467510138544"><ele>720.2</ele><time>2026-04-27T14:26:30.999Z</time></trkpt><trkpt lat="42.347698747592325" lon="13.316501282084003"><ele>719.6</ele><time>2026-04-27T14:26:31.999Z</time></trkpt><trkpt lat="42.3477898417715" lon="13.31649947015935"><ele>719.0</ele><time>2026-04-27T14:26:32.999Z</time></trkpt><trkpt lat="42.34785834908964" lon="13.316553664376924"><ele>719.0</ele><time>2026-04-27T14:26:33.999Z</time></trkpt><trkpt lat="42.34794776220564" lon="13.31659986080017"><ele>719.0</ele><time>2026-04-27T14:26:34.999Z</time></trkpt><trkpt lat="42.348032883212916" lon="13.316674480250397"><ele>719.0</ele><time>2026-04-27T14:26:35.999Z</time></trkpt><trkpt lat="42.34812678169105" lon="13.316758184770373"><ele>719.0</ele><time>2026-04-27T14:26:36.999Z</time></trkpt><trkpt lat="42.34822485682959" lon="13.316829203019541"><ele>719.0</ele><time>2026-04-27T14:26:37.999Z</time></trkpt><trkpt lat="42.348326049652684" lon="13.316891227958681"><ele>718.6</ele><time>2026-04-27T14:26:38.999Z</time></trkpt><trkpt lat="42.34842541310569" lon="13.316938155411295"><ele>718.2</ele><time>2026-04-27T14:26:39.999Z</time></trkpt><trkpt lat="42.34853131760993" lon="13.316954619728685"><ele>717.8000000000001</ele><time>2026-04-27T14:26:40.999Z</time></trkpt><trkpt lat="42.34862663400593" lon="13.316965647900792"><ele>717.4000000000001</ele><time>2026-04-27T14:26:41.999Z</time></trkpt><trkpt lat="42.348697576352826" lon="13.316947745762626"><ele>717.0</ele><time>2026-04-27T14:26:42.999Z</time></trkpt><trkpt lat="42.348772913623144" lon="13.316966591442533"><ele>717.0</ele><time>2026-04-27T14:26:43.999Z</time></trkpt><trkpt lat="42.34887535941153" lon="13.316939951289596"><ele>717.0</ele><time>2026-04-27T14:26:45.999Z</time></trkpt><trkpt lat="42.34897114480434" lon="13.316930969845059"><ele>717.0</ele><time>2026-04-27T14:26:48.999Z</time></trkpt><trkpt lat="42.34904072949945" lon="13.316844428548139"><ele>717.0</ele><time>2026-04-27T14:26:50.999Z</time></trkpt><trkpt lat="42.34899483959201" lon="13.31672602280473"><ele>717.0</ele><time>2026-04-27T14:26:51.999Z</time></trkpt><trkpt lat="42.34911439027346" lon="13.316813978719992"><ele>714.6</ele><time>2026-04-27T14:26:54.999Z</time></trkpt><trkpt lat="42.34918263447782" lon="13.316907312603643"><ele>712.2</ele><time>2026-04-27T14:26:55.999Z</time></trkpt><trkpt lat="42.34925718071978" lon="13.317000790931502"><ele>709.8</ele><time>2026-04-27T14:26:56.999Z</time></trkpt><trkpt lat="42.349359879555955" lon="13.317064280053954"><ele>707.4</ele><time>2026-04-27T14:26:57.999Z</time></trkpt><trkpt lat="42.34946514097091" lon="13.317120841383662"><ele>705.0</ele><time>2026-04-27T14:26:58.999Z</time></trkpt><trkpt lat="42.34957739299058" lon="13.317193617718493"><ele>707.0</ele><time>2026-04-27T14:26:59.999Z</time></trkpt><trkpt lat="42.34968500686898" lon="13.317283091972454"><ele>709.0</ele><time>2026-04-27T14:27:00.999Z</time></trkpt><trkpt lat="42.34976265516997" lon="13.317372898828895"><ele>711.0</ele><time>2026-04-27T14:27:01.999Z</time></trkpt><trkpt lat="42.34985695325275" lon="13.317483856983747"><ele>713.0</ele><time>2026-04-27T14:27:02.999Z</time></trkpt><trkpt lat="42.3499885984363" lon="13.31764218935702"><ele>709.0</ele><time>2026-04-27T14:27:03.999Z</time></trkpt><trkpt lat="42.35009105559856" lon="13.317778663449692"><ele>705.0</ele><time>2026-04-27T14:27:04.999Z</time></trkpt><trkpt lat="42.35019044699756" lon="13.317915716899364"><ele>701.0</ele><time>2026-04-27T14:27:05.999Z</time></trkpt><trkpt lat="42.350291706627715" lon="13.318050714894069"><ele>697.0</ele><time>2026-04-27T14:27:06.999Z</time></trkpt><trkpt lat="42.35039484293267" lon="13.318195143919931"><ele>697.0</ele><time>2026-04-27T14:27:07.999Z</time></trkpt><trkpt lat="42.350483535278585" lon="13.318335911728758"><ele>697.0</ele><time>2026-04-27T14:27:08.999Z</time></trkpt><trkpt lat="42.35058354596849" lon="13.31848167668268"><ele>697.0</ele><time>2026-04-27T14:27:09.999Z</time></trkpt><trkpt lat="42.350677655198005" lon="13.318629611302077"><ele>697.0</ele><time>2026-04-27T14:27:10.999Z</time></trkpt><trkpt lat="42.35077792797419" lon="13.318761510062588"><ele>694.25</ele><time>2026-04-27T14:27:11.999Z</time></trkpt><trkpt lat="42.350869125305294" lon="13.318891661886616"><ele>691.5</ele><time>2026-04-27T14:27:12.999Z</time></trkpt><trkpt lat="42.35096675504057" lon="13.31903147325752"><ele>688.75</ele><time>2026-04-27T14:27:13.999Z</time></trkpt><trkpt lat="42.351069967815484" lon="13.319171930195765"><ele>686.0</ele><time>2026-04-27T14:27:14.999Z</time></trkpt><trkpt lat="42.35116995146953" lon="13.319314073580223"><ele>685.25</ele><time>2026-04-27T14:27:15.999Z</time></trkpt><trkpt lat="42.351266377065" lon="13.319438340285815"><ele>684.5</ele><time>2026-04-27T14:27:16.999Z</time></trkpt><trkpt lat="42.35135878408171" lon="13.319548103390673"><ele>683.75</ele><time>2026-04-27T14:27:17.999Z</time></trkpt><trkpt lat="42.351466426216646" lon="13.31964842946785"><ele>683.0</ele><time>2026-04-27T14:27:18.999Z</time></trkpt><trkpt lat="42.35158084268606" lon="13.319745616485786"><ele>683.0</ele><time>2026-04-27T14:27:19.999Z</time></trkpt><trkpt lat="42.3517070933163" lon="13.319829992927039"><ele>683.0</ele><time>2026-04-27T14:27:20.999Z</time></trkpt><trkpt lat="42.351833173589014" lon="13.3199210017204"><ele>683.0</ele><time>2026-04-27T14:27:21.999Z</time></trkpt><trkpt lat="42.35195532788883" lon="13.320018804639911"><ele>683.0</ele><time>2026-04-27T14:27:22.999Z</time></trkpt><trkpt lat="42.35206343416517" lon="13.320131938109594"><ele>683.0</ele><time>2026-04-27T14:27:23.999Z</time></trkpt><trkpt lat="42.352173800382396" lon="13.32024278251894"><ele>683.0</ele><time>2026-04-27T14:27:24.999Z</time></trkpt><trkpt lat="42.35228171337062" lon="13.320352240158677"><ele>683.0</ele><time>2026-04-27T14:27:25.998Z</time></trkpt><trkpt lat="42.35238747601499" lon="13.320445830651195"><ele>683.0</ele><time>2026-04-27T14:27:26.998Z</time></trkpt><trkpt lat="42.35248433777737" lon="13.32053044605371"><ele>681.5999999999999</ele><time>2026-04-27T14:27:27.998Z</time></trkpt><trkpt lat="42.35257520793975" lon="13.320608801416823"><ele>680.1999999999999</ele><time>2026-04-27T14:27:28.998Z</time></trkpt><trkpt lat="42.35265786911624" lon="13.320679866880981"><ele>678.8</ele><time>2026-04-27T14:27:29.998Z</time></trkpt><trkpt lat="42.35272210095369" lon="13.320736381426647"><ele>677.4</ele><time>2026-04-27T14:27:30.998Z</time></trkpt><trkpt lat="42.35277662080437" lon="13.320793084496449"><ele>676.0</ele><time>2026-04-27T14:27:31.998Z</time></trkpt><trkpt lat="42.35286061191555" lon="13.320881933593986"><ele>676.0</ele><time>2026-04-27T14:27:33.998Z</time></trkpt><trkpt lat="42.352861289782126" lon="13.321010813842436"><ele>676.0</ele><time>2026-04-27T14:27:34.998Z</time></trkpt><trkpt lat="42.35285891798011" lon="13.321149240781418"><ele>676.0</ele><time>2026-04-27T14:27:35.998Z</time></trkpt><trkpt lat="42.35284773139821" lon="13.321296571895967"><ele>676.0</ele><time>2026-04-27T14:27:36.998Z</time></trkpt><trkpt lat="42.352846782091746" lon="13.321442802634438"><ele>676.0</ele><time>2026-04-27T14:27:37.998Z</time></trkpt><trkpt lat="42.35286194188508" lon="13.32161094123616"><ele>674.5</ele><time>2026-04-27T14:27:38.998Z</time></trkpt><trkpt lat="42.35289862206927" lon="13.32178635262139"><ele>673.0</ele><time>2026-04-27T14:27:39.998Z</time></trkpt><trkpt lat="42.35295272244245" lon="13.321964933525361"><ele>671.5</ele><time>2026-04-27T14:27:40.998Z</time></trkpt><trkpt lat="42.353013158520774" lon="13.322140386917017"><ele>670.0</ele><time>2026-04-27T14:27:41.998Z</time></trkpt><trkpt lat="42.353075198174615" lon="13.322299962862134"><ele>669.0</ele><time>2026-04-27T14:27:42.998Z</time></trkpt><trkpt lat="42.35312514181061" lon="13.322437069637358"><ele>668.0</ele><time>2026-04-27T14:27:43.998Z</time></trkpt><trkpt lat="42.35316323900402" lon="13.322554779056823"><ele>667.0</ele><time>2026-04-27T14:27:44.998Z</time></trkpt><trkpt lat="42.3531938220849" lon="13.322659943742961"><ele>666.0</ele><time>2026-04-27T14:27:46Z</time></trkpt><trkpt lat="42.35321692946408" lon="13.322786819648853"><ele>665.0</ele><time>2026-04-27T14:27:48Z</time></trkpt><trkpt lat="42.353231213224" lon="13.322900000286978"><ele>665.0</ele><time>2026-04-27T14:27:50Z</time></trkpt><trkpt lat="42.35326418222667" lon="13.322979347370351"><ele>665.0</ele><time>2026-04-27T14:27:51Z</time></trkpt><trkpt lat="42.35332000316202" lon="13.323066792131435"><ele>665.0</ele><time>2026-04-27T14:27:52Z</time></trkpt><trkpt lat="42.353377953732064" lon="13.323145497642605"><ele>665.0</ele><time>2026-04-27T14:27:53Z</time></trkpt><trkpt lat="42.35344119262404" lon="13.323256702677059"><ele>665.0</ele><time>2026-04-27T14:27:54Z</time></trkpt><trkpt lat="42.35349629711658" lon="13.32338374119756"><ele>665.0</ele><time>2026-04-27T14:27:55Z</time></trkpt><trkpt lat="42.35355698342429" lon="13.323519147864173"><ele>664.25</ele><time>2026-04-27T14:27:56Z</time></trkpt><trkpt lat="42.35362679206652" lon="13.323667827298253"><ele>663.5</ele><time>2026-04-27T14:27:57Z</time></trkpt><trkpt lat="42.35369978324523" lon="13.323828360592328"><ele>662.75</ele><time>2026-04-27T14:27:58Z</time></trkpt><trkpt lat="42.353768580957755" lon="13.32398340266235"><ele>662.0</ele><time>2026-04-27T14:27:59Z</time></trkpt><trkpt lat="42.35384106825947" lon="13.324140945689061"><ele>661.6666666666666</ele><time>2026-04-27T14:28:00Z</time></trkpt><trkpt lat="42.35392205220928" lon="13.324310452448538"><ele>661.3333333333334</ele><time>2026-04-27T14:28:01Z</time></trkpt><trkpt lat="42.35400874979028" lon="13.324487188892887"><ele>661.0</ele><time>2026-04-27T14:28:02Z</time></trkpt><trkpt lat="42.35409310835734" lon="13.324668830100238"><ele>659.6666666666667</ele><time>2026-04-27T14:28:03Z</time></trkpt><trkpt lat="42.35417866633955" lon="13.324853019337782"><ele>658.3333333333334</ele><time>2026-04-27T14:28:04Z</time></trkpt><trkpt lat="42.3542683504679" lon="13.3250386749321"><ele>657.0</ele><time>2026-04-27T14:28:05Z</time></trkpt><trkpt lat="42.3543602607231" lon="13.325225008953108"><ele>657.0</ele><time>2026-04-27T14:28:06Z</time></trkpt><trkpt lat="42.35445330366068" lon="13.325406734894687"><ele>657.0</ele><time>2026-04-27T14:28:07Z</time></trkpt><trkpt lat="42.35454882018473" lon="13.325581984715823"><ele>657.0</ele><time>2026-04-27T14:28:08Z</time></trkpt><trkpt lat="42.35464357702567" lon="13.325752590455055"><ele>656.3333333333334</ele><time>2026-04-27T14:28:09Z</time></trkpt><trkpt lat="42.35473247548905" lon="13.325927105800096"><ele>655.6666666666667</ele><time>2026-04-27T14:28:10Z</time></trkpt><trkpt lat="42.354816611805674" lon="13.326100449829077"><ele>655.0</ele><time>2026-04-27T14:28:11Z</time></trkpt><trkpt lat="42.35490186655289" lon="13.32627289265125"><ele>655.0</ele><time>2026-04-27T14:28:12Z</time></trkpt><trkpt lat="42.35498693625615" lon="13.32644485431018"><ele>655.0</ele><time>2026-04-27T14:28:13Z</time></trkpt><trkpt lat="42.35507508967938" lon="13.326611884025365"><ele>655.0</ele><time>2026-04-27T14:28:14Z</time></trkpt><trkpt lat="42.35517291668765" lon="13.326769660904958"><ele>655.0</ele><time>2026-04-27T14:28:15Z</time></trkpt><trkpt lat="42.355274658263966" lon="13.326922881684085"><ele>655.0</ele><time>2026-04-27T14:28:16Z</time></trkpt><trkpt lat="42.35537993910352" lon="13.327077962315576"><ele>655.0</ele><time>2026-04-27T14:28:17Z</time></trkpt><trkpt lat="42.35548264122766" lon="13.327240481000443"><ele>654.3333333333334</ele><time>2026-04-27T14:28:18Z</time></trkpt><trkpt lat="42.35557868630972" lon="13.327416329451243"><ele>653.6666666666666</ele><time>2026-04-27T14:28:19Z</time></trkpt><trkpt lat="42.35567476852768" lon="13.3275929491469"><ele>653.0</ele><time>2026-04-27T14:28:20Z</time></trkpt><trkpt lat="42.35576944786795" lon="13.32777446236143"><ele>653.0</ele><time>2026-04-27T14:28:21Z</time></trkpt><trkpt lat="42.35586463620658" lon="13.327957204204026"><ele>653.0</ele><time>2026-04-27T14:28:22Z</time></trkpt><trkpt lat="42.35596098684826" lon="13.328139018302519"><ele>653.0</ele><time>2026-04-27T14:28:22.999Z</time></trkpt><trkpt lat="42.35605418648705" lon="13.328322434962224"><ele>652.75</ele><time>2026-04-27T14:28:23.999Z</time></trkpt><trkpt lat="42.356137131494464" lon="13.328493421518804"><ele>652.5</ele><time>2026-04-27T14:28:24.999Z</time></trkpt><trkpt lat="42.35620565770169" lon="13.328662052401205"><ele>652.25</ele><time>2026-04-27T14:28:25.999Z</time></trkpt><trkpt lat="42.35625794689301" lon="13.32883430820428"><ele>652.0</ele><time>2026-04-27T14:28:26.999Z</time></trkpt><trkpt lat="42.35627049972398" lon="13.329028679666411"><ele>651.3333333333334</ele><time>2026-04-27T14:28:27.999Z</time></trkpt><trkpt lat="42.356227152206515" lon="13.329225852035279"><ele>650.6666666666666</ele><time>2026-04-27T14:28:28.999Z</time></trkpt><trkpt lat="42.35619685284587" lon="13.329434271721311"><ele>650.0</ele><time>2026-04-27T14:28:29.999Z</time></trkpt><trkpt lat="42.35614851769692" lon="13.329640902722225"><ele>650.6666666666666</ele><time>2026-04-27T14:28:30.999Z</time></trkpt><trkpt lat="42.35610728423595" lon="13.329851305567848"><ele>651.3333333333334</ele><time>2026-04-27T14:28:31.999Z</time></trkpt><trkpt lat="42.35606747169158" lon="13.330055076607698"><ele>652.0</ele><time>2026-04-27T14:28:32.999Z</time></trkpt><trkpt lat="42.356025774176466" lon="13.330257554541557"><ele>652.0</ele><time>2026-04-27T14:28:33.999Z</time></trkpt><trkpt lat="42.35598259804571" lon="13.330455458424943"><ele>652.0</ele><time>2026-04-27T14:28:34.999Z</time></trkpt><trkpt lat="42.35594108211622" lon="13.33065579734062"><ele>652.0</ele><time>2026-04-27T14:28:35.999Z</time></trkpt><trkpt lat="42.35590465632315" lon="13.330862136270904"><ele>652.0</ele><time>2026-04-27T14:28:36.999Z</time></trkpt><trkpt lat="42.355877215687165" lon="13.331078801829026"><ele>652.0</ele><time>2026-04-27T14:28:37.999Z</time></trkpt><trkpt lat="42.35585913604582" lon="13.331304483004201"><ele>652.0</ele><time>2026-04-27T14:28:38.999Z</time></trkpt><trkpt lat="42.35584625204508" lon="13.331533244219447"><ele>652.0</ele><time>2026-04-27T14:28:39.999Z</time></trkpt><trkpt lat="42.35582864707661" lon="13.33176697140845"><ele>652.0</ele><time>2026-04-27T14:28:40.999Z</time></trkpt><trkpt lat="42.35581198622246" lon="13.33199212320029"><ele>652.0</ele><time>2026-04-27T14:28:41.999Z</time></trkpt><trkpt lat="42.355794581971516" lon="13.33222372391521"><ele>650.6666666666667</ele><time>2026-04-27T14:28:42.999Z</time></trkpt><trkpt lat="42.35577990037489" lon="13.332456718742526"><ele>649.3333333333334</ele><time>2026-04-27T14:28:43.999Z</time></trkpt><trkpt lat="42.35576693728462" lon="13.332676010070537"><ele>648.0</ele><time>2026-04-27T14:28:44.999Z</time></trkpt><trkpt lat="42.35575057224343" lon="13.332886016947148"><ele>647.6666666666666</ele><time>2026-04-27T14:28:45.999Z</time></trkpt><trkpt lat="42.35573422221245" lon="13.33310063198045"><ele>647.3333333333333</ele><time>2026-04-27T14:28:46.999Z</time></trkpt><trkpt lat="42.35571884716315" lon="13.333313346667637"><ele>647.0</ele><time>2026-04-27T14:28:47.999Z</time></trkpt><trkpt lat="42.35570584580938" lon="13.333523495081417"><ele>647.0</ele><time>2026-04-27T14:28:48.999Z</time></trkpt><trkpt lat="42.35569274933765" lon="13.333730458037987"><ele>647.0</ele><time>2026-04-27T14:28:49.999Z</time></trkpt><trkpt lat="42.35568234553839" lon="13.333935944618265"><ele>647.0</ele><time>2026-04-27T14:28:50.999Z</time></trkpt><trkpt lat="42.35567010728825" lon="13.334141148652092"><ele>646.6666666666666</ele><time>2026-04-27T14:28:51.999Z</time></trkpt><trkpt lat="42.355658805737235" lon="13.334345412920449"><ele>646.3333333333334</ele><time>2026-04-27T14:28:52.999Z</time></trkpt><trkpt lat="42.35566386243291" lon="13.334552136413246"><ele>646.0</ele><time>2026-04-27T14:28:53.999Z</time></trkpt><trkpt lat="42.35569575729688" lon="13.334747744108652"><ele>645.0</ele><time>2026-04-27T14:28:54.999Z</time></trkpt><trkpt lat="42.35573754992734" lon="13.334916493394623"><ele>644.0</ele><time>2026-04-27T14:28:55.999Z</time></trkpt><trkpt lat="42.355771694594345" lon="13.335058171472195"><ele>643.0</ele><time>2026-04-27T14:28:56.999Z</time></trkpt><trkpt lat="42.355803054160745" lon="13.335198089401915"><ele>642.0</ele><time>2026-04-27T14:28:57.999Z</time></trkpt><trkpt lat="42.35582454472854" lon="13.335341477971875"><ele>642.0</ele><time>2026-04-27T14:28:58.999Z</time></trkpt><trkpt lat="42.3558323340455" lon="13.33548283605642"><ele>642.0</ele><time>2026-04-27T14:28:59.999Z</time></trkpt><trkpt lat="42.355817622697344" lon="13.335625916709821"><ele>642.0</ele><time>2026-04-27T14:29:00.999Z</time></trkpt><trkpt lat="42.35578632268241" lon="13.335786017094257"><ele>642.0</ele><time>2026-04-27T14:29:01.999Z</time></trkpt><trkpt lat="42.35572573969311" lon="13.33593999256554"><ele>641.5</ele><time>2026-04-27T14:29:02.999Z</time></trkpt><trkpt lat="42.355685536482724" lon="13.3361126165991"><ele>641.0</ele><time>2026-04-27T14:29:03.999Z</time></trkpt><trkpt lat="42.355631747487216" lon="13.336274967120271"><ele>640.5</ele><time>2026-04-27T14:29:04.999Z</time></trkpt><trkpt lat="42.35558255705389" lon="13.336427420808766"><ele>640.0</ele><time>2026-04-27T14:29:05.999Z</time></trkpt><trkpt lat="42.355516734043846" lon="13.336546294813358"><ele>640.0</ele><time>2026-04-27T14:29:06.999Z</time></trkpt><trkpt lat="42.355453272721775" lon="13.33665696687592"><ele>640.0</ele><time>2026-04-27T14:29:07.999Z</time></trkpt><trkpt lat="42.3553766731676" lon="13.336754484726232"><ele>640.0</ele><time>2026-04-27T14:29:08.999Z</time></trkpt><trkpt lat="42.35529259056912" lon="13.336853217704162"><ele>640.0</ele><time>2026-04-27T14:29:09.999Z</time></trkpt><trkpt lat="42.35520905575301" lon="13.336950495663087"><ele>640.0</ele><time>2026-04-27T14:29:10.999Z</time></trkpt><trkpt lat="42.35513135526997" lon="13.33703329815796"><ele>640.0</ele><time>2026-04-27T14:29:11.999Z</time></trkpt><trkpt lat="42.35505963604853" lon="13.33712030634624"><ele>640.0</ele><time>2026-04-27T14:29:12.999Z</time></trkpt><trkpt lat="42.3549717944556" lon="13.337186467691364"><ele>640.0</ele><time>2026-04-27T14:29:13.999Z</time></trkpt><trkpt lat="42.35488381266006" lon="13.337258401384561"><ele>640.0</ele><time>2026-04-27T14:29:14.999Z</time></trkpt><trkpt lat="42.3547962237396" lon="13.337325860862228"><ele>640.0</ele><time>2026-04-27T14:29:15.999Z</time></trkpt><trkpt lat="42.35470520699482" lon="13.337386375686076"><ele>639.4</ele><time>2026-04-27T14:29:16.999Z</time></trkpt><trkpt lat="42.35461498565894" lon="13.337451790200145"><ele>638.8</ele><time>2026-04-27T14:29:17.999Z</time></trkpt><trkpt lat="42.35452538908559" lon="13.337518048745086"><ele>638.2</ele><time>2026-04-27T14:29:18.999Z</time></trkpt><trkpt lat="42.35443484465911" lon="13.337579074018066"><ele>637.6</ele><time>2026-04-27T14:29:19.999Z</time></trkpt><trkpt lat="42.35434463174491" lon="13.337635803623183"><ele>637.0</ele><time>2026-04-27T14:29:20.999Z</time></trkpt><trkpt lat="42.3542557031477" lon="13.337695485355463"><ele>637.0</ele><time>2026-04-27T14:29:21.999Z</time></trkpt><trkpt lat="42.35415819234851" lon="13.337727868071362"><ele>637.0</ele><time>2026-04-27T14:29:22.999Z</time></trkpt><trkpt lat="42.354068096032634" lon="13.337770306497521"><ele>637.0</ele><time>2026-04-27T14:29:23.999Z</time></trkpt><trkpt lat="42.35399009259426" lon="13.337804488667281"><ele>637.0</ele><time>2026-04-27T14:29:24.999Z</time></trkpt><trkpt lat="42.35391364014339" lon="13.337826978018668"><ele>637.0</ele><time>2026-04-27T14:29:25.999Z</time></trkpt><trkpt lat="42.35384451045292" lon="13.337847351017148"><ele>637.0</ele><time>2026-04-27T14:29:26.999Z</time></trkpt><trkpt lat="42.35378199924275" lon="13.33780940270244"><ele>637.6</ele><time>2026-04-27T14:29:27.999Z</time></trkpt><trkpt lat="42.35371303862797" lon="13.337735820648538"><ele>638.2</ele><time>2026-04-27T14:29:28.999Z</time></trkpt><trkpt lat="42.35363658588008" lon="13.337659333549022"><ele>638.8</ele><time>2026-04-27T14:29:29.998Z</time></trkpt><trkpt lat="42.353570931243" lon="13.337563789243982"><ele>639.4</ele><time>2026-04-27T14:29:30.998Z</time></trkpt><trkpt lat="42.353469144761114" lon="13.33750558826647"><ele>640.0</ele><time>2026-04-27T14:29:31.998Z</time></trkpt><trkpt lat="42.35337072323149" lon="13.337499392500094"><ele>640.0</ele><time>2026-04-27T14:29:32.998Z</time></trkpt><trkpt lat="42.35328401865364" lon="13.337545843053187"><ele>640.0</ele><time>2026-04-27T14:29:33.998Z</time></trkpt><trkpt lat="42.353216462785824" lon="13.33761970819758"><ele>640.0</ele><time>2026-04-27T14:29:34.998Z</time></trkpt><trkpt lat="42.353166454634966" lon="13.337722532600004"><ele>640.0</ele><time>2026-04-27T14:29:35.998Z</time></trkpt><trkpt lat="42.3531344143167" lon="13.337831263960911"><ele>640.0</ele><time>2026-04-27T14:29:36.998Z</time></trkpt><trkpt lat="42.35315486028853" lon="13.337959320486256"><ele>639.6666666666667</ele><time>2026-04-27T14:29:37.998Z</time></trkpt><trkpt lat="42.35318615124528" lon="13.338065046124333"><ele>639.3333333333334</ele><time>2026-04-27T14:29:38.998Z</time></trkpt><trkpt lat="42.35321888540127" lon="13.338143866285687"><ele>639.0</ele><time>2026-04-27T14:29:39.998Z</time></trkpt><trkpt lat="42.3532487751422" lon="13.338250549450699"><ele>638.6666666666666</ele><time>2026-04-27T14:29:41.998Z</time></trkpt><trkpt lat="42.35332005519871" lon="13.338224448102185"><ele>638.3333333333333</ele><time>2026-04-27T14:29:43.998Z</time></trkpt><trkpt lat="42.353382311187005" lon="13.338244334659313"><ele>638.0</ele><time>2026-04-27T14:29:45.998Z</time></trkpt><trkpt lat="42.35350599897371" lon="13.33823677855379"><ele>638.0</ele><time>2026-04-27T14:29:47.998Z</time></trkpt><trkpt lat="42.35361305304243" lon="13.338195671104128"><ele>638.0</ele><time>2026-04-27T14:29:49.998Z</time></trkpt><trkpt lat="42.353692595135534" lon="13.338404982520153"><ele>638.0</ele><time>2026-04-27T14:29:50.998Z</time></trkpt><trkpt lat="42.35373483701585" lon="13.33850041379277"><ele>638.0</ele><time>2026-04-27T14:29:52Z</time></trkpt><trkpt lat="42.35377165840655" lon="13.338610129374322"><ele>638.0</ele><time>2026-04-27T14:29:53Z</time></trkpt><trkpt lat="42.353811299184144" lon="13.338724201625224"><ele>638.0</ele><time>2026-04-27T14:29:54Z</time></trkpt><trkpt lat="42.35385308757379" lon="13.338829279544484"><ele>638.0</ele><time>2026-04-27T14:29:55Z</time></trkpt><trkpt lat="42.35389698973012" lon="13.338932878119756"><ele>638.0</ele><time>2026-04-27T14:29:56Z</time></trkpt><trkpt lat="42.3539220973761" lon="13.339045949835144"><ele>638.0</ele><time>2026-04-27T14:29:57Z</time></trkpt><trkpt lat="42.353912716208946" lon="13.339164789077744"><ele>638.0</ele><time>2026-04-27T14:29:58Z</time></trkpt><trkpt lat="42.353880442737264" lon="13.33928509452604"><ele>637.1999999999999</ele><time>2026-04-27T14:29:59Z</time></trkpt><trkpt lat="42.353829726522875" lon="13.339398772450432"><ele>636.4</ele><time>2026-04-27T14:30:00Z</time></trkpt><trkpt lat="42.353764365010974" lon="13.339497925362814"><ele>635.5999999999999</ele><time>2026-04-27T14:30:01Z</time></trkpt><trkpt lat="42.35368816220239" lon="13.33958450116116"><ele>634.8</ele><time>2026-04-27T14:30:02Z</time></trkpt><trkpt lat="42.35359922831067" lon="13.339678293026152"><ele>634.0</ele><time>2026-04-27T14:30:03Z</time></trkpt><trkpt lat="42.353507359909145" lon="13.339772159038814"><ele>633.5</ele><time>2026-04-27T14:30:04Z</time></trkpt><trkpt lat="42.353418743917985" lon="13.339882437589546"><ele>633.0</ele><time>2026-04-27T14:30:05Z</time></trkpt><trkpt lat="42.35333395820298" lon="13.34001045533912"><ele>632.5</ele><time>2026-04-27T14:30:06Z</time></trkpt><trkpt lat="42.35324278980903" lon="13.340139677890024"><ele>632.0</ele><time>2026-04-27T14:30:07Z</time></trkpt><trkpt lat="42.35316075083242" lon="13.34026931090996"><ele>632.0</ele><time>2026-04-27T14:30:08Z</time></trkpt><trkpt lat="42.35308009529395" lon="13.340419710653066"><ele>632.0</ele><time>2026-04-27T14:30:09Z</time></trkpt><trkpt lat="42.35299515360334" lon="13.340577945482456"><ele>632.0</ele><time>2026-04-27T14:30:10Z</time></trkpt><trkpt lat="42.35291214157769" lon="13.34073724844106"><ele>632.0</ele><time>2026-04-27T14:30:11Z</time></trkpt><trkpt lat="42.35284020644516" lon="13.34088236525409"><ele>631.75</ele><time>2026-04-27T14:30:12Z</time></trkpt><trkpt lat="42.35276482665316" lon="13.341032723676301"><ele>631.5</ele><time>2026-04-27T14:30:13Z</time></trkpt><trkpt lat="42.352691984294765" lon="13.341199000538198"><ele>631.25</ele><time>2026-04-27T14:30:14Z</time></trkpt><trkpt lat="42.3526248898024" lon="13.341377849720478"><ele>631.0</ele><time>2026-04-27T14:30:15Z</time></trkpt><trkpt lat="42.35256221317953" lon="13.341564038083222"><ele>631.0</ele><time>2026-04-27T14:30:16Z</time></trkpt><trkpt lat="42.35251307584971" lon="13.341757209286918"><ele>631.0</ele><time>2026-04-27T14:30:17Z</time></trkpt><trkpt lat="42.35246845615949" lon="13.341952585988242"><ele>631.0</ele><time>2026-04-27T14:30:18Z</time></trkpt><trkpt lat="42.35241923761332" lon="13.342144988056134"><ele>630.75</ele><time>2026-04-27T14:30:19Z</time></trkpt><trkpt lat="42.35237119736817" lon="13.342337967918791"><ele>630.5</ele><time>2026-04-27T14:30:20Z</time></trkpt><trkpt lat="42.35232360162622" lon="13.342529182841076"><ele>630.25</ele><time>2026-04-27T14:30:21Z</time></trkpt><trkpt lat="42.35227520059655" lon="13.342718564072547"><ele>630.0</ele><time>2026-04-27T14:30:22Z</time></trkpt><trkpt lat="42.3522274902004" lon="13.34290861612168"><ele>629.6666666666666</ele><time>2026-04-27T14:30:23Z</time></trkpt><trkpt lat="42.35218180671461" lon="13.343098901157749"><ele>629.3333333333333</ele><time>2026-04-27T14:30:24Z</time></trkpt><trkpt lat="42.35213165620043" lon="13.343289162578824"><ele>629.0</ele><time>2026-04-27T14:30:25Z</time></trkpt><trkpt lat="42.352076666173595" lon="13.34348257854957"><ele>629.0</ele><time>2026-04-27T14:30:26Z</time></trkpt><trkpt lat="42.3520234362972" lon="13.343680023060987"><ele>629.0</ele><time>2026-04-27T14:30:27Z</time></trkpt><trkpt lat="42.35197388170039" lon="13.343880645757075"><ele>629.0</ele><time>2026-04-27T14:30:27.999Z</time></trkpt><trkpt lat="42.35192321058569" lon="13.344084103952033"><ele>629.3333333333333</ele><time>2026-04-27T14:30:28.999Z</time></trkpt><trkpt lat="42.35187032482428" lon="13.344288117372658"><ele>629.6666666666666</ele><time>2026-04-27T14:30:29.999Z</time></trkpt><trkpt lat="42.351818604051985" lon="13.34449349252126"><ele>630.0</ele><time>2026-04-27T14:30:30.999Z</time></trkpt><trkpt lat="42.35176654774554" lon="13.344702888024194"><ele>630.0</ele><time>2026-04-27T14:30:31.999Z</time></trkpt><trkpt lat="42.35171383135685" lon="13.344911626318712"><ele>630.0</ele><time>2026-04-27T14:30:32.999Z</time></trkpt><trkpt lat="42.351656805081525" lon="13.345119916888804"><ele>630.0</ele><time>2026-04-27T14:30:33.999Z</time></trkpt><trkpt lat="42.35160359137683" lon="13.34532884911681"><ele>630.0</ele><time>2026-04-27T14:30:34.999Z</time></trkpt><trkpt lat="42.35155533698719" lon="13.345536101171403"><ele>630.0</ele><time>2026-04-27T14:30:35.999Z</time></trkpt><trkpt lat="42.35150553086107" lon="13.345739639278522"><ele>630.0</ele><time>2026-04-27T14:30:36.999Z</time></trkpt><trkpt lat="42.35145298480792" lon="13.345942482344409"><ele>630.0</ele><time>2026-04-27T14:30:37.999Z</time></trkpt><trkpt lat="42.351401702532506" lon="13.346145364711388"><ele>630.0</ele><time>2026-04-27T14:30:38.999Z</time></trkpt><trkpt lat="42.35135278151139" lon="13.346346304888069"><ele>630.0</ele><time>2026-04-27T14:30:39.999Z</time></trkpt><trkpt lat="42.35129919265726" lon="13.346545468109383"><ele>630.0</ele><time>2026-04-27T14:30:40.999Z</time></trkpt><trkpt lat="42.35125141593863" lon="13.34674394743004"><ele>630.0</ele><time>2026-04-27T14:30:41.999Z</time></trkpt><trkpt lat="42.351210124637525" lon="13.346943384278953"><ele>630.0</ele><time>2026-04-27T14:30:42.999Z</time></trkpt><trkpt lat="42.3511740510688" lon="13.347141078339373"><ele>629.75</ele><time>2026-04-27T14:30:43.999Z</time></trkpt><trkpt lat="42.35115208033175" lon="13.347339182915034"><ele>629.5</ele><time>2026-04-27T14:30:44.999Z</time></trkpt><trkpt lat="42.35114367665245" lon="13.347525734810018"><ele>629.25</ele><time>2026-04-27T14:30:45.999Z</time></trkpt><trkpt lat="42.35113981466373" lon="13.347699840244323"><ele>629.0</ele><time>2026-04-27T14:30:46.999Z</time></trkpt><trkpt lat="42.351138101129706" lon="13.347865180951963"><ele>629.0</ele><time>2026-04-27T14:30:47.999Z</time></trkpt><trkpt lat="42.35113343809072" lon="13.348024377425077"><ele>629.0</ele><time>2026-04-27T14:30:48.999Z</time></trkpt><trkpt lat="42.35112932613668" lon="13.348167225263937"><ele>629.0</ele><time>2026-04-27T14:30:49.999Z</time></trkpt><trkpt lat="42.3511216278681" lon="13.34827319098568"><ele>629.0</ele><time>2026-04-27T14:30:50.999Z</time></trkpt><trkpt lat="42.35111309079138" lon="13.348374465900212"><ele>629.0</ele><time>2026-04-27T14:30:52.999Z</time></trkpt><trkpt lat="42.351082143093166" lon="13.348490408008633"><ele>629.2</ele><time>2026-04-27T14:30:55.999Z</time></trkpt><trkpt lat="42.35105197304271" lon="13.348610608088542"><ele>629.4</ele><time>2026-04-27T14:30:57.999Z</time></trkpt><trkpt lat="42.35104076663635" lon="13.3487507421313"><ele>629.6</ele><time>2026-04-27T14:30:59.999Z</time></trkpt><trkpt lat="42.351116812389236" lon="13.348857950865336"><ele>629.8</ele><time>2026-04-27T14:31:01.999Z</time></trkpt><trkpt lat="42.35120297452835" lon="13.34881035407392"><ele>630.0</ele><time>2026-04-27T14:31:02.999Z</time></trkpt><trkpt lat="42.351297457577665" lon="13.348809540766222"><ele>630.5</ele><time>2026-04-27T14:31:03.999Z</time></trkpt><trkpt lat="42.351405360771594" lon="13.348809642870382"><ele>631.0</ele><time>2026-04-27T14:31:04.999Z</time></trkpt><trkpt lat="42.351516458842426" lon="13.348841361893472"><ele>631.5</ele><time>2026-04-27T14:31:05.999Z</time></trkpt><trkpt lat="42.35162902289521" lon="13.348877853091707"><ele>632.0</ele><time>2026-04-27T14:31:06.999Z</time></trkpt><trkpt lat="42.35175006507503" lon="13.348912348672588"><ele>630.75</ele><time>2026-04-27T14:31:07.999Z</time></trkpt><trkpt lat="42.351876392342966" lon="13.34895981826327"><ele>629.5</ele><time>2026-04-27T14:31:08.999Z</time></trkpt><trkpt lat="42.35200623500393" lon="13.349009945217153"><ele>628.25</ele><time>2026-04-27T14:31:09.999Z</time></trkpt><trkpt lat="42.352132364059884" lon="13.3490552302982"><ele>627.0</ele><time>2026-04-27T14:31:10.999Z</time></trkpt><trkpt lat="42.352265439840366" lon="13.349102749814712"><ele>627.0</ele><time>2026-04-27T14:31:11.999Z</time></trkpt><trkpt lat="42.35240544788906" lon="13.349152367538954"><ele>627.0</ele><time>2026-04-27T14:31:12.999Z</time></trkpt><trkpt lat="42.35254743636837" lon="13.349206273137662"><ele>627.0</ele><time>2026-04-27T14:31:13.999Z</time></trkpt><trkpt lat="42.35269470584092" lon="13.349260400110486"><ele>627.0</ele><time>2026-04-27T14:31:14.999Z</time></trkpt><trkpt lat="42.35284483415334" lon="13.349313328544726"><ele>627.0</ele><time>2026-04-27T14:31:15.999Z</time></trkpt><trkpt lat="42.35299885703448" lon="13.34936808212253"><ele>627.0</ele><time>2026-04-27T14:31:16.999Z</time></trkpt><trkpt lat="42.35315470089564" lon="13.349425525907915"><ele>627.0</ele><time>2026-04-27T14:31:17.999Z</time></trkpt><trkpt lat="42.35331257779774" lon="13.349481582952434"><ele>627.6666666666666</ele><time>2026-04-27T14:31:18.999Z</time></trkpt><trkpt lat="42.35347070835901" lon="13.349534784259431"><ele>628.3333333333333</ele><time>2026-04-27T14:31:19.999Z</time></trkpt><trkpt lat="42.35362963538239" lon="13.349574867544888"><ele>629.0</ele><time>2026-04-27T14:31:20.999Z</time></trkpt><trkpt lat="42.35379129443032" lon="13.349595737445641"><ele>629.6666666666666</ele><time>2026-04-27T14:31:21.999Z</time></trkpt><trkpt lat="42.3539530338445" lon="13.349608027850532"><ele>630.3333333333334</ele><time>2026-04-27T14:31:22.999Z</time></trkpt><trkpt lat="42.354114973485196" lon="13.349619071538433"><ele>631.0</ele><time>2026-04-27T14:31:23.999Z</time></trkpt><trkpt lat="42.35427824976682" lon="13.349630115469585"><ele>631.0</ele><time>2026-04-27T14:31:24.999Z</time></trkpt><trkpt lat="42.35444492898332" lon="13.349645532156718"><ele>631.0</ele><time>2026-04-27T14:31:25.999Z</time></trkpt><trkpt lat="42.35461505409389" lon="13.349657699266935"><ele>631.0</ele><time>2026-04-27T14:31:26.999Z</time></trkpt><trkpt lat="42.354791450508806" lon="13.349668859907066"><ele>631.0</ele><time>2026-04-27T14:31:27.999Z</time></trkpt><trkpt lat="42.35497574221938" lon="13.34968498111738"><ele>631.0</ele><time>2026-04-27T14:31:28.999Z</time></trkpt><trkpt lat="42.35515865460575" lon="13.34970395707014"><ele>631.0</ele><time>2026-04-27T14:31:29.999Z</time></trkpt><trkpt lat="42.35533681507404" lon="13.349720502081714"><ele>631.0</ele><time>2026-04-27T14:31:30.999Z</time></trkpt><trkpt lat="42.3555029658432" lon="13.349734419257741"><ele>631.0</ele><time>2026-04-27T14:31:31.999Z</time></trkpt><trkpt lat="42.355653698982564" lon="13.349746158432724"><ele>631.0</ele><time>2026-04-27T14:31:32.999Z</time></trkpt><trkpt lat="42.355796835900705" lon="13.349754974253198"><ele>630.5</ele><time>2026-04-27T14:31:33.999Z</time></trkpt><trkpt lat="42.35593247853684" lon="13.349761259700848"><ele>630.0</ele><time>2026-04-27T14:31:34.998Z</time></trkpt><trkpt lat="42.35606230592246" lon="13.34976942598599"><ele>629.5</ele><time>2026-04-27T14:31:35.998Z</time></trkpt><trkpt lat="42.35619264036188" lon="13.349781551557015"><ele>629.0</ele><time>2026-04-27T14:31:36.998Z</time></trkpt><trkpt lat="42.356326508557764" lon="13.34979290675742"><ele>629.4</ele><time>2026-04-27T14:31:37.998Z</time></trkpt><trkpt lat="42.35645889234187" lon="13.349802443229029"><ele>629.8</ele><time>2026-04-27T14:31:38.998Z</time></trkpt><trkpt lat="42.35657451914926" lon="13.349815974256897"><ele>630.2</ele><time>2026-04-27T14:31:39.998Z</time></trkpt><trkpt lat="42.35667266656746" lon="13.349838009995787"><ele>630.6</ele><time>2026-04-27T14:31:40.998Z</time></trkpt><trkpt lat="42.356763654355206" lon="13.34987521403"><ele>631.0</ele><time>2026-04-27T14:31:41.998Z</time></trkpt><trkpt lat="42.35684967219749" lon="13.349893163525055"><ele>631.0</ele><time>2026-04-27T14:31:42.998Z</time></trkpt><trkpt lat="42.35692388413903" lon="13.35004849988166"><ele>631.0</ele><time>2026-04-27T14:31:43.998Z</time></trkpt><trkpt lat="42.35699157277248" lon="13.35014076016127"><ele>631.0</ele><time>2026-04-27T14:31:44.998Z</time></trkpt><trkpt lat="42.35707057200439" lon="13.350205295525653"><ele>631.0</ele><time>2026-04-27T14:31:45.998Z</time></trkpt><trkpt lat="42.35716905630542" lon="13.35023815119563"><ele>631.0</ele><time>2026-04-27T14:31:46.998Z</time></trkpt><trkpt lat="42.3572768649101" lon="13.350256017731814"><ele>631.6</ele><time>2026-04-27T14:31:47.998Z</time></trkpt><trkpt lat="42.357385135340174" lon="13.350271671613815"><ele>632.2</ele><time>2026-04-27T14:31:48.998Z</time></trkpt><trkpt lat="42.357489699021784" lon="13.350298651922946"><ele>632.8</ele><time>2026-04-27T14:31:49.998Z</time></trkpt><trkpt lat="42.3575925604797" lon="13.350354305992854"><ele>633.4</ele><time>2026-04-27T14:31:50.998Z</time></trkpt><trkpt lat="42.35769188336438" lon="13.350434357156919"><ele>634.0</ele><time>2026-04-27T14:31:51.998Z</time></trkpt><trkpt lat="42.35778293700378" lon="13.350528265552708"><ele>633.25</ele><time>2026-04-27T14:31:52.998Z</time></trkpt><trkpt lat="42.35786847227448" lon="13.350634636538809"><ele>632.5</ele><time>2026-04-27T14:31:53.998Z</time></trkpt><trkpt lat="42.35795163010747" lon="13.350747078197013"><ele>631.75</ele><time>2026-04-27T14:31:54.998Z</time></trkpt><trkpt lat="42.358034931338665" lon="13.350862224984828"><ele>631.0</ele><time>2026-04-27T14:31:55.998Z</time></trkpt><trkpt lat="42.35811742072991" lon="13.350982528704286"><ele>630.5</ele><time>2026-04-27T14:31:56.998Z</time></trkpt><trkpt lat="42.358196288542025" lon="13.351110054871652"><ele>630.0</ele><time>2026-04-27T14:31:58Z</time></trkpt><trkpt lat="42.35827218186178" lon="13.351240807195557"><ele>629.5</ele><time>2026-04-27T14:31:59Z</time></trkpt><trkpt lat="42.35834353334009" lon="13.351372639436924"><ele>629.0</ele><time>2026-04-27T14:32:00Z</time></trkpt><trkpt lat="42.35840875854197" lon="13.351503545718051"><ele>628.8</ele><time>2026-04-27T14:32:01Z</time></trkpt><trkpt lat="42.35847154282087" lon="13.351633186822195"><ele>628.5999999999999</ele><time>2026-04-27T14:32:02Z</time></trkpt><trkpt lat="42.35853487864777" lon="13.351759545368873"><ele>628.4</ele><time>2026-04-27T14:32:03Z</time></trkpt><trkpt lat="42.35859241010953" lon="13.35187878581861"><ele>628.1999999999999</ele><time>2026-04-27T14:32:04Z</time></trkpt><trkpt lat="42.35863737038929" lon="13.35198499007479"><ele>628.0</ele><time>2026-04-27T14:32:05Z</time></trkpt><trkpt lat="42.358670519437325" lon="13.352086857770088"><ele>628.0</ele><time>2026-04-27T14:32:06Z</time></trkpt><trkpt lat="42.358688089614084" lon="13.352193439635855"><ele>628.0</ele><time>2026-04-27T14:32:07Z</time></trkpt><trkpt lat="42.358693361144844" lon="13.352308869673116"><ele>628.0</ele><time>2026-04-27T14:32:08Z</time></trkpt><trkpt lat="42.358704245812824" lon="13.352426766668245"><ele>628.0</ele><time>2026-04-27T14:32:09Z</time></trkpt><trkpt lat="42.35870677699886" lon="13.352548456604252"><ele>628.0</ele><time>2026-04-27T14:32:10Z</time></trkpt><trkpt lat="42.3587555863836" lon="13.352655536903592"><ele>628.0</ele><time>2026-04-27T14:32:11Z</time></trkpt><trkpt lat="42.35882867586295" lon="13.35274558478868"><ele>628.5</ele><time>2026-04-27T14:32:12Z</time></trkpt><trkpt lat="42.35888854482905" lon="13.352867511809322"><ele>629.0</ele><time>2026-04-27T14:32:13Z</time></trkpt><trkpt lat="42.35893429864034" lon="13.353013209643333"><ele>629.5</ele><time>2026-04-27T14:32:14Z</time></trkpt><trkpt lat="42.35897878536027" lon="13.35317022954592"><ele>630.0</ele><time>2026-04-27T14:32:15Z</time></trkpt><trkpt lat="42.35902832284148" lon="13.353332921939444"><ele>630.0</ele><time>2026-04-27T14:32:16Z</time></trkpt><trkpt lat="42.35908048774797" lon="13.353504406255047"><ele>630.0</ele><time>2026-04-27T14:32:17Z</time></trkpt><trkpt lat="42.35913136658191" lon="13.353683220742548"><ele>630.0</ele><time>2026-04-27T14:32:18Z</time></trkpt><trkpt lat="42.35918217490388" lon="13.353866211131432"><ele>630.0</ele><time>2026-04-27T14:32:19Z</time></trkpt><trkpt lat="42.35923581618127" lon="13.354054980807467"><ele>629.3333333333334</ele><time>2026-04-27T14:32:20Z</time></trkpt><trkpt lat="42.359289603093124" lon="13.354246328101203"><ele>628.6666666666667</ele><time>2026-04-27T14:32:21Z</time></trkpt><trkpt lat="42.35934021454831" lon="13.354434394859974"><ele>628.0</ele><time>2026-04-27T14:32:22Z</time></trkpt><trkpt lat="42.35939335841319" lon="13.354637450493621"><ele>628.0</ele><time>2026-04-27T14:32:23Z</time></trkpt><trkpt lat="42.35944895082821" lon="13.354845123594753"><ele>628.0</ele><time>2026-04-27T14:32:24Z</time></trkpt><trkpt lat="42.3595057960221" lon="13.355054000700536"><ele>628.0</ele><time>2026-04-27T14:32:25Z</time></trkpt><trkpt lat="42.35956536905484" lon="13.35526591547824"><ele>628.0</ele><time>2026-04-27T14:32:26Z</time></trkpt><trkpt lat="42.35962326149319" lon="13.355479493349543"><ele>628.0</ele><time>2026-04-27T14:32:27Z</time></trkpt><trkpt lat="42.35968073142634" lon="13.355694624737128"><ele>628.0</ele><time>2026-04-27T14:32:28Z</time></trkpt><trkpt lat="42.359740084721274" lon="13.355906337961583"><ele>627.3333333333334</ele><time>2026-04-27T14:32:29Z</time></trkpt><trkpt lat="42.359797419937365" lon="13.356118444465395"><ele>626.6666666666666</ele><time>2026-04-27T14:32:30Z</time></trkpt><trkpt lat="42.35984744374678" lon="13.356321980013238"><ele>626.0</ele><time>2026-04-27T14:32:31Z</time></trkpt><trkpt lat="42.35988413138191" lon="13.356509758951995"><ele>626.0</ele><time>2026-04-27T14:32:31.999Z</time></trkpt><trkpt lat="42.35992669727297" lon="13.35669559485589"><ele>626.0</ele><time>2026-04-27T14:32:32.999Z</time></trkpt><trkpt lat="42.359968438221514" lon="13.356889744141544"><ele>626.0</ele><time>2026-04-27T14:32:33.999Z</time></trkpt><trkpt lat="42.36000163540998" lon="13.357092709591686"><ele>626.0</ele><time>2026-04-27T14:32:34.999Z</time></trkpt><trkpt lat="42.360017532451906" lon="13.357305465048965"><ele>626.3333333333333</ele><time>2026-04-27T14:32:35.999Z</time></trkpt><trkpt lat="42.360020149099725" lon="13.357525077764894"><ele>626.6666666666666</ele><time>2026-04-27T14:32:36.999Z</time></trkpt><trkpt lat="42.36001578424701" lon="13.357746194546966"><ele>627.0</ele><time>2026-04-27T14:32:37.999Z</time></trkpt><trkpt lat="42.360001780291874" lon="13.357970752784208"><ele>626.6666666666666</ele><time>2026-04-27T14:32:38.999Z</time></trkpt><trkpt lat="42.35997893514848" lon="13.358196761645512"><ele>626.3333333333333</ele><time>2026-04-27T14:32:39.999Z</time></trkpt><trkpt lat="42.35994687319952" lon="13.358419633978869"><ele>626.0</ele><time>2026-04-27T14:32:40.999Z</time></trkpt><trkpt lat="42.35990526245986" lon="13.358638623461141"><ele>626.0</ele><time>2026-04-27T14:32:41.999Z</time></trkpt><trkpt lat="42.3598515545398" lon="13.35885305892959"><ele>626.0</ele><time>2026-04-27T14:32:42.999Z</time></trkpt><trkpt lat="42.35978945719155" lon="13.359064054840712"><ele>626.0</ele><time>2026-04-27T14:32:43.999Z</time></trkpt><trkpt lat="42.35972771977837" lon="13.359277979638408"><ele>626.3333333333333</ele><time>2026-04-27T14:32:44.999Z</time></trkpt><trkpt lat="42.359667010922315" lon="13.359491412813725"><ele>626.6666666666666</ele><time>2026-04-27T14:32:45.999Z</time></trkpt><trkpt lat="42.359607439634885" lon="13.359704553253923"><ele>627.0</ele><time>2026-04-27T14:32:46.999Z</time></trkpt><trkpt lat="42.359546955410195" lon="13.359917316343894"><ele>627.0</ele><time>2026-04-27T14:32:47.999Z</time></trkpt><trkpt lat="42.35948245709149" lon="13.360130855739103"><ele>627.0</ele><time>2026-04-27T14:32:48.999Z</time></trkpt><trkpt lat="42.35941968785248" lon="13.360341946189525"><ele>627.0</ele><time>2026-04-27T14:32:49.999Z</time></trkpt><trkpt lat="42.35936495667279" lon="13.360529692075255"><ele>627.25</ele><time>2026-04-27T14:32:50.999Z</time></trkpt><trkpt lat="42.35931429681125" lon="13.360705446712252"><ele>627.5</ele><time>2026-04-27T14:32:51.999Z</time></trkpt><trkpt lat="42.359267452558406" lon="13.360877777640702"><ele>627.75</ele><time>2026-04-27T14:32:52.999Z</time></trkpt><trkpt lat="42.359219762176735" lon="13.361050760544902"><ele>628.0</ele><time>2026-04-27T14:32:53.999Z</time></trkpt><trkpt lat="42.35917018375111" lon="13.361219360414047"><ele>629.1999999999999</ele><time>2026-04-27T14:32:54.999Z</time></trkpt><trkpt lat="42.3591237499442" lon="13.361372396379435"><ele>630.4</ele><time>2026-04-27T14:32:55.999Z</time></trkpt><trkpt lat="42.359086820459794" lon="13.361496108206898"><ele>631.5999999999999</ele><time>2026-04-27T14:32:56.999Z</time></trkpt><trkpt lat="42.35905387161601" lon="13.361614755596435"><ele>632.8</ele><time>2026-04-27T14:32:57.999Z</time></trkpt><trkpt lat="42.359018085481175" lon="13.361741316994959"><ele>634.0</ele><time>2026-04-27T14:32:58.999Z</time></trkpt><trkpt lat="42.35898003695903" lon="13.36187980260345"><ele>634.0</ele><time>2026-04-27T14:32:59.999Z</time></trkpt><trkpt lat="42.35894094482282" lon="13.362029546532746"><ele>634.0</ele><time>2026-04-27T14:33:00.999Z</time></trkpt><trkpt lat="42.35890103023976" lon="13.362185544490114"><ele>634.0</ele><time>2026-04-27T14:33:01.999Z</time></trkpt><trkpt lat="42.358855790825245" lon="13.3623430666751"><ele>634.0</ele><time>2026-04-27T14:33:02.999Z</time></trkpt><trkpt lat="42.35881308462569" lon="13.362487701117091"><ele>633.0</ele><time>2026-04-27T14:33:03.999Z</time></trkpt><trkpt lat="42.35877304434595" lon="13.362616300790467"><ele>632.0</ele><time>2026-04-27T14:33:04.999Z</time></trkpt><trkpt lat="42.358742102968975" lon="13.362717368293666"><ele>631.0</ele><time>2026-04-27T14:33:05.999Z</time></trkpt><trkpt lat="42.358710718148856" lon="13.362814253858735"><ele>630.0</ele><time>2026-04-27T14:33:06.999Z</time></trkpt><trkpt lat="42.35868348128857" lon="13.36290439115837"><ele>629.0</ele><time>2026-04-27T14:33:07.999Z</time></trkpt><trkpt lat="42.35865317151582" lon="13.363002663424664"><ele>628.0</ele><time>2026-04-27T14:33:08.999Z</time></trkpt><trkpt lat="42.35862054981685" lon="13.363102254622369"><ele>628.0</ele><time>2026-04-27T14:33:09.999Z</time></trkpt><trkpt lat="42.358589702509924" lon="13.363206523892517"><ele>628.0</ele><time>2026-04-27T14:33:10.999Z</time></trkpt><trkpt lat="42.35855666566899" lon="13.363314785739217"><ele>628.0</ele><time>2026-04-27T14:33:11.999Z</time></trkpt><trkpt lat="42.3585230262799" lon="13.363421802786505"><ele>628.0</ele><time>2026-04-27T14:33:12.999Z</time></trkpt><trkpt lat="42.35849175584492" lon="13.363530617223182"><ele>628.0</ele><time>2026-04-27T14:33:13.999Z</time></trkpt><trkpt lat="42.358462248484976" lon="13.36363112043675"><ele>628.0</ele><time>2026-04-27T14:33:14.999Z</time></trkpt><trkpt lat="42.35843777200553" lon="13.363719029623256"><ele>627.9999999999999</ele><time>2026-04-27T14:33:15.999Z</time></trkpt><trkpt lat="42.35841324500318" lon="13.363814120555485"><ele>628.0</ele><time>2026-04-27T14:33:16.999Z</time></trkpt><trkpt lat="42.35838659807703" lon="13.363916873990618"><ele>628.0</ele><time>2026-04-27T14:33:17.999Z</time></trkpt><trkpt lat="42.35835844808597" lon="13.364018672539705"><ele>628.0</ele><time>2026-04-27T14:33:18.999Z</time></trkpt><trkpt lat="42.358333507740255" lon="13.364117376235603"><ele>628.0</ele><time>2026-04-27T14:33:19.999Z</time></trkpt><trkpt lat="42.35831707437615" lon="13.364207337665848"><ele>627.9999999999999</ele><time>2026-04-27T14:33:20.999Z</time></trkpt><trkpt lat="42.35830281154625" lon="13.364294495731924"><ele>628.0</ele><time>2026-04-27T14:33:21.999Z</time></trkpt><trkpt lat="42.35828435380472" lon="13.364376406721776"><ele>628.1999999999999</ele><time>2026-04-27T14:33:22.999Z</time></trkpt><trkpt lat="42.35825909584229" lon="13.36452004203165"><ele>628.4</ele><time>2026-04-27T14:33:24.999Z</time></trkpt><trkpt lat="42.35823713141939" lon="13.364615360587202"><ele>628.5999999999999</ele><time>2026-04-27T14:33:26.999Z</time></trkpt><trkpt lat="42.35822184203428" lon="13.364740770936061"><ele>628.8</ele><time>2026-04-27T14:33:28.999Z</time></trkpt><trkpt lat="42.358203702013924" lon="13.364890608054056"><ele>629.0</ele><time>2026-04-27T14:33:30.999Z</time></trkpt><trkpt lat="42.358197483628" lon="13.36498141397643"><ele>629.0</ele><time>2026-04-27T14:33:31.999Z</time></trkpt><trkpt lat="42.358185963573845" lon="13.365124908104718"><ele>629.0</ele><time>2026-04-27T14:33:33.999Z</time></trkpt><trkpt lat="42.35817619366986" lon="13.365237094591926"><ele>629.0</ele><time>2026-04-27T14:33:35.999Z</time></trkpt><trkpt lat="42.358172937539926" lon="13.365336863474335"><ele>629.0</ele><time>2026-04-27T14:33:37.999Z</time></trkpt><trkpt lat="42.35817717844306" lon="13.365422068783213"><ele>629.0</ele><time>2026-04-27T14:33:39.998Z</time></trkpt><trkpt lat="42.35817264000924" lon="13.365544354180521"><ele>629.0</ele><time>2026-04-27T14:33:41.998Z</time></trkpt><trkpt lat="42.35818059601485" lon="13.365691354342532"><ele>628.6</ele><time>2026-04-27T14:33:43.998Z</time></trkpt><trkpt lat="42.35820054273958" lon="13.365836760757674"><ele>628.2</ele><time>2026-04-27T14:33:45.998Z</time></trkpt><trkpt lat="42.358235636505206" lon="13.36598871845439"><ele>627.8000000000001</ele><time>2026-04-27T14:33:47.998Z</time></trkpt><trkpt lat="42.35825849676478" lon="13.366074057642251"><ele>627.4</ele><time>2026-04-27T14:33:48.998Z</time></trkpt><trkpt lat="42.35828459990772" lon="13.366172378229782"><ele>627.0</ele><time>2026-04-27T14:33:49.998Z</time></trkpt><trkpt lat="42.35832329166439" lon="13.366278650745768"><ele>627.1666666666666</ele><time>2026-04-27T14:33:50.998Z</time></trkpt><trkpt lat="42.35836747430065" lon="13.366387591067754"><ele>627.3333333333334</ele><time>2026-04-27T14:33:51.998Z</time></trkpt><trkpt lat="42.35841665975851" lon="13.366495197545463"><ele>627.5</ele><time>2026-04-27T14:33:52.998Z</time></trkpt><trkpt lat="42.35846772096324" lon="13.36658632094447"><ele>627.6666666666667</ele><time>2026-04-27T14:33:53.998Z</time></trkpt><trkpt lat="42.358509778369026" lon="13.366675189015256"><ele>627.8333333333334</ele><time>2026-04-27T14:33:54.998Z</time></trkpt><trkpt lat="42.35855287545494" lon="13.366775923896972"><ele>628.0</ele><time>2026-04-27T14:33:55.998Z</time></trkpt><trkpt lat="42.35859480300378" lon="13.366875501173615"><ele>628.0</ele><time>2026-04-27T14:33:56.998Z</time></trkpt><trkpt lat="42.35863905615851" lon="13.36696848945925"><ele>628.0</ele><time>2026-04-27T14:33:57.998Z</time></trkpt><trkpt lat="42.358681432297935" lon="13.367059693901346"><ele>628.0</ele><time>2026-04-27T14:33:58.998Z</time></trkpt><trkpt lat="42.358718545636336" lon="13.367154965566566"><ele>628.0</ele><time>2026-04-27T14:33:59.998Z</time></trkpt><trkpt lat="42.35875445454652" lon="13.36725218684073"><ele>628.0</ele><time>2026-04-27T14:34:00.998Z</time></trkpt><trkpt lat="42.35878919319546" lon="13.367349496495741"><ele>628.0</ele><time>2026-04-27T14:34:01.998Z</time></trkpt><trkpt lat="42.35882486860506" lon="13.367437706035664"><ele>628.1428571428571</ele><time>2026-04-27T14:34:02.998Z</time></trkpt><trkpt lat="42.35885961557036" lon="13.367517242385603"><ele>628.2857142857142</ele><time>2026-04-27T14:34:04Z</time></trkpt><trkpt lat="42.35889093487663" lon="13.367598098176497"><ele>628.4285714285713</ele><time>2026-04-27T14:34:05Z</time></trkpt><trkpt lat="42.35892111978661" lon="13.367680453716668"><ele>628.5714285714286</ele><time>2026-04-27T14:34:07Z</time></trkpt><trkpt lat="42.3589494528164" lon="13.367758645283269"><ele>628.7142857142858</ele><time>2026-04-27T14:34:11Z</time></trkpt><trkpt lat="42.35897197803181" lon="13.36787420637511"><ele>628.8571428571428</ele><time>2026-04-27T14:34:13Z</time></trkpt><trkpt lat="42.358980857697006" lon="13.367979889864921"><ele>629.0</ele><time>2026-04-27T14:34:14Z</time></trkpt><trkpt lat="42.359002750802674" lon="13.368084755743466"><ele>629.0</ele><time>2026-04-27T14:34:15Z</time></trkpt><trkpt lat="42.3590475999398" lon="13.368205402068424"><ele>629.0</ele><time>2026-04-27T14:34:16Z</time></trkpt><trkpt lat="42.35909504163649" lon="13.368346656807567"><ele>629.0</ele><time>2026-04-27T14:34:17Z</time></trkpt><trkpt lat="42.35912439622913" lon="13.368504423840031"><ele>629.0</ele><time>2026-04-27T14:34:18Z</time></trkpt><trkpt lat="42.359146021832466" lon="13.368653828048318"><ele>629.0</ele><time>2026-04-27T14:34:19Z</time></trkpt><trkpt lat="42.35917089345044" lon="13.368814596139412"><ele>629.25</ele><time>2026-04-27T14:34:20Z</time></trkpt><trkpt lat="42.35919476304265" lon="13.368978280771218"><ele>629.5</ele><time>2026-04-27T14:34:21Z</time></trkpt><trkpt lat="42.359219199813374" lon="13.369140136062256"><ele>629.75</ele><time>2026-04-27T14:34:22Z</time></trkpt><trkpt lat="42.359242840867026" lon="13.369296824187922"><ele>630.0</ele><time>2026-04-27T14:34:23Z</time></trkpt><trkpt lat="42.35926343450269" lon="13.369431586187558"><ele>630.0</ele><time>2026-04-27T14:34:24Z</time></trkpt><trkpt lat="42.359286572200084" lon="13.369554081056982"><ele>630.0</ele><time>2026-04-27T14:34:25Z</time></trkpt><trkpt lat="42.35930591010401" lon="13.36966840294985"><ele>630.0</ele><time>2026-04-27T14:34:26Z</time></trkpt><trkpt lat="42.35932343792529" lon="13.369780734634386"><ele>630.0</ele><time>2026-04-27T14:34:27Z</time></trkpt><trkpt lat="42.35934315063462" lon="13.369907352277894"><ele>630.0</ele><time>2026-04-27T14:34:28Z</time></trkpt><trkpt lat="42.35936247732116" lon="13.370040817477754"><ele>630.4</ele><time>2026-04-27T14:34:29Z</time></trkpt><trkpt lat="42.35937775529106" lon="13.370163345546537"><ele>630.8</ele><time>2026-04-27T14:34:30Z</time></trkpt><trkpt lat="42.35939703657051" lon="13.370284736875925"><ele>631.2</ele><time>2026-04-27T14:34:31Z</time></trkpt><trkpt lat="42.35941546945422" lon="13.370411643703111"><ele>631.6</ele><time>2026-04-27T14:34:32Z</time></trkpt><trkpt lat="42.359434273152985" lon="13.370537673716841"><ele>632.0</ele><time>2026-04-27T14:34:33Z</time></trkpt><trkpt lat="42.359453410198576" lon="13.370663788818423"><ele>633.0</ele><time>2026-04-27T14:34:34Z</time></trkpt><trkpt lat="42.359468740223534" lon="13.370774608665764"><ele>634.0</ele><time>2026-04-27T14:34:34.999Z</time></trkpt><trkpt lat="42.35948628214807" lon="13.37088792529151"><ele>635.0</ele><time>2026-04-27T14:34:35.999Z</time></trkpt><trkpt lat="42.35950596121222" lon="13.371020194348405"><ele>636.0</ele><time>2026-04-27T14:34:36.999Z</time></trkpt><trkpt lat="42.3595296244372" lon="13.371156022818829"><ele>637.0</ele><time>2026-04-27T14:34:37.999Z</time></trkpt><trkpt lat="42.35955379467589" lon="13.37129451957724"><ele>637.2</ele><time>2026-04-27T14:34:38.999Z</time></trkpt><trkpt lat="42.35957664292959" lon="13.371431527926863"><ele>637.4000000000001</ele><time>2026-04-27T14:34:39.999Z</time></trkpt><trkpt lat="42.35959755864592" lon="13.371562962765916"><ele>637.5999999999999</ele><time>2026-04-27T14:34:40.999Z</time></trkpt><trkpt lat="42.35961451955388" lon="13.371686598540059"><ele>637.8</ele><time>2026-04-27T14:34:41.999Z</time></trkpt><trkpt lat="42.359629960586474" lon="13.371797298898597"><ele>638.0</ele><time>2026-04-27T14:34:42.999Z</time></trkpt><trkpt lat="42.35964210375371" lon="13.371898885122603"><ele>638.0</ele><time>2026-04-27T14:34:43.999Z</time></trkpt><trkpt lat="42.35965544845464" lon="13.372009495747813"><ele>638.0</ele><time>2026-04-27T14:34:44.999Z</time></trkpt><trkpt lat="42.35967181094286" lon="13.37212816308702"><ele>638.0</ele><time>2026-04-27T14:34:45.999Z</time></trkpt><trkpt lat="42.35969110936798" lon="13.372251617809694"><ele>638.0</ele><time>2026-04-27T14:34:46.999Z</time></trkpt><trkpt lat="42.35971064810219" lon="13.372378243228193"><ele>638.0</ele><time>2026-04-27T14:34:47.999Z</time></trkpt><trkpt lat="42.35972810266715" lon="13.372504556131673"><ele>638.5999999999999</ele><time>2026-04-27T14:34:48.999Z</time></trkpt><trkpt lat="42.35974769795552" lon="13.37262697380307"><ele>639.1999999999999</ele><time>2026-04-27T14:34:49.999Z</time></trkpt><trkpt lat="42.359768449930854" lon="13.37274529195414"><ele>639.8</ele><time>2026-04-27T14:34:50.999Z</time></trkpt><trkpt lat="42.359787862103126" lon="13.372853159840407"><ele>640.4</ele><time>2026-04-27T14:34:51.999Z</time></trkpt><trkpt lat="42.35980378650528" lon="13.372944075560655"><ele>641.0</ele><time>2026-04-27T14:34:52.999Z</time></trkpt><trkpt lat="42.35983042511214" lon="13.373118215118577"><ele>641.5</ele><time>2026-04-27T14:34:54.999Z</time></trkpt><trkpt lat="42.35984506858031" lon="13.37322364039116"><ele>642.0</ele><time>2026-04-27T14:34:55.999Z</time></trkpt><trkpt lat="42.359859020628605" lon="13.373341111403338"><ele>642.5</ele><time>2026-04-27T14:34:56.999Z</time></trkpt><trkpt lat="42.35987503156841" lon="13.37346380709148"><ele>643.0</ele><time>2026-04-27T14:34:57.999Z</time></trkpt><trkpt lat="42.35989662343071" lon="13.373585418223056"><ele>643.5</ele><time>2026-04-27T14:34:58.999Z</time></trkpt><trkpt lat="42.35991630718348" lon="13.37369994289104"><ele>644.0</ele><time>2026-04-27T14:34:59.999Z</time></trkpt><trkpt lat="42.359930341441164" lon="13.373811142393697"><ele>644.1666666666666</ele><time>2026-04-27T14:35:00.999Z</time></trkpt><trkpt lat="42.35994378401317" lon="13.373909761305482"><ele>644.3333333333333</ele><time>2026-04-27T14:35:01.999Z</time></trkpt><trkpt lat="42.35996303636193" lon="13.374013978853876"><ele>644.5</ele><time>2026-04-27T14:35:02.999Z</time></trkpt><trkpt lat="42.359983830828746" lon="13.374105205578982"><ele>644.6666666666666</ele><time>2026-04-27T14:35:03.999Z</time></trkpt><trkpt lat="42.360002241913314" lon="13.37418933035296"><ele>644.8333333333334</ele><time>2026-04-27T14:35:04.999Z</time></trkpt><trkpt lat="42.3600420677669" lon="13.374304589624018"><ele>645.0</ele><time>2026-04-27T14:35:06.999Z</time></trkpt><trkpt lat="42.360117110833485" lon="13.374202994706488"><ele>645.0</ele><time>2026-04-27T14:35:08.999Z</time></trkpt><trkpt lat="42.360105326512006" lon="13.374096526020876"><ele>645.0</ele><time>2026-04-27T14:35:11.999Z</time></trkpt><trkpt lat="42.36009680536454" lon="13.374009569642519"><ele>645.0</ele><time>2026-04-27T14:41:41.999Z</time></trkpt><trkpt lat="42.36012152574407" lon="13.37393089894403"><ele>645.0</ele><time>2026-04-27T14:43:37.999Z</time></trkpt><trkpt lat="42.36018178543649" lon="13.373887970016883"><ele>645.0</ele><time>2026-04-27T14:48:03.999Z</time></trkpt><trkpt lat="42.36013105183981" lon="13.37376098816089"><ele>645.0</ele><time>2026-04-27T14:48:05.999Z</time></trkpt><trkpt lat="42.36006246983377" lon="13.373742709117705"><ele>645.0</ele><time>2026-04-27T14:48:07.999Z</time></trkpt><trkpt lat="42.36003153844223" lon="13.374015386445778"><ele>645.0</ele><time>2026-04-27T14:48:20.999Z</time></trkpt><trkpt lat="42.36004983085128" lon="13.374129863385294"><ele>645.0</ele><time>2026-04-27T14:48:21.999Z</time></trkpt><trkpt lat="42.36006600001281" lon="13.374237141389061"><ele>645.0</ele><time>2026-04-27T14:48:22.999Z</time></trkpt><trkpt lat="42.36008335421563" lon="13.374352576787818"><ele>645.0</ele><time>2026-04-27T14:48:23.999Z</time></trkpt><trkpt lat="42.36009641886917" lon="13.374486427030865"><ele>645.0</ele><time>2026-04-27T14:48:24.999Z</time></trkpt><trkpt lat="42.3601069810516" lon="13.374614900759276"><ele>645.0</ele><time>2026-04-27T14:48:25.999Z</time></trkpt><trkpt lat="42.36011561591003" lon="13.374742986386401"><ele>645.0</ele><time>2026-04-27T14:48:26.999Z</time></trkpt><trkpt lat="42.36012225185579" lon="13.374876109554581"><ele>645.0</ele><time>2026-04-27T14:48:27.999Z</time></trkpt><trkpt lat="42.360137334044914" lon="13.37502063027922"><ele>645.25</ele><time>2026-04-27T14:48:28.999Z</time></trkpt><trkpt lat="42.360157473966126" lon="13.375178931130243"><ele>645.5</ele><time>2026-04-27T14:48:29.999Z</time></trkpt><trkpt lat="42.360178853769234" lon="13.375346782100562"><ele>645.75</ele><time>2026-04-27T14:48:30.999Z</time></trkpt><trkpt lat="42.36020079665774" lon="13.375513058840632"><ele>646.0</ele><time>2026-04-27T14:48:31.999Z</time></trkpt><trkpt lat="42.36022318976562" lon="13.375674838666814"><ele>646.3333333333334</ele><time>2026-04-27T14:48:32.999Z</time></trkpt><trkpt lat="42.36024395995029" lon="13.375818151794217"><ele>646.6666666666667</ele><time>2026-04-27T14:48:33.999Z</time></trkpt><trkpt lat="42.36025882355915" lon="13.375938678118269"><ele>647.0</ele><time>2026-04-27T14:48:34.999Z</time></trkpt><trkpt lat="42.36026997590788" lon="13.376039158799216"><ele>647.3333333333334</ele><time>2026-04-27T14:48:35.999Z</time></trkpt><trkpt lat="42.36028298467692" lon="13.376129316612603"><ele>647.6666666666666</ele><time>2026-04-27T14:48:36.999Z</time></trkpt><trkpt lat="42.36029801355935" lon="13.37621602757589"><ele>648.0</ele><time>2026-04-27T14:48:37.999Z</time></trkpt><trkpt lat="42.36031562454694" lon="13.376384075335313"><ele>648.3333333333334</ele><time>2026-04-27T14:48:39.999Z</time></trkpt><trkpt lat="42.36033093824449" lon="13.37649388149295"><ele>648.6666666666666</ele><time>2026-04-27T14:48:40.999Z</time></trkpt><trkpt lat="42.36034374817628" lon="13.376606709240555"><ele>649.0</ele><time>2026-04-27T14:48:41.999Z</time></trkpt><trkpt lat="42.36035606969795" lon="13.376708351853647"><ele>649.3333333333333</ele><time>2026-04-27T14:48:42.999Z</time></trkpt><trkpt lat="42.360363193262835" lon="13.376811238983034"><ele>649.6666666666666</ele><time>2026-04-27T14:48:43.999Z</time></trkpt><trkpt lat="42.360372294628036" lon="13.376921832353359"><ele>650.0</ele><time>2026-04-27T14:48:44.999Z</time></trkpt><trkpt lat="42.3603800448722" lon="13.37703786398822"><ele>650.0</ele><time>2026-04-27T14:48:46Z</time></trkpt><trkpt lat="42.36038727763635" lon="13.377139169537648"><ele>650.0</ele><time>2026-04-27T14:48:47Z</time></trkpt><trkpt lat="42.36039393205864" lon="13.37728465534594"><ele>650.0</ele><time>2026-04-27T14:48:49Z</time></trkpt><trkpt lat="42.360391801346026" lon="13.377438451720536"><ele>650.0</ele><time>2026-04-27T14:48:51Z</time></trkpt><trkpt lat="42.360401435843876" lon="13.377578969653845"><ele>650.0</ele><time>2026-04-27T14:48:53Z</time></trkpt><trkpt lat="42.36040668919357" lon="13.377664178990347"><ele>650.0</ele><time>2026-04-27T14:48:54Z</time></trkpt><trkpt lat="42.360403855823925" lon="13.377762098108198"><ele>650.0</ele><time>2026-04-27T14:48:55Z</time></trkpt><trkpt lat="42.36039792981421" lon="13.377866667641939"><ele>650.0</ele><time>2026-04-27T14:48:56Z</time></trkpt><trkpt lat="42.36038920169244" lon="13.377969868780516"><ele>650.0</ele><time>2026-04-27T14:48:57Z</time></trkpt><trkpt lat="42.3603791106511" lon="13.378092682494875"><ele>650.0</ele><time>2026-04-27T14:48:58Z</time></trkpt><trkpt lat="42.36036787889851" lon="13.378227524098138"><ele>650.0</ele><time>2026-04-27T14:48:59Z</time></trkpt><trkpt lat="42.360348027989026" lon="13.378360648154988"><ele>650.2</ele><time>2026-04-27T14:49:00Z</time></trkpt><trkpt lat="42.36033112619557" lon="13.378493517822177"><ele>650.4</ele><time>2026-04-27T14:49:01Z</time></trkpt><trkpt lat="42.36031091842848" lon="13.378626612429883"><ele>650.5999999999999</ele><time>2026-04-27T14:49:02Z</time></trkpt><trkpt lat="42.36028630733745" lon="13.378748214919776"><ele>650.8</ele><time>2026-04-27T14:49:03Z</time></trkpt><trkpt lat="42.36026263333933" lon="13.378856117261433"><ele>651.0</ele><time>2026-04-27T14:49:04Z</time></trkpt><trkpt lat="42.3602383814127" lon="13.378949782784694"><ele>651.1999999999999</ele><time>2026-04-27T14:49:05Z</time></trkpt><trkpt lat="42.36019404996154" lon="13.379093105541736"><ele>651.4</ele><time>2026-04-27T14:49:07Z</time></trkpt><trkpt lat="42.36015202588494" lon="13.37917314571162"><ele>651.6</ele><time>2026-04-27T14:49:09Z</time></trkpt><trkpt lat="42.36009071030545" lon="13.379282752954998"><ele>651.8</ele><time>2026-04-27T14:49:11Z</time></trkpt><trkpt lat="42.36006951442739" lon="13.379367732965632"><ele>652.0</ele><time>2026-04-27T14:49:12Z</time></trkpt><trkpt lat="42.36002524740128" lon="13.379497031679913"><ele>652.0</ele><time>2026-04-27T14:49:14Z</time></trkpt><trkpt lat="42.359951026809796" lon="13.379579198572001"><ele>652.0</ele><time>2026-04-27T14:49:16Z</time></trkpt><trkpt lat="42.3598932218014" lon="13.37966989750414"><ele>652.0</ele><time>2026-04-27T14:49:18Z</time></trkpt><trkpt lat="42.35986121966716" lon="13.37983145017716"><ele>652.0</ele><time>2026-04-27T14:49:20Z</time></trkpt><trkpt lat="42.359860009200666" lon="13.379987430223093"><ele>652.0</ele><time>2026-04-27T14:49:22Z</time></trkpt><trkpt lat="42.35987703923958" lon="13.38007157974107"><ele>651.75</ele><time>2026-04-27T14:49:23Z</time></trkpt><trkpt lat="42.35984020098078" lon="13.380195807385153"><ele>651.5</ele><time>2026-04-27T14:49:24Z</time></trkpt><trkpt lat="42.35979722644198" lon="13.380325965598583"><ele>651.25</ele><time>2026-04-27T14:49:25Z</time></trkpt><trkpt lat="42.35974211290444" lon="13.380466644258966"><ele>651.0</ele><time>2026-04-27T14:49:26Z</time></trkpt><trkpt lat="42.3596725758182" lon="13.380622772948168"><ele>650.75</ele><time>2026-04-27T14:49:27Z</time></trkpt><trkpt lat="42.359600927062246" lon="13.380790306861932"><ele>650.5</ele><time>2026-04-27T14:49:28Z</time></trkpt><trkpt lat="42.35953410729844" lon="13.3809631035342"><ele>650.25</ele><time>2026-04-27T14:49:29Z</time></trkpt><trkpt lat="42.359470857907176" lon="13.381125541782923"><ele>650.0</ele><time>2026-04-27T14:49:30Z</time></trkpt><trkpt lat="42.35940675496614" lon="13.381263315003567"><ele>649.8</ele><time>2026-04-27T14:49:31Z</time></trkpt><trkpt lat="42.359345125850204" lon="13.38140047964676"><ele>649.6</ele><time>2026-04-27T14:49:32Z</time></trkpt><trkpt lat="42.35928940766781" lon="13.38152398914396"><ele>649.4000000000001</ele><time>2026-04-27T14:49:33Z</time></trkpt><trkpt lat="42.35923998479455" lon="13.381633980445583"><ele>649.2</ele><time>2026-04-27T14:49:34Z</time></trkpt><trkpt lat="42.35918792137413" lon="13.38175045685765"><ele>649.0</ele><time>2026-04-27T14:49:35Z</time></trkpt><trkpt lat="42.359136783403294" lon="13.381869815564714"><ele>649.0</ele><time>2026-04-27T14:49:36Z</time></trkpt><trkpt lat="42.35908035961065" lon="13.381988735116847"><ele>649.0</ele><time>2026-04-27T14:49:37Z</time></trkpt><trkpt lat="42.35902321403513" lon="13.382113109131303"><ele>649.0</ele><time>2026-04-27T14:49:38Z</time></trkpt><trkpt lat="42.35896210435296" lon="13.382253395369958"><ele>649.0</ele><time>2026-04-27T14:49:39Z</time></trkpt><trkpt lat="42.35889636567574" lon="13.3824015246668"><ele>649.0</ele><time>2026-04-27T14:49:40Z</time></trkpt><trkpt lat="42.35882756842616" lon="13.38255366835282"><ele>649.0</ele><time>2026-04-27T14:49:41Z</time></trkpt><trkpt lat="42.35875466003995" lon="13.382709988807006"><ele>649.0</ele><time>2026-04-27T14:49:42Z</time></trkpt><trkpt lat="42.35867842983883" lon="13.382864099708984"><ele>649.0</ele><time>2026-04-27T14:49:43Z</time></trkpt><trkpt lat="42.3586054629138" lon="13.383017821675999"><ele>649.0</ele><time>2026-04-27T14:49:44Z</time></trkpt><trkpt lat="42.35852961683252" lon="13.383173259916186"><ele>649.0</ele><time>2026-04-27T14:49:45Z</time></trkpt><trkpt lat="42.358454212312125" lon="13.383330828677053"><ele>649.0</ele><time>2026-04-27T14:49:46Z</time></trkpt><trkpt lat="42.35838259773639" lon="13.383485159048451"><ele>649.0</ele><time>2026-04-27T14:49:47Z</time></trkpt><trkpt lat="42.35830713695423" lon="13.383648356085132"><ele>649.0</ele><time>2026-04-27T14:49:48Z</time></trkpt><trkpt lat="42.358232406260655" lon="13.38381709314316"><ele>649.0</ele><time>2026-04-27T14:49:49Z</time></trkpt><trkpt lat="42.35816047659023" lon="13.383979716750494"><ele>649.0</ele><time>2026-04-27T14:49:50Z</time></trkpt><trkpt lat="42.35809381621572" lon="13.384128780594542"><ele>649.0</ele><time>2026-04-27T14:49:51Z</time></trkpt><trkpt lat="42.35803158016511" lon="13.384282764676378"><ele>649.0</ele><time>2026-04-27T14:49:52Z</time></trkpt><trkpt lat="42.357971014277645" lon="13.384441550488429"><ele>649.0</ele><time>2026-04-27T14:49:53Z</time></trkpt><trkpt lat="42.357918658044106" lon="13.38460397957492"><ele>649.0</ele><time>2026-04-27T14:49:54Z</time></trkpt><trkpt lat="42.35787239904804" lon="13.38475787981379"><ele>649.0</ele><time>2026-04-27T14:49:55Z</time></trkpt><trkpt lat="42.35782988178687" lon="13.384897682289795"><ele>649.0</ele><time>2026-04-27T14:49:56Z</time></trkpt><trkpt lat="42.357786505195506" lon="13.385020073956355"><ele>649.0</ele><time>2026-04-27T14:49:57Z</time></trkpt><trkpt lat="42.3577413905113" lon="13.385116465112674"><ele>649.0</ele><time>2026-04-27T14:49:58Z</time></trkpt><trkpt lat="42.35769656064358" lon="13.385197143041719"><ele>649.0</ele><time>2026-04-27T14:49:59Z</time></trkpt><trkpt lat="42.35764718127383" lon="13.385256271205655"><ele>649.0</ele><time>2026-04-27T14:50:00Z</time></trkpt><trkpt lat="42.35758129630699" lon="13.385327822924339"><ele>649.0</ele><time>2026-04-27T14:50:01Z</time></trkpt><trkpt lat="42.35751671061721" lon="13.385429808751901"><ele>649.0</ele><time>2026-04-27T14:50:02Z</time></trkpt><trkpt lat="42.35745940754059" lon="13.38555938590916"><ele>649.0</ele><time>2026-04-27T14:50:03Z</time></trkpt><trkpt lat="42.35739877387909" lon="13.385690941010633"><ele>649.0</ele><time>2026-04-27T14:50:04Z</time></trkpt><trkpt lat="42.35732046878071" lon="13.385806949791277"><ele>649.0</ele><time>2026-04-27T14:50:05Z</time></trkpt><trkpt lat="42.357233792176636" lon="13.385921056002362"><ele>648.8333333333334</ele><time>2026-04-27T14:50:06Z</time></trkpt><trkpt lat="42.357158105002966" lon="13.386002454082208"><ele>648.6666666666667</ele><time>2026-04-27T14:50:07Z</time></trkpt><trkpt lat="42.35709871873281" lon="13.38606669132664"><ele>648.5</ele><time>2026-04-27T14:50:08Z</time></trkpt><trkpt lat="42.35705105530269" lon="13.386122603692016"><ele>648.3333333333334</ele><time>2026-04-27T14:50:09Z</time></trkpt><trkpt lat="42.356996386242656" lon="13.386212702062124"><ele>648.1666666666666</ele><time>2026-04-27T14:50:11Z</time></trkpt><trkpt lat="42.356929538233096" lon="13.386345345068923"><ele>648.0</ele><time>2026-04-27T14:50:13.999Z</time></trkpt><trkpt lat="42.3568813070017" lon="13.38641893405683"><ele>648.0</ele><time>2026-04-27T14:50:14.999Z</time></trkpt><trkpt lat="42.35683192658401" lon="13.386497858472932"><ele>648.0</ele><time>2026-04-27T14:50:15.999Z</time></trkpt><trkpt lat="42.3567873057671" lon="13.386574224427084"><ele>648.0</ele><time>2026-04-27T14:50:16.999Z</time></trkpt><trkpt lat="42.356743554172645" lon="13.386647548255697"><ele>648.0</ele><time>2026-04-27T14:50:17.999Z</time></trkpt><trkpt lat="42.35670301509683" lon="13.38671650462944"><ele>648.0</ele><time>2026-04-27T14:50:18.999Z</time></trkpt><trkpt lat="42.35666413857304" lon="13.386786232307028"><ele>648.0</ele><time>2026-04-27T14:50:19.999Z</time></trkpt><trkpt lat="42.35661578961119" lon="13.386862862886284"><ele>648.0</ele><time>2026-04-27T14:50:20.999Z</time></trkpt><trkpt lat="42.35655452061582" lon="13.386957775187925"><ele>648.0</ele><time>2026-04-27T14:50:21.999Z</time></trkpt><trkpt lat="42.35650269501251" lon="13.387049684766097"><ele>648.0</ele><time>2026-04-27T14:50:22.999Z</time></trkpt><trkpt lat="42.35646187738561" lon="13.38712237212902"><ele>648.0</ele><time>2026-04-27T14:50:23.999Z</time></trkpt><trkpt lat="42.35639468839471" lon="13.38724045876531"><ele>648.0</ele><time>2026-04-27T14:50:25.999Z</time></trkpt><trkpt lat="42.35633063018183" lon="13.387356136818994"><ele>648.0</ele><time>2026-04-27T14:50:27.999Z</time></trkpt><trkpt lat="42.356271928507475" lon="13.387460052498525"><ele>647.6666666666666</ele><time>2026-04-27T14:50:29.999Z</time></trkpt><trkpt lat="42.35623215481024" lon="13.387530808838633"><ele>647.3333333333334</ele><time>2026-04-27T14:50:31.999Z</time></trkpt><trkpt lat="42.356172058473675" lon="13.387622211186407"><ele>647.0</ele><time>2026-04-27T14:50:34.999Z</time></trkpt><trkpt lat="42.356122200870175" lon="13.387693622494035"><ele>646.6666666666667</ele><time>2026-04-27T14:50:36.999Z</time></trkpt><trkpt lat="42.3560443185783" lon="13.387798881912213"><ele>646.3333333333334</ele><time>2026-04-27T14:50:38.999Z</time></trkpt><trkpt lat="42.35599613117001" lon="13.387879348349985"><ele>646.0</ele><time>2026-04-27T14:50:39.999Z</time></trkpt><trkpt lat="42.35595230065339" lon="13.387954959164093"><ele>646.8333333333334</ele><time>2026-04-27T14:50:40.999Z</time></trkpt><trkpt lat="42.355911256688884" lon="13.388024141935063"><ele>647.6666666666667</ele><time>2026-04-27T14:50:41.999Z</time></trkpt><trkpt lat="42.355841032094496" lon="13.388097565698605"><ele>648.5</ele><time>2026-04-27T14:50:43.999Z</time></trkpt><trkpt lat="42.355760876820405" lon="13.388168365918752"><ele>649.3333333333334</ele><time>2026-04-27T14:50:46.999Z</time></trkpt><trkpt lat="42.35570093919774" lon="13.388197246438102"><ele>650.1666666666666</ele><time>2026-04-27T14:50:48.999Z</time></trkpt><trkpt lat="42.35561697306289" lon="13.388224336018526"><ele>651.0</ele><time>2026-04-27T14:50:50.999Z</time></trkpt><trkpt lat="42.35551630560879" lon="13.388297914925822"><ele>651.0</ele><time>2026-04-27T14:50:53Z</time></trkpt><trkpt lat="42.3554808972253" lon="13.388370247312135"><ele>651.0</ele><time>2026-04-27T14:50:54Z</time></trkpt><trkpt lat="42.35545955107192" lon="13.388460970216247"><ele>651.0</ele><time>2026-04-27T14:50:55Z</time></trkpt><trkpt lat="42.35545812532484" lon="13.388562300781095"><ele>651.0</ele><time>2026-04-27T14:50:56Z</time></trkpt><trkpt lat="42.355454969014254" lon="13.388680187138382"><ele>651.0</ele><time>2026-04-27T14:50:57Z</time></trkpt><trkpt lat="42.35544068668309" lon="13.38878232176003"><ele>651.0</ele><time>2026-04-27T14:50:58Z</time></trkpt><trkpt lat="42.355395426653594" lon="13.38892239381235"><ele>652.0</ele><time>2026-04-27T14:51:00Z</time></trkpt><trkpt lat="42.3553562506177" lon="13.389006910066335"><ele>653.0</ele><time>2026-04-27T14:51:02Z</time></trkpt><trkpt lat="42.35530706698434" lon="13.38909814265219"><ele>654.0</ele><time>2026-04-27T14:51:04Z</time></trkpt><trkpt lat="42.35525622977899" lon="13.389178476756197"><ele>655.0</ele><time>2026-04-27T14:51:06Z</time></trkpt><trkpt lat="42.35520158492527" lon="13.389258413937185"><ele>656.0</ele><time>2026-04-27T14:51:22Z</time></trkpt><trkpt lat="42.35512959052757" lon="13.389349525153994"><ele>657.0</ele><time>2026-04-27T14:51:24Z</time></trkpt><trkpt lat="42.355071366095025" lon="13.389412962671338"><ele>657.0</ele><time>2026-04-27T14:51:25Z</time></trkpt><trkpt lat="42.355006940054835" lon="13.389464619586827"><ele>657.0</ele><time>2026-04-27T14:51:26Z</time></trkpt><trkpt lat="42.35492118674532" lon="13.389522714751536"><ele>657.0</ele><time>2026-04-27T14:51:27Z</time></trkpt><trkpt lat="42.35482821809535" lon="13.389567578424932"><ele>657.0</ele><time>2026-04-27T14:51:28Z</time></trkpt><trkpt lat="42.35472487209054" lon="13.389614694695979"><ele>657.0</ele><time>2026-04-27T14:51:29Z</time></trkpt><trkpt lat="42.35461551478733" lon="13.38966052674025"><ele>658.5</ele><time>2026-04-27T14:51:30Z</time></trkpt><trkpt lat="42.35450445892646" lon="13.389733635114812"><ele>660.0</ele><time>2026-04-27T14:51:31Z</time></trkpt><trkpt lat="42.35438262629813" lon="13.389777170104297"><ele>661.5</ele><time>2026-04-27T14:51:32Z</time></trkpt><trkpt lat="42.35426224684205" lon="13.389827478465026"><ele>663.0</ele><time>2026-04-27T14:51:33Z</time></trkpt><trkpt lat="42.354135830468394" lon="13.389846795934025"><ele>663.0</ele><time>2026-04-27T14:51:34Z</time></trkpt><trkpt lat="42.35402001257972" lon="13.389891122873182"><ele>663.0</ele><time>2026-04-27T14:51:35Z</time></trkpt><trkpt lat="42.35390689977653" lon="13.389935480359894"><ele>663.0</ele><time>2026-04-27T14:51:36Z</time></trkpt><trkpt lat="42.353789776812526" lon="13.38998169224256"><ele>663.0</ele><time>2026-04-27T14:51:37Z</time></trkpt><trkpt lat="42.353671697757854" lon="13.390048882204646"><ele>662.5</ele><time>2026-04-27T14:51:38Z</time></trkpt><trkpt lat="42.35355130006493" lon="13.390098949906657"><ele>662.0</ele><time>2026-04-27T14:51:39Z</time></trkpt><trkpt lat="42.3534283634712" lon="13.390151524662022"><ele>661.5</ele><time>2026-04-27T14:51:40Z</time></trkpt><trkpt lat="42.35330311053342" lon="13.390201000850846"><ele>661.0</ele><time>2026-04-27T14:51:41Z</time></trkpt><trkpt lat="42.353176645557916" lon="13.390248757535165"><ele>661.0</ele><time>2026-04-27T14:51:42Z</time></trkpt><trkpt lat="42.353050468785256" lon="13.390298775962622"><ele>661.0</ele><time>2026-04-27T14:51:43Z</time></trkpt><trkpt lat="42.35291771643526" lon="13.390324955908861"><ele>661.0</ele><time>2026-04-27T14:51:44Z</time></trkpt><trkpt lat="42.35279198606925" lon="13.390374207204303"><ele>661.0</ele><time>2026-04-27T14:51:45Z</time></trkpt><trkpt lat="42.352665055083556" lon="13.390423866164703"><ele>660.5</ele><time>2026-04-27T14:51:46Z</time></trkpt><trkpt lat="42.35253820429998" lon="13.390473493751266"><ele>660.0</ele><time>2026-04-27T14:51:47Z</time></trkpt><trkpt lat="42.352411002407166" lon="13.390523258702407"><ele>659.5</ele><time>2026-04-27T14:51:48Z</time></trkpt><trkpt lat="42.352281550876995" lon="13.390574419368392"><ele>659.0</ele><time>2026-04-27T14:51:49Z</time></trkpt><trkpt lat="42.352153982820816" lon="13.390625132910918"><ele>662.5</ele><time>2026-04-27T14:51:50Z</time></trkpt><trkpt lat="42.352029545129" lon="13.390674606753182"><ele>666.0</ele><time>2026-04-27T14:51:51Z</time></trkpt><trkpt lat="42.3519068643186" lon="13.390723412883617"><ele>669.5</ele><time>2026-04-27T14:51:52Z</time></trkpt><trkpt lat="42.351790008772504" lon="13.39079181262054"><ele>673.0</ele><time>2026-04-27T14:51:53Z</time></trkpt><trkpt lat="42.3516689921277" lon="13.390838860480173"><ele>673.0</ele><time>2026-04-27T14:51:54Z</time></trkpt><trkpt lat="42.35154781842208" lon="13.390881962690797"><ele>673.0</ele><time>2026-04-27T14:51:55Z</time></trkpt><trkpt lat="42.35142421841162" lon="13.39092713616399"><ele>673.0</ele><time>2026-04-27T14:51:56Z</time></trkpt><trkpt lat="42.35130332626492" lon="13.39097203410398"><ele>673.0</ele><time>2026-04-27T14:51:57Z</time></trkpt><trkpt lat="42.35118264345407" lon="13.391020403122248"><ele>672.0</ele><time>2026-04-27T14:51:58Z</time></trkpt><trkpt lat="42.351059003389125" lon="13.391048233737262"><ele>671.0</ele><time>2026-04-27T14:51:59Z</time></trkpt><trkpt lat="42.35093796982305" lon="13.39110480437541"><ele>670.0</ele><time>2026-04-27T14:52:00Z</time></trkpt><trkpt lat="42.35081801989572" lon="13.391179575748104"><ele>669.0</ele><time>2026-04-27T14:52:01Z</time></trkpt><trkpt lat="42.35072534743325" lon="13.391310990074246"><ele>669.0</ele><time>2026-04-27T14:52:02Z</time></trkpt><trkpt lat="42.35063466556089" lon="13.391431391935301"><ele>669.0</ele><time>2026-04-27T14:52:03Z</time></trkpt><trkpt lat="42.35055551380674" lon="13.391565594630448"><ele>669.0</ele><time>2026-04-27T14:52:04Z</time></trkpt><trkpt lat="42.35049041486847" lon="13.391711891159387"><ele>669.0</ele><time>2026-04-27T14:52:05Z</time></trkpt><trkpt lat="42.35043598843047" lon="13.391861925522997"><ele>669.0</ele><time>2026-04-27T14:52:06Z</time></trkpt><trkpt lat="42.35038190130497" lon="13.392008221643662"><ele>669.0</ele><time>2026-04-27T14:52:07Z</time></trkpt><trkpt lat="42.35032666480701" lon="13.392141414303566"><ele>669.0</ele><time>2026-04-27T14:52:08Z</time></trkpt><trkpt lat="42.35027861934557" lon="13.392250277845536"><ele>669.0</ele><time>2026-04-27T14:52:09Z</time></trkpt><trkpt lat="42.350233792412475" lon="13.392342062946506"><ele>669.0</ele><time>2026-04-27T14:52:10Z</time></trkpt><trkpt lat="42.35018318466581" lon="13.39241172638638"><ele>672.0</ele><time>2026-04-27T14:52:11Z</time></trkpt><trkpt lat="42.35007495930047" lon="13.392481778337633"><ele>675.0</ele><time>2026-04-27T14:52:13Z</time></trkpt><trkpt lat="42.35000950614833" lon="13.392494410126941"><ele>678.0</ele><time>2026-04-27T14:52:14Z</time></trkpt><trkpt lat="42.34993688287907" lon="13.39249361700241"><ele>681.0</ele><time>2026-04-27T14:52:15Z</time></trkpt><trkpt lat="42.349857075433405" lon="13.392464657320833"><ele>684.0</ele><time>2026-04-27T14:52:16Z</time></trkpt><trkpt lat="42.3497793226876" lon="13.392403219963693"><ele>687.0</ele><time>2026-04-27T14:52:16.999Z</time></trkpt><trkpt lat="42.34971211506395" lon="13.392294757259371"><ele>688.5</ele><time>2026-04-27T14:52:17.999Z</time></trkpt><trkpt lat="42.34964289710363" lon="13.392178930473158"><ele>690.0</ele><time>2026-04-27T14:52:18.999Z</time></trkpt><trkpt lat="42.34957631525357" lon="13.392083791613972"><ele>691.5</ele><time>2026-04-27T14:52:19.999Z</time></trkpt><trkpt lat="42.34952336931504" lon="13.392013123457426"><ele>693.0</ele><time>2026-04-27T14:52:20.999Z</time></trkpt><trkpt lat="42.349468898796985" lon="13.391954757789339"><ele>694.5</ele><time>2026-04-27T14:52:21.999Z</time></trkpt><trkpt lat="42.34941612378927" lon="13.391884981928387"><ele>696.0</ele><time>2026-04-27T14:52:22.999Z</time></trkpt><trkpt lat="42.349343938212265" lon="13.391836313799757"><ele>692.8</ele><time>2026-04-27T14:52:23.999Z</time></trkpt><trkpt lat="42.34925526091266" lon="13.391805782338801"><ele>689.5999999999999</ele><time>2026-04-27T14:52:24.999Z</time></trkpt><trkpt lat="42.349159141104415" lon="13.391797849545352"><ele>686.4</ele><time>2026-04-27T14:52:25.999Z</time></trkpt><trkpt lat="42.349054906758916" lon="13.391813892040577"><ele>683.2</ele><time>2026-04-27T14:52:26.999Z</time></trkpt><trkpt lat="42.34895009931833" lon="13.391849135411888"><ele>680.0</ele><time>2026-04-27T14:52:27.999Z</time></trkpt><trkpt lat="42.34884802875833" lon="13.391889216518175"><ele>680.0</ele><time>2026-04-27T14:52:28.999Z</time></trkpt><trkpt lat="42.348744244824736" lon="13.391930422698817"><ele>680.0</ele><time>2026-04-27T14:52:29.999Z</time></trkpt><trkpt lat="42.348640289023" lon="13.391973068506207"><ele>680.0</ele><time>2026-04-27T14:52:30.999Z</time></trkpt><trkpt lat="42.348535331204616" lon="13.392016323863084"><ele>680.0</ele><time>2026-04-27T14:52:31.999Z</time></trkpt><trkpt lat="42.348436364023044" lon="13.392056100580401"><ele>680.0</ele><time>2026-04-27T14:52:32.999Z</time></trkpt><trkpt lat="42.348359690433774" lon="13.392086486903295"><ele>680.0</ele><time>2026-04-27T14:52:33.999Z</time></trkpt><trkpt lat="42.34824958897545" lon="13.392130120277574"><ele>680.0</ele><time>2026-04-27T14:52:35.999Z</time></trkpt><trkpt lat="42.34815519654076" lon="13.392183706143433"><ele>680.0</ele><time>2026-04-27T14:52:37.999Z</time></trkpt><trkpt lat="42.3480471893078" lon="13.39227016916754"><ele>680.0</ele><time>2026-04-27T14:52:39.999Z</time></trkpt><trkpt lat="42.34799261374686" lon="13.392328525024903"><ele>680.0</ele><time>2026-04-27T14:52:40.999Z</time></trkpt><trkpt lat="42.34794101227008" lon="13.392394811784897"><ele>681.5</ele><time>2026-04-27T14:52:41.999Z</time></trkpt><trkpt lat="42.347886324142024" lon="13.392462900363498"><ele>683.0</ele><time>2026-04-27T14:52:42.999Z</time></trkpt><trkpt lat="42.34784312012394" lon="13.392569732705255"><ele>684.5</ele><time>2026-04-27T14:52:43.999Z</time></trkpt><trkpt lat="42.347815032713704" lon="13.392677715090349"><ele>686.0</ele><time>2026-04-27T14:52:44.999Z</time></trkpt><trkpt lat="42.34777403307573" lon="13.392771340718605"><ele>687.5</ele><time>2026-04-27T14:52:45.999Z</time></trkpt><trkpt lat="42.34773010389013" lon="13.392845008668989"><ele>689.0</ele><time>2026-04-27T14:52:46.999Z</time></trkpt><trkpt lat="42.347704918023986" lon="13.392954378897528"><ele>690.1666666666666</ele><time>2026-04-27T14:52:47.999Z</time></trkpt><trkpt lat="42.347650964258975" lon="13.393046090066418"><ele>691.3333333333333</ele><time>2026-04-27T14:52:48.999Z</time></trkpt><trkpt lat="42.34762321784141" lon="13.393162777368957"><ele>692.5</ele><time>2026-04-27T14:52:49.999Z</time></trkpt><trkpt lat="42.34758283533266" lon="13.393270757422222"><ele>693.6666666666666</ele><time>2026-04-27T14:52:50.999Z</time></trkpt><trkpt lat="42.347541453410635" lon="13.393377550578972"><ele>694.8333333333334</ele><time>2026-04-27T14:52:51.999Z</time></trkpt><trkpt lat="42.34749752343529" lon="13.393483327863821"><ele>696.0</ele><time>2026-04-27T14:52:52.999Z</time></trkpt><trkpt lat="42.347457009654136" lon="13.393593986622426"><ele>696.0</ele><time>2026-04-27T14:52:53.999Z</time></trkpt><trkpt lat="42.347412992966085" lon="13.393702085727925"><ele>696.0</ele><time>2026-04-27T14:52:54.999Z</time></trkpt><trkpt lat="42.347366982026195" lon="13.393809490762948"><ele>696.0</ele><time>2026-04-27T14:52:55.999Z</time></trkpt><trkpt lat="42.3473237894915" lon="13.393914736514606"><ele>696.0</ele><time>2026-04-27T14:52:56.999Z</time></trkpt><trkpt lat="42.34728099766362" lon="13.394016289205174"><ele>696.0</ele><time>2026-04-27T14:52:58Z</time></trkpt><trkpt lat="42.347240788185964" lon="13.394115077510023"><ele>696.0</ele><time>2026-04-27T14:52:59Z</time></trkpt><trkpt lat="42.347202077016036" lon="13.394213830980746"><ele>696.5999999999999</ele><time>2026-04-27T14:53:00Z</time></trkpt><trkpt lat="42.34716799566709" lon="13.394298712009965"><ele>697.2</ele><time>2026-04-27T14:53:01Z</time></trkpt><trkpt lat="42.34711070342445" lon="13.39442177879632"><ele>697.8</ele><time>2026-04-27T14:53:03Z</time></trkpt><trkpt lat="42.34706179346863" lon="13.394529203175555"><ele>698.4000000000001</ele><time>2026-04-27T14:53:05Z</time></trkpt><trkpt lat="42.34700156301753" lon="13.394663435789816"><ele>699.0</ele><time>2026-04-27T14:53:07Z</time></trkpt><trkpt lat="42.34693909558224" lon="13.394811921575696"><ele>700.1666666666666</ele><time>2026-04-27T14:53:09Z</time></trkpt><trkpt lat="42.3469095047854" lon="13.394897701699994"><ele>701.3333333333334</ele><time>2026-04-27T14:53:10Z</time></trkpt><trkpt lat="42.34687482047493" lon="13.394987664126049"><ele>702.5</ele><time>2026-04-27T14:53:11Z</time></trkpt><trkpt lat="42.346833078285904" lon="13.39508519011603"><ele>703.6666666666667</ele><time>2026-04-27T14:53:12Z</time></trkpt><trkpt lat="42.34679059866414" lon="13.395190993206056"><ele>704.8333333333334</ele><time>2026-04-27T14:53:13Z</time></trkpt><trkpt lat="42.34674740328979" lon="13.395298134124095"><ele>706.0</ele><time>2026-04-27T14:53:14Z</time></trkpt><trkpt lat="42.34670641492811" lon="13.395408376810831"><ele>706.5999999999999</ele><time>2026-04-27T14:53:15Z</time></trkpt><trkpt lat="42.346665085080936" lon="13.395512834760728"><ele>707.2</ele><time>2026-04-27T14:53:16Z</time></trkpt><trkpt lat="42.3466291197808" lon="13.395595810247343"><ele>707.8</ele><time>2026-04-27T14:53:17Z</time></trkpt><trkpt lat="42.34658295131624" lon="13.395704635130809"><ele>708.4000000000001</ele><time>2026-04-27T14:53:19Z</time></trkpt><trkpt lat="42.346543199106236" lon="13.395809613641992"><ele>709.0</ele><time>2026-04-27T14:53:22Z</time></trkpt><trkpt lat="42.346487727686934" lon="13.39595389465783"><ele>709.0</ele><time>2026-04-27T14:53:24Z</time></trkpt><trkpt lat="42.346456390901366" lon="13.396048005894226"><ele>709.0</ele><time>2026-04-27T14:53:25Z</time></trkpt><trkpt lat="42.34640392787917" lon="13.39613517609785"><ele>709.0</ele><time>2026-04-27T14:53:26Z</time></trkpt><trkpt lat="42.346359062851015" lon="13.396246937926739"><ele>709.0</ele><time>2026-04-27T14:53:27Z</time></trkpt><trkpt lat="42.3463114561449" lon="13.396365112360959"><ele>709.0</ele><time>2026-04-27T14:53:28Z</time></trkpt><trkpt lat="42.34626463612229" lon="13.396479579635107"><ele>708.1666666666667</ele><time>2026-04-27T14:53:29Z</time></trkpt><trkpt lat="42.34621803661332" lon="13.396593507897892"><ele>707.3333333333334</ele><time>2026-04-27T14:53:30Z</time></trkpt><trkpt lat="42.346172645560756" lon="13.396704481736837"><ele>706.5</ele><time>2026-04-27T14:53:31Z</time></trkpt><trkpt lat="42.346134232922424" lon="13.39679952864811"><ele>705.6666666666666</ele><time>2026-04-27T14:53:32Z</time></trkpt><trkpt lat="42.34610416528494" lon="13.39687507671446"><ele>704.8333333333333</ele><time>2026-04-27T14:53:33Z</time></trkpt><trkpt lat="42.34606610762955" lon="13.396970700908566"><ele>704.0</ele><time>2026-04-27T14:53:35Z</time></trkpt><trkpt lat="42.34622915756189" lon="13.397060638728723"><ele>704.0</ele><time>2026-04-27T14:53:37Z</time></trkpt><trkpt lat="42.346302571586726" lon="13.397108301345371"><ele>704.0</ele><time>2026-04-27T14:53:38Z</time></trkpt><trkpt lat="42.34637296044246" lon="13.397147111704989"><ele>704.0</ele><time>2026-04-27T14:53:39Z</time></trkpt><trkpt lat="42.34644426428377" lon="13.397185705893422"><ele>704.0</ele><time>2026-04-27T14:53:40Z</time></trkpt><trkpt lat="42.346513515210724" lon="13.397221735087825"><ele>704.0</ele><time>2026-04-27T14:53:41Z</time></trkpt><trkpt lat="42.34661150781923" lon="13.397276637410254"><ele>704.0</ele><time>2026-04-27T14:53:43Z</time></trkpt><trkpt lat="42.34670229733206" lon="13.397331666037841"><ele>706.4000000000001</ele><time>2026-04-27T14:53:45Z</time></trkpt><trkpt lat="42.346803989741794" lon="13.397385217902828"><ele>708.8</ele><time>2026-04-27T14:53:47Z</time></trkpt><trkpt lat="42.34691100540208" lon="13.397440193031354"><ele>711.2</ele><time>2026-04-27T14:53:49Z</time></trkpt><trkpt lat="42.346998220159804" lon="13.397496264982033"><ele>713.5999999999999</ele><time>2026-04-27T14:53:51Z</time></trkpt><trkpt lat="42.34707000618319" lon="13.397539640472422"><ele>716.0</ele><time>2026-04-27T14:53:53Z</time></trkpt><trkpt lat="42.34714482710412" lon="13.397587926140206"><ele>716.0</ele><time>2026-04-27T14:53:55Z</time></trkpt><trkpt lat="42.347209459492824" lon="13.3976217913012"><ele>716.0</ele><time>2026-04-27T14:53:57Z</time></trkpt><trkpt lat="42.34726837996032" lon="13.397676215794023"><ele>716.0</ele><time>2026-04-27T14:53:59Z</time></trkpt><trkpt lat="42.34741179587701" lon="13.397722851472414"><ele>716.0</ele><time>2026-04-27T14:54:02Z</time></trkpt><trkpt lat="42.34741577772668" lon="13.397833805214027"><ele>716.0</ele><time>2026-04-27T14:54:05Z</time></trkpt><trkpt lat="42.34737935832596" lon="13.397940583048754"><ele>716.0</ele><time>2026-04-27T14:54:07Z</time></trkpt><trkpt lat="42.34734506518665" lon="13.398044629864797"><ele>716.0</ele><time>2026-04-27T14:54:09Z</time></trkpt><trkpt lat="42.3472910397995" lon="13.39809925931951"><ele>716.0</ele><time>2026-04-27T14:54:35.999Z</time></trkpt><trkpt lat="42.347210648627005" lon="13.398087671414013"><ele>716.0</ele><time>2026-04-27T14:55:41Z</time></trkpt><trkpt lat="42.347131978414964" lon="13.398019661758102"><ele>716.0</ele><time>2026-04-27T14:55:43Z</time></trkpt><trkpt lat="42.3470448129796" lon="13.397965696083274"><ele>716.0</ele><time>2026-04-27T14:55:44Z</time></trkpt><trkpt lat="42.34694169643734" lon="13.397917449417216"><ele>716.0</ele><time>2026-04-27T14:55:45Z</time></trkpt><trkpt lat="42.34684684462941" lon="13.39787669087646"><ele>716.0</ele><time>2026-04-27T14:55:46Z</time></trkpt><trkpt lat="42.34677202061336" lon="13.397845390917455"><ele>716.0</ele><time>2026-04-27T14:55:47Z</time></trkpt><trkpt lat="42.34670418839325" lon="13.397816661113081"><ele>716.0</ele><time>2026-04-27T14:55:48Z</time></trkpt><trkpt lat="42.34663950490987" lon="13.39778686922595"><ele>716.0</ele><time>2026-04-27T14:55:49Z</time></trkpt><trkpt lat="42.34656563817129" lon="13.397763958434332"><ele>716.0</ele><time>2026-04-27T14:55:50Z</time></trkpt><trkpt lat="42.346495904226074" lon="13.397742537620221"><ele>716.0</ele><time>2026-04-27T14:55:51Z</time></trkpt><trkpt lat="42.34643457762467" lon="13.397715351958977"><ele>716.0</ele><time>2026-04-27T14:55:52Z</time></trkpt><trkpt lat="42.346358765746025" lon="13.397681084055517"><ele>716.0</ele><time>2026-04-27T14:55:54Z</time></trkpt><trkpt lat="42.34627883497735" lon="13.397615547520449"><ele>716.0</ele><time>2026-04-27T14:55:59Z</time></trkpt><trkpt lat="42.346180597267896" lon="13.397546225904232"><ele>716.0</ele><time>2026-04-27T14:56:01Z</time></trkpt><trkpt lat="42.34608014322686" lon="13.39750733504064"><ele>715.0</ele><time>2026-04-27T14:56:03Z</time></trkpt><trkpt lat="42.3460176245343" lon="13.39746680657525"><ele>714.0</ele><time>2026-04-27T14:56:06Z</time></trkpt><trkpt lat="42.34601133193973" lon="13.397183234864679"><ele>713.0</ele><time>2026-04-27T14:57:00.999Z</time></trkpt><trkpt lat="42.34606702089117" lon="13.397023407929089"><ele>712.0</ele><time>2026-04-27T14:57:02.999Z</time></trkpt><trkpt lat="42.34611352613536" lon="13.396942515843834"><ele>710.4000000000001</ele><time>2026-04-27T14:57:03.999Z</time></trkpt><trkpt lat="42.34614529509456" lon="13.396844282640572"><ele>708.8000000000001</ele><time>2026-04-27T14:57:04.999Z</time></trkpt><trkpt lat="42.34618952932838" lon="13.39673023831984"><ele>707.2</ele><time>2026-04-27T14:57:05.999Z</time></trkpt><trkpt lat="42.34623409119229" lon="13.396602402060882"><ele>705.6</ele><time>2026-04-27T14:57:06.999Z</time></trkpt><trkpt lat="42.34628065514558" lon="13.396469210421575"><ele>704.0</ele><time>2026-04-27T14:57:07.999Z</time></trkpt><trkpt lat="42.346322865217736" lon="13.396337373800907"><ele>705.0</ele><time>2026-04-27T14:57:08.999Z</time></trkpt><trkpt lat="42.3463704866993" lon="13.396219337222332"><ele>706.0</ele><time>2026-04-27T14:57:10Z</time></trkpt><trkpt lat="42.346416734502654" lon="13.396106745614556"><ele>707.0</ele><time>2026-04-27T14:57:11Z</time></trkpt><trkpt lat="42.346466122266094" lon="13.395993208818735"><ele>708.0</ele><time>2026-04-27T14:57:12Z</time></trkpt><trkpt lat="42.34651959230264" lon="13.395882968608742"><ele>709.0</ele><time>2026-04-27T14:57:13Z</time></trkpt><trkpt lat="42.34656337423373" lon="13.3957711852685"><ele>709.0</ele><time>2026-04-27T14:57:14Z</time></trkpt><trkpt lat="42.34661477264229" lon="13.39565045879882"><ele>709.0</ele><time>2026-04-27T14:57:15Z</time></trkpt><trkpt lat="42.346666552379" lon="13.395519683822862"><ele>709.0</ele><time>2026-04-27T14:57:16Z</time></trkpt><trkpt lat="42.346725460236236" lon="13.395374752570163"><ele>709.0</ele><time>2026-04-27T14:57:17Z</time></trkpt><trkpt lat="42.346785234010454" lon="13.395225587398361"><ele>708.4000000000001</ele><time>2026-04-27T14:57:18Z</time></trkpt><trkpt lat="42.34686239633573" lon="13.395098238606861"><ele>707.8</ele><time>2026-04-27T14:57:19Z</time></trkpt><trkpt lat="42.346915375070004" lon="13.394969521658481"><ele>707.2</ele><time>2026-04-27T14:57:20Z</time></trkpt><trkpt lat="42.34696409300385" lon="13.394851156736552"><ele>706.5999999999999</ele><time>2026-04-27T14:57:21Z</time></trkpt><trkpt lat="42.34701144653932" lon="13.39473610675974"><ele>706.0</ele><time>2026-04-27T14:57:22Z</time></trkpt><trkpt lat="42.347057814342556" lon="13.394623451714237"><ele>704.8333333333334</ele><time>2026-04-27T14:57:23Z</time></trkpt><trkpt lat="42.3470973639912" lon="13.394527362215072"><ele>703.6666666666667</ele><time>2026-04-27T14:57:24Z</time></trkpt><trkpt lat="42.34713389486247" lon="13.394438591808015"><ele>702.5</ele><time>2026-04-27T14:57:25Z</time></trkpt><trkpt lat="42.34718382615579" lon="13.394317266685986"><ele>701.3333333333334</ele><time>2026-04-27T14:57:27Z</time></trkpt><trkpt lat="42.3471938980031" lon="13.394220004474848"><ele>700.1666666666666</ele><time>2026-04-27T14:57:31Z</time></trkpt><trkpt lat="42.347238969628044" lon="13.394131646604267"><ele>699.0</ele><time>2026-04-27T14:57:33Z</time></trkpt><trkpt lat="42.3472963938004" lon="13.39404031945496"><ele>698.6</ele><time>2026-04-27T14:57:35Z</time></trkpt><trkpt lat="42.347339821451484" lon="13.393932183716686"><ele>698.2</ele><time>2026-04-27T14:57:37Z</time></trkpt><trkpt lat="42.34735849032203" lon="13.39384720210344"><ele>697.8000000000001</ele><time>2026-04-27T14:57:39Z</time></trkpt><trkpt lat="42.347394920531926" lon="13.39375287239114"><ele>697.4000000000001</ele><time>2026-04-27T14:57:41Z</time></trkpt><trkpt lat="42.34747201088962" lon="13.393604317912603"><ele>697.0</ele><time>2026-04-27T14:57:43Z</time></trkpt><trkpt lat="42.34751534949305" lon="13.393493035351113"><ele>696.8333333333334</ele><time>2026-04-27T14:57:44Z</time></trkpt><trkpt lat="42.347531864316146" lon="13.393404798150145"><ele>696.6666666666667</ele><time>2026-04-27T14:57:45Z</time></trkpt><trkpt lat="42.347570477520094" lon="13.393321653755658"><ele>696.5</ele><time>2026-04-27T14:57:47Z</time></trkpt><trkpt lat="42.34761617474274" lon="13.39318680746177"><ele>696.3333333333334</ele><time>2026-04-27T14:57:49Z</time></trkpt><trkpt lat="42.3476639393315" lon="13.393110133772884"><ele>696.1666666666666</ele><time>2026-04-27T14:57:50Z</time></trkpt><trkpt lat="42.347690453361366" lon="13.39300003789548"><ele>696.0</ele><time>2026-04-27T14:57:51Z</time></trkpt><trkpt lat="42.34773263072401" lon="13.392902292712723"><ele>694.8333333333334</ele><time>2026-04-27T14:57:52Z</time></trkpt><trkpt lat="42.34777605083619" lon="13.392806993813803"><ele>693.6666666666666</ele><time>2026-04-27T14:57:53Z</time></trkpt><trkpt lat="42.34782065418965" lon="13.392711537797606"><ele>692.5</ele><time>2026-04-27T14:57:54Z</time></trkpt><trkpt lat="42.347866524289564" lon="13.392618772620928"><ele>691.3333333333333</ele><time>2026-04-27T14:57:55Z</time></trkpt><trkpt lat="42.34791564307364" lon="13.392528756324515"><ele>690.1666666666666</ele><time>2026-04-27T14:57:56Z</time></trkpt><trkpt lat="42.34796561357528" lon="13.392438650289032"><ele>689.0</ele><time>2026-04-27T14:57:57Z</time></trkpt><trkpt lat="42.34802297392015" lon="13.392357222846623"><ele>690.0</ele><time>2026-04-27T14:57:58Z</time></trkpt><trkpt lat="42.34808157011679" lon="13.39229668375234"><ele>691.0</ele><time>2026-04-27T14:57:59Z</time></trkpt><trkpt lat="42.34813979456474" lon="13.392251710795467"><ele>692.0</ele><time>2026-04-27T14:58:00Z</time></trkpt><trkpt lat="42.34824966872966" lon="13.39218673425886"><ele>693.0</ele><time>2026-04-27T14:58:02Z</time></trkpt><trkpt lat="42.348312378899244" lon="13.392154205709748"><ele>694.0</ele><time>2026-04-27T14:58:03Z</time></trkpt><trkpt lat="42.348381399046644" lon="13.39212098004138"><ele>695.0</ele><time>2026-04-27T14:58:04Z</time></trkpt><trkpt lat="42.34845048446601" lon="13.392089603849866"><ele>692.5</ele><time>2026-04-27T14:58:05Z</time></trkpt><trkpt lat="42.34852299062135" lon="13.392057621868469"><ele>690.0</ele><time>2026-04-27T14:58:06Z</time></trkpt><trkpt lat="42.348595777263334" lon="13.392031664216528"><ele>687.5</ele><time>2026-04-27T14:58:07Z</time></trkpt><trkpt lat="42.348679517288176" lon="13.392004547454938"><ele>685.0</ele><time>2026-04-27T14:58:08Z</time></trkpt><trkpt lat="42.3487667712676" lon="13.391965111094917"><ele>682.5</ele><time>2026-04-27T14:58:09Z</time></trkpt><trkpt lat="42.34885305688714" lon="13.391934913951234"><ele>680.0</ele><time>2026-04-27T14:58:10Z</time></trkpt><trkpt lat="42.34893141952115" lon="13.39189959932793"><ele>679.6666666666666</ele><time>2026-04-27T14:58:11Z</time></trkpt><trkpt lat="42.3490065204481" lon="13.391871364701483"><ele>679.3333333333333</ele><time>2026-04-27T14:58:12Z</time></trkpt><trkpt lat="42.34907897887044" lon="13.391847632365375"><ele>679.0</ele><time>2026-04-27T14:58:13Z</time></trkpt><trkpt lat="42.349162967304395" lon="13.391826862150543"><ele>678.6666666666666</ele><time>2026-04-27T14:58:14Z</time></trkpt><trkpt lat="42.34925342464009" lon="13.391835828756848"><ele>678.3333333333334</ele><time>2026-04-27T14:58:15Z</time></trkpt><trkpt lat="42.34934738003303" lon="13.391866550967176"><ele>678.0</ele><time>2026-04-27T14:58:16Z</time></trkpt><trkpt lat="42.34942583847896" lon="13.3919417650437"><ele>678.0</ele><time>2026-04-27T14:58:17Z</time></trkpt><trkpt lat="42.349491439546966" lon="13.39201773538347"><ele>678.0</ele><time>2026-04-27T14:58:18Z</time></trkpt><trkpt lat="42.34955095436481" lon="13.392102688589745"><ele>678.0</ele><time>2026-04-27T14:58:19Z</time></trkpt><trkpt lat="42.349608650156" lon="13.392190287980052"><ele>678.0</ele><time>2026-04-27T14:58:20Z</time></trkpt><trkpt lat="42.34966384678452" lon="13.39227451628309"><ele>678.0</ele><time>2026-04-27T14:58:21Z</time></trkpt><trkpt lat="42.34971247019402" lon="13.392345444003583"><ele>678.0</ele><time>2026-04-27T14:58:22Z</time></trkpt><trkpt lat="42.34978052169997" lon="13.392429725567542"><ele>679.5</ele><time>2026-04-27T14:58:24Z</time></trkpt><trkpt lat="42.34983906012812" lon="13.392487520503202"><ele>681.0</ele><time>2026-04-27T14:58:26Z</time></trkpt><trkpt lat="42.349906441457456" lon="13.392509849789056"><ele>682.5</ele><time>2026-04-27T14:58:27.999Z</time></trkpt><trkpt lat="42.34997328410784" lon="13.39255777676676"><ele>684.0</ele><time>2026-04-27T14:58:29.999Z</time></trkpt><trkpt lat="42.35008736847619" lon="13.392586726816944"><ele>685.5</ele><time>2026-04-27T14:58:31.999Z</time></trkpt><trkpt lat="42.350195093406896" lon="13.392557126541139"><ele>687.0</ele><time>2026-04-27T14:58:33.999Z</time></trkpt><trkpt lat="42.35028083441909" lon="13.392415093429165"><ele>687.0</ele><time>2026-04-27T14:58:35.999Z</time></trkpt><trkpt lat="42.35031942292329" lon="13.392296017301307"><ele>687.0</ele><time>2026-04-27T14:58:36.999Z</time></trkpt><trkpt lat="42.35036114856667" lon="13.392170705188345"><ele>687.0</ele><time>2026-04-27T14:58:37.999Z</time></trkpt><trkpt lat="42.35039609656462" lon="13.392053630783233"><ele>687.0</ele><time>2026-04-27T14:58:38.999Z</time></trkpt><trkpt lat="42.35043414963142" lon="13.391940109016398"><ele>687.0</ele><time>2026-04-27T14:58:39.999Z</time></trkpt><trkpt lat="42.35047121897368" lon="13.39182739657775"><ele>686.8</ele><time>2026-04-27T14:58:40.999Z</time></trkpt><trkpt lat="42.35051322499268" lon="13.391714821703289"><ele>686.6</ele><time>2026-04-27T14:58:41.999Z</time></trkpt><trkpt lat="42.350557069666934" lon="13.391599472467515"><ele>686.4</ele><time>2026-04-27T14:58:42.999Z</time></trkpt><trkpt lat="42.35061426564741" lon="13.391475375956743"><ele>686.1999999999999</ele><time>2026-04-27T14:58:43.999Z</time></trkpt><trkpt lat="42.35068644146956" lon="13.391357439615186"><ele>686.0</ele><time>2026-04-27T14:58:44.999Z</time></trkpt><trkpt lat="42.35077705354513" lon="13.391254473482807"><ele>682.5999999999999</ele><time>2026-04-27T14:58:45.999Z</time></trkpt><trkpt lat="42.350877239802806" lon="13.391164885454355"><ele>679.2</ele><time>2026-04-27T14:58:46.999Z</time></trkpt><trkpt lat="42.35099238206985" lon="13.391126233387348"><ele>675.8</ele><time>2026-04-27T14:58:47.999Z</time></trkpt><trkpt lat="42.351092474870775" lon="13.391080601120741"><ele>672.4000000000001</ele><time>2026-04-27T14:58:48.999Z</time></trkpt><trkpt lat="42.35119260631465" lon="13.391040903692128"><ele>669.0</ele><time>2026-04-27T14:58:49.999Z</time></trkpt><trkpt lat="42.351291069862874" lon="13.391005663093301"><ele>669.8000000000001</ele><time>2026-04-27T14:58:50.999Z</time></trkpt><trkpt lat="42.35138861526675" lon="13.390970459366686"><ele>670.6</ele><time>2026-04-27T14:58:51.999Z</time></trkpt><trkpt lat="42.35148456619949" lon="13.390934969630564"><ele>671.4</ele><time>2026-04-27T14:58:52.999Z</time></trkpt><trkpt lat="42.35157437947178" lon="13.390900314680172"><ele>672.2</ele><time>2026-04-27T14:58:53.999Z</time></trkpt><trkpt lat="42.35165852264274" lon="13.390867740306923"><ele>673.0</ele><time>2026-04-27T14:58:54.999Z</time></trkpt><trkpt lat="42.35173659728656" lon="13.390816723061288"><ele>673.0</ele><time>2026-04-27T14:58:55.999Z</time></trkpt><trkpt lat="42.35182220626855" lon="13.390788363855737"><ele>673.0</ele><time>2026-04-27T14:58:56.999Z</time></trkpt><trkpt lat="42.35191199481393" lon="13.390755477601248"><ele>673.0</ele><time>2026-04-27T14:58:57.999Z</time></trkpt><trkpt lat="42.351998087491324" lon="13.39072014317652"><ele>673.0</ele><time>2026-04-27T14:58:58.999Z</time></trkpt><trkpt lat="42.352079052308525" lon="13.390687386025224"><ele>673.0</ele><time>2026-04-27T14:58:59.999Z</time></trkpt><trkpt lat="42.352155634781234" lon="13.39065709423658"><ele>673.0</ele><time>2026-04-27T14:59:00.999Z</time></trkpt><trkpt lat="42.35223084949388" lon="13.390632370476865"><ele>672.0</ele><time>2026-04-27T14:59:01.999Z</time></trkpt><trkpt lat="42.35231251702216" lon="13.390601220880129"><ele>671.0</ele><time>2026-04-27T14:59:02.999Z</time></trkpt><trkpt lat="42.3524004838917" lon="13.390563082675602"><ele>670.0</ele><time>2026-04-27T14:59:03.999Z</time></trkpt><trkpt lat="42.35249595482016" lon="13.39052953739196"><ele>669.0</ele><time>2026-04-27T14:59:04.999Z</time></trkpt><trkpt lat="42.35259690169982" lon="13.390491996574116"><ele>668.0</ele><time>2026-04-27T14:59:05.999Z</time></trkpt><trkpt lat="42.35270023193242" lon="13.39045906791017"><ele>666.5999999999999</ele><time>2026-04-27T14:59:06.999Z</time></trkpt><trkpt lat="42.352790708838754" lon="13.390426297357099"><ele>665.1999999999999</ele><time>2026-04-27T14:59:07.999Z</time></trkpt><trkpt lat="42.35288088659415" lon="13.390393009379283"><ele>663.8</ele><time>2026-04-27T14:59:08.999Z</time></trkpt><trkpt lat="42.35297151974881" lon="13.390361868565458"><ele>662.4</ele><time>2026-04-27T14:59:09.999Z</time></trkpt><trkpt lat="42.353062330747605" lon="13.39032883112349"><ele>661.0</ele><time>2026-04-27T14:59:10.999Z</time></trkpt><trkpt lat="42.353149727174184" lon="13.390300558620003"><ele>661.0</ele><time>2026-04-27T14:59:11.999Z</time></trkpt><trkpt lat="42.353231456449386" lon="13.390288212121554"><ele>661.0</ele><time>2026-04-27T14:59:12.999Z</time></trkpt><trkpt lat="42.353298063791655" lon="13.390302509849475"><ele>661.0</ele><time>2026-04-27T14:59:13.999Z</time></trkpt><trkpt lat="42.35337031743796" lon="13.390411140378855"><ele>661.0</ele><time>2026-04-27T14:59:16Z</time></trkpt><trkpt lat="42.3534309685272" lon="13.390472637341974"><ele>661.0</ele><time>2026-04-27T14:59:17Z</time></trkpt><trkpt lat="42.35350094970229" lon="13.390541349218852"><ele>661.0</ele><time>2026-04-27T14:59:18Z</time></trkpt><trkpt lat="42.35356984474468" lon="13.390607061267353"><ele>662.1666666666667</ele><time>2026-04-27T14:59:19Z</time></trkpt><trkpt lat="42.353640544815676" lon="13.390648999116205"><ele>663.3333333333334</ele><time>2026-04-27T14:59:20Z</time></trkpt><trkpt lat="42.35369247138496" lon="13.390703768940249"><ele>664.5</ele><time>2026-04-27T14:59:21Z</time></trkpt><trkpt lat="42.35380765799593" lon="13.390803244114174"><ele>665.6666666666666</ele><time>2026-04-27T14:59:23Z</time></trkpt><trkpt lat="42.353864819862665" lon="13.390862613974596"><ele>666.8333333333333</ele><time>2026-04-27T14:59:24Z</time></trkpt><trkpt lat="42.35393434074631" lon="13.390923371713576"><ele>668.0</ele><time>2026-04-27T14:59:25Z</time></trkpt><trkpt lat="42.35399676063077" lon="13.390991778830795"><ele>668.8333333333333</ele><time>2026-04-27T14:59:26Z</time></trkpt><trkpt lat="42.354056995148774" lon="13.39104046523973"><ele>669.6666666666666</ele><time>2026-04-27T14:59:27Z</time></trkpt><trkpt lat="42.35411120474574" lon="13.391090852320797"><ele>670.5</ele><time>2026-04-27T14:59:29Z</time></trkpt><trkpt lat="42.353978140954354" lon="13.391200581586508"><ele>671.3333333333334</ele><time>2026-04-27T14:59:32Z</time></trkpt><trkpt lat="42.353938510454626" lon="13.391274095507727"><ele>672.1666666666667</ele><time>2026-04-27T14:59:33Z</time></trkpt><trkpt lat="42.353898826637085" lon="13.391349150829235"><ele>673.0</ele><time>2026-04-27T14:59:34Z</time></trkpt><trkpt lat="42.35385468251879" lon="13.391433236261564"><ele>674.0</ele><time>2026-04-27T14:59:35Z</time></trkpt><trkpt lat="42.353803137725755" lon="13.391533063272359"><ele>675.0</ele><time>2026-04-27T14:59:36Z</time></trkpt><trkpt lat="42.35375236565386" lon="13.391639869468868"><ele>676.0</ele><time>2026-04-27T14:59:37Z</time></trkpt><trkpt lat="42.3537026015922" lon="13.391750095363497"><ele>677.0</ele><time>2026-04-27T14:59:38Z</time></trkpt><trkpt lat="42.35365852100857" lon="13.39185127433289"><ele>678.0</ele><time>2026-04-27T14:59:39Z</time></trkpt><trkpt lat="42.35361576030656" lon="13.391958878258844"><ele>678.0</ele><time>2026-04-27T14:59:40Z</time></trkpt><trkpt lat="42.35357344325781" lon="13.39206451624411"><ele>678.0</ele><time>2026-04-27T14:59:41Z</time></trkpt><trkpt lat="42.353540954447354" lon="13.392154623299955"><ele>678.0</ele><time>2026-04-27T14:59:42Z</time></trkpt><trkpt lat="42.35350480366057" lon="13.392253139277278"><ele>678.0</ele><time>2026-04-27T14:59:44Z</time></trkpt><trkpt lat="42.35350196260867" lon="13.392357859534266"><ele>678.0</ele><time>2026-04-27T14:59:47Z</time></trkpt><trkpt lat="42.353572686968576" lon="13.392254116677694"><ele>678.0</ele><time>2026-04-27T15:00:11Z</time></trkpt><trkpt lat="42.353611411496274" lon="13.392138987690542"><ele>678.0</ele><time>2026-04-27T15:00:12Z</time></trkpt><trkpt lat="42.353663942537175" lon="13.39200784761389"><ele>678.0</ele><time>2026-04-27T15:00:13Z</time></trkpt><trkpt lat="42.35372530889807" lon="13.391876319308013"><ele>678.0</ele><time>2026-04-27T15:00:14Z</time></trkpt><trkpt lat="42.3537909216765" lon="13.391733567724446"><ele>678.0</ele><time>2026-04-27T15:00:15Z</time></trkpt><trkpt lat="42.35386499535447" lon="13.391584910856949"><ele>678.8</ele><time>2026-04-27T15:00:16Z</time></trkpt><trkpt lat="42.3539319893968" lon="13.391434373752139"><ele>679.5999999999999</ele><time>2026-04-27T15:00:17Z</time></trkpt><trkpt lat="42.35398535894787" lon="13.391307119929648"><ele>680.4000000000001</ele><time>2026-04-27T15:00:18Z</time></trkpt><trkpt lat="42.35403585647769" lon="13.391198871848742"><ele>681.2</ele><time>2026-04-27T15:00:19Z</time></trkpt><trkpt lat="42.35407223783215" lon="13.391111570539868"><ele>682.0</ele><time>2026-04-27T15:00:20Z</time></trkpt><trkpt lat="42.35404019572274" lon="13.39099812368245"><ele>680.2</ele><time>2026-04-27T15:00:22Z</time></trkpt><trkpt lat="42.35396150688814" lon="13.390937583930265"><ele>678.4000000000001</ele><time>2026-04-27T15:00:23Z</time></trkpt><trkpt lat="42.353866430250804" lon="13.390862158086028"><ele>676.5999999999999</ele><time>2026-04-27T15:00:24Z</time></trkpt><trkpt lat="42.353777420757176" lon="13.390787597586183"><ele>674.8</ele><time>2026-04-27T15:00:25Z</time></trkpt><trkpt lat="42.35369859373232" lon="13.390691058524217"><ele>673.0</ele><time>2026-04-27T15:00:25.999Z</time></trkpt><trkpt lat="42.353599766532575" lon="13.390622229480583"><ele>672.1666666666667</ele><time>2026-04-27T15:00:26.999Z</time></trkpt><trkpt lat="42.353527864138826" lon="13.39052957867397"><ele>671.3333333333334</ele><time>2026-04-27T15:00:27.999Z</time></trkpt><trkpt lat="42.35345784646918" lon="13.390468066450174"><ele>670.5</ele><time>2026-04-27T15:00:28.999Z</time></trkpt><trkpt lat="42.353390215959" lon="13.390416480337246"><ele>669.6666666666666</ele><time>2026-04-27T15:00:29.999Z</time></trkpt><trkpt lat="42.35334602050609" lon="13.390353856038724"><ele>668.8333333333333</ele><time>2026-04-27T15:00:30.999Z</time></trkpt><trkpt lat="42.35334502654486" lon="13.390252828330695"><ele>668.0</ele><time>2026-04-27T15:00:32.999Z</time></trkpt><trkpt lat="42.353433761395735" lon="13.390164159322664"><ele>666.75</ele><time>2026-04-27T15:00:34.999Z</time></trkpt><trkpt lat="42.35352941725839" lon="13.390135613246578"><ele>665.5</ele><time>2026-04-27T15:00:35.999Z</time></trkpt><trkpt lat="42.353640781173226" lon="13.390102780322819"><ele>664.25</ele><time>2026-04-27T15:00:36.999Z</time></trkpt><trkpt lat="42.353750246577974" lon="13.390051183003365"><ele>663.0</ele><time>2026-04-27T15:00:37.999Z</time></trkpt><trkpt lat="42.35387482397447" lon="13.389994861967903"><ele>663.0</ele><time>2026-04-27T15:00:38.999Z</time></trkpt><trkpt lat="42.35400585803706" lon="13.38993854593375"><ele>663.0</ele><time>2026-04-27T15:00:39.999Z</time></trkpt><trkpt lat="42.35413503034951" lon="13.389882663078403"><ele>663.0</ele><time>2026-04-27T15:00:40.999Z</time></trkpt><trkpt lat="42.35426192502382" lon="13.38982799667892"><ele>663.0</ele><time>2026-04-27T15:00:41.999Z</time></trkpt><trkpt lat="42.35439574491356" lon="13.38977550946426"><ele>663.0</ele><time>2026-04-27T15:00:42.999Z</time></trkpt><trkpt lat="42.35453552411043" lon="13.389717509579919"><ele>663.0</ele><time>2026-04-27T15:00:43.999Z</time></trkpt><trkpt lat="42.35466548867698" lon="13.389665881128652"><ele>663.0</ele><time>2026-04-27T15:00:44.999Z</time></trkpt><trkpt lat="42.35479114652218" lon="13.389617469630657"><ele>663.0</ele><time>2026-04-27T15:00:45.999Z</time></trkpt><trkpt lat="42.35491858161411" lon="13.389570242706023"><ele>661.8</ele><time>2026-04-27T15:00:46.999Z</time></trkpt><trkpt lat="42.3550233032493" lon="13.38951621060499"><ele>660.5999999999999</ele><time>2026-04-27T15:00:47.999Z</time></trkpt><trkpt lat="42.35511398331" lon="13.38944197106503"><ele>659.4000000000001</ele><time>2026-04-27T15:00:48.999Z</time></trkpt><trkpt lat="42.35520112028093" lon="13.38934891456386"><ele>658.2</ele><time>2026-04-27T15:00:49.999Z</time></trkpt><trkpt lat="42.35528063012326" lon="13.389242621910437"><ele>657.0</ele><time>2026-04-27T15:00:50.999Z</time></trkpt><trkpt lat="42.355343797765144" lon="13.389150421850237"><ele>657.0</ele><time>2026-04-27T15:00:51.999Z</time></trkpt><trkpt lat="42.35539453663594" lon="13.389072424833913"><ele>657.0</ele><time>2026-04-27T15:00:52.999Z</time></trkpt><trkpt lat="42.355437315681264" lon="13.38900854728363"><ele>657.0</ele><time>2026-04-27T15:00:53.999Z</time></trkpt><trkpt lat="42.35548436838026" lon="13.388947584110852"><ele>657.0</ele><time>2026-04-27T15:00:54.999Z</time></trkpt><trkpt lat="42.35559210415893" lon="13.388887753759212"><ele>657.0</ele><time>2026-04-27T15:00:56.999Z</time></trkpt><trkpt lat="42.35569354935019" lon="13.388858104716638"><ele>657.0</ele><time>2026-04-27T15:00:58.999Z</time></trkpt><trkpt lat="42.355798204297294" lon="13.388925927320182"><ele>657.0</ele><time>2026-04-27T15:01:00.999Z</time></trkpt><trkpt lat="42.355840802934864" lon="13.389010086054522"><ele>657.0</ele><time>2026-04-27T15:01:01.999Z</time></trkpt><trkpt lat="42.35588064064406" lon="13.389080375192075"><ele>657.0</ele><time>2026-04-27T15:01:02.999Z</time></trkpt><trkpt lat="42.35593748425971" lon="13.389191817079142"><ele>657.0</ele><time>2026-04-27T15:01:04.999Z</time></trkpt><trkpt lat="42.356015512427625" lon="13.38933161073576"><ele>657.0</ele><time>2026-04-27T15:01:06.999Z</time></trkpt><trkpt lat="42.35605878458301" lon="13.389416744518233"><ele>657.0</ele><time>2026-04-27T15:01:07.999Z</time></trkpt><trkpt lat="42.35612126066943" lon="13.389518193484626"><ele>657.0</ele><time>2026-04-27T15:01:08.999Z</time></trkpt><trkpt lat="42.35617772439509" lon="13.389623447173674"><ele>657.0</ele><time>2026-04-27T15:01:09.999Z</time></trkpt><trkpt lat="42.35623662464619" lon="13.389734154740367"><ele>657.0</ele><time>2026-04-27T15:01:10.999Z</time></trkpt><trkpt lat="42.35629856688612" lon="13.389844959598362"><ele>657.0</ele><time>2026-04-27T15:01:11.999Z</time></trkpt><trkpt lat="42.356363007057055" lon="13.389964985194764"><ele>657.0</ele><time>2026-04-27T15:01:12.999Z</time></trkpt><trkpt lat="42.35644302306095" lon="13.390086537812703"><ele>656.25</ele><time>2026-04-27T15:01:13.999Z</time></trkpt><trkpt lat="42.35654029175389" lon="13.390205260906528"><ele>655.5</ele><time>2026-04-27T15:01:14.999Z</time></trkpt><trkpt lat="42.35664034161067" lon="13.390319235044075"><ele>654.75</ele><time>2026-04-27T15:01:15.999Z</time></trkpt><trkpt lat="42.35673340165251" lon="13.390424100728115"><ele>654.0</ele><time>2026-04-27T15:01:16.999Z</time></trkpt><trkpt lat="42.356771537028806" lon="13.390567533006827"><ele>654.0</ele><time>2026-04-27T15:01:17.999Z</time></trkpt><trkpt lat="42.356797144176994" lon="13.390683184106"><ele>654.0</ele><time>2026-04-27T15:01:18.999Z</time></trkpt><trkpt lat="42.35679657799632" lon="13.390821358306335"><ele>654.0</ele><time>2026-04-27T15:01:19.999Z</time></trkpt><trkpt lat="42.3567632693768" lon="13.390969083141817"><ele>654.0</ele><time>2026-04-27T15:01:20.999Z</time></trkpt><trkpt lat="42.35672490822858" lon="13.391103610622244"><ele>654.0</ele><time>2026-04-27T15:01:22Z</time></trkpt><trkpt lat="42.356701800486555" lon="13.391214589816329"><ele>654.0</ele><time>2026-04-27T15:01:23Z</time></trkpt><trkpt lat="42.35668541505145" lon="13.39131794416917"><ele>654.0</ele><time>2026-04-27T15:01:24Z</time></trkpt><trkpt lat="42.356674062789395" lon="13.391427977500213"><ele>654.0</ele><time>2026-04-27T15:01:25Z</time></trkpt><trkpt lat="42.35666399563399" lon="13.391548171375973"><ele>654.0</ele><time>2026-04-27T15:01:26Z</time></trkpt><trkpt lat="42.35666113448112" lon="13.391668121749715"><ele>654.0</ele><time>2026-04-27T15:01:27Z</time></trkpt><trkpt lat="42.35665950742206" lon="13.391811612641092"><ele>654.0</ele><time>2026-04-27T15:01:28Z</time></trkpt><trkpt lat="42.35665546741861" lon="13.391962041235537"><ele>655.25</ele><time>2026-04-27T15:01:29Z</time></trkpt><trkpt lat="42.35665375490268" lon="13.392114685007968"><ele>656.5</ele><time>2026-04-27T15:01:30Z</time></trkpt><trkpt lat="42.35665185228968" lon="13.392286362124773"><ele>657.75</ele><time>2026-04-27T15:01:31Z</time></trkpt><trkpt lat="42.35664368091751" lon="13.39247411116836"><ele>659.0</ele><time>2026-04-27T15:01:32Z</time></trkpt><trkpt lat="42.35663208120109" lon="13.392668578030166"><ele>660.5</ele><time>2026-04-27T15:01:33Z</time></trkpt><trkpt lat="42.35662777772805" lon="13.392846189603782"><ele>662.0</ele><time>2026-04-27T15:01:34Z</time></trkpt><trkpt lat="42.356625825375005" lon="13.393013393676434"><ele>663.5</ele><time>2026-04-27T15:01:35Z</time></trkpt><trkpt lat="42.356623950335475" lon="13.393175725654297"><ele>665.0</ele><time>2026-04-27T15:01:36Z</time></trkpt><trkpt lat="42.356622789326785" lon="13.393331125871754"><ele>665.8</ele><time>2026-04-27T15:01:37Z</time></trkpt><trkpt lat="42.356616133737646" lon="13.393485676909595"><ele>666.6</ele><time>2026-04-27T15:01:38Z</time></trkpt><trkpt lat="42.356613634549404" lon="13.39362780983674"><ele>667.4000000000001</ele><time>2026-04-27T15:01:39Z</time></trkpt><trkpt lat="42.35661108232731" lon="13.3937374018394"><ele>668.2</ele><time>2026-04-27T15:01:40Z</time></trkpt><trkpt lat="42.356605641994605" lon="13.393844242699288"><ele>669.0</ele><time>2026-04-27T15:01:41Z</time></trkpt><trkpt lat="42.35659882949139" lon="13.393960218450662"><ele>670.0</ele><time>2026-04-27T15:01:42Z</time></trkpt><trkpt lat="42.356596300678866" lon="13.394076766340115"><ele>671.0</ele><time>2026-04-27T15:01:43Z</time></trkpt><trkpt lat="42.35659370216424" lon="13.394193023045425"><ele>672.0</ele><time>2026-04-27T15:01:44Z</time></trkpt><trkpt lat="42.3565932585401" lon="13.394309306987617"><ele>673.0</ele><time>2026-04-27T15:01:45Z</time></trkpt><trkpt lat="42.35659428489655" lon="13.394426842209054"><ele>674.0</ele><time>2026-04-27T15:01:46Z</time></trkpt><trkpt lat="42.35658926814855" lon="13.394546266268126"><ele>675.0</ele><time>2026-04-27T15:01:47Z</time></trkpt><trkpt lat="42.35658539225404" lon="13.394667427433195"><ele>675.2</ele><time>2026-04-27T15:01:48Z</time></trkpt><trkpt lat="42.35658245217908" lon="13.394791278941343"><ele>675.4</ele><time>2026-04-27T15:01:49Z</time></trkpt><trkpt lat="42.35658228017955" lon="13.394917863604347"><ele>675.5999999999999</ele><time>2026-04-27T15:01:50Z</time></trkpt><trkpt lat="42.35657860981202" lon="13.395041585944737"><ele>675.8</ele><time>2026-04-27T15:01:51Z</time></trkpt><trkpt lat="42.35657244565067" lon="13.39515983236837"><ele>676.0</ele><time>2026-04-27T15:01:52Z</time></trkpt><trkpt lat="42.356567692579894" lon="13.395284308116"><ele>676.0</ele><time>2026-04-27T15:01:53Z</time></trkpt><trkpt lat="42.35656269342708" lon="13.395416658218378"><ele>676.0</ele><time>2026-04-27T15:01:54Z</time></trkpt><trkpt lat="42.35655845696937" lon="13.395551328355303"><ele>676.0</ele><time>2026-04-27T15:01:55Z</time></trkpt><trkpt lat="42.356556738399526" lon="13.395687927998113"><ele>676.0</ele><time>2026-04-27T15:01:56Z</time></trkpt><trkpt lat="42.35656098879802" lon="13.395826006575154"><ele>676.0</ele><time>2026-04-27T15:01:57Z</time></trkpt><trkpt lat="42.35655814943879" lon="13.395957846680579"><ele>675.6666666666667</ele><time>2026-04-27T15:01:58Z</time></trkpt><trkpt lat="42.35655023678863" lon="13.396081651952743"><ele>675.3333333333334</ele><time>2026-04-27T15:01:59Z</time></trkpt><trkpt lat="42.356544720364" lon="13.396198221027909"><ele>675.0</ele><time>2026-04-27T15:02:00Z</time></trkpt><trkpt lat="42.356539578196866" lon="13.396310585150893"><ele>674.6666666666666</ele><time>2026-04-27T15:02:01Z</time></trkpt><trkpt lat="42.35653530430341" lon="13.396420848585269"><ele>674.3333333333333</ele><time>2026-04-27T15:02:02Z</time></trkpt><trkpt lat="42.35653412857291" lon="13.396533840399144"><ele>674.0</ele><time>2026-04-27T15:02:03Z</time></trkpt><trkpt lat="42.35653016628701" lon="13.396654888341084"><ele>675.0</ele><time>2026-04-27T15:02:04Z</time></trkpt><trkpt lat="42.35651945529551" lon="13.39678240069402"><ele>676.0</ele><time>2026-04-27T15:02:05Z</time></trkpt><trkpt lat="42.356508093650866" lon="13.396912744036657"><ele>677.0</ele><time>2026-04-27T15:02:06Z</time></trkpt><trkpt lat="42.356497735545446" lon="13.397048845291659"><ele>678.0</ele><time>2026-04-27T15:02:07Z</time></trkpt><trkpt lat="42.35649243565804" lon="13.39717730498704"><ele>679.0</ele><time>2026-04-27T15:02:08Z</time></trkpt><trkpt lat="42.35649356059395" lon="13.397330577686079"><ele>681.25</ele><time>2026-04-27T15:02:09Z</time></trkpt><trkpt lat="42.35650208194395" lon="13.397495472544605"><ele>683.5</ele><time>2026-04-27T15:02:10Z</time></trkpt><trkpt lat="42.35652092372595" lon="13.397664597881727"><ele>685.75</ele><time>2026-04-27T15:02:11Z</time></trkpt><trkpt lat="42.35656008192002" lon="13.397836856404023"><ele>688.0</ele><time>2026-04-27T15:02:12Z</time></trkpt><trkpt lat="42.35661722577871" lon="13.39800569749749"><ele>688.25</ele><time>2026-04-27T15:02:13Z</time></trkpt><trkpt lat="42.3566798542852" lon="13.398178484000038"><ele>688.5</ele><time>2026-04-27T15:02:14Z</time></trkpt><trkpt lat="42.35675852094071" lon="13.398333609794998"><ele>688.75</ele><time>2026-04-27T15:02:15Z</time></trkpt><trkpt lat="42.35683013124566" lon="13.398490771496663"><ele>689.0</ele><time>2026-04-27T15:02:16Z</time></trkpt><trkpt lat="42.3568947451623" lon="13.39863939952757"><ele>689.0</ele><time>2026-04-27T15:02:17Z</time></trkpt><trkpt lat="42.35694519444481" lon="13.398804539469186"><ele>689.0</ele><time>2026-04-27T15:02:18Z</time></trkpt><trkpt lat="42.356984626036756" lon="13.398978672311692"><ele>689.0</ele><time>2026-04-27T15:02:19Z</time></trkpt><trkpt lat="42.35701001588955" lon="13.399159032208065"><ele>689.0</ele><time>2026-04-27T15:02:20Z</time></trkpt><trkpt lat="42.357019745411854" lon="13.399341888529216"><ele>690.0</ele><time>2026-04-27T15:02:21Z</time></trkpt><trkpt lat="42.35702165855438" lon="13.399511542834386"><ele>691.0</ele><time>2026-04-27T15:02:22Z</time></trkpt><trkpt lat="42.35702109615504" lon="13.39965616517029"><ele>692.0</ele><time>2026-04-27T15:02:23Z</time></trkpt><trkpt lat="42.35702306301324" lon="13.39978307375104"><ele>693.0</ele><time>2026-04-27T15:02:24Z</time></trkpt><trkpt lat="42.357024483843944" lon="13.399900999710985"><ele>694.0</ele><time>2026-04-27T15:02:25Z</time></trkpt><trkpt lat="42.35702513970466" lon="13.400032373453177"><ele>695.5</ele><time>2026-04-27T15:02:26Z</time></trkpt><trkpt lat="42.35702802747093" lon="13.40018140098884"><ele>697.0</ele><time>2026-04-27T15:02:27Z</time></trkpt><trkpt lat="42.35702897677738" lon="13.400343438240096"><ele>698.5</ele><time>2026-04-27T15:02:28Z</time></trkpt><trkpt lat="42.35702289304073" lon="13.400510764826231"><ele>700.0</ele><time>2026-04-27T15:02:28.999Z</time></trkpt><trkpt lat="42.3570179858224" lon="13.400648530820572"><ele>700.8</ele><time>2026-04-27T15:02:29.999Z</time></trkpt><trkpt lat="42.35702225025855" lon="13.400768637200574"><ele>701.6</ele><time>2026-04-27T15:02:30.999Z</time></trkpt><trkpt lat="42.357029417738566" lon="13.400936176859357"><ele>702.4000000000001</ele><time>2026-04-27T15:02:32.999Z</time></trkpt><trkpt lat="42.35703209710993" lon="13.401032940303532"><ele>703.2</ele><time>2026-04-27T15:02:33.999Z</time></trkpt><trkpt lat="42.35703440162825" lon="13.401142884507573"><ele>704.0</ele><time>2026-04-27T15:02:34.999Z</time></trkpt><trkpt lat="42.3570392231515" lon="13.401262677795032"><ele>703.8000000000001</ele><time>2026-04-27T15:02:35.999Z</time></trkpt><trkpt lat="42.357043518836804" lon="13.401380509239688"><ele>703.6</ele><time>2026-04-27T15:02:36.999Z</time></trkpt><trkpt lat="42.35704732858742" lon="13.401494790452888"><ele>703.4</ele><time>2026-04-27T15:02:37.999Z</time></trkpt><trkpt lat="42.35704770709295" lon="13.401588638525144"><ele>703.2</ele><time>2026-04-27T15:02:38.999Z</time></trkpt><trkpt lat="42.35705141283104" lon="13.401766416732839"><ele>703.0</ele><time>2026-04-27T15:02:40.999Z</time></trkpt><trkpt lat="42.35705299028282" lon="13.40187364483779"><ele>703.0</ele><time>2026-04-27T15:02:41.999Z</time></trkpt><trkpt lat="42.35705404575302" lon="13.401992532536827"><ele>703.0</ele><time>2026-04-27T15:02:42.999Z</time></trkpt><trkpt lat="42.35705424334164" lon="13.402114514980084"><ele>703.0</ele><time>2026-04-27T15:02:43.999Z</time></trkpt><trkpt lat="42.357054835038255" lon="13.402235264353937"><ele>703.0</ele><time>2026-04-27T15:02:44.999Z</time></trkpt><trkpt lat="42.35705567155016" lon="13.402357797391975"><ele>703.0</ele><time>2026-04-27T15:02:45.999Z</time></trkpt><trkpt lat="42.357058392179646" lon="13.402476305494293"><ele>703.0</ele><time>2026-04-27T15:02:46.999Z</time></trkpt><trkpt lat="42.3570656081933" lon="13.40259174693184"><ele>703.0</ele><time>2026-04-27T15:02:47.999Z</time></trkpt><trkpt lat="42.357077854693685" lon="13.402712518939332"><ele>703.0</ele><time>2026-04-27T15:02:48.999Z</time></trkpt><trkpt lat="42.357092968582016" lon="13.40284004023705"><ele>703.0</ele><time>2026-04-27T15:02:49.999Z</time></trkpt><trkpt lat="42.357117967118235" lon="13.40296900225686"><ele>703.0</ele><time>2026-04-27T15:02:50.999Z</time></trkpt><trkpt lat="42.357156166947355" lon="13.40309677961076"><ele>703.0</ele><time>2026-04-27T15:02:51.999Z</time></trkpt><trkpt lat="42.35720397551545" lon="13.403223891004144"><ele>703.0</ele><time>2026-04-27T15:02:52.999Z</time></trkpt><trkpt lat="42.35725290914219" lon="13.403344652700182"><ele>703.0</ele><time>2026-04-27T15:02:53.999Z</time></trkpt><trkpt lat="42.35729931560335" lon="13.403463129435565"><ele>703.0</ele><time>2026-04-27T15:02:54.999Z</time></trkpt><trkpt lat="42.35734575915495" lon="13.403579386409156"><ele>703.0</ele><time>2026-04-27T15:02:55.999Z</time></trkpt><trkpt lat="42.35739107324736" lon="13.403691614532674"><ele>703.0</ele><time>2026-04-27T15:02:56.999Z</time></trkpt><trkpt lat="42.357431814467134" lon="13.403797793006795"><ele>702.8333333333334</ele><time>2026-04-27T15:02:57.999Z</time></trkpt><trkpt lat="42.35746263415909" lon="13.403882997567315"><ele>702.6666666666667</ele><time>2026-04-27T15:02:58.999Z</time></trkpt><trkpt lat="42.357496661989195" lon="13.403986583210441"><ele>702.5</ele><time>2026-04-27T15:03:00.999Z</time></trkpt><trkpt lat="42.3575278777159" lon="13.404086492630736"><ele>702.3333333333334</ele><time>2026-04-27T15:03:02.999Z</time></trkpt><trkpt lat="42.35757650863794" lon="13.404211375280454"><ele>702.1666666666666</ele><time>2026-04-27T15:03:04.999Z</time></trkpt><trkpt lat="42.35760985386874" lon="13.404337961576145"><ele>702.0</ele><time>2026-04-27T15:03:06.999Z</time></trkpt><trkpt lat="42.357624085386526" lon="13.404422627588993"><ele>702.0</ele><time>2026-04-27T15:03:08.999Z</time></trkpt><trkpt lat="42.35763018408898" lon="13.404542215169347"><ele>702.0</ele><time>2026-04-27T15:03:10.999Z</time></trkpt><trkpt lat="42.35761801939885" lon="13.4046312800844"><ele>702.0</ele><time>2026-04-27T15:03:12.999Z</time></trkpt><trkpt lat="42.35754737841934" lon="13.40472249345456"><ele>702.0</ele><time>2026-04-27T15:03:14.999Z</time></trkpt><trkpt lat="42.35747079653097" lon="13.404838939707178"><ele>702.0</ele><time>2026-04-27T15:03:16.999Z</time></trkpt><trkpt lat="42.357409450866726" lon="13.404910990495976"><ele>703.0</ele><time>2026-04-27T15:03:18.999Z</time></trkpt><trkpt lat="42.357311537476406" lon="13.40493055631503"><ele>704.0</ele><time>2026-04-27T15:03:20.999Z</time></trkpt><trkpt lat="42.35724184798786" lon="13.404936493189556"><ele>705.0</ele><time>2026-04-27T15:03:21.999Z</time></trkpt><trkpt lat="42.35716263917001" lon="13.404946357636637"><ele>706.0</ele><time>2026-04-27T15:03:22.999Z</time></trkpt><trkpt lat="42.357082911471586" lon="13.40495863019936"><ele>707.0</ele><time>2026-04-27T15:03:23.999Z</time></trkpt><trkpt lat="42.35700492806287" lon="13.404970924885742"><ele>708.0</ele><time>2026-04-27T15:03:24.999Z</time></trkpt><trkpt lat="42.35691677427967" lon="13.40500969873599"><ele>708.0</ele><time>2026-04-27T15:03:25.999Z</time></trkpt><trkpt lat="42.35682780142947" lon="13.405029372168702"><ele>708.0</ele><time>2026-04-27T15:03:26.999Z</time></trkpt><trkpt lat="42.356739303693914" lon="13.405070204318571"><ele>708.0</ele><time>2026-04-27T15:03:28Z</time></trkpt><trkpt lat="42.356658815729695" lon="13.405125829931094"><ele>708.0</ele><time>2026-04-27T15:03:29Z</time></trkpt><trkpt lat="42.356585588570965" lon="13.405182808481365"><ele>708.0</ele><time>2026-04-27T15:03:30Z</time></trkpt><trkpt lat="42.3565165599157" lon="13.405248533112196"><ele>708.0</ele><time>2026-04-27T15:03:31Z</time></trkpt><trkpt lat="42.35643145043143" lon="13.405303333129247"><ele>708.5999999999999</ele><time>2026-04-27T15:03:32Z</time></trkpt><trkpt lat="42.35636303577554" lon="13.405395984729932"><ele>709.1999999999999</ele><time>2026-04-27T15:03:33Z</time></trkpt><trkpt lat="42.35628414198031" lon="13.405470268472168"><ele>709.8</ele><time>2026-04-27T15:03:34Z</time></trkpt><trkpt lat="42.35619276272418" lon="13.405524122191263"><ele>710.4</ele><time>2026-04-27T15:03:35Z</time></trkpt><trkpt lat="42.35612361266613" lon="13.405602817015508"><ele>711.0</ele><time>2026-04-27T15:03:36Z</time></trkpt><trkpt lat="42.35606016968397" lon="13.405647260066928"><ele>711.1999999999999</ele><time>2026-04-27T15:03:37Z</time></trkpt><trkpt lat="42.355962995031334" lon="13.405687353235017"><ele>711.4</ele><time>2026-04-27T15:03:39Z</time></trkpt><trkpt lat="42.35585484240222" lon="13.405735850595024"><ele>711.6</ele><time>2026-04-27T15:03:41Z</time></trkpt><trkpt lat="42.3557606605185" lon="13.405824902210924"><ele>711.8</ele><time>2026-04-27T15:03:43Z</time></trkpt><trkpt lat="42.355718133735046" lon="13.405955401070267"><ele>712.0</ele><time>2026-04-27T15:03:45Z</time></trkpt><trkpt lat="42.35575617961255" lon="13.406108287419405"><ele>712.0</ele><time>2026-04-27T15:03:47Z</time></trkpt><trkpt lat="42.35584898593876" lon="13.406167167356914"><ele>712.0</ele><time>2026-04-27T15:03:49Z</time></trkpt><trkpt lat="42.35577988233725" lon="13.406348471728046"><ele>712.0</ele><time>2026-04-27T15:03:50Z</time></trkpt><trkpt lat="42.35575766159517" lon="13.406443958719338"><ele>712.0</ele><time>2026-04-27T15:03:51Z</time></trkpt><trkpt lat="42.35572487174922" lon="13.406529172257608"><ele>712.0</ele><time>2026-04-27T15:03:52Z</time></trkpt><trkpt lat="42.355685291668486" lon="13.406608231869674"><ele>712.0</ele><time>2026-04-27T15:03:53Z</time></trkpt><trkpt lat="42.35563732795887" lon="13.406677470660263"><ele>712.0</ele><time>2026-04-27T15:03:54Z</time></trkpt><trkpt lat="42.35559019420372" lon="13.406744107759792"><ele>712.0</ele><time>2026-04-27T15:03:55Z</time></trkpt><trkpt lat="42.35554473644445" lon="13.406806653452538"><ele>712.0</ele><time>2026-04-27T15:03:56Z</time></trkpt><trkpt lat="42.35543269534956" lon="13.406890578167562"><ele>712.0</ele><time>2026-04-27T15:03:58Z</time></trkpt><trkpt lat="42.35537256223891" lon="13.406933451325795"><ele>712.0</ele><time>2026-04-27T15:03:59Z</time></trkpt><trkpt lat="42.35531875622436" lon="13.406994206876716"><ele>712.0</ele><time>2026-04-27T15:04:00Z</time></trkpt><trkpt lat="42.355272991924984" lon="13.407068488509719"><ele>712.0</ele><time>2026-04-27T15:04:01Z</time></trkpt><trkpt lat="42.35523214870921" lon="13.407162860096781"><ele>712.0</ele><time>2026-04-27T15:04:02Z</time></trkpt><trkpt lat="42.35518159879123" lon="13.407269320255098"><ele>712.0</ele><time>2026-04-27T15:04:03Z</time></trkpt><trkpt lat="42.35512379853827" lon="13.407356984312562"><ele>712.0</ele><time>2026-04-27T15:04:04Z</time></trkpt><trkpt lat="42.35508328580625" lon="13.40747814733371"><ele>712.0</ele><time>2026-04-27T15:04:05Z</time></trkpt><trkpt lat="42.35500265491758" lon="13.407578983772472"><ele>712.0</ele><time>2026-04-27T15:04:06Z</time></trkpt><trkpt lat="42.354943039222576" lon="13.407707013282987"><ele>712.0</ele><time>2026-04-27T15:04:07Z</time></trkpt><trkpt lat="42.35488358893286" lon="13.407843072375586"><ele>712.0</ele><time>2026-04-27T15:04:08Z</time></trkpt><trkpt lat="42.35482449121852" lon="13.407980391039466"><ele>712.0</ele><time>2026-04-27T15:04:09Z</time></trkpt><trkpt lat="42.354758225195745" lon="13.408121368326636"><ele>710.75</ele><time>2026-04-27T15:04:10Z</time></trkpt><trkpt lat="42.354687002003665" lon="13.408259294866575"><ele>709.5</ele><time>2026-04-27T15:04:11Z</time></trkpt><trkpt lat="42.35461567159753" lon="13.408394809717334"><ele>708.25</ele><time>2026-04-27T15:04:12Z</time></trkpt><trkpt lat="42.35454546626324" lon="13.408534305633742"><ele>707.0</ele><time>2026-04-27T15:04:13Z</time></trkpt><trkpt lat="42.354470355158796" lon="13.408674814123106"><ele>707.0</ele><time>2026-04-27T15:04:14Z</time></trkpt><trkpt lat="42.35438808412784" lon="13.408809824239155"><ele>707.0</ele><time>2026-04-27T15:04:15Z</time></trkpt><trkpt lat="42.35430301923155" lon="13.408939772668452"><ele>707.0</ele><time>2026-04-27T15:04:16Z</time></trkpt><trkpt lat="42.35422133727872" lon="13.409077016810214"><ele>707.0</ele><time>2026-04-27T15:04:17Z</time></trkpt><trkpt lat="42.35413149861469" lon="13.409215939880195"><ele>708.5</ele><time>2026-04-27T15:04:18Z</time></trkpt><trkpt lat="42.35403462374527" lon="13.409350120659658"><ele>710.0</ele><time>2026-04-27T15:04:19Z</time></trkpt><trkpt lat="42.35394093917868" lon="13.409491540736143"><ele>711.5</ele><time>2026-04-27T15:04:20Z</time></trkpt><trkpt lat="42.35384438818986" lon="13.409634025182367"><ele>713.0</ele><time>2026-04-27T15:04:21Z</time></trkpt><trkpt lat="42.35374746312003" lon="13.40977485849441"><ele>713.0</ele><time>2026-04-27T15:04:22Z</time></trkpt><trkpt lat="42.353652883455176" lon="13.409909385556697"><ele>713.0</ele><time>2026-04-27T15:04:23Z</time></trkpt><trkpt lat="42.35356418023572" lon="13.41003928963178"><ele>713.0</ele><time>2026-04-27T15:04:24Z</time></trkpt><trkpt lat="42.35348826272692" lon="13.410150910960317"><ele>713.0</ele><time>2026-04-27T15:04:25Z</time></trkpt><trkpt lat="42.35341590208314" lon="13.410252578312921"><ele>713.0</ele><time>2026-04-27T15:04:26Z</time></trkpt><trkpt lat="42.35334843058555" lon="13.410347069588571"><ele>713.0</ele><time>2026-04-27T15:04:27Z</time></trkpt><trkpt lat="42.353287299828395" lon="13.410433468529597"><ele>713.0</ele><time>2026-04-27T15:04:28Z</time></trkpt><trkpt lat="42.35322777804311" lon="13.410516919002433"><ele>713.0</ele><time>2026-04-27T15:04:29Z</time></trkpt><trkpt lat="42.35316733416662" lon="13.410602257505126"><ele>713.0</ele><time>2026-04-27T15:04:30Z</time></trkpt><trkpt lat="42.353107258146714" lon="13.410690018570348"><ele>713.0</ele><time>2026-04-27T15:04:31Z</time></trkpt><trkpt lat="42.35305257024287" lon="13.410772307715266"><ele>713.1666666666666</ele><time>2026-04-27T15:04:31.999Z</time></trkpt><trkpt lat="42.35299905620552" lon="13.410851250838732"><ele>713.3333333333333</ele><time>2026-04-27T15:04:32.999Z</time></trkpt><trkpt lat="42.35294195610286" lon="13.41093712699641"><ele>713.5</ele><time>2026-04-27T15:04:33.999Z</time></trkpt><trkpt lat="42.35287995185691" lon="13.411027288058003"><ele>713.6666666666666</ele><time>2026-04-27T15:04:34.999Z</time></trkpt><trkpt lat="42.352815722358" lon="13.411115987661283"><ele>713.8333333333334</ele><time>2026-04-27T15:04:35.999Z</time></trkpt><trkpt lat="42.352764457505046" lon="13.41118862081225"><ele>714.0</ele><time>2026-04-27T15:04:36.999Z</time></trkpt><trkpt lat="42.35271970266647" lon="13.411254088681625"><ele>714.3333333333334</ele><time>2026-04-27T15:04:37.999Z</time></trkpt><trkpt lat="42.35266339302552" lon="13.411327010804037"><ele>714.6666666666666</ele><time>2026-04-27T15:04:39.999Z</time></trkpt><trkpt lat="42.35261620702257" lon="13.4113991179896"><ele>715.0</ele><time>2026-04-27T15:04:41.999Z</time></trkpt><trkpt lat="42.35257002848029" lon="13.411477965480325"><ele>715.3333333333333</ele><time>2026-04-27T15:04:43.999Z</time></trkpt><trkpt lat="42.352522163514585" lon="13.411545256735407"><ele>715.6666666666666</ele><time>2026-04-27T15:04:45.999Z</time></trkpt><trkpt lat="42.352443459978936" lon="13.41163687573491"><ele>716.0</ele><time>2026-04-27T15:04:48.999Z</time></trkpt><trkpt lat="42.35240186551267" lon="13.411706285839642"><ele>716.0</ele><time>2026-04-27T15:04:49.999Z</time></trkpt><trkpt lat="42.35235407491228" lon="13.411786897495894"><ele>716.0</ele><time>2026-04-27T15:04:50.999Z</time></trkpt><trkpt lat="42.35230721544569" lon="13.411862295663205"><ele>716.0</ele><time>2026-04-27T15:04:51.999Z</time></trkpt><trkpt lat="42.35224375106182" lon="13.411956145216195"><ele>716.0</ele><time>2026-04-27T15:04:52.999Z</time></trkpt><trkpt lat="42.35217300908103" lon="13.412063762541212"><ele>716.0</ele><time>2026-04-27T15:04:53.999Z</time></trkpt><trkpt lat="42.35210119204001" lon="13.41218157861551"><ele>715.75</ele><time>2026-04-27T15:04:54.999Z</time></trkpt><trkpt lat="42.352031050962836" lon="13.412302832158014"><ele>715.5</ele><time>2026-04-27T15:04:55.999Z</time></trkpt><trkpt lat="42.3519725799406" lon="13.412424133844189"><ele>715.25</ele><time>2026-04-27T15:04:56.999Z</time></trkpt><trkpt lat="42.35193952602916" lon="13.412571687834944"><ele>715.0</ele><time>2026-04-27T15:04:57.999Z</time></trkpt><trkpt lat="42.35194358815846" lon="13.412740491467328"><ele>715.0</ele><time>2026-04-27T15:04:58.999Z</time></trkpt><trkpt lat="42.351973738474435" lon="13.412913062398061"><ele>715.0</ele><time>2026-04-27T15:04:59.999Z</time></trkpt><trkpt lat="42.3520332102259" lon="13.413082247199691"><ele>715.0</ele><time>2026-04-27T15:05:00.999Z</time></trkpt><trkpt lat="42.35210329777907" lon="13.413248944935155"><ele>715.0</ele><time>2026-04-27T15:05:01.999Z</time></trkpt><trkpt lat="42.35217909175117" lon="13.413413332110219"><ele>716.25</ele><time>2026-04-27T15:05:02.999Z</time></trkpt><trkpt lat="42.352253736545826" lon="13.413581194725086"><ele>717.5</ele><time>2026-04-27T15:05:03.999Z</time></trkpt><trkpt lat="42.35232563261678" lon="13.413746898631874"><ele>718.75</ele><time>2026-04-27T15:05:04.999Z</time></trkpt><trkpt lat="42.35238915457173" lon="13.413911238043113"><ele>720.0</ele><time>2026-04-27T15:05:05.999Z</time></trkpt><trkpt lat="42.352431717471305" lon="13.414070142603432"><ele>720.0</ele><time>2026-04-27T15:05:06.999Z</time></trkpt><trkpt lat="42.35245422930554" lon="13.414230297683766"><ele>720.0</ele><time>2026-04-27T15:05:07.999Z</time></trkpt><trkpt lat="42.35245684293931" lon="13.414393679220908"><ele>720.0</ele><time>2026-04-27T15:05:08.999Z</time></trkpt><trkpt lat="42.35245081123864" lon="13.414571504436628"><ele>720.0</ele><time>2026-04-27T15:05:09.999Z</time></trkpt><trkpt lat="42.35243571464107" lon="13.414760165565806"><ele>720.25</ele><time>2026-04-27T15:05:10.999Z</time></trkpt><trkpt lat="42.35239958691794" lon="13.414952167434738"><ele>720.5</ele><time>2026-04-27T15:05:11.999Z</time></trkpt><trkpt lat="42.35233999129088" lon="13.41513402062369"><ele>720.75</ele><time>2026-04-27T15:05:12.999Z</time></trkpt><trkpt lat="42.352260666620765" lon="13.41530581380258"><ele>721.0</ele><time>2026-04-27T15:05:13.999Z</time></trkpt><trkpt lat="42.352174704343646" lon="13.4154716906017"><ele>721.75</ele><time>2026-04-27T15:05:14.999Z</time></trkpt><trkpt lat="42.35208436011498" lon="13.415628035257996"><ele>722.5</ele><time>2026-04-27T15:05:15.999Z</time></trkpt><trkpt lat="42.35200120219435" lon="13.41579268195831"><ele>723.25</ele><time>2026-04-27T15:05:16.999Z</time></trkpt><trkpt lat="42.351921525936184" lon="13.415958101081502"><ele>724.0</ele><time>2026-04-27T15:05:17.999Z</time></trkpt><trkpt lat="42.35182880167655" lon="13.416131338797138"><ele>725.0</ele><time>2026-04-27T15:05:18.999Z</time></trkpt><trkpt lat="42.351757605762344" lon="13.416331471169835"><ele>726.0</ele><time>2026-04-27T15:05:19.999Z</time></trkpt><trkpt lat="42.351712524679655" lon="13.416554779863374"><ele>727.0</ele><time>2026-04-27T15:05:20.999Z</time></trkpt><trkpt lat="42.351703518410915" lon="13.416784233244197"><ele>727.0</ele><time>2026-04-27T15:05:21.999Z</time></trkpt><trkpt lat="42.35168693760286" lon="13.417012219392381"><ele>727.0</ele><time>2026-04-27T15:05:22.999Z</time></trkpt><trkpt lat="42.351675383045276" lon="13.417247337386714"><ele>727.0</ele><time>2026-04-27T15:05:23.999Z</time></trkpt><trkpt lat="42.35165990249935" lon="13.417474615268835"><ele>728.0</ele><time>2026-04-27T15:05:24.999Z</time></trkpt><trkpt lat="42.35165034156404" lon="13.417706117437255"><ele>729.0</ele><time>2026-04-27T15:05:25.999Z</time></trkpt><trkpt lat="42.35164809075138" lon="13.417907355751824"><ele>730.0</ele><time>2026-04-27T15:05:26.999Z</time></trkpt><trkpt lat="42.35165702356411" lon="13.418093284884682"><ele>730.0</ele><time>2026-04-27T15:05:27.999Z</time></trkpt><trkpt lat="42.35168859025232" lon="13.418253733733597"><ele>730.0</ele><time>2026-04-27T15:05:28.999Z</time></trkpt><trkpt lat="42.35172872363414" lon="13.418377504851552"><ele>730.0</ele><time>2026-04-27T15:05:29.999Z</time></trkpt><trkpt lat="42.3517641661406" lon="13.418462219452573"><ele>730.0</ele><time>2026-04-27T15:05:30.999Z</time></trkpt><trkpt lat="42.35180034647285" lon="13.418538537917446"><ele>730.0</ele><time>2026-04-27T15:05:31.999Z</time></trkpt><trkpt lat="42.35186814327124" lon="13.418624256481706"><ele>730.0</ele><time>2026-04-27T15:05:34Z</time></trkpt><trkpt lat="42.351922238303366" lon="13.41870770692491"><ele>730.0</ele><time>2026-04-27T15:05:37Z</time></trkpt><trkpt lat="42.35194851027033" lon="13.418812167023885"><ele>730.0</ele><time>2026-04-27T15:05:40Z</time></trkpt><trkpt lat="42.35195535807774" lon="13.418908714881617"><ele>730.0</ele><time>2026-04-27T15:05:42Z</time></trkpt><trkpt lat="42.35191292997125" lon="13.419073491273078"><ele>730.0</ele><time>2026-04-27T15:05:44Z</time></trkpt><trkpt lat="42.35197465612226" lon="13.419161685507037"><ele>730.2</ele><time>2026-04-27T15:05:45Z</time></trkpt><trkpt lat="42.351877107840856" lon="13.419276676366746"><ele>730.4</ele><time>2026-04-27T15:05:46Z</time></trkpt><trkpt lat="42.35190403036375" lon="13.419393074040645"><ele>730.5999999999999</ele><time>2026-04-27T15:05:47Z</time></trkpt><trkpt lat="42.351973336660805" lon="13.41949509878693"><ele>730.8</ele><time>2026-04-27T15:05:48Z</time></trkpt><trkpt lat="42.352043790328246" lon="13.419602170568883"><ele>731.0</ele><time>2026-04-27T15:05:49Z</time></trkpt><trkpt lat="42.35210397006349" lon="13.419711604428981"><ele>731.5</ele><time>2026-04-27T15:05:50Z</time></trkpt><trkpt lat="42.35216139986441" lon="13.419842761528463"><ele>732.0</ele><time>2026-04-27T15:05:51Z</time></trkpt><trkpt lat="42.352194848568715" lon="13.419994964522653"><ele>732.5</ele><time>2026-04-27T15:05:52Z</time></trkpt><trkpt lat="42.35217622927097" lon="13.420158043624703"><ele>733.0</ele><time>2026-04-27T15:05:53Z</time></trkpt><trkpt lat="42.35217055686066" lon="13.420323163269744"><ele>734.0</ele><time>2026-04-27T15:05:54Z</time></trkpt><trkpt lat="42.35218379811929" lon="13.420487343301573"><ele>735.0</ele><time>2026-04-27T15:05:55Z</time></trkpt><trkpt lat="42.35220095429502" lon="13.42065287592863"><ele>736.0</ele><time>2026-04-27T15:05:56Z</time></trkpt><trkpt lat="42.3522449716815" lon="13.420825076194417"><ele>737.0</ele><time>2026-04-27T15:05:57Z</time></trkpt><trkpt lat="42.35229398078754" lon="13.421001370615292"><ele>738.0</ele><time>2026-04-27T15:05:58Z</time></trkpt><trkpt lat="42.352342356535544" lon="13.421180382772203"><ele>739.0</ele><time>2026-04-27T15:05:59Z</time></trkpt><trkpt lat="42.35238880687652" lon="13.421363847289022"><ele>740.0</ele><time>2026-04-27T15:06:00Z</time></trkpt><trkpt lat="42.35241684562471" lon="13.421543968234277"><ele>741.0</ele><time>2026-04-27T15:06:01Z</time></trkpt><trkpt lat="42.352412535309405" lon="13.421721885733435"><ele>741.75</ele><time>2026-04-27T15:06:02Z</time></trkpt><trkpt lat="42.35235885230275" lon="13.421887822914513"><ele>742.5</ele><time>2026-04-27T15:06:03Z</time></trkpt><trkpt lat="42.35235164430947" lon="13.422059621302918"><ele>743.25</ele><time>2026-04-27T15:06:04Z</time></trkpt><trkpt lat="42.352339286853336" lon="13.42223717867944"><ele>744.0</ele><time>2026-04-27T15:06:05Z</time></trkpt><trkpt lat="42.352357563187326" lon="13.422437708693826"><ele>741.6666666666666</ele><time>2026-04-27T15:06:06Z</time></trkpt><trkpt lat="42.3523805299139" lon="13.422640921450633"><ele>739.3333333333333</ele><time>2026-04-27T15:06:07Z</time></trkpt><trkpt lat="42.35240176411187" lon="13.422845890306927"><ele>737.0</ele><time>2026-04-27T15:06:08Z</time></trkpt><trkpt lat="42.352420045287325" lon="13.423058013257995"><ele>733.6666666666666</ele><time>2026-04-27T15:06:09Z</time></trkpt><trkpt lat="42.35243776379031" lon="13.423271009384772"><ele>730.3333333333334</ele><time>2026-04-27T15:06:10Z</time></trkpt><trkpt lat="42.35244713138633" lon="13.423474769102883"><ele>727.0</ele><time>2026-04-27T15:06:11Z</time></trkpt><trkpt lat="42.35243297052939" lon="13.423668414664268"><ele>725.0</ele><time>2026-04-27T15:06:12Z</time></trkpt><trkpt lat="42.352407243650525" lon="13.423866209042027"><ele>723.0</ele><time>2026-04-27T15:06:13Z</time></trkpt><trkpt lat="42.35235313409705" lon="13.424062191757594"><ele>721.0</ele><time>2026-04-27T15:06:14Z</time></trkpt><trkpt lat="42.35232569552998" lon="13.424283106235103"><ele>721.0</ele><time>2026-04-27T15:06:15Z</time></trkpt><trkpt lat="42.352278622854804" lon="13.424502608149783"><ele>721.0</ele><time>2026-04-27T15:06:16Z</time></trkpt><trkpt lat="42.352233131564766" lon="13.424715087767714"><ele>721.0</ele><time>2026-04-27T15:06:17Z</time></trkpt><trkpt lat="42.352185951455034" lon="13.424906850567428"><ele>718.6666666666667</ele><time>2026-04-27T15:06:18Z</time></trkpt><trkpt lat="42.352127846368006" lon="13.425083910879824"><ele>716.3333333333334</ele><time>2026-04-27T15:06:19Z</time></trkpt><trkpt lat="42.35203196730572" lon="13.42524035163041"><ele>714.0</ele><time>2026-04-27T15:06:20Z</time></trkpt><trkpt lat="42.3519526355757" lon="13.425423825976608"><ele>715.3333333333334</ele><time>2026-04-27T15:06:21Z</time></trkpt><trkpt lat="42.35185998438469" lon="13.425600796094482"><ele>716.6666666666667</ele><time>2026-04-27T15:06:22Z</time></trkpt><trkpt lat="42.351772699274655" lon="13.425786154573832"><ele>718.0</ele><time>2026-04-27T15:06:23Z</time></trkpt><trkpt lat="42.3516762821237" lon="13.425959575414973"><ele>718.0</ele><time>2026-04-27T15:06:24Z</time></trkpt><trkpt lat="42.35161134908467" lon="13.42614855347865"><ele>718.0</ele><time>2026-04-27T15:06:25Z</time></trkpt><trkpt lat="42.35152872438178" lon="13.42632071539553"><ele>718.0</ele><time>2026-04-27T15:06:26Z</time></trkpt><trkpt lat="42.3514698711559" lon="13.426516034956158"><ele>721.6666666666667</ele><time>2026-04-27T15:06:27Z</time></trkpt><trkpt lat="42.35142990228664" lon="13.42672104715188"><ele>725.3333333333334</ele><time>2026-04-27T15:06:28Z</time></trkpt><trkpt lat="42.351393910259326" lon="13.426923841357542"><ele>729.0</ele><time>2026-04-27T15:06:29Z</time></trkpt><trkpt lat="42.351364994993745" lon="13.42712539078034"><ele>730.2</ele><time>2026-04-27T15:06:30Z</time></trkpt><trkpt lat="42.35134677317387" lon="13.427297235857127"><ele>731.4000000000001</ele><time>2026-04-27T15:06:31Z</time></trkpt><trkpt lat="42.351310929219515" lon="13.427428944179926"><ele>732.6</ele><time>2026-04-27T15:06:32Z</time></trkpt><trkpt lat="42.351289258004634" lon="13.427558038151188"><ele>733.8</ele><time>2026-04-27T15:06:32.999Z</time></trkpt><trkpt lat="42.35122383970144" lon="13.427646752268313"><ele>735.0</ele><time>2026-04-27T15:06:33.999Z</time></trkpt><trkpt lat="42.3511766735928" lon="13.427726863854632"><ele>735.0</ele><time>2026-04-27T15:06:34.999Z</time></trkpt><trkpt lat="42.35112213332953" lon="13.427821177392147"><ele>735.0</ele><time>2026-04-27T15:06:36.999Z</time></trkpt><trkpt lat="42.35105167312824" lon="13.427950254320693"><ele>735.0</ele><time>2026-04-27T15:06:38.999Z</time></trkpt><trkpt lat="42.351019484499986" lon="13.428053792973097"><ele>735.0</ele><time>2026-04-27T15:06:39.999Z</time></trkpt><trkpt lat="42.351027128732724" lon="13.428149740112659"><ele>735.0</ele><time>2026-04-27T15:06:40.999Z</time></trkpt><trkpt lat="42.35114591109219" lon="13.428255862259109"><ele>734.2</ele><time>2026-04-27T15:06:43.999Z</time></trkpt><trkpt lat="42.35122546425537" lon="13.428296732648207"><ele>733.4</ele><time>2026-04-27T15:06:44.999Z</time></trkpt><trkpt lat="42.351311909933266" lon="13.42835290182652"><ele>732.5999999999999</ele><time>2026-04-27T15:06:45.999Z</time></trkpt><trkpt lat="42.351408425287744" lon="13.428396393207635"><ele>731.8</ele><time>2026-04-27T15:06:46.999Z</time></trkpt><trkpt lat="42.35151475847186" lon="13.428431279280549"><ele>731.0</ele><time>2026-04-27T15:06:47.999Z</time></trkpt><trkpt lat="42.35161317518636" lon="13.428484914154565"><ele>733.0</ele><time>2026-04-27T15:06:48.999Z</time></trkpt><trkpt lat="42.35168641462675" lon="13.428579649014008"><ele>735.0</ele><time>2026-04-27T15:06:49.999Z</time></trkpt><trkpt lat="42.35174530527896" lon="13.428704697368234"><ele>737.0</ele><time>2026-04-27T15:06:50.999Z</time></trkpt><trkpt lat="42.35181447774406" lon="13.42883656996268"><ele>739.0</ele><time>2026-04-27T15:06:51.999Z</time></trkpt><trkpt lat="42.35186949320663" lon="13.428946565601994"><ele>741.0</ele><time>2026-04-27T15:06:52.999Z</time></trkpt><trkpt lat="42.35191439714041" lon="13.429015870722907"><ele>741.1999999999999</ele><time>2026-04-27T15:06:53.999Z</time></trkpt><trkpt lat="42.3518630336763" lon="13.429143094573055"><ele>741.4</ele><time>2026-04-27T15:06:54.999Z</time></trkpt><trkpt lat="42.35183129965398" lon="13.429252280172799"><ele>741.6</ele><time>2026-04-27T15:06:55.999Z</time></trkpt><trkpt lat="42.351797197537" lon="13.429395567305246"><ele>741.8</ele><time>2026-04-27T15:06:56.999Z</time></trkpt><trkpt lat="42.351720543400006" lon="13.429539956153215"><ele>742.0</ele><time>2026-04-27T15:06:57.999Z</time></trkpt><trkpt lat="42.35166005935727" lon="13.429707772975267"><ele>742.4000000000001</ele><time>2026-04-27T15:06:58.999Z</time></trkpt><trkpt lat="42.35158242075609" lon="13.42983600932217"><ele>742.8000000000001</ele><time>2026-04-27T15:06:59.999Z</time></trkpt><trkpt lat="42.35151190500932" lon="13.429958370987238"><ele>743.2</ele><time>2026-04-27T15:07:00.999Z</time></trkpt><trkpt lat="42.35145152020193" lon="13.430063086305335"><ele>743.6</ele><time>2026-04-27T15:07:01.999Z</time></trkpt><trkpt lat="42.35137384789048" lon="13.430105666837871"><ele>744.0</ele><time>2026-04-27T15:07:02.999Z</time></trkpt><trkpt lat="42.35128719196932" lon="13.430076818592553"><ele>741.6</ele><time>2026-04-27T15:07:03.999Z</time></trkpt><trkpt lat="42.351194409948704" lon="13.430040003984658"><ele>739.2</ele><time>2026-04-27T15:07:04.999Z</time></trkpt><trkpt lat="42.35109314870725" lon="13.430001321372957"><ele>736.8000000000001</ele><time>2026-04-27T15:07:05.999Z</time></trkpt><trkpt lat="42.35102615796601" lon="13.429982767460574"><ele>734.4000000000001</ele><time>2026-04-27T15:07:06.999Z</time></trkpt><trkpt lat="42.35093865023699" lon="13.429960839407192"><ele>732.0</ele><time>2026-04-27T15:07:08.999Z</time></trkpt><trkpt lat="42.35082951036235" lon="13.429928554354218"><ele>732.0</ele><time>2026-04-27T15:07:10.999Z</time></trkpt><trkpt lat="42.350732683613025" lon="13.42997597883697"><ele>732.0</ele><time>2026-04-27T15:07:12.999Z</time></trkpt><trkpt lat="42.35063064089679" lon="13.430059722089332"><ele>732.0</ele><time>2026-04-27T15:07:14.999Z</time></trkpt><trkpt lat="42.350555729731596" lon="13.430132792144189"><ele>732.0</ele><time>2026-04-27T15:07:15.999Z</time></trkpt><trkpt lat="42.35048551299076" lon="13.43023525848777"><ele>732.0</ele><time>2026-04-27T15:07:16.999Z</time></trkpt><trkpt lat="42.35042616802862" lon="13.430348713513006"><ele>731.0</ele><time>2026-04-27T15:07:17.999Z</time></trkpt><trkpt lat="42.3503513911651" lon="13.430476421675934"><ele>730.0</ele><time>2026-04-27T15:07:18.999Z</time></trkpt><trkpt lat="42.350247127037484" lon="13.43058967494545"><ele>729.0</ele><time>2026-04-27T15:07:19.999Z</time></trkpt><trkpt lat="42.350154989132925" lon="13.430727973837302"><ele>728.0</ele><time>2026-04-27T15:07:20.999Z</time></trkpt><trkpt lat="42.35007491345751" lon="13.430841931794811"><ele>728.0</ele><time>2026-04-27T15:07:21.999Z</time></trkpt><trkpt lat="42.34998615879384" lon="13.4309289698539"><ele>728.0</ele><time>2026-04-27T15:07:22.999Z</time></trkpt><trkpt lat="42.34987671087937" lon="13.430997543682297"><ele>728.0</ele><time>2026-04-27T15:07:23.999Z</time></trkpt><trkpt lat="42.34975426093681" lon="13.431045563544961"><ele>728.0</ele><time>2026-04-27T15:07:24.999Z</time></trkpt><trkpt lat="42.349629471643844" lon="13.431076463750186"><ele>726.25</ele><time>2026-04-27T15:07:25.999Z</time></trkpt><trkpt lat="42.34950190454771" lon="13.431052876155288"><ele>724.5</ele><time>2026-04-27T15:07:26.999Z</time></trkpt><trkpt lat="42.34939864844444" lon="13.430992965798294"><ele>722.75</ele><time>2026-04-27T15:07:27.999Z</time></trkpt><trkpt lat="42.34927870418161" lon="13.430993833181017"><ele>721.0</ele><time>2026-04-27T15:07:28.999Z</time></trkpt><trkpt lat="42.349162278369164" lon="13.43106585961361"><ele>721.0</ele><time>2026-04-27T15:07:29.999Z</time></trkpt><trkpt lat="42.34902818531615" lon="13.431106345955211"><ele>721.0</ele><time>2026-04-27T15:07:30.999Z</time></trkpt><trkpt lat="42.348893799644955" lon="13.431169494749556"><ele>721.0</ele><time>2026-04-27T15:07:31.999Z</time></trkpt><trkpt lat="42.34876120574414" lon="13.431257175681814"><ele>721.0</ele><time>2026-04-27T15:07:32.999Z</time></trkpt><trkpt lat="42.348638048083394" lon="13.431359799244001"><ele>721.0</ele><time>2026-04-27T15:07:33.999Z</time></trkpt><trkpt lat="42.34851447223363" lon="13.431448223874106"><ele>721.0</ele><time>2026-04-27T15:07:34.999Z</time></trkpt><trkpt lat="42.348380685674854" lon="13.43151733974434"><ele>721.0</ele><time>2026-04-27T15:07:35.999Z</time></trkpt><trkpt lat="42.34823549639134" lon="13.43158017524805"><ele>721.0</ele><time>2026-04-27T15:07:36.999Z</time></trkpt><trkpt lat="42.34808977711754" lon="13.43163187956789"><ele>718.5</ele><time>2026-04-27T15:07:37.999Z</time></trkpt><trkpt lat="42.34795547668724" lon="13.431691020226621"><ele>716.0</ele><time>2026-04-27T15:07:38.999Z</time></trkpt><trkpt lat="42.34782349933628" lon="13.43176078222429"><ele>713.5</ele><time>2026-04-27T15:07:40Z</time></trkpt><trkpt lat="42.34768787882691" lon="13.431836970222582"><ele>711.0</ele><time>2026-04-27T15:07:41Z</time></trkpt><trkpt lat="42.347550592238306" lon="13.431951325333555"><ele>711.0</ele><time>2026-04-27T15:07:42Z</time></trkpt><trkpt lat="42.347400086424706" lon="13.432034350818384"><ele>711.0</ele><time>2026-04-27T15:07:43Z</time></trkpt><trkpt lat="42.347246092495446" lon="13.432118074309642"><ele>711.0</ele><time>2026-04-27T15:07:44Z</time></trkpt><trkpt lat="42.3470884362423" lon="13.432210605450447"><ele>711.6666666666666</ele><time>2026-04-27T15:07:45Z</time></trkpt><trkpt lat="42.34692427405261" lon="13.432278673726232"><ele>712.3333333333333</ele><time>2026-04-27T15:07:46Z</time></trkpt><trkpt lat="42.3467752795573" lon="13.432393846078698"><ele>713.0</ele><time>2026-04-27T15:07:47Z</time></trkpt><trkpt lat="42.346648164778294" lon="13.432544758541937"><ele>713.0</ele><time>2026-04-27T15:07:48Z</time></trkpt><trkpt lat="42.34651520212401" lon="13.432683564808936"><ele>713.0</ele><time>2026-04-27T15:07:49Z</time></trkpt><trkpt lat="42.34638001070847" lon="13.432814710989241"><ele>713.0</ele><time>2026-04-27T15:07:50Z</time></trkpt><trkpt lat="42.34624782314935" lon="13.432920332775849"><ele>713.25</ele><time>2026-04-27T15:07:51Z</time></trkpt><trkpt lat="42.34610856496835" lon="13.433011729664827"><ele>713.5</ele><time>2026-04-27T15:07:52Z</time></trkpt><trkpt lat="42.34595782135642" lon="13.433074574265342"><ele>713.75</ele><time>2026-04-27T15:07:53Z</time></trkpt><trkpt lat="42.345839702567304" lon="13.433142352207847"><ele>714.0</ele><time>2026-04-27T15:07:54Z</time></trkpt><trkpt lat="42.34573936620136" lon="13.433192842211817"><ele>714.0</ele><time>2026-04-27T15:07:55Z</time></trkpt><trkpt lat="42.345631681153044" lon="13.433231805210227"><ele>714.0</ele><time>2026-04-27T15:07:56Z</time></trkpt><trkpt lat="42.34552190995855" lon="13.433254843861723"><ele>714.0</ele><time>2026-04-27T15:07:57Z</time></trkpt><trkpt lat="42.345446616025264" lon="13.433236351044489"><ele>714.0</ele><time>2026-04-27T15:07:58Z</time></trkpt><trkpt lat="42.345324418353954" lon="13.433253781537465"><ele>714.0</ele><time>2026-04-27T15:08:00Z</time></trkpt><trkpt lat="42.345232563607176" lon="13.43376439414543"><ele>712.25</ele><time>2026-04-27T15:08:01Z</time></trkpt><trkpt lat="42.34515004069348" lon="13.43388502754019"><ele>710.5</ele><time>2026-04-27T15:08:02Z</time></trkpt><trkpt lat="42.34507418270669" lon="13.434036247618463"><ele>708.75</ele><time>2026-04-27T15:08:03Z</time></trkpt><trkpt lat="42.34499690282023" lon="13.434211458070799"><ele>707.0</ele><time>2026-04-27T15:08:04Z</time></trkpt><trkpt lat="42.34491429405698" lon="13.434389708849748"><ele>707.0</ele><time>2026-04-27T15:08:05Z</time></trkpt><trkpt lat="42.34483075031505" lon="13.434577020345186"><ele>707.0</ele><time>2026-04-27T15:08:06Z</time></trkpt><trkpt lat="42.34475129318509" lon="13.43476699246104"><ele>707.0</ele><time>2026-04-27T15:08:07Z</time></trkpt><trkpt lat="42.34467283554551" lon="13.434959573623221"><ele>704.5</ele><time>2026-04-27T15:08:08Z</time></trkpt><trkpt lat="42.34460375519758" lon="13.435148072523287"><ele>702.0</ele><time>2026-04-27T15:08:09Z</time></trkpt><trkpt lat="42.344533279856954" lon="13.435321026817798"><ele>699.5</ele><time>2026-04-27T15:08:10Z</time></trkpt><trkpt lat="42.34447029161519" lon="13.435491457979426"><ele>697.0</ele><time>2026-04-27T15:08:11Z</time></trkpt><trkpt lat="42.344407047494386" lon="13.435651875615092"><ele>697.0</ele><time>2026-04-27T15:08:12Z</time></trkpt><trkpt lat="42.34434734382573" lon="13.435774910834864"><ele>697.0</ele><time>2026-04-27T15:08:13Z</time></trkpt><trkpt lat="42.34430097795991" lon="13.435886178394265"><ele>697.0</ele><time>2026-04-27T15:08:14Z</time></trkpt><trkpt lat="42.344279824193656" lon="13.43601304949021"><ele>697.0</ele><time>2026-04-27T15:08:15Z</time></trkpt><trkpt lat="42.34428215527986" lon="13.436161800054709"><ele>697.0</ele><time>2026-04-27T15:08:16Z</time></trkpt><trkpt lat="42.3442605774484" lon="13.436319297110495"><ele>696.75</ele><time>2026-04-27T15:08:17Z</time></trkpt><trkpt lat="42.34423738002701" lon="13.43650372464923"><ele>696.5</ele><time>2026-04-27T15:08:18Z</time></trkpt><trkpt lat="42.34422672852724" lon="13.436690658512124"><ele>696.25</ele><time>2026-04-27T15:08:19Z</time></trkpt><trkpt lat="42.344220707470335" lon="13.436852353604841"><ele>696.0</ele><time>2026-04-27T15:08:20Z</time></trkpt><trkpt lat="42.344202118747376" lon="13.436970968929822"><ele>696.0</ele><time>2026-04-27T15:08:21Z</time></trkpt><trkpt lat="42.34416416505494" lon="13.43707844425428"><ele>696.0</ele><time>2026-04-27T15:08:22Z</time></trkpt><trkpt lat="42.34411180114052" lon="13.437198603989922"><ele>696.0</ele><time>2026-04-27T15:08:23Z</time></trkpt><trkpt lat="42.34407673906608" lon="13.437325752094557"><ele>696.0</ele><time>2026-04-27T15:08:24Z</time></trkpt><trkpt lat="42.344070344418654" lon="13.43744739847748"><ele>696.0</ele><time>2026-04-27T15:08:25Z</time></trkpt><trkpt lat="42.34406529280513" lon="13.437578953445271"><ele>697.75</ele><time>2026-04-27T15:08:26Z</time></trkpt><trkpt lat="42.34403999231217" lon="13.437719322101346"><ele>699.5</ele><time>2026-04-27T15:08:27Z</time></trkpt><trkpt lat="42.34401404287582" lon="13.437856696788444"><ele>701.25</ele><time>2026-04-27T15:08:28Z</time></trkpt><trkpt lat="42.34398709135698" lon="13.438031582776308"><ele>703.0</ele><time>2026-04-27T15:08:29Z</time></trkpt><trkpt lat="42.343970477996876" lon="13.438213794900927"><ele>701.25</ele><time>2026-04-27T15:08:30Z</time></trkpt><trkpt lat="42.343935562004056" lon="13.438392617259797"><ele>699.5</ele><time>2026-04-27T15:08:31Z</time></trkpt><trkpt lat="42.34391438434642" lon="13.438552665537859"><ele>697.75</ele><time>2026-04-27T15:08:32Z</time></trkpt><trkpt lat="42.343882456585554" lon="13.438702482247107"><ele>696.0</ele><time>2026-04-27T15:08:33Z</time></trkpt><trkpt lat="42.343837550887216" lon="13.438824743073784"><ele>696.0</ele><time>2026-04-27T15:08:34Z</time></trkpt><trkpt lat="42.34376749650497" lon="13.438940262828952"><ele>696.0</ele><time>2026-04-27T15:08:34.999Z</time></trkpt><trkpt lat="42.3436894022415" lon="13.439041448563113"><ele>696.0</ele><time>2026-04-27T15:08:35.999Z</time></trkpt><trkpt lat="42.34360399579647" lon="13.439107239946031"><ele>696.0</ele><time>2026-04-27T15:08:36.999Z</time></trkpt><trkpt lat="42.34350489290805" lon="13.439169886956746"><ele>696.0</ele><time>2026-04-27T15:08:37.999Z</time></trkpt><trkpt lat="42.343418796169935" lon="13.439268437352313"><ele>696.0</ele><time>2026-04-27T15:08:38.999Z</time></trkpt><trkpt lat="42.343336909826725" lon="13.439395746776535"><ele>696.0</ele><time>2026-04-27T15:08:39.999Z</time></trkpt><trkpt lat="42.343255091235264" lon="13.43950117946074"><ele>696.0</ele><time>2026-04-27T15:08:40.999Z</time></trkpt><trkpt lat="42.343183504713835" lon="13.43959316958557"><ele>696.0</ele><time>2026-04-27T15:08:41.999Z</time></trkpt><trkpt lat="42.343126214143766" lon="13.439691432023592"><ele>696.0</ele><time>2026-04-27T15:08:42.999Z</time></trkpt><trkpt lat="42.34305442221965" lon="13.439783291729896"><ele>695.5999999999999</ele><time>2026-04-27T15:08:43.999Z</time></trkpt><trkpt lat="42.34296806411951" lon="13.439868361842112"><ele>695.2</ele><time>2026-04-27T15:08:44.999Z</time></trkpt><trkpt lat="42.3428864702837" lon="13.439926852779132"><ele>694.8</ele><time>2026-04-27T15:08:45.999Z</time></trkpt><trkpt lat="42.342787173478364" lon="13.439951027285138"><ele>694.4000000000001</ele><time>2026-04-27T15:08:46.999Z</time></trkpt><trkpt lat="42.34268463410169" lon="13.439965257250735"><ele>694.0</ele><time>2026-04-27T15:08:47.999Z</time></trkpt><trkpt lat="42.34258042991602" lon="13.439953085982719"><ele>694.0</ele><time>2026-04-27T15:08:48.999Z</time></trkpt><trkpt lat="42.34248374179063" lon="13.43993216286412"><ele>694.0</ele><time>2026-04-27T15:08:49.999Z</time></trkpt><trkpt lat="42.34238931545179" lon="13.43992096067883"><ele>694.0</ele><time>2026-04-27T15:08:50.999Z</time></trkpt><trkpt lat="42.34230954740406" lon="13.439938057704733"><ele>694.0</ele><time>2026-04-27T15:08:51.999Z</time></trkpt><trkpt lat="42.34222979186469" lon="13.439998676202524"><ele>694.0</ele><time>2026-04-27T15:08:52.999Z</time></trkpt><trkpt lat="42.34214895634361" lon="13.440075966848042"><ele>692.0</ele><time>2026-04-27T15:08:53.999Z</time></trkpt><trkpt lat="42.342067264153584" lon="13.440116490400987"><ele>690.0</ele><time>2026-04-27T15:08:54.999Z</time></trkpt><trkpt lat="42.34198256564136" lon="13.44012669283385"><ele>688.0</ele><time>2026-04-27T15:08:55.999Z</time></trkpt><trkpt lat="42.34188208452592" lon="13.440156835831992"><ele>686.0</ele><time>2026-04-27T15:08:56.999Z</time></trkpt><trkpt lat="42.34179222663707" lon="13.440204982321944"><ele>684.0</ele><time>2026-04-27T15:08:57.999Z</time></trkpt><trkpt lat="42.34170835411163" lon="13.44023303787299"><ele>684.0</ele><time>2026-04-27T15:08:58.999Z</time></trkpt><trkpt lat="42.3416174676689" lon="13.440242696826989"><ele>684.0</ele><time>2026-04-27T15:08:59.999Z</time></trkpt><trkpt lat="42.34151811973513" lon="13.440250772766072"><ele>684.0</ele><time>2026-04-27T15:09:00.999Z</time></trkpt><trkpt lat="42.34142109781079" lon="13.440254672090768"><ele>684.0</ele><time>2026-04-27T15:09:01.999Z</time></trkpt><trkpt lat="42.341336639434004" lon="13.440227964212307"><ele>684.0</ele><time>2026-04-27T15:09:02.999Z</time></trkpt><trkpt lat="42.341240927152626" lon="13.440207510311492"><ele>681.8000000000001</ele><time>2026-04-27T15:09:03.999Z</time></trkpt><trkpt lat="42.34115566649898" lon="13.44022455196588"><ele>679.6</ele><time>2026-04-27T15:09:04.999Z</time></trkpt><trkpt lat="42.34107673792694" lon="13.440258406549047"><ele>677.4</ele><time>2026-04-27T15:09:05.999Z</time></trkpt><trkpt lat="42.340994510062096" lon="13.440294455187727"><ele>675.2</ele><time>2026-04-27T15:09:06.999Z</time></trkpt><trkpt lat="42.340894228004494" lon="13.44035855487546"><ele>673.0</ele><time>2026-04-27T15:09:07.999Z</time></trkpt><trkpt lat="42.340791702684484" lon="13.440413690242499"><ele>673.0</ele><time>2026-04-27T15:09:08.999Z</time></trkpt><trkpt lat="42.3406949779988" lon="13.440463603703321"><ele>673.0</ele><time>2026-04-27T15:09:09.999Z</time></trkpt><trkpt lat="42.34060369961389" lon="13.440504795469817"><ele>673.0</ele><time>2026-04-27T15:09:10.999Z</time></trkpt><trkpt lat="42.34052085353699" lon="13.44054085200282"><ele>673.0</ele><time>2026-04-27T15:09:11.999Z</time></trkpt><trkpt lat="42.34045280805276" lon="13.440582558922253"><ele>673.0</ele><time>2026-04-27T15:09:12.999Z</time></trkpt><trkpt lat="42.34040106450817" lon="13.440649935750166"><ele>673.0</ele><time>2026-04-27T15:09:13.999Z</time></trkpt><trkpt lat="42.34036982036953" lon="13.440727898615329"><ele>670.5999999999999</ele><time>2026-04-27T15:09:14.999Z</time></trkpt><trkpt lat="42.34035639696891" lon="13.44083803611482"><ele>668.1999999999999</ele><time>2026-04-27T15:09:15.999Z</time></trkpt><trkpt lat="42.34033588852921" lon="13.44097361211423"><ele>665.8</ele><time>2026-04-27T15:09:16.999Z</time></trkpt><trkpt lat="42.34030165496933" lon="13.441134020275395"><ele>663.4</ele><time>2026-04-27T15:09:17.999Z</time></trkpt><trkpt lat="42.340278489114695" lon="13.441304534289067"><ele>661.0</ele><time>2026-04-27T15:09:18.999Z</time></trkpt><trkpt lat="42.340248738146265" lon="13.441456643225818"><ele>659.75</ele><time>2026-04-27T15:09:19.999Z</time></trkpt><trkpt lat="42.34021332760317" lon="13.441608615062984"><ele>658.5</ele><time>2026-04-27T15:09:20.999Z</time></trkpt><trkpt lat="42.340173374604234" lon="13.441761742994226"><ele>657.25</ele><time>2026-04-27T15:09:21.999Z</time></trkpt><trkpt lat="42.340133203147055" lon="13.441907919687926"><ele>656.0</ele><time>2026-04-27T15:09:22.999Z</time></trkpt><trkpt lat="42.340090311449366" lon="13.442037564747785"><ele>654.5</ele><time>2026-04-27T15:09:23.999Z</time></trkpt><trkpt lat="42.34005513909476" lon="13.442168830835218"><ele>653.0</ele><time>2026-04-27T15:09:24.999Z</time></trkpt><trkpt lat="42.34001232467727" lon="13.442320905434878"><ele>651.5</ele><time>2026-04-27T15:09:25.999Z</time></trkpt><trkpt lat="42.33996374692207" lon="13.442485679341782"><ele>650.0</ele><time>2026-04-27T15:09:26.999Z</time></trkpt><trkpt lat="42.33992200116146" lon="13.442658011163553"><ele>650.0</ele><time>2026-04-27T15:09:27.999Z</time></trkpt><trkpt lat="42.339895352186204" lon="13.442826498591986"><ele>650.0</ele><time>2026-04-27T15:09:28.999Z</time></trkpt><trkpt lat="42.339867821401825" lon="13.442974775769216"><ele>650.0</ele><time>2026-04-27T15:09:29.999Z</time></trkpt><trkpt lat="42.33983051834718" lon="13.44309968649684"><ele>650.0</ele><time>2026-04-27T15:09:30.999Z</time></trkpt><trkpt lat="42.33977549613774" lon="13.443240616346671"><ele>648.5</ele><time>2026-04-27T15:09:31.999Z</time></trkpt><trkpt lat="42.33971587561478" lon="13.443371588616609"><ele>647.0</ele><time>2026-04-27T15:09:32.999Z</time></trkpt><trkpt lat="42.339638400073206" lon="13.443485824912468"><ele>645.5</ele><time>2026-04-27T15:09:33.999Z</time></trkpt><trkpt lat="42.33953734454272" lon="13.44357913105586"><ele>644.0</ele><time>2026-04-27T15:09:34.999Z</time></trkpt><trkpt lat="42.339436577180855" lon="13.44367499321832"><ele>644.0</ele><time>2026-04-27T15:09:35.999Z</time></trkpt><trkpt lat="42.339337101093655" lon="13.443781447921477"><ele>644.0</ele><time>2026-04-27T15:09:36.999Z</time></trkpt><trkpt lat="42.33925243144796" lon="13.4438773979988"><ele>644.0</ele><time>2026-04-27T15:09:37.999Z</time></trkpt><trkpt lat="42.3391663860931" lon="13.443980915413482"><ele>644.0</ele><time>2026-04-27T15:09:38.999Z</time></trkpt><trkpt lat="42.339087077693904" lon="13.444097055272655"><ele>645.6</ele><time>2026-04-27T15:09:39.999Z</time></trkpt><trkpt lat="42.339031370705804" lon="13.444227896271032"><ele>647.2</ele><time>2026-04-27T15:09:40.999Z</time></trkpt><trkpt lat="42.33900961643918" lon="13.444350948646603"><ele>648.8000000000001</ele><time>2026-04-27T15:09:41.999Z</time></trkpt><trkpt lat="42.339001441586724" lon="13.444476612113476"><ele>650.4000000000001</ele><time>2026-04-27T15:09:42.999Z</time></trkpt><trkpt lat="42.339017819081924" lon="13.444610979215605"><ele>652.0</ele><time>2026-04-27T15:09:43.999Z</time></trkpt><trkpt lat="42.339039383080554" lon="13.444734177839349"><ele>652.0</ele><time>2026-04-27T15:09:45Z</time></trkpt><trkpt lat="42.33903238046451" lon="13.444853093142623"><ele>652.0</ele><time>2026-04-27T15:09:46Z</time></trkpt><trkpt lat="42.33897635714324" lon="13.444979248689727"><ele>652.0</ele><time>2026-04-27T15:09:47Z</time></trkpt><trkpt lat="42.33896496135758" lon="13.445120685622996"><ele>652.0</ele><time>2026-04-27T15:09:48Z</time></trkpt><trkpt lat="42.338932665391155" lon="13.445298978857005"><ele>652.0</ele><time>2026-04-27T15:09:49Z</time></trkpt><trkpt lat="42.338900294127356" lon="13.445482880859386"><ele>648.0</ele><time>2026-04-27T15:09:50Z</time></trkpt><trkpt lat="42.338867098580145" lon="13.44566239898572"><ele>644.0</ele><time>2026-04-27T15:09:51Z</time></trkpt><trkpt lat="42.33882761324551" lon="13.445833836204995"><ele>640.0</ele><time>2026-04-27T15:09:52Z</time></trkpt><trkpt lat="42.338765468560005" lon="13.445994237630135"><ele>636.0</ele><time>2026-04-27T15:09:53Z</time></trkpt><trkpt lat="42.33869820876103" lon="13.446160713261477"><ele>637.0</ele><time>2026-04-27T15:09:54Z</time></trkpt><trkpt lat="42.33862796775383" lon="13.446333581730624"><ele>638.0</ele><time>2026-04-27T15:09:55Z</time></trkpt><trkpt lat="42.33856900063067" lon="13.446502345939184"><ele>639.0</ele><time>2026-04-27T15:09:56Z</time></trkpt><trkpt lat="42.338510426135215" lon="13.446681910627596"><ele>640.0</ele><time>2026-04-27T15:09:57Z</time></trkpt><trkpt lat="42.338454602046646" lon="13.44685903855429"><ele>640.0</ele><time>2026-04-27T15:09:58Z</time></trkpt><trkpt lat="42.33840455087388" lon="13.447026480050038"><ele>640.0</ele><time>2026-04-27T15:09:59Z</time></trkpt><trkpt lat="42.338358837413715" lon="13.447180464444562"><ele>640.0</ele><time>2026-04-27T15:10:00Z</time></trkpt><trkpt lat="42.33831459738099" lon="13.447332463852465"><ele>640.0</ele><time>2026-04-27T15:10:01Z</time></trkpt><trkpt lat="42.33827282151476" lon="13.447478998733848"><ele>640.25</ele><time>2026-04-27T15:10:02Z</time></trkpt><trkpt lat="42.338232835272095" lon="13.44762616821687"><ele>640.5</ele><time>2026-04-27T15:10:03Z</time></trkpt><trkpt lat="42.338190071954244" lon="13.447781139520394"><ele>640.75</ele><time>2026-04-27T15:10:04Z</time></trkpt><trkpt lat="42.33813693659111" lon="13.447964229095755"><ele>641.0</ele><time>2026-04-27T15:10:05Z</time></trkpt><trkpt lat="42.3380831726745" lon="13.448145559918363"><ele>635.0</ele><time>2026-04-27T15:10:06Z</time></trkpt><trkpt lat="42.33802628010859" lon="13.448337442792461"><ele>629.0</ele><time>2026-04-27T15:10:07Z</time></trkpt><trkpt lat="42.3379684355422" lon="13.448532536476495"><ele>623.0</ele><time>2026-04-27T15:10:08Z</time></trkpt><trkpt lat="42.337913071745604" lon="13.448719774300084"><ele>623.5</ele><time>2026-04-27T15:10:09Z</time></trkpt><trkpt lat="42.33786080079414" lon="13.448902497381503"><ele>624.0</ele><time>2026-04-27T15:10:10Z</time></trkpt><trkpt lat="42.33781484448788" lon="13.449084656834284"><ele>624.5</ele><time>2026-04-27T15:10:11Z</time></trkpt><trkpt lat="42.337776053429785" lon="13.44926740995657"><ele>625.0</ele><time>2026-04-27T15:10:12Z</time></trkpt><trkpt lat="42.337749959438305" lon="13.44944202126469"><ele>625.0</ele><time>2026-04-27T15:10:13Z</time></trkpt><trkpt lat="42.33775891336701" lon="13.44961781527341"><ele>625.0</ele><time>2026-04-27T15:10:14Z</time></trkpt><trkpt lat="42.33777407474066" lon="13.449813051089908"><ele>625.0</ele><time>2026-04-27T15:10:15Z</time></trkpt><trkpt lat="42.33779962166182" lon="13.450012869772332"><ele>625.0</ele><time>2026-04-27T15:10:16Z</time></trkpt><trkpt lat="42.33780978665252" lon="13.450226464729017"><ele>624.6666666666667</ele><time>2026-04-27T15:10:17Z</time></trkpt><trkpt lat="42.337825625105864" lon="13.450435001221534"><ele>624.3333333333334</ele><time>2026-04-27T15:10:18Z</time></trkpt><trkpt lat="42.33783521845262" lon="13.45063502108653"><ele>624.0</ele><time>2026-04-27T15:10:19Z</time></trkpt><trkpt lat="42.33784300902246" lon="13.450834700811335"><ele>623.5</ele><time>2026-04-27T15:10:20Z</time></trkpt><trkpt lat="42.33786692142714" lon="13.451024357071613"><ele>623.0</ele><time>2026-04-27T15:10:21Z</time></trkpt><trkpt lat="42.33787536138393" lon="13.451210458764942"><ele>622.5</ele><time>2026-04-27T15:10:22Z</time></trkpt><trkpt lat="42.33788617671226" lon="13.45139549490922"><ele>622.0</ele><time>2026-04-27T15:10:23Z</time></trkpt><trkpt lat="42.337880447401545" lon="13.451590061460978"><ele>621.5</ele><time>2026-04-27T15:10:24Z</time></trkpt><trkpt lat="42.33789128069479" lon="13.451786116632519"><ele>621.0</ele><time>2026-04-27T15:10:25Z</time></trkpt><trkpt lat="42.33789986297384" lon="13.451981024441984"><ele>620.5</ele><time>2026-04-27T15:10:26Z</time></trkpt><trkpt lat="42.337907333847944" lon="13.45216854416272"><ele>620.0</ele><time>2026-04-27T15:10:27Z</time></trkpt><trkpt lat="42.337911355932306" lon="13.452341073297093"><ele>619.2</ele><time>2026-04-27T15:10:28Z</time></trkpt><trkpt lat="42.337916125700225" lon="13.452505180966643"><ele>618.4</ele><time>2026-04-27T15:10:29Z</time></trkpt><trkpt lat="42.33792173639564" lon="13.45265186290288"><ele>617.6</ele><time>2026-04-27T15:10:30Z</time></trkpt><trkpt lat="42.3379328631455" lon="13.452772219041192"><ele>616.8</ele><time>2026-04-27T15:10:31Z</time></trkpt><trkpt lat="42.33794307061842" lon="13.45290882927791"><ele>616.0</ele><time>2026-04-27T15:10:33Z</time></trkpt><trkpt lat="42.33795032575575" lon="13.453034134980475"><ele>615.25</ele><time>2026-04-27T15:10:34.999Z</time></trkpt><trkpt lat="42.33796045413682" lon="13.453209065377314"><ele>614.5</ele><time>2026-04-27T15:10:36.999Z</time></trkpt><trkpt lat="42.33812022670633" lon="13.45331038912976"><ele>613.75</ele><time>2026-04-27T15:10:37.999Z</time></trkpt><trkpt lat="42.33812944483384" lon="13.453420876873526"><ele>613.0</ele><time>2026-04-27T15:10:38.999Z</time></trkpt><trkpt lat="42.33813526786623" lon="13.453517253409036"><ele>615.3333333333334</ele><time>2026-04-27T15:10:39.999Z</time></trkpt><trkpt lat="42.33816360811744" lon="13.453612770245565"><ele>617.6666666666667</ele><time>2026-04-27T15:10:40.999Z</time></trkpt><trkpt lat="42.33817702056071" lon="13.453701624426492"><ele>620.0</ele><time>2026-04-27T15:10:41.999Z</time></trkpt><trkpt lat="42.338188662424656" lon="13.453811237601766"><ele>622.3333333333334</ele><time>2026-04-27T15:10:42.999Z</time></trkpt><trkpt lat="42.338182607634785" lon="13.45392267127245"><ele>624.6666666666666</ele><time>2026-04-27T15:10:43.999Z</time></trkpt><trkpt lat="42.33816109330923" lon="13.454060322680315"><ele>627.0</ele><time>2026-04-27T15:10:44.999Z</time></trkpt><trkpt lat="42.33813796713319" lon="13.454188988614916"><ele>627.0</ele><time>2026-04-27T15:10:45.999Z</time></trkpt><trkpt lat="42.33812150209742" lon="13.45430470264904"><ele>627.0</ele><time>2026-04-27T15:10:46.999Z</time></trkpt><trkpt lat="42.33810519305712" lon="13.454418630140433"><ele>627.0</ele><time>2026-04-27T15:10:47.999Z</time></trkpt><trkpt lat="42.33809182812026" lon="13.454531724507577"><ele>627.0</ele><time>2026-04-27T15:10:48.999Z</time></trkpt><trkpt lat="42.338083314283665" lon="13.454644380512345"><ele>627.0</ele><time>2026-04-27T15:10:49.999Z</time></trkpt><trkpt lat="42.33807896195884" lon="13.454767320815023"><ele>627.0</ele><time>2026-04-27T15:10:50.999Z</time></trkpt><trkpt lat="42.33808591088992" lon="13.454888525330094"><ele>626.0</ele><time>2026-04-27T15:10:51.999Z</time></trkpt><trkpt lat="42.33810587242433" lon="13.454998752845123"><ele>625.0</ele><time>2026-04-27T15:10:52.999Z</time></trkpt><trkpt lat="42.33813170562117" lon="13.455101797743199"><ele>624.0</ele><time>2026-04-27T15:10:53.999Z</time></trkpt><trkpt lat="42.33816598625009" lon="13.455200636923536"><ele>623.0</ele><time>2026-04-27T15:10:54.999Z</time></trkpt><trkpt lat="42.338196655685344" lon="13.455299935194702"><ele>622.0</ele><time>2026-04-27T15:10:55.999Z</time></trkpt><trkpt lat="42.3382199776137" lon="13.4553880617593"><ele>621.0</ele><time>2026-04-27T15:10:56.999Z</time></trkpt><trkpt lat="42.33823575389671" lon="13.455498638281236"><ele>617.0</ele><time>2026-04-27T15:10:58.999Z</time></trkpt><trkpt lat="42.33808562046164" lon="13.455479108661173"><ele>613.0</ele><time>2026-04-27T15:11:01.999Z</time></trkpt><trkpt lat="42.338182991998224" lon="13.455639305010179"><ele>609.0</ele><time>2026-04-27T15:11:06.999Z</time></trkpt><trkpt lat="42.33827141387264" lon="13.455658491148174"><ele>605.0</ele><time>2026-04-27T15:11:07.999Z</time></trkpt><trkpt lat="42.33837315418685" lon="13.455705378154894"><ele>605.0</ele><time>2026-04-27T15:11:08.999Z</time></trkpt><trkpt lat="42.338486009236014" lon="13.45575333380953"><ele>605.0</ele><time>2026-04-27T15:11:09.999Z</time></trkpt><trkpt lat="42.3385980194226" lon="13.455787876124685"><ele>605.0</ele><time>2026-04-27T15:11:10.999Z</time></trkpt><trkpt lat="42.33871816840182" lon="13.455831260069402"><ele>605.0</ele><time>2026-04-27T15:11:11.999Z</time></trkpt><trkpt lat="42.33885138909018" lon="13.455887706532849"><ele>606.25</ele><time>2026-04-27T15:11:12.999Z</time></trkpt><trkpt lat="42.33898500405586" lon="13.45593963919314"><ele>607.5</ele><time>2026-04-27T15:11:13.999Z</time></trkpt><trkpt lat="42.33911442264596" lon="13.455994872588873"><ele>608.75</ele><time>2026-04-27T15:11:14.999Z</time></trkpt><trkpt lat="42.33923884753955" lon="13.456033337566758"><ele>610.0</ele><time>2026-04-27T15:11:15.999Z</time></trkpt><trkpt lat="42.33935842232349" lon="13.456049444174846"><ele>610.0</ele><time>2026-04-27T15:11:16.999Z</time></trkpt><trkpt lat="42.33946541675762" lon="13.456041474643982"><ele>610.0</ele><time>2026-04-27T15:11:17.999Z</time></trkpt><trkpt lat="42.339554180048026" lon="13.45603732102487"><ele>610.0</ele><time>2026-04-27T15:11:18.999Z</time></trkpt><trkpt lat="42.33962586649777" lon="13.456068848480708"><ele>610.0</ele><time>2026-04-27T15:11:19.999Z</time></trkpt><trkpt lat="42.33969572073347" lon="13.45612984540794"><ele>610.0</ele><time>2026-04-27T15:11:20.999Z</time></trkpt><trkpt lat="42.339744256786474" lon="13.456230393733213"><ele>610.0</ele><time>2026-04-27T15:11:21.999Z</time></trkpt><trkpt lat="42.33977508774931" lon="13.456353111753083"><ele>607.75</ele><time>2026-04-27T15:11:22.999Z</time></trkpt><trkpt lat="42.33977707751212" lon="13.456497734775537"><ele>605.5</ele><time>2026-04-27T15:11:23.999Z</time></trkpt><trkpt lat="42.33977966214108" lon="13.456611157313054"><ele>603.25</ele><time>2026-04-27T15:11:24.999Z</time></trkpt><trkpt lat="42.33991040131541" lon="13.456760241520373"><ele>601.0</ele><time>2026-04-27T15:12:00Z</time></trkpt><trkpt lat="42.3400114024537" lon="13.456770851053253"><ele>601.0</ele><time>2026-04-27T15:12:01Z</time></trkpt><trkpt lat="42.34012646365262" lon="13.45679492389106"><ele>601.0</ele><time>2026-04-27T15:12:02Z</time></trkpt><trkpt lat="42.3402350491612" lon="13.456831285213331"><ele>601.0</ele><time>2026-04-27T15:12:03Z</time></trkpt><trkpt lat="42.3403526934731" lon="13.4568729838355"><ele>601.0</ele><time>2026-04-27T15:12:04Z</time></trkpt><trkpt lat="42.34047830745477" lon="13.45691926973987"><ele>600.75</ele><time>2026-04-27T15:12:05Z</time></trkpt><trkpt lat="42.340613582335266" lon="13.456965031624293"><ele>600.5</ele><time>2026-04-27T15:12:06Z</time></trkpt><trkpt lat="42.340752080312555" lon="13.457017390300297"><ele>600.25</ele><time>2026-04-27T15:12:07Z</time></trkpt><trkpt lat="42.34088692319727" lon="13.457074168944041"><ele>600.0</ele><time>2026-04-27T15:12:08Z</time></trkpt><trkpt lat="42.34101243933759" lon="13.457136828877703"><ele>600.25</ele><time>2026-04-27T15:12:09Z</time></trkpt><trkpt lat="42.34113973903291" lon="13.457205002396966"><ele>600.5</ele><time>2026-04-27T15:12:10Z</time></trkpt><trkpt lat="42.34126593833127" lon="13.457283947765294"><ele>600.75</ele><time>2026-04-27T15:12:11Z</time></trkpt><trkpt lat="42.341385875436195" lon="13.457389804302476"><ele>601.0</ele><time>2026-04-27T15:12:12Z</time></trkpt><trkpt lat="42.34150225977757" lon="13.457527101910763"><ele>601.0</ele><time>2026-04-27T15:12:13Z</time></trkpt><trkpt lat="42.34161513652053" lon="13.457686392738152"><ele>601.0</ele><time>2026-04-27T15:12:14Z</time></trkpt><trkpt lat="42.341728964965355" lon="13.457847412537953"><ele>601.0</ele><time>2026-04-27T15:12:15Z</time></trkpt><trkpt lat="42.34184432432273" lon="13.457994257935772"><ele>601.0</ele><time>2026-04-27T15:12:16Z</time></trkpt><trkpt lat="42.3419595693147" lon="13.458137666499074"><ele>601.0</ele><time>2026-04-27T15:12:17Z</time></trkpt><trkpt lat="42.342067793358325" lon="13.458280066369152"><ele>601.0</ele><time>2026-04-27T15:12:18Z</time></trkpt><trkpt lat="42.34217393879851" lon="13.458422457999283"><ele>601.0</ele><time>2026-04-27T15:12:19Z</time></trkpt><trkpt lat="42.3422814322751" lon="13.458560015188718"><ele>601.0</ele><time>2026-04-27T15:12:20Z</time></trkpt><trkpt lat="42.34239059446102" lon="13.458704517148314"><ele>601.0</ele><time>2026-04-27T15:12:21Z</time></trkpt><trkpt lat="42.342500687395265" lon="13.458849183098726"><ele>601.0</ele><time>2026-04-27T15:12:22Z</time></trkpt><trkpt lat="42.342610948945705" lon="13.458994413416407"><ele>601.0</ele><time>2026-04-27T15:12:23Z</time></trkpt><trkpt lat="42.34271746676678" lon="13.459134979120222"><ele>601.0</ele><time>2026-04-27T15:12:24Z</time></trkpt><trkpt lat="42.3428064718995" lon="13.459251004489335"><ele>601.0</ele><time>2026-04-27T15:12:25Z</time></trkpt><trkpt lat="42.3428948525178" lon="13.459365844943674"><ele>601.0</ele><time>2026-04-27T15:12:26Z</time></trkpt><trkpt lat="42.34298822304544" lon="13.459487937716428"><ele>601.0</ele><time>2026-04-27T15:12:27Z</time></trkpt><trkpt lat="42.343079327543435" lon="13.459611112238454"><ele>601.0</ele><time>2026-04-27T15:12:28Z</time></trkpt><trkpt lat="42.343179905470784" lon="13.459750615082553"><ele>601.0</ele><time>2026-04-27T15:12:29Z</time></trkpt><trkpt lat="42.3432873388039" lon="13.459894285466966"><ele>602.6666666666667</ele><time>2026-04-27T15:12:30Z</time></trkpt><trkpt lat="42.3434000083686" lon="13.460036602006825"><ele>604.3333333333334</ele><time>2026-04-27T15:12:31Z</time></trkpt><trkpt lat="42.34350783563547" lon="13.460174909159342"><ele>606.0</ele><time>2026-04-27T15:12:32Z</time></trkpt><trkpt lat="42.343622742744635" lon="13.460324951305468"><ele>606.3333333333334</ele><time>2026-04-27T15:12:33Z</time></trkpt><trkpt lat="42.34373897633622" lon="13.460480870985206"><ele>606.6666666666667</ele><time>2026-04-27T15:12:34Z</time></trkpt><trkpt lat="42.34385547888222" lon="13.46063887357922"><ele>607.0</ele><time>2026-04-27T15:12:35Z</time></trkpt><trkpt lat="42.34397499809637" lon="13.46079416457694"><ele>608.0</ele><time>2026-04-27T15:12:36Z</time></trkpt><trkpt lat="42.344096406010266" lon="13.460943668321113"><ele>609.0</ele><time>2026-04-27T15:12:37Z</time></trkpt><trkpt lat="42.34421515226575" lon="13.461091372337982"><ele>610.0</ele><time>2026-04-27T15:12:37.999Z</time></trkpt><trkpt lat="42.34433541293676" lon="13.461235487446737"><ele>609.6666666666667</ele><time>2026-04-27T15:12:38.999Z</time></trkpt><trkpt lat="42.34445704717062" lon="13.461373737248595"><ele>609.3333333333334</ele><time>2026-04-27T15:12:39.999Z</time></trkpt><trkpt lat="42.34457150992503" lon="13.461509999088724"><ele>609.0</ele><time>2026-04-27T15:12:40.999Z</time></trkpt><trkpt lat="42.344682779546915" lon="13.46164221455805"><ele>609.75</ele><time>2026-04-27T15:12:41.999Z</time></trkpt><trkpt lat="42.344793343700765" lon="13.461771244125433"><ele>610.5</ele><time>2026-04-27T15:12:42.999Z</time></trkpt><trkpt lat="42.344898867933345" lon="13.46188653561913"><ele>611.25</ele><time>2026-04-27T15:12:43.999Z</time></trkpt><trkpt lat="42.345011363274985" lon="13.462004456342559"><ele>612.0</ele><time>2026-04-27T15:12:44.999Z</time></trkpt><trkpt lat="42.34513056854229" lon="13.4621188165275"><ele>612.0</ele><time>2026-04-27T15:12:45.999Z</time></trkpt><trkpt lat="42.345255807273304" lon="13.462227403832806"><ele>612.0</ele><time>2026-04-27T15:12:46.999Z</time></trkpt><trkpt lat="42.3453820706491" lon="13.462336964693492"><ele>612.0</ele><time>2026-04-27T15:12:47.999Z</time></trkpt><trkpt lat="42.345507229934384" lon="13.462445589340799"><ele>612.0</ele><time>2026-04-27T15:12:48.999Z</time></trkpt><trkpt lat="42.34563186018629" lon="13.462552262321339"><ele>612.75</ele><time>2026-04-27T15:12:49.999Z</time></trkpt><trkpt lat="42.34575658920766" lon="13.462659338151376"><ele>613.5</ele><time>2026-04-27T15:12:50.999Z</time></trkpt><trkpt lat="42.34588224796358" lon="13.462763923377597"><ele>614.25</ele><time>2026-04-27T15:12:51.999Z</time></trkpt><trkpt lat="42.346009385998975" lon="13.462866288547408"><ele>615.0</ele><time>2026-04-27T15:12:52.999Z</time></trkpt><trkpt lat="42.34613814715343" lon="13.462965535455076"><ele>615.25</ele><time>2026-04-27T15:12:53.999Z</time></trkpt><trkpt lat="42.34626585855762" lon="13.463064241713854"><ele>615.5</ele><time>2026-04-27T15:12:54.999Z</time></trkpt><trkpt lat="42.34639264896804" lon="13.463164146456325"><ele>615.75</ele><time>2026-04-27T15:12:55.999Z</time></trkpt><trkpt lat="42.34652003627525" lon="13.463263014885353"><ele>616.0</ele><time>2026-04-27T15:12:56.999Z</time></trkpt><trkpt lat="42.34664755329812" lon="13.463361305796646"><ele>616.75</ele><time>2026-04-27T15:12:57.999Z</time></trkpt><trkpt lat="42.346775095150974" lon="13.463459478404689"><ele>617.5</ele><time>2026-04-27T15:12:58.999Z</time></trkpt><trkpt lat="42.34690195183922" lon="13.463552723445469"><ele>618.25</ele><time>2026-04-27T15:12:59.999Z</time></trkpt><trkpt lat="42.34703214771055" lon="13.46364510633922"><ele>619.0</ele><time>2026-04-27T15:13:00.999Z</time></trkpt><trkpt lat="42.34716278939313" lon="13.4637374013545"><ele>619.75</ele><time>2026-04-27T15:13:01.999Z</time></trkpt><trkpt lat="42.34729659798288" lon="13.463831187565004"><ele>620.5</ele><time>2026-04-27T15:13:02.999Z</time></trkpt><trkpt lat="42.34742628488681" lon="13.463929648592893"><ele>621.25</ele><time>2026-04-27T15:13:03.999Z</time></trkpt><trkpt lat="42.34755031301372" lon="13.464036766611978"><ele>622.0</ele><time>2026-04-27T15:13:04.999Z</time></trkpt><trkpt lat="42.347667483076904" lon="13.464148271214192"><ele>622.0</ele><time>2026-04-27T15:13:05.999Z</time></trkpt><trkpt lat="42.34778158306496" lon="13.464259596923517"><ele>622.0</ele><time>2026-04-27T15:13:06.999Z</time></trkpt><trkpt lat="42.34789268771665" lon="13.464365499345359"><ele>622.0</ele><time>2026-04-27T15:13:07.999Z</time></trkpt><trkpt lat="42.34799970898483" lon="13.464468034997463"><ele>622.0</ele><time>2026-04-27T15:13:08.999Z</time></trkpt><trkpt lat="42.34810337363211" lon="13.464568162639562"><ele>622.2</ele><time>2026-04-27T15:13:09.999Z</time></trkpt><trkpt lat="42.34820468690309" lon="13.464667029523866"><ele>622.4000000000001</ele><time>2026-04-27T15:13:10.999Z</time></trkpt><trkpt lat="42.34829434829954" lon="13.4647560200369"><ele>622.5999999999999</ele><time>2026-04-27T15:13:11.999Z</time></trkpt><trkpt lat="42.348371780825346" lon="13.464835459381923"><ele>622.8</ele><time>2026-04-27T15:13:12.999Z</time></trkpt><trkpt lat="42.348452354924326" lon="13.464902688929882"><ele>623.0</ele><time>2026-04-27T15:13:13.999Z</time></trkpt><trkpt lat="42.34852761481969" lon="13.464965413194072"><ele>623.0</ele><time>2026-04-27T15:13:14.999Z</time></trkpt><trkpt lat="42.348605035216956" lon="13.465031736474705"><ele>623.0</ele><time>2026-04-27T15:13:15.999Z</time></trkpt><trkpt lat="42.34868784535313" lon="13.465096838873981"><ele>623.0</ele><time>2026-04-27T15:13:16.999Z</time></trkpt><trkpt lat="42.34877114002075" lon="13.46516826859993"><ele>623.0</ele><time>2026-04-27T15:13:17.999Z</time></trkpt><trkpt lat="42.348847911551225" lon="13.465229158241112"><ele>623.0</ele><time>2026-04-27T15:13:18.999Z</time></trkpt><trkpt lat="42.348907254424915" lon="13.465278600666926"><ele>623.0</ele><time>2026-04-27T15:13:19.999Z</time></trkpt><trkpt lat="42.3489634712554" lon="13.465360649470622"><ele>623.6666666666666</ele><time>2026-04-27T15:13:21.999Z</time></trkpt><trkpt lat="42.349166160822165" lon="13.465452505299126"><ele>624.3333333333334</ele><time>2026-04-27T15:13:51.998Z</time></trkpt><trkpt lat="42.34926366192002" lon="13.465531679148247"><ele>625.0</ele><time>2026-04-27T15:13:52.998Z</time></trkpt><trkpt lat="42.34937053533634" lon="13.465615198049072"><ele>625.0</ele><time>2026-04-27T15:13:53.998Z</time></trkpt><trkpt lat="42.34947586876517" lon="13.4656938935778"><ele>625.0</ele><time>2026-04-27T15:13:54.998Z</time></trkpt><trkpt lat="42.34954453116661" lon="13.465751914003182"><ele>625.0</ele><time>2026-04-27T15:13:55.998Z</time></trkpt><trkpt lat="42.349493921499516" lon="13.46587959508015"><ele>625.0</ele><time>2026-04-27T15:13:59Z</time></trkpt><trkpt lat="42.34942799126732" lon="13.465920627720724"><ele>625.0</ele><time>2026-04-27T15:14:00Z</time></trkpt><trkpt lat="42.34936549137693" lon="13.465986062811357"><ele>625.0</ele><time>2026-04-27T15:14:01Z</time></trkpt><trkpt lat="42.349307148516395" lon="13.466067356875865"><ele>625.0</ele><time>2026-04-27T15:14:02Z</time></trkpt><trkpt lat="42.349247642352836" lon="13.466146956338264"><ele>625.0</ele><time>2026-04-27T15:14:03Z</time></trkpt><trkpt lat="42.34920311096807" lon="13.466218680037661"><ele>625.0</ele><time>2026-04-27T15:14:04Z</time></trkpt><trkpt lat="42.34916904253025" lon="13.466378006341884"><ele>625.0</ele><time>2026-04-27T15:14:06Z</time></trkpt><trkpt lat="42.349162619809825" lon="13.466492715404174"><ele>625.0</ele><time>2026-04-27T15:14:07Z</time></trkpt><trkpt lat="42.34914955158665" lon="13.466627307926506"><ele>625.0</ele><time>2026-04-27T15:14:08Z</time></trkpt><trkpt lat="42.349126239623146" lon="13.466767376943768"><ele>625.0</ele><time>2026-04-27T15:14:09Z</time></trkpt><trkpt lat="42.349081503913915" lon="13.466874645943035"><ele>625.0</ele><time>2026-04-27T15:14:10Z</time></trkpt><trkpt lat="42.34899920776589" lon="13.466969680172042"><ele>625.0</ele><time>2026-04-27T15:14:11Z</time></trkpt><trkpt lat="42.34888758938757" lon="13.46702968270392"><ele>625.0</ele><time>2026-04-27T15:14:12Z</time></trkpt><trkpt lat="42.348820241657045" lon="13.467130313793126"><ele>624.75</ele><time>2026-04-27T15:14:13Z</time></trkpt><trkpt lat="42.34877722452585" lon="13.467272677164845"><ele>624.5</ele><time>2026-04-27T15:14:14Z</time></trkpt><trkpt lat="42.3487343639827" lon="13.467441000822165"><ele>624.25</ele><time>2026-04-27T15:14:15Z</time></trkpt><trkpt lat="42.34869023498398" lon="13.467616635246054"><ele>624.0</ele><time>2026-04-27T15:14:16Z</time></trkpt><trkpt lat="42.34864940122792" lon="13.46778721824951"><ele>624.0</ele><time>2026-04-27T15:14:17Z</time></trkpt><trkpt lat="42.34861811945812" lon="13.4679248951223"><ele>624.0</ele><time>2026-04-27T15:14:18Z</time></trkpt><trkpt lat="42.34859784692609" lon="13.46804641660793"><ele>624.0</ele><time>2026-04-27T15:14:19Z</time></trkpt><trkpt lat="42.3486019293857" lon="13.468143030136652"><ele>624.0</ele><time>2026-04-27T15:14:20Z</time></trkpt><trkpt lat="42.34859620780963" lon="13.468232760082154"><ele>624.0</ele><time>2026-04-27T15:14:22Z</time></trkpt><trkpt lat="42.34876303295025" lon="13.46835869271977"><ele>624.2</ele><time>2026-04-27T15:14:26Z</time></trkpt><trkpt lat="42.348850049844174" lon="13.468381952553152"><ele>624.4</ele><time>2026-04-27T15:14:27Z</time></trkpt><trkpt lat="42.348941617500586" lon="13.468411740157514"><ele>624.6</ele><time>2026-04-27T15:14:28Z</time></trkpt><trkpt lat="42.34904443593657" lon="13.468443401517753"><ele>624.8</ele><time>2026-04-27T15:14:29Z</time></trkpt><trkpt lat="42.34915462148474" lon="13.468465872407034"><ele>625.0</ele><time>2026-04-27T15:14:30Z</time></trkpt><trkpt lat="42.34925898286298" lon="13.46849203315881"><ele>625.6</ele><time>2026-04-27T15:14:31Z</time></trkpt><trkpt lat="42.34934832319753" lon="13.468504671977563"><ele>626.2</ele><time>2026-04-27T15:14:32Z</time></trkpt><trkpt lat="42.349446469436096" lon="13.468520022857964"><ele>626.8</ele><time>2026-04-27T15:14:33Z</time></trkpt><trkpt lat="42.3495593794894" lon="13.468530425069408"><ele>627.4</ele><time>2026-04-27T15:14:34Z</time></trkpt><trkpt lat="42.34966554444751" lon="13.468530248535634"><ele>628.0</ele><time>2026-04-27T15:14:35Z</time></trkpt><trkpt lat="42.34977773885003" lon="13.468520763362354"><ele>628.25</ele><time>2026-04-27T15:14:36Z</time></trkpt><trkpt lat="42.34989380994017" lon="13.468517019263176"><ele>628.5</ele><time>2026-04-27T15:14:37Z</time></trkpt><trkpt lat="42.350003789097016" lon="13.468542965342026"><ele>628.75</ele><time>2026-04-27T15:14:38Z</time></trkpt><trkpt lat="42.35011247416885" lon="13.468593466775548"><ele>629.0</ele><time>2026-04-27T15:14:39Z</time></trkpt><trkpt lat="42.35022541275989" lon="13.468672718813787"><ele>629.0</ele><time>2026-04-27T15:14:40Z</time></trkpt><trkpt lat="42.35033138606149" lon="13.46877021959981"><ele>629.0</ele><time>2026-04-27T15:14:40.999Z</time></trkpt><trkpt lat="42.350431322836116" lon="13.468866944838911"><ele>629.0</ele><time>2026-04-27T15:14:41.999Z</time></trkpt><trkpt lat="42.3505346820361" lon="13.468960814226495"><ele>629.0</ele><time>2026-04-27T15:14:42.999Z</time></trkpt><trkpt lat="42.35063714320711" lon="13.469030366598613"><ele>629.4</ele><time>2026-04-27T15:14:43.999Z</time></trkpt><trkpt lat="42.3507353492469" lon="13.469067750143758"><ele>629.8</ele><time>2026-04-27T15:14:44.999Z</time></trkpt><trkpt lat="42.35084483187759" lon="13.469078228552652"><ele>630.2</ele><time>2026-04-27T15:14:45.999Z</time></trkpt><trkpt lat="42.35095951929904" lon="13.46908042069028"><ele>630.6</ele><time>2026-04-27T15:14:46.999Z</time></trkpt><trkpt lat="42.351079428658196" lon="13.469067047204788"><ele>631.0</ele><time>2026-04-27T15:14:47.999Z</time></trkpt><trkpt lat="42.35119858073117" lon="13.46902119603478"><ele>631.0</ele><time>2026-04-27T15:14:48.999Z</time></trkpt><trkpt lat="42.35130854858978" lon="13.468952525210526"><ele>631.0</ele><time>2026-04-27T15:14:49.999Z</time></trkpt><trkpt lat="42.35139984850629" lon="13.46887175984309"><ele>631.0</ele><time>2026-04-27T15:14:50.999Z</time></trkpt><trkpt lat="42.351468241733905" lon="13.468795263660214"><ele>631.0</ele><time>2026-04-27T15:14:51.999Z</time></trkpt><trkpt lat="42.351546220728515" lon="13.468676481692235"><ele>631.0</ele><time>2026-04-27T15:14:53.999Z</time></trkpt><trkpt lat="42.35159943125358" lon="13.468600233090445"><ele>632.25</ele><time>2026-04-27T15:14:55.999Z</time></trkpt><trkpt lat="42.35172804993635" lon="13.468750373589058"><ele>633.5</ele><time>2026-04-27T15:14:56.999Z</time></trkpt><trkpt lat="42.35179671074199" lon="13.468836072227736"><ele>634.75</ele><time>2026-04-27T15:14:57.999Z</time></trkpt><trkpt lat="42.351874017288125" lon="13.468935688298162"><ele>636.0</ele><time>2026-04-27T15:14:58.999Z</time></trkpt><trkpt lat="42.351961436599765" lon="13.469021589015718"><ele>636.0</ele><time>2026-04-27T15:14:59.999Z</time></trkpt><trkpt lat="42.3520340268914" lon="13.469111315736173"><ele>636.0</ele><time>2026-04-27T15:15:00.999Z</time></trkpt><trkpt lat="42.352115841429125" lon="13.469218833150121"><ele>636.0</ele><time>2026-04-27T15:15:01.999Z</time></trkpt><trkpt lat="42.352204436027826" lon="13.469329325535185"><ele>636.0</ele><time>2026-04-27T15:15:02.999Z</time></trkpt><trkpt lat="42.352300470220996" lon="13.46943876489634"><ele>636.2</ele><time>2026-04-27T15:15:03.999Z</time></trkpt><trkpt lat="42.35239682992456" lon="13.469548352873915"><ele>636.4000000000001</ele><time>2026-04-27T15:15:04.999Z</time></trkpt><trkpt lat="42.352486169977176" lon="13.469646733280928"><ele>636.6</ele><time>2026-04-27T15:15:05.999Z</time></trkpt><trkpt lat="42.35256110015497" lon="13.469731219003972"><ele>636.8000000000001</ele><time>2026-04-27T15:15:06.999Z</time></trkpt><trkpt lat="42.35261399037943" lon="13.469791317580162"><ele>637.0</ele><time>2026-04-27T15:15:07.999Z</time></trkpt><trkpt lat="42.35270427881934" lon="13.469881682232932"><ele>637.4</ele><time>2026-04-27T15:15:09.999Z</time></trkpt><trkpt lat="42.35276196709368" lon="13.469963844676819"><ele>637.8000000000001</ele><time>2026-04-27T15:15:10.999Z</time></trkpt><trkpt lat="42.35283242683714" lon="13.470050803382035"><ele>638.2</ele><time>2026-04-27T15:15:11.999Z</time></trkpt><trkpt lat="42.35291152150684" lon="13.470151480399121"><ele>638.6</ele><time>2026-04-27T15:15:12.999Z</time></trkpt><trkpt lat="42.352991844387425" lon="13.470268648067666"><ele>639.0</ele><time>2026-04-27T15:15:13.999Z</time></trkpt><trkpt lat="42.35306597812904" lon="13.470389548614497"><ele>639.75</ele><time>2026-04-27T15:15:14.999Z</time></trkpt><trkpt lat="42.35314422763997" lon="13.470521711683109"><ele>640.5</ele><time>2026-04-27T15:15:15.999Z</time></trkpt><trkpt lat="42.35322713629648" lon="13.470667422823917"><ele>641.25</ele><time>2026-04-27T15:15:16.999Z</time></trkpt><trkpt lat="42.35328605309018" lon="13.470819997718147"><ele>642.0</ele><time>2026-04-27T15:15:17.999Z</time></trkpt><trkpt lat="42.353345648206584" lon="13.47095943033378"><ele>642.0</ele><time>2026-04-27T15:15:18.999Z</time></trkpt><trkpt lat="42.35341631390354" lon="13.471084166637599"><ele>642.0</ele><time>2026-04-27T15:15:19.999Z</time></trkpt><trkpt lat="42.35347750335627" lon="13.471216926559482"><ele>642.0</ele><time>2026-04-27T15:15:20.999Z</time></trkpt><trkpt lat="42.353547114467084" lon="13.471324130891555"><ele>642.0</ele><time>2026-04-27T15:15:21.999Z</time></trkpt><trkpt lat="42.353615927419504" lon="13.471397611980494"><ele>642.0</ele><time>2026-04-27T15:15:22.999Z</time></trkpt><trkpt lat="42.3536682700221" lon="13.471460922103628"><ele>642.0</ele><time>2026-04-27T15:15:23.999Z</time></trkpt><trkpt lat="42.353703567413554" lon="13.471553679850052"><ele>642.0</ele><time>2026-04-27T15:15:25.999Z</time></trkpt><trkpt lat="42.353804181456916" lon="13.471580061678248"><ele>642.0</ele><time>2026-04-27T15:15:27.999Z</time></trkpt><trkpt lat="42.35391707623793" lon="13.471558302606688"><ele>642.0</ele><time>2026-04-27T15:15:29.999Z</time></trkpt><trkpt lat="42.35400028558313" lon="13.471544741706696"><ele>642.0</ele><time>2026-04-27T15:15:30.999Z</time></trkpt><trkpt lat="42.35408103964637" lon="13.471523679436535"><ele>642.4000000000001</ele><time>2026-04-27T15:15:31.999Z</time></trkpt><trkpt lat="42.35418162436855" lon="13.471492742412835"><ele>642.8000000000001</ele><time>2026-04-27T15:15:32.999Z</time></trkpt><trkpt lat="42.35428477066572" lon="13.471461277206716"><ele>643.2</ele><time>2026-04-27T15:15:33.999Z</time></trkpt><trkpt lat="42.35438294236115" lon="13.471436431436324"><ele>643.6</ele><time>2026-04-27T15:15:34.999Z</time></trkpt><trkpt lat="42.35446450171035" lon="13.471432755534735"><ele>644.0</ele><time>2026-04-27T15:15:35.999Z</time></trkpt><trkpt lat="42.35453978140487" lon="13.471435913448232"><ele>644.0</ele><time>2026-04-27T15:15:36.999Z</time></trkpt><trkpt lat="42.35462834645092" lon="13.471546730983915"><ele>644.0</ele><time>2026-04-27T15:15:37.999Z</time></trkpt><trkpt lat="42.35470203130221" lon="13.471651435291262"><ele>644.0</ele><time>2026-04-27T15:15:38.999Z</time></trkpt><trkpt lat="42.35478793171846" lon="13.47176309903059"><ele>644.0</ele><time>2026-04-27T15:15:39.999Z</time></trkpt><trkpt lat="42.35488726894525" lon="13.471872327371868"><ele>644.75</ele><time>2026-04-27T15:15:40.999Z</time></trkpt><trkpt lat="42.35498486895565" lon="13.471977791068303"><ele>645.5</ele><time>2026-04-27T15:15:41.999Z</time></trkpt><trkpt lat="42.355071885322936" lon="13.472109157955193"><ele>646.25</ele><time>2026-04-27T15:15:42.999Z</time></trkpt><trkpt lat="42.35517318882996" lon="13.472234630489526"><ele>647.0</ele><time>2026-04-27T15:15:43.999Z</time></trkpt><trkpt lat="42.355276368884" lon="13.47236242726714"><ele>647.0</ele><time>2026-04-27T15:15:44.999Z</time></trkpt><trkpt lat="42.355382865244955" lon="13.472488765308444"><ele>647.0</ele><time>2026-04-27T15:15:45.999Z</time></trkpt><trkpt lat="42.355486877329426" lon="13.472624322468574"><ele>647.0</ele><time>2026-04-27T15:15:46.999Z</time></trkpt><trkpt lat="42.35559439040191" lon="13.472753205660235"><ele>647.0</ele><time>2026-04-27T15:15:47.999Z</time></trkpt><trkpt lat="42.35569997359842" lon="13.472879305434706"><ele>647.75</ele><time>2026-04-27T15:15:48.999Z</time></trkpt><trkpt lat="42.355808699709854" lon="13.472997412842648"><ele>648.5</ele><time>2026-04-27T15:15:49.999Z</time></trkpt><trkpt lat="42.35591881946046" lon="13.473104007269523"><ele>649.25</ele><time>2026-04-27T15:15:50.998Z</time></trkpt><trkpt lat="42.35603161598687" lon="13.473208354501596"><ele>650.0</ele><time>2026-04-27T15:15:51.998Z</time></trkpt><trkpt lat="42.35613059464419" lon="13.473306155031839"><ele>650.0</ele><time>2026-04-27T15:15:52.998Z</time></trkpt><trkpt lat="42.35621844980888" lon="13.473395691546875"><ele>650.0</ele><time>2026-04-27T15:15:53.998Z</time></trkpt><trkpt lat="42.35629167570162" lon="13.473472334583231"><ele>650.0</ele><time>2026-04-27T15:15:54.998Z</time></trkpt><trkpt lat="42.35636577259076" lon="13.473523849556647"><ele>650.0</ele><time>2026-04-27T15:15:55.998Z</time></trkpt><trkpt lat="42.35646309035919" lon="13.473555335194275"><ele>650.0</ele><time>2026-04-27T15:15:56.998Z</time></trkpt><trkpt lat="42.356552955243046" lon="13.47358381357562"><ele>650.5</ele><time>2026-04-27T15:15:57.998Z</time></trkpt><trkpt lat="42.35658269244607" lon="13.473659879787956"><ele>651.0</ele><time>2026-04-27T15:15:58.998Z</time></trkpt><trkpt lat="42.356620506113615" lon="13.473737640781357"><ele>651.5</ele><time>2026-04-27T15:16:00.998Z</time></trkpt><trkpt lat="42.35667704744573" lon="13.473877867992979"><ele>652.0</ele><time>2026-04-27T15:16:03Z</time></trkpt><trkpt lat="42.35670169932812" lon="13.47399008430021"><ele>652.5</ele><time>2026-04-27T15:16:04Z</time></trkpt><trkpt lat="42.3567418949365" lon="13.474110064368686"><ele>653.0</ele><time>2026-04-27T15:16:05Z</time></trkpt><trkpt lat="42.35678299405327" lon="13.474242179211027"><ele>653.5999999999999</ele><time>2026-04-27T15:16:06Z</time></trkpt><trkpt lat="42.356824199279" lon="13.474375413423703"><ele>654.1999999999999</ele><time>2026-04-27T15:16:07Z</time></trkpt><trkpt lat="42.356870866839046" lon="13.474512287649999"><ele>654.8</ele><time>2026-04-27T15:16:08Z</time></trkpt><trkpt lat="42.3569372713938" lon="13.474638895340425"><ele>655.4</ele><time>2026-04-27T15:16:09Z</time></trkpt><trkpt lat="42.35699011196414" lon="13.47477397542146"><ele>656.0</ele><time>2026-04-27T15:16:10Z</time></trkpt><trkpt lat="42.35704928142988" lon="13.474905853723332"><ele>657.8</ele><time>2026-04-27T15:16:11Z</time></trkpt><trkpt lat="42.35710455138639" lon="13.475039920536734"><ele>659.5999999999999</ele><time>2026-04-27T15:16:12Z</time></trkpt><trkpt lat="42.3571000248576" lon="13.475188283367675"><ele>661.4</ele><time>2026-04-27T15:16:13Z</time></trkpt><trkpt lat="42.35712216861463" lon="13.475305456582586"><ele>663.2</ele><time>2026-04-27T15:16:14Z</time></trkpt><trkpt lat="42.357146138110174" lon="13.475427574056551"><ele>665.0</ele><time>2026-04-27T15:16:15Z</time></trkpt><trkpt lat="42.35717265653129" lon="13.475554611951889"><ele>667.2</ele><time>2026-04-27T15:16:16Z</time></trkpt><trkpt lat="42.35720497395462" lon="13.475686375944761"><ele>669.4</ele><time>2026-04-27T15:16:17Z</time></trkpt><trkpt lat="42.35723172255117" lon="13.47581987013137"><ele>671.5999999999999</ele><time>2026-04-27T15:16:18Z</time></trkpt><trkpt lat="42.35724443373705" lon="13.47595024651434"><ele>673.8</ele><time>2026-04-27T15:16:19Z</time></trkpt><trkpt lat="42.35724574711338" lon="13.476076029668421"><ele>676.0</ele><time>2026-04-27T15:16:20Z</time></trkpt><trkpt lat="42.35722783610481" lon="13.476219466164464"><ele>677.75</ele><time>2026-04-27T15:16:21Z</time></trkpt><trkpt lat="42.35722176426097" lon="13.476391513228425"><ele>679.5</ele><time>2026-04-27T15:16:22Z</time></trkpt><trkpt lat="42.357230661853805" lon="13.476570902227182"><ele>681.25</ele><time>2026-04-27T15:16:23Z</time></trkpt><trkpt lat="42.35724250094496" lon="13.476755919461455"><ele>683.0</ele><time>2026-04-27T15:16:24Z</time></trkpt><trkpt lat="42.35726058353404" lon="13.476968041905064"><ele>684.5</ele><time>2026-04-27T15:16:25Z</time></trkpt><trkpt lat="42.35728087637722" lon="13.477163969612741"><ele>686.0</ele><time>2026-04-27T15:16:26Z</time></trkpt><trkpt lat="42.357306055340786" lon="13.477320122171808"><ele>687.5</ele><time>2026-04-27T15:16:27Z</time></trkpt><trkpt lat="42.35736458169892" lon="13.477477780361504"><ele>689.0</ele><time>2026-04-27T15:16:28Z</time></trkpt><trkpt lat="42.35732660736028" lon="13.477663978003218"><ele>689.0</ele><time>2026-04-27T15:16:29Z</time></trkpt><trkpt lat="42.35734906563641" lon="13.47784489063623"><ele>689.0</ele><time>2026-04-27T15:16:30Z</time></trkpt><trkpt lat="42.35737694217262" lon="13.478024595308721"><ele>689.0</ele><time>2026-04-27T15:16:31Z</time></trkpt><trkpt lat="42.35741537599697" lon="13.478194053765053"><ele>689.0</ele><time>2026-04-27T15:16:32Z</time></trkpt><trkpt lat="42.35745780277112" lon="13.47834737581056"><ele>691.0</ele><time>2026-04-27T15:16:33Z</time></trkpt><trkpt lat="42.35750118075575" lon="13.478485689931654"><ele>693.0</ele><time>2026-04-27T15:16:34Z</time></trkpt><trkpt lat="42.35754554872569" lon="13.478627160496158"><ele>695.0</ele><time>2026-04-27T15:16:35Z</time></trkpt><trkpt lat="42.357560485674924" lon="13.478779821695442"><ele>697.0</ele><time>2026-04-27T15:16:36Z</time></trkpt><trkpt lat="42.35757828874098" lon="13.478947830632032"><ele>699.25</ele><time>2026-04-27T15:16:37Z</time></trkpt><trkpt lat="42.35759901510606" lon="13.479131705095785"><ele>701.5</ele><time>2026-04-27T15:16:38Z</time></trkpt><trkpt lat="42.35762240757774" lon="13.479317401217253"><ele>703.75</ele><time>2026-04-27T15:16:39Z</time></trkpt><trkpt lat="42.357646196105264" lon="13.479506241375704"><ele>706.0</ele><time>2026-04-27T15:16:40Z</time></trkpt><trkpt lat="42.35767064953229" lon="13.479699024802237"><ele>708.25</ele><time>2026-04-27T15:16:41Z</time></trkpt><trkpt lat="42.35769735127694" lon="13.479894128824656"><ele>710.5</ele><time>2026-04-27T15:16:42Z</time></trkpt><trkpt lat="42.35772724509867" lon="13.480080046598294"><ele>712.75</ele><time>2026-04-27T15:16:42.999Z</time></trkpt><trkpt lat="42.35773434723806" lon="13.480235509513193"><ele>715.0</ele><time>2026-04-27T15:16:43.999Z</time></trkpt><trkpt lat="42.35771512245719" lon="13.480398481419446"><ele>717.0</ele><time>2026-04-27T15:16:44.999Z</time></trkpt><trkpt lat="42.35767015409719" lon="13.480562736651157"><ele>719.0</ele><time>2026-04-27T15:16:45.999Z</time></trkpt><trkpt lat="42.357651570940824" lon="13.480722104185784"><ele>721.0</ele><time>2026-04-27T15:16:46.999Z</time></trkpt><trkpt lat="42.35767586234436" lon="13.48088280329663"><ele>723.0</ele><time>2026-04-27T15:16:47.999Z</time></trkpt><trkpt lat="42.35770250982354" lon="13.481002907003413"><ele>723.0</ele><time>2026-04-27T15:16:48.999Z</time></trkpt><trkpt lat="42.35775103173426" lon="13.481128008121383"><ele>723.0</ele><time>2026-04-27T15:16:50.999Z</time></trkpt><trkpt lat="42.35777852178689" lon="13.48122603718837"><ele>723.0</ele><time>2026-04-27T15:16:51.999Z</time></trkpt><trkpt lat="42.357736878878775" lon="13.481374716851679"><ele>723.0</ele><time>2026-04-27T15:16:52.999Z</time></trkpt><trkpt lat="42.357721737004915" lon="13.481515382968952"><ele>723.0</ele><time>2026-04-27T15:16:53.999Z</time></trkpt><trkpt lat="42.35770573081192" lon="13.481664285287914"><ele>725.5</ele><time>2026-04-27T15:16:54.999Z</time></trkpt><trkpt lat="42.35767936714945" lon="13.481823489841398"><ele>728.0</ele><time>2026-04-27T15:16:55.999Z</time></trkpt><trkpt lat="42.35763768803036" lon="13.481988180742142"><ele>730.5</ele><time>2026-04-27T15:16:56.999Z</time></trkpt><trkpt lat="42.35759848459536" lon="13.482158135724548"><ele>733.0</ele><time>2026-04-27T15:16:57.999Z</time></trkpt><trkpt lat="42.35756291635568" lon="13.48233215378174"><ele>735.5</ele><time>2026-04-27T15:16:58.999Z</time></trkpt><trkpt lat="42.35754796895816" lon="13.482502525787732"><ele>738.0</ele><time>2026-04-27T15:16:59.999Z</time></trkpt><trkpt lat="42.357556062666966" lon="13.48267906332687"><ele>740.5</ele><time>2026-04-27T15:17:00.999Z</time></trkpt><trkpt lat="42.35757802363972" lon="13.482847941533796"><ele>743.0</ele><time>2026-04-27T15:17:01.999Z</time></trkpt><trkpt lat="42.35760180377056" lon="13.483030432167272"><ele>744.75</ele><time>2026-04-27T15:17:02.999Z</time></trkpt><trkpt lat="42.35761400583674" lon="13.483216759716662"><ele>746.5</ele><time>2026-04-27T15:17:03.999Z</time></trkpt><trkpt lat="42.357626216067175" lon="13.483407709360078"><ele>748.25</ele><time>2026-04-27T15:17:04.999Z</time></trkpt><trkpt lat="42.35764178670498" lon="13.483577315115085"><ele>750.0</ele><time>2026-04-27T15:17:05.999Z</time></trkpt><trkpt lat="42.3576570326891" lon="13.483728562288134"><ele>751.0</ele><time>2026-04-27T15:17:06.999Z</time></trkpt><trkpt lat="42.35767649703494" lon="13.483874011108247"><ele>752.0</ele><time>2026-04-27T15:17:07.999Z</time></trkpt><trkpt lat="42.35770904414757" lon="13.484038200868737"><ele>753.0</ele><time>2026-04-27T15:17:08.999Z</time></trkpt><trkpt lat="42.35774004525824" lon="13.484206617732408"><ele>754.0</ele><time>2026-04-27T15:17:09.999Z</time></trkpt><trkpt lat="42.3577644018673" lon="13.484394275173244"><ele>754.0</ele><time>2026-04-27T15:17:10.999Z</time></trkpt><trkpt lat="42.35777336628576" lon="13.484585467572677"><ele>754.0</ele><time>2026-04-27T15:17:11.999Z</time></trkpt><trkpt lat="42.357768068753856" lon="13.484772144143017"><ele>754.0</ele><time>2026-04-27T15:17:12.999Z</time></trkpt><trkpt lat="42.35774901521846" lon="13.484960189008742"><ele>754.0</ele><time>2026-04-27T15:17:13.999Z</time></trkpt><trkpt lat="42.357728757672646" lon="13.485143985623692"><ele>754.75</ele><time>2026-04-27T15:17:14.999Z</time></trkpt><trkpt lat="42.35771964970664" lon="13.48533192042474"><ele>755.5</ele><time>2026-04-27T15:17:15.999Z</time></trkpt><trkpt lat="42.3577103846122" lon="13.485505466890935"><ele>756.25</ele><time>2026-04-27T15:17:16.999Z</time></trkpt><trkpt lat="42.357700273544104" lon="13.485654174654055"><ele>757.0</ele><time>2026-04-27T15:17:17.999Z</time></trkpt><trkpt lat="42.357694511725256" lon="13.48578680022359"><ele>757.0</ele><time>2026-04-27T15:17:18.999Z</time></trkpt><trkpt lat="42.35769612161621" lon="13.485898984510442"><ele>757.0</ele><time>2026-04-27T15:17:19.999Z</time></trkpt><trkpt lat="42.35772854828937" lon="13.486021477584435"><ele>757.0</ele><time>2026-04-27T15:17:20.999Z</time></trkpt><trkpt lat="42.357781999178435" lon="13.4861778707934"><ele>757.0</ele><time>2026-04-27T15:17:21.999Z</time></trkpt><trkpt lat="42.357833285235664" lon="13.486319042479982"><ele>757.0</ele><time>2026-04-27T15:17:22.999Z</time></trkpt><trkpt lat="42.35789807959319" lon="13.486466428486517"><ele>755.75</ele><time>2026-04-27T15:17:23.999Z</time></trkpt><trkpt lat="42.35797980040374" lon="13.486604149477698"><ele>754.5</ele><time>2026-04-27T15:17:24.999Z</time></trkpt><trkpt lat="42.35807896453395" lon="13.486721533833958"><ele>753.25</ele><time>2026-04-27T15:17:25.999Z</time></trkpt><trkpt lat="42.35818464376785" lon="13.486852665568946"><ele>752.0</ele><time>2026-04-27T15:17:26.999Z</time></trkpt><trkpt lat="42.358293627289555" lon="13.486982737130099"><ele>754.75</ele><time>2026-04-27T15:17:27.999Z</time></trkpt><trkpt lat="42.35839493667062" lon="13.48712538584209"><ele>757.5</ele><time>2026-04-27T15:17:28.999Z</time></trkpt><trkpt lat="42.35850270238265" lon="13.487258445408363"><ele>760.25</ele><time>2026-04-27T15:17:29.999Z</time></trkpt><trkpt lat="42.35860968413084" lon="13.487382941474793"><ele>763.0</ele><time>2026-04-27T15:17:30.999Z</time></trkpt><trkpt lat="42.35869723755228" lon="13.487496662087166"><ele>763.0</ele><time>2026-04-27T15:17:31.999Z</time></trkpt><trkpt lat="42.35876196899712" lon="13.487623738547192"><ele>763.0</ele><time>2026-04-27T15:17:32.999Z</time></trkpt><trkpt lat="42.3588249965981" lon="13.487775410708364"><ele>763.0</ele><time>2026-04-27T15:17:33.999Z</time></trkpt><trkpt lat="42.358902611746295" lon="13.487926249262749"><ele>763.0</ele><time>2026-04-27T15:17:34.999Z</time></trkpt><trkpt lat="42.3589734225227" lon="13.488049645620034"><ele>766.4</ele><time>2026-04-27T15:17:35.999Z</time></trkpt><trkpt lat="42.35903091924977" lon="13.488125615376386"><ele>769.8</ele><time>2026-04-27T15:17:36.999Z</time></trkpt><trkpt lat="42.35910503462601" lon="13.488205188687179"><ele>773.2</ele><time>2026-04-27T15:17:37.999Z</time></trkpt><trkpt lat="42.359180848176464" lon="13.488304694201101"><ele>776.6</ele><time>2026-04-27T15:17:38.999Z</time></trkpt><trkpt lat="42.35925542901993" lon="13.488406626825189"><ele>780.0</ele><time>2026-04-27T15:17:39.999Z</time></trkpt><trkpt lat="42.35933268064539" lon="13.48850770035685"><ele>780.0</ele><time>2026-04-27T15:17:40.999Z</time></trkpt><trkpt lat="42.3594057419113" lon="13.488608313183247"><ele>780.0</ele><time>2026-04-27T15:17:41.999Z</time></trkpt><trkpt lat="42.359474836098464" lon="13.488728404700213"><ele>780.0</ele><time>2026-04-27T15:17:42.999Z</time></trkpt><trkpt lat="42.35953587087346" lon="13.488856154162455"><ele>780.0</ele><time>2026-04-27T15:17:43.999Z</time></trkpt><trkpt lat="42.35960048534215" lon="13.489000820217333"><ele>781.4</ele><time>2026-04-27T15:17:44.999Z</time></trkpt><trkpt lat="42.35966173422872" lon="13.489120123488874"><ele>782.8</ele><time>2026-04-27T15:17:45.999Z</time></trkpt><trkpt lat="42.35973452626214" lon="13.48921353426985"><ele>784.2</ele><time>2026-04-27T15:17:46.999Z</time></trkpt><trkpt lat="42.359807205305565" lon="13.48930586255323"><ele>785.6</ele><time>2026-04-27T15:17:47.999Z</time></trkpt><trkpt lat="42.35990532537995" lon="13.489401795808194"><ele>787.0</ele><time>2026-04-27T15:17:48.999Z</time></trkpt><trkpt lat="42.360030723427215" lon="13.489449226673084"><ele>788.25</ele><time>2026-04-27T15:17:49.999Z</time></trkpt><trkpt lat="42.360144342920336" lon="13.489513241542085"><ele>789.5</ele><time>2026-04-27T15:17:50.999Z</time></trkpt><trkpt lat="42.360232032373425" lon="13.489575714397326"><ele>790.75</ele><time>2026-04-27T15:17:51.998Z</time></trkpt><trkpt lat="42.36030751158574" lon="13.489667675547903"><ele>792.0</ele><time>2026-04-27T15:17:52.998Z</time></trkpt><trkpt lat="42.360421427952595" lon="13.489778697536678"><ele>794.0</ele><time>2026-04-27T15:17:53.998Z</time></trkpt><trkpt lat="42.360534763205735" lon="13.4898630857511"><ele>796.0</ele><time>2026-04-27T15:17:54.998Z</time></trkpt><trkpt lat="42.36065371168678" lon="13.489950828113958"><ele>798.0</ele><time>2026-04-27T15:17:55.998Z</time></trkpt><trkpt lat="42.360766864032016" lon="13.490033740745137"><ele>800.0</ele><time>2026-04-27T15:17:56.998Z</time></trkpt><trkpt lat="42.36086519707764" lon="13.490114256894554"><ele>800.0</ele><time>2026-04-27T15:17:57.998Z</time></trkpt><trkpt lat="42.36096639905992" lon="13.49021174781549"><ele>800.0</ele><time>2026-04-27T15:17:58.998Z</time></trkpt><trkpt lat="42.36103614709776" lon="13.49025247545158"><ele>800.0</ele><time>2026-04-27T15:17:59.998Z</time></trkpt><trkpt lat="42.36115050817629" lon="13.490311102660712"><ele>800.0</ele><time>2026-04-27T15:18:00.998Z</time></trkpt><trkpt lat="42.36126003044651" lon="13.49038783628743"><ele>800.0</ele><time>2026-04-27T15:18:01.998Z</time></trkpt><trkpt lat="42.361370569396094" lon="13.490483349840515"><ele>803.0</ele><time>2026-04-27T15:18:02.998Z</time></trkpt><trkpt lat="42.36146502915068" lon="13.490560439292848"><ele>806.0</ele><time>2026-04-27T15:18:03.998Z</time></trkpt><trkpt lat="42.36156043364496" lon="13.490687039649494"><ele>809.0</ele><time>2026-04-27T15:18:04.998Z</time></trkpt><trkpt lat="42.361671344989055" lon="13.490773848856243"><ele>812.0</ele><time>2026-04-27T15:18:05.998Z</time></trkpt><trkpt lat="42.36177975501232" lon="13.490852115270245"><ele>812.0</ele><time>2026-04-27T15:18:06.998Z</time></trkpt><trkpt lat="42.36186472652394" lon="13.490915255231888"><ele>812.0</ele><time>2026-04-27T15:18:07.998Z</time></trkpt><trkpt lat="42.36195375570779" lon="13.490975305031174"><ele>812.0</ele><time>2026-04-27T15:18:09Z</time></trkpt><trkpt lat="42.36204530768585" lon="13.491054660690613"><ele>812.0</ele><time>2026-04-27T15:18:10Z</time></trkpt><trkpt lat="42.36211183617181" lon="13.491180962664599"><ele>812.0</ele><time>2026-04-27T15:18:11Z</time></trkpt><trkpt lat="42.36218506844271" lon="13.4912885103431"><ele>813.75</ele><time>2026-04-27T15:18:12Z</time></trkpt><trkpt lat="42.36226250044682" lon="13.491406917561507"><ele>815.5</ele><time>2026-04-27T15:18:13Z</time></trkpt><trkpt lat="42.36236127149338" lon="13.49153083312661"><ele>817.25</ele><time>2026-04-27T15:18:14Z</time></trkpt><trkpt lat="42.362458871470324" lon="13.491655543048447"><ele>819.0</ele><time>2026-04-27T15:18:15Z</time></trkpt><trkpt lat="42.362547402028255" lon="13.491763072498983"><ele>819.0</ele><time>2026-04-27T15:18:16Z</time></trkpt><trkpt lat="42.36260983975761" lon="13.4918885909777"><ele>819.0</ele><time>2026-04-27T15:18:17Z</time></trkpt><trkpt lat="42.36266222998596" lon="13.492022601963408"><ele>819.0</ele><time>2026-04-27T15:18:18Z</time></trkpt><trkpt lat="42.3627130664902" lon="13.492191580182926"><ele>819.0</ele><time>2026-04-27T15:18:19Z</time></trkpt><trkpt lat="42.362765226606065" lon="13.49236159825703"><ele>821.25</ele><time>2026-04-27T15:18:20Z</time></trkpt><trkpt lat="42.36279679901422" lon="13.49254239725745"><ele>823.5</ele><time>2026-04-27T15:18:21Z</time></trkpt><trkpt lat="42.3628389209196" lon="13.492706263225411"><ele>825.75</ele><time>2026-04-27T15:18:22Z</time></trkpt><trkpt lat="42.362879538536845" lon="13.49284855064064"><ele>828.0</ele><time>2026-04-27T15:18:23Z</time></trkpt><trkpt lat="42.3629066758685" lon="13.49296051161993"><ele>831.2</ele><time>2026-04-27T15:18:24Z</time></trkpt><trkpt lat="42.36290796487564" lon="13.493072292301287"><ele>834.4</ele><time>2026-04-27T15:18:25Z</time></trkpt><trkpt lat="42.362892211324315" lon="13.493186246767282"><ele>837.6</ele><time>2026-04-27T15:18:26Z</time></trkpt><trkpt lat="42.36288225755411" lon="13.493306194439585"><ele>840.8000000000001</ele><time>2026-04-27T15:18:27Z</time></trkpt><trkpt lat="42.362885987546335" lon="13.493442942722188"><ele>844.0</ele><time>2026-04-27T15:18:28Z</time></trkpt><trkpt lat="42.36293864913668" lon="13.493576662585753"><ele>844.0</ele><time>2026-04-27T15:18:29Z</time></trkpt><trkpt lat="42.363013218374036" lon="13.493680545968084"><ele>844.0</ele><time>2026-04-27T15:18:30Z</time></trkpt><trkpt lat="42.36305576949594" lon="13.493753512460435"><ele>844.0</ele><time>2026-04-27T15:18:31Z</time></trkpt><trkpt lat="42.3630458706221" lon="13.493962976313009"><ele>844.0</ele><time>2026-04-27T15:18:33Z</time></trkpt><trkpt lat="42.36304554502231" lon="13.494118422921261"><ele>844.0</ele><time>2026-04-27T15:18:34Z</time></trkpt><trkpt lat="42.36306126003992" lon="13.494269842164382"><ele>844.2</ele><time>2026-04-27T15:18:35Z</time></trkpt><trkpt lat="42.363065702898105" lon="13.494414803458534"><ele>844.4000000000001</ele><time>2026-04-27T15:18:36Z</time></trkpt><trkpt lat="42.363071332375874" lon="13.494556348287269"><ele>844.6</ele><time>2026-04-27T15:18:37Z</time></trkpt><trkpt lat="42.36306782482161" lon="13.494676639411148"><ele>844.8</ele><time>2026-04-27T15:18:38Z</time></trkpt><trkpt lat="42.363042842867685" lon="13.494809804528854"><ele>845.0</ele><time>2026-04-27T15:18:39Z</time></trkpt><trkpt lat="42.36302011903797" lon="13.494955239948357"><ele>849.5</ele><time>2026-04-27T15:18:40Z</time></trkpt><trkpt lat="42.36300697263907" lon="13.495111969254882"><ele>854.0</ele><time>2026-04-27T15:18:41Z</time></trkpt><trkpt lat="42.362990981583245" lon="13.495284756058007"><ele>858.5</ele><time>2026-04-27T15:18:42Z</time></trkpt><trkpt lat="42.36297855907668" lon="13.495452466848631"><ele>863.0</ele><time>2026-04-27T15:18:43Z</time></trkpt><trkpt lat="42.36297087056509" lon="13.495631485030481"><ele>863.5</ele><time>2026-04-27T15:18:43.999Z</time></trkpt><trkpt lat="42.362964289416524" lon="13.49581394531692"><ele>864.0</ele><time>2026-04-27T15:18:44.999Z</time></trkpt><trkpt lat="42.36295481741661" lon="13.49600062111785"><ele>864.5</ele><time>2026-04-27T15:18:45.999Z</time></trkpt><trkpt lat="42.362938182056574" lon="13.496198237006588"><ele>865.0</ele><time>2026-04-27T15:18:46.999Z</time></trkpt><trkpt lat="42.36291838865399" lon="13.496387864432398"><ele>866.5</ele><time>2026-04-27T15:18:47.999Z</time></trkpt><trkpt lat="42.362891386967306" lon="13.496554119471206"><ele>868.0</ele><time>2026-04-27T15:18:48.999Z</time></trkpt><trkpt lat="42.36289211631558" lon="13.49669619170695"><ele>869.5</ele><time>2026-04-27T15:18:49.999Z</time></trkpt><trkpt lat="42.362918699345215" lon="13.496844235460898"><ele>871.0</ele><time>2026-04-27T15:18:50.999Z</time></trkpt><trkpt lat="42.36295241549929" lon="13.497003402885552"><ele>871.8</ele><time>2026-04-27T15:18:51.999Z</time></trkpt><trkpt lat="42.362982147755396" lon="13.49714009589239"><ele>872.5999999999999</ele><time>2026-04-27T15:18:52.999Z</time></trkpt><trkpt lat="42.36296929284397" lon="13.497261670312605"><ele>873.4</ele><time>2026-04-27T15:18:53.999Z</time></trkpt><trkpt lat="42.36293463197592" lon="13.497401010969961"><ele>874.2</ele><time>2026-04-27T15:18:54.999Z</time></trkpt><trkpt lat="42.36292425359325" lon="13.497546673150135"><ele>875.0</ele><time>2026-04-27T15:18:55.999Z</time></trkpt><trkpt lat="42.362947634916715" lon="13.497677308028726"><ele>875.0</ele><time>2026-04-27T15:18:56.999Z</time></trkpt><trkpt lat="42.362992835138115" lon="13.497790639792608"><ele>875.0</ele><time>2026-04-27T15:18:57.999Z</time></trkpt><trkpt lat="42.36305557452821" lon="13.497913475258539"><ele>875.0</ele><time>2026-04-27T15:18:58.999Z</time></trkpt><trkpt lat="42.363124808534394" lon="13.498012478541574"><ele>875.0</ele><time>2026-04-27T15:18:59.999Z</time></trkpt><trkpt lat="42.363182492499924" lon="13.498093020012188"><ele>875.0</ele><time>2026-04-27T15:19:00.999Z</time></trkpt><trkpt lat="42.36325218957144" lon="13.498158358775767"><ele>878.6</ele><time>2026-04-27T15:19:01.999Z</time></trkpt><trkpt lat="42.36333804143497" lon="13.498239020737822"><ele>882.2</ele><time>2026-04-27T15:19:02.999Z</time></trkpt><trkpt lat="42.36341779170171" lon="13.49830535106969"><ele>885.8</ele><time>2026-04-27T15:19:03.999Z</time></trkpt><trkpt lat="42.3635081668308" lon="13.498379321873413"><ele>889.4</ele><time>2026-04-27T15:19:04.999Z</time></trkpt><trkpt lat="42.36360043667989" lon="13.498460832537374"><ele>893.0</ele><time>2026-04-27T15:19:05.999Z</time></trkpt><trkpt lat="42.36366308606957" lon="13.498540460764023"><ele>893.0000000000001</ele><time>2026-04-27T15:19:06.999Z</time></trkpt><trkpt lat="42.36368755815813" lon="13.49863529934535"><ele>893.0</ele><time>2026-04-27T15:19:07.999Z</time></trkpt><trkpt lat="42.36369775673332" lon="13.498743255212647"><ele>893.0</ele><time>2026-04-27T15:19:08.999Z</time></trkpt><trkpt lat="42.363739978538476" lon="13.498852880673915"><ele>893.0</ele><time>2026-04-27T15:19:09.999Z</time></trkpt><trkpt lat="42.36377959208604" lon="13.498964938866528"><ele>893.0000000000001</ele><time>2026-04-27T15:19:10.999Z</time></trkpt><trkpt lat="42.363818748438206" lon="13.499037523413003"><ele>893.0</ele><time>2026-04-27T15:19:11.999Z</time></trkpt><trkpt lat="42.36393983928706" lon="13.499130713888393"><ele>895.5999999999999</ele><time>2026-04-27T15:19:13.999Z</time></trkpt><trkpt lat="42.36400505268023" lon="13.499287280110469"><ele>898.1999999999999</ele><time>2026-04-27T15:19:15.999Z</time></trkpt><trkpt lat="42.36404012703813" lon="13.499402837539655"><ele>900.8</ele><time>2026-04-27T15:19:16.999Z</time></trkpt><trkpt lat="42.36410395848446" lon="13.49951193781533"><ele>903.4</ele><time>2026-04-27T15:19:17.999Z</time></trkpt><trkpt lat="42.364184743311654" lon="13.499607805112456"><ele>906.0</ele><time>2026-04-27T15:19:18.999Z</time></trkpt><trkpt lat="42.36426065701974" lon="13.499702573265335"><ele>906.5</ele><time>2026-04-27T15:19:19.999Z</time></trkpt><trkpt lat="42.36431902686782" lon="13.4998157304486"><ele>907.0</ele><time>2026-04-27T15:19:20.999Z</time></trkpt><trkpt lat="42.36437517884835" lon="13.499944611820457"><ele>907.5</ele><time>2026-04-27T15:19:21.999Z</time></trkpt><trkpt lat="42.36444306389271" lon="13.500083053040544"><ele>908.0</ele><time>2026-04-27T15:19:22.999Z</time></trkpt><trkpt lat="42.36450533786444" lon="13.500216843420962"><ele>908.0</ele><time>2026-04-27T15:19:23.999Z</time></trkpt><trkpt lat="42.36457375425985" lon="13.500362046946647"><ele>908.0</ele><time>2026-04-27T15:19:24.999Z</time></trkpt><trkpt lat="42.36463843739745" lon="13.500502450744472"><ele>908.0</ele><time>2026-04-27T15:19:25.999Z</time></trkpt><trkpt lat="42.36469646319433" lon="13.500656505117622"><ele>908.0</ele><time>2026-04-27T15:19:26.999Z</time></trkpt><trkpt lat="42.36474786283362" lon="13.50080122300008"><ele>910.4</ele><time>2026-04-27T15:19:27.999Z</time></trkpt><trkpt lat="42.364786760528546" lon="13.500903990705007"><ele>912.8</ele><time>2026-04-27T15:19:28.999Z</time></trkpt><trkpt lat="42.364829296371774" lon="13.501019496851727"><ele>915.2</ele><time>2026-04-27T15:19:29.999Z</time></trkpt><trkpt lat="42.364880374848404" lon="13.501146069423775"><ele>917.6</ele><time>2026-04-27T15:19:30.999Z</time></trkpt><trkpt lat="42.36492873351797" lon="13.5012814865993"><ele>920.0</ele><time>2026-04-27T15:19:31.999Z</time></trkpt><trkpt lat="42.36496058631244" lon="13.501428500324469"><ele>921.4</ele><time>2026-04-27T15:19:32.999Z</time></trkpt><trkpt lat="42.36497315584476" lon="13.501569986296682"><ele>922.8</ele><time>2026-04-27T15:19:33.999Z</time></trkpt><trkpt lat="42.364988969552215" lon="13.50170968735849"><ele>924.2</ele><time>2026-04-27T15:19:34.999Z</time></trkpt><trkpt lat="42.36502318250081" lon="13.501848345590153"><ele>925.6</ele><time>2026-04-27T15:19:35.999Z</time></trkpt><trkpt lat="42.365064506110016" lon="13.501982355802555"><ele>927.0</ele><time>2026-04-27T15:19:36.999Z</time></trkpt><trkpt lat="42.365104087620196" lon="13.502111745105863"><ele>928.2</ele><time>2026-04-27T15:19:37.999Z</time></trkpt><trkpt lat="42.365147226815324" lon="13.502246929459666"><ele>929.4000000000001</ele><time>2026-04-27T15:19:38.999Z</time></trkpt><trkpt lat="42.36518936456876" lon="13.502382148760285"><ele>930.5999999999999</ele><time>2026-04-27T15:19:39.999Z</time></trkpt><trkpt lat="42.36519601955512" lon="13.502492711970065"><ele>931.8</ele><time>2026-04-27T15:19:40.999Z</time></trkpt><trkpt lat="42.36520190574658" lon="13.502592402329382"><ele>933.0</ele><time>2026-04-27T15:19:41.999Z</time></trkpt><trkpt lat="42.36523124640123" lon="13.502728994564595"><ele>933.0</ele><time>2026-04-27T15:19:42.999Z</time></trkpt><trkpt lat="42.36527171875184" lon="13.50284018627155"><ele>933.0</ele><time>2026-04-27T15:19:43.999Z</time></trkpt><trkpt lat="42.3653179108994" lon="13.5029696578656"><ele>933.0</ele><time>2026-04-27T15:19:44.999Z</time></trkpt><trkpt lat="42.36537256466211" lon="13.503101778361835"><ele>933.0</ele><time>2026-04-27T15:19:45.999Z</time></trkpt><trkpt lat="42.36543704293056" lon="13.503223076371718"><ele>933.0</ele><time>2026-04-27T15:19:46.999Z</time></trkpt><trkpt lat="42.36551286631626" lon="13.503345720214913"><ele>934.5999999999999</ele><time>2026-04-27T15:19:47.999Z</time></trkpt><trkpt lat="42.3655814427924" lon="13.503478058274117"><ele>936.1999999999999</ele><time>2026-04-27T15:19:48.999Z</time></trkpt><trkpt lat="42.36564781708886" lon="13.503600037725699"><ele>937.8</ele><time>2026-04-27T15:19:49.999Z</time></trkpt><trkpt lat="42.36570457684704" lon="13.503717991209559"><ele>939.4</ele><time>2026-04-27T15:19:50.999Z</time></trkpt><trkpt lat="42.3657638937846" lon="13.503848409389214"><ele>941.0</ele><time>2026-04-27T15:19:51.999Z</time></trkpt><trkpt lat="42.36580565567161" lon="13.503988242267091"><ele>941.8</ele><time>2026-04-27T15:19:52.998Z</time></trkpt><trkpt lat="42.36584737879329" lon="13.504136805127155"><ele>942.5999999999999</ele><time>2026-04-27T15:19:53.998Z</time></trkpt><trkpt lat="42.365871007392016" lon="13.504278736948233"><ele>943.4</ele><time>2026-04-27T15:19:54.998Z</time></trkpt><trkpt lat="42.36588412794587" lon="13.504402581745964"><ele>944.2</ele><time>2026-04-27T15:19:55.998Z</time></trkpt><trkpt lat="42.36587419656517" lon="13.504527301246803"><ele>945.0</ele><time>2026-04-27T15:19:56.998Z</time></trkpt><trkpt lat="42.3658619447305" lon="13.50467017520372"><ele>945.2</ele><time>2026-04-27T15:19:57.998Z</time></trkpt><trkpt lat="42.36584233114719" lon="13.504800158888916"><ele>945.4</ele><time>2026-04-27T15:19:58.998Z</time></trkpt><trkpt lat="42.36583869190372" lon="13.504915865026106"><ele>945.5999999999999</ele><time>2026-04-27T15:19:59.998Z</time></trkpt><trkpt lat="42.36586568840844" lon="13.505066307715488"><ele>945.8</ele><time>2026-04-27T15:20:00.998Z</time></trkpt><trkpt lat="42.365899765984445" lon="13.505204698703436"><ele>946.0</ele><time>2026-04-27T15:20:01.998Z</time></trkpt><trkpt lat="42.365935185205245" lon="13.505348649152443"><ele>946.1999999999999</ele><time>2026-04-27T15:20:02.998Z</time></trkpt><trkpt lat="42.36596097035679" lon="13.505479323588597"><ele>946.3999999999999</ele><time>2026-04-27T15:20:03.998Z</time></trkpt><trkpt lat="42.36598440452091" lon="13.505634715655548"><ele>946.6</ele><time>2026-04-27T15:20:04.998Z</time></trkpt><trkpt lat="42.366003554237665" lon="13.505786188090136"><ele>946.8</ele><time>2026-04-27T15:20:05.998Z</time></trkpt><trkpt lat="42.366025262425374" lon="13.505934672368065"><ele>947.0</ele><time>2026-04-27T15:20:06.998Z</time></trkpt><trkpt lat="42.366044716124094" lon="13.506081339354715"><ele>947.0</ele><time>2026-04-27T15:20:07.998Z</time></trkpt><trkpt lat="42.366055349889415" lon="13.506219014440116"><ele>947.0</ele><time>2026-04-27T15:20:08.998Z</time></trkpt><trkpt lat="42.36606679460001" lon="13.506369825790863"><ele>947.0</ele><time>2026-04-27T15:20:09.998Z</time></trkpt><trkpt lat="42.366096809858696" lon="13.506507130071249"><ele>947.0</ele><time>2026-04-27T15:20:10.998Z</time></trkpt><trkpt lat="42.3661299912926" lon="13.506594953095748"><ele>947.0</ele><time>2026-04-27T15:20:11.998Z</time></trkpt><trkpt lat="42.36618600203534" lon="13.506667729542004"><ele>947.4000000000001</ele><time>2026-04-27T15:20:12.998Z</time></trkpt><trkpt lat="42.36624279859032" lon="13.506779434456666"><ele>947.8000000000001</ele><time>2026-04-27T15:20:14Z</time></trkpt><trkpt lat="42.36629024101762" lon="13.506876370897524"><ele>948.2</ele><time>2026-04-27T15:20:15Z</time></trkpt><trkpt lat="42.36635348437442" lon="13.506953946742374"><ele>948.6</ele><time>2026-04-27T15:20:16Z</time></trkpt><trkpt lat="42.36643669729009" lon="13.507043509714691"><ele>949.0</ele><time>2026-04-27T15:20:17Z</time></trkpt><trkpt lat="42.36651557781599" lon="13.507141126613563"><ele>951.2</ele><time>2026-04-27T15:20:18Z</time></trkpt><trkpt lat="42.366584523465015" lon="13.507249342906228"><ele>953.4000000000001</ele><time>2026-04-27T15:20:19Z</time></trkpt><trkpt lat="42.36664824807873" lon="13.507362279281491"><ele>955.6</ele><time>2026-04-27T15:20:20Z</time></trkpt><trkpt lat="42.36671253525232" lon="13.507470247855114"><ele>957.8</ele><time>2026-04-27T15:20:21Z</time></trkpt><trkpt lat="42.36677885204984" lon="13.507571056021868"><ele>960.0</ele><time>2026-04-27T15:20:22Z</time></trkpt><trkpt lat="42.36683834126467" lon="13.50765512981116"><ele>960.0</ele><time>2026-04-27T15:20:23Z</time></trkpt><trkpt lat="42.36683996841456" lon="13.507787653247087"><ele>960.0</ele><time>2026-04-27T15:20:30Z</time></trkpt><trkpt lat="42.366765945486165" lon="13.50774849062864"><ele>960.0</ele><time>2026-04-27T15:20:33Z</time></trkpt><trkpt lat="42.366699012344" lon="13.507727061358366"><ele>960.0</ele><time>2026-04-27T15:20:36Z</time></trkpt><trkpt lat="42.36663219335141" lon="13.507710444604578"><ele>960.0</ele><time>2026-04-27T15:20:39Z</time></trkpt><trkpt lat="42.36657598117414" lon="13.507752586088538"><ele>960.0</ele><time>2026-04-27T15:22:05.998Z</time></trkpt><trkpt lat="42.36651619761303" lon="13.507805449618525"><ele>960.0</ele><time>2026-04-27T15:22:06.998Z</time></trkpt><trkpt lat="42.36643026913453" lon="13.507865699639964"><ele>960.0</ele><time>2026-04-27T15:22:07.998Z</time></trkpt><trkpt lat="42.366347767165514" lon="13.507931824487422"><ele>960.0</ele><time>2026-04-27T15:22:08.998Z</time></trkpt><trkpt lat="42.36626138312429" lon="13.507997772423971"><ele>960.0</ele><time>2026-04-27T15:22:09.998Z</time></trkpt><trkpt lat="42.366175871632976" lon="13.508046199266648"><ele>960.0</ele><time>2026-04-27T15:22:10.998Z</time></trkpt><trkpt lat="42.36612002969621" lon="13.508097645181419"><ele>958.8333333333334</ele><time>2026-04-27T15:22:11.998Z</time></trkpt><trkpt lat="42.36606315960896" lon="13.508178586362027"><ele>957.6666666666667</ele><time>2026-04-27T15:22:12.998Z</time></trkpt><trkpt lat="42.36601238854549" lon="13.508280563281703"><ele>956.5</ele><time>2026-04-27T15:22:13.998Z</time></trkpt><trkpt lat="42.36596159132056" lon="13.508387576722313"><ele>955.3333333333334</ele><time>2026-04-27T15:22:14.998Z</time></trkpt><trkpt lat="42.36592349578293" lon="13.508477353205645"><ele>954.1666666666667</ele><time>2026-04-27T15:22:15.998Z</time></trkpt><trkpt lat="42.36588585659361" lon="13.508546942887069"><ele>953.0</ele><time>2026-04-27T15:22:16.998Z</time></trkpt><trkpt lat="42.36581292097756" lon="13.508622766829626"><ele>953.0000000000001</ele><time>2026-04-27T15:22:18.998Z</time></trkpt><trkpt lat="42.36579156012401" lon="13.508716336560024"><ele>953.0</ele><time>2026-04-27T15:22:21Z</time></trkpt><trkpt lat="42.365792725320944" lon="13.508812190520585"><ele>953.0</ele><time>2026-04-27T15:22:22Z</time></trkpt><trkpt lat="42.36576447165473" lon="13.508942750532512"><ele>953.0</ele><time>2026-04-27T15:22:23Z</time></trkpt><trkpt lat="42.3657184150596" lon="13.509069225198683"><ele>953.0000000000001</ele><time>2026-04-27T15:22:24Z</time></trkpt><trkpt lat="42.36566382023274" lon="13.509163967973222"><ele>953.0</ele><time>2026-04-27T15:22:25Z</time></trkpt><trkpt lat="42.36562770989212" lon="13.509234004635333"><ele>953.8</ele><time>2026-04-27T15:22:26Z</time></trkpt><trkpt lat="42.3656175722652" lon="13.509418536607482"><ele>954.5999999999999</ele><time>2026-04-27T15:22:28Z</time></trkpt><trkpt lat="42.36562943314753" lon="13.509524272293664"><ele>955.4000000000001</ele><time>2026-04-27T15:22:29Z</time></trkpt><trkpt lat="42.365643999964945" lon="13.509615832236795"><ele>956.2</ele><time>2026-04-27T15:22:30Z</time></trkpt><trkpt lat="42.36572688175434" lon="13.50973973460226"><ele>957.0</ele><time>2026-04-27T15:22:32Z</time></trkpt><trkpt lat="42.36580139021426" lon="13.509795853344036"><ele>957.0</ele><time>2026-04-27T15:22:33Z</time></trkpt><trkpt lat="42.36588933612562" lon="13.509856198628675"><ele>957.0</ele><time>2026-04-27T15:22:34Z</time></trkpt><trkpt lat="42.365976308838334" lon="13.509907817182487"><ele>957.0</ele><time>2026-04-27T15:22:35Z</time></trkpt><trkpt lat="42.3660617690687" lon="13.509942395408412"><ele>957.0</ele><time>2026-04-27T15:22:36Z</time></trkpt><trkpt lat="42.36612138849625" lon="13.509973165724151"><ele>957.0</ele><time>2026-04-27T15:22:37Z</time></trkpt><trkpt lat="42.36612031425132" lon="13.510159269913657"><ele>957.0</ele><time>2026-04-27T15:22:39Z</time></trkpt><trkpt lat="42.36605559839748" lon="13.510274739844464"><ele>957.0</ele><time>2026-04-27T15:22:40Z</time></trkpt><trkpt lat="42.36600880399037" lon="13.510414974655744"><ele>957.0</ele><time>2026-04-27T15:22:41Z</time></trkpt><trkpt lat="42.36596907156718" lon="13.510539969606915"><ele>957.0</ele><time>2026-04-27T15:22:42Z</time></trkpt><trkpt lat="42.36591137253171" lon="13.510632804118092"><ele>957.0</ele><time>2026-04-27T15:22:43Z</time></trkpt><trkpt lat="42.36583118510827" lon="13.510686507109323"><ele>956.8333333333334</ele><time>2026-04-27T15:22:44Z</time></trkpt><trkpt lat="42.36575685152214" lon="13.510737561814837"><ele>956.6666666666667</ele><time>2026-04-27T15:22:45Z</time></trkpt><trkpt lat="42.365699797382405" lon="13.510818146734438"><ele>956.5</ele><time>2026-04-27T15:22:45.999Z</time></trkpt><trkpt lat="42.365657839853505" lon="13.510926978526648"><ele>956.3333333333334</ele><time>2026-04-27T15:22:46.999Z</time></trkpt><trkpt lat="42.36561776415408" lon="13.511049543592819"><ele>956.1666666666667</ele><time>2026-04-27T15:22:47.999Z</time></trkpt><trkpt lat="42.36559476397409" lon="13.511156330503253"><ele>956.0</ele><time>2026-04-27T15:22:48.999Z</time></trkpt><trkpt lat="42.36558999137003" lon="13.511266818147378"><ele>955.5999999999999</ele><time>2026-04-27T15:22:49.999Z</time></trkpt><trkpt lat="42.36557481170621" lon="13.511391954394709"><ele>955.1999999999999</ele><time>2026-04-27T15:22:50.999Z</time></trkpt><trkpt lat="42.36552727180047" lon="13.511516994004973"><ele>954.8000000000001</ele><time>2026-04-27T15:22:51.999Z</time></trkpt><trkpt lat="42.365484395029505" lon="13.511633331329874"><ele>954.4000000000001</ele><time>2026-04-27T15:22:52.999Z</time></trkpt><trkpt lat="42.365446280937455" lon="13.511757020590897"><ele>954.0</ele><time>2026-04-27T15:22:53.999Z</time></trkpt><trkpt lat="42.36541266677187" lon="13.51188439779763"><ele>954.0</ele><time>2026-04-27T15:22:54.999Z</time></trkpt><trkpt lat="42.3653919615189" lon="13.512015919094875"><ele>954.0000000000001</ele><time>2026-04-27T15:22:55.999Z</time></trkpt><trkpt lat="42.365390518034125" lon="13.512136180044678"><ele>954.0000000000001</ele><time>2026-04-27T15:22:56.999Z</time></trkpt><trkpt lat="42.365400936058776" lon="13.512228674438381"><ele>954.0</ele><time>2026-04-27T15:22:57.999Z</time></trkpt><trkpt lat="42.36540877493749" lon="13.512404462837784"><ele>954.0</ele><time>2026-04-27T15:22:59.999Z</time></trkpt><trkpt lat="42.36544026693672" lon="13.512494921192786"><ele>954.6</ele><time>2026-04-27T15:23:00.999Z</time></trkpt><trkpt lat="42.36547899170671" lon="13.512615282731248"><ele>955.2</ele><time>2026-04-27T15:23:01.999Z</time></trkpt><trkpt lat="42.365515487237886" lon="13.512759588677449"><ele>955.8000000000001</ele><time>2026-04-27T15:23:02.999Z</time></trkpt><trkpt lat="42.36552890957476" lon="13.512911087853132"><ele>956.4000000000001</ele><time>2026-04-27T15:23:03.999Z</time></trkpt><trkpt lat="42.36554151079386" lon="13.5130539073105"><ele>957.0</ele><time>2026-04-27T15:23:04.999Z</time></trkpt><trkpt lat="42.36555693408987" lon="13.513174401696244"><ele>959.6</ele><time>2026-04-27T15:23:05.999Z</time></trkpt><trkpt lat="42.36554394327132" lon="13.513261177471804"><ele>962.2</ele><time>2026-04-27T15:23:07.999Z</time></trkpt><trkpt lat="42.36544116897179" lon="13.513244411587243"><ele>964.8</ele><time>2026-04-27T15:23:09.999Z</time></trkpt><trkpt lat="42.36537444055025" lon="13.513183605258735"><ele>967.4</ele><time>2026-04-27T15:23:10.999Z</time></trkpt><trkpt lat="42.36531075380527" lon="13.513085958290825"><ele>970.0</ele><time>2026-04-27T15:23:11.999Z</time></trkpt><trkpt lat="42.365254437295306" lon="13.512966667334991"><ele>967.4</ele><time>2026-04-27T15:23:12.999Z</time></trkpt><trkpt lat="42.36519634344112" lon="13.51284945875873"><ele>964.8</ele><time>2026-04-27T15:23:13.999Z</time></trkpt><trkpt lat="42.36512144085855" lon="13.512747591130939"><ele>962.2</ele><time>2026-04-27T15:23:14.999Z</time></trkpt><trkpt lat="42.36504450849655" lon="13.512635382724538"><ele>959.6</ele><time>2026-04-27T15:23:15.999Z</time></trkpt><trkpt lat="42.36496833179024" lon="13.512514780271635"><ele>957.0</ele><time>2026-04-27T15:23:16.999Z</time></trkpt><trkpt lat="42.364905902022365" lon="13.512394587976145"><ele>957.0</ele><time>2026-04-27T15:23:17.999Z</time></trkpt><trkpt lat="42.364844708698335" lon="13.512284912023208"><ele>957.0</ele><time>2026-04-27T15:23:18.999Z</time></trkpt><trkpt lat="42.3647749990333" lon="13.512182585613758"><ele>957.0</ele><time>2026-04-27T15:23:19.999Z</time></trkpt><trkpt lat="42.36470045969991" lon="13.512083585135924"><ele>957.0</ele><time>2026-04-27T15:23:20.999Z</time></trkpt><trkpt lat="42.36460141732404" lon="13.511988779858326"><ele>957.0</ele><time>2026-04-27T15:23:21.999Z</time></trkpt><trkpt lat="42.36450692774901" lon="13.511892618792027"><ele>954.8</ele><time>2026-04-27T15:23:22.999Z</time></trkpt><trkpt lat="42.36442013978369" lon="13.51179447413836"><ele>952.6</ele><time>2026-04-27T15:23:23.999Z</time></trkpt><trkpt lat="42.36434331543972" lon="13.511704070802404"><ele>950.3999999999999</ele><time>2026-04-27T15:23:24.999Z</time></trkpt><trkpt lat="42.36427371336974" lon="13.5116162977822"><ele>948.1999999999999</ele><time>2026-04-27T15:23:25.999Z</time></trkpt><trkpt lat="42.36420517090555" lon="13.511533617335637"><ele>946.0</ele><time>2026-04-27T15:23:26.999Z</time></trkpt><trkpt lat="42.364130788377715" lon="13.511467872266607"><ele>946.0</ele><time>2026-04-27T15:23:27.999Z</time></trkpt><trkpt lat="42.36405394631114" lon="13.511429733862808"><ele>945.9999999999999</ele><time>2026-04-27T15:23:28.999Z</time></trkpt><trkpt lat="42.36396831102071" lon="13.511399019635888"><ele>945.9999999999999</ele><time>2026-04-27T15:23:29.999Z</time></trkpt><trkpt lat="42.36386817966848" lon="13.51136986800623"><ele>946.0</ele><time>2026-04-27T15:23:30.999Z</time></trkpt><trkpt lat="42.363753027927196" lon="13.511332694699737"><ele>946.0</ele><time>2026-04-27T15:23:31.999Z</time></trkpt><trkpt lat="42.36363766573074" lon="13.511306212072508"><ele>946.1999999999999</ele><time>2026-04-27T15:23:32.999Z</time></trkpt><trkpt lat="42.36353139199299" lon="13.511272477868632"><ele>946.3999999999999</ele><time>2026-04-27T15:23:33.999Z</time></trkpt><trkpt lat="42.36344376217767" lon="13.511247070906455"><ele>946.6</ele><time>2026-04-27T15:23:34.999Z</time></trkpt><trkpt lat="42.36334846063724" lon="13.511227627793954"><ele>946.8</ele><time>2026-04-27T15:23:35.999Z</time></trkpt><trkpt lat="42.36325774104054" lon="13.511211900060449"><ele>947.0</ele><time>2026-04-27T15:23:36.999Z</time></trkpt><trkpt lat="42.36317160289389" lon="13.511169638081736"><ele>945.8</ele><time>2026-04-27T15:23:37.999Z</time></trkpt><trkpt lat="42.36310379814128" lon="13.511103002151327"><ele>944.6</ele><time>2026-04-27T15:23:38.999Z</time></trkpt><trkpt lat="42.36305090746735" lon="13.510994442351194"><ele>943.3999999999999</ele><time>2026-04-27T15:23:39.999Z</time></trkpt><trkpt lat="42.36298402382739" lon="13.510878106680822"><ele>942.1999999999999</ele><time>2026-04-27T15:23:40.999Z</time></trkpt><trkpt lat="42.36288131297805" lon="13.510762340662904"><ele>941.0</ele><time>2026-04-27T15:23:41.999Z</time></trkpt><trkpt lat="42.36278433706208" lon="13.510639044967908"><ele>939.1999999999999</ele><time>2026-04-27T15:23:42.999Z</time></trkpt><trkpt lat="42.36270406208363" lon="13.510548377448341"><ele>937.3999999999999</ele><time>2026-04-27T15:23:43.999Z</time></trkpt><trkpt lat="42.36262404383742" lon="13.510495774289593"><ele>935.6</ele><time>2026-04-27T15:23:44.999Z</time></trkpt><trkpt lat="42.36255003543156" lon="13.510474640703816"><ele>933.8</ele><time>2026-04-27T15:23:45.999Z</time></trkpt><trkpt lat="42.36246890455195" lon="13.510519395266948"><ele>932.0</ele><time>2026-04-27T15:23:46.999Z</time></trkpt><trkpt lat="42.36237349622053" lon="13.510544983138752"><ele>932.0</ele><time>2026-04-27T15:23:47.999Z</time></trkpt><trkpt lat="42.36226421992308" lon="13.510562335018747"><ele>932.0</ele><time>2026-04-27T15:23:48.999Z</time></trkpt><trkpt lat="42.362158132728766" lon="13.510586871351467"><ele>932.0</ele><time>2026-04-27T15:23:49.999Z</time></trkpt><trkpt lat="42.362065199080384" lon="13.510609845297429"><ele>932.0</ele><time>2026-04-27T15:23:50.999Z</time></trkpt><trkpt lat="42.36198117633977" lon="13.510593873035276"><ele>932.0</ele><time>2026-04-27T15:23:51.999Z</time></trkpt><trkpt lat="42.3618846885686" lon="13.510638482931396"><ele>930.4000000000001</ele><time>2026-04-27T15:23:52.999Z</time></trkpt><trkpt lat="42.361798165493994" lon="13.51068657497091"><ele>928.8000000000001</ele><time>2026-04-27T15:23:53.998Z</time></trkpt><trkpt lat="42.36171797365957" lon="13.510718736854297"><ele>927.2</ele><time>2026-04-27T15:23:54.998Z</time></trkpt><trkpt lat="42.36161778677557" lon="13.51073010601637"><ele>925.6</ele><time>2026-04-27T15:23:55.998Z</time></trkpt><trkpt lat="42.36150572681207" lon="13.510726076424351"><ele>924.0</ele><time>2026-04-27T15:23:56.998Z</time></trkpt><trkpt lat="42.361402613928135" lon="13.510716175009117"><ele>923.0</ele><time>2026-04-27T15:23:57.998Z</time></trkpt><trkpt lat="42.36132101444291" lon="13.51069842448853"><ele>922.0000000000001</ele><time>2026-04-27T15:23:58.998Z</time></trkpt><trkpt lat="42.361233272401876" lon="13.510647502215866"><ele>921.0000000000001</ele><time>2026-04-27T15:23:59.998Z</time></trkpt><trkpt lat="42.361121702275156" lon="13.510600277976337"><ele>920.0</ele><time>2026-04-27T15:24:00.998Z</time></trkpt><trkpt lat="42.361017986144915" lon="13.510557474012053"><ele>919.0</ele><time>2026-04-27T15:24:01.998Z</time></trkpt><trkpt lat="42.360898634695836" lon="13.510532259159474"><ele>918.9999999999999</ele><time>2026-04-27T15:24:02.998Z</time></trkpt><trkpt lat="42.360796699317625" lon="13.510499392785611"><ele>919.0</ele><time>2026-04-27T15:24:03.998Z</time></trkpt><trkpt lat="42.3607163960031" lon="13.510449056736283"><ele>919.0</ele><time>2026-04-27T15:24:04.998Z</time></trkpt><trkpt lat="42.36064049918759" lon="13.51039637904397"><ele>919.0</ele><time>2026-04-27T15:24:05.998Z</time></trkpt><trkpt lat="42.36057387679385" lon="13.510327964107372"><ele>918.9999999999999</ele><time>2026-04-27T15:24:06.998Z</time></trkpt><trkpt lat="42.36052166409917" lon="13.510258599769715"><ele>919.0</ele><time>2026-04-27T15:24:07.998Z</time></trkpt><trkpt lat="42.36046020001565" lon="13.51019334091887"><ele>916.8333333333333</ele><time>2026-04-27T15:24:08.998Z</time></trkpt><trkpt lat="42.360386593876335" lon="13.510139941472291"><ele>914.6666666666666</ele><time>2026-04-27T15:24:09.998Z</time></trkpt><trkpt lat="42.360311013114426" lon="13.510077553469712"><ele>912.5</ele><time>2026-04-27T15:24:10.998Z</time></trkpt><trkpt lat="42.360245311402196" lon="13.509988553749746"><ele>910.3333333333333</ele><time>2026-04-27T15:24:11.998Z</time></trkpt><trkpt lat="42.360187550113295" lon="13.50991037119229"><ele>908.1666666666666</ele><time>2026-04-27T15:24:12.998Z</time></trkpt><trkpt lat="42.36012951509922" lon="13.509842498688679"><ele>906.0</ele><time>2026-04-27T15:24:13.998Z</time></trkpt><trkpt lat="42.360031083418484" lon="13.509734877312296"><ele>906.0</ele><time>2026-04-27T15:24:15.998Z</time></trkpt><trkpt lat="42.35995518125658" lon="13.509579471831847"><ele>905.9999999999999</ele><time>2026-04-27T15:24:17.998Z</time></trkpt><trkpt lat="42.35993119018907" lon="13.509463623687315"><ele>905.9999999999999</ele><time>2026-04-27T15:24:18.998Z</time></trkpt><trkpt lat="42.35990837908594" lon="13.50934511636219"><ele>906.0</ele><time>2026-04-27T15:24:19.998Z</time></trkpt><trkpt lat="42.359879077204944" lon="13.509210659888408"><ele>906.0</ele><time>2026-04-27T15:24:20.998Z</time></trkpt><trkpt lat="42.359840209612344" lon="13.509072155742523"><ele>906.0</ele><time>2026-04-27T15:24:21.998Z</time></trkpt><trkpt lat="42.359811850774584" lon="13.508926860294103"><ele>906.0</ele><time>2026-04-27T15:24:22.998Z</time></trkpt><trkpt lat="42.359790252226986" lon="13.508772035025919"><ele>906.0</ele><time>2026-04-27T15:24:23.998Z</time></trkpt><trkpt lat="42.35976002581349" lon="13.50860516976713"><ele>906.0</ele><time>2026-04-27T15:24:24.998Z</time></trkpt><trkpt lat="42.359724325940874" lon="13.508435146259473"><ele>903.0</ele><time>2026-04-27T15:24:26Z</time></trkpt><trkpt lat="42.35969365741868" lon="13.508260716560853"><ele>900.0</ele><time>2026-04-27T15:24:27Z</time></trkpt><trkpt lat="42.359671888174155" lon="13.50807856141235"><ele>897.0</ele><time>2026-04-27T15:24:28Z</time></trkpt><trkpt lat="42.35964264760345" lon="13.507904095268222"><ele>894.0</ele><time>2026-04-27T15:24:29Z</time></trkpt><trkpt lat="42.35960791665664" lon="13.507743650755765"><ele>892.6</ele><time>2026-04-27T15:24:30Z</time></trkpt><trkpt lat="42.35958402512297" lon="13.507600224956896"><ele>891.2</ele><time>2026-04-27T15:24:31Z</time></trkpt><trkpt lat="42.35958323598688" lon="13.507460845604923"><ele>889.8000000000001</ele><time>2026-04-27T15:24:32Z</time></trkpt><trkpt lat="42.359592257115914" lon="13.50732359067222"><ele>888.4000000000001</ele><time>2026-04-27T15:24:33Z</time></trkpt><trkpt lat="42.35957207437935" lon="13.507196571738746"><ele>887.0</ele><time>2026-04-27T15:24:34Z</time></trkpt><trkpt lat="42.35953070614919" lon="13.507090107032269"><ele>885.8</ele><time>2026-04-27T15:24:35Z</time></trkpt><trkpt lat="42.359504344283245" lon="13.506999580978421"><ele>884.6</ele><time>2026-04-27T15:24:36Z</time></trkpt><trkpt lat="42.35950747110658" lon="13.506884030877295"><ele>883.3999999999999</ele><time>2026-04-27T15:24:37Z</time></trkpt><trkpt lat="42.359527086418765" lon="13.50676220105653"><ele>882.1999999999999</ele><time>2026-04-27T15:24:38Z</time></trkpt><trkpt lat="42.35951246945042" lon="13.506629150801267"><ele>881.0</ele><time>2026-04-27T15:24:39Z</time></trkpt><trkpt lat="42.35946894156441" lon="13.50650429453014"><ele>881.0000000000001</ele><time>2026-04-27T15:24:40Z</time></trkpt><trkpt lat="42.35943152959189" lon="13.5063949179153"><ele>881.0</ele><time>2026-04-27T15:24:41Z</time></trkpt><trkpt lat="42.35940964619518" lon="13.506280137093073"><ele>881.0</ele><time>2026-04-27T15:24:43Z</time></trkpt><trkpt lat="42.35932209866097" lon="13.506280584815586"><ele>881.0</ele><time>2026-04-27T15:24:46Z</time></trkpt><trkpt lat="42.35925493977487" lon="13.506314251718786"><ele>881.0000000000001</ele><time>2026-04-27T15:24:47Z</time></trkpt><trkpt lat="42.35917700978138" lon="13.50632784412798"><ele>881.0</ele><time>2026-04-27T15:24:48Z</time></trkpt><trkpt lat="42.359080971094606" lon="13.506306639904212"><ele>880.25</ele><time>2026-04-27T15:24:49Z</time></trkpt><trkpt lat="42.35897664219988" lon="13.506242501695462"><ele>879.5</ele><time>2026-04-27T15:24:49.999Z</time></trkpt><trkpt lat="42.358881595680195" lon="13.506149314436271"><ele>878.75</ele><time>2026-04-27T15:24:50.999Z</time></trkpt><trkpt lat="42.35880030321102" lon="13.506007171095336"><ele>878.0</ele><time>2026-04-27T15:24:51.999Z</time></trkpt><trkpt lat="42.35872567811491" lon="13.505837435199377"><ele>877.3333333333334</ele><time>2026-04-27T15:24:52.999Z</time></trkpt><trkpt lat="42.35864327914888" lon="13.5056619466003"><ele>876.6666666666667</ele><time>2026-04-27T15:24:53.999Z</time></trkpt><trkpt lat="42.35854769462016" lon="13.505490784653688"><ele>876.0</ele><time>2026-04-27T15:24:54.999Z</time></trkpt><trkpt lat="42.358456104252475" lon="13.505326030892446"><ele>876.0</ele><time>2026-04-27T15:24:55.999Z</time></trkpt><trkpt lat="42.35836252015313" lon="13.505155732180878"><ele>876.0</ele><time>2026-04-27T15:24:56.999Z</time></trkpt><trkpt lat="42.358250537091045" lon="13.504995851511755"><ele>876.0</ele><time>2026-04-27T15:24:57.999Z</time></trkpt><trkpt lat="42.35811710758234" lon="13.50485902331457"><ele>876.0</ele><time>2026-04-27T15:24:58.999Z</time></trkpt><trkpt lat="42.357971149299566" lon="13.504743067827544"><ele>876.0</ele><time>2026-04-27T15:24:59.999Z</time></trkpt><trkpt lat="42.35781827566902" lon="13.5046301141473"><ele>876.0</ele><time>2026-04-27T15:25:00.999Z</time></trkpt><trkpt lat="42.357679288220666" lon="13.504528787897769"><ele>876.0</ele><time>2026-04-27T15:25:01.999Z</time></trkpt><trkpt lat="42.35753241221713" lon="13.504463170111121"><ele>876.0</ele><time>2026-04-27T15:25:02.999Z</time></trkpt><trkpt lat="42.35738197263738" lon="13.504440745601617"><ele>876.0</ele><time>2026-04-27T15:25:03.999Z</time></trkpt><trkpt lat="42.35722567632944" lon="13.504453441912903"><ele>877.3333333333333</ele><time>2026-04-27T15:25:04.999Z</time></trkpt><trkpt lat="42.35706274427852" lon="13.504489878013665"><ele>878.6666666666666</ele><time>2026-04-27T15:25:05.999Z</time></trkpt><trkpt lat="42.35691285369084" lon="13.504547576985097"><ele>880.0</ele><time>2026-04-27T15:25:06.999Z</time></trkpt><trkpt lat="42.35679162881247" lon="13.504626756041993"><ele>884.5</ele><time>2026-04-27T15:25:07.999Z</time></trkpt><trkpt lat="42.35669783977526" lon="13.504734256890108"><ele>889.0</ele><time>2026-04-27T15:25:08.999Z</time></trkpt><trkpt lat="42.356600819705974" lon="13.50486826094523"><ele>893.5</ele><time>2026-04-27T15:25:09.999Z</time></trkpt><trkpt lat="42.356532782441874" lon="13.505040994477909"><ele>898.0</ele><time>2026-04-27T15:25:10.999Z</time></trkpt><trkpt lat="42.35647729315497" lon="13.505224597720902"><ele>898.0</ele><time>2026-04-27T15:25:11.999Z</time></trkpt><trkpt lat="42.35642938862631" lon="13.505388061737234"><ele>898.0</ele><time>2026-04-27T15:25:12.999Z</time></trkpt><trkpt lat="42.35637549014699" lon="13.50552638732773"><ele>898.0</ele><time>2026-04-27T15:25:13.999Z</time></trkpt><trkpt lat="42.35633649351046" lon="13.505623335435589"><ele>898.0</ele><time>2026-04-27T15:25:14.999Z</time></trkpt><trkpt lat="42.35644000658046" lon="13.505558632192104"><ele>898.0</ele><time>2026-04-27T15:25:19.999Z</time></trkpt><trkpt lat="42.3565017193081" lon="13.505636412811729"><ele>900.4</ele><time>2026-04-27T15:25:27.999Z</time></trkpt><trkpt lat="42.35658988827035" lon="13.505735775649326"><ele>902.8</ele><time>2026-04-27T15:25:29.999Z</time></trkpt><trkpt lat="42.356705486383106" lon="13.50585296491264"><ele>905.2</ele><time>2026-04-27T15:25:31.999Z</time></trkpt><trkpt lat="42.35676842520676" lon="13.505922922827352"><ele>907.6</ele><time>2026-04-27T15:25:32.999Z</time></trkpt><trkpt lat="42.3568305121312" lon="13.50599106483801"><ele>910.0</ele><time>2026-04-27T15:25:33.999Z</time></trkpt><trkpt lat="42.35690211600065" lon="13.506058909106837"><ele>910.0</ele><time>2026-04-27T15:25:34.999Z</time></trkpt><trkpt lat="42.356951865640525" lon="13.506140188899154"><ele>910.0</ele><time>2026-04-27T15:25:35.999Z</time></trkpt><trkpt lat="42.35699308494152" lon="13.506233982418502"><ele>910.0</ele><time>2026-04-27T15:25:36.999Z</time></trkpt><trkpt lat="42.35700842181474" lon="13.506328560371712"><ele>910.0</ele><time>2026-04-27T15:25:37.999Z</time></trkpt><trkpt lat="42.356997031198745" lon="13.506535264754618"><ele>910.0</ele><time>2026-04-27T15:25:39.999Z</time></trkpt><trkpt lat="42.35698926162342" lon="13.506636914931596"><ele>912.0</ele><time>2026-04-27T15:25:40.999Z</time></trkpt><trkpt lat="42.35699076986346" lon="13.506777139562509"><ele>914.0</ele><time>2026-04-27T15:25:42.999Z</time></trkpt><trkpt lat="42.35710052368396" lon="13.506813666941621"><ele>916.0</ele><time>2026-04-27T15:25:44.999Z</time></trkpt><trkpt lat="42.35721215310488" lon="13.50674887203575"><ele>918.0</ele><time>2026-04-27T15:25:46.999Z</time></trkpt><trkpt lat="42.357276875134055" lon="13.506688178857747"><ele>920.0</ele><time>2026-04-27T15:25:47.999Z</time></trkpt><trkpt lat="42.357361181707084" lon="13.506634812362968"><ele>920.8333333333334</ele><time>2026-04-27T15:25:48.999Z</time></trkpt><trkpt lat="42.35742615543889" lon="13.506617951646055"><ele>921.6666666666667</ele><time>2026-04-27T15:25:49.999Z</time></trkpt><trkpt lat="42.35748767419946" lon="13.506710196634987"><ele>922.5</ele><time>2026-04-27T15:25:51.999Z</time></trkpt><trkpt lat="42.35750266144512" lon="13.506814371241461"><ele>923.3333333333333</ele><time>2026-04-27T15:25:52.999Z</time></trkpt><trkpt lat="42.35750787723796" lon="13.50692192570716"><ele>924.1666666666666</ele><time>2026-04-27T15:25:53.999Z</time></trkpt><trkpt lat="42.35751326512676" lon="13.507029978696075"><ele>925.0</ele><time>2026-04-27T15:25:54.999Z</time></trkpt><trkpt lat="42.357511516026044" lon="13.507149819913549"><ele>926.0</ele><time>2026-04-27T15:25:55.999Z</time></trkpt><trkpt lat="42.35753152980771" lon="13.507270080952207"><ele>927.0</ele><time>2026-04-27T15:25:56.999Z</time></trkpt><trkpt lat="42.35754500460333" lon="13.507387215099516"><ele>928.0</ele><time>2026-04-27T15:25:57.998Z</time></trkpt><trkpt lat="42.35753321096082" lon="13.507501642324447"><ele>929.0</ele><time>2026-04-27T15:25:58.998Z</time></trkpt><trkpt lat="42.35750845778624" lon="13.507626308418233"><ele>930.0</ele><time>2026-04-27T15:25:59.998Z</time></trkpt><trkpt lat="42.35749582366239" lon="13.507764643275214"><ele>930.0</ele><time>2026-04-27T15:26:00.998Z</time></trkpt><trkpt lat="42.35750963643317" lon="13.507905086962376"><ele>930.0</ele><time>2026-04-27T15:26:01.998Z</time></trkpt><trkpt lat="42.35752445118662" lon="13.508046108215106"><ele>930.0</ele><time>2026-04-27T15:26:02.998Z</time></trkpt><trkpt lat="42.35753343999907" lon="13.5081803327268"><ele>930.0</ele><time>2026-04-27T15:26:03.998Z</time></trkpt><trkpt lat="42.3575321460544" lon="13.508311844116768"><ele>930.0</ele><time>2026-04-27T15:26:04.998Z</time></trkpt><trkpt lat="42.357516240471924" lon="13.508442201402026"><ele>931.6</ele><time>2026-04-27T15:26:05.998Z</time></trkpt><trkpt lat="42.357501253683886" lon="13.508579418593998"><ele>933.2</ele><time>2026-04-27T15:26:06.998Z</time></trkpt><trkpt lat="42.357480265231935" lon="13.508739210447173"><ele>934.8</ele><time>2026-04-27T15:26:07.998Z</time></trkpt><trkpt lat="42.357461569912914" lon="13.508881544403566"><ele>936.4</ele><time>2026-04-27T15:26:08.998Z</time></trkpt><trkpt lat="42.357449783852935" lon="13.50897127660148"><ele>938.0</ele><time>2026-04-27T15:26:09.998Z</time></trkpt><trkpt lat="42.357553373047445" lon="13.509088321542626"><ele>941.0</ele><time>2026-04-27T15:26:12.998Z</time></trkpt><trkpt lat="42.3576269171589" lon="13.509160018556912"><ele>944.0</ele><time>2026-04-27T15:26:13.998Z</time></trkpt><trkpt lat="42.357697036474384" lon="13.509247617010683"><ele>947.0</ele><time>2026-04-27T15:26:14.998Z</time></trkpt><trkpt lat="42.357760242639955" lon="13.509383779082313"><ele>950.0</ele><time>2026-04-27T15:26:15.998Z</time></trkpt><trkpt lat="42.35782926446302" lon="13.509527249128183"><ele>953.0</ele><time>2026-04-27T15:26:16.998Z</time></trkpt><trkpt lat="42.357886406969975" lon="13.509675522723539"><ele>955.75</ele><time>2026-04-27T15:26:17.998Z</time></trkpt><trkpt lat="42.35793142772977" lon="13.50984869957798"><ele>958.5</ele><time>2026-04-27T15:26:18.998Z</time></trkpt><trkpt lat="42.35795887766992" lon="13.510031907585166"><ele>961.25</ele><time>2026-04-27T15:26:19.998Z</time></trkpt><trkpt lat="42.357966063795025" lon="13.510208719967897"><ele>964.0</ele><time>2026-04-27T15:26:20.998Z</time></trkpt><trkpt lat="42.3579572049964" lon="13.510356225552357"><ele>964.4000000000001</ele><time>2026-04-27T15:26:21.998Z</time></trkpt><trkpt lat="42.357939913931176" lon="13.510463489846398"><ele>964.8000000000001</ele><time>2026-04-27T15:26:22.998Z</time></trkpt><trkpt lat="42.35785772091612" lon="13.51057262184039"><ele>965.1999999999999</ele><time>2026-04-27T15:26:24.998Z</time></trkpt><trkpt lat="42.35776202089081" lon="13.510564425650115"><ele>965.5999999999999</ele><time>2026-04-27T15:26:25.998Z</time></trkpt><trkpt lat="42.35765424873057" lon="13.510580412438301"><ele>966.0</ele><time>2026-04-27T15:26:26.998Z</time></trkpt><trkpt lat="42.35755452072177" lon="13.510591263838133"><ele>966.0</ele><time>2026-04-27T15:26:28.998Z</time></trkpt><trkpt lat="42.35762574618208" lon="13.510841328269676"><ele>966.0</ele><time>2026-04-27T15:26:34Z</time></trkpt><trkpt lat="42.35765830289719" lon="13.510937318400464"><ele>966.0</ele><time>2026-04-27T15:26:35Z</time></trkpt><trkpt lat="42.357698623077525" lon="13.511041004837752"><ele>966.0</ele><time>2026-04-27T15:26:36Z</time></trkpt><trkpt lat="42.35774757699547" lon="13.511169207940872"><ele>966.0</ele><time>2026-04-27T15:26:37Z</time></trkpt><trkpt lat="42.35779938387526" lon="13.51130786282419"><ele>966.0</ele><time>2026-04-27T15:26:38Z</time></trkpt><trkpt lat="42.35785128048214" lon="13.511450422380351"><ele>966.0</ele><time>2026-04-27T15:26:39Z</time></trkpt><trkpt lat="42.35790938619943" lon="13.511606519746966"><ele>966.0</ele><time>2026-04-27T15:26:40Z</time></trkpt><trkpt lat="42.35797156885309" lon="13.511773582955216"><ele>966.0</ele><time>2026-04-27T15:26:41Z</time></trkpt><trkpt lat="42.35803303394147" lon="13.511942339684698"><ele>966.0</ele><time>2026-04-27T15:26:42Z</time></trkpt><trkpt lat="42.35809776541109" lon="13.512120925156681"><ele>966.0</ele><time>2026-04-27T15:26:43Z</time></trkpt><trkpt lat="42.35818085671598" lon="13.512296954408864"><ele>966.0</ele><time>2026-04-27T15:26:44Z</time></trkpt><trkpt lat="42.35824709864233" lon="13.512481661676077"><ele>966.75</ele><time>2026-04-27T15:26:45Z</time></trkpt><trkpt lat="42.35830023240963" lon="13.51263659978865"><ele>967.5</ele><time>2026-04-27T15:26:46Z</time></trkpt><trkpt lat="42.3583476883124" lon="13.512778159361838"><ele>968.25</ele><time>2026-04-27T15:26:47Z</time></trkpt><trkpt lat="42.35841533229272" lon="13.512939686246446"><ele>969.0</ele><time>2026-04-27T15:26:48Z</time></trkpt><trkpt lat="42.35848765142277" lon="13.513116516205166"><ele>969.5</ele><time>2026-04-27T15:26:49Z</time></trkpt><trkpt lat="42.35856198910686" lon="13.513296289356115"><ele>970.0</ele><time>2026-04-27T15:26:50Z</time></trkpt><trkpt lat="42.35861522000261" lon="13.513482568134089"><ele>970.5</ele><time>2026-04-27T15:26:51Z</time></trkpt><trkpt lat="42.358685114305125" lon="13.513625259325096"><ele>971.0</ele><time>2026-04-27T15:26:52Z</time></trkpt><trkpt lat="42.35869921420294" lon="13.5137371365302"><ele>971.1999999999999</ele><time>2026-04-27T15:26:53Z</time></trkpt><trkpt lat="42.35872137935377" lon="13.513817054192133"><ele>971.3999999999999</ele><time>2026-04-27T15:26:54Z</time></trkpt><trkpt lat="42.358754003796875" lon="13.513902572499948"><ele>971.6</ele><time>2026-04-27T15:26:55Z</time></trkpt><trkpt lat="42.358797343978736" lon="13.514010028989604"><ele>971.8</ele><time>2026-04-27T15:26:55.999Z</time></trkpt><trkpt lat="42.358853897498584" lon="13.514145068332521"><ele>972.0</ele><time>2026-04-27T15:26:56.999Z</time></trkpt><trkpt lat="42.358918159834666" lon="13.514288452258619"><ele>974.5</ele><time>2026-04-27T15:26:57.999Z</time></trkpt><trkpt lat="42.35898392724506" lon="13.514435195004918"><ele>977.0</ele><time>2026-04-27T15:26:58.999Z</time></trkpt><trkpt lat="42.3590530414026" lon="13.514596016362772"><ele>979.5</ele><time>2026-04-27T15:26:59.999Z</time></trkpt><trkpt lat="42.35912166017671" lon="13.514758193528289"><ele>982.0</ele><time>2026-04-27T15:27:00.999Z</time></trkpt><trkpt lat="42.35919334762119" lon="13.514908780073995"><ele>982.75</ele><time>2026-04-27T15:27:01.999Z</time></trkpt><trkpt lat="42.35926351314821" lon="13.515028990125034"><ele>983.5</ele><time>2026-04-27T15:27:02.999Z</time></trkpt><trkpt lat="42.359334698126865" lon="13.51510337758474"><ele>984.25</ele><time>2026-04-27T15:27:03.999Z</time></trkpt><trkpt lat="42.35940084255797" lon="13.51524536774343"><ele>985.0</ele><time>2026-04-27T15:27:04.999Z</time></trkpt><trkpt lat="42.35926547836969" lon="13.515531101010898"><ele>986.0</ele><time>2026-04-27T15:27:05.999Z</time></trkpt><trkpt lat="42.35922557417961" lon="13.515646834165068"><ele>987.0</ele><time>2026-04-27T15:27:06.999Z</time></trkpt><trkpt lat="42.359176197263345" lon="13.515767075016736"><ele>988.0</ele><time>2026-04-27T15:27:07.999Z</time></trkpt><trkpt lat="42.35912742351746" lon="13.515904857532687"><ele>989.0</ele><time>2026-04-27T15:27:08.999Z</time></trkpt><trkpt lat="42.35908966958515" lon="13.516064170035722"><ele>990.0</ele><time>2026-04-27T15:27:09.999Z</time></trkpt><trkpt lat="42.35907324259168" lon="13.516222140708969"><ele>993.75</ele><time>2026-04-27T15:27:10.999Z</time></trkpt><trkpt lat="42.3590701844869" lon="13.516383764230435"><ele>997.5</ele><time>2026-04-27T15:27:11.999Z</time></trkpt><trkpt lat="42.35906606429082" lon="13.516545040200551"><ele>1001.25</ele><time>2026-04-27T15:27:12.999Z</time></trkpt><trkpt lat="42.35903650521558" lon="13.516705683573576"><ele>1005.0</ele><time>2026-04-27T15:27:13.999Z</time></trkpt><trkpt lat="42.35898308812888" lon="13.516871669811962"><ele>1005.0</ele><time>2026-04-27T15:27:14.999Z</time></trkpt><trkpt lat="42.358904036595675" lon="13.517038918810103"><ele>1005.0</ele><time>2026-04-27T15:27:15.999Z</time></trkpt><trkpt lat="42.358822606226305" lon="13.517201984925372"><ele>1005.0</ele><time>2026-04-27T15:27:16.999Z</time></trkpt><trkpt lat="42.35874635849835" lon="13.517363468037118"><ele>1005.0</ele><time>2026-04-27T15:27:17.999Z</time></trkpt><trkpt lat="42.35867408734092" lon="13.517503398817471"><ele>1004.0</ele><time>2026-04-27T15:27:18.999Z</time></trkpt><trkpt lat="42.358616082190416" lon="13.517619780220762"><ele>1003.0</ele><time>2026-04-27T15:27:19.999Z</time></trkpt><trkpt lat="42.358595819974354" lon="13.517710218388665"><ele>1002.0</ele><time>2026-04-27T15:27:20.999Z</time></trkpt><trkpt lat="42.358642278903865" lon="13.517800231186076"><ele>1001.0</ele><time>2026-04-27T15:27:22.999Z</time></trkpt><trkpt lat="42.358712075184414" lon="13.51779570719599"><ele>1000.0</ele><time>2026-04-27T15:27:23.999Z</time></trkpt><trkpt lat="42.3587722196077" lon="13.517733622416422"><ele>999.0</ele><time>2026-04-27T15:27:24.999Z</time></trkpt><trkpt lat="42.358814535207344" lon="13.517611257409115"><ele>999.0</ele><time>2026-04-27T15:27:25.999Z</time></trkpt><trkpt lat="42.358857524108224" lon="13.517492977266862"><ele>999.0</ele><time>2026-04-27T15:27:26.999Z</time></trkpt><trkpt lat="42.35892444509733" lon="13.517379121980113"><ele>999.0</ele><time>2026-04-27T15:27:27.999Z</time></trkpt><trkpt lat="42.35901117318877" lon="13.517271218942643"><ele>999.0</ele><time>2026-04-27T15:27:28.999Z</time></trkpt><trkpt lat="42.35911626799839" lon="13.517143886141996"><ele>1000.5</ele><time>2026-04-27T15:27:29.999Z</time></trkpt><trkpt lat="42.35920888149648" lon="13.517016996853409"><ele>1002.0</ele><time>2026-04-27T15:27:30.999Z</time></trkpt><trkpt lat="42.35928913713597" lon="13.51688586784564"><ele>1003.5</ele><time>2026-04-27T15:27:31.999Z</time></trkpt><trkpt lat="42.359375268917745" lon="13.516765512783698"><ele>1005.0</ele><time>2026-04-27T15:27:32.999Z</time></trkpt><trkpt lat="42.35946362009909" lon="13.516675177861895"><ele>1005.0</ele><time>2026-04-27T15:27:33.999Z</time></trkpt><trkpt lat="42.359568094602636" lon="13.51662048075711"><ele>1005.0</ele><time>2026-04-27T15:27:34.999Z</time></trkpt><trkpt lat="42.35968584600359" lon="13.516580889266544"><ele>1005.0</ele><time>2026-04-27T15:27:35.999Z</time></trkpt><trkpt lat="42.35981340454179" lon="13.516547030781803"><ele>1005.0</ele><time>2026-04-27T15:27:36.999Z</time></trkpt><trkpt lat="42.35993364811299" lon="13.516522021781835"><ele>1009.25</ele><time>2026-04-27T15:27:37.999Z</time></trkpt><trkpt lat="42.36005915677318" lon="13.516485501568157"><ele>1013.5</ele><time>2026-04-27T15:27:38.999Z</time></trkpt><trkpt lat="42.36018922876696" lon="13.516454075506411"><ele>1017.75</ele><time>2026-04-27T15:27:39.999Z</time></trkpt><trkpt lat="42.360314037650156" lon="13.516438648572626"><ele>1022.0</ele><time>2026-04-27T15:27:40.999Z</time></trkpt><trkpt lat="42.360441236837005" lon="13.516442400880855"><ele>1024.25</ele><time>2026-04-27T15:27:41.999Z</time></trkpt><trkpt lat="42.36056928314123" lon="13.516466062960584"><ele>1026.5</ele><time>2026-04-27T15:27:42.999Z</time></trkpt><trkpt lat="42.360719717724905" lon="13.516513435359457"><ele>1028.75</ele><time>2026-04-27T15:27:43.999Z</time></trkpt><trkpt lat="42.36085769517194" lon="13.51658741316845"><ele>1031.0</ele><time>2026-04-27T15:27:44.999Z</time></trkpt><trkpt lat="42.361000974751065" lon="13.516628081358014"><ele>1031.0</ele><time>2026-04-27T15:27:45.999Z</time></trkpt><trkpt lat="42.36114405192996" lon="13.516626981369054"><ele>1031.0</ele><time>2026-04-27T15:27:46.999Z</time></trkpt><trkpt lat="42.36128108000851" lon="13.516624471523867"><ele>1031.0</ele><time>2026-04-27T15:27:47.999Z</time></trkpt><trkpt lat="42.36142465541541" lon="13.516603793862117"><ele>1031.0</ele><time>2026-04-27T15:27:48.999Z</time></trkpt><trkpt lat="42.361575695063955" lon="13.516575469538111"><ele>1032.5</ele><time>2026-04-27T15:27:49.999Z</time></trkpt><trkpt lat="42.361724989092444" lon="13.516566345999921"><ele>1034.0</ele><time>2026-04-27T15:27:50.999Z</time></trkpt><trkpt lat="42.36187419982723" lon="13.516574350665302"><ele>1035.5</ele><time>2026-04-27T15:27:51.999Z</time></trkpt><trkpt lat="42.36202112872764" lon="13.516584457533803"><ele>1037.0</ele><time>2026-04-27T15:27:52.999Z</time></trkpt><trkpt lat="42.36217139568841" lon="13.51657409490147"><ele>1038.6666666666667</ele><time>2026-04-27T15:27:53.999Z</time></trkpt><trkpt lat="42.36231811679484" lon="13.516561232285804"><ele>1040.3333333333333</ele><time>2026-04-27T15:27:54.999Z</time></trkpt><trkpt lat="42.36247341667854" lon="13.516562421317188"><ele>1042.0</ele><time>2026-04-27T15:27:55.999Z</time></trkpt><trkpt lat="42.36261986087146" lon="13.516592780631012"><ele>1042.0</ele><time>2026-04-27T15:27:56.999Z</time></trkpt><trkpt lat="42.362762905644644" lon="13.516609294886539"><ele>1042.0</ele><time>2026-04-27T15:27:57.999Z</time></trkpt><trkpt lat="42.3629050584249" lon="13.516629498611776"><ele>1042.0</ele><time>2026-04-27T15:27:58.999Z</time></trkpt><trkpt lat="42.36302618901903" lon="13.516692754779312"><ele>1042.0</ele><time>2026-04-27T15:27:59.999Z</time></trkpt><trkpt lat="42.36313904232379" lon="13.516762540971511"><ele>1042.0</ele><time>2026-04-27T15:28:00.999Z</time></trkpt><trkpt lat="42.363238446090875" lon="13.516855796596596"><ele>1042.0</ele><time>2026-04-27T15:28:01.998Z</time></trkpt><trkpt lat="42.363338166052486" lon="13.516948345525742"><ele>1042.0</ele><time>2026-04-27T15:28:02.998Z</time></trkpt><trkpt lat="42.36343361181933" lon="13.517072797377878"><ele>1042.0</ele><time>2026-04-27T15:28:03.998Z</time></trkpt><trkpt lat="42.36355454976231" lon="13.517159650473108"><ele>1045.5</ele><time>2026-04-27T15:28:04.998Z</time></trkpt><trkpt lat="42.36367941594661" lon="13.51723783924535"><ele>1049.0</ele><time>2026-04-27T15:28:05.998Z</time></trkpt><trkpt lat="42.36380664983192" lon="13.517295354531864"><ele>1052.5</ele><time>2026-04-27T15:28:06.998Z</time></trkpt><trkpt lat="42.363939544322726" lon="13.517321092853942"><ele>1056.0</ele><time>2026-04-27T15:28:07.998Z</time></trkpt><trkpt lat="42.36406335810327" lon="13.517338840486964"><ele>1056.0</ele><time>2026-04-27T15:28:08.998Z</time></trkpt><trkpt lat="42.36418735091106" lon="13.517368416742926"><ele>1056.0</ele><time>2026-04-27T15:28:09.998Z</time></trkpt><trkpt lat="42.36431867587092" lon="13.517393336300522"><ele>1056.0</ele><time>2026-04-27T15:28:10.998Z</time></trkpt><trkpt lat="42.36445244913528" lon="13.51741744784606"><ele>1056.0</ele><time>2026-04-27T15:28:11.998Z</time></trkpt><trkpt lat="42.36458679862298" lon="13.517456629401506"><ele>1057.0</ele><time>2026-04-27T15:28:12.998Z</time></trkpt><trkpt lat="42.364720878334076" lon="13.517505687869697"><ele>1058.0</ele><time>2026-04-27T15:28:13.998Z</time></trkpt><trkpt lat="42.36485193403011" lon="13.51755721127193"><ele>1059.0</ele><time>2026-04-27T15:28:14.998Z</time></trkpt><trkpt lat="42.364997205617684" lon="13.51761976374394"><ele>1060.0</ele><time>2026-04-27T15:28:15.998Z</time></trkpt><trkpt lat="42.36512791484235" lon="13.51769050643531"><ele>1060.0</ele><time>2026-04-27T15:28:16.998Z</time></trkpt><trkpt lat="42.36525557284256" lon="13.517762181218988"><ele>1060.0</ele><time>2026-04-27T15:28:17.998Z</time></trkpt><trkpt lat="42.36537854122408" lon="13.517835076109925"><ele>1060.0</ele><time>2026-04-27T15:28:18.998Z</time></trkpt><trkpt lat="42.365506418833554" lon="13.517912263505576"><ele>1060.0</ele><time>2026-04-27T15:28:19.998Z</time></trkpt><trkpt lat="42.3656322008926" lon="13.517978081017702"><ele>1062.25</ele><time>2026-04-27T15:28:20.998Z</time></trkpt><trkpt lat="42.36573863096294" lon="13.518050815949868"><ele>1064.5</ele><time>2026-04-27T15:28:21.998Z</time></trkpt><trkpt lat="42.36581743197297" lon="13.518113715664763"><ele>1066.75</ele><time>2026-04-27T15:28:22.998Z</time></trkpt><trkpt lat="42.3658166645381" lon="13.518217837901743"><ele>1069.0</ele><time>2026-04-27T15:28:24.998Z</time></trkpt><trkpt lat="42.365011565825974" lon="13.51814053965078"><ele>1071.0</ele><time>2026-04-27T15:28:35.998Z</time></trkpt><trkpt lat="42.36485342253704" lon="13.518162711545767"><ele>1073.0</ele><time>2026-04-27T15:28:36.998Z</time></trkpt><trkpt lat="42.364700244401696" lon="13.518186757123523"><ele>1075.0</ele><time>2026-04-27T15:28:38Z</time></trkpt><trkpt lat="42.364618385957776" lon="13.518269800529156"><ele>1077.0</ele><time>2026-04-27T15:28:39Z</time></trkpt><trkpt lat="42.36460997050389" lon="13.518366273011948"><ele>1077.0</ele><time>2026-04-27T15:28:40Z</time></trkpt><trkpt lat="42.36469665806179" lon="13.518510270595547"><ele>1077.0</ele><time>2026-04-27T15:28:41Z</time></trkpt><trkpt lat="42.36480558605289" lon="13.518470387588167"><ele>1077.0</ele><time>2026-04-27T15:28:42Z</time></trkpt><trkpt lat="42.36490096702052" lon="13.518454841709811"><ele>1077.0</ele><time>2026-04-27T15:28:43Z</time></trkpt><trkpt lat="42.365020630188226" lon="13.518488351893373"><ele>1077.0</ele><time>2026-04-27T15:28:44Z</time></trkpt><trkpt lat="42.36514714621811" lon="13.518546516687927"><ele>1077.0</ele><time>2026-04-27T15:28:45Z</time></trkpt><trkpt lat="42.365244752198365" lon="13.518627158921529"><ele>1077.0</ele><time>2026-04-27T15:28:46Z</time></trkpt><trkpt lat="42.36532976172255" lon="13.518722040053204"><ele>1077.0</ele><time>2026-04-27T15:28:47Z</time></trkpt><trkpt lat="42.36543449015303" lon="13.51883319392888"><ele>1079.0</ele><time>2026-04-27T15:28:48Z</time></trkpt><trkpt lat="42.365550314467875" lon="13.518951510612238"><ele>1081.0</ele><time>2026-04-27T15:28:49Z</time></trkpt><trkpt lat="42.36565876218584" lon="13.519063747004255"><ele>1083.0</ele><time>2026-04-27T15:28:50Z</time></trkpt><trkpt lat="42.36574439871061" lon="13.519164852480671"><ele>1085.0</ele><time>2026-04-27T15:28:51Z</time></trkpt><trkpt lat="42.365791142405925" lon="13.519243241713033"><ele>1085.0</ele><time>2026-04-27T15:28:52Z</time></trkpt><trkpt lat="42.36579986136175" lon="13.519434566203044"><ele>1085.0</ele><time>2026-04-27T15:28:54Z</time></trkpt><trkpt lat="42.365793712606035" lon="13.519572676531608"><ele>1085.0</ele><time>2026-04-27T15:28:55Z</time></trkpt><trkpt lat="42.36579661492481" lon="13.519756973700122"><ele>1085.0</ele><time>2026-04-27T15:28:56Z</time></trkpt><trkpt lat="42.365794976066965" lon="13.5199224861546"><ele>1087.75</ele><time>2026-04-27T15:28:57Z</time></trkpt><trkpt lat="42.365792727199036" lon="13.520122504221252"><ele>1090.5</ele><time>2026-04-27T15:28:58Z</time></trkpt><trkpt lat="42.36579455280086" lon="13.520306766401099"><ele>1093.25</ele><time>2026-04-27T15:28:59Z</time></trkpt><trkpt lat="42.36581602719383" lon="13.520507974230075"><ele>1096.0</ele><time>2026-04-27T15:29:00Z</time></trkpt><trkpt lat="42.365848537404354" lon="13.520692318247761"><ele>1096.75</ele><time>2026-04-27T15:29:00.999Z</time></trkpt><trkpt lat="42.365869963319774" lon="13.520867905222136"><ele>1097.5</ele><time>2026-04-27T15:29:01.999Z</time></trkpt><trkpt lat="42.365862556203275" lon="13.521016705795322"><ele>1098.25</ele><time>2026-04-27T15:29:02.999Z</time></trkpt><trkpt lat="42.365846459077616" lon="13.521213151020016"><ele>1099.0</ele><time>2026-04-27T15:29:04.999Z</time></trkpt><trkpt lat="42.365831985162984" lon="13.521358515766407"><ele>1099.5</ele><time>2026-04-27T15:29:05.999Z</time></trkpt><trkpt lat="42.365816814181976" lon="13.521525176338384"><ele>1100.0</ele><time>2026-04-27T15:29:06.999Z</time></trkpt><trkpt lat="42.36578383602794" lon="13.521677572304894"><ele>1100.5</ele><time>2026-04-27T15:29:07.999Z</time></trkpt><trkpt lat="42.36574501408147" lon="13.521838878625072"><ele>1101.0</ele><time>2026-04-27T15:29:08.999Z</time></trkpt><trkpt lat="42.36574110287973" lon="13.52197712835958"><ele>1102.3999999999999</ele><time>2026-04-27T15:29:09.999Z</time></trkpt><trkpt lat="42.36575825619939" lon="13.522121499966694"><ele>1103.8</ele><time>2026-04-27T15:29:10.999Z</time></trkpt><trkpt lat="42.36574700528917" lon="13.52225646674226"><ele>1105.1999999999998</ele><time>2026-04-27T15:29:11.999Z</time></trkpt><trkpt lat="42.36572774218954" lon="13.522361796089172"><ele>1106.6</ele><time>2026-04-27T15:29:12.999Z</time></trkpt><trkpt lat="42.36564442049162" lon="13.52249084961746"><ele>1108.0</ele><time>2026-04-27T15:29:14.999Z</time></trkpt><trkpt lat="42.36558659692766" lon="13.52258464966378"><ele>1108.25</ele><time>2026-04-27T15:29:15.999Z</time></trkpt><trkpt lat="42.3655208244654" lon="13.522691702131317"><ele>1108.5</ele><time>2026-04-27T15:29:16.999Z</time></trkpt><trkpt lat="42.36544997100887" lon="13.522809145101174"><ele>1108.75</ele><time>2026-04-27T15:29:17.999Z</time></trkpt><trkpt lat="42.365369783770866" lon="13.52293684499969"><ele>1109.0</ele><time>2026-04-27T15:29:18.999Z</time></trkpt><trkpt lat="42.365292734779" lon="13.523053836416617"><ele>1110.25</ele><time>2026-04-27T15:29:19.999Z</time></trkpt><trkpt lat="42.36520024676415" lon="13.523184675724607"><ele>1111.5</ele><time>2026-04-27T15:29:20.999Z</time></trkpt><trkpt lat="42.365107241871584" lon="13.523313985282725"><ele>1112.75</ele><time>2026-04-27T15:29:21.999Z</time></trkpt><trkpt lat="42.36500959050088" lon="13.523449755130713"><ele>1114.0</ele><time>2026-04-27T15:29:22.999Z</time></trkpt><trkpt lat="42.3649099906886" lon="13.523588923839487"><ele>1114.0</ele><time>2026-04-27T15:29:23.999Z</time></trkpt><trkpt lat="42.36481601737869" lon="13.523724767569254"><ele>1114.0</ele><time>2026-04-27T15:29:24.999Z</time></trkpt><trkpt lat="42.3647368672077" lon="13.523857504025068"><ele>1114.0</ele><time>2026-04-27T15:29:25.999Z</time></trkpt><trkpt lat="42.364674018738235" lon="13.52400794043926"><ele>1114.0</ele><time>2026-04-27T15:29:26.999Z</time></trkpt><trkpt lat="42.36461832199198" lon="13.52415776841061"><ele>1116.0</ele><time>2026-04-27T15:29:27.999Z</time></trkpt><trkpt lat="42.364582282938855" lon="13.524313300629718"><ele>1118.0</ele><time>2026-04-27T15:29:28.999Z</time></trkpt><trkpt lat="42.36453539564567" lon="13.524476261668838"><ele>1120.0</ele><time>2026-04-27T15:29:29.999Z</time></trkpt><trkpt lat="42.36449660235871" lon="13.524660364853121"><ele>1122.0</ele><time>2026-04-27T15:29:30.999Z</time></trkpt><trkpt lat="42.36447183896542" lon="13.524847244865732"><ele>1122.25</ele><time>2026-04-27T15:29:31.999Z</time></trkpt><trkpt lat="42.36446317255342" lon="13.525009491987213"><ele>1122.5</ele><time>2026-04-27T15:29:32.999Z</time></trkpt><trkpt lat="42.36449192481877" lon="13.525176223219091"><ele>1122.75</ele><time>2026-04-27T15:29:33.999Z</time></trkpt><trkpt lat="42.364544085720105" lon="13.525362463423622"><ele>1123.0</ele><time>2026-04-27T15:29:34.999Z</time></trkpt><trkpt lat="42.36456591601107" lon="13.525563409664375"><ele>1123.3333333333333</ele><time>2026-04-27T15:29:35.999Z</time></trkpt><trkpt lat="42.364573888025035" lon="13.525753183798729"><ele>1123.6666666666667</ele><time>2026-04-27T15:29:36.999Z</time></trkpt><trkpt lat="42.364570189712346" lon="13.52596689326416"><ele>1124.0</ele><time>2026-04-27T15:29:37.999Z</time></trkpt><trkpt lat="42.36455139027937" lon="13.526179124282907"><ele>1124.6666666666667</ele><time>2026-04-27T15:29:38.999Z</time></trkpt><trkpt lat="42.36451962651041" lon="13.526384912604954"><ele>1125.3333333333333</ele><time>2026-04-27T15:29:39.999Z</time></trkpt><trkpt lat="42.364506960204004" lon="13.526602486993955"><ele>1126.0</ele><time>2026-04-27T15:29:40.999Z</time></trkpt><trkpt lat="42.36451335869527" lon="13.52678810085483"><ele>1126.0</ele><time>2026-04-27T15:29:41.999Z</time></trkpt><trkpt lat="42.36453035300212" lon="13.526976983512547"><ele>1126.0</ele><time>2026-04-27T15:29:42.999Z</time></trkpt><trkpt lat="42.36455323663568" lon="13.527163083268357"><ele>1126.0</ele><time>2026-04-27T15:29:43.999Z</time></trkpt><trkpt lat="42.36459534644102" lon="13.527340133230263"><ele>1126.0</ele><time>2026-04-27T15:29:44.999Z</time></trkpt><trkpt lat="42.36462472161315" lon="13.527519869989863"><ele>1127.5</ele><time>2026-04-27T15:29:45.999Z</time></trkpt><trkpt lat="42.36460121277813" lon="13.527690821208017"><ele>1129.0</ele><time>2026-04-27T15:29:46.999Z</time></trkpt><trkpt lat="42.364594413724944" lon="13.527868678989524"><ele>1130.5</ele><time>2026-04-27T15:29:47.999Z</time></trkpt><trkpt lat="42.36457251422902" lon="13.528048326975048"><ele>1132.0</ele><time>2026-04-27T15:29:48.999Z</time></trkpt><trkpt lat="42.36454174716753" lon="13.52824316179986"><ele>1133.5</ele><time>2026-04-27T15:29:49.999Z</time></trkpt><trkpt lat="42.364512738255954" lon="13.52845271907854"><ele>1135.0</ele><time>2026-04-27T15:29:50.999Z</time></trkpt><trkpt lat="42.36451970007555" lon="13.528650998854937"><ele>1136.5</ele><time>2026-04-27T15:29:51.999Z</time></trkpt><trkpt lat="42.36451874517721" lon="13.52882295690703"><ele>1138.0</ele><time>2026-04-27T15:29:52.999Z</time></trkpt><trkpt lat="42.36454212279232" lon="13.529004084555583"><ele>1140.0</ele><time>2026-04-27T15:29:53.999Z</time></trkpt><trkpt lat="42.364522387086566" lon="13.529192849873501"><ele>1142.0</ele><time>2026-04-27T15:29:54.999Z</time></trkpt><trkpt lat="42.364531967414045" lon="13.529336745365928"><ele>1144.0</ele><time>2026-04-27T15:29:55.999Z</time></trkpt><trkpt lat="42.364549801537144" lon="13.529441943599043"><ele>1146.0</ele><time>2026-04-27T15:29:56.999Z</time></trkpt><trkpt lat="42.36459632300508" lon="13.52951682479047"><ele>1148.0</ele><time>2026-04-27T15:29:57.999Z</time></trkpt><trkpt lat="42.36468616794531" lon="13.52949646411417"><ele>1149.6</ele><time>2026-04-27T15:29:58.999Z</time></trkpt><trkpt lat="42.3647554670288" lon="13.529430441478205"><ele>1151.1999999999998</ele><time>2026-04-27T15:29:59.999Z</time></trkpt><trkpt lat="42.36481762398627" lon="13.529313296882528"><ele>1152.8</ele><time>2026-04-27T15:30:00.999Z</time></trkpt><trkpt lat="42.364857271942704" lon="13.529161662883494"><ele>1154.3999999999999</ele><time>2026-04-27T15:30:01.999Z</time></trkpt><trkpt lat="42.364912183775886" lon="13.52901841676664"><ele>1156.0</ele><time>2026-04-27T15:30:02.999Z</time></trkpt><trkpt lat="42.365023426849255" lon="13.528933207721202"><ele>1156.0</ele><time>2026-04-27T15:30:03.999Z</time></trkpt><trkpt lat="42.36514769896348" lon="13.528835561665852"><ele>1156.0</ele><time>2026-04-27T15:30:04.999Z</time></trkpt><trkpt lat="42.36528554184946" lon="13.52873073336481"><ele>1156.0</ele><time>2026-04-27T15:30:05.998Z</time></trkpt><trkpt lat="42.365404040706096" lon="13.528664628714354"><ele>1156.0</ele><time>2026-04-27T15:30:06.998Z</time></trkpt><trkpt lat="42.36548503062657" lon="13.528630327165633"><ele>1156.0</ele><time>2026-04-27T15:30:07.998Z</time></trkpt><trkpt lat="42.365557279921354" lon="13.528660654434603"><ele>1156.0</ele><time>2026-04-27T15:30:09.998Z</time></trkpt><trkpt lat="42.36555679422432" lon="13.528785442313591"><ele>1156.0</ele><time>2026-04-27T15:30:11.998Z</time></trkpt><trkpt lat="42.365413182828156" lon="13.528823363415547"><ele>1156.0</ele><time>2026-04-27T15:30:12.998Z</time></trkpt><trkpt lat="42.36532790419528" lon="13.528886547339964"><ele>1156.0</ele><time>2026-04-27T15:30:13.998Z</time></trkpt><trkpt lat="42.36524300967978" lon="13.528962009011414"><ele>1156.0</ele><time>2026-04-27T15:30:14.998Z</time></trkpt><trkpt lat="42.36515705906888" lon="13.529078564436855"><ele>1156.0</ele><time>2026-04-27T15:30:15.998Z</time></trkpt><trkpt lat="42.36509872022238" lon="13.529243585428018"><ele>1156.0</ele><time>2026-04-27T15:30:16.998Z</time></trkpt><trkpt lat="42.36505986348552" lon="13.529416879968412"><ele>1156.0</ele><time>2026-04-27T15:30:17.998Z</time></trkpt><trkpt lat="42.36505864449763" lon="13.52956238161278"><ele>1157.25</ele><time>2026-04-27T15:30:18.998Z</time></trkpt><trkpt lat="42.36509169508705" lon="13.529715068658323"><ele>1158.5</ele><time>2026-04-27T15:30:19.998Z</time></trkpt><trkpt lat="42.365144049023556" lon="13.529865302820514"><ele>1159.75</ele><time>2026-04-27T15:30:20.998Z</time></trkpt><trkpt lat="42.36522248880848" lon="13.529978052863806"><ele>1161.0</ele><time>2026-04-27T15:30:21.998Z</time></trkpt><trkpt lat="42.36532977024836" lon="13.530084752952012"><ele>1161.0</ele><time>2026-04-27T15:30:22.998Z</time></trkpt><trkpt lat="42.36542819270109" lon="13.530201297843998"><ele>1161.0</ele><time>2026-04-27T15:30:23.998Z</time></trkpt><trkpt lat="42.3655052941779" lon="13.530312188918336"><ele>1161.0</ele><time>2026-04-27T15:30:24.998Z</time></trkpt><trkpt lat="42.365572723721215" lon="13.530443507766984"><ele>1161.0</ele><time>2026-04-27T15:30:25.998Z</time></trkpt><trkpt lat="42.36559822658963" lon="13.530594111918914"><ele>1164.0</ele><time>2026-04-27T15:30:26.998Z</time></trkpt><trkpt lat="42.365611849071776" lon="13.53076986216804"><ele>1167.0</ele><time>2026-04-27T15:30:27.998Z</time></trkpt><trkpt lat="42.36563533302788" lon="13.530952132669649"><ele>1170.0</ele><time>2026-04-27T15:30:28.998Z</time></trkpt><trkpt lat="42.365674797342976" lon="13.53112795396068"><ele>1173.0</ele><time>2026-04-27T15:30:29.998Z</time></trkpt><trkpt lat="42.36575485631018" lon="13.531290936176939"><ele>1174.25</ele><time>2026-04-27T15:30:30.998Z</time></trkpt><trkpt lat="42.365828775667886" lon="13.531442635327537"><ele>1175.5</ele><time>2026-04-27T15:30:31.998Z</time></trkpt><trkpt lat="42.365913484604576" lon="13.531599533098754"><ele>1176.75</ele><time>2026-04-27T15:30:32.998Z</time></trkpt><trkpt lat="42.36598082430719" lon="13.531767019151046"><ele>1178.0</ele><time>2026-04-27T15:30:33.998Z</time></trkpt><trkpt lat="42.366030833192305" lon="13.531923829346255"><ele>1178.2</ele><time>2026-04-27T15:30:34.998Z</time></trkpt><trkpt lat="42.36606836731245" lon="13.532072799337465"><ele>1178.4</ele><time>2026-04-27T15:30:35.998Z</time></trkpt><trkpt lat="42.36607599774293" lon="13.532208550232694"><ele>1178.6000000000001</ele><time>2026-04-27T15:30:36.998Z</time></trkpt><trkpt lat="42.36606605115343" lon="13.532356174417306"><ele>1178.8</ele><time>2026-04-27T15:30:37.998Z</time></trkpt><trkpt lat="42.36603872067013" lon="13.532477469303608"><ele>1179.0</ele><time>2026-04-27T15:30:38.998Z</time></trkpt><trkpt lat="42.36598373283306" lon="13.532586719597294"><ele>1179.0</ele><time>2026-04-27T15:30:39.998Z</time></trkpt><trkpt lat="42.365906559206216" lon="13.53270521430688"><ele>1179.0</ele><time>2026-04-27T15:30:40.998Z</time></trkpt><trkpt lat="42.365808920814956" lon="13.532824053425887"><ele>1179.0</ele><time>2026-04-27T15:30:41.998Z</time></trkpt><trkpt lat="42.365696775007436" lon="13.532926575055907"><ele>1179.0</ele><time>2026-04-27T15:30:42.998Z</time></trkpt><trkpt lat="42.36557391618658" lon="13.533009967244503"><ele>1185.0</ele><time>2026-04-27T15:30:44Z</time></trkpt><trkpt lat="42.36545450369114" lon="13.533103663869907"><ele>1191.0</ele><time>2026-04-27T15:30:45Z</time></trkpt><trkpt lat="42.365338638236736" lon="13.533208390152282"><ele>1197.0</ele><time>2026-04-27T15:30:46Z</time></trkpt><trkpt lat="42.36523688505477" lon="13.533341901897145"><ele>1203.0</ele><time>2026-04-27T15:30:47Z</time></trkpt><trkpt lat="42.365160360372414" lon="13.53349500282871"><ele>1203.0</ele><time>2026-04-27T15:30:48Z</time></trkpt><trkpt lat="42.365111350096015" lon="13.53365429297199"><ele>1203.0</ele><time>2026-04-27T15:30:49Z</time></trkpt><trkpt lat="42.3650875018897" lon="13.533828243048687"><ele>1203.0</ele><time>2026-04-27T15:30:50Z</time></trkpt><trkpt lat="42.36507090627455" lon="13.534024886316816"><ele>1203.0</ele><time>2026-04-27T15:30:51Z</time></trkpt><trkpt lat="42.365052941935765" lon="13.534218198181579"><ele>1204.25</ele><time>2026-04-27T15:30:52Z</time></trkpt><trkpt lat="42.36503489843058" lon="13.534413488472355"><ele>1205.5</ele><time>2026-04-27T15:30:53Z</time></trkpt><trkpt lat="42.36500247814954" lon="13.534612079012595"><ele>1206.75</ele><time>2026-04-27T15:30:54Z</time></trkpt><trkpt lat="42.365007981599774" lon="13.534800606739331"><ele>1208.0</ele><time>2026-04-27T15:30:55Z</time></trkpt><trkpt lat="42.36501348417346" lon="13.535012555542558"><ele>1209.25</ele><time>2026-04-27T15:30:56Z</time></trkpt><trkpt lat="42.365004890499044" lon="13.535205017264937"><ele>1210.5</ele><time>2026-04-27T15:30:57Z</time></trkpt><trkpt lat="42.36497888765674" lon="13.53538934951022"><ele>1211.75</ele><time>2026-04-27T15:30:58Z</time></trkpt><trkpt lat="42.36494107399154" lon="13.53557460235547"><ele>1213.0</ele><time>2026-04-27T15:30:59Z</time></trkpt><trkpt lat="42.36489558213935" lon="13.53576290673396"><ele>1213.3333333333333</ele><time>2026-04-27T15:31:00Z</time></trkpt><trkpt lat="42.364847199688846" lon="13.53595393192444"><ele>1213.6666666666667</ele><time>2026-04-27T15:31:01Z</time></trkpt><trkpt lat="42.36479439822118" lon="13.536140092712072"><ele>1214.0</ele><time>2026-04-27T15:31:02Z</time></trkpt><trkpt lat="42.364752878833" lon="13.536344546059276"><ele>1214.5</ele><time>2026-04-27T15:31:03Z</time></trkpt><trkpt lat="42.364713458597336" lon="13.536548352957986"><ele>1215.0</ele><time>2026-04-27T15:31:04Z</time></trkpt><trkpt lat="42.36467566446041" lon="13.536753775346666"><ele>1215.5</ele><time>2026-04-27T15:31:04.999Z</time></trkpt><trkpt lat="42.36464351504288" lon="13.536929629281007"><ele>1216.0</ele><time>2026-04-27T15:31:05.999Z</time></trkpt><trkpt lat="42.3645670548576" lon="13.53708417352491"><ele>1216.75</ele><time>2026-04-27T15:31:06.999Z</time></trkpt><trkpt lat="42.364474004826214" lon="13.537245118333358"><ele>1217.5</ele><time>2026-04-27T15:31:07.999Z</time></trkpt><trkpt lat="42.36438736731002" lon="13.537398781411325"><ele>1218.25</ele><time>2026-04-27T15:31:08.999Z</time></trkpt><trkpt lat="42.36429275001101" lon="13.537561455793831"><ele>1219.0</ele><time>2026-04-27T15:31:09.999Z</time></trkpt><trkpt lat="42.36419517746236" lon="13.537725391606685"><ele>1220.25</ele><time>2026-04-27T15:31:10.999Z</time></trkpt><trkpt lat="42.36410204734764" lon="13.537905778106948"><ele>1221.5</ele><time>2026-04-27T15:31:11.999Z</time></trkpt><trkpt lat="42.3640189921576" lon="13.538075731409037"><ele>1222.75</ele><time>2026-04-27T15:31:12.999Z</time></trkpt><trkpt lat="42.36395248750495" lon="13.538208738729494"><ele>1224.0</ele><time>2026-04-27T15:31:13.999Z</time></trkpt><trkpt lat="42.36385516939368" lon="13.538326631427129"><ele>1224.0</ele><time>2026-04-27T15:31:14.999Z</time></trkpt><trkpt lat="42.363741758140385" lon="13.538454338957301"><ele>1224.0</ele><time>2026-04-27T15:31:15.999Z</time></trkpt><trkpt lat="42.36362440146867" lon="13.538583400861269"><ele>1224.0</ele><time>2026-04-27T15:31:16.999Z</time></trkpt><trkpt lat="42.36349837359316" lon="13.538741443236617"><ele>1225.3333333333333</ele><time>2026-04-27T15:31:17.999Z</time></trkpt><trkpt lat="42.36337982957335" lon="13.538897442345162"><ele>1226.6666666666665</ele><time>2026-04-27T15:31:18.999Z</time></trkpt><trkpt lat="42.363264682966786" lon="13.539054202740898"><ele>1228.0</ele><time>2026-04-27T15:31:19.999Z</time></trkpt><trkpt lat="42.363152908343736" lon="13.539217681630904"><ele>1228.0</ele><time>2026-04-27T15:31:20.999Z</time></trkpt><trkpt lat="42.3630463450932" lon="13.539383796943065"><ele>1228.0</ele><time>2026-04-27T15:31:21.999Z</time></trkpt><trkpt lat="42.36293885102831" lon="13.539546439817675"><ele>1228.0</ele><time>2026-04-27T15:31:22.999Z</time></trkpt><trkpt lat="42.36282580380995" lon="13.539701078112548"><ele>1227.3333333333333</ele><time>2026-04-27T15:31:24Z</time></trkpt><trkpt lat="42.36271203893354" lon="13.53985460078533"><ele>1226.6666666666667</ele><time>2026-04-27T15:31:25Z</time></trkpt><trkpt lat="42.36261286164984" lon="13.539999878176326"><ele>1226.0</ele><time>2026-04-27T15:31:26Z</time></trkpt><trkpt lat="42.3625304051955" lon="13.540183947202804"><ele>1227.3333333333335</ele><time>2026-04-27T15:31:27Z</time></trkpt><trkpt lat="42.36246030621367" lon="13.54039019663224"><ele>1228.6666666666667</ele><time>2026-04-27T15:31:28Z</time></trkpt><trkpt lat="42.3623933162605" lon="13.540615073244156"><ele>1230.0</ele><time>2026-04-27T15:31:29Z</time></trkpt><trkpt lat="42.36233442371893" lon="13.540844572847867"><ele>1230.0</ele><time>2026-04-27T15:31:30Z</time></trkpt><trkpt lat="42.36227795980224" lon="13.541082096915448"><ele>1230.0</ele><time>2026-04-27T15:31:31Z</time></trkpt><trkpt lat="42.36221968879881" lon="13.541325122345704"><ele>1230.0</ele><time>2026-04-27T15:31:32Z</time></trkpt><trkpt lat="42.36215254042631" lon="13.541566390487525"><ele>1230.0</ele><time>2026-04-27T15:31:33Z</time></trkpt><trkpt lat="42.36208138142337" lon="13.541811368501582"><ele>1230.0</ele><time>2026-04-27T15:31:34Z</time></trkpt><trkpt lat="42.36201812444364" lon="13.542048587324581"><ele>1230.0</ele><time>2026-04-27T15:31:35Z</time></trkpt><trkpt lat="42.36194394312259" lon="13.542288310065786"><ele>1230.0</ele><time>2026-04-27T15:31:36Z</time></trkpt><trkpt lat="42.3618703633222" lon="13.54251897981779"><ele>1230.0</ele><time>2026-04-27T15:31:37Z</time></trkpt><trkpt lat="42.36180557041308" lon="13.542727095615366"><ele>1230.0</ele><time>2026-04-27T15:31:38Z</time></trkpt><trkpt lat="42.361767000991655" lon="13.542888612314991"><ele>1230.0</ele><time>2026-04-27T15:31:39Z</time></trkpt><trkpt lat="42.36175212632738" lon="13.543079857241453"><ele>1230.0</ele><time>2026-04-27T15:31:40Z</time></trkpt><trkpt lat="42.361763340466645" lon="13.543302603520443"><ele>1230.0</ele><time>2026-04-27T15:31:41Z</time></trkpt><trkpt lat="42.36176918821769" lon="13.543519784251785"><ele>1231.0</ele><time>2026-04-27T15:31:42Z</time></trkpt><trkpt lat="42.36175279685978" lon="13.543739250954609"><ele>1232.0</ele><time>2026-04-27T15:31:43Z</time></trkpt><trkpt lat="42.36170733485257" lon="13.5439563172122"><ele>1233.0</ele><time>2026-04-27T15:31:44Z</time></trkpt><trkpt lat="42.36164662714058" lon="13.544166468764073"><ele>1233.0</ele><time>2026-04-27T15:31:45Z</time></trkpt><trkpt lat="42.36159515717675" lon="13.544392596556996"><ele>1233.0</ele><time>2026-04-27T15:31:46Z</time></trkpt><trkpt lat="42.36156467929763" lon="13.544625311957343"><ele>1233.0</ele><time>2026-04-27T15:31:47Z</time></trkpt><trkpt lat="42.36153825918117" lon="13.544820430121966"><ele>1233.6666666666667</ele><time>2026-04-27T15:31:48Z</time></trkpt><trkpt lat="42.36152592575989" lon="13.545010747075814"><ele>1234.3333333333335</ele><time>2026-04-27T15:31:49Z</time></trkpt><trkpt lat="42.36153438071629" lon="13.545216715973567"><ele>1235.0</ele><time>2026-04-27T15:31:50Z</time></trkpt><trkpt lat="42.361549064879306" lon="13.545428007338227"><ele>1235.0</ele><time>2026-04-27T15:31:51Z</time></trkpt><trkpt lat="42.3615528387534" lon="13.545632573585632"><ele>1235.0</ele><time>2026-04-27T15:31:52Z</time></trkpt><trkpt lat="42.36152950051757" lon="13.545812167020241"><ele>1235.0</ele><time>2026-04-27T15:31:53Z</time></trkpt><trkpt lat="42.36151117492479" lon="13.545962848179748"><ele>1235.0</ele><time>2026-04-27T15:31:54Z</time></trkpt><trkpt lat="42.36152283251375" lon="13.546097345889024"><ele>1234.6</ele><time>2026-04-27T15:31:55Z</time></trkpt><trkpt lat="42.36156591802809" lon="13.546230883297126"><ele>1234.2</ele><time>2026-04-27T15:31:56Z</time></trkpt><trkpt lat="42.361604808235036" lon="13.546361860921037"><ele>1233.8</ele><time>2026-04-27T15:31:57Z</time></trkpt><trkpt lat="42.36160064109144" lon="13.546501530348426"><ele>1233.4</ele><time>2026-04-27T15:31:58Z</time></trkpt><trkpt lat="42.36156349907934" lon="13.546663237006488"><ele>1233.0</ele><time>2026-04-27T15:31:59Z</time></trkpt><trkpt lat="42.36150956514757" lon="13.546807637395043"><ele>1233.0</ele><time>2026-04-27T15:32:00Z</time></trkpt><trkpt lat="42.36143421947607" lon="13.546937922985785"><ele>1233.0</ele><time>2026-04-27T15:32:01Z</time></trkpt><trkpt lat="42.36134753911348" lon="13.547061262832276"><ele>1233.0</ele><time>2026-04-27T15:32:02Z</time></trkpt><trkpt lat="42.36126541546361" lon="13.547206042215308"><ele>1233.0</ele><time>2026-04-27T15:32:03Z</time></trkpt><trkpt lat="42.36121377626629" lon="13.547384836795079"><ele>1231.0</ele><time>2026-04-27T15:32:04Z</time></trkpt><trkpt lat="42.361144909108525" lon="13.54755817976204"><ele>1229.0</ele><time>2026-04-27T15:32:05Z</time></trkpt><trkpt lat="42.36107704116495" lon="13.54771278453966"><ele>1227.0</ele><time>2026-04-27T15:32:06Z</time></trkpt><trkpt lat="42.361012703935224" lon="13.547866359514007"><ele>1225.0</ele><time>2026-04-27T15:32:07Z</time></trkpt><trkpt lat="42.3609486436388" lon="13.54799644712827"><ele>1225.0</ele><time>2026-04-27T15:32:07.999Z</time></trkpt><trkpt lat="42.36085891227826" lon="13.54810179089975"><ele>1225.0</ele><time>2026-04-27T15:32:08.999Z</time></trkpt><trkpt lat="42.36076094819267" lon="13.548219593429641"><ele>1225.0</ele><time>2026-04-27T15:32:09.999Z</time></trkpt><trkpt lat="42.360688380503426" lon="13.54837132749909"><ele>1225.0</ele><time>2026-04-27T15:32:10.999Z</time></trkpt><trkpt lat="42.36063559952356" lon="13.548553179144331"><ele>1223.3333333333333</ele><time>2026-04-27T15:32:11.999Z</time></trkpt><trkpt lat="42.36059185986049" lon="13.548760784848131"><ele>1221.6666666666667</ele><time>2026-04-27T15:32:12.999Z</time></trkpt><trkpt lat="42.36055960723348" lon="13.54895953981307"><ele>1220.0</ele><time>2026-04-27T15:32:13.999Z</time></trkpt><trkpt lat="42.36053877953463" lon="13.549155607161866"><ele>1219.5</ele><time>2026-04-27T15:32:14.999Z</time></trkpt><trkpt lat="42.36051267121446" lon="13.549338848133168"><ele>1219.0</ele><time>2026-04-27T15:32:15.999Z</time></trkpt><trkpt lat="42.360476790350745" lon="13.549515317283177"><ele>1218.5</ele><time>2026-04-27T15:32:16.999Z</time></trkpt><trkpt lat="42.360424785728476" lon="13.549688369213381"><ele>1218.0</ele><time>2026-04-27T15:32:17.999Z</time></trkpt><trkpt lat="42.360385732961824" lon="13.549877886850231"><ele>1217.0</ele><time>2026-04-27T15:32:18.999Z</time></trkpt><trkpt lat="42.36035755066331" lon="13.550083304494915"><ele>1216.0</ele><time>2026-04-27T15:32:19.999Z</time></trkpt><trkpt lat="42.36032756589327" lon="13.550286032307605"><ele>1215.0</ele><time>2026-04-27T15:32:20.999Z</time></trkpt><trkpt lat="42.36029031262409" lon="13.550493442748067"><ele>1214.3333333333333</ele><time>2026-04-27T15:32:21.999Z</time></trkpt><trkpt lat="42.36024871330172" lon="13.550712252385729"><ele>1213.6666666666665</ele><time>2026-04-27T15:32:22.999Z</time></trkpt><trkpt lat="42.36020391001182" lon="13.550935021444474"><ele>1213.0</ele><time>2026-04-27T15:32:23.999Z</time></trkpt><trkpt lat="42.36015125161267" lon="13.551156841906117"><ele>1212.6666666666665</ele><time>2026-04-27T15:32:24.999Z</time></trkpt><trkpt lat="42.36009842001543" lon="13.551385906864537"><ele>1212.3333333333333</ele><time>2026-04-27T15:32:25.999Z</time></trkpt><trkpt lat="42.36005113850354" lon="13.551620191129437"><ele>1212.0</ele><time>2026-04-27T15:32:26.999Z</time></trkpt><trkpt lat="42.36000246349634" lon="13.551850811721913"><ele>1211.3333333333333</ele><time>2026-04-27T15:32:27.999Z</time></trkpt><trkpt lat="42.359938429858225" lon="13.552067076507658"><ele>1210.6666666666665</ele><time>2026-04-27T15:32:28.999Z</time></trkpt><trkpt lat="42.359870706717295" lon="13.552263050384916"><ele>1210.0</ele><time>2026-04-27T15:32:29.999Z</time></trkpt><trkpt lat="42.35980777847671" lon="13.552437735826707"><ele>1210.0</ele><time>2026-04-27T15:32:30.999Z</time></trkpt><trkpt lat="42.35971740346726" lon="13.5525921065664"><ele>1210.0</ele><time>2026-04-27T15:32:31.999Z</time></trkpt><trkpt lat="42.3596104835407" lon="13.552758167290436"><ele>1210.0</ele><time>2026-04-27T15:32:32.999Z</time></trkpt><trkpt lat="42.3595183499773" lon="13.552940060436551"><ele>1210.25</ele><time>2026-04-27T15:32:33.999Z</time></trkpt><trkpt lat="42.3594351969825" lon="13.553121868680044"><ele>1210.5</ele><time>2026-04-27T15:32:34.999Z</time></trkpt><trkpt lat="42.35936720505166" lon="13.553300422619257"><ele>1210.75</ele><time>2026-04-27T15:32:35.999Z</time></trkpt><trkpt lat="42.359316672729285" lon="13.553470775428968"><ele>1211.0</ele><time>2026-04-27T15:32:36.999Z</time></trkpt><trkpt lat="42.35927073197154" lon="13.553641863430032"><ele>1211.3333333333335</ele><time>2026-04-27T15:32:37.999Z</time></trkpt><trkpt lat="42.35922235280335" lon="13.55382737449221"><ele>1211.6666666666667</ele><time>2026-04-27T15:32:38.999Z</time></trkpt><trkpt lat="42.35915627322891" lon="13.55402074068897"><ele>1212.0</ele><time>2026-04-27T15:32:39.999Z</time></trkpt><trkpt lat="42.359069280743775" lon="13.554207023994088"><ele>1212.0</ele><time>2026-04-27T15:32:40.999Z</time></trkpt><trkpt lat="42.35897838370276" lon="13.554391177126927"><ele>1212.0</ele><time>2026-04-27T15:32:41.999Z</time></trkpt><trkpt lat="42.35889668726823" lon="13.554586702417044"><ele>1212.0</ele><time>2026-04-27T15:32:42.999Z</time></trkpt><trkpt lat="42.358823858978546" lon="13.554780580171185"><ele>1213.25</ele><time>2026-04-27T15:32:43.999Z</time></trkpt><trkpt lat="42.35875761821635" lon="13.55495232678357"><ele>1214.5</ele><time>2026-04-27T15:32:44.999Z</time></trkpt><trkpt lat="42.35869532105824" lon="13.5551273620406"><ele>1215.75</ele><time>2026-04-27T15:32:45.999Z</time></trkpt><trkpt lat="42.358639627795114" lon="13.55530866892133"><ele>1217.0</ele><time>2026-04-27T15:32:46.999Z</time></trkpt><trkpt lat="42.35858613367503" lon="13.555491956431506"><ele>1217.0</ele><time>2026-04-27T15:32:47.999Z</time></trkpt><trkpt lat="42.358526298898894" lon="13.555668774107945"><ele>1217.0</ele><time>2026-04-27T15:32:48.999Z</time></trkpt><trkpt lat="42.35848341318752" lon="13.555835990519396"><ele>1217.0</ele><time>2026-04-27T15:32:50.001Z</time></trkpt><trkpt lat="42.35844740567227" lon="13.555994544279661"><ele>1217.0</ele><time>2026-04-27T15:32:51.001Z</time></trkpt><trkpt lat="42.35842777945812" lon="13.556151456179741"><ele>1215.5</ele><time>2026-04-27T15:32:52.001Z</time></trkpt><trkpt lat="42.358439330178456" lon="13.55633856471273"><ele>1214.0</ele><time>2026-04-27T15:32:53.001Z</time></trkpt><trkpt lat="42.35846235354253" lon="13.556539752343287"><ele>1212.5</ele><time>2026-04-27T15:32:54.001Z</time></trkpt><trkpt lat="42.35848505318969" lon="13.55672889130781"><ele>1211.0</ele><time>2026-04-27T15:32:55.001Z</time></trkpt><trkpt lat="42.358501641525535" lon="13.556889189391987"><ele>1211.0</ele><time>2026-04-27T15:32:56.001Z</time></trkpt><trkpt lat="42.35852664647722" lon="13.5570249511425"><ele>1211.0</ele><time>2026-04-27T15:32:57.001Z</time></trkpt><trkpt lat="42.358571101620065" lon="13.557167088341382"><ele>1211.0</ele><time>2026-04-27T15:32:58.001Z</time></trkpt><trkpt lat="42.35863955245319" lon="13.557311399686792"><ele>1211.0</ele><time>2026-04-27T15:32:59.001Z</time></trkpt><trkpt lat="42.35871933948234" lon="13.557456091147621"><ele>1211.0</ele><time>2026-04-27T15:33:00.001Z</time></trkpt><trkpt lat="42.35878515352429" lon="13.557605155533937"><ele>1211.0</ele><time>2026-04-27T15:33:01.001Z</time></trkpt><trkpt lat="42.35882018468611" lon="13.55774871153887"><ele>1211.0</ele><time>2026-04-27T15:33:02.001Z</time></trkpt><trkpt lat="42.35883090156667" lon="13.557911248659693"><ele>1211.0</ele><time>2026-04-27T15:33:03.001Z</time></trkpt><trkpt lat="42.35882762694948" lon="13.558083644735405"><ele>1210.75</ele><time>2026-04-27T15:33:04.001Z</time></trkpt><trkpt lat="42.35882425472789" lon="13.558265932617417"><ele>1210.5</ele><time>2026-04-27T15:33:05.001Z</time></trkpt><trkpt lat="42.35885031715533" lon="13.558450088145891"><ele>1210.25</ele><time>2026-04-27T15:33:06.001Z</time></trkpt><trkpt lat="42.35890297217191" lon="13.558641416997066"><ele>1210.0</ele><time>2026-04-27T15:33:07.001Z</time></trkpt><trkpt lat="42.358950214286565" lon="13.558842375381928"><ele>1208.0</ele><time>2026-04-27T15:33:08.001Z</time></trkpt><trkpt lat="42.358986959732924" lon="13.559039637709853"><ele>1206.0</ele><time>2026-04-27T15:33:09Z</time></trkpt><trkpt lat="42.35901879652612" lon="13.55921506923049"><ele>1204.0</ele><time>2026-04-27T15:33:10Z</time></trkpt><trkpt lat="42.35904303717195" lon="13.559382804733648"><ele>1202.0</ele><time>2026-04-27T15:33:11Z</time></trkpt><trkpt lat="42.35903824102708" lon="13.559556483865762"><ele>1202.0</ele><time>2026-04-27T15:33:12Z</time></trkpt><trkpt lat="42.359002387584276" lon="13.559739631398452"><ele>1202.0</ele><time>2026-04-27T15:33:13Z</time></trkpt><trkpt lat="42.358966894631834" lon="13.559929504171238"><ele>1202.0</ele><time>2026-04-27T15:33:14Z</time></trkpt><trkpt lat="42.35894447245481" lon="13.56014008454756"><ele>1202.0</ele><time>2026-04-27T15:33:15Z</time></trkpt><trkpt lat="42.358933550717325" lon="13.560345325447773"><ele>1201.6666666666667</ele><time>2026-04-27T15:33:16Z</time></trkpt><trkpt lat="42.358925292391675" lon="13.560566259415939"><ele>1201.3333333333333</ele><time>2026-04-27T15:33:17Z</time></trkpt><trkpt lat="42.35892107383813" lon="13.56079559356029"><ele>1201.0</ele><time>2026-04-27T15:33:18Z</time></trkpt><trkpt lat="42.358925121340654" lon="13.561022769672972"><ele>1200.0</ele><time>2026-04-27T15:33:19Z</time></trkpt><trkpt lat="42.358921654841794" lon="13.561254153660407"><ele>1199.0</ele><time>2026-04-27T15:33:20Z</time></trkpt><trkpt lat="42.358914854996904" lon="13.561482209055772"><ele>1198.0</ele><time>2026-04-27T15:33:21Z</time></trkpt><trkpt lat="42.35890644041726" lon="13.561710074608351"><ele>1198.0</ele><time>2026-04-27T15:33:22Z</time></trkpt><trkpt lat="42.35889743759626" lon="13.561935967529276"><ele>1198.0</ele><time>2026-04-27T15:33:23Z</time></trkpt><trkpt lat="42.35889229194024" lon="13.562169546873497"><ele>1198.0</ele><time>2026-04-27T15:33:24Z</time></trkpt><trkpt lat="42.35888797714005" lon="13.56239110205271"><ele>1198.0</ele><time>2026-04-27T15:33:25Z</time></trkpt><trkpt lat="42.3588851531102" lon="13.56259501746368"><ele>1198.0</ele><time>2026-04-27T15:33:26Z</time></trkpt><trkpt lat="42.3588882035973" lon="13.562804099175219"><ele>1198.0</ele><time>2026-04-27T15:33:27Z</time></trkpt><trkpt lat="42.358905693317894" lon="13.563013619871036"><ele>1196.0</ele><time>2026-04-27T15:33:28Z</time></trkpt><trkpt lat="42.35893366704133" lon="13.563225523833383"><ele>1194.0</ele><time>2026-04-27T15:33:29Z</time></trkpt><trkpt lat="42.35897214155825" lon="13.563423037492708"><ele>1192.0</ele><time>2026-04-27T15:33:30Z</time></trkpt><trkpt lat="42.359003309623304" lon="13.563597590248214"><ele>1190.0</ele><time>2026-04-27T15:33:31Z</time></trkpt><trkpt lat="42.35902371131771" lon="13.563759196938525"><ele>1189.2</ele><time>2026-04-27T15:33:32Z</time></trkpt><trkpt lat="42.35902210149792" lon="13.563914071530471"><ele>1188.4</ele><time>2026-04-27T15:33:33Z</time></trkpt><trkpt lat="42.359001793924115" lon="13.564056769668637"><ele>1187.6</ele><time>2026-04-27T15:33:34Z</time></trkpt><trkpt lat="42.3589937102267" lon="13.56419726766105"><ele>1186.8</ele><time>2026-04-27T15:33:35Z</time></trkpt><trkpt lat="42.359004076793546" lon="13.56433341841369"><ele>1186.0</ele><time>2026-04-27T15:33:36Z</time></trkpt><trkpt lat="42.359022922310075" lon="13.564453692630636"><ele>1187.1666666666665</ele><time>2026-04-27T15:33:37Z</time></trkpt><trkpt lat="42.35904116570742" lon="13.56454588446692"><ele>1188.3333333333333</ele><time>2026-04-27T15:33:38Z</time></trkpt><trkpt lat="42.35903310116011" lon="13.564631160571114"><ele>1189.5</ele><time>2026-04-27T15:33:40Z</time></trkpt><trkpt lat="42.35900161985977" lon="13.564705573335859"><ele>1190.6666666666667</ele><time>2026-04-27T15:33:44Z</time></trkpt><trkpt lat="42.35896448587738" lon="13.564837828752065"><ele>1191.8333333333335</ele><time>2026-04-27T15:36:07Z</time></trkpt><trkpt lat="42.358938522878944" lon="13.56492072521405"><ele>1193.0</ele><time>2026-04-27T15:36:08Z</time></trkpt><trkpt lat="42.3589061963508" lon="13.565069168806517"><ele>1193.0</ele><time>2026-04-27T15:36:10Z</time></trkpt><trkpt lat="42.35888046196963" lon="13.565230212798046"><ele>1193.0</ele><time>2026-04-27T15:36:12Z</time></trkpt><trkpt lat="42.358869333392924" lon="13.565316605306297"><ele>1193.0</ele><time>2026-04-27T15:36:13Z</time></trkpt><trkpt lat="42.35885737542996" lon="13.565401759438458"><ele>1193.0</ele><time>2026-04-27T15:36:14Z</time></trkpt><trkpt lat="42.358848929716416" lon="13.565491073620557"><ele>1193.0</ele><time>2026-04-27T15:36:14.999Z</time></trkpt><trkpt lat="42.35883864537001" lon="13.565582502699124"><ele>1193.0</ele><time>2026-04-27T15:36:15.999Z</time></trkpt><trkpt lat="42.358830952327885" lon="13.56567934368121"><ele>1192.6666666666667</ele><time>2026-04-27T15:36:16.999Z</time></trkpt><trkpt lat="42.35882402261094" lon="13.56577331904223"><ele>1192.3333333333335</ele><time>2026-04-27T15:36:17.999Z</time></trkpt><trkpt lat="42.358822007911805" lon="13.565861784531842"><ele>1192.0</ele><time>2026-04-27T15:36:18.999Z</time></trkpt><trkpt lat="42.35881682694121" lon="13.56595440060333"><ele>1191.6666666666667</ele><time>2026-04-27T15:36:19.999Z</time></trkpt><trkpt lat="42.358817166914605" lon="13.56606234483801"><ele>1191.3333333333333</ele><time>2026-04-27T15:36:20.999Z</time></trkpt><trkpt lat="42.35882005669832" lon="13.566190317596275"><ele>1191.0</ele><time>2026-04-27T15:36:21.999Z</time></trkpt><trkpt lat="42.35881894028156" lon="13.566305582243993"><ele>1191.0</ele><time>2026-04-27T15:36:22.999Z</time></trkpt><trkpt lat="42.35883197928311" lon="13.566399962424692"><ele>1191.0</ele><time>2026-04-27T15:36:23.999Z</time></trkpt><trkpt lat="42.358837990423474" lon="13.56651356587618"><ele>1191.0</ele><time>2026-04-27T15:36:24.999Z</time></trkpt><trkpt lat="42.35884380314384" lon="13.566642913355626"><ele>1191.0</ele><time>2026-04-27T15:36:25.999Z</time></trkpt><trkpt lat="42.35883885348565" lon="13.566780939431688"><ele>1191.0</ele><time>2026-04-27T15:36:26.999Z</time></trkpt><trkpt lat="42.35883390010878" lon="13.56692020136625"><ele>1191.3999999999999</ele><time>2026-04-27T15:36:27.999Z</time></trkpt><trkpt lat="42.35882991293165" lon="13.567064719119417"><ele>1191.8</ele><time>2026-04-27T15:36:28.999Z</time></trkpt><trkpt lat="42.35882578583051" lon="13.5671998976428"><ele>1192.1999999999998</ele><time>2026-04-27T15:36:29.999Z</time></trkpt><trkpt lat="42.35881987750852" lon="13.567331062162818"><ele>1192.6</ele><time>2026-04-27T15:36:30.999Z</time></trkpt><trkpt lat="42.35881963027967" lon="13.567484594287349"><ele>1193.0</ele><time>2026-04-27T15:36:31.999Z</time></trkpt><trkpt lat="42.358815261241084" lon="13.567652539963174"><ele>1193.0</ele><time>2026-04-27T15:36:32.999Z</time></trkpt><trkpt lat="42.35880496287101" lon="13.567829361534487"><ele>1193.0</ele><time>2026-04-27T15:36:33.999Z</time></trkpt><trkpt lat="42.3587881185136" lon="13.568011568502765"><ele>1193.0</ele><time>2026-04-27T15:36:34.999Z</time></trkpt><trkpt lat="42.35876829337546" lon="13.568180034057685"><ele>1193.0</ele><time>2026-04-27T15:36:35.999Z</time></trkpt><trkpt lat="42.35874609560869" lon="13.568349536529892"><ele>1192.5</ele><time>2026-04-27T15:36:36.999Z</time></trkpt><trkpt lat="42.35871977623698" lon="13.568514613166524"><ele>1192.0</ele><time>2026-04-27T15:36:37.999Z</time></trkpt><trkpt lat="42.35869435259939" lon="13.568679441531776"><ele>1191.5</ele><time>2026-04-27T15:36:38.999Z</time></trkpt><trkpt lat="42.358672518265514" lon="13.56883060732687"><ele>1191.0</ele><time>2026-04-27T15:36:39.999Z</time></trkpt><trkpt lat="42.358643296310674" lon="13.568961538425905"><ele>1191.6</ele><time>2026-04-27T15:36:40.999Z</time></trkpt><trkpt lat="42.35860610531359" lon="13.569085110496658"><ele>1192.1999999999998</ele><time>2026-04-27T15:36:41.999Z</time></trkpt><trkpt lat="42.3585540237906" lon="13.569204942360384"><ele>1192.8000000000002</ele><time>2026-04-27T15:36:42.999Z</time></trkpt><trkpt lat="42.358487388238" lon="13.569321181479603"><ele>1193.4</ele><time>2026-04-27T15:36:43.999Z</time></trkpt><trkpt lat="42.35840995542405" lon="13.569438194915401"><ele>1194.0</ele><time>2026-04-27T15:36:44.999Z</time></trkpt><trkpt lat="42.3583269219366" lon="13.569561623756837"><ele>1194.0</ele><time>2026-04-27T15:36:45.999Z</time></trkpt><trkpt lat="42.35824220962645" lon="13.569692046583583"><ele>1194.0</ele><time>2026-04-27T15:36:46.999Z</time></trkpt><trkpt lat="42.35815762145409" lon="13.569830114971209"><ele>1194.0</ele><time>2026-04-27T15:36:47.999Z</time></trkpt><trkpt lat="42.3580738051046" lon="13.569972550275242"><ele>1194.0</ele><time>2026-04-27T15:36:48.999Z</time></trkpt><trkpt lat="42.35798721591185" lon="13.570119729139089"><ele>1193.75</ele><time>2026-04-27T15:36:49.999Z</time></trkpt><trkpt lat="42.35790232663781" lon="13.570264221008529"><ele>1193.5</ele><time>2026-04-27T15:36:50.999Z</time></trkpt><trkpt lat="42.35782115205019" lon="13.570417225743364"><ele>1193.25</ele><time>2026-04-27T15:36:51.999Z</time></trkpt><trkpt lat="42.3577444041753" lon="13.570570551428778"><ele>1193.0</ele><time>2026-04-27T15:36:52.999Z</time></trkpt><trkpt lat="42.357671513584776" lon="13.57072659182363"><ele>1192.5</ele><time>2026-04-27T15:36:53.999Z</time></trkpt><trkpt lat="42.357599999704256" lon="13.570883961228489"><ele>1192.0</ele><time>2026-04-27T15:36:54.999Z</time></trkpt><trkpt lat="42.3575258682741" lon="13.571036852092673"><ele>1191.5</ele><time>2026-04-27T15:36:55.999Z</time></trkpt><trkpt lat="42.3574459694224" lon="13.571186143472241"><ele>1191.0</ele><time>2026-04-27T15:36:56.999Z</time></trkpt><trkpt lat="42.35736200090758" lon="13.571336133652874"><ele>1191.0</ele><time>2026-04-27T15:36:57.999Z</time></trkpt><trkpt lat="42.35727483424518" lon="13.571494222261814"><ele>1191.0</ele><time>2026-04-27T15:36:58.999Z</time></trkpt><trkpt lat="42.35718868304009" lon="13.571644550336778"><ele>1191.0</ele><time>2026-04-27T15:36:59.999Z</time></trkpt><trkpt lat="42.35710734242546" lon="13.571790907453162"><ele>1191.0</ele><time>2026-04-27T15:37:00.999Z</time></trkpt><trkpt lat="42.35703555200301" lon="13.571919138125148"><ele>1189.75</ele><time>2026-04-27T15:37:02.001Z</time></trkpt><trkpt lat="42.356964136435536" lon="13.572045012951106"><ele>1188.5</ele><time>2026-04-27T15:37:03.001Z</time></trkpt><trkpt lat="42.356885257949266" lon="13.572170433888308"><ele>1187.25</ele><time>2026-04-27T15:37:04.001Z</time></trkpt><trkpt lat="42.356804871421886" lon="13.572278733751645"><ele>1186.0</ele><time>2026-04-27T15:37:05.001Z</time></trkpt><trkpt lat="42.356721278693826" lon="13.572370609018943"><ele>1186.0</ele><time>2026-04-27T15:37:06.001Z</time></trkpt><trkpt lat="42.35663826282411" lon="13.572438002424978"><ele>1186.0</ele><time>2026-04-27T15:37:07.001Z</time></trkpt><trkpt lat="42.356557898717845" lon="13.572480452570556"><ele>1186.0</ele><time>2026-04-27T15:37:08.001Z</time></trkpt><trkpt lat="42.35647433107523" lon="13.572493847133668"><ele>1186.0</ele><time>2026-04-27T15:37:09.001Z</time></trkpt><trkpt lat="42.35638332970978" lon="13.572483696191576"><ele>1186.0</ele><time>2026-04-27T15:37:10.001Z</time></trkpt><trkpt lat="42.35628348837043" lon="13.572456145365697"><ele>1185.0</ele><time>2026-04-27T15:37:11.001Z</time></trkpt><trkpt lat="42.356171749254635" lon="13.57242429643647"><ele>1184.0</ele><time>2026-04-27T15:37:12.001Z</time></trkpt><trkpt lat="42.35606526127701" lon="13.572413427364385"><ele>1183.0</ele><time>2026-04-27T15:37:13.001Z</time></trkpt><trkpt lat="42.35595315109444" lon="13.572428125891857"><ele>1182.0</ele><time>2026-04-27T15:37:14.001Z</time></trkpt><trkpt lat="42.35583774342424" lon="13.572463547796755"><ele>1182.0</ele><time>2026-04-27T15:37:15.001Z</time></trkpt><trkpt lat="42.35571821804818" lon="13.572507874998596"><ele>1182.0</ele><time>2026-04-27T15:37:16.001Z</time></trkpt><trkpt lat="42.35559374981638" lon="13.572564735386738"><ele>1182.0</ele><time>2026-04-27T15:37:17Z</time></trkpt><trkpt lat="42.355469782275875" lon="13.572637729121935"><ele>1182.0</ele><time>2026-04-27T15:37:18Z</time></trkpt><trkpt lat="42.3553434320836" lon="13.572718742441245"><ele>1180.5</ele><time>2026-04-27T15:37:19Z</time></trkpt><trkpt lat="42.35521323531945" lon="13.572795662030044"><ele>1179.0</ele><time>2026-04-27T15:37:20Z</time></trkpt><trkpt lat="42.35508174988251" lon="13.572871152850459"><ele>1177.5</ele><time>2026-04-27T15:37:21Z</time></trkpt><trkpt lat="42.354948880241274" lon="13.572945503754353"><ele>1176.0</ele><time>2026-04-27T15:37:22Z</time></trkpt><trkpt lat="42.3548163328321" lon="13.573018076867829"><ele>1175.75</ele><time>2026-04-27T15:37:23Z</time></trkpt><trkpt lat="42.35468509682596" lon="13.57309146670437"><ele>1175.5</ele><time>2026-04-27T15:37:24Z</time></trkpt><trkpt lat="42.35455128747869" lon="13.573162187801815"><ele>1175.25</ele><time>2026-04-27T15:37:25Z</time></trkpt><trkpt lat="42.354416008627176" lon="13.573238414322873"><ele>1175.0</ele><time>2026-04-27T15:37:26Z</time></trkpt><trkpt lat="42.354277347493976" lon="13.573313851130532"><ele>1175.0</ele><time>2026-04-27T15:37:27Z</time></trkpt><trkpt lat="42.3541392289902" lon="13.573396582065698"><ele>1175.0</ele><time>2026-04-27T15:37:28Z</time></trkpt><trkpt lat="42.354003551822174" lon="13.573483399584859"><ele>1175.0</ele><time>2026-04-27T15:37:29Z</time></trkpt><trkpt lat="42.35386988783022" lon="13.573573330556911"><ele>1176.25</ele><time>2026-04-27T15:37:30Z</time></trkpt><trkpt lat="42.353739295875734" lon="13.573658091673007"><ele>1177.5</ele><time>2026-04-27T15:37:31Z</time></trkpt><trkpt lat="42.35360768136867" lon="13.573746370187793"><ele>1178.75</ele><time>2026-04-27T15:37:32Z</time></trkpt><trkpt lat="42.35347688039989" lon="13.573830888855367"><ele>1180.0</ele><time>2026-04-27T15:37:33Z</time></trkpt><trkpt lat="42.353354340060726" lon="13.573905207587599"><ele>1176.0</ele><time>2026-04-27T15:37:34Z</time></trkpt><trkpt lat="42.35323863807604" lon="13.573977770499846"><ele>1172.0</ele><time>2026-04-27T15:37:35Z</time></trkpt><trkpt lat="42.35313312129252" lon="13.574049684389156"><ele>1168.0</ele><time>2026-04-27T15:37:36Z</time></trkpt><trkpt lat="42.353033211358444" lon="13.574123356114377"><ele>1164.0</ele><time>2026-04-27T15:37:37Z</time></trkpt><trkpt lat="42.35293833403859" lon="13.574192459352147"><ele>1162.5</ele><time>2026-04-27T15:37:38Z</time></trkpt><trkpt lat="42.352836097427684" lon="13.574243052318712"><ele>1161.0</ele><time>2026-04-27T15:37:39Z</time></trkpt><trkpt lat="42.35272798572037" lon="13.57426409478116"><ele>1159.5</ele><time>2026-04-27T15:37:40Z</time></trkpt><trkpt lat="42.35261571506202" lon="13.574255409828542"><ele>1158.0</ele><time>2026-04-27T15:37:41Z</time></trkpt><trkpt lat="42.3525004881565" lon="13.574213305510895"><ele>1158.0</ele><time>2026-04-27T15:37:42Z</time></trkpt><trkpt lat="42.352375716261726" lon="13.574138393713069"><ele>1158.0</ele><time>2026-04-27T15:37:43Z</time></trkpt><trkpt lat="42.35225018354513" lon="13.574046286847716"><ele>1158.0</ele><time>2026-04-27T15:37:44Z</time></trkpt><trkpt lat="42.352121893888196" lon="13.573943313668854"><ele>1158.0</ele><time>2026-04-27T15:37:45Z</time></trkpt><trkpt lat="42.3519946806874" lon="13.573837753877397"><ele>1156.75</ele><time>2026-04-27T15:37:46Z</time></trkpt><trkpt lat="42.35186554434212" lon="13.573740848710194"><ele>1155.5</ele><time>2026-04-27T15:37:47Z</time></trkpt><trkpt lat="42.35173173700356" lon="13.57365150758903"><ele>1154.25</ele><time>2026-04-27T15:37:48Z</time></trkpt><trkpt lat="42.35160081847763" lon="13.573558468281355"><ele>1153.0</ele><time>2026-04-27T15:37:49Z</time></trkpt><trkpt lat="42.351475296436355" lon="13.573452705133999"><ele>1151.5</ele><time>2026-04-27T15:37:50Z</time></trkpt><trkpt lat="42.351358629909896" lon="13.573331491220069"><ele>1150.0</ele><time>2026-04-27T15:37:51Z</time></trkpt><trkpt lat="42.35125014556897" lon="13.573197986677611"><ele>1148.5</ele><time>2026-04-27T15:37:52Z</time></trkpt><trkpt lat="42.351146336902445" lon="13.57305711408577"><ele>1147.0</ele><time>2026-04-27T15:37:53Z</time></trkpt><trkpt lat="42.351051610912464" lon="13.572909138484075"><ele>1147.5</ele><time>2026-04-27T15:37:54Z</time></trkpt><trkpt lat="42.3509617914054" lon="13.5727567160907"><ele>1148.0</ele><time>2026-04-27T15:37:55Z</time></trkpt><trkpt lat="42.35086596242727" lon="13.57261261076266"><ele>1148.5</ele><time>2026-04-27T15:37:56Z</time></trkpt><trkpt lat="42.35074838815571" lon="13.572493803914485"><ele>1149.0</ele><time>2026-04-27T15:37:57Z</time></trkpt><trkpt lat="42.35061426709127" lon="13.572408521061048"><ele>1145.6666666666667</ele><time>2026-04-27T15:37:58Z</time></trkpt><trkpt lat="42.3504707703056" lon="13.572330138997692"><ele>1142.3333333333335</ele><time>2026-04-27T15:37:59Z</time></trkpt><trkpt lat="42.35033932025992" lon="13.572225894426916"><ele>1139.0</ele><time>2026-04-27T15:38:00Z</time></trkpt><trkpt lat="42.35021732904103" lon="13.572107271874449"><ele>1140.25</ele><time>2026-04-27T15:38:01Z</time></trkpt><trkpt lat="42.35009311215693" lon="13.572004256295822"><ele>1141.5</ele><time>2026-04-27T15:38:02Z</time></trkpt><trkpt lat="42.3499706663088" lon="13.571901707152142"><ele>1142.75</ele><time>2026-04-27T15:38:03Z</time></trkpt><trkpt lat="42.34985600262004" lon="13.571790932142138"><ele>1144.0</ele><time>2026-04-27T15:38:04Z</time></trkpt><trkpt lat="42.34975109878632" lon="13.571670672463751"><ele>1140.5</ele><time>2026-04-27T15:38:05Z</time></trkpt><trkpt lat="42.349664177127515" lon="13.571543881428015"><ele>1137.0</ele><time>2026-04-27T15:38:06Z</time></trkpt><trkpt lat="42.34957079525839" lon="13.571432596535127"><ele>1133.5</ele><time>2026-04-27T15:38:07Z</time></trkpt><trkpt lat="42.34945359302463" lon="13.571345941899114"><ele>1130.0</ele><time>2026-04-27T15:38:08Z</time></trkpt><trkpt lat="42.34932190830911" lon="13.571299950980166"><ele>1130.0</ele><time>2026-04-27T15:38:09Z</time></trkpt><trkpt lat="42.34917937221547" lon="13.571294334377642"><ele>1130.0</ele><time>2026-04-27T15:38:10Z</time></trkpt><trkpt lat="42.34903718371573" lon="13.571289684317533"><ele>1130.0</ele><time>2026-04-27T15:38:11Z</time></trkpt><trkpt lat="42.34890132210565" lon="13.571260806628466"><ele>1130.0</ele><time>2026-04-27T15:38:12Z</time></trkpt><trkpt lat="42.34876670421083" lon="13.571207227458524"><ele>1129.75</ele><time>2026-04-27T15:38:13Z</time></trkpt><trkpt lat="42.34863278161629" lon="13.571127373294958"><ele>1129.5</ele><time>2026-04-27T15:38:14Z</time></trkpt><trkpt lat="42.34850317129372" lon="13.57104067283117"><ele>1129.25</ele><time>2026-04-27T15:38:15Z</time></trkpt><trkpt lat="42.348377607619085" lon="13.570944078258442"><ele>1129.0</ele><time>2026-04-27T15:38:16Z</time></trkpt><trkpt lat="42.348259067017494" lon="13.57084568121863"><ele>1129.0</ele><time>2026-04-27T15:38:16.999Z</time></trkpt><trkpt lat="42.348167400405" lon="13.570745136831874"><ele>1129.0</ele><time>2026-04-27T15:38:17.999Z</time></trkpt><trkpt lat="42.3481003244066" lon="13.570626922816146"><ele>1129.0</ele><time>2026-04-27T15:38:18.999Z</time></trkpt><trkpt lat="42.34804473172019" lon="13.570469114731754"><ele>1129.0</ele><time>2026-04-27T15:38:19.999Z</time></trkpt><trkpt lat="42.34798088797302" lon="13.570311714233439"><ele>1127.0</ele><time>2026-04-27T15:38:20.999Z</time></trkpt><trkpt lat="42.347894498440894" lon="13.570173433399972"><ele>1125.0</ele><time>2026-04-27T15:38:21.999Z</time></trkpt><trkpt lat="42.34779807206609" lon="13.570050940682403"><ele>1123.0</ele><time>2026-04-27T15:38:22.999Z</time></trkpt><trkpt lat="42.34770173121505" lon="13.569942590647182"><ele>1121.0</ele><time>2026-04-27T15:38:23.999Z</time></trkpt><trkpt lat="42.34762106379634" lon="13.56985728535007"><ele>1121.0</ele><time>2026-04-27T15:38:24.999Z</time></trkpt><trkpt lat="42.34753316312488" lon="13.569791989080928"><ele>1121.0</ele><time>2026-04-27T15:38:25.999Z</time></trkpt><trkpt lat="42.34743746806405" lon="13.56971377927393"><ele>1121.0</ele><time>2026-04-27T15:38:26.999Z</time></trkpt><trkpt lat="42.34731242816707" lon="13.569706557927358"><ele>1121.0</ele><time>2026-04-27T15:38:27.999Z</time></trkpt><trkpt lat="42.347175202094355" lon="13.569738817281857"><ele>1120.5</ele><time>2026-04-27T15:38:28.999Z</time></trkpt><trkpt lat="42.347041336828575" lon="13.569784256739325"><ele>1120.0</ele><time>2026-04-27T15:38:29.999Z</time></trkpt><trkpt lat="42.34691233529617" lon="13.569829629309636"><ele>1119.5</ele><time>2026-04-27T15:38:30.999Z</time></trkpt><trkpt lat="42.3467826674048" lon="13.569856980913825"><ele>1119.0</ele><time>2026-04-27T15:38:31.999Z</time></trkpt><trkpt lat="42.34665262454754" lon="13.569863170879477"><ele>1119.0</ele><time>2026-04-27T15:38:32.999Z</time></trkpt><trkpt lat="42.346516756043" lon="13.569882248491787"><ele>1119.0</ele><time>2026-04-27T15:38:33.999Z</time></trkpt><trkpt lat="42.34639352982551" lon="13.569914833576547"><ele>1119.0</ele><time>2026-04-27T15:38:34.999Z</time></trkpt><trkpt lat="42.3462807880868" lon="13.569963647087304"><ele>1119.0</ele><time>2026-04-27T15:38:35.999Z</time></trkpt><trkpt lat="42.34617228149976" lon="13.570073992782904"><ele>1118.0</ele><time>2026-04-27T15:38:36.999Z</time></trkpt><trkpt lat="42.34606881767965" lon="13.570193285356325"><ele>1117.0</ele><time>2026-04-27T15:38:37.999Z</time></trkpt><trkpt lat="42.34597186471711" lon="13.570296092696527"><ele>1116.0</ele><time>2026-04-27T15:38:38.999Z</time></trkpt><trkpt lat="42.34588082603242" lon="13.57038897666201"><ele>1115.0</ele><time>2026-04-27T15:38:39.999Z</time></trkpt><trkpt lat="42.34580668661345" lon="13.570508459516974"><ele>1115.0</ele><time>2026-04-27T15:38:40.999Z</time></trkpt><trkpt lat="42.345763134098505" lon="13.570655425142746"><ele>1115.0</ele><time>2026-04-27T15:38:41.999Z</time></trkpt><trkpt lat="42.34574363629051" lon="13.570817213922549"><ele>1115.0</ele><time>2026-04-27T15:38:42.999Z</time></trkpt><trkpt lat="42.34572239804102" lon="13.570965166051657"><ele>1115.0</ele><time>2026-04-27T15:38:43.999Z</time></trkpt><trkpt lat="42.34568494098112" lon="13.571085556678371"><ele>1115.0</ele><time>2026-04-27T15:38:44.999Z</time></trkpt><trkpt lat="42.34560515579584" lon="13.571157332265656"><ele>1113.25</ele><time>2026-04-27T15:38:45.999Z</time></trkpt><trkpt lat="42.345509186899186" lon="13.571261106312999"><ele>1111.5</ele><time>2026-04-27T15:38:46.999Z</time></trkpt><trkpt lat="42.345400089681206" lon="13.571360910169233"><ele>1109.75</ele><time>2026-04-27T15:38:47.999Z</time></trkpt><trkpt lat="42.3452852568067" lon="13.571474695321852"><ele>1108.0</ele><time>2026-04-27T15:38:48.999Z</time></trkpt><trkpt lat="42.34519050675832" lon="13.57160162147699"><ele>1108.0</ele><time>2026-04-27T15:38:49.999Z</time></trkpt><trkpt lat="42.345116886274035" lon="13.57176211121815"><ele>1108.0</ele><time>2026-04-27T15:38:50.999Z</time></trkpt><trkpt lat="42.34505996660036" lon="13.571937976264092"><ele>1108.0</ele><time>2026-04-27T15:38:51.999Z</time></trkpt><trkpt lat="42.34500809548382" lon="13.572118630267214"><ele>1108.0</ele><time>2026-04-27T15:38:52.999Z</time></trkpt><trkpt lat="42.344947948428924" lon="13.572278178532734"><ele>1108.0</ele><time>2026-04-27T15:38:53.999Z</time></trkpt><trkpt lat="42.34487184641864" lon="13.572425609536333"><ele>1108.0</ele><time>2026-04-27T15:38:54.999Z</time></trkpt><trkpt lat="42.34478178004111" lon="13.572565290415204"><ele>1108.0</ele><time>2026-04-27T15:38:55.999Z</time></trkpt><trkpt lat="42.34467979096598" lon="13.572696378149516"><ele>1108.0</ele><time>2026-04-27T15:38:56.999Z</time></trkpt><trkpt lat="42.344573130698414" lon="13.572825716184838"><ele>1107.3333333333333</ele><time>2026-04-27T15:38:57.999Z</time></trkpt><trkpt lat="42.34446737805747" lon="13.57295230730219"><ele>1106.6666666666667</ele><time>2026-04-27T15:38:58.999Z</time></trkpt><trkpt lat="42.344351962243714" lon="13.573087328463068"><ele>1106.0</ele><time>2026-04-27T15:38:59.999Z</time></trkpt><trkpt lat="42.34423205003551" lon="13.573229505446122"><ele>1106.0</ele><time>2026-04-27T15:39:00.999Z</time></trkpt><trkpt lat="42.34410848093391" lon="13.573376017602627"><ele>1106.0</ele><time>2026-04-27T15:39:01.999Z</time></trkpt><trkpt lat="42.34398035010732" lon="13.573521939274784"><ele>1106.0</ele><time>2026-04-27T15:39:02.999Z</time></trkpt><trkpt lat="42.34384326391133" lon="13.57367413301716"><ele>1104.3333333333335</ele><time>2026-04-27T15:39:03.999Z</time></trkpt><trkpt lat="42.343716600320576" lon="13.573837760560755"><ele>1102.6666666666667</ele><time>2026-04-27T15:39:04.999Z</time></trkpt><trkpt lat="42.34361044303975" lon="13.573990021935947"><ele>1101.0</ele><time>2026-04-27T15:39:05.999Z</time></trkpt><trkpt lat="42.34350907423624" lon="13.574151699848265"><ele>1101.0</ele><time>2026-04-27T15:39:06.999Z</time></trkpt><trkpt lat="42.34341498570674" lon="13.57431518193576"><ele>1101.0</ele><time>2026-04-27T15:39:08Z</time></trkpt><trkpt lat="42.34331480607873" lon="13.574480048872303"><ele>1101.0</ele><time>2026-04-27T15:39:09Z</time></trkpt><trkpt lat="42.34321107344189" lon="13.574626666507994"><ele>1101.3333333333333</ele><time>2026-04-27T15:39:10Z</time></trkpt><trkpt lat="42.34309695162045" lon="13.57476652576727"><ele>1101.6666666666665</ele><time>2026-04-27T15:39:11Z</time></trkpt><trkpt lat="42.342974995986985" lon="13.57488862279264"><ele>1102.0</ele><time>2026-04-27T15:39:12Z</time></trkpt><trkpt lat="42.34285280422444" lon="13.574997207164841"><ele>1102.0</ele><time>2026-04-27T15:39:13Z</time></trkpt><trkpt lat="42.342738362286404" lon="13.575102548244846"><ele>1102.0</ele><time>2026-04-27T15:39:14Z</time></trkpt><trkpt lat="42.342629843314455" lon="13.57524036633506"><ele>1102.0</ele><time>2026-04-27T15:39:15Z</time></trkpt><trkpt lat="42.34252920871494" lon="13.57539531942231"><ele>1102.0</ele><time>2026-04-27T15:39:16Z</time></trkpt><trkpt lat="42.34242508705651" lon="13.57555941764088"><ele>1102.3333333333333</ele><time>2026-04-27T15:39:17Z</time></trkpt><trkpt lat="42.34231578437539" lon="13.575727686245644"><ele>1102.6666666666667</ele><time>2026-04-27T15:39:18Z</time></trkpt><trkpt lat="42.34220399614503" lon="13.575896274111493"><ele>1103.0</ele><time>2026-04-27T15:39:19Z</time></trkpt><trkpt lat="42.342087773071256" lon="13.576066910818058"><ele>1101.3333333333335</ele><time>2026-04-27T15:39:20Z</time></trkpt><trkpt lat="42.34196862136626" lon="13.576240619973953"><ele>1099.6666666666667</ele><time>2026-04-27T15:39:21Z</time></trkpt><trkpt lat="42.341847007403146" lon="13.57642125616438"><ele>1098.0</ele><time>2026-04-27T15:39:22Z</time></trkpt><trkpt lat="42.34172290391829" lon="13.576605590354434"><ele>1098.0</ele><time>2026-04-27T15:39:23Z</time></trkpt><trkpt lat="42.34159676707421" lon="13.576792957316377"><ele>1098.0</ele><time>2026-04-27T15:39:24Z</time></trkpt><trkpt lat="42.34146808054873" lon="13.576983182466885"><ele>1098.0</ele><time>2026-04-27T15:39:25Z</time></trkpt><trkpt lat="42.34133932551962" lon="13.577169763525488"><ele>1097.3333333333333</ele><time>2026-04-27T15:39:26Z</time></trkpt><trkpt lat="42.34120712562525" lon="13.5773497596695"><ele>1096.6666666666665</ele><time>2026-04-27T15:39:27Z</time></trkpt><trkpt lat="42.341069050319526" lon="13.577546078358822"><ele>1096.0</ele><time>2026-04-27T15:39:28Z</time></trkpt><trkpt lat="42.34093138434339" lon="13.577742971647645"><ele>1097.3333333333333</ele><time>2026-04-27T15:39:29Z</time></trkpt><trkpt lat="42.34079079740041" lon="13.577939834350936"><ele>1098.6666666666667</ele><time>2026-04-27T15:39:30Z</time></trkpt><trkpt lat="42.340648224512485" lon="13.578135283649283"><ele>1100.0</ele><time>2026-04-27T15:39:31Z</time></trkpt><trkpt lat="42.34050474911717" lon="13.578335264798183"><ele>1097.3333333333335</ele><time>2026-04-27T15:39:32Z</time></trkpt><trkpt lat="42.34035904744337" lon="13.578537208299613"><ele>1094.6666666666667</ele><time>2026-04-27T15:39:33Z</time></trkpt><trkpt lat="42.34021408462398" lon="13.578736051586713"><ele>1092.0</ele><time>2026-04-27T15:39:34Z</time></trkpt><trkpt lat="42.34006902697687" lon="13.578928210057677"><ele>1092.0</ele><time>2026-04-27T15:39:35Z</time></trkpt><trkpt lat="42.33992491259144" lon="13.579119976299276"><ele>1092.0</ele><time>2026-04-27T15:39:36Z</time></trkpt><trkpt lat="42.339788092311565" lon="13.579322059625937"><ele>1092.0</ele><time>2026-04-27T15:39:37Z</time></trkpt><trkpt lat="42.33965477174615" lon="13.5795278268262"><ele>1090.3333333333333</ele><time>2026-04-27T15:39:38Z</time></trkpt><trkpt lat="42.33953282981924" lon="13.579733299101044"><ele>1088.6666666666665</ele><time>2026-04-27T15:39:39Z</time></trkpt><trkpt lat="42.33942392451943" lon="13.579917482269815"><ele>1087.0</ele><time>2026-04-27T15:39:40Z</time></trkpt><trkpt lat="42.33931887368632" lon="13.580085175992911"><ele>1087.0</ele><time>2026-04-27T15:39:41Z</time></trkpt><trkpt lat="42.33921251477261" lon="13.580223958616692"><ele>1087.0</ele><time>2026-04-27T15:39:42Z</time></trkpt><trkpt lat="42.33909266138629" lon="13.580342635805893"><ele>1087.0</ele><time>2026-04-27T15:39:43Z</time></trkpt><trkpt lat="42.33896880101716" lon="13.580462112052366"><ele>1087.0</ele><time>2026-04-27T15:39:44Z</time></trkpt><trkpt lat="42.3388527433715" lon="13.58057465248424"><ele>1087.4</ele><time>2026-04-27T15:39:45Z</time></trkpt><trkpt lat="42.33874718705918" lon="13.580676273518986"><ele>1087.8000000000002</ele><time>2026-04-27T15:39:46Z</time></trkpt><trkpt lat="42.33865143500334" lon="13.580747194316624"><ele>1088.2</ele><time>2026-04-27T15:39:47Z</time></trkpt><trkpt lat="42.338566666183794" lon="13.580773456995813"><ele>1088.6000000000001</ele><time>2026-04-27T15:39:48Z</time></trkpt><trkpt lat="42.338496192839216" lon="13.580763803745155"><ele>1089.0</ele><time>2026-04-27T15:39:49Z</time></trkpt><trkpt lat="42.33843048043976" lon="13.580719406796016"><ele>1089.0</ele><time>2026-04-27T15:39:50Z</time></trkpt><trkpt lat="42.33836229011801" lon="13.58066853426607"><ele>1089.0</ele><time>2026-04-27T15:39:51Z</time></trkpt><trkpt lat="42.33829683369749" lon="13.580615517838547"><ele>1089.0</ele><time>2026-04-27T15:39:53Z</time></trkpt><trkpt lat="42.338120390535906" lon="13.580985123562085"><ele>1089.0</ele><time>2026-04-27T15:39:56Z</time></trkpt><trkpt lat="42.33806503617539" lon="13.581076967754147"><ele>1089.0</ele><time>2026-04-27T15:39:57Z</time></trkpt><trkpt lat="42.338011969891404" lon="13.581170860191492"><ele>1089.0</ele><time>2026-04-27T15:39:58Z</time></trkpt><trkpt lat="42.337959050395426" lon="13.581262851477593"><ele>1089.0</ele><time>2026-04-27T15:39:59Z</time></trkpt><trkpt lat="42.33790375788652" lon="13.58134820132018"><ele>1089.0</ele><time>2026-04-27T15:40:00Z</time></trkpt><trkpt lat="42.337836417618284" lon="13.581419886223575"><ele>1089.0</ele><time>2026-04-27T15:40:01Z</time></trkpt><trkpt lat="42.33776338821655" lon="13.581481586191673"><ele>1090.5</ele><time>2026-04-27T15:40:02Z</time></trkpt><trkpt lat="42.3376900386444" lon="13.581535589378355"><ele>1092.0</ele><time>2026-04-27T15:40:03Z</time></trkpt><trkpt lat="42.3376275385411" lon="13.581582723636243"><ele>1093.5</ele><time>2026-04-27T15:40:04Z</time></trkpt><trkpt lat="42.33757538909939" lon="13.58165398429483"><ele>1095.0</ele><time>2026-04-27T15:40:06Z</time></trkpt><trkpt lat="42.33753789082799" lon="13.581806038721611"><ele>1096.5</ele><time>2026-04-27T15:40:09Z</time></trkpt><trkpt lat="42.33751467720537" lon="13.581900655102366"><ele>1098.0</ele><time>2026-04-27T15:40:10Z</time></trkpt><trkpt lat="42.33749692100398" lon="13.582007868543297"><ele>1098.5</ele><time>2026-04-27T15:40:11Z</time></trkpt><trkpt lat="42.33749976915165" lon="13.582127154324095"><ele>1099.0</ele><time>2026-04-27T15:40:12Z</time></trkpt><trkpt lat="42.337524012446636" lon="13.582255175399546"><ele>1099.5</ele><time>2026-04-27T15:40:13Z</time></trkpt><trkpt lat="42.337550420384524" lon="13.58237758057811"><ele>1100.0</ele><time>2026-04-27T15:40:14Z</time></trkpt><trkpt lat="42.33757230494793" lon="13.582492189816914"><ele>1100.5</ele><time>2026-04-27T15:40:15Z</time></trkpt><trkpt lat="42.33759205399025" lon="13.582590201669326"><ele>1101.0</ele><time>2026-04-27T15:40:16Z</time></trkpt><trkpt lat="42.33760239412724" lon="13.582743284228181"><ele>1100.8333333333333</ele><time>2026-04-27T15:40:17.999Z</time></trkpt><trkpt lat="42.337630942180645" lon="13.582893313690649"><ele>1100.6666666666667</ele><time>2026-04-27T15:40:19.999Z</time></trkpt><trkpt lat="42.337641669395076" lon="13.583030288879918"><ele>1100.5</ele><time>2026-04-27T15:40:21.999Z</time></trkpt><trkpt lat="42.33763105819199" lon="13.58311693298244"><ele>1100.3333333333335</ele><time>2026-04-27T15:40:29.999Z</time></trkpt><trkpt lat="42.33762883017013" lon="13.583221559460766"><ele>1100.1666666666667</ele><time>2026-04-27T15:40:33.999Z</time></trkpt><trkpt lat="42.33762669518615" lon="13.583312380758176"><ele>1100.0</ele><time>2026-04-27T15:40:36.999Z</time></trkpt><trkpt lat="42.33731776928632" lon="13.583402410205188"><ele>1100.0</ele><time>2026-04-27T15:40:38.999Z</time></trkpt><trkpt lat="42.33722221224794" lon="13.583485412312145"><ele>1100.0</ele><time>2026-04-27T15:40:40.999Z</time></trkpt><trkpt lat="42.33716141355103" lon="13.58357338415792"><ele>1100.0</ele><time>2026-04-27T15:40:42.999Z</time></trkpt><trkpt lat="42.33721612910098" lon="13.58367212924053"><ele>1100.0</ele><time>2026-04-27T15:40:45.999Z</time></trkpt><trkpt lat="42.33725007398342" lon="13.583774351444772"><ele>1100.0</ele><time>2026-04-27T15:40:48.999Z</time></trkpt><trkpt lat="42.337219470568776" lon="13.583850254566569"><ele>1100.0</ele><time>2026-04-27T15:40:49.999Z</time></trkpt><trkpt lat="42.33718636691163" lon="13.583929506368017"><ele>1097.5</ele><time>2026-04-27T15:40:50.999Z</time></trkpt><trkpt lat="42.337125089363596" lon="13.58404296366459"><ele>1095.0</ele><time>2026-04-27T15:40:52.999Z</time></trkpt><trkpt lat="42.337063139234125" lon="13.584089883274611"><ele>1092.5</ele><time>2026-04-27T15:40:54.999Z</time></trkpt><trkpt lat="42.33701372912146" lon="13.584189059372791"><ele>1090.0</ele><time>2026-04-27T15:40:57.999Z</time></trkpt><trkpt lat="42.33695689455372" lon="13.584271908101353"><ele>1087.5</ele><time>2026-04-27T15:40:59.999Z</time></trkpt><trkpt lat="42.336903589983706" lon="13.584360376267803"><ele>1085.0</ele><time>2026-04-27T15:41:01.999Z</time></trkpt><trkpt lat="42.33685238009756" lon="13.584485934134232"><ele>1084.4</ele><time>2026-04-27T15:41:03.999Z</time></trkpt><trkpt lat="42.3367802845244" lon="13.584561615328617"><ele>1083.8</ele><time>2026-04-27T15:41:05.999Z</time></trkpt><trkpt lat="42.33671229710039" lon="13.584605934053005"><ele>1083.2</ele><time>2026-04-27T15:41:07.999Z</time></trkpt><trkpt lat="42.33666805836551" lon="13.584685294377636"><ele>1082.6</ele><time>2026-04-27T15:41:10.999Z</time></trkpt><trkpt lat="42.336627294209556" lon="13.584758117290317"><ele>1082.0</ele><time>2026-04-27T15:41:12.999Z</time></trkpt><trkpt lat="42.33653493693479" lon="13.584933419330966"><ele>1082.0</ele><time>2026-04-27T15:41:15Z</time></trkpt><trkpt lat="42.33648940247186" lon="13.585015285775805"><ele>1082.0</ele><time>2026-04-27T15:41:16Z</time></trkpt><trkpt lat="42.33645359798018" lon="13.585092510161065"><ele>1082.0</ele><time>2026-04-27T15:41:17Z</time></trkpt><trkpt lat="42.33642763666474" lon="13.58517128421569"><ele>1082.0</ele><time>2026-04-27T15:41:18Z</time></trkpt><trkpt lat="42.33638829352924" lon="13.585284684237969"><ele>1082.0</ele><time>2026-04-27T15:41:20Z</time></trkpt><trkpt lat="42.3363337330116" lon="13.585346416319135"><ele>1082.0</ele><time>2026-04-27T15:41:23Z</time></trkpt><trkpt lat="42.33629182269115" lon="13.585438798872909"><ele>1078.25</ele><time>2026-04-27T15:41:25Z</time></trkpt><trkpt lat="42.336263470051286" lon="13.585558036914886"><ele>1074.5</ele><time>2026-04-27T15:41:27Z</time></trkpt><trkpt lat="42.33624881835218" lon="13.58568090670847"><ele>1070.75</ele><time>2026-04-27T15:41:33Z</time></trkpt><trkpt lat="42.3362074588257" lon="13.58576427109774"><ele>1067.0</ele><time>2026-04-27T15:41:36Z</time></trkpt><trkpt lat="42.33605159007231" lon="13.585916460258916"><ele>1067.0</ele><time>2026-04-27T15:41:39Z</time></trkpt><trkpt lat="42.335953063048066" lon="13.585999459040732"><ele>1067.0</ele><time>2026-04-27T15:41:41Z</time></trkpt><trkpt lat="42.33588590033924" lon="13.586045180490814"><ele>1067.0</ele><time>2026-04-27T15:41:42Z</time></trkpt><trkpt lat="42.33580777562396" lon="13.586102669277286"><ele>1067.0</ele><time>2026-04-27T15:41:43Z</time></trkpt><trkpt lat="42.33573538123044" lon="13.586188667631893"><ele>1067.0</ele><time>2026-04-27T15:41:44Z</time></trkpt><trkpt lat="42.335671864125544" lon="13.58625997102345"><ele>1068.3333333333335</ele><time>2026-04-27T15:41:45Z</time></trkpt><trkpt lat="42.33560948983775" lon="13.586299969393096"><ele>1069.6666666666667</ele><time>2026-04-27T15:41:46Z</time></trkpt><trkpt lat="42.33554459586542" lon="13.586347982823234"><ele>1071.0</ele><time>2026-04-27T15:41:47Z</time></trkpt><trkpt lat="42.33547418948052" lon="13.586396477361218"><ele>1072.3333333333333</ele><time>2026-04-27T15:41:48Z</time></trkpt><trkpt lat="42.33538950791871" lon="13.586439187226603"><ele>1073.6666666666665</ele><time>2026-04-27T15:41:49Z</time></trkpt><trkpt lat="42.33530561358032" lon="13.586476433825945"><ele>1075.0</ele><time>2026-04-27T15:41:50Z</time></trkpt><trkpt lat="42.33522184049741" lon="13.58651680801168"><ele>1071.8</ele><time>2026-04-27T15:41:51Z</time></trkpt><trkpt lat="42.33513190981858" lon="13.58656218147925"><ele>1068.6</ele><time>2026-04-27T15:41:52Z</time></trkpt><trkpt lat="42.33503749060812" lon="13.586610488112678"><ele>1065.4</ele><time>2026-04-27T15:41:53Z</time></trkpt><trkpt lat="42.33493843661868" lon="13.586668532088526"><ele>1062.2</ele><time>2026-04-27T15:41:54Z</time></trkpt><trkpt lat="42.3348460691677" lon="13.586713234819072"><ele>1059.0</ele><time>2026-04-27T15:41:55Z</time></trkpt><trkpt lat="42.3347637099174" lon="13.586759939222603"><ele>1056.2</ele><time>2026-04-27T15:41:56Z</time></trkpt><trkpt lat="42.33467629117862" lon="13.586800300360933"><ele>1053.4</ele><time>2026-04-27T15:41:57Z</time></trkpt><trkpt lat="42.33455214821181" lon="13.58677388345812"><ele>1050.6</ele><time>2026-04-27T15:41:59Z</time></trkpt><trkpt lat="42.33446539267721" lon="13.586751418401175"><ele>1047.8</ele><time>2026-04-27T15:42:00Z</time></trkpt><trkpt lat="42.334379184281474" lon="13.586754716616827"><ele>1045.0</ele><time>2026-04-27T15:42:01Z</time></trkpt><trkpt lat="42.33427655957572" lon="13.586777068833737"><ele>1045.0</ele><time>2026-04-27T15:42:02Z</time></trkpt><trkpt lat="42.33417891204763" lon="13.586802475977946"><ele>1045.0</ele><time>2026-04-27T15:42:03Z</time></trkpt><trkpt lat="42.33409909492872" lon="13.586814989567086"><ele>1045.0</ele><time>2026-04-27T15:42:04Z</time></trkpt><trkpt lat="42.33402763289535" lon="13.586805603298558"><ele>1045.0</ele><time>2026-04-27T15:42:05Z</time></trkpt><trkpt lat="42.333964096174164" lon="13.586771474574588"><ele>1045.0</ele><time>2026-04-27T15:42:06Z</time></trkpt><trkpt lat="42.33389320841422" lon="13.586730675831177"><ele>1045.0</ele><time>2026-04-27T15:42:07Z</time></trkpt><trkpt lat="42.333820140420116" lon="13.58674147439346"><ele>1043.1666666666665</ele><time>2026-04-27T15:42:08Z</time></trkpt><trkpt lat="42.33374818725885" lon="13.586761403435274"><ele>1041.3333333333333</ele><time>2026-04-27T15:42:09Z</time></trkpt><trkpt lat="42.333673448715665" lon="13.58675977344485"><ele>1039.5</ele><time>2026-04-27T15:42:10Z</time></trkpt><trkpt lat="42.33359071606037" lon="13.586749520091262"><ele>1037.6666666666667</ele><time>2026-04-27T15:42:11Z</time></trkpt><trkpt lat="42.33349257820335" lon="13.586731454402393"><ele>1035.8333333333335</ele><time>2026-04-27T15:42:12Z</time></trkpt><trkpt lat="42.33339695953573" lon="13.586725036476068"><ele>1034.0</ele><time>2026-04-27T15:42:13Z</time></trkpt><trkpt lat="42.33331870517804" lon="13.586749761432316"><ele>1034.0</ele><time>2026-04-27T15:42:14Z</time></trkpt><trkpt lat="42.33324985860632" lon="13.586773903438683"><ele>1034.0</ele><time>2026-04-27T15:42:15Z</time></trkpt><trkpt lat="42.333135084576035" lon="13.58685489060998"><ele>1034.0</ele><time>2026-04-27T15:42:17Z</time></trkpt><trkpt lat="42.33305800886538" lon="13.58686966789749"><ele>1034.0</ele><time>2026-04-27T15:42:18Z</time></trkpt><trkpt lat="42.332985307550445" lon="13.586877210546097"><ele>1034.0</ele><time>2026-04-27T15:42:19Z</time></trkpt><trkpt lat="42.332907397038255" lon="13.586911495388684"><ele>1034.0</ele><time>2026-04-27T15:42:20.999Z</time></trkpt><trkpt lat="42.33280702748489" lon="13.586962433206235"><ele>1032.857142857143</ele><time>2026-04-27T15:42:22.999Z</time></trkpt><trkpt lat="42.33274490016213" lon="13.586983281243736"><ele>1031.7142857142858</ele><time>2026-04-27T15:42:23.999Z</time></trkpt><trkpt lat="42.33267553619369" lon="13.587000760916549"><ele>1030.5714285714287</ele><time>2026-04-27T15:42:25.999Z</time></trkpt><trkpt lat="42.33262465460832" lon="13.58707060957562"><ele>1029.4285714285716</ele><time>2026-04-27T15:42:29.999Z</time></trkpt><trkpt lat="42.33255376444655" lon="13.587058855744115"><ele>1028.2857142857142</ele><time>2026-04-27T15:43:31Z</time></trkpt><trkpt lat="42.33249100757015" lon="13.587073918217174"><ele>1027.1428571428573</ele><time>2026-04-27T15:43:33Z</time></trkpt><trkpt lat="42.33242985043959" lon="13.587143225141794"><ele>1026.0</ele><time>2026-04-27T15:43:36Z</time></trkpt><trkpt lat="42.33234224309626" lon="13.58723479436023"><ele>1026.0</ele><time>2026-04-27T15:43:38Z</time></trkpt><trkpt lat="42.33226078130726" lon="13.587280039186687"><ele>1026.0</ele><time>2026-04-27T15:43:40Z</time></trkpt><trkpt lat="42.332159556972414" lon="13.587331939235767"><ele>1026.0</ele><time>2026-04-27T15:43:42Z</time></trkpt><trkpt lat="42.33205850970304" lon="13.587374242757615"><ele>1026.0</ele><time>2026-04-27T15:43:44Z</time></trkpt><trkpt lat="42.33195016525723" lon="13.587354797899462"><ele>1026.0</ele><time>2026-04-27T15:43:48Z</time></trkpt><trkpt lat="42.33195355185992" lon="13.587168441853212"><ele>1023.1999999999999</ele><time>2026-04-27T15:43:49Z</time></trkpt><trkpt lat="42.331897792145845" lon="13.58707646296634"><ele>1020.3999999999999</ele><time>2026-04-27T15:43:51Z</time></trkpt><trkpt lat="42.331814803478984" lon="13.587157292419151"><ele>1017.6</ele><time>2026-04-27T15:43:52Z</time></trkpt><trkpt lat="42.331806608000356" lon="13.587276886810065"><ele>1014.8</ele><time>2026-04-27T15:43:53Z</time></trkpt><trkpt lat="42.331902338304275" lon="13.587423839356795"><ele>1012.0</ele><time>2026-04-27T15:43:54Z</time></trkpt><trkpt lat="42.33202201648479" lon="13.587405546806403"><ele>1012.0</ele><time>2026-04-27T15:43:56Z</time></trkpt><trkpt lat="42.33174617622366" lon="13.587182409416412"><ele>1012.0</ele><time>2026-04-27T15:43:57Z</time></trkpt><trkpt lat="42.33170892499314" lon="13.587272115804904"><ele>1012.0</ele><time>2026-04-27T15:43:58Z</time></trkpt><trkpt lat="42.331665175885334" lon="13.5873716825894"><ele>1012.0</ele><time>2026-04-27T15:43:59Z</time></trkpt><trkpt lat="42.33160712817838" lon="13.587492886933914"><ele>1012.0</ele><time>2026-04-27T15:44:00Z</time></trkpt><trkpt lat="42.33154358909746" lon="13.587628497008511"><ele>1012.0</ele><time>2026-04-27T15:44:01Z</time></trkpt><trkpt lat="42.331484382685176" lon="13.587774902336957"><ele>1012.0</ele><time>2026-04-27T15:44:02Z</time></trkpt><trkpt lat="42.331424853734326" lon="13.587918520347861"><ele>1008.75</ele><time>2026-04-27T15:44:03Z</time></trkpt><trkpt lat="42.33135475907662" lon="13.5880842935685"><ele>1005.5</ele><time>2026-04-27T15:44:04Z</time></trkpt><trkpt lat="42.331286060783896" lon="13.588245476046064"><ele>1002.25</ele><time>2026-04-27T15:44:05Z</time></trkpt><trkpt lat="42.33122202068368" lon="13.58840160681244"><ele>999.0</ele><time>2026-04-27T15:44:06Z</time></trkpt><trkpt lat="42.3311973632776" lon="13.588552104683012"><ele>999.0</ele><time>2026-04-27T15:44:07Z</time></trkpt><trkpt lat="42.33114551647931" lon="13.588709413993449"><ele>999.0</ele><time>2026-04-27T15:44:08Z</time></trkpt><trkpt lat="42.331100632729985" lon="13.58888299395177"><ele>999.0</ele><time>2026-04-27T15:44:09Z</time></trkpt><trkpt lat="42.33105845945494" lon="13.589050328384554"><ele>999.0</ele><time>2026-04-27T15:44:10Z</time></trkpt><trkpt lat="42.331008580632584" lon="13.589219655939713"><ele>999.0</ele><time>2026-04-27T15:44:11Z</time></trkpt><trkpt lat="42.33096107271047" lon="13.589371043846477"><ele>999.0000000000001</ele><time>2026-04-27T15:44:12Z</time></trkpt><trkpt lat="42.33091808290146" lon="13.589509632744212"><ele>999.0000000000001</ele><time>2026-04-27T15:44:13Z</time></trkpt><trkpt lat="42.330872925148014" lon="13.5896379649106"><ele>999.0</ele><time>2026-04-27T15:44:14Z</time></trkpt><trkpt lat="42.33079329969044" lon="13.589720009783946"><ele>999.0</ele><time>2026-04-27T15:44:15Z</time></trkpt><trkpt lat="42.33072763938798" lon="13.589806386215614"><ele>999.2</ele><time>2026-04-27T15:44:16Z</time></trkpt><trkpt lat="42.33065712838752" lon="13.589865373883434"><ele>999.4000000000001</ele><time>2026-04-27T15:44:17Z</time></trkpt><trkpt lat="42.33057867016448" lon="13.589922804026417"><ele>999.6</ele><time>2026-04-27T15:44:18Z</time></trkpt><trkpt lat="42.330492092282235" lon="13.589976828842403"><ele>999.8</ele><time>2026-04-27T15:44:19Z</time></trkpt><trkpt lat="42.33039653861929" lon="13.590030941636194"><ele>1000.0</ele><time>2026-04-27T15:44:20Z</time></trkpt><trkpt lat="42.33029562206904" lon="13.590081070675744"><ele>998.4</ele><time>2026-04-27T15:44:21Z</time></trkpt><trkpt lat="42.33020481020334" lon="13.590116363142783"><ele>996.8</ele><time>2026-04-27T15:44:22Z</time></trkpt><trkpt lat="42.33011577520512" lon="13.590142904282736"><ele>995.2</ele><time>2026-04-27T15:44:23Z</time></trkpt><trkpt lat="42.3300318974349" lon="13.590163359408054"><ele>993.6</ele><time>2026-04-27T15:44:24Z</time></trkpt><trkpt lat="42.329957538718425" lon="13.590179868626805"><ele>992.0</ele><time>2026-04-27T15:44:24.999Z</time></trkpt><trkpt lat="42.32988049533567" lon="13.590296779094624"><ele>993.0</ele><time>2026-04-27T15:44:25.999Z</time></trkpt><trkpt lat="42.32979932865154" lon="13.590400840759408"><ele>994.0</ele><time>2026-04-27T15:44:26.999Z</time></trkpt><trkpt lat="42.32971422713454" lon="13.59051271035624"><ele>995.0</ele><time>2026-04-27T15:44:27.999Z</time></trkpt><trkpt lat="42.329644819330944" lon="13.590619260391696"><ele>996.0</ele><time>2026-04-27T15:44:28.999Z</time></trkpt><trkpt lat="42.32958702906438" lon="13.590673488577044"><ele>997.0</ele><time>2026-04-27T15:44:30.999Z</time></trkpt><trkpt lat="42.329708382055145" lon="13.590681748285292"><ele>997.0</ele><time>2026-04-27T15:44:32.999Z</time></trkpt><trkpt lat="42.32976751648699" lon="13.590727390907219"><ele>997.0</ele><time>2026-04-27T15:44:33.999Z</time></trkpt><trkpt lat="42.329846155692785" lon="13.590775165830882"><ele>997.0</ele><time>2026-04-27T15:44:34.999Z</time></trkpt><trkpt lat="42.32993873961178" lon="13.590836930028901"><ele>997.0</ele><time>2026-04-27T15:44:35.999Z</time></trkpt><trkpt lat="42.33002459285745" lon="13.590890574448565"><ele>997.0</ele><time>2026-04-27T15:44:36.999Z</time></trkpt><trkpt lat="42.33011320280644" lon="13.59095372259462"><ele>997.0</ele><time>2026-04-27T15:44:37.999Z</time></trkpt><trkpt lat="42.33021029205201" lon="13.591015543700921"><ele>997.0</ele><time>2026-04-27T15:44:38.999Z</time></trkpt><trkpt lat="42.33030733604429" lon="13.591086433220289"><ele>997.0</ele><time>2026-04-27T15:44:39.999Z</time></trkpt><trkpt lat="42.33040587708605" lon="13.591179656976246"><ele>997.0</ele><time>2026-04-27T15:44:40.999Z</time></trkpt><trkpt lat="42.33051853296192" lon="13.591300472934359"><ele>1001.0</ele><time>2026-04-27T15:44:41.999Z</time></trkpt><trkpt lat="42.33062736361799" lon="13.591412155255343"><ele>1005.0</ele><time>2026-04-27T15:44:42.999Z</time></trkpt><trkpt lat="42.33073702569403" lon="13.591520331316428"><ele>1009.0</ele><time>2026-04-27T15:44:43.999Z</time></trkpt><trkpt lat="42.33085708914182" lon="13.591633816960046"><ele>1013.0</ele><time>2026-04-27T15:44:44.999Z</time></trkpt><trkpt lat="42.33097106958266" lon="13.591756713883369"><ele>1013.0</ele><time>2026-04-27T15:44:45.999Z</time></trkpt><trkpt lat="42.33107132399624" lon="13.591896500578992"><ele>1013.0</ele><time>2026-04-27T15:44:46.999Z</time></trkpt><trkpt lat="42.33116865373436" lon="13.592043917338115"><ele>1013.0</ele><time>2026-04-27T15:44:47.999Z</time></trkpt><trkpt lat="42.33125152831164" lon="13.592201427857047"><ele>1013.0</ele><time>2026-04-27T15:44:48.999Z</time></trkpt><trkpt lat="42.33133013855491" lon="13.592361801904383"><ele>1017.3333333333334</ele><time>2026-04-27T15:44:49.999Z</time></trkpt><trkpt lat="42.3314169033084" lon="13.592530613154622"><ele>1021.6666666666667</ele><time>2026-04-27T15:44:50.999Z</time></trkpt><trkpt lat="42.33150755969056" lon="13.592705776985156"><ele>1026.0</ele><time>2026-04-27T15:44:51.999Z</time></trkpt><trkpt lat="42.33159305990779" lon="13.592873156536289"><ele>1027.75</ele><time>2026-04-27T15:44:52.999Z</time></trkpt><trkpt lat="42.33167639996887" lon="13.593036552519669"><ele>1029.5</ele><time>2026-04-27T15:44:53.999Z</time></trkpt><trkpt lat="42.331770137892704" lon="13.59318562812546"><ele>1031.25</ele><time>2026-04-27T15:44:54.999Z</time></trkpt><trkpt lat="42.33184951025791" lon="13.593341745743363"><ele>1033.0</ele><time>2026-04-27T15:44:55.999Z</time></trkpt><trkpt lat="42.331925463519696" lon="13.593488517680456"><ele>1033.0</ele><time>2026-04-27T15:44:56.999Z</time></trkpt><trkpt lat="42.33199809301901" lon="13.593632122885428"><ele>1033.0</ele><time>2026-04-27T15:44:57.999Z</time></trkpt><trkpt lat="42.332065907543026" lon="13.593764336738532"><ele>1033.0</ele><time>2026-04-27T15:44:58.999Z</time></trkpt><trkpt lat="42.332113039206874" lon="13.593874803537858"><ele>1033.0</ele><time>2026-04-27T15:44:59.999Z</time></trkpt><trkpt lat="42.33204422926728" lon="13.594015497759269"><ele>1034.0</ele><time>2026-04-27T15:45:02.999Z</time></trkpt><trkpt lat="42.331997506788184" lon="13.594097162213027"><ele>1035.0</ele><time>2026-04-27T15:45:03.999Z</time></trkpt><trkpt lat="42.331953614121765" lon="13.594225050593554"><ele>1036.0</ele><time>2026-04-27T15:45:04.999Z</time></trkpt><trkpt lat="42.331890698696974" lon="13.594369955972276"><ele>1037.0</ele><time>2026-04-27T15:45:05.999Z</time></trkpt><trkpt lat="42.331818274384894" lon="13.594482421294092"><ele>1038.0</ele><time>2026-04-27T15:45:06.999Z</time></trkpt><trkpt lat="42.331748895368186" lon="13.594581847285468"><ele>1038.0</ele><time>2026-04-27T15:45:07.999Z</time></trkpt><trkpt lat="42.331689917869035" lon="13.594674187640672"><ele>1038.0</ele><time>2026-04-27T15:45:08.999Z</time></trkpt><trkpt lat="42.331647186381275" lon="13.594770112219095"><ele>1038.0</ele><time>2026-04-27T15:45:09.999Z</time></trkpt><trkpt lat="42.33162920462348" lon="13.594868616615457"><ele>1038.0</ele><time>2026-04-27T15:45:10.999Z</time></trkpt><trkpt lat="42.33167353146109" lon="13.59496576930121"><ele>1038.0</ele><time>2026-04-27T15:45:12.999Z</time></trkpt><trkpt lat="42.33180896435547" lon="13.594987745332569"><ele>1038.0</ele><time>2026-04-27T15:45:14.999Z</time></trkpt><trkpt lat="42.33186828667126" lon="13.595021999127447"><ele>1038.0</ele><time>2026-04-27T15:45:15.999Z</time></trkpt><trkpt lat="42.33190286353406" lon="13.59513209300879"><ele>1038.0</ele><time>2026-04-27T15:45:16.999Z</time></trkpt><trkpt lat="42.33192215388726" lon="13.595299998312628"><ele>1038.0</ele><time>2026-04-27T15:45:17.999Z</time></trkpt><trkpt lat="42.33192984043696" lon="13.595478832609144"><ele>1038.0</ele><time>2026-04-27T15:45:18.999Z</time></trkpt><trkpt lat="42.33192562543832" lon="13.595619626441524"><ele>1037.8333333333333</ele><time>2026-04-27T15:45:19.999Z</time></trkpt><trkpt lat="42.33194344633912" lon="13.5957260890673"><ele>1037.6666666666667</ele><time>2026-04-27T15:45:20.999Z</time></trkpt><trkpt lat="42.331943164243846" lon="13.59581786828966"><ele>1037.5</ele><time>2026-04-27T15:45:21.999Z</time></trkpt><trkpt lat="42.33190642479646" lon="13.595892280417488"><ele>1037.3333333333335</ele><time>2026-04-27T15:45:22.999Z</time></trkpt><trkpt lat="42.331842833666336" lon="13.595960213058335"><ele>1037.1666666666667</ele><time>2026-04-27T15:45:23.999Z</time></trkpt><trkpt lat="42.33175484858641" lon="13.596080258046943"><ele>1037.0</ele><time>2026-04-27T15:45:24.999Z</time></trkpt><trkpt lat="42.33168591163226" lon="13.596192332023591"><ele>1037.0</ele><time>2026-04-27T15:45:26Z</time></trkpt><trkpt lat="42.33163654572048" lon="13.596271066650596"><ele>1037.0</ele><time>2026-04-27T15:45:27Z</time></trkpt><trkpt lat="42.33150810272005" lon="13.59629180913161"><ele>1037.0</ele><time>2026-04-27T15:45:29Z</time></trkpt><trkpt lat="42.33142769359478" lon="13.596234045022596"><ele>1037.0</ele><time>2026-04-27T15:45:30Z</time></trkpt><trkpt lat="42.33135404976263" lon="13.596186598727158"><ele>1037.0</ele><time>2026-04-27T15:45:31Z</time></trkpt><trkpt lat="42.33126069041266" lon="13.59619855084249"><ele>1035.0</ele><time>2026-04-27T15:45:32Z</time></trkpt><trkpt lat="42.3311573432754" lon="13.596241487178764"><ele>1033.0</ele><time>2026-04-27T15:45:33Z</time></trkpt><trkpt lat="42.33105430797939" lon="13.596276587053197"><ele>1031.0</ele><time>2026-04-27T15:45:34Z</time></trkpt><trkpt lat="42.33096192091494" lon="13.596332968256775"><ele>1029.0</ele><time>2026-04-27T15:45:35Z</time></trkpt><trkpt lat="42.33089494447771" lon="13.596424031115454"><ele>1027.0</ele><time>2026-04-27T15:45:36Z</time></trkpt><trkpt lat="42.33084185317028" lon="13.596547909518076"><ele>1027.0</ele><time>2026-04-27T15:45:37Z</time></trkpt><trkpt lat="42.330791619150986" lon="13.596671287976791"><ele>1027.0</ele><time>2026-04-27T15:45:38Z</time></trkpt><trkpt lat="42.33073849448412" lon="13.596789592779379"><ele>1027.0</ele><time>2026-04-27T15:45:39Z</time></trkpt><trkpt lat="42.330708280912475" lon="13.596910751823765"><ele>1027.0</ele><time>2026-04-27T15:45:40Z</time></trkpt><trkpt lat="42.330701806475766" lon="13.59704652501494"><ele>1027.0</ele><time>2026-04-27T15:45:41Z</time></trkpt><trkpt lat="42.3306911480452" lon="13.597211767379651"><ele>1027.2</ele><time>2026-04-27T15:45:42Z</time></trkpt><trkpt lat="42.3306818804487" lon="13.5973600649438"><ele>1027.4</ele><time>2026-04-27T15:45:43Z</time></trkpt><trkpt lat="42.33065729834217" lon="13.597467626190975"><ele>1027.6</ele><time>2026-04-27T15:45:44Z</time></trkpt><trkpt lat="42.33060052592012" lon="13.597534171676623"><ele>1027.8</ele><time>2026-04-27T15:45:45Z</time></trkpt><trkpt lat="42.330502028136664" lon="13.59759879017023"><ele>1028.0</ele><time>2026-04-27T15:45:46Z</time></trkpt><trkpt lat="42.330388369414216" lon="13.59768524739975"><ele>1027.0</ele><time>2026-04-27T15:45:47Z</time></trkpt><trkpt lat="42.330294732884646" lon="13.597818770509729"><ele>1026.0</ele><time>2026-04-27T15:45:48Z</time></trkpt><trkpt lat="42.33020255545659" lon="13.59795485625833"><ele>1025.0</ele><time>2026-04-27T15:45:49Z</time></trkpt><trkpt lat="42.330125008882426" lon="13.598036941877659"><ele>1024.0</ele><time>2026-04-27T15:45:50Z</time></trkpt><trkpt lat="42.33002753350025" lon="13.598091251970821"><ele>1024.0</ele><time>2026-04-27T15:45:51Z</time></trkpt><trkpt lat="42.329902382508614" lon="13.598101951445367"><ele>1024.0</ele><time>2026-04-27T15:45:52Z</time></trkpt><trkpt lat="42.32979005704583" lon="13.598140291042386"><ele>1024.0</ele><time>2026-04-27T15:45:53Z</time></trkpt><trkpt lat="42.32970735388246" lon="13.598220181010285"><ele>1024.0</ele><time>2026-04-27T15:45:54Z</time></trkpt><trkpt lat="42.32961228182863" lon="13.598317753556007"><ele>1024.4</ele><time>2026-04-27T15:45:55Z</time></trkpt><trkpt lat="42.32951130747326" lon="13.598402270694068"><ele>1024.8000000000002</ele><time>2026-04-27T15:45:56Z</time></trkpt><trkpt lat="42.32942671070545" lon="13.598502290311396"><ele>1025.1999999999998</ele><time>2026-04-27T15:45:57Z</time></trkpt><trkpt lat="42.329367944881454" lon="13.598595416105843"><ele>1025.6</ele><time>2026-04-27T15:45:58Z</time></trkpt><trkpt lat="42.32931698292857" lon="13.598655848046741"><ele>1026.0</ele><time>2026-04-27T15:45:59Z</time></trkpt><trkpt lat="42.329250783997" lon="13.598681302823499"><ele>1026.0</ele><time>2026-04-27T15:46:00Z</time></trkpt><trkpt lat="42.32915683684386" lon="13.598696651671322"><ele>1026.0</ele><time>2026-04-27T15:46:01Z</time></trkpt><trkpt lat="42.329074507537115" lon="13.598731798991848"><ele>1026.0</ele><time>2026-04-27T15:46:02Z</time></trkpt><trkpt lat="42.32900879326412" lon="13.598794850084726"><ele>1026.0</ele><time>2026-04-27T15:46:03Z</time></trkpt><trkpt lat="42.328946485771645" lon="13.598892823860501"><ele>1026.0</ele><time>2026-04-27T15:46:04Z</time></trkpt><trkpt lat="42.32887899846682" lon="13.599009210279355"><ele>1024.75</ele><time>2026-04-27T15:46:05Z</time></trkpt><trkpt lat="42.32879488648511" lon="13.599130259738372"><ele>1023.5</ele><time>2026-04-27T15:46:06Z</time></trkpt><trkpt lat="42.3287088197206" lon="13.599255832247422"><ele>1022.25</ele><time>2026-04-27T15:46:07Z</time></trkpt><trkpt lat="42.32863592133988" lon="13.59938688000696"><ele>1021.0</ele><time>2026-04-27T15:46:08Z</time></trkpt><trkpt lat="42.328581654880345" lon="13.599516522206976"><ele>1021.0</ele><time>2026-04-27T15:46:09Z</time></trkpt><trkpt lat="42.328514825982396" lon="13.59962030381818"><ele>1020.9999999999999</ele><time>2026-04-27T15:46:10Z</time></trkpt><trkpt lat="42.32843149520789" lon="13.599726336370031"><ele>1020.9999999999999</ele><time>2026-04-27T15:46:11Z</time></trkpt><trkpt lat="42.32833632937889" lon="13.59980916309976"><ele>1021.0</ele><time>2026-04-27T15:46:12Z</time></trkpt><trkpt lat="42.32825822196981" lon="13.5998728327797"><ele>1021.0</ele><time>2026-04-27T15:46:13Z</time></trkpt><trkpt lat="42.32817736012525" lon="13.599946790878395"><ele>1021.0</ele><time>2026-04-27T15:46:14Z</time></trkpt><trkpt lat="42.32809582607333" lon="13.600033588071138"><ele>1020.9999999999999</ele><time>2026-04-27T15:46:15Z</time></trkpt><trkpt lat="42.32802967399022" lon="13.600161255605856"><ele>1020.9999999999999</ele><time>2026-04-27T15:46:16Z</time></trkpt><trkpt lat="42.327988928168935" lon="13.600301202301893"><ele>1021.0</ele><time>2026-04-27T15:46:17Z</time></trkpt><trkpt lat="42.32793116594174" lon="13.600435489504886"><ele>1021.0</ele><time>2026-04-27T15:46:18Z</time></trkpt><trkpt lat="42.32784234596114" lon="13.600536552819289"><ele>1020.25</ele><time>2026-04-27T15:46:19Z</time></trkpt><trkpt lat="42.32773520422012" lon="13.60061748133809"><ele>1019.5</ele><time>2026-04-27T15:46:20Z</time></trkpt><trkpt lat="42.32765462005198" lon="13.600724063032407"><ele>1018.75</ele><time>2026-04-27T15:46:21Z</time></trkpt><trkpt lat="42.32758085190471" lon="13.600855393989052"><ele>1018.0</ele><time>2026-04-27T15:46:22Z</time></trkpt><trkpt lat="42.32751137866291" lon="13.60100687867921"><ele>1018.75</ele><time>2026-04-27T15:46:23Z</time></trkpt><trkpt lat="42.32745720535583" lon="13.601167281345761"><ele>1019.5</ele><time>2026-04-27T15:46:24Z</time></trkpt><trkpt lat="42.327391766822146" lon="13.601316734702639"><ele>1020.25</ele><time>2026-04-27T15:46:25Z</time></trkpt><trkpt lat="42.32730730063004" lon="13.60144908869904"><ele>1021.0</ele><time>2026-04-27T15:46:26Z</time></trkpt><trkpt lat="42.32723321462459" lon="13.601576088391935"><ele>1020.0</ele><time>2026-04-27T15:46:27Z</time></trkpt><trkpt lat="42.32718338715996" lon="13.601716893744749"><ele>1019.0</ele><time>2026-04-27T15:46:27.999Z</time></trkpt><trkpt lat="42.32713166499355" lon="13.601863258703652"><ele>1018.0</ele><time>2026-04-27T15:46:28.999Z</time></trkpt><trkpt lat="42.32705797175684" lon="13.601990183809885"><ele>1017.0</ele><time>2026-04-27T15:46:29.999Z</time></trkpt><trkpt lat="42.32699946358491" lon="13.60212118477076"><ele>1016.0</ele><time>2026-04-27T15:46:30.999Z</time></trkpt><trkpt lat="42.326964485206524" lon="13.602267433326219"><ele>1015.0</ele><time>2026-04-27T15:46:31.999Z</time></trkpt><trkpt lat="42.32691942664383" lon="13.602432031445575"><ele>1014.0</ele><time>2026-04-27T15:46:32.999Z</time></trkpt><trkpt lat="42.326886906960624" lon="13.602597779791484"><ele>1013.0</ele><time>2026-04-27T15:46:33.999Z</time></trkpt><trkpt lat="42.326869712554" lon="13.602737041786218"><ele>1014.0</ele><time>2026-04-27T15:46:34.999Z</time></trkpt><trkpt lat="42.326823581483886" lon="13.60286529767349"><ele>1015.0</ele><time>2026-04-27T15:46:35.999Z</time></trkpt><trkpt lat="42.32674644689113" lon="13.602989903741237"><ele>1016.0</ele><time>2026-04-27T15:46:36.999Z</time></trkpt><trkpt lat="42.326662268882636" lon="13.603111228930532"><ele>1017.0</ele><time>2026-04-27T15:46:37.999Z</time></trkpt><trkpt lat="42.32660492336712" lon="13.603245100739244"><ele>1017.0</ele><time>2026-04-27T15:46:38.999Z</time></trkpt><trkpt lat="42.32651991915427" lon="13.603365909281434"><ele>1017.0</ele><time>2026-04-27T15:46:39.999Z</time></trkpt><trkpt lat="42.32641357719594" lon="13.603476768008006"><ele>1017.0</ele><time>2026-04-27T15:46:40.999Z</time></trkpt><trkpt lat="42.326317365774734" lon="13.603590654139358"><ele>1017.0</ele><time>2026-04-27T15:46:41.999Z</time></trkpt><trkpt lat="42.32622748907796" lon="13.603701583925384"><ele>1016.0</ele><time>2026-04-27T15:46:42.999Z</time></trkpt><trkpt lat="42.326150821389795" lon="13.603796113374173"><ele>1015.0</ele><time>2026-04-27T15:46:43.999Z</time></trkpt><trkpt lat="42.326088053354674" lon="13.603885077254944"><ele>1014.0</ele><time>2026-04-27T15:46:44.999Z</time></trkpt><trkpt lat="42.326021108276066" lon="13.603974519616578"><ele>1013.0</ele><time>2026-04-27T15:46:45.999Z</time></trkpt><trkpt lat="42.32593946878587" lon="13.604075147582348"><ele>1012.0</ele><time>2026-04-27T15:46:46.999Z</time></trkpt><trkpt lat="42.325869336425015" lon="13.60418156173521"><ele>1012.0</ele><time>2026-04-27T15:46:47.999Z</time></trkpt><trkpt lat="42.325811762670014" lon="13.604304571844088"><ele>1012.0</ele><time>2026-04-27T15:46:48.999Z</time></trkpt><trkpt lat="42.32576957603188" lon="13.604424839058325"><ele>1012.0</ele><time>2026-04-27T15:46:49.999Z</time></trkpt><trkpt lat="42.32572919688411" lon="13.604518648082069"><ele>1012.0</ele><time>2026-04-27T15:46:50.999Z</time></trkpt><trkpt lat="42.32565155805738" lon="13.604600648284014"><ele>1012.0</ele><time>2026-04-27T15:46:51.999Z</time></trkpt><trkpt lat="42.32556024409095" lon="13.604675481169913"><ele>1011.8</ele><time>2026-04-27T15:46:52.999Z</time></trkpt><trkpt lat="42.32549654851782" lon="13.60478158859159"><ele>1011.6</ele><time>2026-04-27T15:46:53.999Z</time></trkpt><trkpt lat="42.325453315026785" lon="13.604924154446504"><ele>1011.3999999999999</ele><time>2026-04-27T15:46:54.999Z</time></trkpt><trkpt lat="42.32540959352517" lon="13.605048998919164"><ele>1011.1999999999999</ele><time>2026-04-27T15:46:55.999Z</time></trkpt><trkpt lat="42.32535327968165" lon="13.605173606810814"><ele>1011.0</ele><time>2026-04-27T15:46:56.999Z</time></trkpt><trkpt lat="42.325268237351295" lon="13.605266911700234"><ele>1009.8</ele><time>2026-04-27T15:46:57.999Z</time></trkpt><trkpt lat="42.32519884464947" lon="13.605364358725335"><ele>1008.5999999999999</ele><time>2026-04-27T15:46:58.999Z</time></trkpt><trkpt lat="42.32515458873209" lon="13.605484734704072"><ele>1007.4</ele><time>2026-04-27T15:46:59.999Z</time></trkpt><trkpt lat="42.32511805154845" lon="13.605630849398642"><ele>1006.2</ele><time>2026-04-27T15:47:00.999Z</time></trkpt><trkpt lat="42.32508433835128" lon="13.605752237976219"><ele>1005.0</ele><time>2026-04-27T15:47:01.999Z</time></trkpt><trkpt lat="42.325040911849094" lon="13.605880744825926"><ele>1005.0</ele><time>2026-04-27T15:47:02.999Z</time></trkpt><trkpt lat="42.32500647207926" lon="13.605999552839998"><ele>1005.0</ele><time>2026-04-27T15:47:03.999Z</time></trkpt><trkpt lat="42.32498530255042" lon="13.606093448865677"><ele>1005.0</ele><time>2026-04-27T15:47:04.999Z</time></trkpt><trkpt lat="42.3249899115862" lon="13.606180805612025"><ele>1005.0</ele><time>2026-04-27T15:47:05.999Z</time></trkpt><trkpt lat="42.32499960042689" lon="13.606322759822199"><ele>1005.0</ele><time>2026-04-27T15:47:07.999Z</time></trkpt><trkpt lat="42.324940509211125" lon="13.606377198839587"><ele>1005.0</ele><time>2026-04-27T15:47:12.999Z</time></trkpt><trkpt lat="42.324877647106696" lon="13.606432020192235"><ele>1005.0</ele><time>2026-04-27T15:47:27.999Z</time></trkpt><trkpt lat="42.324824768486266" lon="13.60648217239993"><ele>1005.0</ele><time>2026-04-27T15:47:33Z</time></trkpt><trkpt lat="42.32475871217748" lon="13.60654076284356"><ele>1005.0</ele><time>2026-04-27T15:47:40Z</time></trkpt><trkpt lat="42.324703866578254" lon="13.606613113181915"><ele>1005.0</ele><time>2026-04-27T15:47:43Z</time></trkpt><trkpt lat="42.32465152156395" lon="13.606692810206372"><ele>1005.0</ele><time>2026-04-27T15:47:45Z</time></trkpt><trkpt lat="42.32455722414919" lon="13.606754379902071"><ele>1005.0</ele><time>2026-04-27T15:47:47Z</time></trkpt><trkpt lat="42.324493959007015" lon="13.606785204641184"><ele>1004.3333333333334</ele><time>2026-04-27T15:47:48Z</time></trkpt><trkpt lat="42.324423208222505" lon="13.606835586315531"><ele>1003.6666666666667</ele><time>2026-04-27T15:47:49Z</time></trkpt><trkpt lat="42.32436515949783" lon="13.606905941880473"><ele>1003.0</ele><time>2026-04-27T15:47:50Z</time></trkpt><trkpt lat="42.32430450391889" lon="13.606944762686423"><ele>1002.3333333333334</ele><time>2026-04-27T15:47:51Z</time></trkpt><trkpt lat="42.32421598949496" lon="13.607048873785764"><ele>1001.6666666666667</ele><time>2026-04-27T15:47:53Z</time></trkpt><trkpt lat="42.3241718075039" lon="13.60712258678226"><ele>1001.0</ele><time>2026-04-27T15:47:54Z</time></trkpt><trkpt lat="42.32411659835658" lon="13.607198905510204"><ele>999.3333333333334</ele><time>2026-04-27T15:47:55Z</time></trkpt><trkpt lat="42.324063736356734" lon="13.607272417246996"><ele>997.6666666666667</ele><time>2026-04-27T15:47:56Z</time></trkpt><trkpt lat="42.32401154880177" lon="13.607342397194415"><ele>996.0</ele><time>2026-04-27T15:47:57Z</time></trkpt><trkpt lat="42.32394849016036" lon="13.60742148193727"><ele>994.3333333333333</ele><time>2026-04-27T15:47:58Z</time></trkpt><trkpt lat="42.32389871708152" lon="13.6075124820035"><ele>992.6666666666666</ele><time>2026-04-27T15:47:59Z</time></trkpt><trkpt lat="42.32386943818059" lon="13.607615846509258"><ele>991.0</ele><time>2026-04-27T15:48:00Z</time></trkpt><trkpt lat="42.32386663550091" lon="13.607721890298254"><ele>990.6666666666666</ele><time>2026-04-27T15:48:01Z</time></trkpt><trkpt lat="42.32385703651405" lon="13.607820661231617"><ele>990.3333333333333</ele><time>2026-04-27T15:48:02Z</time></trkpt><trkpt lat="42.323826110118624" lon="13.607927228325536"><ele>990.0</ele><time>2026-04-27T15:48:03Z</time></trkpt><trkpt lat="42.323770615555645" lon="13.608043295186224"><ele>989.6666666666667</ele><time>2026-04-27T15:48:04Z</time></trkpt><trkpt lat="42.32373226052722" lon="13.608164059793769"><ele>989.3333333333334</ele><time>2026-04-27T15:48:05Z</time></trkpt><trkpt lat="42.323681175992625" lon="13.608261391445096"><ele>989.0</ele><time>2026-04-27T15:48:06Z</time></trkpt><trkpt lat="42.32364811884432" lon="13.608378777143665"><ele>989.0000000000001</ele><time>2026-04-27T15:48:07Z</time></trkpt><trkpt lat="42.323619390612585" lon="13.608474484108608"><ele>989.0</ele><time>2026-04-27T15:48:08Z</time></trkpt><trkpt lat="42.323591313984195" lon="13.608570822356777"><ele>989.0</ele><time>2026-04-27T15:48:09Z</time></trkpt><trkpt lat="42.32356426308284" lon="13.608667086197682"><ele>989.0</ele><time>2026-04-27T15:48:10Z</time></trkpt><trkpt lat="42.323532782934684" lon="13.608767206438632"><ele>989.0000000000001</ele><time>2026-04-27T15:48:11Z</time></trkpt><trkpt lat="42.32348909619501" lon="13.60886778108625"><ele>989.0</ele><time>2026-04-27T15:48:12Z</time></trkpt><trkpt lat="42.32345370466789" lon="13.608970272770815"><ele>986.6</ele><time>2026-04-27T15:48:13Z</time></trkpt><trkpt lat="42.32340423911768" lon="13.609082516199894"><ele>984.2</ele><time>2026-04-27T15:48:14Z</time></trkpt><trkpt lat="42.323341064616834" lon="13.609194859952893"><ele>981.8000000000001</ele><time>2026-04-27T15:48:15Z</time></trkpt><trkpt lat="42.32327979651266" lon="13.609300027268338"><ele>979.4000000000001</ele><time>2026-04-27T15:48:16Z</time></trkpt><trkpt lat="42.32322433103959" lon="13.609424616351989"><ele>977.0</ele><time>2026-04-27T15:48:17Z</time></trkpt><trkpt lat="42.3231644116246" lon="13.60955933607551"><ele>977.0</ele><time>2026-04-27T15:48:18Z</time></trkpt><trkpt lat="42.323102423649736" lon="13.609683597629049"><ele>977.0</ele><time>2026-04-27T15:48:19Z</time></trkpt><trkpt lat="42.323036454845386" lon="13.609787311377016"><ele>977.0</ele><time>2026-04-27T15:48:20Z</time></trkpt><trkpt lat="42.3229584491355" lon="13.60992222748774"><ele>977.0</ele><time>2026-04-27T15:48:21Z</time></trkpt><trkpt lat="42.322885602543685" lon="13.610059609653723"><ele>976.8</ele><time>2026-04-27T15:48:22Z</time></trkpt><trkpt lat="42.322814065503714" lon="13.610182436241056"><ele>976.6</ele><time>2026-04-27T15:48:23Z</time></trkpt><trkpt lat="42.3227508867611" lon="13.610295251195422"><ele>976.3999999999999</ele><time>2026-04-27T15:48:24Z</time></trkpt><trkpt lat="42.32268486684566" lon="13.610392656199764"><ele>976.1999999999999</ele><time>2026-04-27T15:48:25Z</time></trkpt><trkpt lat="42.322637187012624" lon="13.610505313005326"><ele>976.0</ele><time>2026-04-27T15:48:26Z</time></trkpt><trkpt lat="42.32259688884119" lon="13.610634343958017"><ele>974.4</ele><time>2026-04-27T15:48:27Z</time></trkpt><trkpt lat="42.32253607636344" lon="13.610754760950101"><ele>972.8</ele><time>2026-04-27T15:48:28Z</time></trkpt><trkpt lat="42.322449654267096" lon="13.610852149244948"><ele>971.1999999999999</ele><time>2026-04-27T15:48:29Z</time></trkpt><trkpt lat="42.32235780272968" lon="13.610946329682111"><ele>969.5999999999999</ele><time>2026-04-27T15:48:30Z</time></trkpt><trkpt lat="42.32228678245174" lon="13.611039984660492"><ele>968.0</ele><time>2026-04-27T15:48:31Z</time></trkpt><trkpt lat="42.322218994970285" lon="13.611132401198997"><ele>965.5999999999999</ele><time>2026-04-27T15:48:31.999Z</time></trkpt><trkpt lat="42.32216015705975" lon="13.611221255708974"><ele>963.1999999999999</ele><time>2026-04-27T15:48:32.999Z</time></trkpt><trkpt lat="42.32210240289849" lon="13.611306821598427"><ele>960.8</ele><time>2026-04-27T15:48:33.999Z</time></trkpt><trkpt lat="42.32203824418995" lon="13.611354315822583"><ele>958.4</ele><time>2026-04-27T15:48:34.999Z</time></trkpt><trkpt lat="42.32194341939651" lon="13.611381476474453"><ele>956.0</ele><time>2026-04-27T15:48:36.999Z</time></trkpt><trkpt lat="42.321851559473686" lon="13.611532681901402"><ele>956.0</ele><time>2026-04-27T15:48:38.999Z</time></trkpt><trkpt lat="42.321771036417196" lon="13.611657271353746"><ele>955.9999999999999</ele><time>2026-04-27T15:48:39.999Z</time></trkpt><trkpt lat="42.321701667488334" lon="13.611764881067328"><ele>955.9999999999999</ele><time>2026-04-27T15:48:40.999Z</time></trkpt><trkpt lat="42.32165234978687" lon="13.611866595369792"><ele>956.0</ele><time>2026-04-27T15:48:41.999Z</time></trkpt><trkpt lat="42.32161795314384" lon="13.611990893467768"><ele>956.0</ele><time>2026-04-27T15:48:42.999Z</time></trkpt><trkpt lat="42.3216006957904" lon="13.612138894241863"><ele>954.75</ele><time>2026-04-27T15:48:43.999Z</time></trkpt><trkpt lat="42.321561831962995" lon="13.61229024579075"><ele>953.5</ele><time>2026-04-27T15:48:44.999Z</time></trkpt><trkpt lat="42.32150337584406" lon="13.612426321883241"><ele>952.25</ele><time>2026-04-27T15:48:45.999Z</time></trkpt><trkpt lat="42.321428650830526" lon="13.612552807630248"><ele>951.0</ele><time>2026-04-27T15:48:46.999Z</time></trkpt><trkpt lat="42.3213404199126" lon="13.612659539015011"><ele>949.75</ele><time>2026-04-27T15:48:47.999Z</time></trkpt><trkpt lat="42.321243735312315" lon="13.612805355513814"><ele>948.5</ele><time>2026-04-27T15:48:48.999Z</time></trkpt><trkpt lat="42.321159151494534" lon="13.61297968703633"><ele>947.25</ele><time>2026-04-27T15:48:49.999Z</time></trkpt><trkpt lat="42.32106254643978" lon="13.613135660958832"><ele>946.0</ele><time>2026-04-27T15:48:50.999Z</time></trkpt><trkpt lat="42.32094190360806" lon="13.613273706811016"><ele>946.0</ele><time>2026-04-27T15:48:51.999Z</time></trkpt><trkpt lat="42.32084557917635" lon="13.613371332326912"><ele>945.9999999999999</ele><time>2026-04-27T15:48:52.999Z</time></trkpt><trkpt lat="42.32078623846395" lon="13.613412949676027"><ele>945.9999999999999</ele><time>2026-04-27T15:48:53.999Z</time></trkpt><trkpt lat="42.32067150540609" lon="13.613366468118526"><ele>946.0</ele><time>2026-04-27T15:48:55.999Z</time></trkpt><trkpt lat="42.320615445628476" lon="13.613243577901208"><ele>946.0</ele><time>2026-04-27T15:48:56.999Z</time></trkpt><trkpt lat="42.32056078284265" lon="13.613154082872823"><ele>947.0</ele><time>2026-04-27T15:48:57.999Z</time></trkpt><trkpt lat="42.32050531681383" lon="13.61309619654824"><ele>947.9999999999999</ele><time>2026-04-27T15:48:58.999Z</time></trkpt><trkpt lat="42.320450957110516" lon="13.613206187265812"><ele>948.9999999999999</ele><time>2026-04-27T15:49:00.999Z</time></trkpt><trkpt lat="42.320431944458996" lon="13.613337551826513"><ele>950.0</ele><time>2026-04-27T15:49:01.999Z</time></trkpt><trkpt lat="42.32039484138356" lon="13.613477783696306"><ele>951.0</ele><time>2026-04-27T15:49:02.999Z</time></trkpt><trkpt lat="42.32032069945792" lon="13.613561262789428"><ele>951.0</ele><time>2026-04-27T15:49:03.999Z</time></trkpt><trkpt lat="42.320266456682354" lon="13.613645998215935"><ele>950.9999999999999</ele><time>2026-04-27T15:49:04.999Z</time></trkpt><trkpt lat="42.32022566679348" lon="13.613756433190641"><ele>950.9999999999999</ele><time>2026-04-27T15:49:05.999Z</time></trkpt><trkpt lat="42.320200576639195" lon="13.613889596494193"><ele>951.0</ele><time>2026-04-27T15:49:06.999Z</time></trkpt><trkpt lat="42.32018541433424" lon="13.614055492785482"><ele>951.0</ele><time>2026-04-27T15:49:07.999Z</time></trkpt><trkpt lat="42.32016219128743" lon="13.614212659501051"><ele>950.5</ele><time>2026-04-27T15:49:08.999Z</time></trkpt><trkpt lat="42.32009596486649" lon="13.614351689801776"><ele>950.0</ele><time>2026-04-27T15:49:09.999Z</time></trkpt><trkpt lat="42.32000177442108" lon="13.61445382069773"><ele>949.5</ele><time>2026-04-27T15:49:10.999Z</time></trkpt><trkpt lat="42.31991414343207" lon="13.614547572450563"><ele>949.0</ele><time>2026-04-27T15:49:11.999Z</time></trkpt><trkpt lat="42.319848597755275" lon="13.61466164875557"><ele>948.5</ele><time>2026-04-27T15:49:12.999Z</time></trkpt><trkpt lat="42.31979044136871" lon="13.614789028745754"><ele>948.0</ele><time>2026-04-27T15:49:13.999Z</time></trkpt><trkpt lat="42.31972124721677" lon="13.614929198519809"><ele>947.5</ele><time>2026-04-27T15:49:14.999Z</time></trkpt><trkpt lat="42.31964639632403" lon="13.615076055157571"><ele>947.0</ele><time>2026-04-27T15:49:15.999Z</time></trkpt><trkpt lat="42.319577100247734" lon="13.615208832045576"><ele>949.0</ele><time>2026-04-27T15:49:16.999Z</time></trkpt><trkpt lat="42.319513337663466" lon="13.615360209423741"><ele>951.0</ele><time>2026-04-27T15:49:17.999Z</time></trkpt><trkpt lat="42.31945661161847" lon="13.61548351710362"><ele>953.0</ele><time>2026-04-27T15:49:18.999Z</time></trkpt><trkpt lat="42.31938056860626" lon="13.615576925395333"><ele>955.0</ele><time>2026-04-27T15:49:19.999Z</time></trkpt><trkpt lat="42.31928982902145" lon="13.615670783444608"><ele>954.9999999999999</ele><time>2026-04-27T15:49:20.999Z</time></trkpt><trkpt lat="42.319219153599605" lon="13.615770682215745"><ele>955.0</ele><time>2026-04-27T15:49:21.999Z</time></trkpt><trkpt lat="42.319159911648754" lon="13.615878866881133"><ele>955.0</ele><time>2026-04-27T15:49:22.999Z</time></trkpt><trkpt lat="42.31913677071632" lon="13.615992872426492"><ele>955.0</ele><time>2026-04-27T15:49:23.999Z</time></trkpt><trkpt lat="42.31912761054814" lon="13.61609693327704"><ele>954.9999999999999</ele><time>2026-04-27T15:49:24.999Z</time></trkpt><trkpt lat="42.31909689954684" lon="13.616189022010698"><ele>955.0</ele><time>2026-04-27T15:49:25.999Z</time></trkpt><trkpt lat="42.31904149914412" lon="13.61628524982715"><ele>954.8333333333333</ele><time>2026-04-27T15:49:26.999Z</time></trkpt><trkpt lat="42.31900951360141" lon="13.616385458514253"><ele>954.6666666666666</ele><time>2026-04-27T15:49:27.999Z</time></trkpt><trkpt lat="42.3189778216767" lon="13.61648037166913"><ele>954.5</ele><time>2026-04-27T15:49:28.999Z</time></trkpt><trkpt lat="42.31893550448034" lon="13.616548982862687"><ele>954.3333333333333</ele><time>2026-04-27T15:49:29.999Z</time></trkpt><trkpt lat="42.31886846250872" lon="13.616611574482176"><ele>954.1666666666666</ele><time>2026-04-27T15:49:30.999Z</time></trkpt><trkpt lat="42.318800591869866" lon="13.616688277558989"><ele>954.0</ele><time>2026-04-27T15:49:31.998Z</time></trkpt><trkpt lat="42.31871261260619" lon="13.616781459419734"><ele>954.8333333333334</ele><time>2026-04-27T15:49:32.998Z</time></trkpt><trkpt lat="42.31862522656024" lon="13.616862396508306"><ele>955.6666666666667</ele><time>2026-04-27T15:49:33.998Z</time></trkpt><trkpt lat="42.31857828256698" lon="13.616927874207118"><ele>956.5</ele><time>2026-04-27T15:49:34.998Z</time></trkpt><trkpt lat="42.318539048511816" lon="13.617021604543323"><ele>957.3333333333334</ele><time>2026-04-27T15:49:35.998Z</time></trkpt><trkpt lat="42.31849509867178" lon="13.617114022573777"><ele>958.1666666666667</ele><time>2026-04-27T15:49:36.998Z</time></trkpt><trkpt lat="42.318427237120346" lon="13.61718900571913"><ele>959.0</ele><time>2026-04-27T15:49:38Z</time></trkpt><trkpt lat="42.31833819904616" lon="13.61726036188539"><ele>959.0</ele><time>2026-04-27T15:49:39Z</time></trkpt><trkpt lat="42.31822623053268" lon="13.617319489192584"><ele>959.0</ele><time>2026-04-27T15:49:40Z</time></trkpt><trkpt lat="42.31813349537802" lon="13.617414842526975"><ele>959.0</ele><time>2026-04-27T15:49:41Z</time></trkpt><trkpt lat="42.31803933364122" lon="13.617516025379505"><ele>959.0</ele><time>2026-04-27T15:49:42Z</time></trkpt><trkpt lat="42.31793226444486" lon="13.617590178144022"><ele>959.75</ele><time>2026-04-27T15:49:43Z</time></trkpt><trkpt lat="42.31782619823476" lon="13.617667918982999"><ele>960.5</ele><time>2026-04-27T15:49:44Z</time></trkpt><trkpt lat="42.31770847044138" lon="13.617782538541071"><ele>961.25</ele><time>2026-04-27T15:49:45Z</time></trkpt><trkpt lat="42.31759280300654" lon="13.617896806929402"><ele>962.0</ele><time>2026-04-27T15:49:46Z</time></trkpt><trkpt lat="42.317480868340255" lon="13.61800917996198"><ele>962.0</ele><time>2026-04-27T15:49:47Z</time></trkpt><trkpt lat="42.31738137754984" lon="13.618109983937046"><ele>962.0</ele><time>2026-04-27T15:49:48Z</time></trkpt><trkpt lat="42.31727600010699" lon="13.618221295567981"><ele>962.0</ele><time>2026-04-27T15:49:49Z</time></trkpt><trkpt lat="42.31716254418543" lon="13.618321538629361"><ele>962.0</ele><time>2026-04-27T15:49:50Z</time></trkpt><trkpt lat="42.31704913235079" lon="13.618446422466702"><ele>963.75</ele><time>2026-04-27T15:49:51Z</time></trkpt><trkpt lat="42.31694687796043" lon="13.618556365361933"><ele>965.5</ele><time>2026-04-27T15:49:52Z</time></trkpt><trkpt lat="42.31685282585974" lon="13.61867130239018"><ele>967.25</ele><time>2026-04-27T15:49:53Z</time></trkpt><trkpt lat="42.31675431248691" lon="13.618758871444319"><ele>969.0</ele><time>2026-04-27T15:49:54Z</time></trkpt><trkpt lat="42.31664616580627" lon="13.618836742963273"><ele>969.0</ele><time>2026-04-27T15:49:55Z</time></trkpt><trkpt lat="42.31655101739769" lon="13.618918805713168"><ele>969.0000000000001</ele><time>2026-04-27T15:49:56Z</time></trkpt><trkpt lat="42.31646074156538" lon="13.61900448415219"><ele>969.0000000000001</ele><time>2026-04-27T15:49:57Z</time></trkpt><trkpt lat="42.316377761651374" lon="13.61909034719271"><ele>969.0</ele><time>2026-04-27T15:49:58Z</time></trkpt><trkpt lat="42.31630212213023" lon="13.619159629998286"><ele>969.0</ele><time>2026-04-27T15:49:59Z</time></trkpt><trkpt lat="42.31625122789901" lon="13.61924167993179"><ele>970.6666666666666</ele><time>2026-04-27T15:50:00Z</time></trkpt><trkpt lat="42.3162255660618" lon="13.61936088357359"><ele>972.3333333333333</ele><time>2026-04-27T15:50:01Z</time></trkpt><trkpt lat="42.316214291956626" lon="13.61948881887682"><ele>974.0</ele><time>2026-04-27T15:50:02Z</time></trkpt><trkpt lat="42.31619758169104" lon="13.619610039597758"><ele>975.6666666666666</ele><time>2026-04-27T15:50:03Z</time></trkpt><trkpt lat="42.316193219830986" lon="13.61972907014979"><ele>977.3333333333333</ele><time>2026-04-27T15:50:04Z</time></trkpt><trkpt lat="42.31619620819935" lon="13.619836071921313"><ele>979.0</ele><time>2026-04-27T15:50:05Z</time></trkpt><trkpt lat="42.31614791766854" lon="13.619904980114757"><ele>979.0</ele><time>2026-04-27T15:50:06Z</time></trkpt><trkpt lat="42.316080159305685" lon="13.619909048654604"><ele>979.0000000000001</ele><time>2026-04-27T15:50:07Z</time></trkpt><trkpt lat="42.315967033787885" lon="13.619984771001224"><ele>979.0000000000001</ele><time>2026-04-27T15:50:09Z</time></trkpt><trkpt lat="42.31590747961455" lon="13.620090057767355"><ele>979.0</ele><time>2026-04-27T15:50:10Z</time></trkpt><trkpt lat="42.31582510152875" lon="13.620201221330795"><ele>979.0</ele><time>2026-04-27T15:50:11Z</time></trkpt><trkpt lat="42.3157464161774" lon="13.62030428113635"><ele>979.2</ele><time>2026-04-27T15:50:12Z</time></trkpt><trkpt lat="42.31568164719029" lon="13.620426921241966"><ele>979.4000000000001</ele><time>2026-04-27T15:50:13Z</time></trkpt><trkpt lat="42.31562403937883" lon="13.620537947096802"><ele>979.6</ele><time>2026-04-27T15:50:14Z</time></trkpt><trkpt lat="42.31555093570747" lon="13.620586960699248"><ele>979.8</ele><time>2026-04-27T15:50:15Z</time></trkpt><trkpt lat="42.31547093599234" lon="13.620566962874864"><ele>980.0</ele><time>2026-04-27T15:50:16Z</time></trkpt><trkpt lat="42.31536377545745" lon="13.620617485974906"><ele>980.0</ele><time>2026-04-27T15:50:18Z</time></trkpt><trkpt lat="42.31529663097287" lon="13.620733194746421"><ele>980.0</ele><time>2026-04-27T15:50:19Z</time></trkpt><trkpt lat="42.31521484267833" lon="13.620840694933545"><ele>980.0</ele><time>2026-04-27T15:50:20Z</time></trkpt><trkpt lat="42.31513353128953" lon="13.620945281030231"><ele>980.0</ele><time>2026-04-27T15:50:21Z</time></trkpt><trkpt lat="42.31501628113776" lon="13.621045660050196"><ele>980.0</ele><time>2026-04-27T15:50:22Z</time></trkpt><trkpt lat="42.31489826784607" lon="13.621114380039424"><ele>980.0</ele><time>2026-04-27T15:50:23Z</time></trkpt><trkpt lat="42.31476171707062" lon="13.62117511668413"><ele>980.0</ele><time>2026-04-27T15:50:24Z</time></trkpt><trkpt lat="42.31463643329568" lon="13.621236801975877"><ele>980.0</ele><time>2026-04-27T15:50:25Z</time></trkpt><trkpt lat="42.31453073606982" lon="13.621297977348986"><ele>980.2</ele><time>2026-04-27T15:50:26Z</time></trkpt><trkpt lat="42.314452477503735" lon="13.621362906044682"><ele>980.4</ele><time>2026-04-27T15:50:27Z</time></trkpt><trkpt lat="42.31437232617441" lon="13.621447718598777"><ele>980.5999999999999</ele><time>2026-04-27T15:50:28Z</time></trkpt><trkpt lat="42.3142872007341" lon="13.621524777375175"><ele>980.8</ele><time>2026-04-27T15:50:29Z</time></trkpt><trkpt lat="42.31420103898632" lon="13.621600164527736"><ele>981.0</ele><time>2026-04-27T15:50:30Z</time></trkpt><trkpt lat="42.31411042712989" lon="13.621668398411014"><ele>981.0</ele><time>2026-04-27T15:50:31Z</time></trkpt><trkpt lat="42.31402185879136" lon="13.621740994528794"><ele>980.9999999999999</ele><time>2026-04-27T15:50:32Z</time></trkpt><trkpt lat="42.31395784340734" lon="13.62181134569506"><ele>980.9999999999999</ele><time>2026-04-27T15:50:33Z</time></trkpt><trkpt lat="42.31384506154442" lon="13.621791378877923"><ele>981.0</ele><time>2026-04-27T15:50:35.999Z</time></trkpt><trkpt lat="42.3137684455571" lon="13.62173992480537"><ele>981.0</ele><time>2026-04-27T15:50:36.999Z</time></trkpt><trkpt lat="42.313683665894175" lon="13.621753941951603"><ele>981.4</ele><time>2026-04-27T15:50:37.999Z</time></trkpt><trkpt lat="42.313585739577505" lon="13.621817744093253"><ele>981.8</ele><time>2026-04-27T15:50:38.999Z</time></trkpt><trkpt lat="42.31352600234275" lon="13.6218996452633"><ele>982.1999999999999</ele><time>2026-04-27T15:50:39.999Z</time></trkpt><trkpt lat="42.313466539485255" lon="13.621977110053738"><ele>982.5999999999999</ele><time>2026-04-27T15:50:40.999Z</time></trkpt><trkpt lat="42.31338825582162" lon="13.622074789676384"><ele>983.0</ele><time>2026-04-27T15:50:41.999Z</time></trkpt><trkpt lat="42.313312908511655" lon="13.622186995414573"><ele>983.0</ele><time>2026-04-27T15:50:42.999Z</time></trkpt><trkpt lat="42.313246279540266" lon="13.622291326476644"><ele>983.0</ele><time>2026-04-27T15:50:43.999Z</time></trkpt><trkpt lat="42.31320078237702" lon="13.622396804389718"><ele>983.0</ele><time>2026-04-27T15:50:44.999Z</time></trkpt><trkpt lat="42.31313377591851" lon="13.622512867252556"><ele>983.0</ele><time>2026-04-27T15:50:45.999Z</time></trkpt><trkpt lat="42.31303512012113" lon="13.62262360007036"><ele>983.0</ele><time>2026-04-27T15:50:46.999Z</time></trkpt><trkpt lat="42.31294486568148" lon="13.62272016001274"><ele>984.5999999999999</ele><time>2026-04-27T15:50:47.999Z</time></trkpt><trkpt lat="42.312871310058476" lon="13.622835442612555"><ele>986.1999999999999</ele><time>2026-04-27T15:50:48.999Z</time></trkpt><trkpt lat="42.31279416954904" lon="13.622957736559465"><ele>987.8</ele><time>2026-04-27T15:50:49.999Z</time></trkpt><trkpt lat="42.3127288901045" lon="13.62307618483476"><ele>989.4</ele><time>2026-04-27T15:50:50.999Z</time></trkpt><trkpt lat="42.31266831060114" lon="13.623166969583808"><ele>991.0</ele><time>2026-04-27T15:50:51.999Z</time></trkpt><trkpt lat="42.312636011635924" lon="13.623257652383403"><ele>991.0</ele><time>2026-04-27T15:50:52.999Z</time></trkpt><trkpt lat="42.31259123051766" lon="13.62336584963133"><ele>990.9999999999999</ele><time>2026-04-27T15:50:53.999Z</time></trkpt><trkpt lat="42.312505673299" lon="13.623441333570112"><ele>990.9999999999999</ele><time>2026-04-27T15:50:54.999Z</time></trkpt><trkpt lat="42.31241563510729" lon="13.623508077768863"><ele>991.0</ele><time>2026-04-27T15:50:55.999Z</time></trkpt><trkpt lat="42.31237601164681" lon="13.623612336596953"><ele>991.0</ele><time>2026-04-27T15:50:56.999Z</time></trkpt><trkpt lat="42.31235246084318" lon="13.623710669260507"><ele>990.1999999999999</ele><time>2026-04-27T15:50:57.999Z</time></trkpt><trkpt lat="42.31229834192264" lon="13.623818369600656"><ele>989.3999999999999</ele><time>2026-04-27T15:50:58.999Z</time></trkpt><trkpt lat="42.31222828078242" lon="13.623942873836695"><ele>988.6</ele><time>2026-04-27T15:50:59.999Z</time></trkpt><trkpt lat="42.31217052887412" lon="13.624066141837504"><ele>987.8</ele><time>2026-04-27T15:51:00.999Z</time></trkpt><trkpt lat="42.31211694339261" lon="13.624180543372418"><ele>987.0</ele><time>2026-04-27T15:51:01.999Z</time></trkpt><trkpt lat="42.31205443297415" lon="13.62429673005173"><ele>988.75</ele><time>2026-04-27T15:51:02.999Z</time></trkpt><trkpt lat="42.31199962891196" lon="13.62442796068184"><ele>990.5</ele><time>2026-04-27T15:51:03.999Z</time></trkpt><trkpt lat="42.3119305089402" lon="13.624573540988582"><ele>992.25</ele><time>2026-04-27T15:51:04.999Z</time></trkpt><trkpt lat="42.31187222285966" lon="13.624718542768818"><ele>994.0</ele><time>2026-04-27T15:51:05.999Z</time></trkpt><trkpt lat="42.3118128446978" lon="13.624848231789398"><ele>994.0</ele><time>2026-04-27T15:51:06.999Z</time></trkpt><trkpt lat="42.31175075526419" lon="13.62494864610207"><ele>994.0000000000001</ele><time>2026-04-27T15:51:07.999Z</time></trkpt><trkpt lat="42.31167251363743" lon="13.625039378207628"><ele>994.0000000000001</ele><time>2026-04-27T15:51:08.999Z</time></trkpt><trkpt lat="42.31159126129367" lon="13.625127826074587"><ele>994.0</ele><time>2026-04-27T15:51:09.999Z</time></trkpt><trkpt lat="42.311507854771186" lon="13.625247597355907"><ele>994.0</ele><time>2026-04-27T15:51:10.999Z</time></trkpt><trkpt lat="42.31143252256679" lon="13.625392218334275"><ele>998.5</ele><time>2026-04-27T15:51:11.999Z</time></trkpt><trkpt lat="42.311359548041885" lon="13.625535420126166"><ele>1003.0</ele><time>2026-04-27T15:51:12.999Z</time></trkpt><trkpt lat="42.3112931772081" lon="13.62569298895505"><ele>1007.5</ele><time>2026-04-27T15:51:13.999Z</time></trkpt><trkpt lat="42.31122374939633" lon="13.625849728497395"><ele>1012.0</ele><time>2026-04-27T15:51:14.999Z</time></trkpt><trkpt lat="42.311146003287824" lon="13.625998489243884"><ele>1009.5</ele><time>2026-04-27T15:51:15.999Z</time></trkpt><trkpt lat="42.311063354681785" lon="13.626150401270067"><ele>1007.0</ele><time>2026-04-27T15:51:16.999Z</time></trkpt><trkpt lat="42.311000947915254" lon="13.626294122398734"><ele>1004.5</ele><time>2026-04-27T15:51:17.999Z</time></trkpt><trkpt lat="42.310938726413106" lon="13.62645665312762"><ele>1002.0</ele><time>2026-04-27T15:51:18.999Z</time></trkpt><trkpt lat="42.31088458827993" lon="13.626615626139458"><ele>1002.0</ele><time>2026-04-27T15:51:19.999Z</time></trkpt><trkpt lat="42.31083521561051" lon="13.626760652258342"><ele>1002.0</ele><time>2026-04-27T15:51:20.999Z</time></trkpt><trkpt lat="42.31074463891622" lon="13.62689655584691"><ele>1002.0</ele><time>2026-04-27T15:51:21.999Z</time></trkpt><trkpt lat="42.31066104639006" lon="13.627035385365797"><ele>1002.0</ele><time>2026-04-27T15:51:22.999Z</time></trkpt><trkpt lat="42.31057028637092" lon="13.627168754089709"><ele>1003.25</ele><time>2026-04-27T15:51:23.999Z</time></trkpt><trkpt lat="42.31050654815297" lon="13.627314946403335"><ele>1004.5</ele><time>2026-04-27T15:51:24.999Z</time></trkpt><trkpt lat="42.310443433354116" lon="13.627466145050702"><ele>1005.75</ele><time>2026-04-27T15:51:25.999Z</time></trkpt><trkpt lat="42.310386952242155" lon="13.627607190339203"><ele>1007.0</ele><time>2026-04-27T15:51:26.999Z</time></trkpt><trkpt lat="42.31032965390645" lon="13.62772334447859"><ele>1007.0</ele><time>2026-04-27T15:51:27.999Z</time></trkpt><trkpt lat="42.31025782171991" lon="13.627808070378073"><ele>1007.0</ele><time>2026-04-27T15:51:28.999Z</time></trkpt><trkpt lat="42.310187445502514" lon="13.6278831351127"><ele>1007.0</ele><time>2026-04-27T15:51:29.999Z</time></trkpt><trkpt lat="42.310121865603584" lon="13.627958674701457"><ele>1007.0</ele><time>2026-04-27T15:51:30.999Z</time></trkpt><trkpt lat="42.310074137350796" lon="13.628085050180681"><ele>1007.0</ele><time>2026-04-27T15:51:31.999Z</time></trkpt><trkpt lat="42.310019439341694" lon="13.628243812846014"><ele>1006.0</ele><time>2026-04-27T15:51:32.999Z</time></trkpt><trkpt lat="42.30996691369549" lon="13.62836632967629"><ele>1005.0</ele><time>2026-04-27T15:51:33.998Z</time></trkpt><trkpt lat="42.30990887380359" lon="13.628490830305463"><ele>1004.0</ele><time>2026-04-27T15:51:34.998Z</time></trkpt><trkpt lat="42.30985341749682" lon="13.628623317645161"><ele>1003.0</ele><time>2026-04-27T15:51:35.998Z</time></trkpt><trkpt lat="42.30979638984518" lon="13.62873825896329"><ele>1002.0</ele><time>2026-04-27T15:51:36.998Z</time></trkpt><trkpt lat="42.30973145822733" lon="13.62884741572999"><ele>1004.2</ele><time>2026-04-27T15:51:37.998Z</time></trkpt><trkpt lat="42.30967646436609" lon="13.628972289426095"><ele>1006.4000000000001</ele><time>2026-04-27T15:51:38.998Z</time></trkpt><trkpt lat="42.309622943641564" lon="13.629087473480244"><ele>1008.5999999999999</ele><time>2026-04-27T15:51:39.998Z</time></trkpt><trkpt lat="42.309569668654504" lon="13.62922887090476"><ele>1010.8</ele><time>2026-04-27T15:51:40.998Z</time></trkpt><trkpt lat="42.30951932995957" lon="13.629363100702003"><ele>1013.0</ele><time>2026-04-27T15:51:41.998Z</time></trkpt><trkpt lat="42.30946758544491" lon="13.62946547022934"><ele>1012.25</ele><time>2026-04-27T15:51:43Z</time></trkpt><trkpt lat="42.30940341092296" lon="13.629570134957453"><ele>1011.5</ele><time>2026-04-27T15:51:44Z</time></trkpt><trkpt lat="42.3093379102045" lon="13.629688837226434"><ele>1010.75</ele><time>2026-04-27T15:51:45Z</time></trkpt><trkpt lat="42.309252916646756" lon="13.62981639580149"><ele>1010.0</ele><time>2026-04-27T15:51:46Z</time></trkpt><trkpt lat="42.309159939458006" lon="13.62992698652699"><ele>1010.0000000000001</ele><time>2026-04-27T15:51:47Z</time></trkpt><trkpt lat="42.30908761782232" lon="13.630021486482123"><ele>1010.0</ele><time>2026-04-27T15:51:48Z</time></trkpt><trkpt lat="42.309047224969675" lon="13.63010023648811"><ele>1010.0</ele><time>2026-04-27T15:51:49Z</time></trkpt><trkpt lat="42.30900641445819" lon="13.630167665251188"><ele>1010.0</ele><time>2026-04-27T15:51:50Z</time></trkpt><trkpt lat="42.3089622096593" lon="13.630272228066634"><ele>1010.0000000000001</ele><time>2026-04-27T15:51:51Z</time></trkpt><trkpt lat="42.30891712432741" lon="13.630410531285442"><ele>1010.0</ele><time>2026-04-27T15:51:52Z</time></trkpt><trkpt lat="42.30887958284856" lon="13.630568514520265"><ele>1009.8</ele><time>2026-04-27T15:51:53Z</time></trkpt><trkpt lat="42.30886625026859" lon="13.63071448403844"><ele>1009.6</ele><time>2026-04-27T15:51:54Z</time></trkpt><trkpt lat="42.30887217184059" lon="13.630862669690952"><ele>1009.4000000000001</ele><time>2026-04-27T15:51:55Z</time></trkpt><trkpt lat="42.30891802199796" lon="13.630996585802086"><ele>1009.2</ele><time>2026-04-27T15:51:56Z</time></trkpt><trkpt lat="42.30896580161524" lon="13.63110544140702"><ele>1009.0</ele><time>2026-04-27T15:51:57Z</time></trkpt><trkpt lat="42.30899141474652" lon="13.631202673255874"><ele>1010.0</ele><time>2026-04-27T15:51:58Z</time></trkpt><trkpt lat="42.308984204278346" lon="13.631376762594382"><ele>1011.0</ele><time>2026-04-27T15:52:00Z</time></trkpt><trkpt lat="42.30894806448464" lon="13.63151124223427"><ele>1012.0</ele><time>2026-04-27T15:52:01Z</time></trkpt><trkpt lat="42.30889488160227" lon="13.631683258602644"><ele>1013.0</ele><time>2026-04-27T15:52:02Z</time></trkpt><trkpt lat="42.308848328552955" lon="13.6318350068356"><ele>1009.0</ele><time>2026-04-27T15:52:03Z</time></trkpt><trkpt lat="42.30881311290539" lon="13.632015387142456"><ele>1005.0</ele><time>2026-04-27T15:52:04Z</time></trkpt><trkpt lat="42.30876183719215" lon="13.632173669255922"><ele>1001.0</ele><time>2026-04-27T15:52:05Z</time></trkpt><trkpt lat="42.30870146075467" lon="13.632333300671519"><ele>997.0</ele><time>2026-04-27T15:52:06Z</time></trkpt><trkpt lat="42.308639137563326" lon="13.632489950091442"><ele>997.0</ele><time>2026-04-27T15:52:07Z</time></trkpt><trkpt lat="42.30856524804867" lon="13.632637167559754"><ele>997.0</ele><time>2026-04-27T15:52:08Z</time></trkpt><trkpt lat="42.30848187214296" lon="13.632787062913636"><ele>997.0</ele><time>2026-04-27T15:52:09Z</time></trkpt><trkpt lat="42.3083922076533" lon="13.632927689579628"><ele>997.0</ele><time>2026-04-27T15:52:10Z</time></trkpt><trkpt lat="42.308309937301445" lon="13.633094941426611"><ele>997.5</ele><time>2026-04-27T15:52:11Z</time></trkpt><trkpt lat="42.30822284514348" lon="13.63324878012074"><ele>998.0</ele><time>2026-04-27T15:52:12Z</time></trkpt><trkpt lat="42.30814618838844" lon="13.633410576095336"><ele>998.5</ele><time>2026-04-27T15:52:13Z</time></trkpt><trkpt lat="42.308065291086386" lon="13.633566285067745"><ele>999.0</ele><time>2026-04-27T15:52:14Z</time></trkpt><trkpt lat="42.30800209358254" lon="13.633705586633093"><ele>997.1666666666666</ele><time>2026-04-27T15:52:15Z</time></trkpt><trkpt lat="42.30795572482187" lon="13.633818409849667"><ele>995.3333333333333</ele><time>2026-04-27T15:52:16Z</time></trkpt><trkpt lat="42.30791984046626" lon="13.63391288676846"><ele>993.5</ele><time>2026-04-27T15:52:17Z</time></trkpt><trkpt lat="42.307869313952885" lon="13.634001350104057"><ele>991.6666666666666</ele><time>2026-04-27T15:52:18Z</time></trkpt><trkpt lat="42.30780100190957" lon="13.63407254357209"><ele>989.8333333333333</ele><time>2026-04-27T15:52:19Z</time></trkpt><trkpt lat="42.3077462525715" lon="13.634117860186691"><ele>988.0</ele><time>2026-04-27T15:52:20Z</time></trkpt><trkpt lat="42.30769303939729" lon="13.634210603206677"><ele>988.0</ele><time>2026-04-27T15:52:21Z</time></trkpt><trkpt lat="42.307609612394835" lon="13.634270022804747"><ele>988.0</ele><time>2026-04-27T15:52:22Z</time></trkpt><trkpt lat="42.30754019344384" lon="13.634360591727146"><ele>988.0</ele><time>2026-04-27T15:52:23Z</time></trkpt><trkpt lat="42.30743640589997" lon="13.634497629292724"><ele>988.0</ele><time>2026-04-27T15:52:24Z</time></trkpt><trkpt lat="42.30731836076244" lon="13.634621004816257"><ele>987.0</ele><time>2026-04-27T15:52:25Z</time></trkpt><trkpt lat="42.30722691616987" lon="13.634770423748497"><ele>986.0</ele><time>2026-04-27T15:52:26Z</time></trkpt><trkpt lat="42.30714760090524" lon="13.634980227442593"><ele>985.0</ele><time>2026-04-27T15:52:27Z</time></trkpt><trkpt lat="42.307071130358985" lon="13.63513989128373"><ele>985.0</ele><time>2026-04-27T15:52:28Z</time></trkpt><trkpt lat="42.306990999176946" lon="13.635289656853745"><ele>985.0</ele><time>2026-04-27T15:52:29Z</time></trkpt><trkpt lat="42.30691255450603" lon="13.635467589423648"><ele>985.0</ele><time>2026-04-27T15:52:30Z</time></trkpt><trkpt lat="42.30682086842961" lon="13.635636797699789"><ele>985.0</ele><time>2026-04-27T15:52:31Z</time></trkpt><trkpt lat="42.30673705486692" lon="13.635766442291011"><ele>984.75</ele><time>2026-04-27T15:52:32Z</time></trkpt><trkpt lat="42.30667348429394" lon="13.635868199647282"><ele>984.5</ele><time>2026-04-27T15:52:33Z</time></trkpt><trkpt lat="42.30661751142335" lon="13.635994271183687"><ele>984.25</ele><time>2026-04-27T15:52:34Z</time></trkpt><trkpt lat="42.3065439819063" lon="13.63614616663793"><ele>984.0</ele><time>2026-04-27T15:52:35Z</time></trkpt><trkpt lat="42.30646495786702" lon="13.636304140658627"><ele>982.5</ele><time>2026-04-27T15:52:35.999Z</time></trkpt><trkpt lat="42.30639409326604" lon="13.636458580121765"><ele>981.0</ele><time>2026-04-27T15:52:36.999Z</time></trkpt><trkpt lat="42.306337279184554" lon="13.636611893651445"><ele>979.5</ele><time>2026-04-27T15:52:37.999Z</time></trkpt><trkpt lat="42.30629576337372" lon="13.63676464538952"><ele>978.0</ele><time>2026-04-27T15:52:38.999Z</time></trkpt><trkpt lat="42.30624868164275" lon="13.636947908309248"><ele>976.75</ele><time>2026-04-27T15:52:39.999Z</time></trkpt><trkpt lat="42.30620237575769" lon="13.637126019418115"><ele>975.5</ele><time>2026-04-27T15:52:40.999Z</time></trkpt><trkpt lat="42.30615408123492" lon="13.637288942389374"><ele>974.25</ele><time>2026-04-27T15:52:41.999Z</time></trkpt><trkpt lat="42.306102403894506" lon="13.637475734328344"><ele>973.0</ele><time>2026-04-27T15:52:42.999Z</time></trkpt><trkpt lat="42.3060567151867" lon="13.637650520885403"><ele>972.0</ele><time>2026-04-27T15:52:43.999Z</time></trkpt><trkpt lat="42.30600598759189" lon="13.637829510954328"><ele>971.0</ele><time>2026-04-27T15:52:44.999Z</time></trkpt><trkpt lat="42.305956007756464" lon="13.63799040706208"><ele>970.0</ele><time>2026-04-27T15:52:45.999Z</time></trkpt><trkpt lat="42.305917457591306" lon="13.638112994923215"><ele>969.0</ele><time>2026-04-27T15:52:46.999Z</time></trkpt><trkpt lat="42.305902642884206" lon="13.638285127504156"><ele>969.0</ele><time>2026-04-27T15:52:47.999Z</time></trkpt><trkpt lat="42.30589003611081" lon="13.638434381090494"><ele>969.0000000000001</ele><time>2026-04-27T15:52:48.999Z</time></trkpt><trkpt lat="42.305870711923696" lon="13.638563343680547"><ele>969.0000000000001</ele><time>2026-04-27T15:52:49.999Z</time></trkpt><trkpt lat="42.30584377744535" lon="13.638685141972786"><ele>969.0</ele><time>2026-04-27T15:52:50.999Z</time></trkpt><trkpt lat="42.30580275059808" lon="13.638765117972506"><ele>969.0</ele><time>2026-04-27T15:52:51.999Z</time></trkpt><trkpt lat="42.305760693453266" lon="13.638903904786243"><ele>968.0</ele><time>2026-04-27T15:52:52.999Z</time></trkpt><trkpt lat="42.30575014051457" lon="13.639029137962254"><ele>967.0000000000001</ele><time>2026-04-27T15:52:53.999Z</time></trkpt><trkpt lat="42.30573490143025" lon="13.639140575356562"><ele>966.0000000000001</ele><time>2026-04-27T15:52:54.999Z</time></trkpt><trkpt lat="42.305697079149084" lon="13.639234495185882"><ele>965.0</ele><time>2026-04-27T15:52:55.999Z</time></trkpt><trkpt lat="42.30562620170081" lon="13.639357678970132"><ele>964.0</ele><time>2026-04-27T15:52:56.999Z</time></trkpt><trkpt lat="42.305550872747" lon="13.639499848329198"><ele>962.0</ele><time>2026-04-27T15:52:57.999Z</time></trkpt><trkpt lat="42.30547110124325" lon="13.639626125522652"><ele>960.0000000000001</ele><time>2026-04-27T15:52:58.999Z</time></trkpt><trkpt lat="42.30540866928678" lon="13.639737862518707"><ele>958.0000000000001</ele><time>2026-04-27T15:52:59.999Z</time></trkpt><trkpt lat="42.30536168937367" lon="13.639846463217054"><ele>956.0</ele><time>2026-04-27T15:53:00.999Z</time></trkpt><trkpt lat="42.305315199370575" lon="13.640005115753514"><ele>954.0</ele><time>2026-04-27T15:53:01.999Z</time></trkpt><trkpt lat="42.30528408444919" lon="13.64015788763253"><ele>951.6</ele><time>2026-04-27T15:53:02.999Z</time></trkpt><trkpt lat="42.30525742246844" lon="13.640304524376933"><ele>949.2</ele><time>2026-04-27T15:53:03.999Z</time></trkpt><trkpt lat="42.30522269870265" lon="13.640429623957688"><ele>946.8000000000001</ele><time>2026-04-27T15:53:04.999Z</time></trkpt><trkpt lat="42.305178649355916" lon="13.640549611416754"><ele>944.4000000000001</ele><time>2026-04-27T15:53:05.999Z</time></trkpt><trkpt lat="42.30515038002443" lon="13.640661449891518"><ele>942.0</ele><time>2026-04-27T15:53:06.999Z</time></trkpt><trkpt lat="42.30509205479793" lon="13.640775262769953"><ele>942.0</ele><time>2026-04-27T15:53:07.999Z</time></trkpt><trkpt lat="42.305062023155735" lon="13.640858506124808"><ele>942.0</ele><time>2026-04-27T15:53:08.999Z</time></trkpt><trkpt lat="42.305021084782105" lon="13.64095751566218"><ele>942.0</ele><time>2026-04-27T15:53:09.999Z</time></trkpt><trkpt lat="42.30501409426576" lon="13.641087875255279"><ele>942.0</ele><time>2026-04-27T15:53:10.999Z</time></trkpt><trkpt lat="42.30501122554705" lon="13.641230977686376"><ele>942.0</ele><time>2026-04-27T15:53:11.999Z</time></trkpt><trkpt lat="42.30499004643994" lon="13.641373970317648"><ele>940.25</ele><time>2026-04-27T15:53:12.999Z</time></trkpt><trkpt lat="42.304940794134026" lon="13.641509752915209"><ele>938.5</ele><time>2026-04-27T15:53:13.999Z</time></trkpt><trkpt lat="42.304866004078015" lon="13.641633648109305"><ele>936.75</ele><time>2026-04-27T15:53:14.999Z</time></trkpt><trkpt lat="42.30482253503034" lon="13.64178614544141"><ele>935.0</ele><time>2026-04-27T15:53:15.999Z</time></trkpt><trkpt lat="42.30479182246662" lon="13.641935054445456"><ele>934.8333333333334</ele><time>2026-04-27T15:53:16.999Z</time></trkpt><trkpt lat="42.304763876020516" lon="13.642047948407809"><ele>934.6666666666667</ele><time>2026-04-27T15:53:17.999Z</time></trkpt><trkpt lat="42.30473169458818" lon="13.642141661182055"><ele>934.5</ele><time>2026-04-27T15:53:18.999Z</time></trkpt><trkpt lat="42.30467033148967" lon="13.642220995640853"><ele>934.3333333333333</ele><time>2026-04-27T15:53:19.999Z</time></trkpt><trkpt lat="42.304613494129896" lon="13.642297046331771"><ele>934.1666666666666</ele><time>2026-04-27T15:53:20.999Z</time></trkpt><trkpt lat="42.30451600378619" lon="13.642389639835997"><ele>934.0</ele><time>2026-04-27T15:53:21.999Z</time></trkpt><trkpt lat="42.30442183012325" lon="13.642502308531794"><ele>931.8000000000001</ele><time>2026-04-27T15:53:22.999Z</time></trkpt><trkpt lat="42.30432608915782" lon="13.642614486221191"><ele>929.6000000000001</ele><time>2026-04-27T15:53:23.999Z</time></trkpt><trkpt lat="42.304259017126164" lon="13.642727553804535"><ele>927.4</ele><time>2026-04-27T15:53:24.999Z</time></trkpt><trkpt lat="42.30419300414552" lon="13.64283005807878"><ele>925.2</ele><time>2026-04-27T15:53:25.999Z</time></trkpt><trkpt lat="42.304123743873845" lon="13.64287811404136"><ele>923.0</ele><time>2026-04-27T15:53:26.999Z</time></trkpt><trkpt lat="42.30403964597827" lon="13.642863681425933"><ele>923.0000000000001</ele><time>2026-04-27T15:53:28.999Z</time></trkpt><trkpt lat="42.30397051643263" lon="13.642850434027253"><ele>923.0</ele><time>2026-04-27T15:53:30.999Z</time></trkpt><trkpt lat="42.30391221037888" lon="13.642883627043142"><ele>923.0</ele><time>2026-04-27T15:53:31.999Z</time></trkpt><trkpt lat="42.30382608794759" lon="13.642954662686122"><ele>923.0</ele><time>2026-04-27T15:53:33.999Z</time></trkpt><trkpt lat="42.303733869940956" lon="13.64298695465234"><ele>923.0000000000001</ele><time>2026-04-27T15:53:35.998Z</time></trkpt><trkpt lat="42.30362949415593" lon="13.643013281037689"><ele>923.0</ele><time>2026-04-27T15:53:37.998Z</time></trkpt><trkpt lat="42.30353270116267" lon="13.643059187519105"><ele>919.8</ele><time>2026-04-27T15:53:39.998Z</time></trkpt><trkpt lat="42.30345171365364" lon="13.643084302823313"><ele>916.5999999999999</ele><time>2026-04-27T15:53:41.998Z</time></trkpt><trkpt lat="42.30336965079388" lon="13.643107085442463"><ele>913.4000000000001</ele><time>2026-04-27T15:53:43.998Z</time></trkpt><trkpt lat="42.30327733554146" lon="13.643145486091074"><ele>910.2</ele><time>2026-04-27T15:53:45.998Z</time></trkpt><trkpt lat="42.30317504013355" lon="13.6431761907128"><ele>907.0</ele><time>2026-04-27T15:53:48Z</time></trkpt><trkpt lat="42.30308149581635" lon="13.643211448199557"><ele>904.3333333333333</ele><time>2026-04-27T15:53:50Z</time></trkpt><trkpt lat="42.30299401876741" lon="13.643225729440502"><ele>901.6666666666666</ele><time>2026-04-27T15:53:52Z</time></trkpt><trkpt lat="42.302899269803795" lon="13.643225509359407"><ele>899.0</ele><time>2026-04-27T15:53:54Z</time></trkpt><trkpt lat="42.302813726194366" lon="13.643207297784809"><ele>896.3333333333333</ele><time>2026-04-27T15:53:56Z</time></trkpt><trkpt lat="42.30273029925162" lon="13.643198051704925"><ele>893.6666666666666</ele><time>2026-04-27T15:53:58Z</time></trkpt><trkpt lat="42.30263706421515" lon="13.64317906589143"><ele>891.0</ele><time>2026-04-27T15:54:00Z</time></trkpt><trkpt lat="42.30256818050478" lon="13.64313238383057"><ele>891.0</ele><time>2026-04-27T15:54:02Z</time></trkpt><trkpt lat="42.302467122661675" lon="13.643097354379638"><ele>890.9999999999999</ele><time>2026-04-27T15:54:04Z</time></trkpt><trkpt lat="42.30236247439245" lon="13.643106383857598"><ele>890.9999999999999</ele><time>2026-04-27T15:54:06Z</time></trkpt><trkpt lat="42.30229033218546" lon="13.643132055688366"><ele>891.0</ele><time>2026-04-27T15:54:08Z</time></trkpt><trkpt lat="42.30220036187619" lon="13.643208367645462"><ele>891.0</ele><time>2026-04-27T15:54:09Z</time></trkpt><trkpt lat="42.30214494572747" lon="13.643252449530195"><ele>889.5714285714287</ele><time>2026-04-27T15:54:10Z</time></trkpt><trkpt lat="42.30208504867591" lon="13.643288316223451"><ele>888.1428571428571</ele><time>2026-04-27T15:54:11Z</time></trkpt><trkpt lat="42.30201827798134" lon="13.64331339871736"><ele>886.7142857142858</ele><time>2026-04-27T15:54:12Z</time></trkpt><trkpt lat="42.3019400228309" lon="13.64332832318265"><ele>885.2857142857143</ele><time>2026-04-27T15:54:13Z</time></trkpt><trkpt lat="42.301867514425176" lon="13.643340769219327"><ele>883.8571428571429</ele><time>2026-04-27T15:54:14Z</time></trkpt><trkpt lat="42.30179652294592" lon="13.64334501828457"><ele>882.4285714285714</ele><time>2026-04-27T15:54:15Z</time></trkpt><trkpt lat="42.301717087572186" lon="13.643348534879356"><ele>881.0</ele><time>2026-04-27T15:54:16Z</time></trkpt><trkpt lat="42.30164340615175" lon="13.6433674836844"><ele>881.0</ele><time>2026-04-27T15:54:17Z</time></trkpt><trkpt lat="42.30156932149475" lon="13.643390156914833"><ele>881.0</ele><time>2026-04-27T15:54:18Z</time></trkpt><trkpt lat="42.30149387360291" lon="13.643425892481588"><ele>881.0</ele><time>2026-04-27T15:54:19Z</time></trkpt><trkpt lat="42.30143321470787" lon="13.643451754748039"><ele>881.0</ele><time>2026-04-27T15:54:20Z</time></trkpt><trkpt lat="42.301362727139804" lon="13.643479359985173"><ele>881.0</ele><time>2026-04-27T15:54:21Z</time></trkpt><trkpt lat="42.30128896684362" lon="13.643524708201614"><ele>881.0</ele><time>2026-04-27T15:54:22Z</time></trkpt><trkpt lat="42.301220094203174" lon="13.643559182823804"><ele>881.0</ele><time>2026-04-27T15:54:23Z</time></trkpt><trkpt lat="42.301150169852356" lon="13.64358759042774"><ele>879.8333333333334</ele><time>2026-04-27T15:54:24Z</time></trkpt><trkpt lat="42.30107958685883" lon="13.64361096229658"><ele>878.6666666666667</ele><time>2026-04-27T15:54:25Z</time></trkpt><trkpt lat="42.301002041127816" lon="13.643635170538719"><ele>877.5</ele><time>2026-04-27T15:54:26Z</time></trkpt><trkpt lat="42.30092700135755" lon="13.643667847944768"><ele>876.3333333333333</ele><time>2026-04-27T15:54:27Z</time></trkpt><trkpt lat="42.300842844801466" lon="13.643706861463547"><ele>875.1666666666666</ele><time>2026-04-27T15:54:28Z</time></trkpt><trkpt lat="42.30076953047399" lon="13.643734645795215"><ele>874.0</ele><time>2026-04-27T15:54:29Z</time></trkpt><trkpt lat="42.300697506585394" lon="13.643764596309722"><ele>873.4000000000001</ele><time>2026-04-27T15:54:30Z</time></trkpt><trkpt lat="42.30063586058367" lon="13.643799076891966"><ele>872.8000000000001</ele><time>2026-04-27T15:54:31Z</time></trkpt><trkpt lat="42.30053967485431" lon="13.643876899074664"><ele>872.1999999999999</ele><time>2026-04-27T15:54:33Z</time></trkpt><trkpt lat="42.30044434351362" lon="13.643879443731404"><ele>871.5999999999999</ele><time>2026-04-27T15:54:35Z</time></trkpt><trkpt lat="42.30032345393412" lon="13.64389392224715"><ele>871.0</ele><time>2026-04-27T15:54:37Z</time></trkpt><trkpt lat="42.300259987615114" lon="13.643895630615349"><ele>869.9999999999999</ele><time>2026-04-27T15:54:38Z</time></trkpt><trkpt lat="42.30014294440814" lon="13.643922411168381"><ele>869.0</ele><time>2026-04-27T15:54:39.999Z</time></trkpt><trkpt lat="42.30007075842897" lon="13.64394019611862"><ele>868.0</ele><time>2026-04-27T15:54:40.999Z</time></trkpt><trkpt lat="42.29999694529305" lon="13.643935063773897"><ele>867.0</ele><time>2026-04-27T15:54:41.999Z</time></trkpt><trkpt lat="42.29993224330518" lon="13.643910277153054"><ele>865.9999999999999</ele><time>2026-04-27T15:54:42.999Z</time></trkpt><trkpt lat="42.299823376605225" lon="13.643890236445325"><ele>865.0</ele><time>2026-04-27T15:54:44.999Z</time></trkpt><trkpt lat="42.29974993863435" lon="13.643874139814926"><ele>864.2</ele><time>2026-04-27T15:54:45.999Z</time></trkpt><trkpt lat="42.29964386287213" lon="13.643806916489531"><ele>863.4</ele><time>2026-04-27T15:54:47.999Z</time></trkpt><trkpt lat="42.29952763644587" lon="13.64370989309587"><ele>862.5999999999999</ele><time>2026-04-27T15:54:49.999Z</time></trkpt><trkpt lat="42.29945880154652" lon="13.64366014040246"><ele>861.8</ele><time>2026-04-27T15:54:50.999Z</time></trkpt><trkpt lat="42.29939092895746" lon="13.64360160638004"><ele>861.0</ele><time>2026-04-27T15:54:51.999Z</time></trkpt><trkpt lat="42.29932190058561" lon="13.64353881654411"><ele>860.1666666666666</ele><time>2026-04-27T15:54:52.999Z</time></trkpt><trkpt lat="42.299253336891006" lon="13.643474246820354"><ele>859.3333333333333</ele><time>2026-04-27T15:54:53.999Z</time></trkpt><trkpt lat="42.299184835607" lon="13.643418944664326"><ele>858.5</ele><time>2026-04-27T15:54:54.999Z</time></trkpt><trkpt lat="42.299116481889286" lon="13.643356074375808"><ele>857.6666666666666</ele><time>2026-04-27T15:54:55.999Z</time></trkpt><trkpt lat="42.29904791911323" lon="13.643297985009417"><ele>856.8333333333333</ele><time>2026-04-27T15:54:56.999Z</time></trkpt><trkpt lat="42.29898019459042" lon="13.6432357542183"><ele>856.0</ele><time>2026-04-27T15:54:57.999Z</time></trkpt><trkpt lat="42.2989112438108" lon="13.643168042091917"><ele>854.8333333333333</ele><time>2026-04-27T15:54:58.999Z</time></trkpt><trkpt lat="42.298844786524214" lon="13.643105412720072"><ele>853.6666666666666</ele><time>2026-04-27T15:54:59.999Z</time></trkpt><trkpt lat="42.29878067306642" lon="13.643034398395516"><ele>852.5</ele><time>2026-04-27T15:55:00.999Z</time></trkpt><trkpt lat="42.29871866871214" lon="13.642960320477126"><ele>851.3333333333333</ele><time>2026-04-27T15:55:01.999Z</time></trkpt><trkpt lat="42.298660550517916" lon="13.64288205805069"><ele>850.1666666666666</ele><time>2026-04-27T15:55:02.999Z</time></trkpt><trkpt lat="42.29860631843561" lon="13.642800487380601"><ele>849.0</ele><time>2026-04-27T15:55:03.999Z</time></trkpt><trkpt lat="42.29855099000542" lon="13.642719885089384"><ele>848.0</ele><time>2026-04-27T15:55:04.999Z</time></trkpt><trkpt lat="42.29849947833914" lon="13.642633669850348"><ele>847.0</ele><time>2026-04-27T15:55:05.999Z</time></trkpt><trkpt lat="42.29844825368203" lon="13.64254633646991"><ele>846.0</ele><time>2026-04-27T15:55:06.999Z</time></trkpt><trkpt lat="42.29839437306086" lon="13.642454668391663"><ele>845.0</ele><time>2026-04-27T15:55:07.999Z</time></trkpt><trkpt lat="42.29834293949973" lon="13.642364993169753"><ele>844.0</ele><time>2026-04-27T15:55:08.999Z</time></trkpt><trkpt lat="42.298286113052946" lon="13.642283387443864"><ele>843.0</ele><time>2026-04-27T15:55:09.999Z</time></trkpt><trkpt lat="42.29822450399742" lon="13.6422048461812"><ele>843.0</ele><time>2026-04-27T15:55:10.999Z</time></trkpt><trkpt lat="42.29815570342125" lon="13.642112570118082"><ele>843.0</ele><time>2026-04-27T15:55:11.999Z</time></trkpt><trkpt lat="42.298093725376404" lon="13.642027906160596"><ele>843.0</ele><time>2026-04-27T15:55:12.999Z</time></trkpt><trkpt lat="42.298025697980286" lon="13.641958549283078"><ele>843.0</ele><time>2026-04-27T15:55:13.999Z</time></trkpt><trkpt lat="42.297947540475455" lon="13.641898800466874"><ele>843.0</ele><time>2026-04-27T15:55:14.999Z</time></trkpt><trkpt lat="42.29786618809589" lon="13.641842088481829"><ele>840.5999999999999</ele><time>2026-04-27T15:55:15.999Z</time></trkpt><trkpt lat="42.29778527282356" lon="13.641787217979585"><ele>838.1999999999999</ele><time>2026-04-27T15:55:16.999Z</time></trkpt><trkpt lat="42.29770570393734" lon="13.641735526727809"><ele>835.8</ele><time>2026-04-27T15:55:17.999Z</time></trkpt><trkpt lat="42.2976184055763" lon="13.641698810865629"><ele>833.4</ele><time>2026-04-27T15:55:18.999Z</time></trkpt><trkpt lat="42.297522612959376" lon="13.641677475829368"><ele>831.0</ele><time>2026-04-27T15:55:19.999Z</time></trkpt><trkpt lat="42.29741324635589" lon="13.641663100155931"><ele>831.0</ele><time>2026-04-27T15:55:20.999Z</time></trkpt><trkpt lat="42.297283835774294" lon="13.641666627822937"><ele>831.0</ele><time>2026-04-27T15:55:21.999Z</time></trkpt><trkpt lat="42.29715051137534" lon="13.641665795527432"><ele>831.0</ele><time>2026-04-27T15:55:22.999Z</time></trkpt><trkpt lat="42.29702276325573" lon="13.641632718861132"><ele>831.0</ele><time>2026-04-27T15:55:23.999Z</time></trkpt><trkpt lat="42.29690234248709" lon="13.641601947187183"><ele>829.1999999999999</ele><time>2026-04-27T15:55:24.999Z</time></trkpt><trkpt lat="42.29679738280449" lon="13.641578592566058"><ele>827.4</ele><time>2026-04-27T15:55:25.999Z</time></trkpt><trkpt lat="42.29670890617688" lon="13.641557326532068"><ele>825.6</ele><time>2026-04-27T15:55:26.999Z</time></trkpt><trkpt lat="42.29662271177939" lon="13.641569040012852"><ele>823.8</ele><time>2026-04-27T15:55:27.999Z</time></trkpt><trkpt lat="42.2965138725767" lon="13.641604760079554"><ele>822.0</ele><time>2026-04-27T15:55:28.999Z</time></trkpt><trkpt lat="42.2963857523168" lon="13.641626377998913"><ele>819.75</ele><time>2026-04-27T15:55:29.999Z</time></trkpt><trkpt lat="42.29625168503648" lon="13.641610266669023"><ele>817.5</ele><time>2026-04-27T15:55:30.999Z</time></trkpt><trkpt lat="42.2961218722833" lon="13.641564471183782"><ele>815.25</ele><time>2026-04-27T15:55:31.999Z</time></trkpt><trkpt lat="42.296002825527474" lon="13.641497978202144"><ele>813.0</ele><time>2026-04-27T15:55:32.999Z</time></trkpt><trkpt lat="42.29588513228839" lon="13.641436183682522"><ele>813.0</ele><time>2026-04-27T15:55:33.999Z</time></trkpt><trkpt lat="42.29576497713343" lon="13.641379322472224"><ele>813.0</ele><time>2026-04-27T15:55:34.999Z</time></trkpt><trkpt lat="42.29564228997434" lon="13.641343496301221"><ele>813.0</ele><time>2026-04-27T15:55:35.999Z</time></trkpt><trkpt lat="42.29551697043013" lon="13.64133664427744"><ele>813.0</ele><time>2026-04-27T15:55:36.999Z</time></trkpt><trkpt lat="42.29538062643486" lon="13.641327455033947"><ele>810.75</ele><time>2026-04-27T15:55:37.999Z</time></trkpt><trkpt lat="42.295246973108846" lon="13.641307759824365"><ele>808.5</ele><time>2026-04-27T15:55:38.998Z</time></trkpt><trkpt lat="42.29512732700533" lon="13.641288934022581"><ele>806.25</ele><time>2026-04-27T15:55:39.998Z</time></trkpt><trkpt lat="42.29500629342234" lon="13.641286951583703"><ele>804.0</ele><time>2026-04-27T15:55:40.998Z</time></trkpt><trkpt lat="42.29490034308253" lon="13.641287958890901"><ele>804.0</ele><time>2026-04-27T15:55:41.998Z</time></trkpt><trkpt lat="42.29481528831329" lon="13.641281971195786"><ele>804.0</ele><time>2026-04-27T15:55:42.998Z</time></trkpt><trkpt lat="42.29473251527569" lon="13.641263374595523"><ele>804.0</ele><time>2026-04-27T15:55:43.998Z</time></trkpt><trkpt lat="42.2946491200685" lon="13.641228426352788"><ele>804.0</ele><time>2026-04-27T15:55:44.998Z</time></trkpt><trkpt lat="42.294565972633904" lon="13.641184736740176"><ele>804.0</ele><time>2026-04-27T15:55:45.998Z</time></trkpt><trkpt lat="42.2944932513531" lon="13.641149278354854"><ele>804.0</ele><time>2026-04-27T15:55:46.998Z</time></trkpt><trkpt lat="42.294428243718706" lon="13.641104621534186"><ele>803.0</ele><time>2026-04-27T15:55:48.998Z</time></trkpt><trkpt lat="42.294330336214756" lon="13.641112188119173"><ele>802.0</ele><time>2026-04-27T15:55:51.998Z</time></trkpt><trkpt lat="42.2942768292713" lon="13.641187216535366"><ele>801.0</ele><time>2026-04-27T15:55:54Z</time></trkpt><trkpt lat="42.29420338622877" lon="13.641239299263905"><ele>800.0</ele><time>2026-04-27T15:55:56Z</time></trkpt><trkpt lat="42.29411268348636" lon="13.641337392340072"><ele>799.0</ele><time>2026-04-27T15:55:58Z</time></trkpt><trkpt lat="42.294058612225676" lon="13.6413958692274"><ele>798.0</ele><time>2026-04-27T15:55:59Z</time></trkpt><trkpt lat="42.294006844191216" lon="13.641493043620903"><ele>798.0</ele><time>2026-04-27T15:56:00Z</time></trkpt><trkpt lat="42.29394145548096" lon="13.641568572991988"><ele>798.0</ele><time>2026-04-27T15:56:01Z</time></trkpt><trkpt lat="42.29387449827446" lon="13.641669809812292"><ele>798.0</ele><time>2026-04-27T15:56:02Z</time></trkpt><trkpt lat="42.293818285266404" lon="13.641757834705654"><ele>798.0</ele><time>2026-04-27T15:56:03Z</time></trkpt><trkpt lat="42.293769554191556" lon="13.641856876801588"><ele>798.0</ele><time>2026-04-27T15:56:04Z</time></trkpt><trkpt lat="42.29372506046162" lon="13.641965919841436"><ele>798.0</ele><time>2026-04-27T15:56:05Z</time></trkpt><trkpt lat="42.293691291293825" lon="13.642075502250975"><ele>798.0</ele><time>2026-04-27T15:56:06Z</time></trkpt><trkpt lat="42.293656751862144" lon="13.642188897672497"><ele>798.0</ele><time>2026-04-27T15:56:07Z</time></trkpt><trkpt lat="42.29359891617595" lon="13.642291895392253"><ele>798.0</ele><time>2026-04-27T15:56:08Z</time></trkpt><trkpt lat="42.29351356223953" lon="13.642355443730567"><ele>798.0</ele><time>2026-04-27T15:56:09Z</time></trkpt><trkpt lat="42.29342003431648" lon="13.642413862861348"><ele>798.0</ele><time>2026-04-27T15:56:10Z</time></trkpt><trkpt lat="42.293312971006955" lon="13.642472503154664"><ele>798.0</ele><time>2026-04-27T15:56:11Z</time></trkpt><trkpt lat="42.29321008870243" lon="13.642529823969129"><ele>798.0</ele><time>2026-04-27T15:56:12Z</time></trkpt><trkpt lat="42.29308934360529" lon="13.642598025114927"><ele>798.0</ele><time>2026-04-27T15:56:13Z</time></trkpt><trkpt lat="42.29296001968649" lon="13.64266889805781"><ele>797.75</ele><time>2026-04-27T15:56:14Z</time></trkpt><trkpt lat="42.29282501859658" lon="13.642738927020307"><ele>797.5</ele><time>2026-04-27T15:56:15Z</time></trkpt><trkpt lat="42.29269293664521" lon="13.642804728763966"><ele>797.25</ele><time>2026-04-27T15:56:16Z</time></trkpt><trkpt lat="42.29255415253702" lon="13.642873383447712"><ele>797.0</ele><time>2026-04-27T15:56:17Z</time></trkpt><trkpt lat="42.29241106087751" lon="13.642944151084356"><ele>797.0</ele><time>2026-04-27T15:56:18Z</time></trkpt><trkpt lat="42.292283043259395" lon="13.643011990351802"><ele>797.0</ele><time>2026-04-27T15:56:19Z</time></trkpt><trkpt lat="42.29214737986431" lon="13.643017487838716"><ele>797.0</ele><time>2026-04-27T15:56:20Z</time></trkpt><trkpt lat="42.29202446352103" lon="13.64306690221645"><ele>797.0</ele><time>2026-04-27T15:56:21Z</time></trkpt><trkpt lat="42.29190431852117" lon="13.64310901004818"><ele>796.6</ele><time>2026-04-27T15:56:22Z</time></trkpt><trkpt lat="42.29179856353929" lon="13.643139282682128"><ele>796.2</ele><time>2026-04-27T15:56:23Z</time></trkpt><trkpt lat="42.29169979026952" lon="13.643160244058263"><ele>795.8</ele><time>2026-04-27T15:56:24Z</time></trkpt><trkpt lat="42.29159075226479" lon="13.643167595398058"><ele>795.4</ele><time>2026-04-27T15:56:25Z</time></trkpt><trkpt lat="42.2914907008256" lon="13.643144699400121"><ele>795.0</ele><time>2026-04-27T15:56:26Z</time></trkpt><trkpt lat="42.2914059591475" lon="13.643088222245423"><ele>794.0</ele><time>2026-04-27T15:56:27Z</time></trkpt><trkpt lat="42.29130870000525" lon="13.643039908003688"><ele>793.0</ele><time>2026-04-27T15:56:28Z</time></trkpt><trkpt lat="42.29120487419019" lon="13.643021533187563"><ele>792.0</ele><time>2026-04-27T15:56:29Z</time></trkpt><trkpt lat="42.29108241319853" lon="13.643036117910732"><ele>791.0</ele><time>2026-04-27T15:56:30Z</time></trkpt><trkpt lat="42.29096143264132" lon="13.643066438947788"><ele>791.0</ele><time>2026-04-27T15:56:31Z</time></trkpt><trkpt lat="42.29083911353049" lon="13.64309915368435"><ele>791.0</ele><time>2026-04-27T15:56:32Z</time></trkpt><trkpt lat="42.29071613022289" lon="13.64313204778968"><ele>791.0</ele><time>2026-04-27T15:56:33Z</time></trkpt><trkpt lat="42.29059622834855" lon="13.643160548282214"><ele>791.0</ele><time>2026-04-27T15:56:34Z</time></trkpt><trkpt lat="42.29047188883072" lon="13.64317927716319"><ele>789.75</ele><time>2026-04-27T15:56:35Z</time></trkpt><trkpt lat="42.29034685244868" lon="13.64318916193881"><ele>788.5</ele><time>2026-04-27T15:56:36Z</time></trkpt><trkpt lat="42.2902218464731" lon="13.643199449039683"><ele>787.25</ele><time>2026-04-27T15:56:37Z</time></trkpt><trkpt lat="42.290097169247694" lon="13.643214699807647"><ele>786.0</ele><time>2026-04-27T15:56:38Z</time></trkpt><trkpt lat="42.289976483794376" lon="13.64323247417491"><ele>786.0</ele><time>2026-04-27T15:56:39Z</time></trkpt><trkpt lat="42.28986585701528" lon="13.643260346978982"><ele>786.0</ele><time>2026-04-27T15:56:40Z</time></trkpt><trkpt lat="42.28976639031836" lon="13.643321094623904"><ele>786.0</ele><time>2026-04-27T15:56:41Z</time></trkpt><trkpt lat="42.289700632342544" lon="13.643398312316949"><ele>786.0</ele><time>2026-04-27T15:56:41.999Z</time></trkpt><trkpt lat="42.289670980030124" lon="13.643533778898147"><ele>786.0</ele><time>2026-04-27T15:56:42.999Z</time></trkpt><trkpt lat="42.28970188989636" lon="13.643693948310899"><ele>787.0</ele><time>2026-04-27T15:56:43.999Z</time></trkpt><trkpt lat="42.28974612422393" lon="13.643836871589182"><ele>788.0</ele><time>2026-04-27T15:56:44.999Z</time></trkpt><trkpt lat="42.28978010538729" lon="13.643996469599609"><ele>789.0</ele><time>2026-04-27T15:56:45.999Z</time></trkpt><trkpt lat="42.289799410529376" lon="13.644137627634043"><ele>790.0</ele><time>2026-04-27T15:56:46.999Z</time></trkpt><trkpt lat="42.28981387881593" lon="13.644267882943705"><ele>791.0</ele><time>2026-04-27T15:56:47.999Z</time></trkpt><trkpt lat="42.28982920305023" lon="13.644406326115265"><ele>791.8</ele><time>2026-04-27T15:56:48.999Z</time></trkpt><trkpt lat="42.28984269591382" lon="13.644549741077386"><ele>792.5999999999999</ele><time>2026-04-27T15:56:49.999Z</time></trkpt><trkpt lat="42.28986372168552" lon="13.644696144938804"><ele>793.4</ele><time>2026-04-27T15:56:50.999Z</time></trkpt><trkpt lat="42.28991337411852" lon="13.644832298133696"><ele>794.2</ele><time>2026-04-27T15:56:51.999Z</time></trkpt><trkpt lat="42.28995190884816" lon="13.644973619127958"><ele>795.0</ele><time>2026-04-27T15:56:52.999Z</time></trkpt><trkpt lat="42.28999438216299" lon="13.645118041058348"><ele>795.0</ele><time>2026-04-27T15:56:53.999Z</time></trkpt><trkpt lat="42.29002037208916" lon="13.645272543662122"><ele>795.0</ele><time>2026-04-27T15:56:54.999Z</time></trkpt><trkpt lat="42.29006705023595" lon="13.645416758981332"><ele>795.0</ele><time>2026-04-27T15:56:55.999Z</time></trkpt><trkpt lat="42.29008712086733" lon="13.64557311308154"><ele>795.0</ele><time>2026-04-27T15:56:56.999Z</time></trkpt><trkpt lat="42.290090164577954" lon="13.645724268798876"><ele>795.25</ele><time>2026-04-27T15:56:57.999Z</time></trkpt><trkpt lat="42.2900822932125" lon="13.645880470454822"><ele>795.5</ele><time>2026-04-27T15:56:58.999Z</time></trkpt><trkpt lat="42.29006797594103" lon="13.64604156839848"><ele>795.75</ele><time>2026-04-27T15:56:59.999Z</time></trkpt><trkpt lat="42.29004200027104" lon="13.646195254403858"><ele>796.0</ele><time>2026-04-27T15:57:00.999Z</time></trkpt><trkpt lat="42.290005002468796" lon="13.646341471360715"><ele>797.5</ele><time>2026-04-27T15:57:01.999Z</time></trkpt><trkpt lat="42.28994663806178" lon="13.646470273081203"><ele>799.0</ele><time>2026-04-27T15:57:02.999Z</time></trkpt><trkpt lat="42.289873784915855" lon="13.646592526517258"><ele>800.5</ele><time>2026-04-27T15:57:03.999Z</time></trkpt><trkpt lat="42.289796615200245" lon="13.646720247394304"><ele>802.0</ele><time>2026-04-27T15:57:04.999Z</time></trkpt><trkpt lat="42.28972400689003" lon="13.646859089607378"><ele>799.25</ele><time>2026-04-27T15:57:05.999Z</time></trkpt><trkpt lat="42.289660701905" lon="13.647005782266348"><ele>796.5</ele><time>2026-04-27T15:57:06.999Z</time></trkpt><trkpt lat="42.28960841956557" lon="13.64716911159379"><ele>793.75</ele><time>2026-04-27T15:57:07.999Z</time></trkpt><trkpt lat="42.28957144945575" lon="13.647337627681353"><ele>791.0</ele><time>2026-04-27T15:57:08.999Z</time></trkpt><trkpt lat="42.28953903660802" lon="13.647486040746127"><ele>791.0</ele><time>2026-04-27T15:57:09.999Z</time></trkpt><trkpt lat="42.28950270744345" lon="13.64762066365886"><ele>791.0</ele><time>2026-04-27T15:57:10.999Z</time></trkpt><trkpt lat="42.28945505967806" lon="13.647735946107444"><ele>791.0</ele><time>2026-04-27T15:57:11.999Z</time></trkpt><trkpt lat="42.28938248464297" lon="13.647858463986342"><ele>791.0</ele><time>2026-04-27T15:57:12.999Z</time></trkpt><trkpt lat="42.28929727671444" lon="13.64798496076981"><ele>791.0</ele><time>2026-04-27T15:57:13.999Z</time></trkpt><trkpt lat="42.28920943591395" lon="13.64810913011572"><ele>792.25</ele><time>2026-04-27T15:57:14.999Z</time></trkpt><trkpt lat="42.28912031207053" lon="13.648233662926511"><ele>793.5</ele><time>2026-04-27T15:57:15.999Z</time></trkpt><trkpt lat="42.2890295759429" lon="13.648360448741203"><ele>794.75</ele><time>2026-04-27T15:57:16.999Z</time></trkpt><trkpt lat="42.28893545308163" lon="13.64848741534621"><ele>796.0</ele><time>2026-04-27T15:57:17.999Z</time></trkpt><trkpt lat="42.28883818285745" lon="13.648612046277712"><ele>794.0</ele><time>2026-04-27T15:57:18.999Z</time></trkpt><trkpt lat="42.28873614977326" lon="13.648732122315236"><ele>792.0</ele><time>2026-04-27T15:57:19.999Z</time></trkpt><trkpt lat="42.28862747728099" lon="13.648842461555715"><ele>790.0</ele><time>2026-04-27T15:57:20.999Z</time></trkpt><trkpt lat="42.288521954931916" lon="13.648968046549973"><ele>788.0</ele><time>2026-04-27T15:57:21.999Z</time></trkpt><trkpt lat="42.288402126209654" lon="13.649065090805754"><ele>788.0</ele><time>2026-04-27T15:57:22.999Z</time></trkpt><trkpt lat="42.28829820652804" lon="13.649189253442911"><ele>788.0</ele><time>2026-04-27T15:57:23.999Z</time></trkpt><trkpt lat="42.28817659407078" lon="13.64928829140197"><ele>788.0</ele><time>2026-04-27T15:57:24.999Z</time></trkpt><trkpt lat="42.28805570438661" lon="13.649420791543523"><ele>788.0</ele><time>2026-04-27T15:57:25.999Z</time></trkpt><trkpt lat="42.287954056079386" lon="13.649564212162636"><ele>786.0</ele><time>2026-04-27T15:57:26.999Z</time></trkpt><trkpt lat="42.2878728733299" lon="13.649718648751005"><ele>784.0</ele><time>2026-04-27T15:57:27.999Z</time></trkpt><trkpt lat="42.28780087793463" lon="13.649884781508895"><ele>782.0</ele><time>2026-04-27T15:57:28.999Z</time></trkpt><trkpt lat="42.28773527930427" lon="13.65004469986896"><ele>780.0</ele><time>2026-04-27T15:57:29.999Z</time></trkpt><trkpt lat="42.287680344173104" lon="13.650193908575865"><ele>781.25</ele><time>2026-04-27T15:57:30.999Z</time></trkpt><trkpt lat="42.287634516759596" lon="13.650332401072438"><ele>782.5</ele><time>2026-04-27T15:57:31.999Z</time></trkpt><trkpt lat="42.2875879795489" lon="13.65048467105727"><ele>783.75</ele><time>2026-04-27T15:57:32.999Z</time></trkpt><trkpt lat="42.28754395780171" lon="13.650652890038925"><ele>785.0</ele><time>2026-04-27T15:57:33.999Z</time></trkpt><trkpt lat="42.28750700838413" lon="13.65082617358819"><ele>785.0</ele><time>2026-04-27T15:57:34.999Z</time></trkpt><trkpt lat="42.28747899961428" lon="13.650998823628411"><ele>785.0</ele><time>2026-04-27T15:57:35.999Z</time></trkpt><trkpt lat="42.28745825544537" lon="13.6511746166897"><ele>785.0</ele><time>2026-04-27T15:57:36.999Z</time></trkpt><trkpt lat="42.287446991070965" lon="13.651352332431774"><ele>785.0</ele><time>2026-04-27T15:57:37.999Z</time></trkpt><trkpt lat="42.28745316633588" lon="13.6515251101457"><ele>785.6</ele><time>2026-04-27T15:57:38.999Z</time></trkpt><trkpt lat="42.28749495662854" lon="13.651673647195567"><ele>786.2</ele><time>2026-04-27T15:57:39.999Z</time></trkpt><trkpt lat="42.2875031155507" lon="13.651823186735585"><ele>786.8</ele><time>2026-04-27T15:57:40.999Z</time></trkpt><trkpt lat="42.28751591082686" lon="13.651961449978458"><ele>787.4</ele><time>2026-04-27T15:57:41.998Z</time></trkpt><trkpt lat="42.287528060325215" lon="13.652100392104671"><ele>788.0</ele><time>2026-04-27T15:57:42.998Z</time></trkpt><trkpt lat="42.28745346123268" lon="13.652226206763535"><ele>789.25</ele><time>2026-04-27T15:57:43.998Z</time></trkpt><trkpt lat="42.287380034723554" lon="13.652342487643613"><ele>790.5</ele><time>2026-04-27T15:57:44.998Z</time></trkpt><trkpt lat="42.28729788237688" lon="13.652479614488783"><ele>791.75</ele><time>2026-04-27T15:57:45.998Z</time></trkpt><trkpt lat="42.28721883960443" lon="13.652621063586473"><ele>793.0</ele><time>2026-04-27T15:57:46.998Z</time></trkpt><trkpt lat="42.28714118687171" lon="13.652779796336976"><ele>788.6666666666666</ele><time>2026-04-27T15:57:47.998Z</time></trkpt><trkpt lat="42.28708412164581" lon="13.652963398083259"><ele>784.3333333333333</ele><time>2026-04-27T15:57:48.998Z</time></trkpt><trkpt lat="42.28705109260514" lon="13.653166791809413"><ele>780.0</ele><time>2026-04-27T15:57:49.998Z</time></trkpt><trkpt lat="42.28701996283523" lon="13.653368483303478"><ele>780.0</ele><time>2026-04-27T15:57:50.998Z</time></trkpt><trkpt lat="42.286993672792896" lon="13.653572297774286"><ele>780.0</ele><time>2026-04-27T15:57:51.998Z</time></trkpt><trkpt lat="42.28699339625971" lon="13.65376061496737"><ele>780.0</ele><time>2026-04-27T15:57:52.998Z</time></trkpt><trkpt lat="42.28695612117963" lon="13.653920067210377"><ele>780.0</ele><time>2026-04-27T15:57:53.998Z</time></trkpt><trkpt lat="42.286906293213356" lon="13.654055502587251"><ele>781.4</ele><time>2026-04-27T15:57:54.998Z</time></trkpt><trkpt lat="42.286851305790115" lon="13.654187483838749"><ele>782.8</ele><time>2026-04-27T15:57:55.998Z</time></trkpt><trkpt lat="42.28675837865296" lon="13.654268112739299"><ele>784.2</ele><time>2026-04-27T15:57:56.998Z</time></trkpt><trkpt lat="42.28668353548175" lon="13.654357200284318"><ele>785.6</ele><time>2026-04-27T15:57:57.998Z</time></trkpt><trkpt lat="42.28660823638289" lon="13.654457813868031"><ele>787.0</ele><time>2026-04-27T15:57:59Z</time></trkpt><trkpt lat="42.286551801987514" lon="13.654562326190801"><ele>788.0</ele><time>2026-04-27T15:58:00Z</time></trkpt><trkpt lat="42.286497006456365" lon="13.65465774638827"><ele>789.0</ele><time>2026-04-27T15:58:01Z</time></trkpt><trkpt lat="42.28643298977079" lon="13.654747396524758"><ele>790.0</ele><time>2026-04-27T15:58:02Z</time></trkpt><trkpt lat="42.28635732370484" lon="13.654846824182593"><ele>791.0</ele><time>2026-04-27T15:58:03Z</time></trkpt><trkpt lat="42.286293083101945" lon="13.654943587950182"><ele>792.0</ele><time>2026-04-27T15:58:04Z</time></trkpt><trkpt lat="42.28624046012527" lon="13.655029533442747"><ele>790.5</ele><time>2026-04-27T15:58:05Z</time></trkpt><trkpt lat="42.286194977139914" lon="13.655132191253927"><ele>789.0</ele><time>2026-04-27T15:58:08Z</time></trkpt><trkpt lat="42.28620335698924" lon="13.655238075818263"><ele>787.5</ele><time>2026-04-27T15:58:10Z</time></trkpt><trkpt lat="42.28619287443407" lon="13.655339162739645"><ele>786.0</ele><time>2026-04-27T15:58:11Z</time></trkpt><trkpt lat="42.286145740999245" lon="13.65543735923815"><ele>784.5</ele><time>2026-04-27T15:58:12Z</time></trkpt><trkpt lat="42.286123029555974" lon="13.655528543863442"><ele>783.0</ele><time>2026-04-27T15:58:13Z</time></trkpt><trkpt lat="42.2860943609543" lon="13.655637438719024"><ele>783.0</ele><time>2026-04-27T15:58:14Z</time></trkpt><trkpt lat="42.28606486624118" lon="13.655749029223056"><ele>783.0</ele><time>2026-04-27T15:58:15Z</time></trkpt><trkpt lat="42.28604569918611" lon="13.655845992888644"><ele>783.0</ele><time>2026-04-27T15:58:16Z</time></trkpt><trkpt lat="42.286040067439515" lon="13.656034473788237"><ele>783.0</ele><time>2026-04-27T15:58:18Z</time></trkpt><trkpt lat="42.28603853974447" lon="13.656126257731685"><ele>783.0</ele><time>2026-04-27T15:58:19Z</time></trkpt><trkpt lat="42.28603711839314" lon="13.656211652523183"><ele>783.0</ele><time>2026-04-27T15:58:20Z</time></trkpt><trkpt lat="42.286035607259386" lon="13.656302441565428"><ele>783.0</ele><time>2026-04-27T15:58:22Z</time></trkpt><trkpt lat="42.28608603489743" lon="13.656235032844101"><ele>783.0</ele><time>2026-04-27T15:58:43Z</time></trkpt><trkpt lat="42.28607271829653" lon="13.656133283578143"><ele>783.0</ele><time>2026-04-27T15:58:44Z</time></trkpt><trkpt lat="42.28607118261283" lon="13.656026915811513"><ele>783.0</ele><time>2026-04-27T15:58:45Z</time></trkpt><trkpt lat="42.286075950867286" lon="13.655932355960251"><ele>783.0</ele><time>2026-04-27T15:58:45.999Z</time></trkpt><trkpt lat="42.28608501363328" lon="13.655831636835906"><ele>783.0</ele><time>2026-04-27T15:58:46.999Z</time></trkpt><trkpt lat="42.28610370030123" lon="13.655722391764764"><ele>783.0</ele><time>2026-04-27T15:58:47.999Z</time></trkpt><trkpt lat="42.286129084223056" lon="13.65560845923198"><ele>783.0</ele><time>2026-04-27T15:58:48.999Z</time></trkpt><trkpt lat="42.28615913340345" lon="13.655493895863247"><ele>783.0</ele><time>2026-04-27T15:58:49.999Z</time></trkpt><trkpt lat="42.286183781684635" lon="13.655400806299616"><ele>783.0</ele><time>2026-04-27T15:58:50.999Z</time></trkpt><trkpt lat="42.28621393264287" lon="13.655291876625004"><ele>783.0</ele><time>2026-04-27T15:58:52.999Z</time></trkpt><trkpt lat="42.28629818566602" lon="13.655289056155446"><ele>783.0</ele><time>2026-04-27T15:58:56.999Z</time></trkpt><trkpt lat="42.28636758284396" lon="13.655391163949657"><ele>783.0</ele><time>2026-04-27T15:58:58.999Z</time></trkpt><trkpt lat="42.28641758332025" lon="13.655476724402318"><ele>783.0</ele><time>2026-04-27T15:59:00.999Z</time></trkpt><trkpt lat="42.28641844174599" lon="13.655648997928518"><ele>783.0</ele><time>2026-04-27T15:59:02.999Z</time></trkpt><trkpt lat="42.28640767118196" lon="13.655773160689172"><ele>783.0</ele><time>2026-04-27T15:59:03.999Z</time></trkpt><trkpt lat="42.28640145405254" lon="13.655894890321937"><ele>783.0</ele><time>2026-04-27T15:59:04.999Z</time></trkpt><trkpt lat="42.28639124237729" lon="13.656043187864555"><ele>783.8</ele><time>2026-04-27T15:59:05.999Z</time></trkpt><trkpt lat="42.28637566569548" lon="13.65620511671409"><ele>784.5999999999999</ele><time>2026-04-27T15:59:06.999Z</time></trkpt><trkpt lat="42.286362994667726" lon="13.656350997308378"><ele>785.4000000000001</ele><time>2026-04-27T15:59:07.999Z</time></trkpt><trkpt lat="42.28635950560542" lon="13.656469171691693"><ele>786.2</ele><time>2026-04-27T15:59:08.999Z</time></trkpt><trkpt lat="42.28637964602198" lon="13.656564795010942"><ele>787.0</ele><time>2026-04-27T15:59:09.999Z</time></trkpt><trkpt lat="42.286428139757284" lon="13.656648799009766"><ele>790.6</ele><time>2026-04-27T15:59:10.999Z</time></trkpt><trkpt lat="42.286503843648084" lon="13.656664497071528"><ele>794.2</ele><time>2026-04-27T15:59:11.999Z</time></trkpt><trkpt lat="42.286584954269884" lon="13.656654807735132"><ele>797.8</ele><time>2026-04-27T15:59:12.999Z</time></trkpt><trkpt lat="42.28664687048088" lon="13.656676699473081"><ele>801.4</ele><time>2026-04-27T15:59:13.999Z</time></trkpt><trkpt lat="42.2866800279863" lon="13.65682265176481"><ele>805.0</ele><time>2026-04-27T15:59:15.999Z</time></trkpt><trkpt lat="42.286610806906275" lon="13.656956881081454"><ele>803.4999999999999</ele><time>2026-04-27T15:59:17.999Z</time></trkpt><trkpt lat="42.28656411938021" lon="13.657019669175778"><ele>802.0</ele><time>2026-04-27T15:59:18.999Z</time></trkpt><trkpt lat="42.2865243054525" lon="13.65710643320132"><ele>800.5</ele><time>2026-04-27T15:59:19.999Z</time></trkpt><trkpt lat="42.28647497024249" lon="13.657191937630724"><ele>799.0</ele><time>2026-04-27T15:59:20.999Z</time></trkpt><trkpt lat="42.286424625413616" lon="13.65726553179169"><ele>797.4999999999999</ele><time>2026-04-27T15:59:21.999Z</time></trkpt><trkpt lat="42.286331243407936" lon="13.657306140209263"><ele>796.0</ele><time>2026-04-27T15:59:22.999Z</time></trkpt><trkpt lat="42.28627378333861" lon="13.657395686457756"><ele>795.9999999999999</ele><time>2026-04-27T15:59:23.999Z</time></trkpt><trkpt lat="42.28621633688236" lon="13.657485211470528"><ele>796.0</ele><time>2026-04-27T15:59:24.999Z</time></trkpt><trkpt lat="42.28615866050508" lon="13.657572814403508"><ele>796.0</ele><time>2026-04-27T15:59:25.999Z</time></trkpt><trkpt lat="42.286102093040334" lon="13.657654200419296"><ele>796.0</ele><time>2026-04-27T15:59:26.999Z</time></trkpt><trkpt lat="42.286048048910736" lon="13.657731955972427"><ele>795.9999999999999</ele><time>2026-04-27T15:59:27.999Z</time></trkpt><trkpt lat="42.28599265101461" lon="13.657811659347212"><ele>796.0</ele><time>2026-04-27T15:59:28.999Z</time></trkpt><trkpt lat="42.285931484331044" lon="13.657899209153504"><ele>798.1999999999999</ele><time>2026-04-27T15:59:29.999Z</time></trkpt><trkpt lat="42.285866828648004" lon="13.657991261357664"><ele>800.4</ele><time>2026-04-27T15:59:30.999Z</time></trkpt><trkpt lat="42.285813623736814" lon="13.658070073332853"><ele>802.6</ele><time>2026-04-27T15:59:31.999Z</time></trkpt><trkpt lat="42.285720099944804" lon="13.65822626273894"><ele>804.8</ele><time>2026-04-27T15:59:33.999Z</time></trkpt><trkpt lat="42.28567860505052" lon="13.658330002348306"><ele>807.0</ele><time>2026-04-27T15:59:34.999Z</time></trkpt><trkpt lat="42.28562950264333" lon="13.658391458711826"><ele>805.5</ele><time>2026-04-27T15:59:35.999Z</time></trkpt><trkpt lat="42.285567342595215" lon="13.65845143568581"><ele>804.0</ele><time>2026-04-27T15:59:36.999Z</time></trkpt><trkpt lat="42.28552429762124" lon="13.65854901952297"><ele>802.5</ele><time>2026-04-27T15:59:37.999Z</time></trkpt><trkpt lat="42.28547264658235" lon="13.658647239665944"><ele>801.0</ele><time>2026-04-27T15:59:38.999Z</time></trkpt><trkpt lat="42.28543363255283" lon="13.658728072188246"><ele>799.5</ele><time>2026-04-27T15:59:39.999Z</time></trkpt><trkpt lat="42.285375924961265" lon="13.658809106091654"><ele>798.0</ele><time>2026-04-27T15:59:40.999Z</time></trkpt><trkpt lat="42.28533270926828" lon="13.658885634812375"><ele>798.0</ele><time>2026-04-27T15:59:41.999Z</time></trkpt><trkpt lat="42.2852913587174" lon="13.658954501188141"><ele>798.0</ele><time>2026-04-27T15:59:42.999Z</time></trkpt><trkpt lat="42.28523476427793" lon="13.659026532248335"><ele>798.0</ele><time>2026-04-27T15:59:43.999Z</time></trkpt><trkpt lat="42.28516891310611" lon="13.659091460266877"><ele>798.0</ele><time>2026-04-27T15:59:44.999Z</time></trkpt><trkpt lat="42.285102260431565" lon="13.659174647177469"><ele>798.0</ele><time>2026-04-27T15:59:45.998Z</time></trkpt><trkpt lat="42.28504270139465" lon="13.659255160717256"><ele>798.0</ele><time>2026-04-27T15:59:46.998Z</time></trkpt><trkpt lat="42.28499052024622" lon="13.659332053750243"><ele>798.0</ele><time>2026-04-27T15:59:47.998Z</time></trkpt><trkpt lat="42.284940560803975" lon="13.659422608256195"><ele>798.0</ele><time>2026-04-27T15:59:48.998Z</time></trkpt><trkpt lat="42.28489801436909" lon="13.659506708647365"><ele>798.0</ele><time>2026-04-27T15:59:49.998Z</time></trkpt><trkpt lat="42.28487342388401" lon="13.659603880151057"><ele>798.0</ele><time>2026-04-27T15:59:50.998Z</time></trkpt><trkpt lat="42.28487768444246" lon="13.659718553245016"><ele>798.0</ele><time>2026-04-27T15:59:51.998Z</time></trkpt><trkpt lat="42.2847863883519" lon="13.659857855213497"><ele>797.25</ele><time>2026-04-27T15:59:53.998Z</time></trkpt><trkpt lat="42.28472366518672" lon="13.659910071596224"><ele>796.5</ele><time>2026-04-27T15:59:54.998Z</time></trkpt><trkpt lat="42.28471318580442" lon="13.660115737227315"><ele>795.75</ele><time>2026-04-27T15:59:55.998Z</time></trkpt><trkpt lat="42.28463192994939" lon="13.660223420217386"><ele>795.0</ele><time>2026-04-27T15:59:56.998Z</time></trkpt><trkpt lat="42.284517059278556" lon="13.66028599096186"><ele>800.25</ele><time>2026-04-27T15:59:57.998Z</time></trkpt><trkpt lat="42.28440516030475" lon="13.66037669335697"><ele>805.5</ele><time>2026-04-27T15:59:58.998Z</time></trkpt><trkpt lat="42.28426623979845" lon="13.660503354732086"><ele>810.75</ele><time>2026-04-27T15:59:59.998Z</time></trkpt><trkpt lat="42.284162968440626" lon="13.660647821543266"><ele>816.0</ele><time>2026-04-27T16:00:00.998Z</time></trkpt><trkpt lat="42.284051275979216" lon="13.660782247529776"><ele>816.0</ele><time>2026-04-27T16:00:01.998Z</time></trkpt><trkpt lat="42.28396464037423" lon="13.660958551115673"><ele>816.0</ele><time>2026-04-27T16:00:02.998Z</time></trkpt><trkpt lat="42.28389414500157" lon="13.661128190023971"><ele>816.0</ele><time>2026-04-27T16:00:04Z</time></trkpt><trkpt lat="42.28382306870042" lon="13.661300745543969"><ele>816.0</ele><time>2026-04-27T16:00:05Z</time></trkpt><trkpt lat="42.28375286555395" lon="13.661471183950528"><ele>814.3333333333333</ele><time>2026-04-27T16:00:06Z</time></trkpt><trkpt lat="42.28368454655867" lon="13.661637048039486"><ele>812.6666666666666</ele><time>2026-04-27T16:00:07Z</time></trkpt><trkpt lat="42.28361504884379" lon="13.661805773807396"><ele>811.0</ele><time>2026-04-27T16:00:08Z</time></trkpt><trkpt lat="42.283620136729255" lon="13.662040582584849"><ele>817.3333333333333</ele><time>2026-04-27T16:00:09Z</time></trkpt><trkpt lat="42.28355967884841" lon="13.66222509653023"><ele>823.6666666666667</ele><time>2026-04-27T16:00:10Z</time></trkpt><trkpt lat="42.28349302036896" lon="13.66240782973507"><ele>830.0</ele><time>2026-04-27T16:00:11Z</time></trkpt><trkpt lat="42.28342384754455" lon="13.662593823588178"><ele>830.0</ele><time>2026-04-27T16:00:12Z</time></trkpt><trkpt lat="42.28335474343904" lon="13.662779821212366"><ele>830.0</ele><time>2026-04-27T16:00:13Z</time></trkpt><trkpt lat="42.283286715227575" lon="13.662971804593877"><ele>830.0</ele><time>2026-04-27T16:00:14Z</time></trkpt><trkpt lat="42.28321371112792" lon="13.663151403424012"><ele>829.3333333333334</ele><time>2026-04-27T16:00:15Z</time></trkpt><trkpt lat="42.28307439430124" lon="13.663363920122467"><ele>828.6666666666667</ele><time>2026-04-27T16:00:16Z</time></trkpt><trkpt lat="42.28300171235735" lon="13.663560205994344"><ele>828.0</ele><time>2026-04-27T16:00:17Z</time></trkpt><trkpt lat="42.282914409866954" lon="13.663768836246794"><ele>828.0</ele><time>2026-04-27T16:00:18Z</time></trkpt><trkpt lat="42.282825236461726" lon="13.663981691621988"><ele>828.0</ele><time>2026-04-27T16:00:19Z</time></trkpt><trkpt lat="42.28273831773471" lon="13.664195035285683"><ele>828.0</ele><time>2026-04-27T16:00:20Z</time></trkpt><trkpt lat="42.282640980826066" lon="13.664409141368813"><ele>833.0</ele><time>2026-04-27T16:00:21Z</time></trkpt><trkpt lat="42.28254429146561" lon="13.664631205247476"><ele>838.0</ele><time>2026-04-27T16:00:22Z</time></trkpt><trkpt lat="42.282453373457884" lon="13.664864448744515"><ele>843.0</ele><time>2026-04-27T16:00:23Z</time></trkpt><trkpt lat="42.28236364001905" lon="13.665087337626225"><ele>837.6666666666667</ele><time>2026-04-27T16:00:24Z</time></trkpt><trkpt lat="42.2822484694605" lon="13.66531105067238"><ele>832.3333333333334</ele><time>2026-04-27T16:00:25Z</time></trkpt><trkpt lat="42.282154327905694" lon="13.665535361575833"><ele>827.0</ele><time>2026-04-27T16:00:26Z</time></trkpt><trkpt lat="42.28206391051609" lon="13.665753911090082"><ele>827.0</ele><time>2026-04-27T16:00:27Z</time></trkpt><trkpt lat="42.28197109787357" lon="13.665970988631686"><ele>827.0</ele><time>2026-04-27T16:00:28Z</time></trkpt><trkpt lat="42.2818815402246" lon="13.666194834182267"><ele>827.0</ele><time>2026-04-27T16:00:29Z</time></trkpt><trkpt lat="42.28178976770472" lon="13.66641403205959"><ele>832.0</ele><time>2026-04-27T16:00:30Z</time></trkpt><trkpt lat="42.28169658713279" lon="13.666633199801606"><ele>837.0</ele><time>2026-04-27T16:00:31Z</time></trkpt><trkpt lat="42.28160245011085" lon="13.666849473037225"><ele>842.0</ele><time>2026-04-27T16:00:32Z</time></trkpt><trkpt lat="42.281500542359176" lon="13.667061769721228"><ele>838.3333333333334</ele><time>2026-04-27T16:00:33Z</time></trkpt><trkpt lat="42.28140067493552" lon="13.667275074125547"><ele>834.6666666666667</ele><time>2026-04-27T16:00:34Z</time></trkpt><trkpt lat="42.28130713191884" lon="13.667496705654177"><ele>831.0</ele><time>2026-04-27T16:00:35Z</time></trkpt><trkpt lat="42.28121935326154" lon="13.667719206260099"><ele>835.0</ele><time>2026-04-27T16:00:36Z</time></trkpt><trkpt lat="42.28112766774695" lon="13.667933318841188"><ele>839.0</ele><time>2026-04-27T16:00:37Z</time></trkpt><trkpt lat="42.28102528273178" lon="13.6681425701015"><ele>843.0</ele><time>2026-04-27T16:00:38Z</time></trkpt><trkpt lat="42.280921982393956" lon="13.668346316501838"><ele>843.0</ele><time>2026-04-27T16:00:39Z</time></trkpt><trkpt lat="42.28082349116128" lon="13.668528670815288"><ele>843.0</ele><time>2026-04-27T16:00:40Z</time></trkpt><trkpt lat="42.28071573497895" lon="13.66869796579912"><ele>843.0</ele><time>2026-04-27T16:00:41Z</time></trkpt><trkpt lat="42.280598206221605" lon="13.668877446496795"><ele>840.3333333333333</ele><time>2026-04-27T16:00:42Z</time></trkpt><trkpt lat="42.28047715978182" lon="13.669056058537668"><ele>837.6666666666666</ele><time>2026-04-27T16:00:43Z</time></trkpt><trkpt lat="42.28035172456194" lon="13.669234351944642"><ele>835.0</ele><time>2026-04-27T16:00:44Z</time></trkpt><trkpt lat="42.280231932305284" lon="13.669419005949868"><ele>840.3333333333333</ele><time>2026-04-27T16:00:45Z</time></trkpt><trkpt lat="42.28011128721425" lon="13.669612695489283"><ele>845.6666666666667</ele><time>2026-04-27T16:00:46Z</time></trkpt><trkpt lat="42.279988529492634" lon="13.669802223274804"><ele>851.0</ele><time>2026-04-27T16:00:47Z</time></trkpt><trkpt lat="42.279865395094234" lon="13.669986617094755"><ele>848.3333333333334</ele><time>2026-04-27T16:00:47.999Z</time></trkpt><trkpt lat="42.27974161591133" lon="13.670174947491933"><ele>845.6666666666667</ele><time>2026-04-27T16:00:48.999Z</time></trkpt><trkpt lat="42.279616910945165" lon="13.670354215824707"><ele>843.0</ele><time>2026-04-27T16:00:49.999Z</time></trkpt><trkpt lat="42.279491631335645" lon="13.67053986935178"><ele>843.0</ele><time>2026-04-27T16:00:50.999Z</time></trkpt><trkpt lat="42.279364568497584" lon="13.670723027122657"><ele>843.0</ele><time>2026-04-27T16:00:51.999Z</time></trkpt><trkpt lat="42.27923974566955" lon="13.670907459283118"><ele>843.0</ele><time>2026-04-27T16:00:52.999Z</time></trkpt><trkpt lat="42.27911604899006" lon="13.671093788162514"><ele>841.0</ele><time>2026-04-27T16:00:53.999Z</time></trkpt><trkpt lat="42.27898542643279" lon="13.671277723124705"><ele>839.0</ele><time>2026-04-27T16:00:54.999Z</time></trkpt><trkpt lat="42.278854401586315" lon="13.67146207453469"><ele>837.0</ele><time>2026-04-27T16:00:55.999Z</time></trkpt><trkpt lat="42.27872380569618" lon="13.671647336013747"><ele>837.0</ele><time>2026-04-27T16:00:56.999Z</time></trkpt><trkpt lat="42.27859647597473" lon="13.67183670680818"><ele>837.0</ele><time>2026-04-27T16:00:57.999Z</time></trkpt><trkpt lat="42.2784724474498" lon="13.672030964973986"><ele>837.0</ele><time>2026-04-27T16:00:58.999Z</time></trkpt><trkpt lat="42.27835178586794" lon="13.672224600968688"><ele>838.3333333333333</ele><time>2026-04-27T16:00:59.999Z</time></trkpt><trkpt lat="42.278239243469926" lon="13.67241476600991"><ele>839.6666666666666</ele><time>2026-04-27T16:01:00.999Z</time></trkpt><trkpt lat="42.27811965630353" lon="13.672595270750266"><ele>841.0</ele><time>2026-04-27T16:01:01.999Z</time></trkpt><trkpt lat="42.27799402150809" lon="13.672775994461366"><ele>841.0</ele><time>2026-04-27T16:01:02.999Z</time></trkpt><trkpt lat="42.277870477854414" lon="13.672961795552643"><ele>841.0</ele><time>2026-04-27T16:01:03.999Z</time></trkpt><trkpt lat="42.27774504419865" lon="13.673152134704374"><ele>841.0</ele><time>2026-04-27T16:01:04.999Z</time></trkpt><trkpt lat="42.277613904981486" lon="13.673331517370805"><ele>841.0</ele><time>2026-04-27T16:01:05.999Z</time></trkpt><trkpt lat="42.27748505278661" lon="13.673515655081799"><ele>841.0</ele><time>2026-04-27T16:01:06.999Z</time></trkpt><trkpt lat="42.27735222907195" lon="13.673700045187818"><ele>841.0</ele><time>2026-04-27T16:01:07.999Z</time></trkpt><trkpt lat="42.27722624339146" lon="13.67389002797713"><ele>840.3333333333333</ele><time>2026-04-27T16:01:08.999Z</time></trkpt><trkpt lat="42.27710252747693" lon="13.67408356780234"><ele>839.6666666666667</ele><time>2026-04-27T16:01:09.999Z</time></trkpt><trkpt lat="42.2769761007383" lon="13.674273652806903"><ele>839.0</ele><time>2026-04-27T16:01:10.999Z</time></trkpt><trkpt lat="42.27685424641079" lon="13.674461551137446"><ele>843.3333333333334</ele><time>2026-04-27T16:01:11.999Z</time></trkpt><trkpt lat="42.27673090924999" lon="13.674642062305379"><ele>847.6666666666667</ele><time>2026-04-27T16:01:12.999Z</time></trkpt><trkpt lat="42.276601640827934" lon="13.67481391998044"><ele>852.0</ele><time>2026-04-27T16:01:13.999Z</time></trkpt><trkpt lat="42.2764723504415" lon="13.67498995508027"><ele>850.6666666666667</ele><time>2026-04-27T16:01:14.999Z</time></trkpt><trkpt lat="42.276346078748475" lon="13.675162308698289"><ele>849.3333333333334</ele><time>2026-04-27T16:01:15.999Z</time></trkpt><trkpt lat="42.276213845171426" lon="13.675331201798825"><ele>848.0</ele><time>2026-04-27T16:01:16.999Z</time></trkpt><trkpt lat="42.27608297030696" lon="13.675513287618573"><ele>848.0</ele><time>2026-04-27T16:01:17.999Z</time></trkpt><trkpt lat="42.27595111699345" lon="13.67569422099884"><ele>848.0</ele><time>2026-04-27T16:01:18.999Z</time></trkpt><trkpt lat="42.27581103249771" lon="13.675869361358675"><ele>848.0</ele><time>2026-04-27T16:01:19.999Z</time></trkpt><trkpt lat="42.27567596759616" lon="13.67605103461041"><ele>847.3333333333334</ele><time>2026-04-27T16:01:20.999Z</time></trkpt><trkpt lat="42.2755411539843" lon="13.67623344138073"><ele>846.6666666666667</ele><time>2026-04-27T16:01:21.999Z</time></trkpt><trkpt lat="42.27540911274521" lon="13.676408318664764"><ele>846.0</ele><time>2026-04-27T16:01:22.999Z</time></trkpt><trkpt lat="42.27527983945479" lon="13.67658510032287"><ele>846.0</ele><time>2026-04-27T16:01:23.999Z</time></trkpt><trkpt lat="42.27515297786264" lon="13.6767479677413"><ele>846.0</ele><time>2026-04-27T16:01:24.999Z</time></trkpt><trkpt lat="42.27502429342823" lon="13.67691868359768"><ele>846.0</ele><time>2026-04-27T16:01:25.999Z</time></trkpt><trkpt lat="42.27489587286092" lon="13.67708918105627"><ele>847.0</ele><time>2026-04-27T16:01:26.999Z</time></trkpt><trkpt lat="42.27478722558039" lon="13.677259708631883"><ele>848.0</ele><time>2026-04-27T16:01:27.999Z</time></trkpt><trkpt lat="42.27467338016733" lon="13.677416307492445"><ele>849.0</ele><time>2026-04-27T16:01:28.999Z</time></trkpt><trkpt lat="42.27455446574539" lon="13.677565237247036"><ele>849.0</ele><time>2026-04-27T16:01:29.999Z</time></trkpt><trkpt lat="42.27443940042038" lon="13.677728091344157"><ele>849.0</ele><time>2026-04-27T16:01:30.999Z</time></trkpt><trkpt lat="42.274319842290616" lon="13.677885526825307"><ele>849.0</ele><time>2026-04-27T16:01:31.999Z</time></trkpt><trkpt lat="42.27419375946651" lon="13.678033033773422"><ele>850.0</ele><time>2026-04-27T16:01:32.999Z</time></trkpt><trkpt lat="42.27407021502305" lon="13.678182944109524"><ele>851.0</ele><time>2026-04-27T16:01:33.999Z</time></trkpt><trkpt lat="42.273957098105576" lon="13.678331424092464"><ele>852.0</ele><time>2026-04-27T16:01:34.999Z</time></trkpt><trkpt lat="42.27384099439885" lon="13.678477926592134"><ele>856.3333333333333</ele><time>2026-04-27T16:01:35.999Z</time></trkpt><trkpt lat="42.27372203149042" lon="13.678634176883554"><ele>860.6666666666666</ele><time>2026-04-27T16:01:36.999Z</time></trkpt><trkpt lat="42.273606348278875" lon="13.678809893357307"><ele>865.0</ele><time>2026-04-27T16:01:37.999Z</time></trkpt><trkpt lat="42.273482416427825" lon="13.678984335608048"><ele>865.0</ele><time>2026-04-27T16:01:38.999Z</time></trkpt><trkpt lat="42.273367512216566" lon="13.679163883281142"><ele>865.0</ele><time>2026-04-27T16:01:39.999Z</time></trkpt><trkpt lat="42.273265033615154" lon="13.679357980517347"><ele>865.0</ele><time>2026-04-27T16:01:40.999Z</time></trkpt><trkpt lat="42.273167903033624" lon="13.679553498422411"><ele>860.6666666666666</ele><time>2026-04-27T16:01:41.999Z</time></trkpt><trkpt lat="42.27308501344825" lon="13.679765183938672"><ele>856.3333333333333</ele><time>2026-04-27T16:01:42.999Z</time></trkpt><trkpt lat="42.27301101489131" lon="13.679979642416848"><ele>852.0</ele><time>2026-04-27T16:01:43.999Z</time></trkpt><trkpt lat="42.27294156606054" lon="13.680214656841436"><ele>855.6666666666667</ele><time>2026-04-27T16:01:44.999Z</time></trkpt><trkpt lat="42.272859631700825" lon="13.68043588210728"><ele>859.3333333333334</ele><time>2026-04-27T16:01:45.999Z</time></trkpt><trkpt lat="42.27277249662452" lon="13.680659153329863"><ele>863.0</ele><time>2026-04-27T16:01:46.999Z</time></trkpt><trkpt lat="42.27267570989107" lon="13.68088944469986"><ele>866.6666666666667</ele><time>2026-04-27T16:01:47.999Z</time></trkpt><trkpt lat="42.2725907733494" lon="13.681126516645573"><ele>870.3333333333333</ele><time>2026-04-27T16:01:48.998Z</time></trkpt><trkpt lat="42.272502617049206" lon="13.681365169148735"><ele>874.0</ele><time>2026-04-27T16:01:49.998Z</time></trkpt><trkpt lat="42.27240539210026" lon="13.681597006825754"><ele>874.0</ele><time>2026-04-27T16:01:50.998Z</time></trkpt><trkpt lat="42.272313900926925" lon="13.681833981726555"><ele>874.0</ele><time>2026-04-27T16:01:51.998Z</time></trkpt><trkpt lat="42.27222508092919" lon="13.682068171263346"><ele>874.0</ele><time>2026-04-27T16:01:52.998Z</time></trkpt><trkpt lat="42.27213704437627" lon="13.68230180760553"><ele>873.3333333333333</ele><time>2026-04-27T16:01:53.998Z</time></trkpt><trkpt lat="42.272047401262384" lon="13.682533529282846"><ele>872.6666666666667</ele><time>2026-04-27T16:01:54.998Z</time></trkpt><trkpt lat="42.27195399134248" lon="13.68275803590325"><ele>872.0</ele><time>2026-04-27T16:01:55.998Z</time></trkpt><trkpt lat="42.27186910061792" lon="13.68297471455616"><ele>872.0</ele><time>2026-04-27T16:01:56.998Z</time></trkpt><trkpt lat="42.27178801919045" lon="13.683199712035416"><ele>872.0</ele><time>2026-04-27T16:01:57.998Z</time></trkpt><trkpt lat="42.27171945213391" lon="13.683433749788772"><ele>872.0</ele><time>2026-04-27T16:01:58.998Z</time></trkpt><trkpt lat="42.271660080254776" lon="13.6836601555825"><ele>871.0</ele><time>2026-04-27T16:01:59.998Z</time></trkpt><trkpt lat="42.27160532761866" lon="13.6838561075706"><ele>870.0</ele><time>2026-04-27T16:02:00.998Z</time></trkpt><trkpt lat="42.271548242950935" lon="13.684025191071436"><ele>869.0</ele><time>2026-04-27T16:02:01.998Z</time></trkpt><trkpt lat="42.27148876391684" lon="13.684162604426334"><ele>868.0</ele><time>2026-04-27T16:02:02.998Z</time></trkpt><trkpt lat="42.27143636256702" lon="13.684266664397843"><ele>868.0</ele><time>2026-04-27T16:02:03.998Z</time></trkpt><trkpt lat="42.2713740021406" lon="13.684366693774193"><ele>868.0</ele><time>2026-04-27T16:02:04.998Z</time></trkpt><trkpt lat="42.27129811207323" lon="13.684478195644123"><ele>868.0</ele><time>2026-04-27T16:02:05.998Z</time></trkpt><trkpt lat="42.27122975306764" lon="13.68457583185933"><ele>868.0</ele><time>2026-04-27T16:02:06.998Z</time></trkpt><trkpt lat="42.27117291852976" lon="13.684679506639592"><ele>868.0</ele><time>2026-04-27T16:02:07.998Z</time></trkpt><trkpt lat="42.27111357396847" lon="13.684787243780807"><ele>872.5</ele><time>2026-04-27T16:02:08.998Z</time></trkpt><trkpt lat="42.271049815963465" lon="13.684904874575393"><ele>877.0</ele><time>2026-04-27T16:02:10Z</time></trkpt><trkpt lat="42.270976360351675" lon="13.685022900934491"><ele>881.5</ele><time>2026-04-27T16:02:11Z</time></trkpt><trkpt lat="42.270906080406206" lon="13.685149212084333"><ele>886.0</ele><time>2026-04-27T16:02:12Z</time></trkpt><trkpt lat="42.27083717309295" lon="13.685282875180972"><ele>890.25</ele><time>2026-04-27T16:02:13Z</time></trkpt><trkpt lat="42.27077156170082" lon="13.685438510678576"><ele>894.5</ele><time>2026-04-27T16:02:14Z</time></trkpt><trkpt lat="42.270701907695575" lon="13.685585126956"><ele>898.75</ele><time>2026-04-27T16:02:15Z</time></trkpt><trkpt lat="42.270649546969594" lon="13.685752466497883"><ele>903.0</ele><time>2026-04-27T16:02:16Z</time></trkpt><trkpt lat="42.27061931280683" lon="13.685926223209066"><ele>901.25</ele><time>2026-04-27T16:02:17Z</time></trkpt><trkpt lat="42.27059023208675" lon="13.686080963040475"><ele>899.5</ele><time>2026-04-27T16:02:18Z</time></trkpt><trkpt lat="42.27058458612366" lon="13.686237568927417"><ele>897.75</ele><time>2026-04-27T16:02:19Z</time></trkpt><trkpt lat="42.27061119453904" lon="13.686436621366283"><ele>896.0</ele><time>2026-04-27T16:02:20Z</time></trkpt><trkpt lat="42.27064773792399" lon="13.686635844501414"><ele>901.25</ele><time>2026-04-27T16:02:21Z</time></trkpt><trkpt lat="42.270703103567655" lon="13.68682212822293"><ele>906.5</ele><time>2026-04-27T16:02:22Z</time></trkpt><trkpt lat="42.270751937285624" lon="13.687001671158194"><ele>911.75</ele><time>2026-04-27T16:02:23Z</time></trkpt><trkpt lat="42.270787605481374" lon="13.68718987056304"><ele>917.0</ele><time>2026-04-27T16:02:24Z</time></trkpt><trkpt lat="42.270799524329476" lon="13.687388734019452"><ele>917.75</ele><time>2026-04-27T16:02:25Z</time></trkpt><trkpt lat="42.27078071467177" lon="13.687584287335229"><ele>918.5</ele><time>2026-04-27T16:02:26Z</time></trkpt><trkpt lat="42.27075645692552" lon="13.68778171120439"><ele>919.25</ele><time>2026-04-27T16:02:27Z</time></trkpt><trkpt lat="42.27073853186521" lon="13.687948368063713"><ele>920.0</ele><time>2026-04-27T16:02:28Z</time></trkpt><trkpt lat="42.270730788692205" lon="13.688088856629358"><ele>920.0000000000001</ele><time>2026-04-27T16:02:29Z</time></trkpt><trkpt lat="42.27073867078991" lon="13.688177156568358"><ele>920.0</ele><time>2026-04-27T16:02:30Z</time></trkpt><trkpt lat="42.27085243363524" lon="13.688252330419957"><ele>920.0</ele><time>2026-04-27T16:02:32Z</time></trkpt><trkpt lat="42.27091880596699" lon="13.68821133937737"><ele>920.0</ele><time>2026-04-27T16:02:33Z</time></trkpt><trkpt lat="42.270984527833534" lon="13.688154625359"><ele>920.0000000000001</ele><time>2026-04-27T16:02:34Z</time></trkpt><trkpt lat="42.27101548451529" lon="13.688034649608218"><ele>920.0</ele><time>2026-04-27T16:02:35Z</time></trkpt><trkpt lat="42.27104552076417" lon="13.687853039770538"><ele>921.0</ele><time>2026-04-27T16:02:36Z</time></trkpt><trkpt lat="42.27105213651691" lon="13.687686885310502"><ele>922.0</ele><time>2026-04-27T16:02:37Z</time></trkpt><trkpt lat="42.271106812891404" lon="13.687547747365263"><ele>923.0</ele><time>2026-04-27T16:02:38Z</time></trkpt><trkpt lat="42.27117157138113" lon="13.68742925836934"><ele>924.0</ele><time>2026-04-27T16:02:39Z</time></trkpt><trkpt lat="42.271207790067066" lon="13.687265277697405"><ele>924.0</ele><time>2026-04-27T16:02:40Z</time></trkpt><trkpt lat="42.271218643481205" lon="13.687078653669513"><ele>924.0000000000001</ele><time>2026-04-27T16:02:41Z</time></trkpt><trkpt lat="42.27125458336273" lon="13.687003237473176"><ele>924.0000000000001</ele><time>2026-04-27T16:02:42Z</time></trkpt><trkpt lat="42.271316492557155" lon="13.687021020487535"><ele>924.0</ele><time>2026-04-27T16:02:47Z</time></trkpt><trkpt lat="42.271340143202906" lon="13.68718412445668"><ele>924.0</ele><time>2026-04-27T16:02:48Z</time></trkpt><trkpt lat="42.27135335867709" lon="13.687308983635958"><ele>924.0</ele><time>2026-04-27T16:02:49Z</time></trkpt><trkpt lat="42.27136275592364" lon="13.687426479074894"><ele>924.0000000000001</ele><time>2026-04-27T16:02:50Z</time></trkpt><trkpt lat="42.271343937114274" lon="13.687579442616379"><ele>924.0000000000001</ele><time>2026-04-27T16:02:50.999Z</time></trkpt><trkpt lat="42.27136006825721" lon="13.687741977198597"><ele>924.0</ele><time>2026-04-27T16:02:51.999Z</time></trkpt><trkpt lat="42.27140208475003" lon="13.687883063832473"><ele>924.0</ele><time>2026-04-27T16:02:52.999Z</time></trkpt><trkpt lat="42.27149134755142" lon="13.688052338768982"><ele>928.5</ele><time>2026-04-27T16:02:53.999Z</time></trkpt><trkpt lat="42.27157533721136" lon="13.688164245053235"><ele>933.0</ele><time>2026-04-27T16:02:54.999Z</time></trkpt><trkpt lat="42.2716797263375" lon="13.688218728101651"><ele>937.5</ele><time>2026-04-27T16:02:55.999Z</time></trkpt><trkpt lat="42.27181473550874" lon="13.688272030152987"><ele>942.0</ele><time>2026-04-27T16:02:56.999Z</time></trkpt><trkpt lat="42.27195293441698" lon="13.68831401247773"><ele>942.0</ele><time>2026-04-27T16:02:57.999Z</time></trkpt><trkpt lat="42.27209550464614" lon="13.688367376011467"><ele>942.0</ele><time>2026-04-27T16:02:58.999Z</time></trkpt><trkpt lat="42.27223936143734" lon="13.688452289154762"><ele>942.0</ele><time>2026-04-27T16:02:59.999Z</time></trkpt><trkpt lat="42.27239258615401" lon="13.688535875280984"><ele>940.0</ele><time>2026-04-27T16:03:00.999Z</time></trkpt><trkpt lat="42.272553522776406" lon="13.688626305928993"><ele>938.0</ele><time>2026-04-27T16:03:01.999Z</time></trkpt><trkpt lat="42.27270179527754" lon="13.688737246494968"><ele>936.0</ele><time>2026-04-27T16:03:02.999Z</time></trkpt><trkpt lat="42.27284337935119" lon="13.688869417405439"><ele>936.0</ele><time>2026-04-27T16:03:03.999Z</time></trkpt><trkpt lat="42.27297870336152" lon="13.68900462815475"><ele>936.0</ele><time>2026-04-27T16:03:04.999Z</time></trkpt><trkpt lat="42.2731199929738" lon="13.689147218448612"><ele>936.0</ele><time>2026-04-27T16:03:05.999Z</time></trkpt><trkpt lat="42.27324363237474" lon="13.689288690374578"><ele>936.25</ele><time>2026-04-27T16:03:06.999Z</time></trkpt><trkpt lat="42.273343817465815" lon="13.689400363271703"><ele>936.5</ele><time>2026-04-27T16:03:07.999Z</time></trkpt><trkpt lat="42.27344098381854" lon="13.689475634334752"><ele>936.75</ele><time>2026-04-27T16:03:08.999Z</time></trkpt><trkpt lat="42.27354470483312" lon="13.68950217067161"><ele>937.0</ele><time>2026-04-27T16:03:09.999Z</time></trkpt><trkpt lat="42.27366745235861" lon="13.689516513053626"><ele>937.0</ele><time>2026-04-27T16:03:10.999Z</time></trkpt><trkpt lat="42.27380866205453" lon="13.689490143328829"><ele>937.0</ele><time>2026-04-27T16:03:11.999Z</time></trkpt><trkpt lat="42.27393267693173" lon="13.689426253543996"><ele>937.0</ele><time>2026-04-27T16:03:12.999Z</time></trkpt><trkpt lat="42.27404406861379" lon="13.68933812959821"><ele>937.0</ele><time>2026-04-27T16:03:13.999Z</time></trkpt><trkpt lat="42.27415756127917" lon="13.6892079236466"><ele>944.3333333333333</ele><time>2026-04-27T16:03:14.999Z</time></trkpt><trkpt lat="42.27428235375115" lon="13.689085255222794"><ele>951.6666666666667</ele><time>2026-04-27T16:03:15.999Z</time></trkpt><trkpt lat="42.274422542435" lon="13.688965502013271"><ele>959.0</ele><time>2026-04-27T16:03:16.999Z</time></trkpt><trkpt lat="42.27455811455109" lon="13.68887878513736"><ele>959.0</ele><time>2026-04-27T16:03:17.999Z</time></trkpt><trkpt lat="42.27468877057427" lon="13.688813166504698"><ele>959.0</ele><time>2026-04-27T16:03:18.999Z</time></trkpt><trkpt lat="42.274831056129145" lon="13.688745357076842"><ele>959.0</ele><time>2026-04-27T16:03:19.999Z</time></trkpt><trkpt lat="42.27497367273345" lon="13.688672880066036"><ele>959.0</ele><time>2026-04-27T16:03:20.999Z</time></trkpt><trkpt lat="42.27511785670852" lon="13.688597685641618"><ele>963.3333333333334</ele><time>2026-04-27T16:03:21.999Z</time></trkpt><trkpt lat="42.27526380729895" lon="13.688508939635952"><ele>967.6666666666667</ele><time>2026-04-27T16:03:22.999Z</time></trkpt><trkpt lat="42.27541457722572" lon="13.688433852543895"><ele>972.0</ele><time>2026-04-27T16:03:23.999Z</time></trkpt><trkpt lat="42.27557306653891" lon="13.688364542679473"><ele>968.6666666666667</ele><time>2026-04-27T16:03:24.999Z</time></trkpt><trkpt lat="42.27573498931453" lon="13.688306038567788"><ele>965.3333333333334</ele><time>2026-04-27T16:03:25.999Z</time></trkpt><trkpt lat="42.27588765715315" lon="13.688240453913485"><ele>962.0</ele><time>2026-04-27T16:03:26.999Z</time></trkpt><trkpt lat="42.27602799446177" lon="13.68813706510704"><ele>962.0</ele><time>2026-04-27T16:03:27.999Z</time></trkpt><trkpt lat="42.27616739316247" lon="13.688022794161698"><ele>962.0</ele><time>2026-04-27T16:03:28.999Z</time></trkpt><trkpt lat="42.276320010256455" lon="13.687910987150945"><ele>962.0</ele><time>2026-04-27T16:03:29.999Z</time></trkpt><trkpt lat="42.276477363201515" lon="13.68779258069041"><ele>964.3333333333334</ele><time>2026-04-27T16:03:30.999Z</time></trkpt><trkpt lat="42.27663892627068" lon="13.687667829558157"><ele>966.6666666666667</ele><time>2026-04-27T16:03:31.999Z</time></trkpt><trkpt lat="42.27680696816966" lon="13.687545416449955"><ele>969.0</ele><time>2026-04-27T16:03:32.999Z</time></trkpt><trkpt lat="42.27698002379171" lon="13.687430489487502"><ele>969.0</ele><time>2026-04-27T16:03:33.999Z</time></trkpt><trkpt lat="42.27713263892751" lon="13.687337730401323"><ele>969.0</ele><time>2026-04-27T16:03:34.999Z</time></trkpt><trkpt lat="42.27726581251514" lon="13.687257016676348"><ele>969.0</ele><time>2026-04-27T16:03:35.999Z</time></trkpt><trkpt lat="42.277383803138996" lon="13.687180775305674"><ele>969.0</ele><time>2026-04-27T16:03:36.999Z</time></trkpt><trkpt lat="42.27748649518142" lon="13.687101305094654"><ele>968.0</ele><time>2026-04-27T16:03:37.999Z</time></trkpt><trkpt lat="42.277560652092326" lon="13.687017794102422"><ele>967.0000000000001</ele><time>2026-04-27T16:03:38.999Z</time></trkpt><trkpt lat="42.27762872342021" lon="13.686937060814108"><ele>966.0000000000001</ele><time>2026-04-27T16:03:39.999Z</time></trkpt><trkpt lat="42.27771086270323" lon="13.6868902067046"><ele>965.0</ele><time>2026-04-27T16:03:41.999Z</time></trkpt><trkpt lat="42.27776481045724" lon="13.68699610271225"><ele>964.0</ele><time>2026-04-27T16:03:43.999Z</time></trkpt><trkpt lat="42.27776593784325" lon="13.687112581317479"><ele>963.9999999999999</ele><time>2026-04-27T16:03:44.999Z</time></trkpt><trkpt lat="42.27776505118138" lon="13.687218997897391"><ele>964.0</ele><time>2026-04-27T16:03:45.999Z</time></trkpt><trkpt lat="42.27779133645542" lon="13.687331598729656"><ele>964.0</ele><time>2026-04-27T16:03:46.999Z</time></trkpt><trkpt lat="42.27779805415274" lon="13.68742754834032"><ele>964.0</ele><time>2026-04-27T16:03:47.999Z</time></trkpt><trkpt lat="42.2777605040053" lon="13.68752320122588"><ele>963.9999999999999</ele><time>2026-04-27T16:03:48.999Z</time></trkpt><trkpt lat="42.277701549050754" lon="13.68763905687045"><ele>964.0</ele><time>2026-04-27T16:03:49.999Z</time></trkpt><trkpt lat="42.27766676359438" lon="13.687766316259834"><ele>963.1666666666666</ele><time>2026-04-27T16:03:50.999Z</time></trkpt><trkpt lat="42.27763242276137" lon="13.687881798855136"><ele>962.3333333333333</ele><time>2026-04-27T16:03:51.998Z</time></trkpt><trkpt lat="42.277600041187824" lon="13.687962097348372"><ele>961.5</ele><time>2026-04-27T16:03:52.998Z</time></trkpt><trkpt lat="42.2775408642883" lon="13.68806374365531"><ele>960.6666666666667</ele><time>2026-04-27T16:03:53.998Z</time></trkpt><trkpt lat="42.277485846565526" lon="13.688163337052789"><ele>959.8333333333334</ele><time>2026-04-27T16:03:54.998Z</time></trkpt><trkpt lat="42.27744585663477" lon="13.688264128618048"><ele>959.0</ele><time>2026-04-27T16:03:55.998Z</time></trkpt><trkpt lat="42.2774562571253" lon="13.688375392982026"><ele>959.0</ele><time>2026-04-27T16:03:57.998Z</time></trkpt><trkpt lat="42.277562498166716" lon="13.688408403872929"><ele>959.0000000000001</ele><time>2026-04-27T16:03:59.998Z</time></trkpt><trkpt lat="42.277678310390655" lon="13.688405776798923"><ele>959.0000000000001</ele><time>2026-04-27T16:04:00.998Z</time></trkpt><trkpt lat="42.27778280946439" lon="13.688411597415882"><ele>959.0</ele><time>2026-04-27T16:04:01.998Z</time></trkpt><trkpt lat="42.27787809462523" lon="13.688468709763963"><ele>959.0</ele><time>2026-04-27T16:04:02.998Z</time></trkpt><trkpt lat="42.2779839788328" lon="13.688538781560798"><ele>959.0</ele><time>2026-04-27T16:04:03.998Z</time></trkpt><trkpt lat="42.27809358813465" lon="13.688590054796574"><ele>959.0</ele><time>2026-04-27T16:04:04.998Z</time></trkpt><trkpt lat="42.27819981728264" lon="13.688622618182675"><ele>959.0</ele><time>2026-04-27T16:04:05.998Z</time></trkpt><trkpt lat="42.27830997305069" lon="13.688654700566357"><ele>959.0</ele><time>2026-04-27T16:04:06.998Z</time></trkpt><trkpt lat="42.278430620935836" lon="13.688713878862155"><ele>958.0</ele><time>2026-04-27T16:04:07.998Z</time></trkpt><trkpt lat="42.27854766589391" lon="13.68882478467256"><ele>957.0</ele><time>2026-04-27T16:04:08.998Z</time></trkpt><trkpt lat="42.27866124739916" lon="13.688952483423613"><ele>956.0</ele><time>2026-04-27T16:04:09.998Z</time></trkpt><trkpt lat="42.278751578533694" lon="13.68911633904287"><ele>955.0</ele><time>2026-04-27T16:04:10.998Z</time></trkpt><trkpt lat="42.278852811366924" lon="13.689283895858024"><ele>956.0</ele><time>2026-04-27T16:04:11.998Z</time></trkpt><trkpt lat="42.27895933668517" lon="13.689423700817388"><ele>957.0</ele><time>2026-04-27T16:04:12.998Z</time></trkpt><trkpt lat="42.27905259919302" lon="13.6895328319503"><ele>958.0</ele><time>2026-04-27T16:04:13.998Z</time></trkpt><trkpt lat="42.2791315377527" lon="13.689643378507444"><ele>959.0</ele><time>2026-04-27T16:04:14.998Z</time></trkpt><trkpt lat="42.27922174838502" lon="13.689766689755974"><ele>959.0</ele><time>2026-04-27T16:04:16Z</time></trkpt><trkpt lat="42.27931080018826" lon="13.689840833794436"><ele>959.0000000000001</ele><time>2026-04-27T16:04:17Z</time></trkpt><trkpt lat="42.27942419520401" lon="13.689879344159344"><ele>959.0000000000001</ele><time>2026-04-27T16:04:18Z</time></trkpt><trkpt lat="42.27953745796757" lon="13.689872165422981"><ele>959.0</ele><time>2026-04-27T16:04:19Z</time></trkpt><trkpt lat="42.27963080260578" lon="13.68988304871617"><ele>959.0</ele><time>2026-04-27T16:04:20Z</time></trkpt><trkpt lat="42.27970065072531" lon="13.689950289918462"><ele>959.6</ele><time>2026-04-27T16:04:21Z</time></trkpt><trkpt lat="42.279773857861365" lon="13.690079345094354"><ele>960.2</ele><time>2026-04-27T16:04:22Z</time></trkpt><trkpt lat="42.27983491660406" lon="13.690183477270203"><ele>960.8000000000001</ele><time>2026-04-27T16:04:23Z</time></trkpt><trkpt lat="42.2799179705709" lon="13.690232515102831"><ele>961.4000000000001</ele><time>2026-04-27T16:04:24Z</time></trkpt><trkpt lat="42.28001262399264" lon="13.690287708551491"><ele>962.0</ele><time>2026-04-27T16:04:25Z</time></trkpt><trkpt lat="42.280120488742874" lon="13.690322558652808"><ele>962.0</ele><time>2026-04-27T16:04:26Z</time></trkpt><trkpt lat="42.28021727538625" lon="13.690315398084394"><ele>962.0</ele><time>2026-04-27T16:04:27Z</time></trkpt><trkpt lat="42.28032256247663" lon="13.690324265968522"><ele>962.0</ele><time>2026-04-27T16:04:28Z</time></trkpt><trkpt lat="42.28043048148828" lon="13.690344290518711"><ele>962.0</ele><time>2026-04-27T16:04:29Z</time></trkpt><trkpt lat="42.2805135154861" lon="13.690399871141318"><ele>962.0</ele><time>2026-04-27T16:04:30Z</time></trkpt><trkpt lat="42.2805737143261" lon="13.690549142854325"><ele>968.5</ele><time>2026-04-27T16:04:31Z</time></trkpt><trkpt lat="42.280629376697206" lon="13.690714283997357"><ele>975.0</ele><time>2026-04-27T16:04:32Z</time></trkpt><trkpt lat="42.28065737191657" lon="13.690871582133125"><ele>981.5</ele><time>2026-04-27T16:04:33Z</time></trkpt><trkpt lat="42.280653033212005" lon="13.691046995970972"><ele>988.0</ele><time>2026-04-27T16:04:34Z</time></trkpt><trkpt lat="42.2806389689661" lon="13.691216616438751"><ele>989.75</ele><time>2026-04-27T16:04:35Z</time></trkpt><trkpt lat="42.28060718103641" lon="13.691400849780985"><ele>991.5</ele><time>2026-04-27T16:04:36Z</time></trkpt><trkpt lat="42.2805711148992" lon="13.691592518282455"><ele>993.25</ele><time>2026-04-27T16:04:37Z</time></trkpt><trkpt lat="42.28053854386751" lon="13.691760580726173"><ele>995.0</ele><time>2026-04-27T16:04:38Z</time></trkpt><trkpt lat="42.280475852731556" lon="13.691898525927156"><ele>990.75</ele><time>2026-04-27T16:04:39Z</time></trkpt><trkpt lat="42.28040149879771" lon="13.692042538283147"><ele>986.5</ele><time>2026-04-27T16:04:40Z</time></trkpt><trkpt lat="42.280346383905375" lon="13.69220465790204"><ele>982.25</ele><time>2026-04-27T16:04:41Z</time></trkpt><trkpt lat="42.28028216679604" lon="13.692359798379544"><ele>978.0</ele><time>2026-04-27T16:04:42Z</time></trkpt><trkpt lat="42.28021463162978" lon="13.692533187208682"><ele>978.0</ele><time>2026-04-27T16:04:43Z</time></trkpt><trkpt lat="42.28015187825978" lon="13.692701050565118"><ele>978.0</ele><time>2026-04-27T16:04:44Z</time></trkpt><trkpt lat="42.28009903829218" lon="13.692847341228633"><ele>978.0</ele><time>2026-04-27T16:04:45Z</time></trkpt><trkpt lat="42.28005862693783" lon="13.69298220507743"><ele>978.0</ele><time>2026-04-27T16:04:46Z</time></trkpt><trkpt lat="42.28005244215373" lon="13.693097080558001"><ele>978.8</ele><time>2026-04-27T16:04:47Z</time></trkpt><trkpt lat="42.280072569934916" lon="13.69322296658707"><ele>979.5999999999999</ele><time>2026-04-27T16:04:48Z</time></trkpt><trkpt lat="42.28009807086813" lon="13.69335114328012"><ele>980.4000000000001</ele><time>2026-04-27T16:04:49Z</time></trkpt><trkpt lat="42.2801121625191" lon="13.693483035545123"><ele>981.2</ele><time>2026-04-27T16:04:50Z</time></trkpt><trkpt lat="42.280116988668695" lon="13.693627423822717"><ele>982.0</ele><time>2026-04-27T16:04:51Z</time></trkpt><trkpt lat="42.28011304204648" lon="13.69379919435205"><ele>982.0</ele><time>2026-04-27T16:04:52Z</time></trkpt><trkpt lat="42.28010011918668" lon="13.69399586097097"><ele>982.0</ele><time>2026-04-27T16:04:53Z</time></trkpt><trkpt lat="42.28010215979032" lon="13.694185835731165"><ele>982.0</ele><time>2026-04-27T16:04:54Z</time></trkpt><trkpt lat="42.28010141324881" lon="13.694364493120153"><ele>982.0</ele><time>2026-04-27T16:04:54.999Z</time></trkpt><trkpt lat="42.28009431459701" lon="13.694527980685603"><ele>981.0</ele><time>2026-04-27T16:04:55.999Z</time></trkpt><trkpt lat="42.280079570660355" lon="13.694680452824329"><ele>980.0</ele><time>2026-04-27T16:04:56.999Z</time></trkpt><trkpt lat="42.28007378380511" lon="13.694804941109314"><ele>979.0</ele><time>2026-04-27T16:04:57.999Z</time></trkpt><trkpt lat="42.280047797437135" lon="13.694925666163277"><ele>978.0</ele><time>2026-04-27T16:04:58.999Z</time></trkpt><trkpt lat="42.28002103403571" lon="13.695049828375396"><ele>977.0</ele><time>2026-04-27T16:04:59.999Z</time></trkpt><trkpt lat="42.28001697379108" lon="13.695191522468097"><ele>975.6</ele><time>2026-04-27T16:05:00.999Z</time></trkpt><trkpt lat="42.28007163652482" lon="13.695340714624022"><ele>974.2</ele><time>2026-04-27T16:05:01.999Z</time></trkpt><trkpt lat="42.28012776986215" lon="13.69545480254095"><ele>972.8</ele><time>2026-04-27T16:05:02.999Z</time></trkpt><trkpt lat="42.28017823366775" lon="13.69553036930074"><ele>971.4</ele><time>2026-04-27T16:05:04.999Z</time></trkpt><trkpt lat="42.28025611874261" lon="13.695632155276355"><ele>970.0</ele><time>2026-04-27T16:05:06.999Z</time></trkpt><trkpt lat="42.28036364574062" lon="13.695699498206658"><ele>969.9999999999999</ele><time>2026-04-27T16:05:07.999Z</time></trkpt><trkpt lat="42.28045739159472" lon="13.695779377056038"><ele>970.0</ele><time>2026-04-27T16:05:08.999Z</time></trkpt><trkpt lat="42.28053794356763" lon="13.695845270600474"><ele>970.0</ele><time>2026-04-27T16:05:09.999Z</time></trkpt><trkpt lat="42.28060043065546" lon="13.695910209419528"><ele>970.0</ele><time>2026-04-27T16:05:10.999Z</time></trkpt><trkpt lat="42.28066790243846" lon="13.69597949100926"><ele>969.9999999999999</ele><time>2026-04-27T16:05:11.999Z</time></trkpt><trkpt lat="42.28073439790968" lon="13.696023162732073"><ele>970.0</ele><time>2026-04-27T16:05:12.999Z</time></trkpt><trkpt lat="42.28084603316368" lon="13.696012154238323"><ele>974.0</ele><time>2026-04-27T16:05:13.999Z</time></trkpt><trkpt lat="42.28096457981434" lon="13.695974914356988"><ele>978.0</ele><time>2026-04-27T16:05:14.999Z</time></trkpt><trkpt lat="42.281088947801884" lon="13.695898052519718"><ele>982.0</ele><time>2026-04-27T16:05:15.999Z</time></trkpt><trkpt lat="42.28119749384674" lon="13.695834502913218"><ele>986.0</ele><time>2026-04-27T16:05:16.999Z</time></trkpt><trkpt lat="42.28130443089128" lon="13.69576818354471"><ele>986.0</ele><time>2026-04-27T16:05:17.999Z</time></trkpt><trkpt lat="42.281389804389605" lon="13.695743963472855"><ele>985.9999999999999</ele><time>2026-04-27T16:05:18.999Z</time></trkpt><trkpt lat="42.28147441552587" lon="13.69584888266868"><ele>985.9999999999999</ele><time>2026-04-27T16:05:20.999Z</time></trkpt><trkpt lat="42.281490516695506" lon="13.695962916336823"><ele>986.0</ele><time>2026-04-27T16:05:21.999Z</time></trkpt><trkpt lat="42.28153702789602" lon="13.69608684852024"><ele>986.0</ele><time>2026-04-27T16:05:22.999Z</time></trkpt><trkpt lat="42.281617754205804" lon="13.696245137532268"><ele>987.0</ele><time>2026-04-27T16:05:23.999Z</time></trkpt><trkpt lat="42.28169516211583" lon="13.696382115063553"><ele>988.0</ele><time>2026-04-27T16:05:24.999Z</time></trkpt><trkpt lat="42.28175950259468" lon="13.696491671022823"><ele>989.0</ele><time>2026-04-27T16:05:25.999Z</time></trkpt><trkpt lat="42.281846672311374" lon="13.69658318649732"><ele>990.0</ele><time>2026-04-27T16:05:26.999Z</time></trkpt><trkpt lat="42.28195037914286" lon="13.696681279754578"><ele>990.0</ele><time>2026-04-27T16:05:27.999Z</time></trkpt><trkpt lat="42.282034599389284" lon="13.696782988992151"><ele>990.0</ele><time>2026-04-27T16:05:28.999Z</time></trkpt><trkpt lat="42.282112541400075" lon="13.696866033382921"><ele>990.0</ele><time>2026-04-27T16:05:29.999Z</time></trkpt><trkpt lat="42.282175667683426" lon="13.696930101605773"><ele>990.0</ele><time>2026-04-27T16:05:30.999Z</time></trkpt><trkpt lat="42.282228991216186" lon="13.696870483443357"><ele>990.0</ele><time>2026-04-27T16:05:32.999Z</time></trkpt><trkpt lat="42.28223304295851" lon="13.696753992231505"><ele>990.0</ele><time>2026-04-27T16:05:33.999Z</time></trkpt><trkpt lat="42.28219894684388" lon="13.696652788342929"><ele>990.0</ele><time>2026-04-27T16:05:34.999Z</time></trkpt><trkpt lat="42.282152979399434" lon="13.696560555336887"><ele>990.0</ele><time>2026-04-27T16:05:35.999Z</time></trkpt><trkpt lat="42.28216299397618" lon="13.696410025705154"><ele>990.0</ele><time>2026-04-27T16:05:37.999Z</time></trkpt><trkpt lat="42.282184146416775" lon="13.696296332640951"><ele>990.0</ele><time>2026-04-27T16:05:38.999Z</time></trkpt><trkpt lat="42.282257434694834" lon="13.696198875216309"><ele>990.0</ele><time>2026-04-27T16:05:39.999Z</time></trkpt><trkpt lat="42.28231340770253" lon="13.696012146904101"><ele>982.6666666666667</ele><time>2026-04-27T16:05:41.999Z</time></trkpt><trkpt lat="42.28233295347073" lon="13.695823245828294"><ele>975.3333333333334</ele><time>2026-04-27T16:05:42.999Z</time></trkpt><trkpt lat="42.28233484348444" lon="13.695587897521788"><ele>968.0</ele><time>2026-04-27T16:05:43.999Z</time></trkpt><trkpt lat="42.28233817405841" lon="13.695362066586"><ele>967.25</ele><time>2026-04-27T16:05:44.999Z</time></trkpt><trkpt lat="42.282338775888086" lon="13.69515773389961"><ele>966.5</ele><time>2026-04-27T16:05:45.999Z</time></trkpt><trkpt lat="42.28234015097419" lon="13.69495844676556"><ele>965.75</ele><time>2026-04-27T16:05:46.999Z</time></trkpt><trkpt lat="42.28234330933351" lon="13.694783806457508"><ele>965.0</ele><time>2026-04-27T16:05:47.999Z</time></trkpt><trkpt lat="42.28232614338651" lon="13.69461223773118"><ele>965.0</ele><time>2026-04-27T16:05:48.999Z</time></trkpt><trkpt lat="42.28229949429851" lon="13.694452066272222"><ele>965.0</ele><time>2026-04-27T16:05:49.999Z</time></trkpt><trkpt lat="42.28226245165587" lon="13.694314880102242"><ele>965.0</ele><time>2026-04-27T16:05:50.999Z</time></trkpt><trkpt lat="42.2822406289443" lon="13.69419052063843"><ele>965.0</ele><time>2026-04-27T16:05:51.999Z</time></trkpt><trkpt lat="42.28222243083016" lon="13.694051976795263"><ele>965.0</ele><time>2026-04-27T16:05:52.999Z</time></trkpt><trkpt lat="42.2822123279018" lon="13.693905541992022"><ele>961.75</ele><time>2026-04-27T16:05:53.999Z</time></trkpt><trkpt lat="42.282228346431566" lon="13.693770187130134"><ele>958.5</ele><time>2026-04-27T16:05:54.998Z</time></trkpt><trkpt lat="42.282241351288995" lon="13.693605658936905"><ele>955.25</ele><time>2026-04-27T16:05:55.998Z</time></trkpt><trkpt lat="42.2822640146299" lon="13.693459845706595"><ele>952.0</ele><time>2026-04-27T16:05:56.998Z</time></trkpt><trkpt lat="42.2822711035031" lon="13.693291804140506"><ele>952.0</ele><time>2026-04-27T16:05:57.998Z</time></trkpt><trkpt lat="42.28230339363481" lon="13.69310789001306"><ele>952.0</ele><time>2026-04-27T16:05:58.998Z</time></trkpt><trkpt lat="42.282344837331415" lon="13.692942625048454"><ele>952.0</ele><time>2026-04-27T16:05:59.998Z</time></trkpt><trkpt lat="42.28238862973074" lon="13.69279030982074"><ele>952.0</ele><time>2026-04-27T16:06:00.998Z</time></trkpt><trkpt lat="42.28243668540273" lon="13.692635404382083"><ele>953.5</ele><time>2026-04-27T16:06:01.998Z</time></trkpt><trkpt lat="42.282507195542166" lon="13.692461601180336"><ele>955.0</ele><time>2026-04-27T16:06:02.998Z</time></trkpt><trkpt lat="42.282586131002496" lon="13.692314977576656"><ele>956.5</ele><time>2026-04-27T16:06:03.998Z</time></trkpt><trkpt lat="42.2826782724063" lon="13.692183946674625"><ele>958.0</ele><time>2026-04-27T16:06:04.998Z</time></trkpt><trkpt lat="42.282765795807265" lon="13.692061140883297"><ele>958.0</ele><time>2026-04-27T16:06:05.998Z</time></trkpt><trkpt lat="42.28284980420334" lon="13.691935051177177"><ele>958.0</ele><time>2026-04-27T16:06:06.998Z</time></trkpt><trkpt lat="42.28294083594794" lon="13.691810169838119"><ele>958.0</ele><time>2026-04-27T16:06:07.998Z</time></trkpt><trkpt lat="42.2830168301077" lon="13.691671552197448"><ele>958.0</ele><time>2026-04-27T16:06:08.998Z</time></trkpt><trkpt lat="42.28309086172497" lon="13.69155776967008"><ele>953.25</ele><time>2026-04-27T16:06:09.998Z</time></trkpt><trkpt lat="42.28319956478217" lon="13.691476542600698"><ele>948.5</ele><time>2026-04-27T16:06:10.998Z</time></trkpt><trkpt lat="42.283311782328724" lon="13.691402235464132"><ele>943.75</ele><time>2026-04-27T16:06:11.998Z</time></trkpt><trkpt lat="42.28344813480178" lon="13.691310534599264"><ele>939.0</ele><time>2026-04-27T16:06:12.998Z</time></trkpt><trkpt lat="42.283595350965" lon="13.691212746345158"><ele>939.0</ele><time>2026-04-27T16:06:13.998Z</time></trkpt><trkpt lat="42.28375211159301" lon="13.691108137693805"><ele>939.0</ele><time>2026-04-27T16:06:14.998Z</time></trkpt><trkpt lat="42.28389796875676" lon="13.691014142422619"><ele>939.0</ele><time>2026-04-27T16:06:15.998Z</time></trkpt><trkpt lat="42.28403127320051" lon="13.690934175015046"><ele>940.0</ele><time>2026-04-27T16:06:16.998Z</time></trkpt><trkpt lat="42.28413398068145" lon="13.69088590630438"><ele>941.0</ele><time>2026-04-27T16:06:17.998Z</time></trkpt><trkpt lat="42.28426626753888" lon="13.690852753148972"><ele>942.0</ele><time>2026-04-27T16:06:18.998Z</time></trkpt><trkpt lat="42.284419931708875" lon="13.690816419291684"><ele>943.0</ele><time>2026-04-27T16:06:19.998Z</time></trkpt><trkpt lat="42.284696837589486" lon="13.690918432078739"><ele>943.25</ele><time>2026-04-27T16:06:22Z</time></trkpt><trkpt lat="42.28480916343076" lon="13.69102120066951"><ele>943.5</ele><time>2026-04-27T16:06:23Z</time></trkpt><trkpt lat="42.284948754353664" lon="13.691083292632689"><ele>943.75</ele><time>2026-04-27T16:06:24Z</time></trkpt><trkpt lat="42.285104578569566" lon="13.691139543834055"><ele>944.0</ele><time>2026-04-27T16:06:25Z</time></trkpt><trkpt lat="42.285253300090794" lon="13.691183131923989"><ele>935.75</ele><time>2026-04-27T16:06:26Z</time></trkpt><trkpt lat="42.28540311129791" lon="13.69120127009243"><ele>927.5</ele><time>2026-04-27T16:06:27Z</time></trkpt><trkpt lat="42.28552246019819" lon="13.691236869861093"><ele>919.25</ele><time>2026-04-27T16:06:28Z</time></trkpt><trkpt lat="42.28564633503216" lon="13.69123363770221"><ele>911.0</ele><time>2026-04-27T16:06:29Z</time></trkpt><trkpt lat="42.28577163648173" lon="13.69121725689898"><ele>911.0</ele><time>2026-04-27T16:06:30Z</time></trkpt><trkpt lat="42.28590652879852" lon="13.69120200738017"><ele>911.0</ele><time>2026-04-27T16:06:31Z</time></trkpt><trkpt lat="42.28605236177158" lon="13.691163229105946"><ele>911.0</ele><time>2026-04-27T16:06:32Z</time></trkpt><trkpt lat="42.28619043641605" lon="13.69112325045826"><ele>911.0</ele><time>2026-04-27T16:06:33Z</time></trkpt><trkpt lat="42.28632776030163" lon="13.691089885272817"><ele>918.0</ele><time>2026-04-27T16:06:34Z</time></trkpt><trkpt lat="42.286459915878694" lon="13.691058771326437"><ele>925.0</ele><time>2026-04-27T16:06:35Z</time></trkpt><trkpt lat="42.286603628131" lon="13.69103485453334"><ele>932.0</ele><time>2026-04-27T16:06:36Z</time></trkpt><trkpt lat="42.28675695453096" lon="13.691003420901419"><ele>939.0</ele><time>2026-04-27T16:06:37Z</time></trkpt><trkpt lat="42.286913771644514" lon="13.690967373754841"><ele>939.0</ele><time>2026-04-27T16:06:38Z</time></trkpt><trkpt lat="42.287061426294585" lon="13.690912240687735"><ele>939.0</ele><time>2026-04-27T16:06:39Z</time></trkpt><trkpt lat="42.287204500051956" lon="13.690855700754579"><ele>939.0</ele><time>2026-04-27T16:06:40Z</time></trkpt><trkpt lat="42.287349839248684" lon="13.690788854626724"><ele>935.0</ele><time>2026-04-27T16:06:41Z</time></trkpt><trkpt lat="42.28748504886713" lon="13.690730388856526"><ele>931.0</ele><time>2026-04-27T16:06:42Z</time></trkpt><trkpt lat="42.28761938686189" lon="13.690680472958961"><ele>927.0</ele><time>2026-04-27T16:06:43Z</time></trkpt><trkpt lat="42.28776999544829" lon="13.690640414044369"><ele>923.0</ele><time>2026-04-27T16:06:44Z</time></trkpt><trkpt lat="42.28791021704383" lon="13.690603219991905"><ele>923.0</ele><time>2026-04-27T16:06:45Z</time></trkpt><trkpt lat="42.28805017599888" lon="13.69054527413822"><ele>923.0</ele><time>2026-04-27T16:06:46Z</time></trkpt><trkpt lat="42.28819861465347" lon="13.690475546522782"><ele>923.0</ele><time>2026-04-27T16:06:47Z</time></trkpt><trkpt lat="42.28833403596981" lon="13.690409393962081"><ele>923.0</ele><time>2026-04-27T16:06:48Z</time></trkpt><trkpt lat="42.28844537969929" lon="13.690363578046604"><ele>918.75</ele><time>2026-04-27T16:06:49Z</time></trkpt><trkpt lat="42.288560463038344" lon="13.690349167428415"><ele>914.5</ele><time>2026-04-27T16:06:50Z</time></trkpt><trkpt lat="42.28868038557869" lon="13.690357904292233"><ele>910.25</ele><time>2026-04-27T16:06:51Z</time></trkpt><trkpt lat="42.288785752389806" lon="13.690401129996976"><ele>906.0</ele><time>2026-04-27T16:06:52Z</time></trkpt><trkpt lat="42.28889222417493" lon="13.690458227124472"><ele>905.0</ele><time>2026-04-27T16:06:53Z</time></trkpt><trkpt lat="42.28898935909038" lon="13.690516623824019"><ele>903.9999999999999</ele><time>2026-04-27T16:06:54Z</time></trkpt><trkpt lat="42.28907291589446" lon="13.690559987808436"><ele>902.9999999999999</ele><time>2026-04-27T16:06:55Z</time></trkpt><trkpt lat="42.28917878155576" lon="13.690575063617885"><ele>902.0</ele><time>2026-04-27T16:06:56Z</time></trkpt><trkpt lat="42.28928291354226" lon="13.690576155615428"><ele>901.0</ele><time>2026-04-27T16:06:57Z</time></trkpt><trkpt lat="42.28936696047707" lon="13.690563499423273"><ele>901.0</ele><time>2026-04-27T16:06:58Z</time></trkpt><trkpt lat="42.289453980878235" lon="13.690524759018912"><ele>900.9999999999999</ele><time>2026-04-27T16:06:58.999Z</time></trkpt><trkpt lat="42.2895385444433" lon="13.690501678190762"><ele>900.9999999999999</ele><time>2026-04-27T16:06:59.999Z</time></trkpt><trkpt lat="42.28962578780255" lon="13.690508411828766"><ele>901.0</ele><time>2026-04-27T16:07:00.999Z</time></trkpt><trkpt lat="42.28971530278705" lon="13.690543831432304"><ele>901.0</ele><time>2026-04-27T16:07:01.999Z</time></trkpt><trkpt lat="42.28981423781906" lon="13.690569627116945"><ele>900.1999999999999</ele><time>2026-04-27T16:07:02.999Z</time></trkpt><trkpt lat="42.28990691329967" lon="13.690611114096908"><ele>899.3999999999999</ele><time>2026-04-27T16:07:03.999Z</time></trkpt><trkpt lat="42.28998801313192" lon="13.690648065751786"><ele>898.6</ele><time>2026-04-27T16:07:04.999Z</time></trkpt><trkpt lat="42.29007452819909" lon="13.69066539791584"><ele>897.8</ele><time>2026-04-27T16:07:05.999Z</time></trkpt><trkpt lat="42.290160745626316" lon="13.690665525172676"><ele>897.0</ele><time>2026-04-27T16:07:06.999Z</time></trkpt><trkpt lat="42.29025692784723" lon="13.69066056279577"><ele>897.0</ele><time>2026-04-27T16:07:07.999Z</time></trkpt><trkpt lat="42.29036543788549" lon="13.690643382183508"><ele>897.0</ele><time>2026-04-27T16:07:08.999Z</time></trkpt><trkpt lat="42.29048762012552" lon="13.690599909018077"><ele>897.0</ele><time>2026-04-27T16:07:09.999Z</time></trkpt><trkpt lat="42.29060057000297" lon="13.690560103919157"><ele>897.0</ele><time>2026-04-27T16:07:10.999Z</time></trkpt><trkpt lat="42.29070577763063" lon="13.690535650888249"><ele>895.0</ele><time>2026-04-27T16:07:11.999Z</time></trkpt><trkpt lat="42.290805209756236" lon="13.690533594187363"><ele>893.0</ele><time>2026-04-27T16:07:12.999Z</time></trkpt><trkpt lat="42.29091259834186" lon="13.690546931665576"><ele>891.0</ele><time>2026-04-27T16:07:13.999Z</time></trkpt><trkpt lat="42.291008810121774" lon="13.690545358745828"><ele>889.0</ele><time>2026-04-27T16:07:14.999Z</time></trkpt><trkpt lat="42.29110336058474" lon="13.69053852173455"><ele>887.0</ele><time>2026-04-27T16:07:15.999Z</time></trkpt><trkpt lat="42.291192560568945" lon="13.690512536270175"><ele>887.0</ele><time>2026-04-27T16:07:16.999Z</time></trkpt><trkpt lat="42.291287046976024" lon="13.69046570361285"><ele>887.0</ele><time>2026-04-27T16:07:17.999Z</time></trkpt><trkpt lat="42.29137831456237" lon="13.69040266137988"><ele>887.0</ele><time>2026-04-27T16:07:18.999Z</time></trkpt><trkpt lat="42.29147028613517" lon="13.690317794100642"><ele>887.0</ele><time>2026-04-27T16:07:19.999Z</time></trkpt><trkpt lat="42.29154817581798" lon="13.690226771223363"><ele>887.0</ele><time>2026-04-27T16:07:20.999Z</time></trkpt><trkpt lat="42.29163157433633" lon="13.690117472739034"><ele>885.0</ele><time>2026-04-27T16:07:21.999Z</time></trkpt><trkpt lat="42.29170477148828" lon="13.690031390897698"><ele>883.0</ele><time>2026-04-27T16:07:22.999Z</time></trkpt><trkpt lat="42.29178238351356" lon="13.689955215408101"><ele>881.0</ele><time>2026-04-27T16:07:23.999Z</time></trkpt><trkpt lat="42.29187015376842" lon="13.68987899075538"><ele>879.0</ele><time>2026-04-27T16:07:24.999Z</time></trkpt><trkpt lat="42.29197444588962" lon="13.689827682805246"><ele>877.0</ele><time>2026-04-27T16:07:25.999Z</time></trkpt><trkpt lat="42.2920650242646" lon="13.689784911309408"><ele>877.0</ele><time>2026-04-27T16:07:26.999Z</time></trkpt><trkpt lat="42.29215080523734" lon="13.689718470333094"><ele>877.0</ele><time>2026-04-27T16:07:27.999Z</time></trkpt><trkpt lat="42.29222936416051" lon="13.689621473707264"><ele>877.0</ele><time>2026-04-27T16:07:28.999Z</time></trkpt><trkpt lat="42.292305070541836" lon="13.689498912225158"><ele>877.0</ele><time>2026-04-27T16:07:29.999Z</time></trkpt><trkpt lat="42.29239374196812" lon="13.689338262169667"><ele>875.0</ele><time>2026-04-27T16:07:30.999Z</time></trkpt><trkpt lat="42.29250816000799" lon="13.68919336419496"><ele>873.0</ele><time>2026-04-27T16:07:31.999Z</time></trkpt><trkpt lat="42.29262020480351" lon="13.68905844808985"><ele>871.0</ele><time>2026-04-27T16:07:32.999Z</time></trkpt><trkpt lat="42.292715872673924" lon="13.688950235033102"><ele>869.0</ele><time>2026-04-27T16:07:33.999Z</time></trkpt><trkpt lat="42.2928095485358" lon="13.688856458155685"><ele>869.0</ele><time>2026-04-27T16:07:34.999Z</time></trkpt><trkpt lat="42.2929020104689" lon="13.688788163528598"><ele>869.0</ele><time>2026-04-27T16:07:35.999Z</time></trkpt><trkpt lat="42.29300979636219" lon="13.688717491325265"><ele>869.0</ele><time>2026-04-27T16:07:36.999Z</time></trkpt><trkpt lat="42.293122960192576" lon="13.688645188106806"><ele>869.0</ele><time>2026-04-27T16:07:37.999Z</time></trkpt><trkpt lat="42.29323171734992" lon="13.688599242428975"><ele>869.0</ele><time>2026-04-27T16:07:38.999Z</time></trkpt><trkpt lat="42.29333014468139" lon="13.688561578380515"><ele>869.0000000000001</ele><time>2026-04-27T16:07:39.999Z</time></trkpt><trkpt lat="42.293400204795944" lon="13.68856424713959"><ele>869.0000000000001</ele><time>2026-04-27T16:07:40.999Z</time></trkpt><trkpt lat="42.293437908399945" lon="13.68865473238031"><ele>869.0</ele><time>2026-04-27T16:07:43.999Z</time></trkpt><trkpt lat="42.293387875953044" lon="13.68874238664695"><ele>869.0</ele><time>2026-04-27T16:07:46.999Z</time></trkpt><trkpt lat="42.29313996562958" lon="13.689098844451374"><ele>869.0</ele><time>2026-04-27T16:07:49.999Z</time></trkpt><trkpt lat="42.29306475386354" lon="13.689218384115492"><ele>869.0</ele><time>2026-04-27T16:07:50.999Z</time></trkpt><trkpt lat="42.29294033748504" lon="13.689310682899501"><ele>869.0</ele><time>2026-04-27T16:07:51.999Z</time></trkpt><trkpt lat="42.29292637780818" lon="13.689478260849016"><ele>869.0</ele><time>2026-04-27T16:07:52.999Z</time></trkpt><trkpt lat="42.29286726111443" lon="13.689602359326267"><ele>867.0</ele><time>2026-04-27T16:07:53.999Z</time></trkpt><trkpt lat="42.292815076355254" lon="13.689734304867482"><ele>865.0000000000001</ele><time>2026-04-27T16:07:54.999Z</time></trkpt><trkpt lat="42.292758736498975" lon="13.689867922553953"><ele>863.0000000000001</ele><time>2026-04-27T16:07:55.999Z</time></trkpt><trkpt lat="42.29270419034155" lon="13.689998280434779"><ele>861.0</ele><time>2026-04-27T16:07:56.999Z</time></trkpt><trkpt lat="42.29265038371445" lon="13.690125745872342"><ele>859.0</ele><time>2026-04-27T16:07:57.999Z</time></trkpt><trkpt lat="42.29259881332899" lon="13.690250981331051"><ele>858.4000000000001</ele><time>2026-04-27T16:07:58.999Z</time></trkpt><trkpt lat="42.29250890960791" lon="13.690348748560671"><ele>857.8000000000001</ele><time>2026-04-27T16:07:59.998Z</time></trkpt><trkpt lat="42.292468558551455" lon="13.6904785115975"><ele>857.1999999999999</ele><time>2026-04-27T16:08:00.998Z</time></trkpt><trkpt lat="42.29244126721416" lon="13.690623530085887"><ele>856.5999999999999</ele><time>2026-04-27T16:08:01.998Z</time></trkpt><trkpt lat="42.29243353822716" lon="13.690775649245522"><ele>856.0</ele><time>2026-04-27T16:08:02.998Z</time></trkpt><trkpt lat="42.292423903090366" lon="13.690915449651067"><ele>856.0</ele><time>2026-04-27T16:08:03.998Z</time></trkpt><trkpt lat="42.29241012356265" lon="13.691044209826272"><ele>855.9999999999999</ele><time>2026-04-27T16:08:04.998Z</time></trkpt><trkpt lat="42.29238963498039" lon="13.691163233908986"><ele>855.9999999999999</ele><time>2026-04-27T16:08:05.998Z</time></trkpt><trkpt lat="42.29235860658009" lon="13.691280753273684"><ele>856.0</ele><time>2026-04-27T16:08:06.998Z</time></trkpt><trkpt lat="42.292307067770786" lon="13.691452916215384"><ele>856.0</ele><time>2026-04-27T16:08:07.998Z</time></trkpt><trkpt lat="42.29226183223518" lon="13.691571000829834"><ele>857.1999999999999</ele><time>2026-04-27T16:08:08.998Z</time></trkpt><trkpt lat="42.29220981137182" lon="13.691677335111626"><ele>858.3999999999999</ele><time>2026-04-27T16:08:09.998Z</time></trkpt><trkpt lat="42.29214763917227" lon="13.691776974886285"><ele>859.6</ele><time>2026-04-27T16:08:10.998Z</time></trkpt><trkpt lat="42.29208031915778" lon="13.691869696927991"><ele>860.8</ele><time>2026-04-27T16:08:11.998Z</time></trkpt><trkpt lat="42.29199241216109" lon="13.691973242800817"><ele>862.0</ele><time>2026-04-27T16:08:12.998Z</time></trkpt><trkpt lat="42.29190143561878" lon="13.69207918364183"><ele>862.0</ele><time>2026-04-27T16:08:13.998Z</time></trkpt><trkpt lat="42.29180844561786" lon="13.692186728795606"><ele>862.0</ele><time>2026-04-27T16:08:14.998Z</time></trkpt><trkpt lat="42.29171163012109" lon="13.692287412742951"><ele>862.0</ele><time>2026-04-27T16:08:15.998Z</time></trkpt><trkpt lat="42.29160829411103" lon="13.692389836090902"><ele>862.0</ele><time>2026-04-27T16:08:16.998Z</time></trkpt><trkpt lat="42.29151145019878" lon="13.692489694732584"><ele>862.0</ele><time>2026-04-27T16:08:17.998Z</time></trkpt><trkpt lat="42.291413976304234" lon="13.692589810817623"><ele>862.0</ele><time>2026-04-27T16:08:18.998Z</time></trkpt><trkpt lat="42.29131449566592" lon="13.692708022647787"><ele>862.0</ele><time>2026-04-27T16:08:19.998Z</time></trkpt><trkpt lat="42.291230932253654" lon="13.692835175654553"><ele>862.0</ele><time>2026-04-27T16:08:20.998Z</time></trkpt><trkpt lat="42.291167794647826" lon="13.692977137752818"><ele>862.0</ele><time>2026-04-27T16:08:21.998Z</time></trkpt><trkpt lat="42.29112634637434" lon="13.69307821469118"><ele>862.0</ele><time>2026-04-27T16:08:22.998Z</time></trkpt><trkpt lat="42.29106007965448" lon="13.693174536129249"><ele>862.0</ele><time>2026-04-27T16:08:23.998Z</time></trkpt><trkpt lat="42.291012787224346" lon="13.693256548314857"><ele>862.0</ele><time>2026-04-27T16:08:24.998Z</time></trkpt><trkpt lat="42.290971579504564" lon="13.69332697520107"><ele>862.0</ele><time>2026-04-27T16:08:27Z</time></trkpt><trkpt lat="42.2911774099323" lon="13.693183119528019"><ele>862.0</ele><time>2026-04-27T16:08:30Z</time></trkpt><trkpt lat="42.29117184492252" lon="13.693065714161591"><ele>862.0</ele><time>2026-04-27T16:08:33Z</time></trkpt><trkpt lat="42.291120204980096" lon="13.693012268223459"><ele>862.0</ele><time>2026-04-27T16:08:36Z</time></trkpt><trkpt lat="42.291036582932016" lon="13.693014681026568"><ele>862.0</ele><time>2026-04-27T16:08:38Z</time></trkpt><trkpt lat="42.290966474111784" lon="13.693043128744897"><ele>862.0</ele><time>2026-04-27T16:08:40Z</time></trkpt><trkpt lat="42.29090652897487" lon="13.693084093087926"><ele>862.0</ele><time>2026-04-27T16:08:42Z</time></trkpt><trkpt lat="42.290842192747" lon="13.693115883731146"><ele>862.0</ele><time>2026-04-27T16:08:44Z</time></trkpt><trkpt lat="42.29077810021244" lon="13.693142486773565"><ele>861.9999999999999</ele><time>2026-04-27T16:08:46Z</time></trkpt><trkpt lat="42.29070916579726" lon="13.693162947392658"><ele>862.0</ele><time>2026-04-27T16:08:48Z</time></trkpt><trkpt lat="42.29063896914691" lon="13.693170717953405"><ele>862.0</ele><time>2026-04-27T16:08:50Z</time></trkpt><trkpt lat="42.29056548758316" lon="13.693168889006275"><ele>862.0</ele><time>2026-04-27T16:08:52Z</time></trkpt><trkpt lat="42.29048875958801" lon="13.693200436546244"><ele>861.9999999999999</ele><time>2026-04-27T16:08:54Z</time></trkpt><trkpt lat="42.29041177498583" lon="13.693238386375425"><ele>862.0</ele><time>2026-04-27T16:08:56Z</time></trkpt><trkpt lat="42.29033508990275" lon="13.69328992422336"><ele>860.4000000000001</ele><time>2026-04-27T16:08:58Z</time></trkpt><trkpt lat="42.29025584629787" lon="13.693351256328787"><ele>858.8000000000001</ele><time>2026-04-27T16:09:00Z</time></trkpt><trkpt lat="42.29016672146304" lon="13.693412917941005"><ele>857.2</ele><time>2026-04-27T16:09:02Z</time></trkpt><trkpt lat="42.290073075486745" lon="13.693486738042381"><ele>855.6</ele><time>2026-04-27T16:09:03.999Z</time></trkpt><trkpt lat="42.28997771914176" lon="13.693564962549338"><ele>854.0</ele><time>2026-04-27T16:09:05.999Z</time></trkpt><trkpt lat="42.28986861865483" lon="13.693651479194433"><ele>853.6</ele><time>2026-04-27T16:09:07.999Z</time></trkpt><trkpt lat="42.28981097591936" lon="13.693696518322065"><ele>853.2</ele><time>2026-04-27T16:09:08.999Z</time></trkpt><trkpt lat="42.28971105526662" lon="13.693779294770675"><ele>852.8000000000001</ele><time>2026-04-27T16:09:10.999Z</time></trkpt><trkpt lat="42.28962688660549" lon="13.69389984427892"><ele>852.4000000000001</ele><time>2026-04-27T16:09:12.999Z</time></trkpt><trkpt lat="42.28958565911334" lon="13.693984583357036"><ele>852.0</ele><time>2026-04-27T16:09:13.999Z</time></trkpt><trkpt lat="42.289552598058094" lon="13.694079453172384"><ele>849.8333333333334</ele><time>2026-04-27T16:09:14.999Z</time></trkpt><trkpt lat="42.28952025170094" lon="13.694170595312798"><ele>847.6666666666667</ele><time>2026-04-27T16:09:15.999Z</time></trkpt><trkpt lat="42.28948834446287" lon="13.694270246093723"><ele>845.5</ele><time>2026-04-27T16:09:16.999Z</time></trkpt><trkpt lat="42.289447510723264" lon="13.6943705677392"><ele>843.3333333333334</ele><time>2026-04-27T16:09:17.999Z</time></trkpt><trkpt lat="42.28939848958313" lon="13.694473326365197"><ele>841.1666666666667</ele><time>2026-04-27T16:09:18.999Z</time></trkpt><trkpt lat="42.28934846762759" lon="13.694577950846673"><ele>839.0</ele><time>2026-04-27T16:09:19.999Z</time></trkpt><trkpt lat="42.28929602505398" lon="13.694692154347354"><ele>838.0</ele><time>2026-04-27T16:09:20.999Z</time></trkpt><trkpt lat="42.28923646657456" lon="13.694804979206136"><ele>837.0</ele><time>2026-04-27T16:09:21.999Z</time></trkpt><trkpt lat="42.28917252118017" lon="13.694928136198765"><ele>836.0</ele><time>2026-04-27T16:09:22.999Z</time></trkpt><trkpt lat="42.28910960075913" lon="13.695055608808428"><ele>835.0</ele><time>2026-04-27T16:09:23.999Z</time></trkpt><trkpt lat="42.2890404159135" lon="13.695187308494154"><ele>834.0</ele><time>2026-04-27T16:09:24.999Z</time></trkpt><trkpt lat="42.28896482410783" lon="13.695322378052998"><ele>830.25</ele><time>2026-04-27T16:09:25.999Z</time></trkpt><trkpt lat="42.28889660275676" lon="13.695455590708985"><ele>826.5</ele><time>2026-04-27T16:09:26.999Z</time></trkpt><trkpt lat="42.2888407287369" lon="13.695606186737642"><ele>822.75</ele><time>2026-04-27T16:09:27.999Z</time></trkpt><trkpt lat="42.28879561558921" lon="13.695747663967058"><ele>819.0</ele><time>2026-04-27T16:09:28.999Z</time></trkpt><trkpt lat="42.288728102318345" lon="13.695873149312098"><ele>819.0</ele><time>2026-04-27T16:09:29.999Z</time></trkpt><trkpt lat="42.288647555925166" lon="13.695974994392966"><ele>819.0</ele><time>2026-04-27T16:09:30.999Z</time></trkpt><trkpt lat="42.2885479838507" lon="13.696041431310226"><ele>819.0</ele><time>2026-04-27T16:09:31.999Z</time></trkpt><trkpt lat="42.28842571790501" lon="13.696075329382648"><ele>819.0</ele><time>2026-04-27T16:09:32.999Z</time></trkpt><trkpt lat="42.28831441413717" lon="13.696130221688076"><ele>818.0</ele><time>2026-04-27T16:09:33.999Z</time></trkpt><trkpt lat="42.28820647840682" lon="13.696221196045007"><ele>817.0</ele><time>2026-04-27T16:09:34.999Z</time></trkpt><trkpt lat="42.28810801971574" lon="13.696342190112453"><ele>816.0</ele><time>2026-04-27T16:09:35.999Z</time></trkpt><trkpt lat="42.28801570382822" lon="13.696467216023"><ele>815.0</ele><time>2026-04-27T16:09:36.999Z</time></trkpt><trkpt lat="42.28792243780323" lon="13.696573023237496"><ele>812.6</ele><time>2026-04-27T16:09:37.999Z</time></trkpt><trkpt lat="42.28784631020565" lon="13.696661108420562"><ele>810.2</ele><time>2026-04-27T16:09:38.999Z</time></trkpt><trkpt lat="42.287770349203555" lon="13.69675544653587"><ele>807.8</ele><time>2026-04-27T16:09:39.999Z</time></trkpt><trkpt lat="42.287674939210945" lon="13.6968424552847"><ele>805.4</ele><time>2026-04-27T16:09:40.999Z</time></trkpt><trkpt lat="42.28760105541843" lon="13.696949558794651"><ele>803.0</ele><time>2026-04-27T16:09:41.999Z</time></trkpt><trkpt lat="42.287575051050204" lon="13.697071048279952"><ele>802.4</ele><time>2026-04-27T16:09:42.999Z</time></trkpt><trkpt lat="42.287582931743984" lon="13.697214822985362"><ele>801.8</ele><time>2026-04-27T16:09:43.999Z</time></trkpt><trkpt lat="42.28759888447381" lon="13.697352731191804"><ele>801.2</ele><time>2026-04-27T16:09:44.999Z</time></trkpt><trkpt lat="42.287579044168396" lon="13.697482387237745"><ele>800.6</ele><time>2026-04-27T16:09:45.999Z</time></trkpt><trkpt lat="42.287533854915445" lon="13.697591524426212"><ele>800.0</ele><time>2026-04-27T16:09:46.999Z</time></trkpt><trkpt lat="42.28747316658776" lon="13.697698005210297"><ele>799.8</ele><time>2026-04-27T16:09:47.999Z</time></trkpt><trkpt lat="42.28741689210965" lon="13.697790099793473"><ele>799.6</ele><time>2026-04-27T16:09:48.999Z</time></trkpt><trkpt lat="42.287368851428646" lon="13.697904908836918"><ele>799.4000000000001</ele><time>2026-04-27T16:09:49.999Z</time></trkpt><trkpt lat="42.28733607801181" lon="13.698013081354654"><ele>799.2</ele><time>2026-04-27T16:09:50.999Z</time></trkpt><trkpt lat="42.28731343327102" lon="13.698134302409315"><ele>799.0</ele><time>2026-04-27T16:09:51.999Z</time></trkpt><trkpt lat="42.28728839583371" lon="13.698264167865386"><ele>799.0</ele><time>2026-04-27T16:09:52.999Z</time></trkpt><trkpt lat="42.28728469455253" lon="13.698380546314617"><ele>799.0</ele><time>2026-04-27T16:09:53.999Z</time></trkpt><trkpt lat="42.2872932270925" lon="13.698505314721917"><ele>799.0</ele><time>2026-04-27T16:09:54.999Z</time></trkpt><trkpt lat="42.2873089979422" lon="13.698640056533893"><ele>799.0</ele><time>2026-04-27T16:09:55.999Z</time></trkpt><trkpt lat="42.2873294108978" lon="13.69880547600659"><ele>799.0</ele><time>2026-04-27T16:09:56.999Z</time></trkpt><trkpt lat="42.28732538867516" lon="13.6989663290647"><ele>798.4000000000001</ele><time>2026-04-27T16:09:57.999Z</time></trkpt><trkpt lat="42.28727897920276" lon="13.699134841013185"><ele>797.8</ele><time>2026-04-27T16:09:58.999Z</time></trkpt><trkpt lat="42.287243701251185" lon="13.69927231485637"><ele>797.2</ele><time>2026-04-27T16:09:59.999Z</time></trkpt><trkpt lat="42.28723782898701" lon="13.699366335529636"><ele>796.5999999999999</ele><time>2026-04-27T16:10:00.999Z</time></trkpt><trkpt lat="42.287286859443036" lon="13.699524226722763"><ele>796.0</ele><time>2026-04-27T16:10:02.999Z</time></trkpt><trkpt lat="42.287338172684905" lon="13.699628290487803"><ele>795.4</ele><time>2026-04-27T16:10:03.999Z</time></trkpt><trkpt lat="42.287405773372605" lon="13.699711031303"><ele>794.8</ele><time>2026-04-27T16:10:04.998Z</time></trkpt><trkpt lat="42.28744377845352" lon="13.69978493023183"><ele>794.1999999999999</ele><time>2026-04-27T16:10:05.998Z</time></trkpt><trkpt lat="42.28741105596848" lon="13.699965177858552"><ele>793.5999999999999</ele><time>2026-04-27T16:10:07.998Z</time></trkpt><trkpt lat="42.28740648305702" lon="13.700122394601264"><ele>793.0</ele><time>2026-04-27T16:10:08.998Z</time></trkpt><trkpt lat="42.28739894420541" lon="13.70024015807451"><ele>793.25</ele><time>2026-04-27T16:10:09.998Z</time></trkpt><trkpt lat="42.287345775238066" lon="13.700345338102592"><ele>793.5</ele><time>2026-04-27T16:10:10.998Z</time></trkpt><trkpt lat="42.28727477223567" lon="13.700489136142496"><ele>793.75</ele><time>2026-04-27T16:10:11.998Z</time></trkpt><trkpt lat="42.28721383534464" lon="13.700621891632945"><ele>794.0</ele><time>2026-04-27T16:10:12.998Z</time></trkpt><trkpt lat="42.287166980559476" lon="13.700785150462245"><ele>791.25</ele><time>2026-04-27T16:10:13.998Z</time></trkpt><trkpt lat="42.28714806951866" lon="13.700929539406745"><ele>788.5</ele><time>2026-04-27T16:10:14.998Z</time></trkpt><trkpt lat="42.287152580469495" lon="13.701101818113331"><ele>785.75</ele><time>2026-04-27T16:10:15.998Z</time></trkpt><trkpt lat="42.28716845670991" lon="13.701293946229544"><ele>783.0</ele><time>2026-04-27T16:10:16.998Z</time></trkpt><trkpt lat="42.28715963971681" lon="13.701493896944127"><ele>783.0</ele><time>2026-04-27T16:10:17.998Z</time></trkpt><trkpt lat="42.28713928975799" lon="13.701652698569072"><ele>783.0</ele><time>2026-04-27T16:10:18.998Z</time></trkpt><trkpt lat="42.287101938508606" lon="13.701801607412312"><ele>783.0</ele><time>2026-04-27T16:10:19.998Z</time></trkpt><trkpt lat="42.287038203468796" lon="13.701962266832716"><ele>783.0</ele><time>2026-04-27T16:10:20.998Z</time></trkpt><trkpt lat="42.28695779534226" lon="13.702114133932533"><ele>782.75</ele><time>2026-04-27T16:10:21.998Z</time></trkpt><trkpt lat="42.28688187258344" lon="13.702278738834021"><ele>782.5</ele><time>2026-04-27T16:10:22.998Z</time></trkpt><trkpt lat="42.28681488239985" lon="13.70245305036252"><ele>782.25</ele><time>2026-04-27T16:10:23.998Z</time></trkpt><trkpt lat="42.28675683358393" lon="13.70263412793352"><ele>782.0</ele><time>2026-04-27T16:10:24.998Z</time></trkpt><trkpt lat="42.286699771012046" lon="13.702813013291914"><ele>783.0</ele><time>2026-04-27T16:10:25.998Z</time></trkpt><trkpt lat="42.28663144877472" lon="13.70297775611748"><ele>784.0</ele><time>2026-04-27T16:10:26.998Z</time></trkpt><trkpt lat="42.286551614058595" lon="13.703124209214657"><ele>785.0</ele><time>2026-04-27T16:10:27.998Z</time></trkpt><trkpt lat="42.28648072113371" lon="13.703280385386847"><ele>786.0</ele><time>2026-04-27T16:10:28.998Z</time></trkpt><trkpt lat="42.286422163861204" lon="13.703462240886719"><ele>784.0</ele><time>2026-04-27T16:10:29.998Z</time></trkpt><trkpt lat="42.28637933934129" lon="13.70363524982764"><ele>782.0</ele><time>2026-04-27T16:10:30.998Z</time></trkpt><trkpt lat="42.28634505576619" lon="13.703766164451753"><ele>780.0</ele><time>2026-04-27T16:10:31.998Z</time></trkpt><trkpt lat="42.286304627020805" lon="13.703862878751895"><ele>778.0</ele><time>2026-04-27T16:10:33Z</time></trkpt><trkpt lat="42.28625220700419" lon="13.703910441001687"><ele>776.0</ele><time>2026-04-27T16:10:34Z</time></trkpt><trkpt lat="42.28611022855518" lon="13.703879264667474"><ele>776.0</ele><time>2026-04-27T16:10:36Z</time></trkpt><trkpt lat="42.28599555860325" lon="13.70383361176301"><ele>776.0</ele><time>2026-04-27T16:10:37Z</time></trkpt><trkpt lat="42.28586464614608" lon="13.703795662042554"><ele>776.0</ele><time>2026-04-27T16:10:38Z</time></trkpt><trkpt lat="42.28576157685464" lon="13.703791467912888"><ele>776.0</ele><time>2026-04-27T16:10:39Z</time></trkpt><trkpt lat="42.28564909808391" lon="13.703799271813276"><ele>780.0</ele><time>2026-04-27T16:10:40Z</time></trkpt><trkpt lat="42.28555652632186" lon="13.703831179062547"><ele>784.0</ele><time>2026-04-27T16:10:41Z</time></trkpt><trkpt lat="42.28550521255357" lon="13.703901338566748"><ele>788.0</ele><time>2026-04-27T16:10:42Z</time></trkpt><trkpt lat="42.2854531462919" lon="13.704019354851352"><ele>792.0</ele><time>2026-04-27T16:10:43Z</time></trkpt><trkpt lat="42.28537011101771" lon="13.704172220930555"><ele>796.0</ele><time>2026-04-27T16:10:44Z</time></trkpt><trkpt lat="42.285286502346146" lon="13.704312656953974"><ele>794.0</ele><time>2026-04-27T16:10:45Z</time></trkpt><trkpt lat="42.285209054740335" lon="13.704475184126618"><ele>792.0</ele><time>2026-04-27T16:10:46Z</time></trkpt><trkpt lat="42.285145774401784" lon="13.704660551247951"><ele>790.0</ele><time>2026-04-27T16:10:47Z</time></trkpt><trkpt lat="42.28509994878843" lon="13.70486635844759"><ele>790.0</ele><time>2026-04-27T16:10:48Z</time></trkpt><trkpt lat="42.28505449453233" lon="13.705070329892253"><ele>790.0</ele><time>2026-04-27T16:10:49Z</time></trkpt><trkpt lat="42.28501360655057" lon="13.705262279903232"><ele>790.0</ele><time>2026-04-27T16:10:50Z</time></trkpt><trkpt lat="42.28495737082426" lon="13.705442357819775"><ele>788.3333333333333</ele><time>2026-04-27T16:10:51Z</time></trkpt><trkpt lat="42.2848887402163" lon="13.7056283941841"><ele>786.6666666666667</ele><time>2026-04-27T16:10:52Z</time></trkpt><trkpt lat="42.284838144022025" lon="13.705809753042649"><ele>785.0</ele><time>2026-04-27T16:10:53Z</time></trkpt><trkpt lat="42.2847757639972" lon="13.705998534541957"><ele>791.0</ele><time>2026-04-27T16:10:54Z</time></trkpt><trkpt lat="42.28473576759088" lon="13.706143519681692"><ele>797.0</ele><time>2026-04-27T16:10:55Z</time></trkpt><trkpt lat="42.28470514676554" lon="13.706287594118137"><ele>803.0</ele><time>2026-04-27T16:10:56Z</time></trkpt><trkpt lat="42.284649392724475" lon="13.706438661588702"><ele>809.0</ele><time>2026-04-27T16:10:57Z</time></trkpt><trkpt lat="42.28457809397763" lon="13.706599597308164"><ele>809.0</ele><time>2026-04-27T16:10:58Z</time></trkpt><trkpt lat="42.28450126483892" lon="13.706747597856644"><ele>809.0</ele><time>2026-04-27T16:10:59Z</time></trkpt><trkpt lat="42.28440678486955" lon="13.706884955447313"><ele>809.0</ele><time>2026-04-27T16:11:00Z</time></trkpt><trkpt lat="42.2843039329845" lon="13.707003191929488"><ele>809.0</ele><time>2026-04-27T16:11:01Z</time></trkpt><trkpt lat="42.28419504741641" lon="13.707121725082159"><ele>808.0</ele><time>2026-04-27T16:11:02Z</time></trkpt><trkpt lat="42.28409374583379" lon="13.707259000486799"><ele>807.0</ele><time>2026-04-27T16:11:03Z</time></trkpt><trkpt lat="42.28399478931635" lon="13.707392361465509"><ele>806.0</ele><time>2026-04-27T16:11:04Z</time></trkpt><trkpt lat="42.28389256840171" lon="13.707535215641695"><ele>805.0</ele><time>2026-04-27T16:11:05Z</time></trkpt><trkpt lat="42.28379108218886" lon="13.707692634904948"><ele>808.25</ele><time>2026-04-27T16:11:06Z</time></trkpt><trkpt lat="42.28370535169062" lon="13.707845363357922"><ele>811.5</ele><time>2026-04-27T16:11:06.999Z</time></trkpt><trkpt lat="42.283629256666856" lon="13.708003739737132"><ele>814.75</ele><time>2026-04-27T16:11:07.999Z</time></trkpt><trkpt lat="42.2835651532882" lon="13.708147236289955"><ele>818.0</ele><time>2026-04-27T16:11:08.999Z</time></trkpt><trkpt lat="42.283492889721025" lon="13.708285201258606"><ele>818.0</ele><time>2026-04-27T16:11:09.999Z</time></trkpt><trkpt lat="42.28339364790565" lon="13.708406389347836"><ele>818.0</ele><time>2026-04-27T16:11:10.999Z</time></trkpt><trkpt lat="42.28329620075053" lon="13.70852039122253"><ele>818.0</ele><time>2026-04-27T16:11:11.999Z</time></trkpt><trkpt lat="42.28319162707066" lon="13.70862928148823"><ele>818.0</ele><time>2026-04-27T16:11:12.999Z</time></trkpt><trkpt lat="42.28307974566728" lon="13.708745186533102"><ele>818.5999999999999</ele><time>2026-04-27T16:11:13.999Z</time></trkpt><trkpt lat="42.28298352114792" lon="13.708858764551245"><ele>819.1999999999999</ele><time>2026-04-27T16:11:14.999Z</time></trkpt><trkpt lat="42.28290754564038" lon="13.708927933713351"><ele>819.8</ele><time>2026-04-27T16:11:15.999Z</time></trkpt><trkpt lat="42.28281815799238" lon="13.708926043831683"><ele>820.4</ele><time>2026-04-27T16:11:16.999Z</time></trkpt><trkpt lat="42.28268959421422" lon="13.708970455910123"><ele>821.0</ele><time>2026-04-27T16:11:17.999Z</time></trkpt><trkpt lat="42.28256157914516" lon="13.709068436941815"><ele>821.0</ele><time>2026-04-27T16:11:18.999Z</time></trkpt><trkpt lat="42.28243798887039" lon="13.709164304981883"><ele>821.0</ele><time>2026-04-27T16:11:19.999Z</time></trkpt><trkpt lat="42.28229619977713" lon="13.709273139455357"><ele>821.0</ele><time>2026-04-27T16:11:20.999Z</time></trkpt><trkpt lat="42.28214239911369" lon="13.709344350377712"><ele>821.25</ele><time>2026-04-27T16:11:21.999Z</time></trkpt><trkpt lat="42.2820180401703" lon="13.709451300401046"><ele>821.5</ele><time>2026-04-27T16:11:22.999Z</time></trkpt><trkpt lat="42.2818735604687" lon="13.709585202723737"><ele>821.75</ele><time>2026-04-27T16:11:23.999Z</time></trkpt><trkpt lat="42.28176594941343" lon="13.70966836064361"><ele>822.0</ele><time>2026-04-27T16:11:24.999Z</time></trkpt><trkpt lat="42.281643263979376" lon="13.709722815807508"><ele>822.0</ele><time>2026-04-27T16:11:25.999Z</time></trkpt><trkpt lat="42.281520735497864" lon="13.709792244028026"><ele>822.0</ele><time>2026-04-27T16:11:26.999Z</time></trkpt><trkpt lat="42.28140733096036" lon="13.709888720607067"><ele>822.0</ele><time>2026-04-27T16:11:27.999Z</time></trkpt><trkpt lat="42.28129733349334" lon="13.709977458321363"><ele>822.0</ele><time>2026-04-27T16:11:28.999Z</time></trkpt><trkpt lat="42.28118285853802" lon="13.710024652153752"><ele>827.25</ele><time>2026-04-27T16:11:29.999Z</time></trkpt><trkpt lat="42.28104856009942" lon="13.710050155044895"><ele>832.5</ele><time>2026-04-27T16:11:30.999Z</time></trkpt><trkpt lat="42.28092507907351" lon="13.710087751223034"><ele>837.75</ele><time>2026-04-27T16:11:31.999Z</time></trkpt><trkpt lat="42.28081513167397" lon="13.710139987684933"><ele>843.0</ele><time>2026-04-27T16:11:32.999Z</time></trkpt><trkpt lat="42.280725205205165" lon="13.71018351160577"><ele>843.0</ele><time>2026-04-27T16:11:33.999Z</time></trkpt><trkpt lat="42.28062881402892" lon="13.710198563713893"><ele>843.0</ele><time>2026-04-27T16:11:34.999Z</time></trkpt><trkpt lat="42.28052014546932" lon="13.710201728162813"><ele>843.0</ele><time>2026-04-27T16:11:35.999Z</time></trkpt><trkpt lat="42.28041376319628" lon="13.710206911276233"><ele>843.0</ele><time>2026-04-27T16:11:36.999Z</time></trkpt><trkpt lat="42.28029523943107" lon="13.710200727009555"><ele>843.0</ele><time>2026-04-27T16:11:37.999Z</time></trkpt><trkpt lat="42.28017427879998" lon="13.710198821638862"><ele>843.8</ele><time>2026-04-27T16:11:38.999Z</time></trkpt><trkpt lat="42.28006958298013" lon="13.710217853967205"><ele>844.5999999999999</ele><time>2026-04-27T16:11:39.999Z</time></trkpt><trkpt lat="42.27997284389927" lon="13.710248622564304"><ele>845.4000000000001</ele><time>2026-04-27T16:11:40.999Z</time></trkpt><trkpt lat="42.279863637152076" lon="13.710265226474743"><ele>846.2</ele><time>2026-04-27T16:11:41.999Z</time></trkpt><trkpt lat="42.27974731921909" lon="13.710271328303001"><ele>847.0</ele><time>2026-04-27T16:11:42.999Z</time></trkpt><trkpt lat="42.2796381392976" lon="13.710272271720793"><ele>847.0</ele><time>2026-04-27T16:11:43.999Z</time></trkpt><trkpt lat="42.27954947154575" lon="13.7102632788404"><ele>847.0</ele><time>2026-04-27T16:11:44.999Z</time></trkpt><trkpt lat="42.27946879279149" lon="13.710239495498017"><ele>847.0</ele><time>2026-04-27T16:11:45.999Z</time></trkpt><trkpt lat="42.27940260712083" lon="13.710236938356482"><ele>847.0</ele><time>2026-04-27T16:11:46.999Z</time></trkpt><trkpt lat="42.27928408040807" lon="13.710242718846706"><ele>847.0</ele><time>2026-04-27T16:11:48.999Z</time></trkpt><trkpt lat="42.27916513149066" lon="13.710179081210441"><ele>849.8</ele><time>2026-04-27T16:11:50.999Z</time></trkpt><trkpt lat="42.27903854516192" lon="13.710119841388092"><ele>852.6</ele><time>2026-04-27T16:11:52.999Z</time></trkpt><trkpt lat="42.27895339949169" lon="13.71012744348856"><ele>855.3999999999999</ele><time>2026-04-27T16:11:53.999Z</time></trkpt><trkpt lat="42.278869374750684" lon="13.710147905669933"><ele>858.1999999999999</ele><time>2026-04-27T16:11:54.999Z</time></trkpt><trkpt lat="42.27877774406996" lon="13.710159513899251"><ele>861.0</ele><time>2026-04-27T16:11:55.999Z</time></trkpt><trkpt lat="42.27867261321456" lon="13.710170943855568"><ele>861.75</ele><time>2026-04-27T16:11:56.999Z</time></trkpt><trkpt lat="42.278557170996564" lon="13.710193242975784"><ele>862.5</ele><time>2026-04-27T16:11:57.999Z</time></trkpt><trkpt lat="42.27843082722466" lon="13.710203345361704"><ele>863.25</ele><time>2026-04-27T16:11:58.999Z</time></trkpt><trkpt lat="42.27829627081086" lon="13.710220070577781"><ele>864.0</ele><time>2026-04-27T16:11:59.999Z</time></trkpt><trkpt lat="42.27815675214913" lon="13.710273044050213"><ele>868.0</ele><time>2026-04-27T16:12:00.999Z</time></trkpt><trkpt lat="42.278015077781674" lon="13.710326684857256"><ele>872.0</ele><time>2026-04-27T16:12:01.999Z</time></trkpt><trkpt lat="42.277899747588734" lon="13.710351334673408"><ele>876.0</ele><time>2026-04-27T16:12:02.999Z</time></trkpt><trkpt lat="42.277800765861485" lon="13.710362172839737"><ele>880.0</ele><time>2026-04-27T16:12:03.999Z</time></trkpt><trkpt lat="42.27768715293977" lon="13.71038431176359"><ele>880.0</ele><time>2026-04-27T16:12:04.999Z</time></trkpt><trkpt lat="42.277574749562156" lon="13.710389901858843"><ele>880.0</ele><time>2026-04-27T16:12:05.999Z</time></trkpt><trkpt lat="42.277455773005926" lon="13.710410512831375"><ele>880.0</ele><time>2026-04-27T16:12:06.999Z</time></trkpt><trkpt lat="42.27735917602858" lon="13.710465859993501"><ele>880.0</ele><time>2026-04-27T16:12:07.998Z</time></trkpt><trkpt lat="42.277294410002334" lon="13.710512774424986"><ele>880.0</ele><time>2026-04-27T16:12:08.998Z</time></trkpt><trkpt lat="42.277239292928485" lon="13.710558039825552"><ele>879.0</ele><time>2026-04-27T16:12:09.998Z</time></trkpt><trkpt lat="42.277187225636396" lon="13.71062633332097"><ele>878.0</ele><time>2026-04-27T16:12:10.998Z</time></trkpt><trkpt lat="42.27710905387366" lon="13.710689280609449"><ele>877.0</ele><time>2026-04-27T16:12:11.998Z</time></trkpt><trkpt lat="42.276978782492996" lon="13.710707219265784"><ele>876.0</ele><time>2026-04-27T16:12:12.998Z</time></trkpt><trkpt lat="42.27684355532667" lon="13.710738587704535"><ele>875.0</ele><time>2026-04-27T16:12:13.998Z</time></trkpt><trkpt lat="42.27675245833124" lon="13.710785315617562"><ele>875.0000000000001</ele><time>2026-04-27T16:12:14.998Z</time></trkpt><trkpt lat="42.276677380894775" lon="13.71078907331141"><ele>875.0</ele><time>2026-04-27T16:12:15.998Z</time></trkpt><trkpt lat="42.276601664039255" lon="13.710790121333545"><ele>875.0</ele><time>2026-04-27T16:12:16.998Z</time></trkpt><trkpt lat="42.27651572382088" lon="13.710757340526554"><ele>875.0</ele><time>2026-04-27T16:12:17.998Z</time></trkpt><trkpt lat="42.27643503147821" lon="13.710754080904344"><ele>875.0000000000001</ele><time>2026-04-27T16:12:18.998Z</time></trkpt><trkpt lat="42.27635387392685" lon="13.710737535581284"><ele>875.0</ele><time>2026-04-27T16:12:19.998Z</time></trkpt><trkpt lat="42.27626641567122" lon="13.710724101215826"><ele>876.0</ele><time>2026-04-27T16:12:20.998Z</time></trkpt><trkpt lat="42.27618642304229" lon="13.710757066125216"><ele>877.0</ele><time>2026-04-27T16:12:21.998Z</time></trkpt><trkpt lat="42.27611754461221" lon="13.710838987185989"><ele>878.0</ele><time>2026-04-27T16:12:22.998Z</time></trkpt><trkpt lat="42.276025689891846" lon="13.71094929675933"><ele>879.0</ele><time>2026-04-27T16:12:23.998Z</time></trkpt><trkpt lat="42.275913356265924" lon="13.711041173457073"><ele>880.0</ele><time>2026-04-27T16:12:24.998Z</time></trkpt><trkpt lat="42.27577890803532" lon="13.711079767782302"><ele>880.0</ele><time>2026-04-27T16:12:25.998Z</time></trkpt><trkpt lat="42.275647606767976" lon="13.71110192181161"><ele>880.0</ele><time>2026-04-27T16:12:26.998Z</time></trkpt><trkpt lat="42.27552573065967" lon="13.711168480353644"><ele>880.0</ele><time>2026-04-27T16:12:27.998Z</time></trkpt><trkpt lat="42.27539758077436" lon="13.711250091238323"><ele>880.0</ele><time>2026-04-27T16:12:28.998Z</time></trkpt><trkpt lat="42.275264174103846" lon="13.711342839133074"><ele>878.25</ele><time>2026-04-27T16:12:29.998Z</time></trkpt><trkpt lat="42.275142885077976" lon="13.711427233450186"><ele>876.5</ele><time>2026-04-27T16:12:30.998Z</time></trkpt><trkpt lat="42.275035395182435" lon="13.711554236998598"><ele>874.75</ele><time>2026-04-27T16:12:31.998Z</time></trkpt><trkpt lat="42.27492994870422" lon="13.711692302990967"><ele>873.0</ele><time>2026-04-27T16:12:32.998Z</time></trkpt><trkpt lat="42.27481814122501" lon="13.711821865683378"><ele>873.25</ele><time>2026-04-27T16:12:33.998Z</time></trkpt><trkpt lat="42.2747192956635" lon="13.711930502305346"><ele>873.5</ele><time>2026-04-27T16:12:34.998Z</time></trkpt><trkpt lat="42.274620224744616" lon="13.712017407989554"><ele>873.75</ele><time>2026-04-27T16:12:35.998Z</time></trkpt><trkpt lat="42.27449924216052" lon="13.712114051736238"><ele>874.0</ele><time>2026-04-27T16:12:36.998Z</time></trkpt><trkpt lat="42.27438807646052" lon="13.712200398511076"><ele>874.0</ele><time>2026-04-27T16:12:37.998Z</time></trkpt><trkpt lat="42.27430142967665" lon="13.712256949467797"><ele>874.0000000000001</ele><time>2026-04-27T16:12:39Z</time></trkpt><trkpt lat="42.27421464446404" lon="13.71223323168282"><ele>874.0000000000001</ele><time>2026-04-27T16:12:41Z</time></trkpt><trkpt lat="42.274106170361215" lon="13.71224562340187"><ele>874.0</ele><time>2026-04-27T16:12:43Z</time></trkpt><trkpt lat="42.27404863395268" lon="13.712327869022205"><ele>874.0</ele><time>2026-04-27T16:12:44Z</time></trkpt><trkpt lat="42.273995690758646" lon="13.712447350487386"><ele>874.0</ele><time>2026-04-27T16:12:45Z</time></trkpt><trkpt lat="42.27395075701079" lon="13.71256097205484"><ele>874.0000000000001</ele><time>2026-04-27T16:12:46Z</time></trkpt><trkpt lat="42.27387703023697" lon="13.712540041480764"><ele>874.0000000000001</ele><time>2026-04-27T16:12:48Z</time></trkpt><trkpt lat="42.27385327411047" lon="13.7124399591235"><ele>874.0</ele><time>2026-04-27T16:12:49Z</time></trkpt><trkpt lat="42.273852702311366" lon="13.712279893529299"><ele>874.0</ele><time>2026-04-27T16:12:50Z</time></trkpt><trkpt lat="42.27383488882371" lon="13.712069891815716"><ele>875.5</ele><time>2026-04-27T16:12:51Z</time></trkpt><trkpt lat="42.27379557209044" lon="13.711858749345762"><ele>877.0</ele><time>2026-04-27T16:12:52Z</time></trkpt><trkpt lat="42.273730975987384" lon="13.71171305404255"><ele>878.5</ele><time>2026-04-27T16:12:53Z</time></trkpt><trkpt lat="42.273678839778036" lon="13.711561203697059"><ele>880.0</ele><time>2026-04-27T16:12:54Z</time></trkpt><trkpt lat="42.27361731113359" lon="13.711376156024535"><ele>880.0</ele><time>2026-04-27T16:12:55Z</time></trkpt><trkpt lat="42.273563448541566" lon="13.71122438201368"><ele>880.0</ele><time>2026-04-27T16:12:56Z</time></trkpt><trkpt lat="42.273513638893014" lon="13.711104318651707"><ele>880.0</ele><time>2026-04-27T16:12:57Z</time></trkpt><trkpt lat="42.27345094396147" lon="13.710990013012955"><ele>880.0</ele><time>2026-04-27T16:12:58Z</time></trkpt><trkpt lat="42.2733738579449" lon="13.710854596562514"><ele>880.6</ele><time>2026-04-27T16:12:59Z</time></trkpt><trkpt lat="42.27330764287194" lon="13.7107059631766"><ele>881.2</ele><time>2026-04-27T16:13:00Z</time></trkpt><trkpt lat="42.273247265869536" lon="13.710552106166748"><ele>881.8</ele><time>2026-04-27T16:13:01Z</time></trkpt><trkpt lat="42.27318240961608" lon="13.710442042791291"><ele>882.4</ele><time>2026-04-27T16:13:02Z</time></trkpt><trkpt lat="42.273113642233774" lon="13.71038003909573"><ele>883.0</ele><time>2026-04-27T16:13:03Z</time></trkpt><trkpt lat="42.27304763873283" lon="13.710336237462856"><ele>883.0</ele><time>2026-04-27T16:13:04Z</time></trkpt><trkpt lat="42.27297002273888" lon="13.710318685554304"><ele>883.0</ele><time>2026-04-27T16:13:05Z</time></trkpt><trkpt lat="42.272876329680244" lon="13.710329436302938"><ele>883.0</ele><time>2026-04-27T16:13:06Z</time></trkpt><trkpt lat="42.272740988175734" lon="13.7103818338344"><ele>883.0</ele><time>2026-04-27T16:13:07Z</time></trkpt><trkpt lat="42.27260926044984" lon="13.71040932885645"><ele>883.0</ele><time>2026-04-27T16:13:08Z</time></trkpt><trkpt lat="42.27249406439248" lon="13.710419463661752"><ele>883.0</ele><time>2026-04-27T16:13:09Z</time></trkpt><trkpt lat="42.27242958935973" lon="13.710400227610265"><ele>883.0</ele><time>2026-04-27T16:13:10Z</time></trkpt><trkpt lat="42.27235726975512" lon="13.710265006474936"><ele>883.0</ele><time>2026-04-27T16:13:11.999Z</time></trkpt><trkpt lat="42.27231572807911" lon="13.71012268708429"><ele>883.0</ele><time>2026-04-27T16:13:12.999Z</time></trkpt><trkpt lat="42.27226018804702" lon="13.710047405750833"><ele>883.0</ele><time>2026-04-27T16:13:13.999Z</time></trkpt><trkpt lat="42.272173899533186" lon="13.710018533854685"><ele>882.2</ele><time>2026-04-27T16:13:14.999Z</time></trkpt><trkpt lat="42.27208662422161" lon="13.709998444689345"><ele>881.4</ele><time>2026-04-27T16:13:15.999Z</time></trkpt><trkpt lat="42.27198328622924" lon="13.709900342094286"><ele>880.6000000000001</ele><time>2026-04-27T16:13:17.999Z</time></trkpt><trkpt lat="42.27194614896091" lon="13.70981223868866"><ele>879.8000000000001</ele><time>2026-04-27T16:13:18.999Z</time></trkpt><trkpt lat="42.27189400576235" lon="13.709698562192136"><ele>879.0</ele><time>2026-04-27T16:13:19.999Z</time></trkpt><trkpt lat="42.27182802202037" lon="13.709592317947621"><ele>879.0</ele><time>2026-04-27T16:13:20.999Z</time></trkpt><trkpt lat="42.27177589791614" lon="13.709461275916755"><ele>879.0</ele><time>2026-04-27T16:13:21.999Z</time></trkpt><trkpt lat="42.27174333505696" lon="13.709265984052472"><ele>879.0</ele><time>2026-04-27T16:13:22.999Z</time></trkpt><trkpt lat="42.271722308847735" lon="13.709082499868902"><ele>879.0</ele><time>2026-04-27T16:13:23.999Z</time></trkpt><trkpt lat="42.271696337143794" lon="13.708903605940456"><ele>878.75</ele><time>2026-04-27T16:13:24.999Z</time></trkpt><trkpt lat="42.2716618191723" lon="13.708739562284297"><ele>878.5</ele><time>2026-04-27T16:13:25.999Z</time></trkpt><trkpt lat="42.2716376595948" lon="13.708588278992611"><ele>878.25</ele><time>2026-04-27T16:13:26.999Z</time></trkpt><trkpt lat="42.27161645787031" lon="13.708412622997036"><ele>878.0</ele><time>2026-04-27T16:13:27.999Z</time></trkpt><trkpt lat="42.27162697260735" lon="13.708218553920625"><ele>877.25</ele><time>2026-04-27T16:13:28.999Z</time></trkpt><trkpt lat="42.27161976080187" lon="13.70799296793311"><ele>876.5</ele><time>2026-04-27T16:13:29.999Z</time></trkpt><trkpt lat="42.27160639811621" lon="13.707817930159422"><ele>875.75</ele><time>2026-04-27T16:13:30.999Z</time></trkpt><trkpt lat="42.27159090086955" lon="13.707652895302648"><ele>875.0</ele><time>2026-04-27T16:13:31.999Z</time></trkpt><trkpt lat="42.27158901888958" lon="13.70749927338344"><ele>873.75</ele><time>2026-04-27T16:13:32.999Z</time></trkpt><trkpt lat="42.2716236118611" lon="13.70733246271476"><ele>872.5</ele><time>2026-04-27T16:13:33.999Z</time></trkpt><trkpt lat="42.2716627334773" lon="13.707150010666876"><ele>871.25</ele><time>2026-04-27T16:13:34.999Z</time></trkpt><trkpt lat="42.27168644935545" lon="13.706987211878015"><ele>870.0</ele><time>2026-04-27T16:13:35.999Z</time></trkpt><trkpt lat="42.2717026657313" lon="13.706814061687252"><ele>867.75</ele><time>2026-04-27T16:13:36.999Z</time></trkpt><trkpt lat="42.27172314777307" lon="13.706640486336694"><ele>865.5</ele><time>2026-04-27T16:13:37.999Z</time></trkpt><trkpt lat="42.27174212816213" lon="13.706471845567298"><ele>863.25</ele><time>2026-04-27T16:13:38.999Z</time></trkpt><trkpt lat="42.271757930241755" lon="13.706312273492923"><ele>861.0</ele><time>2026-04-27T16:13:39.999Z</time></trkpt><trkpt lat="42.271762143993904" lon="13.706157260839051"><ele>859.25</ele><time>2026-04-27T16:13:40.999Z</time></trkpt><trkpt lat="42.2717563031092" lon="13.70599440688593"><ele>857.5</ele><time>2026-04-27T16:13:41.999Z</time></trkpt><trkpt lat="42.27175295548853" lon="13.7058374347183"><ele>855.75</ele><time>2026-04-27T16:13:42.999Z</time></trkpt><trkpt lat="42.2717439574977" lon="13.705679228261124"><ele>854.0</ele><time>2026-04-27T16:13:43.999Z</time></trkpt><trkpt lat="42.27170962572638" lon="13.705513370230697"><ele>854.0</ele><time>2026-04-27T16:13:44.999Z</time></trkpt><trkpt lat="42.27166929464208" lon="13.705380816229775"><ele>854.0000000000001</ele><time>2026-04-27T16:13:45.999Z</time></trkpt><trkpt lat="42.271627879265516" lon="13.705266570804673"><ele>854.0000000000001</ele><time>2026-04-27T16:13:46.999Z</time></trkpt><trkpt lat="42.27157843264936" lon="13.705195664498802"><ele>854.0</ele><time>2026-04-27T16:13:47.999Z</time></trkpt><trkpt lat="42.27150976675072" lon="13.70513873383436"><ele>854.0</ele><time>2026-04-27T16:13:48.999Z</time></trkpt><trkpt lat="42.271406022577274" lon="13.705076677862891"><ele>852.0</ele><time>2026-04-27T16:13:49.999Z</time></trkpt><trkpt lat="42.27131141514625" lon="13.705012753048354"><ele>850.0000000000001</ele><time>2026-04-27T16:13:50.999Z</time></trkpt><trkpt lat="42.271243731473156" lon="13.70492723366714"><ele>848.0</ele><time>2026-04-27T16:13:51.999Z</time></trkpt><trkpt lat="42.27116338850501" lon="13.704841578717598"><ele>846.0</ele><time>2026-04-27T16:13:52.999Z</time></trkpt><trkpt lat="42.27108227593765" lon="13.704741544075382"><ele>844.0</ele><time>2026-04-27T16:13:53.999Z</time></trkpt><trkpt lat="42.271018733365125" lon="13.704594621218122"><ele>844.0</ele><time>2026-04-27T16:13:54.999Z</time></trkpt><trkpt lat="42.27095197710865" lon="13.7044608273106"><ele>844.0</ele><time>2026-04-27T16:13:55.999Z</time></trkpt><trkpt lat="42.270885847656274" lon="13.704320070432708"><ele>844.0</ele><time>2026-04-27T16:13:56.999Z</time></trkpt><trkpt lat="42.27084606057493" lon="13.704189150690967"><ele>844.0</ele><time>2026-04-27T16:13:57.999Z</time></trkpt><trkpt lat="42.27079030615444" lon="13.704093677146773"><ele>844.0</ele><time>2026-04-27T16:13:58.999Z</time></trkpt><trkpt lat="42.27070461363022" lon="13.704045866110313"><ele>842.6</ele><time>2026-04-27T16:13:59.999Z</time></trkpt><trkpt lat="42.27060854396835" lon="13.704019456099362"><ele>841.2</ele><time>2026-04-27T16:14:00.999Z</time></trkpt><trkpt lat="42.270541756060425" lon="13.704005411581655"><ele>839.8000000000001</ele><time>2026-04-27T16:14:01.999Z</time></trkpt><trkpt lat="42.27042238709405" lon="13.703964109156038"><ele>838.4000000000001</ele><time>2026-04-27T16:14:03.999Z</time></trkpt><trkpt lat="42.27032299014631" lon="13.703968965936761"><ele>837.0</ele><time>2026-04-27T16:14:04.999Z</time></trkpt><trkpt lat="42.27021133128053" lon="13.703973227485053"><ele>836.6666666666666</ele><time>2026-04-27T16:14:05.999Z</time></trkpt><trkpt lat="42.27010638163396" lon="13.703969058182967"><ele>836.3333333333333</ele><time>2026-04-27T16:14:06.999Z</time></trkpt><trkpt lat="42.270036782950804" lon="13.703940984255272"><ele>836.0</ele><time>2026-04-27T16:14:07.999Z</time></trkpt><trkpt lat="42.26998777804173" lon="13.70387149207777"><ele>835.6666666666666</ele><time>2026-04-27T16:14:08.999Z</time></trkpt><trkpt lat="42.26993698599382" lon="13.70376123536249"><ele>835.3333333333333</ele><time>2026-04-27T16:14:09.999Z</time></trkpt><trkpt lat="42.26986042482567" lon="13.703677221977582"><ele>835.0</ele><time>2026-04-27T16:14:10.999Z</time></trkpt><trkpt lat="42.26975469896472" lon="13.703628342171145"><ele>834.25</ele><time>2026-04-27T16:14:11.998Z</time></trkpt><trkpt lat="42.26962855859584" lon="13.703582098902752"><ele>833.5</ele><time>2026-04-27T16:14:12.998Z</time></trkpt><trkpt lat="42.269481728665255" lon="13.703512975039283"><ele>832.75</ele><time>2026-04-27T16:14:13.998Z</time></trkpt><trkpt lat="42.26936088236573" lon="13.703471657331415"><ele>832.0</ele><time>2026-04-27T16:14:14.998Z</time></trkpt><trkpt lat="42.26926202961931" lon="13.70344499849846"><ele>830.6</ele><time>2026-04-27T16:14:15.998Z</time></trkpt><trkpt lat="42.2691668467914" lon="13.703400546313844"><ele>829.2</ele><time>2026-04-27T16:14:16.998Z</time></trkpt><trkpt lat="42.26906010328364" lon="13.70330456730626"><ele>827.8</ele><time>2026-04-27T16:14:17.998Z</time></trkpt><trkpt lat="42.268958454374804" lon="13.70322077866296"><ele>826.4</ele><time>2026-04-27T16:14:18.998Z</time></trkpt><trkpt lat="42.26886923578425" lon="13.703177536240055"><ele>825.0</ele><time>2026-04-27T16:14:19.998Z</time></trkpt><trkpt lat="42.26878474804266" lon="13.703143796609695"><ele>823.6666666666666</ele><time>2026-04-27T16:14:20.998Z</time></trkpt><trkpt lat="42.26869839483451" lon="13.703110667928508"><ele>822.3333333333333</ele><time>2026-04-27T16:14:21.998Z</time></trkpt><trkpt lat="42.26859914183558" lon="13.703108918224311"><ele>821.0</ele><time>2026-04-27T16:14:22.998Z</time></trkpt><trkpt lat="42.268518573791084" lon="13.703119581924705"><ele>819.6666666666666</ele><time>2026-04-27T16:14:23.998Z</time></trkpt><trkpt lat="42.26845110559118" lon="13.703115443072944"><ele>818.3333333333333</ele><time>2026-04-27T16:14:24.998Z</time></trkpt><trkpt lat="42.268424375978974" lon="13.703247417253145"><ele>817.0</ele><time>2026-04-27T16:14:28.998Z</time></trkpt><trkpt lat="42.26843247648074" lon="13.70336508322397"><ele>817.0</ele><time>2026-04-27T16:14:30.998Z</time></trkpt><trkpt lat="42.26840237925855" lon="13.70348010080272"><ele>817.0</ele><time>2026-04-27T16:14:33.998Z</time></trkpt><trkpt lat="42.26834574173028" lon="13.70363616569227"><ele>817.0</ele><time>2026-04-27T16:14:36.998Z</time></trkpt><trkpt lat="42.26830138868887" lon="13.703741012589953"><ele>817.0</ele><time>2026-04-27T16:14:37.998Z</time></trkpt><trkpt lat="42.268255483663786" lon="13.703834842773528"><ele>817.0</ele><time>2026-04-27T16:14:38.998Z</time></trkpt><trkpt lat="42.268220261240266" lon="13.703940917968596"><ele>817.0</ele><time>2026-04-27T16:14:39.998Z</time></trkpt><trkpt lat="42.26818204521166" lon="13.704037145627805"><ele>817.0</ele><time>2026-04-27T16:14:40.998Z</time></trkpt><trkpt lat="42.26814020182569" lon="13.704168179596774"><ele>817.0</ele><time>2026-04-27T16:14:41.998Z</time></trkpt><trkpt lat="42.26810223081214" lon="13.704331460885562"><ele>817.0</ele><time>2026-04-27T16:14:42.998Z</time></trkpt><trkpt lat="42.268048178181935" lon="13.704516755174286"><ele>818.8</ele><time>2026-04-27T16:14:43.998Z</time></trkpt><trkpt lat="42.26800319750962" lon="13.704689355073793"><ele>820.6</ele><time>2026-04-27T16:14:45Z</time></trkpt><trkpt lat="42.267980278001545" lon="13.704826185289045"><ele>822.4</ele><time>2026-04-27T16:14:46Z</time></trkpt><trkpt lat="42.26796820880633" lon="13.704917893126257"><ele>824.1999999999999</ele><time>2026-04-27T16:14:47Z</time></trkpt><trkpt lat="42.267924328034326" lon="13.704778106501594"><ele>826.0</ele><time>2026-04-27T16:14:52Z</time></trkpt><trkpt lat="42.267900366409606" lon="13.704625257533166"><ele>825.9999999999999</ele><time>2026-04-27T16:14:53Z</time></trkpt><trkpt lat="42.267886164000316" lon="13.704483955007056"><ele>826.0</ele><time>2026-04-27T16:14:54Z</time></trkpt><trkpt lat="42.26786692601738" lon="13.704360021129112"><ele>826.0</ele><time>2026-04-27T16:14:55Z</time></trkpt><trkpt lat="42.267841994105396" lon="13.704254561377766"><ele>826.0</ele><time>2026-04-27T16:14:56Z</time></trkpt><trkpt lat="42.2678001255847" lon="13.704181735196572"><ele>825.9999999999999</ele><time>2026-04-27T16:14:57Z</time></trkpt><trkpt lat="42.2677437125439" lon="13.704141248821433"><ele>826.0</ele><time>2026-04-27T16:14:58Z</time></trkpt><trkpt lat="42.267641175239" lon="13.704121277972309"><ele>824.75</ele><time>2026-04-27T16:14:59Z</time></trkpt><trkpt lat="42.26752336197772" lon="13.704091025293955"><ele>823.5</ele><time>2026-04-27T16:15:00Z</time></trkpt><trkpt lat="42.2674173348446" lon="13.70395680805341"><ele>822.25</ele><time>2026-04-27T16:15:01Z</time></trkpt><trkpt lat="42.2673051567974" lon="13.70380702353136"><ele>821.0</ele><time>2026-04-27T16:15:02Z</time></trkpt><trkpt lat="42.26720860913218" lon="13.703700242430187"><ele>821.0</ele><time>2026-04-27T16:15:03Z</time></trkpt><trkpt lat="42.26712595531756" lon="13.703609756889843"><ele>821.0</ele><time>2026-04-27T16:15:04Z</time></trkpt><trkpt lat="42.26703801676062" lon="13.703495753833657"><ele>821.0</ele><time>2026-04-27T16:15:05Z</time></trkpt><trkpt lat="42.26695004519805" lon="13.703377161679041"><ele>821.0</ele><time>2026-04-27T16:15:06Z</time></trkpt><trkpt lat="42.26686497758284" lon="13.703260175791943"><ele>819.5000000000001</ele><time>2026-04-27T16:15:07Z</time></trkpt><trkpt lat="42.266800344417376" lon="13.703157232441827"><ele>818.0</ele><time>2026-04-27T16:15:08Z</time></trkpt><trkpt lat="42.266755428112845" lon="13.703060031434227"><ele>816.5</ele><time>2026-04-27T16:15:09Z</time></trkpt><trkpt lat="42.266721098018266" lon="13.702971844497425"><ele>815.0</ele><time>2026-04-27T16:15:10Z</time></trkpt><trkpt lat="42.26668441083442" lon="13.702897170012983"><ele>813.5000000000001</ele><time>2026-04-27T16:15:11Z</time></trkpt><trkpt lat="42.26656415203902" lon="13.702906354656047"><ele>812.0</ele><time>2026-04-27T16:15:13Z</time></trkpt><trkpt lat="42.26645256986954" lon="13.702969555699134"><ele>810.0</ele><time>2026-04-27T16:15:14Z</time></trkpt><trkpt lat="42.26632100855488" lon="13.703078524871245"><ele>808.0</ele><time>2026-04-27T16:15:15Z</time></trkpt><trkpt lat="42.2661794254523" lon="13.703204432536355"><ele>806.0</ele><time>2026-04-27T16:15:15.999Z</time></trkpt><trkpt lat="42.266050444525334" lon="13.703307046118239"><ele>806.0</ele><time>2026-04-27T16:15:16.999Z</time></trkpt><trkpt lat="42.265952262502026" lon="13.703371606970874"><ele>806.0</ele><time>2026-04-27T16:15:17.999Z</time></trkpt><trkpt lat="42.26585762826683" lon="13.7034212454761"><ele>806.0</ele><time>2026-04-27T16:15:18.999Z</time></trkpt><trkpt lat="42.26573920284795" lon="13.703456144543454"><ele>806.0</ele><time>2026-04-27T16:15:19.999Z</time></trkpt><trkpt lat="42.265571685860216" lon="13.703464844833043"><ele>805.6666666666667</ele><time>2026-04-27T16:15:20.999Z</time></trkpt><trkpt lat="42.265348419267255" lon="13.703471820108891"><ele>805.3333333333333</ele><time>2026-04-27T16:15:21.999Z</time></trkpt><trkpt lat="42.26514637414576" lon="13.703487510221755"><ele>805.0</ele><time>2026-04-27T16:15:22.999Z</time></trkpt><trkpt lat="42.264992179675325" lon="13.703490359886143"><ele>805.0</ele><time>2026-04-27T16:15:23.999Z</time></trkpt><trkpt lat="42.26486205642181" lon="13.703490572522368"><ele>805.0</ele><time>2026-04-27T16:15:24.999Z</time></trkpt><trkpt lat="42.264707789952844" lon="13.70347714835463"><ele>805.0</ele><time>2026-04-27T16:15:25.999Z</time></trkpt><trkpt lat="42.26454337969119" lon="13.703419450635536"><ele>805.6666666666666</ele><time>2026-04-27T16:15:26.999Z</time></trkpt><trkpt lat="42.26435585520498" lon="13.70332874095002"><ele>806.3333333333333</ele><time>2026-04-27T16:15:27.999Z</time></trkpt><trkpt lat="42.26421463835055" lon="13.703244169555523"><ele>807.0</ele><time>2026-04-27T16:15:28.999Z</time></trkpt><trkpt lat="42.264113440620065" lon="13.703168591754531"><ele>807.0</ele><time>2026-04-27T16:15:29.999Z</time></trkpt><trkpt lat="42.26403134365849" lon="13.703079479268895"><ele>807.0</ele><time>2026-04-27T16:15:30.999Z</time></trkpt><trkpt lat="42.2639598383678" lon="13.702978696511662"><ele>807.0</ele><time>2026-04-27T16:15:31.999Z</time></trkpt><trkpt lat="42.26390785915317" lon="13.70285112650103"><ele>807.0</ele><time>2026-04-27T16:15:32.999Z</time></trkpt><trkpt lat="42.26385063308689" lon="13.70268240378235"><ele>806.5</ele><time>2026-04-27T16:15:33.999Z</time></trkpt><trkpt lat="42.26380023266677" lon="13.702512954582488"><ele>806.0</ele><time>2026-04-27T16:15:34.999Z</time></trkpt><trkpt lat="42.2637526165881" lon="13.702361951065114"><ele>805.5</ele><time>2026-04-27T16:15:35.999Z</time></trkpt><trkpt lat="42.26370369028356" lon="13.702211044482487"><ele>805.0</ele><time>2026-04-27T16:15:36.999Z</time></trkpt><trkpt lat="42.26365199583014" lon="13.7020810036131"><ele>805.0</ele><time>2026-04-27T16:15:37.999Z</time></trkpt><trkpt lat="42.263578874677194" lon="13.701960521497135"><ele>805.0</ele><time>2026-04-27T16:15:38.999Z</time></trkpt><trkpt lat="42.263489542308335" lon="13.701853098521099"><ele>805.0</ele><time>2026-04-27T16:15:39.999Z</time></trkpt><trkpt lat="42.26342407383862" lon="13.701744054733213"><ele>805.0</ele><time>2026-04-27T16:15:40.999Z</time></trkpt><trkpt lat="42.26337394410629" lon="13.70167595832127"><ele>805.0</ele><time>2026-04-27T16:15:41.999Z</time></trkpt><trkpt lat="42.26331248744116" lon="13.701645716456621"><ele>804.6</ele><time>2026-04-27T16:15:42.999Z</time></trkpt><trkpt lat="42.26322923490984" lon="13.70164191715885"><ele>804.2</ele><time>2026-04-27T16:15:43.999Z</time></trkpt><trkpt lat="42.26310575344929" lon="13.70167247232641"><ele>803.8</ele><time>2026-04-27T16:15:44.999Z</time></trkpt><trkpt lat="42.263010045631376" lon="13.701696280750824"><ele>803.4</ele><time>2026-04-27T16:15:45.999Z</time></trkpt><trkpt lat="42.262910830295176" lon="13.701721765253396"><ele>803.0</ele><time>2026-04-27T16:15:47.999Z</time></trkpt><trkpt lat="42.26285566652768" lon="13.701769483962078"><ele>803.8333333333334</ele><time>2026-04-27T16:15:48.999Z</time></trkpt><trkpt lat="42.26280142959161" lon="13.701816423636306"><ele>804.6666666666667</ele><time>2026-04-27T16:15:49.999Z</time></trkpt><trkpt lat="42.262748287046996" lon="13.701870742814783"><ele>805.5</ele><time>2026-04-27T16:15:50.999Z</time></trkpt><trkpt lat="42.26269393216599" lon="13.701925682561281"><ele>806.3333333333333</ele><time>2026-04-27T16:15:51.999Z</time></trkpt><trkpt lat="42.2626309392667" lon="13.701977439718167"><ele>807.1666666666666</ele><time>2026-04-27T16:15:52.999Z</time></trkpt><trkpt lat="42.26255218277641" lon="13.702039892445567"><ele>808.0</ele><time>2026-04-27T16:15:53.999Z</time></trkpt><trkpt lat="42.26247199388182" lon="13.702103162304489"><ele>808.0</ele><time>2026-04-27T16:15:54.999Z</time></trkpt><trkpt lat="42.26238967712094" lon="13.702157343676465"><ele>808.0</ele><time>2026-04-27T16:15:55.999Z</time></trkpt><trkpt lat="42.26230353583099" lon="13.702205282401508"><ele>808.0</ele><time>2026-04-27T16:15:56.999Z</time></trkpt><trkpt lat="42.262222296886875" lon="13.702250854916599"><ele>808.0</ele><time>2026-04-27T16:15:57.999Z</time></trkpt><trkpt lat="42.26214372514293" lon="13.702311510662856"><ele>808.0</ele><time>2026-04-27T16:15:58.999Z</time></trkpt><trkpt lat="42.26205697474953" lon="13.702411934817556"><ele>809.2</ele><time>2026-04-27T16:15:59.999Z</time></trkpt><trkpt lat="42.26197483543073" lon="13.702502184472728"><ele>810.4</ele><time>2026-04-27T16:16:00.999Z</time></trkpt><trkpt lat="42.26188680446043" lon="13.702586430414215"><ele>811.6</ele><time>2026-04-27T16:16:01.999Z</time></trkpt><trkpt lat="42.261793464993985" lon="13.702682107954267"><ele>812.8000000000001</ele><time>2026-04-27T16:16:02.999Z</time></trkpt><trkpt lat="42.26170551621229" lon="13.702775941698565"><ele>814.0</ele><time>2026-04-27T16:16:03.999Z</time></trkpt><trkpt lat="42.26160750852132" lon="13.702863938150566"><ele>814.0</ele><time>2026-04-27T16:16:04.999Z</time></trkpt><trkpt lat="42.26150171096591" lon="13.702950909352879"><ele>814.0</ele><time>2026-04-27T16:16:05.999Z</time></trkpt><trkpt lat="42.261397155196995" lon="13.703024499559739"><ele>814.0</ele><time>2026-04-27T16:16:06.999Z</time></trkpt><trkpt lat="42.261278701723235" lon="13.7031071569894"><ele>814.0</ele><time>2026-04-27T16:16:07.999Z</time></trkpt><trkpt lat="42.26117047556096" lon="13.703186138439685"><ele>818.0</ele><time>2026-04-27T16:16:08.999Z</time></trkpt><trkpt lat="42.26106130229611" lon="13.70325823137933"><ele>822.0</ele><time>2026-04-27T16:16:09.999Z</time></trkpt><trkpt lat="42.26094685049014" lon="13.703326427424052"><ele>826.0</ele><time>2026-04-27T16:16:10.999Z</time></trkpt><trkpt lat="42.26082993357603" lon="13.703395049388922"><ele>830.0</ele><time>2026-04-27T16:16:11.999Z</time></trkpt><trkpt lat="42.260706876531124" lon="13.703449511823997"><ele>830.0</ele><time>2026-04-27T16:16:12.999Z</time></trkpt><trkpt lat="42.26058770996834" lon="13.703494705661866"><ele>830.0</ele><time>2026-04-27T16:16:13.999Z</time></trkpt><trkpt lat="42.26046734682414" lon="13.703521918473715"><ele>830.0</ele><time>2026-04-27T16:16:14.999Z</time></trkpt><trkpt lat="42.26033795268539" lon="13.7035606058609"><ele>830.0</ele><time>2026-04-27T16:16:15.998Z</time></trkpt><trkpt lat="42.26022123037687" lon="13.703588738475709"><ele>830.0</ele><time>2026-04-27T16:16:16.998Z</time></trkpt><trkpt lat="42.26012836996482" lon="13.703592524942563"><ele>830.0</ele><time>2026-04-27T16:16:17.998Z</time></trkpt><trkpt lat="42.260043700638136" lon="13.703597208035562"><ele>830.0</ele><time>2026-04-27T16:16:18.998Z</time></trkpt><trkpt lat="42.259954894050566" lon="13.70350110685313"><ele>830.0</ele><time>2026-04-27T16:16:20.998Z</time></trkpt><trkpt lat="42.25993616857288" lon="13.703415514806737"><ele>830.0</ele><time>2026-04-27T16:16:21.998Z</time></trkpt><trkpt lat="42.25991371817455" lon="13.703276240259191"><ele>830.0</ele><time>2026-04-27T16:16:22.998Z</time></trkpt><trkpt lat="42.25990521927251" lon="13.70313551409138"><ele>830.0</ele><time>2026-04-27T16:16:23.998Z</time></trkpt><trkpt lat="42.259901654442785" lon="13.70297977818218"><ele>830.0</ele><time>2026-04-27T16:16:24.998Z</time></trkpt><trkpt lat="42.25989603612349" lon="13.702814827894871"><ele>830.0</ele><time>2026-04-27T16:16:25.998Z</time></trkpt><trkpt lat="42.2598838391621" lon="13.702654739451082"><ele>831.75</ele><time>2026-04-27T16:16:26.998Z</time></trkpt><trkpt lat="42.25987627108819" lon="13.702494647532392"><ele>833.5</ele><time>2026-04-27T16:16:27.998Z</time></trkpt><trkpt lat="42.259878874971776" lon="13.70233956653784"><ele>835.25</ele><time>2026-04-27T16:16:28.998Z</time></trkpt><trkpt lat="42.25989537126969" lon="13.7021795324483"><ele>837.0</ele><time>2026-04-27T16:16:29.998Z</time></trkpt><trkpt lat="42.25992087859009" lon="13.702028762215466"><ele>838.8</ele><time>2026-04-27T16:16:30.998Z</time></trkpt><trkpt lat="42.259936940428105" lon="13.701881232186585"><ele>840.6</ele><time>2026-04-27T16:16:31.998Z</time></trkpt><trkpt lat="42.25994013054322" lon="13.701740142397169"><ele>842.4</ele><time>2026-04-27T16:16:32.998Z</time></trkpt><trkpt lat="42.2599147343386" lon="13.701612849166029"><ele>844.1999999999999</ele><time>2026-04-27T16:16:33.998Z</time></trkpt><trkpt lat="42.25986965032473" lon="13.701499092898798"><ele>846.0</ele><time>2026-04-27T16:16:34.998Z</time></trkpt><trkpt lat="42.2598031280585" lon="13.701400052555261"><ele>843.0</ele><time>2026-04-27T16:16:35.998Z</time></trkpt><trkpt lat="42.259710494003734" lon="13.70133597719968"><ele>840.0</ele><time>2026-04-27T16:16:36.998Z</time></trkpt><trkpt lat="42.25960051111726" lon="13.701294958581379"><ele>837.0</ele><time>2026-04-27T16:16:37.998Z</time></trkpt><trkpt lat="42.259493117450994" lon="13.701241367028043"><ele>834.0</ele><time>2026-04-27T16:16:38.998Z</time></trkpt><trkpt lat="42.259388460809454" lon="13.701172731017094"><ele>831.0</ele><time>2026-04-27T16:16:39.998Z</time></trkpt><trkpt lat="42.25928825286499" lon="13.701098928133755"><ele>836.0</ele><time>2026-04-27T16:16:40.998Z</time></trkpt><trkpt lat="42.25917439147904" lon="13.701027273349464"><ele>841.0</ele><time>2026-04-27T16:16:41.998Z</time></trkpt><trkpt lat="42.25905550551318" lon="13.700953624955625"><ele>846.0</ele><time>2026-04-27T16:16:42.998Z</time></trkpt><trkpt lat="42.25892198628938" lon="13.700895553361077"><ele>851.0</ele><time>2026-04-27T16:16:43.998Z</time></trkpt><trkpt lat="42.25878211242642" lon="13.700841373414137"><ele>851.0</ele><time>2026-04-27T16:16:44.998Z</time></trkpt><trkpt lat="42.258637891819106" lon="13.700782019403418"><ele>851.0</ele><time>2026-04-27T16:16:45.998Z</time></trkpt><trkpt lat="42.258497381263" lon="13.700716101733763"><ele>851.0</ele><time>2026-04-27T16:16:46.998Z</time></trkpt><trkpt lat="42.25835033364735" lon="13.700658305826446"><ele>851.0</ele><time>2026-04-27T16:16:47.998Z</time></trkpt><trkpt lat="42.25820387516047" lon="13.700611947683623"><ele>851.0</ele><time>2026-04-27T16:16:48.998Z</time></trkpt><trkpt lat="42.25805422015006" lon="13.700580323239464"><ele>851.0</ele><time>2026-04-27T16:16:49.998Z</time></trkpt><trkpt lat="42.2579071254251" lon="13.7005778842164"><ele>851.0</ele><time>2026-04-27T16:16:51Z</time></trkpt><trkpt lat="42.2577609035787" lon="13.700584989184746"><ele>853.0</ele><time>2026-04-27T16:16:52Z</time></trkpt><trkpt lat="42.257621965726976" lon="13.700630567704287"><ele>855.0</ele><time>2026-04-27T16:16:53Z</time></trkpt><trkpt lat="42.257495254872644" lon="13.700707752067967"><ele>857.0</ele><time>2026-04-27T16:16:54Z</time></trkpt><trkpt lat="42.2573711746236" lon="13.700794785220612"><ele>859.0</ele><time>2026-04-27T16:16:55Z</time></trkpt><trkpt lat="42.25725930989673" lon="13.700864197601069"><ele>860.4999999999999</ele><time>2026-04-27T16:16:56Z</time></trkpt><trkpt lat="42.25718511940849" lon="13.700884221308062"><ele>862.0</ele><time>2026-04-27T16:16:57Z</time></trkpt><trkpt lat="42.25713630676063" lon="13.700795168967772"><ele>863.5</ele><time>2026-04-27T16:16:59Z</time></trkpt><trkpt lat="42.2571352705846" lon="13.700617834420443"><ele>865.0</ele><time>2026-04-27T16:17:01Z</time></trkpt><trkpt lat="42.25711063739078" lon="13.700522381123202"><ele>866.4999999999999</ele><time>2026-04-27T16:17:02Z</time></trkpt><trkpt lat="42.257079618573144" lon="13.70042546194492"><ele>868.0</ele><time>2026-04-27T16:17:03Z</time></trkpt><trkpt lat="42.25705506488043" lon="13.700327230996864"><ele>868.0</ele><time>2026-04-27T16:17:04Z</time></trkpt><trkpt lat="42.257031157686725" lon="13.700246509240253"><ele>868.0</ele><time>2026-04-27T16:17:05Z</time></trkpt><trkpt lat="42.25693853764234" lon="13.700177034569384"><ele>868.0</ele><time>2026-04-27T16:17:07Z</time></trkpt><trkpt lat="42.256848982337665" lon="13.700227233612136"><ele>868.0</ele><time>2026-04-27T16:17:08Z</time></trkpt><trkpt lat="42.256749580055214" lon="13.700287827579322"><ele>868.0</ele><time>2026-04-27T16:17:09Z</time></trkpt><trkpt lat="42.25662794605479" lon="13.700335264955784"><ele>868.0</ele><time>2026-04-27T16:17:10Z</time></trkpt><trkpt lat="42.25649964907129" lon="13.700378820355837"><ele>868.0</ele><time>2026-04-27T16:17:11Z</time></trkpt><trkpt lat="42.256373812742254" lon="13.700443139523985"><ele>868.0</ele><time>2026-04-27T16:17:12Z</time></trkpt><trkpt lat="42.25624058747357" lon="13.700533888338391"><ele>868.0</ele><time>2026-04-27T16:17:13Z</time></trkpt><trkpt lat="42.25610068905757" lon="13.70063844917136"><ele>862.6666666666666</ele><time>2026-04-27T16:17:14Z</time></trkpt><trkpt lat="42.25596075154008" lon="13.700745863677126"><ele>857.3333333333333</ele><time>2026-04-27T16:17:15Z</time></trkpt><trkpt lat="42.25582125559287" lon="13.700847534126565"><ele>852.0</ele><time>2026-04-27T16:17:16Z</time></trkpt><trkpt lat="42.25568432510061" lon="13.700937554349611"><ele>854.25</ele><time>2026-04-27T16:17:17Z</time></trkpt><trkpt lat="42.25554590749872" lon="13.701027535502861"><ele>856.5</ele><time>2026-04-27T16:17:18Z</time></trkpt><trkpt lat="42.25541483760385" lon="13.701113273486916"><ele>858.75</ele><time>2026-04-27T16:17:18.999Z</time></trkpt><trkpt lat="42.25529871789377" lon="13.701188357136694"><ele>861.0</ele><time>2026-04-27T16:17:19.999Z</time></trkpt><trkpt lat="42.25518057065751" lon="13.701235461233379"><ele>861.0</ele><time>2026-04-27T16:17:20.999Z</time></trkpt><trkpt lat="42.25504116277504" lon="13.701270097431605"><ele>861.0</ele><time>2026-04-27T16:17:21.999Z</time></trkpt><trkpt lat="42.25489057022673" lon="13.701300210947466"><ele>861.0</ele><time>2026-04-27T16:17:22.999Z</time></trkpt><trkpt lat="42.254739215343974" lon="13.70132721953651"><ele>861.0</ele><time>2026-04-27T16:17:23.999Z</time></trkpt><trkpt lat="42.25458808085318" lon="13.7013425044499"><ele>857.3333333333333</ele><time>2026-04-27T16:17:24.999Z</time></trkpt><trkpt lat="42.25443606806325" lon="13.701343574925751"><ele>853.6666666666666</ele><time>2026-04-27T16:17:25.999Z</time></trkpt><trkpt lat="42.25428397835014" lon="13.701330171641276"><ele>850.0</ele><time>2026-04-27T16:17:26.999Z</time></trkpt><trkpt lat="42.25413816254737" lon="13.701318911430574"><ele>850.0</ele><time>2026-04-27T16:17:27.999Z</time></trkpt><trkpt lat="42.25400725160745" lon="13.701320213570552"><ele>850.0</ele><time>2026-04-27T16:17:28.999Z</time></trkpt><trkpt lat="42.25390222027412" lon="13.701321793311152"><ele>850.0</ele><time>2026-04-27T16:17:29.999Z</time></trkpt><trkpt lat="42.25380784267323" lon="13.701344898012945"><ele>850.0</ele><time>2026-04-27T16:17:30.999Z</time></trkpt><trkpt lat="42.253704574644516" lon="13.701402832637315"><ele>850.0</ele><time>2026-04-27T16:17:31.999Z</time></trkpt><trkpt lat="42.25359690464844" lon="13.701466534433548"><ele>845.0</ele><time>2026-04-27T16:17:32.999Z</time></trkpt><trkpt lat="42.25349025839583" lon="13.70150967997959"><ele>840.0</ele><time>2026-04-27T16:17:33.999Z</time></trkpt><trkpt lat="42.253392351521015" lon="13.701555343341722"><ele>835.0</ele><time>2026-04-27T16:17:34.999Z</time></trkpt><trkpt lat="42.25329303973863" lon="13.701645035584612"><ele>830.0</ele><time>2026-04-27T16:17:35.999Z</time></trkpt><trkpt lat="42.25319726651719" lon="13.701760184781374"><ele>828.25</ele><time>2026-04-27T16:17:36.999Z</time></trkpt><trkpt lat="42.253082439987786" lon="13.70186905364003"><ele>826.5</ele><time>2026-04-27T16:17:37.999Z</time></trkpt><trkpt lat="42.25296233179697" lon="13.701968733626115"><ele>824.75</ele><time>2026-04-27T16:17:38.999Z</time></trkpt><trkpt lat="42.252842336071936" lon="13.702076638978173"><ele>823.0</ele><time>2026-04-27T16:17:39.999Z</time></trkpt><trkpt lat="42.25272025332338" lon="13.702192994762743"><ele>823.0</ele><time>2026-04-27T16:17:40.999Z</time></trkpt><trkpt lat="42.252594088635725" lon="13.702308027156606"><ele>823.0</ele><time>2026-04-27T16:17:41.999Z</time></trkpt><trkpt lat="42.25247102937869" lon="13.702419389578358"><ele>823.0</ele><time>2026-04-27T16:17:42.999Z</time></trkpt><trkpt lat="42.252355253652645" lon="13.702532348264858"><ele>823.0</ele><time>2026-04-27T16:17:43.999Z</time></trkpt><trkpt lat="42.25224032497166" lon="13.702643381111045"><ele>822.5</ele><time>2026-04-27T16:17:44.999Z</time></trkpt><trkpt lat="42.25212395523693" lon="13.702746055275444"><ele>822.0</ele><time>2026-04-27T16:17:45.999Z</time></trkpt><trkpt lat="42.252012211917844" lon="13.702831968983228"><ele>821.5</ele><time>2026-04-27T16:17:46.999Z</time></trkpt><trkpt lat="42.25189687340279" lon="13.702906351790206"><ele>821.0</ele><time>2026-04-27T16:17:47.999Z</time></trkpt><trkpt lat="42.251772587476914" lon="13.702954735948698"><ele>821.0</ele><time>2026-04-27T16:17:48.999Z</time></trkpt><trkpt lat="42.25163823319951" lon="13.702982604384127"><ele>821.0</ele><time>2026-04-27T16:17:49.999Z</time></trkpt><trkpt lat="42.25150313188889" lon="13.70300643645629"><ele>821.0</ele><time>2026-04-27T16:17:50.999Z</time></trkpt><trkpt lat="42.25137175042366" lon="13.70302737252758"><ele>821.0</ele><time>2026-04-27T16:17:51.999Z</time></trkpt><trkpt lat="42.25125429824053" lon="13.703027346549224"><ele>819.0</ele><time>2026-04-27T16:17:52.999Z</time></trkpt><trkpt lat="42.25114905813214" lon="13.703026409765668"><ele>817.0</ele><time>2026-04-27T16:17:53.999Z</time></trkpt><trkpt lat="42.25104968136569" lon="13.703055331524407"><ele>815.0</ele><time>2026-04-27T16:17:54.999Z</time></trkpt><trkpt lat="42.250942075769935" lon="13.70312132883403"><ele>813.0</ele><time>2026-04-27T16:17:55.999Z</time></trkpt><trkpt lat="42.250830432874544" lon="13.703212059853952"><ele>813.0</ele><time>2026-04-27T16:17:56.999Z</time></trkpt><trkpt lat="42.25071450697281" lon="13.703305291206389"><ele>813.0</ele><time>2026-04-27T16:17:57.999Z</time></trkpt><trkpt lat="42.25059737209457" lon="13.703400503232634"><ele>813.0</ele><time>2026-04-27T16:17:58.999Z</time></trkpt><trkpt lat="42.250484564896674" lon="13.70349847904334"><ele>813.0</ele><time>2026-04-27T16:17:59.999Z</time></trkpt><trkpt lat="42.25038257701332" lon="13.703602266449103"><ele>812.0</ele><time>2026-04-27T16:18:00.999Z</time></trkpt><trkpt lat="42.25029147262645" lon="13.703725851304855"><ele>811.0</ele><time>2026-04-27T16:18:01.999Z</time></trkpt><trkpt lat="42.250206962316426" lon="13.703848180458994"><ele>810.0</ele><time>2026-04-27T16:18:02.999Z</time></trkpt><trkpt lat="42.25012885689896" lon="13.703949025947404"><ele>809.0</ele><time>2026-04-27T16:18:03.999Z</time></trkpt><trkpt lat="42.250060078752036" lon="13.70402282015596"><ele>808.0</ele><time>2026-04-27T16:18:04.999Z</time></trkpt><trkpt lat="42.249991950602265" lon="13.704113776238733"><ele>807.9999999999999</ele><time>2026-04-27T16:18:06.999Z</time></trkpt><trkpt lat="42.24998968609545" lon="13.704226673405488"><ele>808.0</ele><time>2026-04-27T16:18:08.999Z</time></trkpt><trkpt lat="42.2499976732476" lon="13.704335120752374"><ele>808.0</ele><time>2026-04-27T16:18:10.999Z</time></trkpt><trkpt lat="42.249964184986226" lon="13.704430003324848"><ele>808.0</ele><time>2026-04-27T16:18:12.999Z</time></trkpt><trkpt lat="42.24990767232067" lon="13.704549888806213"><ele>807.9999999999999</ele><time>2026-04-27T16:19:04Z</time></trkpt><trkpt lat="42.24988004665007" lon="13.704627393226938"><ele>808.0</ele><time>2026-04-27T16:19:05Z</time></trkpt><trkpt lat="42.249854589627915" lon="13.70471311252309"><ele>807.8</ele><time>2026-04-27T16:19:06Z</time></trkpt><trkpt lat="42.249819846945364" lon="13.704884909089605"><ele>807.5999999999999</ele><time>2026-04-27T16:19:08Z</time></trkpt><trkpt lat="42.2497897838977" lon="13.70500962971621"><ele>807.4000000000001</ele><time>2026-04-27T16:19:09Z</time></trkpt><trkpt lat="42.24975159242765" lon="13.705132912480837"><ele>807.2</ele><time>2026-04-27T16:19:10Z</time></trkpt><trkpt lat="42.24969642298621" lon="13.70524478981249"><ele>807.0</ele><time>2026-04-27T16:19:11Z</time></trkpt><trkpt lat="42.24962976834289" lon="13.705355640228309"><ele>811.0</ele><time>2026-04-27T16:19:12Z</time></trkpt><trkpt lat="42.249544122384435" lon="13.705460165319653"><ele>815.0</ele><time>2026-04-27T16:19:13Z</time></trkpt><trkpt lat="42.24944791347942" lon="13.705545797363127"><ele>819.0</ele><time>2026-04-27T16:19:14Z</time></trkpt><trkpt lat="42.24935181454215" lon="13.705632328963064"><ele>823.0</ele><time>2026-04-27T16:19:15Z</time></trkpt><trkpt lat="42.249252161155674" lon="13.705704984129618"><ele>823.0</ele><time>2026-04-27T16:19:16Z</time></trkpt><trkpt lat="42.24915098431017" lon="13.705768860449403"><ele>823.0</ele><time>2026-04-27T16:19:17Z</time></trkpt><trkpt lat="42.24905604569694" lon="13.70583463284533"><ele>823.0</ele><time>2026-04-27T16:19:18Z</time></trkpt><trkpt lat="42.24895897881584" lon="13.705925429673261"><ele>823.0</ele><time>2026-04-27T16:19:19Z</time></trkpt><trkpt lat="42.248860290226936" lon="13.706028857584338"><ele>824.8</ele><time>2026-04-27T16:19:20Z</time></trkpt><trkpt lat="42.2487579799703" lon="13.706128037451926"><ele>826.5999999999999</ele><time>2026-04-27T16:19:20.999Z</time></trkpt><trkpt lat="42.248657534944115" lon="13.706221297649462"><ele>828.4000000000001</ele><time>2026-04-27T16:19:21.999Z</time></trkpt><trkpt lat="42.24856438762141" lon="13.70631125657206"><ele>830.2</ele><time>2026-04-27T16:19:22.999Z</time></trkpt><trkpt lat="42.248505599384394" lon="13.706375024132804"><ele>832.0</ele><time>2026-04-27T16:19:23.999Z</time></trkpt><trkpt lat="42.24848188867643" lon="13.706471930282545"><ele>831.9999999999999</ele><time>2026-04-27T16:19:25.999Z</time></trkpt><trkpt lat="42.248513643865635" lon="13.70664031117506"><ele>832.0</ele><time>2026-04-27T16:19:27.999Z</time></trkpt><trkpt lat="42.24853581106614" lon="13.706739887250553"><ele>832.0</ele><time>2026-04-27T16:19:28.999Z</time></trkpt><trkpt lat="42.24853784280379" lon="13.706854523889831"><ele>832.0</ele><time>2026-04-27T16:19:30.999Z</time></trkpt><trkpt lat="42.248605657213844" lon="13.706853655211894"><ele>831.9999999999999</ele><time>2026-04-27T16:19:32.999Z</time></trkpt><trkpt lat="42.24861532994904" lon="13.706749351760513"><ele>832.0</ele><time>2026-04-27T16:19:34.999Z</time></trkpt><trkpt lat="42.24855429462269" lon="13.706614461562495"><ele>831.9999999999999</ele><time>2026-04-27T16:19:36.999Z</time></trkpt><trkpt lat="42.2485257904356" lon="13.706537819169489"><ele>832.0</ele><time>2026-04-27T16:19:37.999Z</time></trkpt><trkpt lat="42.24845412497725" lon="13.706438358386599"><ele>832.0</ele><time>2026-04-27T16:19:39.999Z</time></trkpt><trkpt lat="42.24837994719113" lon="13.706444795786867"><ele>832.0</ele><time>2026-04-27T16:19:42.999Z</time></trkpt><trkpt lat="42.24834402408119" lon="13.706518826872987"><ele>831.9999999999999</ele><time>2026-04-27T16:19:45.999Z</time></trkpt><trkpt lat="42.248299846546225" lon="13.706651079347726"><ele>832.0</ele><time>2026-04-27T16:19:46.999Z</time></trkpt><trkpt lat="42.248264338942676" lon="13.706773585161933"><ele>831.9999999999999</ele><time>2026-04-27T16:19:47.999Z</time></trkpt><trkpt lat="42.24825400763309" lon="13.706878031218034"><ele>832.0</ele><time>2026-04-27T16:19:48.999Z</time></trkpt><trkpt lat="42.24829163325925" lon="13.706974731382617"><ele>832.0</ele><time>2026-04-27T16:19:49.999Z</time></trkpt><trkpt lat="42.248305940548306" lon="13.707079204912564"><ele>832.0</ele><time>2026-04-27T16:19:50.999Z</time></trkpt><trkpt lat="42.24831362100227" lon="13.707181049530606"><ele>831.9999999999999</ele><time>2026-04-27T16:19:51.999Z</time></trkpt><trkpt lat="42.24830371489079" lon="13.707333916687874"><ele>832.0</ele><time>2026-04-27T16:19:53.999Z</time></trkpt><trkpt lat="42.248288583127994" lon="13.707434195724657"><ele>832.0</ele><time>2026-04-27T16:19:54.999Z</time></trkpt><trkpt lat="42.24827800606773" lon="13.70756300377596"><ele>832.0</ele><time>2026-04-27T16:19:55.999Z</time></trkpt><trkpt lat="42.24826411447699" lon="13.70769260889603"><ele>832.0</ele><time>2026-04-27T16:19:56.999Z</time></trkpt><trkpt lat="42.24822643756717" lon="13.707819391246185"><ele>832.0</ele><time>2026-04-27T16:19:57.999Z</time></trkpt><trkpt lat="42.24818659962622" lon="13.707933257010806"><ele>832.0</ele><time>2026-04-27T16:19:58.999Z</time></trkpt><trkpt lat="42.248142540557424" lon="13.708038762980744"><ele>829.2</ele><time>2026-04-27T16:19:59.999Z</time></trkpt><trkpt lat="42.248097463221654" lon="13.708160521787399"><ele>826.4000000000001</ele><time>2026-04-27T16:20:00.999Z</time></trkpt><trkpt lat="42.248026750711226" lon="13.708270799028757"><ele>823.5999999999999</ele><time>2026-04-27T16:20:01.999Z</time></trkpt><trkpt lat="42.247944742301854" lon="13.708337946413112"><ele>820.8</ele><time>2026-04-27T16:20:02.999Z</time></trkpt><trkpt lat="42.2478317231739" lon="13.708405326005765"><ele>818.0</ele><time>2026-04-27T16:20:03.999Z</time></trkpt><trkpt lat="42.24773110397967" lon="13.708475849009595"><ele>818.0</ele><time>2026-04-27T16:20:04.999Z</time></trkpt><trkpt lat="42.24763021840096" lon="13.70852882271883"><ele>818.0</ele><time>2026-04-27T16:20:05.999Z</time></trkpt><trkpt lat="42.2475462584417" lon="13.708612657242547"><ele>818.0</ele><time>2026-04-27T16:20:06.999Z</time></trkpt><trkpt lat="42.247464456007656" lon="13.708679105257502"><ele>818.0</ele><time>2026-04-27T16:20:07.999Z</time></trkpt><trkpt lat="42.247396881482" lon="13.708719383095069"><ele>818.0</ele><time>2026-04-27T16:20:08.999Z</time></trkpt><trkpt lat="42.24734055889412" lon="13.708584116929432"><ele>818.0000000000001</ele><time>2026-04-27T16:20:12.999Z</time></trkpt><trkpt lat="42.2472969745212" lon="13.708477367000308"><ele>818.0</ele><time>2026-04-27T16:20:13.999Z</time></trkpt><trkpt lat="42.24724937689863" lon="13.708372720224546"><ele>818.0</ele><time>2026-04-27T16:20:14.999Z</time></trkpt><trkpt lat="42.24722168016376" lon="13.708279278346474"><ele>818.0</ele><time>2026-04-27T16:20:15.999Z</time></trkpt><trkpt lat="42.24721545036865" lon="13.708172200319279"><ele>818.0000000000001</ele><time>2026-04-27T16:20:16.999Z</time></trkpt><trkpt lat="42.24721064229832" lon="13.708030781293793"><ele>818.0</ele><time>2026-04-27T16:20:17.999Z</time></trkpt><trkpt lat="42.24719494751781" lon="13.7078636193818"><ele>815.5999999999999</ele><time>2026-04-27T16:20:18.999Z</time></trkpt><trkpt lat="42.24718131668814" lon="13.707707525074037"><ele>813.1999999999999</ele><time>2026-04-27T16:20:19.999Z</time></trkpt><trkpt lat="42.24717737335275" lon="13.707595940048535"><ele>810.8</ele><time>2026-04-27T16:20:20.998Z</time></trkpt><trkpt lat="42.24717483938155" lon="13.707485131712556"><ele>808.4</ele><time>2026-04-27T16:20:21.998Z</time></trkpt><trkpt lat="42.247147626651355" lon="13.707385725784283"><ele>806.0</ele><time>2026-04-27T16:20:22.998Z</time></trkpt><trkpt lat="42.247057830608945" lon="13.707338985581524"><ele>806.0000000000001</ele><time>2026-04-27T16:20:23.998Z</time></trkpt><trkpt lat="42.247026184014885" lon="13.707209173152485"><ele>806.0</ele><time>2026-04-27T16:20:25.998Z</time></trkpt><trkpt lat="42.2469837641538" lon="13.707141474742476"><ele>806.0</ele><time>2026-04-27T16:20:27.998Z</time></trkpt><trkpt lat="42.24689337649834" lon="13.707117083368448"><ele>806.0</ele><time>2026-04-27T16:20:28.998Z</time></trkpt><trkpt lat="42.24680402473351" lon="13.707125460349063"><ele>806.0000000000001</ele><time>2026-04-27T16:20:29.998Z</time></trkpt><trkpt lat="42.246736067965976" lon="13.707127385677566"><ele>806.0</ele><time>2026-04-27T16:20:30.998Z</time></trkpt><trkpt lat="42.24669326136272" lon="13.70704664631909"><ele>806.0000000000001</ele><time>2026-04-27T16:20:34.998Z</time></trkpt><trkpt lat="42.246708836897284" lon="13.707164980892838"><ele>806.0</ele><time>2026-04-27T16:20:41.998Z</time></trkpt><trkpt lat="42.24661705113148" lon="13.707164215086571"><ele>806.0</ele><time>2026-04-27T16:20:44.998Z</time></trkpt><trkpt lat="42.246548730414005" lon="13.707136585710685"><ele>806.0</ele><time>2026-04-27T16:20:46.998Z</time></trkpt><trkpt lat="42.24646197622293" lon="13.707129135951181"><ele>806.0000000000001</ele><time>2026-04-27T16:20:49.998Z</time></trkpt><trkpt lat="42.246374294660775" lon="13.70708244016059"><ele>806.0</ele><time>2026-04-27T16:20:51.998Z</time></trkpt><trkpt lat="42.24627878247204" lon="13.707072985197641"><ele>803.4</ele><time>2026-04-27T16:20:53.998Z</time></trkpt><trkpt lat="42.246187950912535" lon="13.70703785821437"><ele>800.8</ele><time>2026-04-27T16:20:55.998Z</time></trkpt><trkpt lat="42.24611594495145" lon="13.707064582841975"><ele>798.1999999999999</ele><time>2026-04-27T16:21:00.998Z</time></trkpt><trkpt lat="42.246108242908974" lon="13.707224946588324"><ele>795.5999999999999</ele><time>2026-04-27T16:21:03Z</time></trkpt><trkpt lat="42.246088352686556" lon="13.707312031449677"><ele>793.0</ele><time>2026-04-27T16:21:04Z</time></trkpt><trkpt lat="42.24609341361336" lon="13.70750275680527"><ele>793.0</ele><time>2026-04-27T16:21:06Z</time></trkpt><trkpt lat="42.246096689872445" lon="13.707676637743665"><ele>793.0</ele><time>2026-04-27T16:21:07Z</time></trkpt><trkpt lat="42.246094110840275" lon="13.707806921005588"><ele>793.0</ele><time>2026-04-27T16:21:08Z</time></trkpt><trkpt lat="42.2460845338371" lon="13.70792818782165"><ele>793.0</ele><time>2026-04-27T16:21:09Z</time></trkpt><trkpt lat="42.246077289798095" lon="13.708067847469476"><ele>793.0</ele><time>2026-04-27T16:21:10Z</time></trkpt><trkpt lat="42.24607208826373" lon="13.70821503340789"><ele>792.4</ele><time>2026-04-27T16:21:11Z</time></trkpt><trkpt lat="42.246062040253264" lon="13.70836451632617"><ele>791.8</ele><time>2026-04-27T16:21:12Z</time></trkpt><trkpt lat="42.246047955538955" lon="13.708507702061976"><ele>791.2</ele><time>2026-04-27T16:21:13Z</time></trkpt><trkpt lat="42.246035711712665" lon="13.708644610837002"><ele>790.6</ele><time>2026-04-27T16:21:14Z</time></trkpt><trkpt lat="42.24602678380647" lon="13.708780194561424"><ele>790.0</ele><time>2026-04-27T16:21:15Z</time></trkpt><trkpt lat="42.24601677805397" lon="13.70890337011753"><ele>789.3333333333333</ele><time>2026-04-27T16:21:16Z</time></trkpt><trkpt lat="42.24601196751207" lon="13.709012924788068"><ele>788.6666666666666</ele><time>2026-04-27T16:21:17Z</time></trkpt><trkpt lat="42.24601185998696" lon="13.709113262727744"><ele>788.0</ele><time>2026-04-27T16:21:18Z</time></trkpt><trkpt lat="42.24601622801524" lon="13.709210156391892"><ele>787.3333333333333</ele><time>2026-04-27T16:21:19Z</time></trkpt><trkpt lat="42.24603143241873" lon="13.709314857178642"><ele>786.6666666666666</ele><time>2026-04-27T16:21:20Z</time></trkpt><trkpt lat="42.24605429870965" lon="13.709435320644126"><ele>786.0</ele><time>2026-04-27T16:21:21Z</time></trkpt><trkpt lat="42.246093541289454" lon="13.709553665313829"><ele>785.75</ele><time>2026-04-27T16:21:22Z</time></trkpt><trkpt lat="42.24614281151029" lon="13.709682587008919"><ele>785.5</ele><time>2026-04-27T16:21:23Z</time></trkpt><trkpt lat="42.24621085285057" lon="13.70979818821473"><ele>785.25</ele><time>2026-04-27T16:21:24Z</time></trkpt><trkpt lat="42.24630583931781" lon="13.709905697229507"><ele>785.0</ele><time>2026-04-27T16:21:24.999Z</time></trkpt><trkpt lat="42.246412195396275" lon="13.709979061497544"><ele>785.75</ele><time>2026-04-27T16:21:25.999Z</time></trkpt><trkpt lat="42.246521883693006" lon="13.710054578312924"><ele>786.5</ele><time>2026-04-27T16:21:26.999Z</time></trkpt><trkpt lat="42.24663568456919" lon="13.710122291779463"><ele>787.25</ele><time>2026-04-27T16:21:27.999Z</time></trkpt><trkpt lat="42.24675743130089" lon="13.710160065924539"><ele>788.0</ele><time>2026-04-27T16:21:28.999Z</time></trkpt><trkpt lat="42.24688994932577" lon="13.710163565540617"><ele>788.0</ele><time>2026-04-27T16:21:29.999Z</time></trkpt><trkpt lat="42.2470292609045" lon="13.710122890459962"><ele>788.0</ele><time>2026-04-27T16:21:30.999Z</time></trkpt><trkpt lat="42.247168178011975" lon="13.710065143195628"><ele>788.0</ele><time>2026-04-27T16:21:31.999Z</time></trkpt><trkpt lat="42.24731031060913" lon="13.71001224745106"><ele>788.0</ele><time>2026-04-27T16:21:32.999Z</time></trkpt><trkpt lat="42.24745505901206" lon="13.709967268404608"><ele>786.75</ele><time>2026-04-27T16:21:33.999Z</time></trkpt><trkpt lat="42.24760000417492" lon="13.70992762026339"><ele>785.5</ele><time>2026-04-27T16:21:34.999Z</time></trkpt><trkpt lat="42.24773785738029" lon="13.709900406424943"><ele>784.25</ele><time>2026-04-27T16:21:35.999Z</time></trkpt><trkpt lat="42.2478636063739" lon="13.709895767809147"><ele>783.0</ele><time>2026-04-27T16:21:36.999Z</time></trkpt><trkpt lat="42.24797701886338" lon="13.709923521709529"><ele>783.0</ele><time>2026-04-27T16:21:37.999Z</time></trkpt><trkpt lat="42.2480687417355" lon="13.710023966364304"><ele>783.0</ele><time>2026-04-27T16:21:38.999Z</time></trkpt><trkpt lat="42.248142503291916" lon="13.7101393760599"><ele>783.0</ele><time>2026-04-27T16:21:39.999Z</time></trkpt><trkpt lat="42.24816065643252" lon="13.710284380253924"><ele>783.0</ele><time>2026-04-27T16:21:40.999Z</time></trkpt><trkpt lat="42.24814888513425" lon="13.710439194504264"><ele>779.0</ele><time>2026-04-27T16:21:41.999Z</time></trkpt><trkpt lat="42.24811007771536" lon="13.710597961703181"><ele>775.0</ele><time>2026-04-27T16:21:42.999Z</time></trkpt><trkpt lat="42.248054709973516" lon="13.710772723436873"><ele>771.0</ele><time>2026-04-27T16:21:43.999Z</time></trkpt><trkpt lat="42.24799637086347" lon="13.710955526144842"><ele>767.0</ele><time>2026-04-27T16:21:44.999Z</time></trkpt><trkpt lat="42.247938277954724" lon="13.711141016465541"><ele>766.25</ele><time>2026-04-27T16:21:45.999Z</time></trkpt><trkpt lat="42.24788853774539" lon="13.711302621401364"><ele>765.5</ele><time>2026-04-27T16:21:46.999Z</time></trkpt><trkpt lat="42.24784416335297" lon="13.711454840951333"><ele>764.75</ele><time>2026-04-27T16:21:47.999Z</time></trkpt><trkpt lat="42.24781927670581" lon="13.711600437591992"><ele>764.0</ele><time>2026-04-27T16:21:48.999Z</time></trkpt><trkpt lat="42.24777133143572" lon="13.711738490961288"><ele>764.0</ele><time>2026-04-27T16:21:49.999Z</time></trkpt><trkpt lat="42.24773579995905" lon="13.711879993669946"><ele>764.0</ele><time>2026-04-27T16:21:50.999Z</time></trkpt><trkpt lat="42.247691017888684" lon="13.712016983166718"><ele>764.0</ele><time>2026-04-27T16:21:51.999Z</time></trkpt><trkpt lat="42.24773105669969" lon="13.712185971244052"><ele>764.0</ele><time>2026-04-27T16:21:52.999Z</time></trkpt><trkpt lat="42.247719512716074" lon="13.71234645823971"><ele>764.75</ele><time>2026-04-27T16:21:53.999Z</time></trkpt><trkpt lat="42.24774136474997" lon="13.712514390727206"><ele>765.5</ele><time>2026-04-27T16:21:54.999Z</time></trkpt><trkpt lat="42.24771743889455" lon="13.712680757500971"><ele>766.25</ele><time>2026-04-27T16:21:55.999Z</time></trkpt><trkpt lat="42.24770163373632" lon="13.7128405760434"><ele>767.0</ele><time>2026-04-27T16:21:56.999Z</time></trkpt><trkpt lat="42.247706849959776" lon="13.712996260060137"><ele>767.25</ele><time>2026-04-27T16:21:57.999Z</time></trkpt><trkpt lat="42.247674869399546" lon="13.713155332262845"><ele>767.5</ele><time>2026-04-27T16:21:58.999Z</time></trkpt><trkpt lat="42.24768222726182" lon="13.713340413140315"><ele>767.75</ele><time>2026-04-27T16:21:59.999Z</time></trkpt><trkpt lat="42.247650700299374" lon="13.713519924443847"><ele>768.0</ele><time>2026-04-27T16:22:00.999Z</time></trkpt><trkpt lat="42.24763001778437" lon="13.713690089764766"><ele>767.5</ele><time>2026-04-27T16:22:01.999Z</time></trkpt><trkpt lat="42.247632802905734" lon="13.713855975257657"><ele>767.0</ele><time>2026-04-27T16:22:02.999Z</time></trkpt><trkpt lat="42.247644040682275" lon="13.714023917318604"><ele>766.5</ele><time>2026-04-27T16:22:03.999Z</time></trkpt><trkpt lat="42.24767311637073" lon="13.71419831709465"><ele>766.0</ele><time>2026-04-27T16:22:04.999Z</time></trkpt><trkpt lat="42.247717410621156" lon="13.714375927954658"><ele>763.3333333333334</ele><time>2026-04-27T16:22:05.999Z</time></trkpt><trkpt lat="42.247775972804575" lon="13.71455751449978"><ele>760.6666666666666</ele><time>2026-04-27T16:22:06.999Z</time></trkpt><trkpt lat="42.24784171197056" lon="13.714743262300445"><ele>758.0</ele><time>2026-04-27T16:22:07.999Z</time></trkpt><trkpt lat="42.24791837822234" lon="13.714929256243249"><ele>758.0</ele><time>2026-04-27T16:22:08.999Z</time></trkpt><trkpt lat="42.24800316645975" lon="13.71510768135411"><ele>758.0</ele><time>2026-04-27T16:22:09.999Z</time></trkpt><trkpt lat="42.24808487059294" lon="13.715270801977315"><ele>758.0</ele><time>2026-04-27T16:22:10.999Z</time></trkpt><trkpt lat="42.248161262637105" lon="13.715407678356666"><ele>758.0</ele><time>2026-04-27T16:22:11.999Z</time></trkpt><trkpt lat="42.24824668310981" lon="13.715514412996688"><ele>760.5</ele><time>2026-04-27T16:22:12.999Z</time></trkpt><trkpt lat="42.24835653155693" lon="13.715621208081691"><ele>763.0</ele><time>2026-04-27T16:22:13.999Z</time></trkpt><trkpt lat="42.24848717589605" lon="13.715712872676065"><ele>765.5</ele><time>2026-04-27T16:22:14.999Z</time></trkpt><trkpt lat="42.24861419632767" lon="13.715838618294393"><ele>768.0</ele><time>2026-04-27T16:22:15.999Z</time></trkpt><trkpt lat="42.24874245475945" lon="13.715960554398434"><ele>767.0</ele><time>2026-04-27T16:22:16.999Z</time></trkpt><trkpt lat="42.24886976245982" lon="13.716085015818326"><ele>766.0</ele><time>2026-04-27T16:22:17.999Z</time></trkpt><trkpt lat="42.24899618336198" lon="13.716198986377863"><ele>765.0</ele><time>2026-04-27T16:22:18.999Z</time></trkpt><trkpt lat="42.24912244210069" lon="13.716284609888582"><ele>765.0</ele><time>2026-04-27T16:22:19.999Z</time></trkpt><trkpt lat="42.24923279670909" lon="13.716355823218331"><ele>765.0</ele><time>2026-04-27T16:22:20.999Z</time></trkpt><trkpt lat="42.2493236104422" lon="13.716432526066882"><ele>765.0</ele><time>2026-04-27T16:22:21.999Z</time></trkpt><trkpt lat="42.249387168301" lon="13.716520572044908"><ele>765.0</ele><time>2026-04-27T16:22:22.999Z</time></trkpt><trkpt lat="42.249350129079964" lon="13.716654627128621"><ele>765.0</ele><time>2026-04-27T16:22:23.999Z</time></trkpt><trkpt lat="42.249377416887" lon="13.716805724197732"><ele>764.0</ele><time>2026-04-27T16:22:24.999Z</time></trkpt><trkpt lat="42.24942379261716" lon="13.716959886111308"><ele>763.0</ele><time>2026-04-27T16:22:25.999Z</time></trkpt><trkpt lat="42.24950294454589" lon="13.717105711428593"><ele>762.0</ele><time>2026-04-27T16:22:26.998Z</time></trkpt><trkpt lat="42.249601762653505" lon="13.717235795256494"><ele>761.0</ele><time>2026-04-27T16:22:27.998Z</time></trkpt><trkpt lat="42.24972589105502" lon="13.717330342769564"><ele>764.0</ele><time>2026-04-27T16:22:28.998Z</time></trkpt><trkpt lat="42.24981527800171" lon="13.717468286488302"><ele>767.0</ele><time>2026-04-27T16:22:29.998Z</time></trkpt><trkpt lat="42.24987940377903" lon="13.71759184859717"><ele>770.0</ele><time>2026-04-27T16:22:30.998Z</time></trkpt><trkpt lat="42.2499112797092" lon="13.717739973515304"><ele>773.0</ele><time>2026-04-27T16:22:31.998Z</time></trkpt><trkpt lat="42.24996475307362" lon="13.717884317731121"><ele>773.0</ele><time>2026-04-27T16:22:32.998Z</time></trkpt><trkpt lat="42.25003368139961" lon="13.71802928461957"><ele>773.0</ele><time>2026-04-27T16:22:33.998Z</time></trkpt><trkpt lat="42.25012143565819" lon="13.718166064299808"><ele>773.0</ele><time>2026-04-27T16:22:34.998Z</time></trkpt><trkpt lat="42.25020857890529" lon="13.71830721194793"><ele>773.0</ele><time>2026-04-27T16:22:35.998Z</time></trkpt><trkpt lat="42.25030951241773" lon="13.718428851583063"><ele>773.0</ele><time>2026-04-27T16:22:36.998Z</time></trkpt><trkpt lat="42.250401633854345" lon="13.718547812317198"><ele>773.0</ele><time>2026-04-27T16:22:37.998Z</time></trkpt><trkpt lat="42.25050881564975" lon="13.718656439929138"><ele>773.0</ele><time>2026-04-27T16:22:38.998Z</time></trkpt><trkpt lat="42.25062424724837" lon="13.71875167869354"><ele>773.0</ele><time>2026-04-27T16:22:39.998Z</time></trkpt><trkpt lat="42.25075219966103" lon="13.718819079723554"><ele>773.0</ele><time>2026-04-27T16:22:40.998Z</time></trkpt><trkpt lat="42.250883465898355" lon="13.718861553196762"><ele>773.0</ele><time>2026-04-27T16:22:41.998Z</time></trkpt><trkpt lat="42.251015053181156" lon="13.718914530748435"><ele>773.0</ele><time>2026-04-27T16:22:42.998Z</time></trkpt><trkpt lat="42.25114219083265" lon="13.718994894635786"><ele>773.0</ele><time>2026-04-27T16:22:43.998Z</time></trkpt><trkpt lat="42.251244803133964" lon="13.71911873150723"><ele>773.0</ele><time>2026-04-27T16:22:44.998Z</time></trkpt><trkpt lat="42.25133703834553" lon="13.719251212901215"><ele>773.0</ele><time>2026-04-27T16:22:45.998Z</time></trkpt><trkpt lat="42.25142239462648" lon="13.719391353448108"><ele>773.0</ele><time>2026-04-27T16:22:46.998Z</time></trkpt><trkpt lat="42.25152458554252" lon="13.719506349294715"><ele>773.0</ele><time>2026-04-27T16:22:47.998Z</time></trkpt><trkpt lat="42.25162890510888" lon="13.719619960494732"><ele>774.75</ele><time>2026-04-27T16:22:48.998Z</time></trkpt><trkpt lat="42.251754593686016" lon="13.719712566986276"><ele>776.5</ele><time>2026-04-27T16:22:49.998Z</time></trkpt><trkpt lat="42.25188413913665" lon="13.719809777586258"><ele>778.25</ele><time>2026-04-27T16:22:50.998Z</time></trkpt><trkpt lat="42.25200987786962" lon="13.71991633411036"><ele>780.0</ele><time>2026-04-27T16:22:51.998Z</time></trkpt><trkpt lat="42.25212207538352" lon="13.720047027752665"><ele>780.0</ele><time>2026-04-27T16:22:52.998Z</time></trkpt><trkpt lat="42.25224397661787" lon="13.720159291701783"><ele>780.0</ele><time>2026-04-27T16:22:53.998Z</time></trkpt><trkpt lat="42.252365863478666" lon="13.720271383301073"><ele>780.0</ele><time>2026-04-27T16:22:54.998Z</time></trkpt><trkpt lat="42.25248383418851" lon="13.72039744696017"><ele>780.0</ele><time>2026-04-27T16:22:55.998Z</time></trkpt><trkpt lat="42.252609166148936" lon="13.720510640865404"><ele>779.0</ele><time>2026-04-27T16:22:56.998Z</time></trkpt><trkpt lat="42.25274610780605" lon="13.72060568452965"><ele>778.0</ele><time>2026-04-27T16:22:57.998Z</time></trkpt><trkpt lat="42.25289354824774" lon="13.720695643392729"><ele>777.0</ele><time>2026-04-27T16:22:58.998Z</time></trkpt><trkpt lat="42.25304847992866" lon="13.720778238133628"><ele>779.75</ele><time>2026-04-27T16:22:59.998Z</time></trkpt><trkpt lat="42.25320342914746" lon="13.720855786042462"><ele>782.5</ele><time>2026-04-27T16:23:00.998Z</time></trkpt><trkpt lat="42.253344028852624" lon="13.720906375684667"><ele>785.25</ele><time>2026-04-27T16:23:01.998Z</time></trkpt><trkpt lat="42.253464688964236" lon="13.72094953852924"><ele>788.0</ele><time>2026-04-27T16:23:02.998Z</time></trkpt><trkpt lat="42.25355526993494" lon="13.720994170002706"><ele>786.4</ele><time>2026-04-27T16:23:03.998Z</time></trkpt><trkpt lat="42.25360003774726" lon="13.721096216895155"><ele>784.8</ele><time>2026-04-27T16:23:04.998Z</time></trkpt><trkpt lat="42.25362747903081" lon="13.721219060454978"><ele>783.2</ele><time>2026-04-27T16:23:05.998Z</time></trkpt><trkpt lat="42.2536692291774" lon="13.72135093829718"><ele>781.6</ele><time>2026-04-27T16:23:06.998Z</time></trkpt><trkpt lat="42.25369285498429" lon="13.721473952844738"><ele>780.0</ele><time>2026-04-27T16:23:07.998Z</time></trkpt><trkpt lat="42.25368875482374" lon="13.72157237807566"><ele>780.0</ele><time>2026-04-27T16:23:09Z</time></trkpt><trkpt lat="42.253658786728984" lon="13.721650482080438"><ele>780.0</ele><time>2026-04-27T16:23:10Z</time></trkpt><trkpt lat="42.253609171900976" lon="13.721705611736422"><ele>780.0</ele><time>2026-04-27T16:23:11Z</time></trkpt><trkpt lat="42.2535506133617" lon="13.721795170490779"><ele>780.0</ele><time>2026-04-27T16:23:12Z</time></trkpt><trkpt lat="42.25348331247259" lon="13.721903526124063"><ele>780.0</ele><time>2026-04-27T16:23:13Z</time></trkpt><trkpt lat="42.25341569348353" lon="13.722036662334908"><ele>780.0</ele><time>2026-04-27T16:23:14Z</time></trkpt><trkpt lat="42.25335894692634" lon="13.722179026550883"><ele>781.0</ele><time>2026-04-27T16:23:15Z</time></trkpt><trkpt lat="42.2533580474057" lon="13.722339527713785"><ele>782.0</ele><time>2026-04-27T16:23:16Z</time></trkpt><trkpt lat="42.253384465884125" lon="13.722459879923749"><ele>783.0</ele><time>2026-04-27T16:23:17Z</time></trkpt><trkpt lat="42.25341643576327" lon="13.722580740420103"><ele>784.0</ele><time>2026-04-27T16:23:18Z</time></trkpt><trkpt lat="42.25345588872566" lon="13.722717754593464"><ele>785.0</ele><time>2026-04-27T16:23:19Z</time></trkpt><trkpt lat="42.253514485457906" lon="13.722861995396062"><ele>786.25</ele><time>2026-04-27T16:23:20Z</time></trkpt><trkpt lat="42.25357183563552" lon="13.723004709491695"><ele>787.5</ele><time>2026-04-27T16:23:21Z</time></trkpt><trkpt lat="42.25362842340789" lon="13.723153777860707"><ele>788.75</ele><time>2026-04-27T16:23:22Z</time></trkpt><trkpt lat="42.25368387912228" lon="13.72329986404845"><ele>790.0</ele><time>2026-04-27T16:23:23Z</time></trkpt><trkpt lat="42.253738817896505" lon="13.723445639787144"><ele>790.6</ele><time>2026-04-27T16:23:24Z</time></trkpt><trkpt lat="42.25378806839933" lon="13.723592768168185"><ele>791.2</ele><time>2026-04-27T16:23:25Z</time></trkpt><trkpt lat="42.253833279764606" lon="13.723736312126553"><ele>791.8</ele><time>2026-04-27T16:23:26Z</time></trkpt><trkpt lat="42.25386901290691" lon="13.723861812754045"><ele>792.4</ele><time>2026-04-27T16:23:27Z</time></trkpt><trkpt lat="42.25390424907496" lon="13.723976538618059"><ele>793.0</ele><time>2026-04-27T16:23:28Z</time></trkpt><trkpt lat="42.2539647738535" lon="13.724069442849677"><ele>791.4999999999999</ele><time>2026-04-27T16:23:29Z</time></trkpt><trkpt lat="42.254032710057594" lon="13.724153458824542"><ele>790.0</ele><time>2026-04-27T16:23:29.999Z</time></trkpt><trkpt lat="42.25411408565886" lon="13.724204182115418"><ele>788.5</ele><time>2026-04-27T16:23:30.999Z</time></trkpt><trkpt lat="42.254179192379475" lon="13.724186184401756"><ele>787.0</ele><time>2026-04-27T16:23:31.999Z</time></trkpt><trkpt lat="42.25424812852989" lon="13.72418271910488"><ele>785.4999999999999</ele><time>2026-04-27T16:23:33.999Z</time></trkpt><trkpt lat="42.254364975404016" lon="13.724187683493673"><ele>784.0</ele><time>2026-04-27T16:23:35.999Z</time></trkpt><trkpt lat="42.254443246212205" lon="13.724186142330726"><ele>784.0</ele><time>2026-04-27T16:23:36.999Z</time></trkpt><trkpt lat="42.254529439492394" lon="13.724179086502826"><ele>784.0</ele><time>2026-04-27T16:23:37.999Z</time></trkpt><trkpt lat="42.25461565452496" lon="13.724165920996764"><ele>784.0</ele><time>2026-04-27T16:23:38.999Z</time></trkpt><trkpt lat="42.254725336802316" lon="13.724148691488672"><ele>784.0</ele><time>2026-04-27T16:23:39.999Z</time></trkpt><trkpt lat="42.254849144555" lon="13.724138193798453"><ele>784.0</ele><time>2026-04-27T16:23:40.999Z</time></trkpt><trkpt lat="42.25496206364504" lon="13.72413716649612"><ele>784.2</ele><time>2026-04-27T16:23:41.999Z</time></trkpt><trkpt lat="42.25506907069692" lon="13.724139681832023"><ele>784.4000000000001</ele><time>2026-04-27T16:23:42.999Z</time></trkpt><trkpt lat="42.255164968092686" lon="13.72414454355734"><ele>784.6</ele><time>2026-04-27T16:23:43.999Z</time></trkpt><trkpt lat="42.25527624347786" lon="13.724152681248286"><ele>784.8</ele><time>2026-04-27T16:23:44.999Z</time></trkpt><trkpt lat="42.25535742364184" lon="13.724180879250412"><ele>785.0</ele><time>2026-04-27T16:23:45.999Z</time></trkpt><trkpt lat="42.255366998945256" lon="13.725159715274124"><ele>777.0</ele><time>2026-04-27T16:23:47.999Z</time></trkpt><trkpt lat="42.25540165165585" lon="13.725337983796875"><ele>769.0</ele><time>2026-04-27T16:23:48.999Z</time></trkpt><trkpt lat="42.25545336990433" lon="13.725523784349354"><ele>761.0</ele><time>2026-04-27T16:23:49.999Z</time></trkpt><trkpt lat="42.2555131336547" lon="13.725714623905855"><ele>753.0</ele><time>2026-04-27T16:23:50.999Z</time></trkpt><trkpt lat="42.25557393501405" lon="13.72590848594083"><ele>756.0</ele><time>2026-04-27T16:23:51.999Z</time></trkpt><trkpt lat="42.25564063456336" lon="13.726088094909382"><ele>759.0</ele><time>2026-04-27T16:23:52.999Z</time></trkpt><trkpt lat="42.255694214329566" lon="13.726242449688712"><ele>762.0</ele><time>2026-04-27T16:23:53.999Z</time></trkpt><trkpt lat="42.25573645931063" lon="13.726384869380686"><ele>765.0</ele><time>2026-04-27T16:23:54.999Z</time></trkpt><trkpt lat="42.25576172735716" lon="13.726517343016866"><ele>765.0</ele><time>2026-04-27T16:23:55.999Z</time></trkpt><trkpt lat="42.2557478276158" lon="13.726614991588043"><ele>765.0</ele><time>2026-04-27T16:23:56.999Z</time></trkpt><trkpt lat="42.25570167232151" lon="13.726706893686707"><ele>765.0</ele><time>2026-04-27T16:23:57.999Z</time></trkpt><trkpt lat="42.25562913374149" lon="13.726789733143685"><ele>765.0</ele><time>2026-04-27T16:23:58.999Z</time></trkpt><trkpt lat="42.25554728468783" lon="13.726858954960747"><ele>765.0</ele><time>2026-04-27T16:23:59.999Z</time></trkpt><trkpt lat="42.25549264959154" lon="13.726924442071422"><ele>765.0</ele><time>2026-04-27T16:24:00.999Z</time></trkpt><trkpt lat="42.25549357748128" lon="13.72714295093806"><ele>762.8</ele><time>2026-04-27T16:24:02.999Z</time></trkpt><trkpt lat="42.25548842334634" lon="13.727309214744315"><ele>760.6</ele><time>2026-04-27T16:24:03.999Z</time></trkpt><trkpt lat="42.25546246015302" lon="13.72744571967223"><ele>758.4000000000001</ele><time>2026-04-27T16:24:04.999Z</time></trkpt><trkpt lat="42.25545388795692" lon="13.727551355126268"><ele>756.2</ele><time>2026-04-27T16:24:05.999Z</time></trkpt><trkpt lat="42.25552302491487" lon="13.727634013819722"><ele>754.0</ele><time>2026-04-27T16:24:07.999Z</time></trkpt><trkpt lat="42.25563537672112" lon="13.72760459045048"><ele>754.0</ele><time>2026-04-27T16:24:09.999Z</time></trkpt><trkpt lat="42.255696560877794" lon="13.727577215528383"><ele>754.0</ele><time>2026-04-27T16:24:10.999Z</time></trkpt><trkpt lat="42.25581360780877" lon="13.727559289156897"><ele>754.0</ele><time>2026-04-27T16:27:56.999Z</time></trkpt><trkpt lat="42.25588400787196" lon="13.727556945984887"><ele>754.0</ele><time>2026-04-27T16:27:58.999Z</time></trkpt><trkpt lat="42.25598820066044" lon="13.727618281745634"><ele>754.0</ele><time>2026-04-27T16:28:00.999Z</time></trkpt><trkpt lat="42.25611360827673" lon="13.727701422534428"><ele>749.8000000000001</ele><time>2026-04-27T16:28:02.999Z</time></trkpt><trkpt lat="42.25619936900059" lon="13.727756642150037"><ele>745.6</ele><time>2026-04-27T16:28:03.999Z</time></trkpt><trkpt lat="42.25628756934587" lon="13.727827916802646"><ele>741.4</ele><time>2026-04-27T16:28:04.999Z</time></trkpt><trkpt lat="42.25637703172364" lon="13.727908520295955"><ele>737.2</ele><time>2026-04-27T16:28:05.999Z</time></trkpt><trkpt lat="42.25646597466694" lon="13.727984053217964"><ele>733.0</ele><time>2026-04-27T16:28:06.999Z</time></trkpt><trkpt lat="42.25654693926635" lon="13.72805609098228"><ele>733.0</ele><time>2026-04-27T16:28:07.999Z</time></trkpt><trkpt lat="42.256637945319866" lon="13.728130269435525"><ele>733.0</ele><time>2026-04-27T16:28:08.999Z</time></trkpt><trkpt lat="42.256719505167055" lon="13.728226272882694"><ele>733.0</ele><time>2026-04-27T16:28:09.999Z</time></trkpt><trkpt lat="42.25681298250835" lon="13.72830931770637"><ele>733.0</ele><time>2026-04-27T16:28:10.999Z</time></trkpt><trkpt lat="42.25689621426849" lon="13.7283857997026"><ele>733.0</ele><time>2026-04-27T16:28:11.999Z</time></trkpt><trkpt lat="42.25695770501421" lon="13.728468082267007"><ele>733.0</ele><time>2026-04-27T16:28:12.999Z</time></trkpt><trkpt lat="42.25702636269484" lon="13.728559151342822"><ele>733.0</ele><time>2026-04-27T16:28:13.999Z</time></trkpt><trkpt lat="42.257086149845016" lon="13.728636382779802"><ele>733.0</ele><time>2026-04-27T16:28:14.999Z</time></trkpt><trkpt lat="42.25716086708415" lon="13.72870856653349"><ele>733.0</ele><time>2026-04-27T16:28:15.999Z</time></trkpt><trkpt lat="42.257221705977756" lon="13.72877042465949"><ele>733.0</ele><time>2026-04-27T16:28:16.999Z</time></trkpt><trkpt lat="42.25725990415145" lon="13.72885491142929"><ele>733.0</ele><time>2026-04-27T16:28:17.999Z</time></trkpt><trkpt lat="42.257298343399256" lon="13.728956163171102"><ele>730.6666666666667</ele><time>2026-04-27T16:28:18.999Z</time></trkpt><trkpt lat="42.257331453767215" lon="13.729076245177717"><ele>728.3333333333334</ele><time>2026-04-27T16:28:19.999Z</time></trkpt><trkpt lat="42.257369886060175" lon="13.729175358731936"><ele>726.0</ele><time>2026-04-27T16:28:20.999Z</time></trkpt><trkpt lat="42.25740552098777" lon="13.729271423873197"><ele>723.6666666666666</ele><time>2026-04-27T16:28:21.999Z</time></trkpt><trkpt lat="42.25745142230809" lon="13.729358366853894"><ele>721.3333333333333</ele><time>2026-04-27T16:28:22.999Z</time></trkpt><trkpt lat="42.257507999784714" lon="13.729434840406869"><ele>719.0</ele><time>2026-04-27T16:28:23.999Z</time></trkpt><trkpt lat="42.25757503507959" lon="13.729476208617857"><ele>712.2</ele><time>2026-04-27T16:28:24.999Z</time></trkpt><trkpt lat="42.2576679799492" lon="13.729509433358094"><ele>705.4000000000001</ele><time>2026-04-27T16:28:25.999Z</time></trkpt><trkpt lat="42.25776677181901" lon="13.72952696769348"><ele>698.6</ele><time>2026-04-27T16:28:26.999Z</time></trkpt><trkpt lat="42.25785913317229" lon="13.729540144588226"><ele>691.8</ele><time>2026-04-27T16:28:27.999Z</time></trkpt><trkpt lat="42.25796104229772" lon="13.729560979271609"><ele>685.0</ele><time>2026-04-27T16:28:28.999Z</time></trkpt><trkpt lat="42.25806114974605" lon="13.729593495657351"><ele>686.5</ele><time>2026-04-27T16:28:29.999Z</time></trkpt><trkpt lat="42.258175978195624" lon="13.729626654114865"><ele>688.0</ele><time>2026-04-27T16:28:30.999Z</time></trkpt><trkpt lat="42.25828718423828" lon="13.729668764069157"><ele>689.5</ele><time>2026-04-27T16:28:31.999Z</time></trkpt><trkpt lat="42.258390311645876" lon="13.729726759435897"><ele>691.0</ele><time>2026-04-27T16:28:32.999Z</time></trkpt><trkpt lat="42.25848295067338" lon="13.72980278079623"><ele>691.0</ele><time>2026-04-27T16:28:33.999Z</time></trkpt><trkpt lat="42.25858881949548" lon="13.72988019419507"><ele>691.0</ele><time>2026-04-27T16:28:34.999Z</time></trkpt><trkpt lat="42.25870225880219" lon="13.729956298271293"><ele>691.0</ele><time>2026-04-27T16:28:35.999Z</time></trkpt><trkpt lat="42.25882735938203" lon="13.730021424352685"><ele>691.0</ele><time>2026-04-27T16:28:36.999Z</time></trkpt><trkpt lat="42.25895071598029" lon="13.730080314524107"><ele>693.0</ele><time>2026-04-27T16:28:37.998Z</time></trkpt><trkpt lat="42.2590819695995" lon="13.73013672676661"><ele>695.0</ele><time>2026-04-27T16:28:38.998Z</time></trkpt><trkpt lat="42.25920395944495" lon="13.730188073136011"><ele>697.0</ele><time>2026-04-27T16:28:39.998Z</time></trkpt><trkpt lat="42.25931139664463" lon="13.730235922957096"><ele>699.0</ele><time>2026-04-27T16:28:40.998Z</time></trkpt><trkpt lat="42.259402805285866" lon="13.73027840919182"><ele>693.2</ele><time>2026-04-27T16:28:41.998Z</time></trkpt><trkpt lat="42.25950207752393" lon="13.730318515462407"><ele>687.4000000000001</ele><time>2026-04-27T16:28:42.998Z</time></trkpt><trkpt lat="42.25960032276115" lon="13.730361054099227"><ele>681.6</ele><time>2026-04-27T16:28:43.998Z</time></trkpt><trkpt lat="42.25969486701852" lon="13.730414338073738"><ele>675.8</ele><time>2026-04-27T16:28:44.998Z</time></trkpt><trkpt lat="42.259781743788615" lon="13.730469476849654"><ele>670.0</ele><time>2026-04-27T16:28:45.998Z</time></trkpt><trkpt lat="42.25986588262538" lon="13.730503552006079"><ele>670.0</ele><time>2026-04-27T16:28:46.998Z</time></trkpt><trkpt lat="42.259943521193584" lon="13.730534205871102"><ele>670.0</ele><time>2026-04-27T16:28:47.998Z</time></trkpt><trkpt lat="42.26001890111611" lon="13.730578525621787"><ele>670.0</ele><time>2026-04-27T16:28:48.998Z</time></trkpt><trkpt lat="42.26009466061235" lon="13.730630465434503"><ele>670.0</ele><time>2026-04-27T16:28:49.998Z</time></trkpt><trkpt lat="42.260172523159284" lon="13.730677163143907"><ele>670.0</ele><time>2026-04-27T16:28:50.998Z</time></trkpt><trkpt lat="42.26024685626587" lon="13.73072814778772"><ele>670.0</ele><time>2026-04-27T16:28:51.998Z</time></trkpt><trkpt lat="42.260322076706636" lon="13.730788920324486"><ele>670.0</ele><time>2026-04-27T16:28:52.998Z</time></trkpt><trkpt lat="42.2604037269556" lon="13.730843404769983"><ele>670.0</ele><time>2026-04-27T16:28:53.998Z</time></trkpt><trkpt lat="42.260478352465675" lon="13.730903456107685"><ele>670.0</ele><time>2026-04-27T16:28:54.998Z</time></trkpt><trkpt lat="42.26056736453252" lon="13.730972986942472"><ele>670.0</ele><time>2026-04-27T16:28:55.998Z</time></trkpt><trkpt lat="42.26065952461007" lon="13.73105617940501"><ele>670.0</ele><time>2026-04-27T16:28:56.998Z</time></trkpt><trkpt lat="42.260747383307695" lon="13.73114762851254"><ele>667.0</ele><time>2026-04-27T16:28:57.998Z</time></trkpt><trkpt lat="42.26082037034135" lon="13.731233058690417"><ele>664.0</ele><time>2026-04-27T16:28:58.998Z</time></trkpt><trkpt lat="42.26088049303877" lon="13.731322609678388"><ele>661.0</ele><time>2026-04-27T16:28:59.998Z</time></trkpt><trkpt lat="42.26093281605628" lon="13.731408891474606"><ele>658.0</ele><time>2026-04-27T16:29:00.998Z</time></trkpt><trkpt lat="42.26097077411192" lon="13.73150411428475"><ele>655.0</ele><time>2026-04-27T16:29:01.998Z</time></trkpt><trkpt lat="42.26099807827637" lon="13.731595777303639"><ele>652.0</ele><time>2026-04-27T16:29:02.998Z</time></trkpt><trkpt lat="42.26102757840295" lon="13.731681625935781"><ele>652.0</ele><time>2026-04-27T16:29:03.998Z</time></trkpt><trkpt lat="42.261069966366414" lon="13.731765413314184"><ele>652.0</ele><time>2026-04-27T16:29:04.998Z</time></trkpt><trkpt lat="42.26112690043365" lon="13.73184890421084"><ele>652.0</ele><time>2026-04-27T16:29:05.998Z</time></trkpt><trkpt lat="42.26117691251091" lon="13.731930118780816"><ele>652.0</ele><time>2026-04-27T16:29:06.998Z</time></trkpt><trkpt lat="42.26124056362961" lon="13.731998937661261"><ele>652.0</ele><time>2026-04-27T16:29:07.998Z</time></trkpt><trkpt lat="42.26130918549192" lon="13.732024356420247"><ele>652.0</ele><time>2026-04-27T16:29:08.998Z</time></trkpt><trkpt lat="42.261379344375804" lon="13.732007175026688"><ele>651.5</ele><time>2026-04-27T16:29:09.998Z</time></trkpt><trkpt lat="42.261452087723605" lon="13.732010389771137"><ele>651.0</ele><time>2026-04-27T16:29:10.998Z</time></trkpt><trkpt lat="42.26151983842705" lon="13.732039715696244"><ele>650.5</ele><time>2026-04-27T16:29:11.998Z</time></trkpt><trkpt lat="42.26157752796699" lon="13.732103455403152"><ele>650.0</ele><time>2026-04-27T16:29:12.998Z</time></trkpt><trkpt lat="42.26162261673594" lon="13.732207154856303"><ele>649.5</ele><time>2026-04-27T16:29:13.998Z</time></trkpt><trkpt lat="42.26164696790897" lon="13.73232183244223"><ele>649.0</ele><time>2026-04-27T16:29:14.998Z</time></trkpt><trkpt lat="42.26164916950979" lon="13.732438646957789"><ele>649.0</ele><time>2026-04-27T16:29:15.998Z</time></trkpt><trkpt lat="42.261631479404286" lon="13.732557266505456"><ele>649.0</ele><time>2026-04-27T16:29:16.998Z</time></trkpt><trkpt lat="42.26161367733222" lon="13.732678029569817"><ele>649.0</ele><time>2026-04-27T16:29:17.998Z</time></trkpt><trkpt lat="42.26161325146743" lon="13.73279161942915"><ele>649.0</ele><time>2026-04-27T16:29:18.998Z</time></trkpt><trkpt lat="42.261628814453324" lon="13.732906423991782"><ele>649.0</ele><time>2026-04-27T16:29:19.998Z</time></trkpt><trkpt lat="42.2616500556143" lon="13.733030255794352"><ele>649.0</ele><time>2026-04-27T16:29:20.998Z</time></trkpt><trkpt lat="42.26166507131318" lon="13.733179686623597"><ele>646.0</ele><time>2026-04-27T16:29:21.998Z</time></trkpt><trkpt lat="42.2616741140584" lon="13.733346930562913"><ele>643.0</ele><time>2026-04-27T16:29:22.998Z</time></trkpt><trkpt lat="42.26169853630124" lon="13.733487824920473"><ele>640.0</ele><time>2026-04-27T16:29:23.998Z</time></trkpt><trkpt lat="42.261728417192316" lon="13.733619728894"><ele>637.0</ele><time>2026-04-27T16:29:24.998Z</time></trkpt><trkpt lat="42.261759457596035" lon="13.733757646551725"><ele>634.0</ele><time>2026-04-27T16:29:26Z</time></trkpt><trkpt lat="42.26179324548011" lon="13.73390727611381"><ele>633.0</ele><time>2026-04-27T16:29:27Z</time></trkpt><trkpt lat="42.26180506595317" lon="13.734055654306484"><ele>632.0</ele><time>2026-04-27T16:29:28Z</time></trkpt><trkpt lat="42.261786304192256" lon="13.734206872646421"><ele>631.0</ele><time>2026-04-27T16:29:29Z</time></trkpt><trkpt lat="42.261776133249704" lon="13.734335550798209"><ele>630.0</ele><time>2026-04-27T16:29:30Z</time></trkpt><trkpt lat="42.26174177499648" lon="13.734454451942598"><ele>629.0</ele><time>2026-04-27T16:29:31Z</time></trkpt><trkpt lat="42.26169602752162" lon="13.734580399809209"><ele>629.0</ele><time>2026-04-27T16:29:32Z</time></trkpt><trkpt lat="42.26162432584977" lon="13.734699010844697"><ele>629.0</ele><time>2026-04-27T16:29:33Z</time></trkpt><trkpt lat="42.261551954021854" lon="13.734820623375187"><ele>629.0</ele><time>2026-04-27T16:29:34Z</time></trkpt><trkpt lat="42.26148561226905" lon="13.734922079837705"><ele>629.0</ele><time>2026-04-27T16:29:35Z</time></trkpt><trkpt lat="42.261408881172" lon="13.735009359412121"><ele>629.0</ele><time>2026-04-27T16:29:36Z</time></trkpt><trkpt lat="42.261337988851935" lon="13.7350990979693"><ele>625.3333333333333</ele><time>2026-04-27T16:29:36.999Z</time></trkpt><trkpt lat="42.26127650355168" lon="13.735186479843989"><ele>621.6666666666666</ele><time>2026-04-27T16:29:38Z</time></trkpt><trkpt lat="42.26122524363318" lon="13.735258790982328"><ele>618.0</ele><time>2026-04-27T16:29:39Z</time></trkpt><trkpt lat="42.261186504482424" lon="13.735337056191685"><ele>614.3333333333334</ele><time>2026-04-27T16:29:39.999Z</time></trkpt><trkpt lat="42.26117166822908" lon="13.735429204426366"><ele>610.6666666666667</ele><time>2026-04-27T16:29:40.999Z</time></trkpt><trkpt lat="42.26115246009556" lon="13.735524225535162"><ele>607.0</ele><time>2026-04-27T16:29:41.999Z</time></trkpt><trkpt lat="42.26113205657752" lon="13.735632437240728"><ele>606.4</ele><time>2026-04-27T16:29:42.999Z</time></trkpt><trkpt lat="42.26110625578768" lon="13.735754428114843"><ele>605.8000000000001</ele><time>2026-04-27T16:29:43.999Z</time></trkpt><trkpt lat="42.26107839364827" lon="13.735879850208743"><ele>605.2</ele><time>2026-04-27T16:29:45Z</time></trkpt><trkpt lat="42.2610523917589" lon="13.735992010845674"><ele>604.6</ele><time>2026-04-27T16:29:46Z</time></trkpt><trkpt lat="42.26103950868217" lon="13.736086998001028"><ele>604.0</ele><time>2026-04-27T16:29:47Z</time></trkpt><trkpt lat="42.261021003932086" lon="13.736262248170597"><ele>602.6666666666667</ele><time>2026-04-27T16:29:49Z</time></trkpt><trkpt lat="42.26098756293629" lon="13.73635128560486"><ele>601.3333333333334</ele><time>2026-04-27T16:29:51Z</time></trkpt><trkpt lat="42.26099149261525" lon="13.736442343691452"><ele>600.0</ele><time>2026-04-27T16:29:53Z</time></trkpt><trkpt lat="42.26107170088059" lon="13.736525159269437"><ele>598.6666666666666</ele><time>2026-04-27T16:29:55Z</time></trkpt><trkpt lat="42.261133768782" lon="13.736567660466624"><ele>597.3333333333333</ele><time>2026-04-27T16:29:56Z</time></trkpt><trkpt lat="42.26120815855606" lon="13.73663825543328"><ele>596.0</ele><time>2026-04-27T16:29:57Z</time></trkpt><trkpt lat="42.261274051403724" lon="13.736725267068836"><ele>596.0</ele><time>2026-04-27T16:29:58Z</time></trkpt><trkpt lat="42.26133621656362" lon="13.736798599057678"><ele>596.0</ele><time>2026-04-27T16:29:59Z</time></trkpt><trkpt lat="42.26139343877417" lon="13.736871598623074"><ele>596.0</ele><time>2026-04-27T16:30:00Z</time></trkpt><trkpt lat="42.26145786950033" lon="13.736921952213567"><ele>596.0</ele><time>2026-04-27T16:30:01Z</time></trkpt><trkpt lat="42.26152712601295" lon="13.736969914378685"><ele>596.0</ele><time>2026-04-27T16:30:02Z</time></trkpt><trkpt lat="42.26159195306505" lon="13.737003851217043"><ele>596.0</ele><time>2026-04-27T16:30:03Z</time></trkpt><trkpt lat="42.261658357839565" lon="13.73701947273953"><ele>593.5</ele><time>2026-04-27T16:30:04Z</time></trkpt><trkpt lat="42.26174125483409" lon="13.73703192106689"><ele>591.0</ele><time>2026-04-27T16:30:05Z</time></trkpt><trkpt lat="42.26183061334586" lon="13.737055139261672"><ele>588.5</ele><time>2026-04-27T16:30:06Z</time></trkpt><trkpt lat="42.261917387342066" lon="13.73708807070842"><ele>586.0</ele><time>2026-04-27T16:30:07Z</time></trkpt><trkpt lat="42.26199555802064" lon="13.73713804969559"><ele>583.5</ele><time>2026-04-27T16:30:08Z</time></trkpt><trkpt lat="42.262085002111064" lon="13.737183251118832"><ele>581.0</ele><time>2026-04-27T16:30:09Z</time></trkpt><trkpt lat="42.262174380663716" lon="13.737249803350622"><ele>581.0</ele><time>2026-04-27T16:30:10Z</time></trkpt><trkpt lat="42.262253298667964" lon="13.737313299631685"><ele>581.0</ele><time>2026-04-27T16:30:11Z</time></trkpt><trkpt lat="42.26233040416059" lon="13.737364145490426"><ele>581.0</ele><time>2026-04-27T16:30:12Z</time></trkpt><trkpt lat="42.26241069150997" lon="13.737420147114664"><ele>581.0</ele><time>2026-04-27T16:30:13Z</time></trkpt><trkpt lat="42.26248689113533" lon="13.737474588170397"><ele>581.0</ele><time>2026-04-27T16:30:14Z</time></trkpt><trkpt lat="42.26255702411186" lon="13.737527766872244"><ele>581.0</ele><time>2026-04-27T16:30:15Z</time></trkpt><trkpt lat="42.262631921026575" lon="13.737571402157709"><ele>582.25</ele><time>2026-04-27T16:30:16Z</time></trkpt><trkpt lat="42.26271073587522" lon="13.737582124739069"><ele>583.5</ele><time>2026-04-27T16:30:17Z</time></trkpt><trkpt lat="42.262792233671426" lon="13.737593213232996"><ele>584.75</ele><time>2026-04-27T16:30:18Z</time></trkpt><trkpt lat="42.26288821235298" lon="13.7376056554295"><ele>586.0</ele><time>2026-04-27T16:30:19Z</time></trkpt><trkpt lat="42.26298660132008" lon="13.738020586360463"><ele>579.5</ele><time>2026-04-27T16:30:20Z</time></trkpt><trkpt lat="42.26310421999946" lon="13.738025293228251"><ele>573.0</ele><time>2026-04-27T16:30:21Z</time></trkpt><trkpt lat="42.263224492745586" lon="13.738030354294727"><ele>566.5</ele><time>2026-04-27T16:30:22Z</time></trkpt><trkpt lat="42.263341211064315" lon="13.73803526579105"><ele>560.0</ele><time>2026-04-27T16:30:23Z</time></trkpt><trkpt lat="42.26344548476242" lon="13.73803965362015"><ele>560.0</ele><time>2026-04-27T16:30:24Z</time></trkpt><trkpt lat="42.26353423186851" lon="13.7380433880931"><ele>560.0</ele><time>2026-04-27T16:30:25Z</time></trkpt><trkpt lat="42.263610094821956" lon="13.738046580402752"><ele>560.0</ele><time>2026-04-27T16:30:26Z</time></trkpt><trkpt lat="42.26362617227864" lon="13.737774959317917"><ele>560.0</ele><time>2026-04-27T16:30:30Z</time></trkpt><trkpt lat="42.26366056375447" lon="13.737697673927274"><ele>560.0</ele><time>2026-04-27T16:30:57.999Z</time></trkpt><trkpt lat="42.26372634053231" lon="13.737688209702727"><ele>565.2</ele><time>2026-04-27T16:30:58.999Z</time></trkpt><trkpt lat="42.26384472517135" lon="13.737656144975281"><ele>570.4</ele><time>2026-04-27T16:31:00.999Z</time></trkpt><trkpt lat="42.26393620767535" lon="13.737602717165691"><ele>575.6</ele><time>2026-04-27T16:31:02.999Z</time></trkpt><trkpt lat="42.264028275945634" lon="13.73755596715117"><ele>580.8</ele><time>2026-04-27T16:31:04.999Z</time></trkpt><trkpt lat="42.264137765040026" lon="13.737529142188412"><ele>586.0</ele><time>2026-04-27T16:31:06.999Z</time></trkpt><trkpt lat="42.26425758863283" lon="13.737528507769632"><ele>586.0</ele><time>2026-04-27T16:31:08.999Z</time></trkpt><trkpt lat="42.264323130241834" lon="13.737538346218948"><ele>586.0</ele><time>2026-04-27T16:31:09.999Z</time></trkpt><trkpt lat="42.264438653349266" lon="13.737555335373633"><ele>586.0</ele><time>2026-04-27T16:31:11.999Z</time></trkpt><trkpt lat="42.26455297694456" lon="13.737532087869116"><ele>586.0</ele><time>2026-04-27T16:31:13.999Z</time></trkpt><trkpt lat="42.26465728848701" lon="13.73747951730087"><ele>586.0</ele><time>2026-04-27T16:31:15.999Z</time></trkpt><trkpt lat="42.264751660342846" lon="13.7374025909534"><ele>585.3333333333334</ele><time>2026-04-27T16:31:17.999Z</time></trkpt><trkpt lat="42.26482419742813" lon="13.737387436610325"><ele>584.6666666666667</ele><time>2026-04-27T16:31:18.999Z</time></trkpt><trkpt lat="42.26490693000364" lon="13.737374748106445"><ele>584.0</ele><time>2026-04-27T16:31:19.999Z</time></trkpt><trkpt lat="42.26499235302482" lon="13.737380042690733"><ele>583.3333333333334</ele><time>2026-04-27T16:31:20.999Z</time></trkpt><trkpt lat="42.26507675907171" lon="13.73741807215133"><ele>582.6666666666666</ele><time>2026-04-27T16:31:21.999Z</time></trkpt><trkpt lat="42.2651494939582" lon="13.737474821721092"><ele>582.0</ele><time>2026-04-27T16:31:22.999Z</time></trkpt><trkpt lat="42.26521181154921" lon="13.737504905065741"><ele>582.0</ele><time>2026-04-27T16:31:23.999Z</time></trkpt><trkpt lat="42.265320469061486" lon="13.737462257462175"><ele>582.0</ele><time>2026-04-27T16:31:25.999Z</time></trkpt><trkpt lat="42.26538895058851" lon="13.73741619729008"><ele>582.0</ele><time>2026-04-27T16:31:26.999Z</time></trkpt><trkpt lat="42.26547729186592" lon="13.737392053464442"><ele>582.0</ele><time>2026-04-27T16:31:27.999Z</time></trkpt><trkpt lat="42.26557914565673" lon="13.73737502172557"><ele>582.0</ele><time>2026-04-27T16:31:28.999Z</time></trkpt><trkpt lat="42.26568816889673" lon="13.737368663343783"><ele>582.2</ele><time>2026-04-27T16:31:29.999Z</time></trkpt><trkpt lat="42.26579958761638" lon="13.737384089277175"><ele>582.4000000000001</ele><time>2026-04-27T16:31:30.999Z</time></trkpt><trkpt lat="42.26588713097366" lon="13.737385361487657"><ele>582.5999999999999</ele><time>2026-04-27T16:31:32Z</time></trkpt><trkpt lat="42.265981656172315" lon="13.737360803683265"><ele>582.8</ele><time>2026-04-27T16:31:33Z</time></trkpt><trkpt lat="42.26607681593556" lon="13.737358300574742"><ele>583.0</ele><time>2026-04-27T16:31:34Z</time></trkpt><trkpt lat="42.266166719761735" lon="13.737391529974634"><ele>583.0</ele><time>2026-04-27T16:31:35Z</time></trkpt><trkpt lat="42.2662720650637" lon="13.737390974293344"><ele>583.0</ele><time>2026-04-27T16:31:36Z</time></trkpt><trkpt lat="42.26636737291971" lon="13.737347303442716"><ele>583.0</ele><time>2026-04-27T16:31:37Z</time></trkpt><trkpt lat="42.2664674378923" lon="13.73727518825397"><ele>583.0</ele><time>2026-04-27T16:31:38Z</time></trkpt><trkpt lat="42.26657698796119" lon="13.737194148709866"><ele>583.0</ele><time>2026-04-27T16:31:39Z</time></trkpt><trkpt lat="42.266699222516145" lon="13.737137493788643"><ele>581.75</ele><time>2026-04-27T16:31:40Z</time></trkpt><trkpt lat="42.266823801542714" lon="13.737081122790277"><ele>580.5</ele><time>2026-04-27T16:31:41Z</time></trkpt><trkpt lat="42.266942801871" lon="13.737011665467616"><ele>579.25</ele><time>2026-04-27T16:31:42Z</time></trkpt><trkpt lat="42.26704992056287" lon="13.73695498022769"><ele>578.0</ele><time>2026-04-27T16:31:43Z</time></trkpt><trkpt lat="42.26718019462715" lon="13.736916524649576"><ele>583.5</ele><time>2026-04-27T16:31:44Z</time></trkpt><trkpt lat="42.26732529785727" lon="13.73687599309557"><ele>589.0</ele><time>2026-04-27T16:31:45Z</time></trkpt><trkpt lat="42.26744410731871" lon="13.736818116456574"><ele>594.5</ele><time>2026-04-27T16:31:46Z</time></trkpt><trkpt lat="42.267539594170536" lon="13.736763534506748"><ele>600.0</ele><time>2026-04-27T16:31:47Z</time></trkpt><trkpt lat="42.26761589571428" lon="13.736738573211634"><ele>600.0</ele><time>2026-04-27T16:31:48Z</time></trkpt><trkpt lat="42.267697393422424" lon="13.736756114438803"><ele>600.0</ele><time>2026-04-27T16:31:49Z</time></trkpt><trkpt lat="42.267773794203855" lon="13.736787798316753"><ele>600.0</ele><time>2026-04-27T16:31:50Z</time></trkpt><trkpt lat="42.26785649445203" lon="13.736781665588015"><ele>600.0</ele><time>2026-04-27T16:31:51Z</time></trkpt><trkpt lat="42.267938706943504" lon="13.736742610248333"><ele>600.0</ele><time>2026-04-27T16:31:52Z</time></trkpt><trkpt lat="42.26802412393419" lon="13.7366724693404"><ele>600.0</ele><time>2026-04-27T16:31:53Z</time></trkpt><trkpt lat="42.2681119351598" lon="13.736615896419801"><ele>598.25</ele><time>2026-04-27T16:31:54Z</time></trkpt><trkpt lat="42.26823751410533" lon="13.736556462315553"><ele>596.5</ele><time>2026-04-27T16:31:55Z</time></trkpt><trkpt lat="42.268371127148676" lon="13.73648979227421"><ele>594.75</ele><time>2026-04-27T16:31:56Z</time></trkpt><trkpt lat="42.26850178833899" lon="13.736409850141087"><ele>593.0</ele><time>2026-04-27T16:31:57Z</time></trkpt><trkpt lat="42.26861415762779" lon="13.736341834435848"><ele>593.0</ele><time>2026-04-27T16:31:58Z</time></trkpt><trkpt lat="42.268710371512505" lon="13.736291724612446"><ele>593.0</ele><time>2026-04-27T16:31:59Z</time></trkpt><trkpt lat="42.26879559672829" lon="13.736248294988947"><ele>593.0</ele><time>2026-04-27T16:32:00Z</time></trkpt><trkpt lat="42.2688763481625" lon="13.736232686924517"><ele>593.0</ele><time>2026-04-27T16:32:01Z</time></trkpt><trkpt lat="42.26894869652598" lon="13.7361960892063"><ele>593.0</ele><time>2026-04-27T16:32:02Z</time></trkpt><trkpt lat="42.269042636938515" lon="13.736127121624794"><ele>590.4</ele><time>2026-04-27T16:32:03Z</time></trkpt><trkpt lat="42.269162055212554" lon="13.736056118053007"><ele>587.8</ele><time>2026-04-27T16:32:04Z</time></trkpt><trkpt lat="42.269287702540865" lon="13.736007615319494"><ele>585.2</ele><time>2026-04-27T16:32:05Z</time></trkpt><trkpt lat="42.269378288983276" lon="13.735990374397666"><ele>582.6</ele><time>2026-04-27T16:32:06Z</time></trkpt><trkpt lat="42.26946223742618" lon="13.736003548047186"><ele>580.0</ele><time>2026-04-27T16:32:07Z</time></trkpt><trkpt lat="42.26954730972909" lon="13.736054233760633"><ele>580.0</ele><time>2026-04-27T16:32:08Z</time></trkpt><trkpt lat="42.269615012833164" lon="13.736078991927494"><ele>580.0</ele><time>2026-04-27T16:32:09Z</time></trkpt><trkpt lat="42.269742395601845" lon="13.735994280817641"><ele>580.0</ele><time>2026-04-27T16:32:11Z</time></trkpt><trkpt lat="42.26982277461397" lon="13.735925303270902"><ele>580.0</ele><time>2026-04-27T16:32:12Z</time></trkpt><trkpt lat="42.26991068897456" lon="13.735869831265168"><ele>580.0</ele><time>2026-04-27T16:32:13Z</time></trkpt><trkpt lat="42.27000205894984" lon="13.735806489262977"><ele>583.25</ele><time>2026-04-27T16:32:14Z</time></trkpt><trkpt lat="42.27009600540164" lon="13.735720064260487"><ele>586.5</ele><time>2026-04-27T16:32:15Z</time></trkpt><trkpt lat="42.27019655387092" lon="13.735617275060125"><ele>589.75</ele><time>2026-04-27T16:32:16Z</time></trkpt><trkpt lat="42.270303852668356" lon="13.73551638594165"><ele>593.0</ele><time>2026-04-27T16:32:17Z</time></trkpt><trkpt lat="42.27040649506982" lon="13.735410136547499"><ele>593.0</ele><time>2026-04-27T16:32:18Z</time></trkpt><trkpt lat="42.270512236479746" lon="13.735312092023056"><ele>593.0</ele><time>2026-04-27T16:32:19Z</time></trkpt><trkpt lat="42.27062019714788" lon="13.735233428214286"><ele>593.0</ele><time>2026-04-27T16:32:20Z</time></trkpt><trkpt lat="42.270728327018524" lon="13.735157971003765"><ele>593.0</ele><time>2026-04-27T16:32:21Z</time></trkpt><trkpt lat="42.27084237684263" lon="13.735072505058874"><ele>595.25</ele><time>2026-04-27T16:32:22Z</time></trkpt><trkpt lat="42.27096228939446" lon="13.734978542518558"><ele>597.5</ele><time>2026-04-27T16:32:23Z</time></trkpt><trkpt lat="42.27109501051466" lon="13.734900499325242"><ele>599.75</ele><time>2026-04-27T16:32:24Z</time></trkpt><trkpt lat="42.27121297850865" lon="13.734826717419237"><ele>602.0</ele><time>2026-04-27T16:32:25Z</time></trkpt><trkpt lat="42.2713054251936" lon="13.734761068982188"><ele>602.0</ele><time>2026-04-27T16:32:26Z</time></trkpt><trkpt lat="42.271398569610554" lon="13.734732804036934"><ele>602.0</ele><time>2026-04-27T16:32:27Z</time></trkpt><trkpt lat="42.27151158565818" lon="13.734713294935341"><ele>602.0</ele><time>2026-04-27T16:32:28Z</time></trkpt><trkpt lat="42.27164062072074" lon="13.734662086331104"><ele>602.0</ele><time>2026-04-27T16:32:29Z</time></trkpt><trkpt lat="42.27174376519216" lon="13.734592167011769"><ele>598.0</ele><time>2026-04-27T16:32:30Z</time></trkpt><trkpt lat="42.271843490351856" lon="13.734541447799286"><ele>594.0</ele><time>2026-04-27T16:32:31Z</time></trkpt><trkpt lat="42.2719540059558" lon="13.73451908515962"><ele>590.0</ele><time>2026-04-27T16:32:32Z</time></trkpt><trkpt lat="42.27208289796824" lon="13.73450929924536"><ele>586.0</ele><time>2026-04-27T16:32:33Z</time></trkpt><trkpt lat="42.27221043149947" lon="13.734492656477927"><ele>586.6</ele><time>2026-04-27T16:32:34Z</time></trkpt><trkpt lat="42.27232073773343" lon="13.734482764366952"><ele>587.2</ele><time>2026-04-27T16:32:35Z</time></trkpt><trkpt lat="42.27241300197686" lon="13.734474165881373"><ele>587.8</ele><time>2026-04-27T16:32:36Z</time></trkpt><trkpt lat="42.272501015796536" lon="13.734443313357785"><ele>588.4</ele><time>2026-04-27T16:32:37Z</time></trkpt><trkpt lat="42.2725894891391" lon="13.734382432393717"><ele>589.0</ele><time>2026-04-27T16:32:38Z</time></trkpt><trkpt lat="42.272670362945455" lon="13.734313757764792"><ele>589.0</ele><time>2026-04-27T16:32:39Z</time></trkpt><trkpt lat="42.27274103839406" lon="13.734272315033202"><ele>589.0</ele><time>2026-04-27T16:32:40Z</time></trkpt><trkpt lat="42.27280494733752" lon="13.734236481019758"><ele>589.0</ele><time>2026-04-27T16:32:41Z</time></trkpt><trkpt lat="42.272897985045255" lon="13.734197038598"><ele>589.0</ele><time>2026-04-27T16:32:43Z</time></trkpt><trkpt lat="42.27290362993832" lon="13.734305511094842"><ele>589.0</ele><time>2026-04-27T16:32:45.999Z</time></trkpt><trkpt lat="42.2727809703886" lon="13.73437196551174"><ele>585.0</ele><time>2026-04-27T16:32:47.999Z</time></trkpt><trkpt lat="42.27270457165555" lon="13.734414910296074"><ele>581.0</ele><time>2026-04-27T16:32:48.999Z</time></trkpt><trkpt lat="42.272637297405744" lon="13.734497956835279"><ele>577.0</ele><time>2026-04-27T16:32:49.999Z</time></trkpt><trkpt lat="42.27254362330651" lon="13.734589537286663"><ele>573.0</ele><time>2026-04-27T16:32:50.999Z</time></trkpt><trkpt lat="42.272455052704125" lon="13.734691836459277"><ele>569.0</ele><time>2026-04-27T16:32:51.999Z</time></trkpt><trkpt lat="42.27238014475851" lon="13.734782059344406"><ele>569.0</ele><time>2026-04-27T16:32:52.999Z</time></trkpt><trkpt lat="42.272301075515955" lon="13.734844178251132"><ele>569.0</ele><time>2026-04-27T16:32:53.999Z</time></trkpt><trkpt lat="42.272200726481" lon="13.734898409195873"><ele>569.0</ele><time>2026-04-27T16:32:54.999Z</time></trkpt><trkpt lat="42.27207430519296" lon="13.73495617385428"><ele>569.0</ele><time>2026-04-27T16:32:55.999Z</time></trkpt><trkpt lat="42.27194942761096" lon="13.735020503050407"><ele>566.25</ele><time>2026-04-27T16:32:56.999Z</time></trkpt><trkpt lat="42.271851652483534" lon="13.73510280285692"><ele>563.5</ele><time>2026-04-27T16:32:57.999Z</time></trkpt><trkpt lat="42.27177210078796" lon="13.735187557934319"><ele>560.75</ele><time>2026-04-27T16:32:58.999Z</time></trkpt><trkpt lat="42.27167257000239" lon="13.735268958074233"><ele>558.0</ele><time>2026-04-27T16:32:59.999Z</time></trkpt><trkpt lat="42.271544142762316" lon="13.735357850737747"><ele>564.3333333333334</ele><time>2026-04-27T16:33:00.999Z</time></trkpt><trkpt lat="42.2714061796715" lon="13.735471728276943"><ele>570.6666666666667</ele><time>2026-04-27T16:33:01.999Z</time></trkpt><trkpt lat="42.271269331109586" lon="13.735589073011463"><ele>577.0</ele><time>2026-04-27T16:33:02.999Z</time></trkpt><trkpt lat="42.27114390049317" lon="13.735675787543054"><ele>577.0</ele><time>2026-04-27T16:33:03.999Z</time></trkpt><trkpt lat="42.27103626753077" lon="13.735752721452585"><ele>577.0</ele><time>2026-04-27T16:33:04.999Z</time></trkpt><trkpt lat="42.27095984082393" lon="13.735833770735558"><ele>577.0</ele><time>2026-04-27T16:33:05.999Z</time></trkpt><trkpt lat="42.270894399105565" lon="13.735928797710606"><ele>577.0</ele><time>2026-04-27T16:33:06.999Z</time></trkpt><trkpt lat="42.27079033099773" lon="13.73602820775734"><ele>577.0</ele><time>2026-04-27T16:33:07.999Z</time></trkpt><trkpt lat="42.27066754473238" lon="13.736130410128602"><ele>576.0</ele><time>2026-04-27T16:33:08.999Z</time></trkpt><trkpt lat="42.270539985638585" lon="13.73624405180796"><ele>575.0</ele><time>2026-04-27T16:33:09.999Z</time></trkpt><trkpt lat="42.2704033110197" lon="13.73636603911844"><ele>574.0</ele><time>2026-04-27T16:33:10.999Z</time></trkpt><trkpt lat="42.270271749542715" lon="13.736481142040079"><ele>574.0</ele><time>2026-04-27T16:33:11.999Z</time></trkpt><trkpt lat="42.27015681183772" lon="13.736601523858287"><ele>574.0</ele><time>2026-04-27T16:33:12.999Z</time></trkpt><trkpt lat="42.2700544980058" lon="13.73671721891457"><ele>574.0</ele><time>2026-04-27T16:33:13.999Z</time></trkpt><trkpt lat="42.269963312326794" lon="13.73680828097671"><ele>574.0</ele><time>2026-04-27T16:33:14.999Z</time></trkpt><trkpt lat="42.26987027149398" lon="13.73689922756237"><ele>569.75</ele><time>2026-04-27T16:33:15.999Z</time></trkpt><trkpt lat="42.269777494512944" lon="13.73699323397195"><ele>565.5</ele><time>2026-04-27T16:33:16.999Z</time></trkpt><trkpt lat="42.269682311032646" lon="13.737067704573688"><ele>561.25</ele><time>2026-04-27T16:33:17.999Z</time></trkpt><trkpt lat="42.2695758840219" lon="13.737131279443917"><ele>557.0</ele><time>2026-04-27T16:33:18.999Z</time></trkpt><trkpt lat="42.26942979641588" lon="13.73722017203468"><ele>557.0</ele><time>2026-04-27T16:33:19.999Z</time></trkpt><trkpt lat="42.26928788789145" lon="13.737295163767135"><ele>557.0</ele><time>2026-04-27T16:33:20.999Z</time></trkpt><trkpt lat="42.269171078733585" lon="13.737355408788622"><ele>557.0</ele><time>2026-04-27T16:33:21.999Z</time></trkpt><trkpt lat="42.26906952464691" lon="13.737384486674346"><ele>557.0</ele><time>2026-04-27T16:33:22.999Z</time></trkpt><trkpt lat="42.26894405277318" lon="13.737402005314818"><ele>558.6666666666666</ele><time>2026-04-27T16:33:23.999Z</time></trkpt><trkpt lat="42.2687937623353" lon="13.737409484505518"><ele>560.3333333333334</ele><time>2026-04-27T16:33:24.999Z</time></trkpt><trkpt lat="42.268629728963234" lon="13.737432573561199"><ele>562.0</ele><time>2026-04-27T16:33:25.999Z</time></trkpt><trkpt lat="42.268477315556964" lon="13.73746416548562"><ele>562.0</ele><time>2026-04-27T16:33:26.999Z</time></trkpt><trkpt lat="42.268330035051676" lon="13.737501752007825"><ele>562.0</ele><time>2026-04-27T16:33:27.999Z</time></trkpt><trkpt lat="42.268198041082265" lon="13.737556384476795"><ele>562.0</ele><time>2026-04-27T16:33:28.999Z</time></trkpt><trkpt lat="42.2680761249699" lon="13.737611871779253"><ele>562.0</ele><time>2026-04-27T16:33:29.999Z</time></trkpt><trkpt lat="42.26795884665764" lon="13.737655159032233"><ele>563.5</ele><time>2026-04-27T16:33:30.999Z</time></trkpt><trkpt lat="42.26785686950866" lon="13.737696566147605"><ele>565.0</ele><time>2026-04-27T16:33:31.999Z</time></trkpt><trkpt lat="42.26778215518566" lon="13.737710102989654"><ele>566.5</ele><time>2026-04-27T16:33:32.999Z</time></trkpt><trkpt lat="42.267694143614335" lon="13.737695954317104"><ele>568.0</ele><time>2026-04-27T16:33:33.999Z</time></trkpt><trkpt lat="42.2675928554427" lon="13.73767506087058"><ele>569.5</ele><time>2026-04-27T16:33:34.999Z</time></trkpt><trkpt lat="42.26752784405602" lon="13.737704111256322"><ele>571.0</ele><time>2026-04-27T16:33:35.999Z</time></trkpt><trkpt lat="42.26746393058849" lon="13.73779674576422"><ele>567.0</ele><time>2026-04-27T16:33:36.999Z</time></trkpt><trkpt lat="42.26740355962712" lon="13.737887899822608"><ele>563.0</ele><time>2026-04-27T16:33:38Z</time></trkpt><trkpt lat="42.267322591952215" lon="13.737949265444351"><ele>559.0</ele><time>2026-04-27T16:33:39Z</time></trkpt><trkpt lat="42.267229787520726" lon="13.738005084799017"><ele>555.0</ele><time>2026-04-27T16:33:40Z</time></trkpt><trkpt lat="42.26714219616058" lon="13.738050164454979"><ele>551.0</ele><time>2026-04-27T16:33:41Z</time></trkpt><trkpt lat="42.26708146477023" lon="13.738082435110803"><ele>547.0</ele><time>2026-04-27T16:33:42Z</time></trkpt><trkpt lat="42.2670163395959" lon="13.738124883880383"><ele>547.0</ele><time>2026-04-27T16:33:44Z</time></trkpt><trkpt lat="42.26701454052961" lon="13.738215046621846"><ele>547.0</ele><time>2026-04-27T16:33:48Z</time></trkpt><trkpt lat="42.26715265408627" lon="13.73819399172791"><ele>547.0</ele><time>2026-04-27T16:33:50Z</time></trkpt><trkpt lat="42.26728778188318" lon="13.738188596669547"><ele>547.0</ele><time>2026-04-27T16:33:51Z</time></trkpt><trkpt lat="42.26742939005447" lon="13.7382148654202"><ele>545.6666666666667</ele><time>2026-04-27T16:33:52Z</time></trkpt><trkpt lat="42.267605398797905" lon="13.738217497395004"><ele>544.3333333333334</ele><time>2026-04-27T16:33:53Z</time></trkpt><trkpt lat="42.267823441964865" lon="13.738244489400289"><ele>543.0</ele><time>2026-04-27T16:33:54Z</time></trkpt><trkpt lat="42.26805638462557" lon="13.738258292665854"><ele>541.3333333333334</ele><time>2026-04-27T16:33:55Z</time></trkpt><trkpt lat="42.26826036495942" lon="13.738272705966622"><ele>539.6666666666667</ele><time>2026-04-27T16:33:56Z</time></trkpt><trkpt lat="42.268455053605685" lon="13.738290443704274"><ele>538.0</ele><time>2026-04-27T16:33:57Z</time></trkpt><trkpt lat="42.2685553943138" lon="13.738314522939225"><ele>538.0</ele><time>2026-04-27T16:33:58Z</time></trkpt><trkpt lat="42.26862294870342" lon="13.738350619702038"><ele>538.0</ele><time>2026-04-27T16:33:59Z</time></trkpt><trkpt lat="42.26870488452854" lon="13.738372316999131"><ele>538.0</ele><time>2026-04-27T16:34:00Z</time></trkpt><trkpt lat="42.26879911771896" lon="13.738361215796408"><ele>538.0</ele><time>2026-04-27T16:34:01Z</time></trkpt><trkpt lat="42.2688963692075" lon="13.738365298526718"><ele>538.0</ele><time>2026-04-27T16:34:02Z</time></trkpt><trkpt lat="42.2689971000034" lon="13.738369527320977"><ele>538.0</ele><time>2026-04-27T16:34:03Z</time></trkpt><trkpt lat="42.26910651141087" lon="13.738374120522478"><ele>538.3333333333334</ele><time>2026-04-27T16:34:04Z</time></trkpt><trkpt lat="42.2692017922643" lon="13.738378122473637"><ele>538.6666666666667</ele><time>2026-04-27T16:34:05Z</time></trkpt><trkpt lat="42.26927495457547" lon="13.738381199611675"><ele>539.0</ele><time>2026-04-27T16:34:06Z</time></trkpt><trkpt lat="42.26935778415725" lon="13.738384683362272"><ele>539.3333333333334</ele><time>2026-04-27T16:34:07Z</time></trkpt><trkpt lat="42.26943013227957" lon="13.738387726273325"><ele>539.6666666666666</ele><time>2026-04-27T16:34:08Z</time></trkpt><trkpt lat="42.26951166256732" lon="13.738447963478944"><ele>540.0</ele><time>2026-04-27T16:34:10Z</time></trkpt><trkpt lat="42.2694649520115" lon="13.739012257411288"><ele>536.5</ele><time>2026-04-27T16:34:11Z</time></trkpt><trkpt lat="42.26935715390327" lon="13.73924300457955"><ele>533.0</ele><time>2026-04-27T16:34:12Z</time></trkpt><trkpt lat="42.2693401752493" lon="13.73938740250315"><ele>529.5</ele><time>2026-04-27T16:34:13Z</time></trkpt><trkpt lat="42.269323175078895" lon="13.739525721761288"><ele>526.0</ele><time>2026-04-27T16:34:14Z</time></trkpt><trkpt lat="42.26929670709709" lon="13.739645237672002"><ele>524.4</ele><time>2026-04-27T16:34:15Z</time></trkpt><trkpt lat="42.269263108600285" lon="13.73977823401653"><ele>522.8</ele><time>2026-04-27T16:34:16Z</time></trkpt><trkpt lat="42.26923055870106" lon="13.73991082070492"><ele>521.1999999999999</ele><time>2026-04-27T16:34:17Z</time></trkpt><trkpt lat="42.269210852457434" lon="13.740041463725529"><ele>519.6</ele><time>2026-04-27T16:34:18Z</time></trkpt><trkpt lat="42.269202426212416" lon="13.740151079279391"><ele>518.0</ele><time>2026-04-27T16:34:19Z</time></trkpt><trkpt lat="42.269177153168954" lon="13.740296255656215"><ele>514.6</ele><time>2026-04-27T16:34:21Z</time></trkpt><trkpt lat="42.26911072652729" lon="13.740370811725533"><ele>511.19999999999993</ele><time>2026-04-27T16:34:22Z</time></trkpt><trkpt lat="42.26902929355314" lon="13.740424214893467"><ele>507.8</ele><time>2026-04-27T16:34:23Z</time></trkpt><trkpt lat="42.268935100821324" lon="13.7404711601081"><ele>504.4</ele><time>2026-04-27T16:34:24Z</time></trkpt><trkpt lat="42.268844214978216" lon="13.740525767887046"><ele>501.0</ele><time>2026-04-27T16:34:25Z</time></trkpt><trkpt lat="42.26876668877095" lon="13.740569471835137"><ele>501.0</ele><time>2026-04-27T16:34:26Z</time></trkpt><trkpt lat="42.26869228439836" lon="13.740594912011694"><ele>501.0</ele><time>2026-04-27T16:34:27Z</time></trkpt><trkpt lat="42.268596548010734" lon="13.74054368870207"><ele>501.0</ele><time>2026-04-27T16:34:29Z</time></trkpt><trkpt lat="42.26856318004447" lon="13.740463168850463"><ele>501.0</ele><time>2026-04-27T16:34:30Z</time></trkpt><trkpt lat="42.268556500773315" lon="13.740338253981008"><ele>501.0</ele><time>2026-04-27T16:34:31Z</time></trkpt><trkpt lat="42.26855512949117" lon="13.740193435932856"><ele>501.0</ele><time>2026-04-27T16:34:32Z</time></trkpt><trkpt lat="42.26853990735612" lon="13.740097596386343"><ele>501.0</ele><time>2026-04-27T16:34:33Z</time></trkpt><trkpt lat="42.268476196039856" lon="13.740004088106927"><ele>501.0</ele><time>2026-04-27T16:34:35Z</time></trkpt><trkpt lat="42.26841067957238" lon="13.740050769168024"><ele>501.0</ele><time>2026-04-27T16:34:36Z</time></trkpt><trkpt lat="42.268334734095916" lon="13.740137067659848"><ele>501.0</ele><time>2026-04-27T16:34:37Z</time></trkpt><trkpt lat="42.26829461906398" lon="13.740247544718084"><ele>501.0</ele><time>2026-04-27T16:34:38Z</time></trkpt><trkpt lat="42.268253252431734" lon="13.740356333853338"><ele>501.0</ele><time>2026-04-27T16:34:39Z</time></trkpt><trkpt lat="42.26819661368041" lon="13.740401757217965"><ele>501.0</ele><time>2026-04-27T16:34:40Z</time></trkpt><trkpt lat="42.26812709214031" lon="13.740437452730875"><ele>501.0</ele><time>2026-04-27T16:34:41Z</time></trkpt><trkpt lat="42.26802957312693" lon="13.74047959451516"><ele>501.0</ele><time>2026-04-27T16:34:42Z</time></trkpt><trkpt lat="42.26790666759" lon="13.740516102653789"><ele>501.0</ele><time>2026-04-27T16:34:43Z</time></trkpt><trkpt lat="42.2678112313542" lon="13.740541797401264"><ele>501.0</ele><time>2026-04-27T16:34:44Z</time></trkpt><trkpt lat="42.267735137219354" lon="13.74054348476819"><ele>499.4</ele><time>2026-04-27T16:34:45Z</time></trkpt><trkpt lat="42.26765907637639" lon="13.740531107633851"><ele>497.8</ele><time>2026-04-27T16:34:46Z</time></trkpt><trkpt lat="42.267569478427575" lon="13.74050232885149"><ele>496.19999999999993</ele><time>2026-04-27T16:34:47Z</time></trkpt><trkpt lat="42.267493394524806" lon="13.740459193453061"><ele>494.59999999999997</ele><time>2026-04-27T16:34:47.999Z</time></trkpt><trkpt lat="42.26741229248918" lon="13.740393816980514"><ele>493.0</ele><time>2026-04-27T16:34:48.999Z</time></trkpt><trkpt lat="42.267312913987745" lon="13.740310200918632"><ele>491.59999999999997</ele><time>2026-04-27T16:34:49.999Z</time></trkpt><trkpt lat="42.26721482248038" lon="13.740247473061743"><ele>490.19999999999993</ele><time>2026-04-27T16:34:50.999Z</time></trkpt><trkpt lat="42.26712653538378" lon="13.74023622188395"><ele>488.8</ele><time>2026-04-27T16:34:51.999Z</time></trkpt><trkpt lat="42.267037870625785" lon="13.740251647643085"><ele>487.4</ele><time>2026-04-27T16:34:52.999Z</time></trkpt><trkpt lat="42.2669495623633" lon="13.740259647570667"><ele>486.0</ele><time>2026-04-27T16:34:53.999Z</time></trkpt><trkpt lat="42.26685034649272" lon="13.74022513050647"><ele>486.0</ele><time>2026-04-27T16:34:54.999Z</time></trkpt><trkpt lat="42.26675406508028" lon="13.740205897632663"><ele>486.0</ele><time>2026-04-27T16:34:55.999Z</time></trkpt><trkpt lat="42.26665960585974" lon="13.740221093577698"><ele>486.0</ele><time>2026-04-27T16:34:56.999Z</time></trkpt><trkpt lat="42.26655572481834" lon="13.740246819502284"><ele>486.0</ele><time>2026-04-27T16:34:57.999Z</time></trkpt><trkpt lat="42.266442355273966" lon="13.740278194554945"><ele>486.0</ele><time>2026-04-27T16:34:58.999Z</time></trkpt><trkpt lat="42.26633287759007" lon="13.740317526425672"><ele>486.20000000000005</ele><time>2026-04-27T16:34:59.999Z</time></trkpt><trkpt lat="42.26624299082952" lon="13.740353405464443"><ele>486.40000000000003</ele><time>2026-04-27T16:35:00.999Z</time></trkpt><trkpt lat="42.26617857435971" lon="13.740412729056182"><ele>486.6</ele><time>2026-04-27T16:35:01.999Z</time></trkpt><trkpt lat="42.266126705733626" lon="13.740505413209439"><ele>486.8</ele><time>2026-04-27T16:35:02.999Z</time></trkpt><trkpt lat="42.26606171722002" lon="13.740617088889538"><ele>487.0</ele><time>2026-04-27T16:35:03.999Z</time></trkpt><trkpt lat="42.26597004647614" lon="13.740698088414245"><ele>487.0</ele><time>2026-04-27T16:35:04.999Z</time></trkpt><trkpt lat="42.265879991396105" lon="13.740788809978417"><ele>487.00000000000006</ele><time>2026-04-27T16:35:05.999Z</time></trkpt><trkpt lat="42.26579685180378" lon="13.740875693813406"><ele>487.00000000000006</ele><time>2026-04-27T16:35:06.999Z</time></trkpt><trkpt lat="42.26572488189636" lon="13.740946963530051"><ele>487.0</ele><time>2026-04-27T16:35:07.999Z</time></trkpt><trkpt lat="42.2656436396662" lon="13.74099472688824"><ele>487.0</ele><time>2026-04-27T16:35:08.999Z</time></trkpt><trkpt lat="42.265549402514004" lon="13.741019619195662"><ele>487.0</ele><time>2026-04-27T16:35:09.999Z</time></trkpt><trkpt lat="42.26544730162146" lon="13.741047609820155"><ele>487.00000000000006</ele><time>2026-04-27T16:35:10.999Z</time></trkpt><trkpt lat="42.265348703307644" lon="13.741067413485649"><ele>487.00000000000006</ele><time>2026-04-27T16:35:11.999Z</time></trkpt><trkpt lat="42.265234196846265" lon="13.741063792252918"><ele>487.0</ele><time>2026-04-27T16:35:12.999Z</time></trkpt><trkpt lat="42.265109698978016" lon="13.741030874787594"><ele>487.0</ele><time>2026-04-27T16:35:13.999Z</time></trkpt><trkpt lat="42.26497597064846" lon="13.740992267440124"><ele>487.0</ele><time>2026-04-27T16:35:14.999Z</time></trkpt><trkpt lat="42.26485377245975" lon="13.740984288802114"><ele>487.0</ele><time>2026-04-27T16:35:15.999Z</time></trkpt><trkpt lat="42.26472947092775" lon="13.741020272347573"><ele>487.0</ele><time>2026-04-27T16:35:16.999Z</time></trkpt><trkpt lat="42.26460794772087" lon="13.741097535061664"><ele>487.0</ele><time>2026-04-27T16:35:17.999Z</time></trkpt><trkpt lat="42.264497146774815" lon="13.741180518960693"><ele>483.75</ele><time>2026-04-27T16:35:18.999Z</time></trkpt><trkpt lat="42.264396139012725" lon="13.741232813818245"><ele>480.5</ele><time>2026-04-27T16:35:19.999Z</time></trkpt><trkpt lat="42.264297942991476" lon="13.741266288090488"><ele>477.25</ele><time>2026-04-27T16:35:20.999Z</time></trkpt><trkpt lat="42.26418018203224" lon="13.741286926055679"><ele>474.0</ele><time>2026-04-27T16:35:21.999Z</time></trkpt><trkpt lat="42.264040790740516" lon="13.741291568967915"><ele>474.0</ele><time>2026-04-27T16:35:22.999Z</time></trkpt><trkpt lat="42.26389025486941" lon="13.741282236397034"><ele>474.0</ele><time>2026-04-27T16:35:23.999Z</time></trkpt><trkpt lat="42.26374620702315" lon="13.741275313073581"><ele>474.0</ele><time>2026-04-27T16:35:24.999Z</time></trkpt><trkpt lat="42.26364166595664" lon="13.741278456993898"><ele>474.0</ele><time>2026-04-27T16:35:25.999Z</time></trkpt><trkpt lat="42.26357699002242" lon="13.74129278960484"><ele>474.0</ele><time>2026-04-27T16:35:26.999Z</time></trkpt><trkpt lat="42.26349741887376" lon="13.741343034128832"><ele>474.0</ele><time>2026-04-27T16:35:28.999Z</time></trkpt><trkpt lat="42.26342920855129" lon="13.741491014147028"><ele>474.0</ele><time>2026-04-27T16:35:30.999Z</time></trkpt><trkpt lat="42.263372767849035" lon="13.741604812872973"><ele>474.0</ele><time>2026-04-27T16:35:32.999Z</time></trkpt><trkpt lat="42.263319047806235" lon="13.741731181548738"><ele>474.0</ele><time>2026-04-27T16:35:34.999Z</time></trkpt><trkpt lat="42.26324811328224" lon="13.741771423669197"><ele>474.0</ele><time>2026-04-27T16:35:35.999Z</time></trkpt><trkpt lat="42.263172899162655" lon="13.741802756134367"><ele>474.0</ele><time>2026-04-27T16:35:36.999Z</time></trkpt><trkpt lat="42.26312567399908" lon="13.74192425047773"><ele>474.0</ele><time>2026-04-27T16:35:38.999Z</time></trkpt><trkpt lat="42.26316630068815" lon="13.742035508630055"><ele>474.0</ele><time>2026-04-27T16:35:39.999Z</time></trkpt><trkpt lat="42.263179576081136" lon="13.74213029027103"><ele>474.0</ele><time>2026-04-27T16:35:40.999Z</time></trkpt><trkpt lat="42.26310203863893" lon="13.742210434005042"><ele>474.0</ele><time>2026-04-27T16:35:42.999Z</time></trkpt><trkpt lat="42.26302155334569" lon="13.742279852457779"><ele>472.3333333333333</ele><time>2026-04-27T16:35:45Z</time></trkpt><trkpt lat="42.26302462621592" lon="13.742375898107495"><ele>470.66666666666663</ele><time>2026-04-27T16:35:46Z</time></trkpt><trkpt lat="42.26305393941205" lon="13.742507262439709"><ele>469.0</ele><time>2026-04-27T16:35:47Z</time></trkpt><trkpt lat="42.26306871556326" lon="13.742631751628778"><ele>467.3333333333333</ele><time>2026-04-27T16:35:48Z</time></trkpt><trkpt lat="42.26306055197717" lon="13.742725786389324"><ele>465.66666666666663</ele><time>2026-04-27T16:35:49Z</time></trkpt><trkpt lat="42.26296801586799" lon="13.742808436248492"><ele>464.0</ele><time>2026-04-27T16:35:51Z</time></trkpt><trkpt lat="42.26287815612691" lon="13.742831224408588"><ele>462.25</ele><time>2026-04-27T16:35:52Z</time></trkpt><trkpt lat="42.26276489286512" lon="13.742862202562694"><ele>460.5</ele><time>2026-04-27T16:35:53Z</time></trkpt><trkpt lat="42.26264902757446" lon="13.742958042158131"><ele>458.75</ele><time>2026-04-27T16:35:54Z</time></trkpt><trkpt lat="42.26255282366007" lon="13.74305524417011"><ele>457.0</ele><time>2026-04-27T16:35:55Z</time></trkpt><trkpt lat="42.26247202296873" lon="13.743108645799406"><ele>457.00000000000006</ele><time>2026-04-27T16:35:56Z</time></trkpt><trkpt lat="42.26240358062009" lon="13.743121856009"><ele>457.0</ele><time>2026-04-27T16:35:57Z</time></trkpt><trkpt lat="42.26233260808132" lon="13.743151091380344"><ele>457.0</ele><time>2026-04-27T16:35:58Z</time></trkpt><trkpt lat="42.26227696436772" lon="13.743226384987517"><ele>457.0</ele><time>2026-04-27T16:35:59Z</time></trkpt><trkpt lat="42.26222942623245" lon="13.74334924906837"><ele>457.00000000000006</ele><time>2026-04-27T16:36:00Z</time></trkpt><trkpt lat="42.26219156748376" lon="13.743492190834248"><ele>457.0</ele><time>2026-04-27T16:36:01Z</time></trkpt><trkpt lat="42.26216426776742" lon="13.743598144610596"><ele>457.0</ele><time>2026-04-27T16:36:02Z</time></trkpt><trkpt lat="42.26210336878335" lon="13.743705573556568"><ele>457.00000000000006</ele><time>2026-04-27T16:36:04Z</time></trkpt><trkpt lat="42.262174617254836" lon="13.743839419142247"><ele>457.00000000000006</ele><time>2026-04-27T16:36:06Z</time></trkpt><trkpt lat="42.262245389397705" lon="13.743936850764078"><ele>457.0</ele><time>2026-04-27T16:36:07Z</time></trkpt><trkpt lat="42.262308616459336" lon="13.744014727405084"><ele>457.0</ele><time>2026-04-27T16:36:08Z</time></trkpt><trkpt lat="42.26239501595761" lon="13.744046894895806"><ele>456.20000000000005</ele><time>2026-04-27T16:36:09Z</time></trkpt><trkpt lat="42.26249292892069" lon="13.744029324361193"><ele>455.40000000000003</ele><time>2026-04-27T16:36:10Z</time></trkpt><trkpt lat="42.26259171950309" lon="13.7440074514396"><ele>454.59999999999997</ele><time>2026-04-27T16:36:11Z</time></trkpt><trkpt lat="42.26269693433032" lon="13.74398948943468"><ele>453.79999999999995</ele><time>2026-04-27T16:36:12Z</time></trkpt><trkpt lat="42.26279976458087" lon="13.743971530954456"><ele>453.0</ele><time>2026-04-27T16:36:13Z</time></trkpt><trkpt lat="42.262902912114676" lon="13.743956825645462"><ele>453.0</ele><time>2026-04-27T16:36:14Z</time></trkpt><trkpt lat="42.26300704323442" lon="13.743954243147238"><ele>452.99999999999994</ele><time>2026-04-27T16:36:15Z</time></trkpt><trkpt lat="42.263113437459985" lon="13.743947596550852"><ele>452.99999999999994</ele><time>2026-04-27T16:36:16Z</time></trkpt><trkpt lat="42.26323075368594" lon="13.743935346456379"><ele>453.0</ele><time>2026-04-27T16:36:17Z</time></trkpt><trkpt lat="42.26335009314064" lon="13.74392539775561"><ele>453.0</ele><time>2026-04-27T16:36:18Z</time></trkpt><trkpt lat="42.263474788651365" lon="13.743927203312557"><ele>452.25</ele><time>2026-04-27T16:36:19Z</time></trkpt><trkpt lat="42.26360078227966" lon="13.74394535388643"><ele>451.5</ele><time>2026-04-27T16:36:20Z</time></trkpt><trkpt lat="42.26372591020509" lon="13.743977804358115"><ele>450.75</ele><time>2026-04-27T16:36:21Z</time></trkpt><trkpt lat="42.26385373998854" lon="13.74401708762931"><ele>450.0</ele><time>2026-04-27T16:36:22Z</time></trkpt><trkpt lat="42.26398213414705" lon="13.74404774246496"><ele>449.5</ele><time>2026-04-27T16:36:23Z</time></trkpt><trkpt lat="42.264117260054405" lon="13.744055404614732"><ele>449.0</ele><time>2026-04-27T16:36:24Z</time></trkpt><trkpt lat="42.26423834575451" lon="13.744082356028166"><ele>448.5</ele><time>2026-04-27T16:36:25Z</time></trkpt><trkpt lat="42.2643497758653" lon="13.74409930599958"><ele>448.0</ele><time>2026-04-27T16:36:26Z</time></trkpt><trkpt lat="42.264459654735596" lon="13.744112166852473"><ele>448.0</ele><time>2026-04-27T16:36:27Z</time></trkpt><trkpt lat="42.264572685220166" lon="13.74410712864369"><ele>448.0</ele><time>2026-04-27T16:36:28Z</time></trkpt><trkpt lat="42.26469510082855" lon="13.7440717763197"><ele>448.0</ele><time>2026-04-27T16:36:29Z</time></trkpt><trkpt lat="42.26480868015421" lon="13.744005423219544"><ele>448.0</ele><time>2026-04-27T16:36:30Z</time></trkpt><trkpt lat="42.264922197804005" lon="13.743914238056483"><ele>448.0</ele><time>2026-04-27T16:36:31Z</time></trkpt><trkpt lat="42.265028621971055" lon="13.743810057113068"><ele>448.0</ele><time>2026-04-27T16:36:32Z</time></trkpt><trkpt lat="42.26514144503206" lon="13.743722736332705"><ele>448.0</ele><time>2026-04-27T16:36:33Z</time></trkpt><trkpt lat="42.26525386299305" lon="13.743650578268113"><ele>448.0</ele><time>2026-04-27T16:36:34Z</time></trkpt><trkpt lat="42.26538331830076" lon="13.74358518626037"><ele>448.0</ele><time>2026-04-27T16:36:35Z</time></trkpt><trkpt lat="42.26550962763025" lon="13.743541889541538"><ele>448.0</ele><time>2026-04-27T16:36:36Z</time></trkpt><trkpt lat="42.26564059798495" lon="13.743528088811798"><ele>448.0</ele><time>2026-04-27T16:36:37Z</time></trkpt><trkpt lat="42.26577065445811" lon="13.743538747124939"><ele>448.0</ele><time>2026-04-27T16:36:38Z</time></trkpt><trkpt lat="42.26590696856902" lon="13.743539659630938"><ele>448.0</ele><time>2026-04-27T16:36:39Z</time></trkpt><trkpt lat="42.26603466907921" lon="13.743526825847214"><ele>448.0</ele><time>2026-04-27T16:36:40Z</time></trkpt><trkpt lat="42.266161467164444" lon="13.743524078714307"><ele>448.0</ele><time>2026-04-27T16:36:41Z</time></trkpt><trkpt lat="42.26628949312807" lon="13.743547991555188"><ele>448.0</ele><time>2026-04-27T16:36:42Z</time></trkpt><trkpt lat="42.2664184044374" lon="13.743585127066495"><ele>449.75</ele><time>2026-04-27T16:36:43Z</time></trkpt><trkpt lat="42.266546125918964" lon="13.743612901073135"><ele>451.5</ele><time>2026-04-27T16:36:44Z</time></trkpt><trkpt lat="42.266670713761044" lon="13.743618616944907"><ele>453.25</ele><time>2026-04-27T16:36:45Z</time></trkpt><trkpt lat="42.26678498936139" lon="13.743611966860723"><ele>455.0</ele><time>2026-04-27T16:36:46Z</time></trkpt><trkpt lat="42.266896824713946" lon="13.74359200738298"><ele>452.75</ele><time>2026-04-27T16:36:47Z</time></trkpt><trkpt lat="42.267017654454186" lon="13.743542806663262"><ele>450.5</ele><time>2026-04-27T16:36:48Z</time></trkpt><trkpt lat="42.267142334959665" lon="13.743469900521566"><ele>448.25</ele><time>2026-04-27T16:36:49Z</time></trkpt><trkpt lat="42.267265547414326" lon="13.743429220486304"><ele>446.0</ele><time>2026-04-27T16:36:50Z</time></trkpt><trkpt lat="42.26737089915279" lon="13.74341513196542"><ele>444.6</ele><time>2026-04-27T16:36:51Z</time></trkpt><trkpt lat="42.26747013989493" lon="13.743407593653343"><ele>443.20000000000005</ele><time>2026-04-27T16:36:52Z</time></trkpt><trkpt lat="42.26755140232967" lon="13.743388396925157"><ele>441.79999999999995</ele><time>2026-04-27T16:36:52.999Z</time></trkpt><trkpt lat="42.26764635270201" lon="13.743378767112963"><ele>440.4</ele><time>2026-04-27T16:36:53.999Z</time></trkpt><trkpt lat="42.267761886695254" lon="13.74341499087859"><ele>439.0</ele><time>2026-04-27T16:36:54.999Z</time></trkpt><trkpt lat="42.267886162544265" lon="13.743472653539783"><ele>439.0</ele><time>2026-04-27T16:36:55.999Z</time></trkpt><trkpt lat="42.26801219918736" lon="13.743547065022677"><ele>439.0</ele><time>2026-04-27T16:36:56.999Z</time></trkpt><trkpt lat="42.2681383631723" lon="13.74363678065094"><ele>439.0</ele><time>2026-04-27T16:36:57.999Z</time></trkpt><trkpt lat="42.268244934870125" lon="13.743718511581346"><ele>439.0</ele><time>2026-04-27T16:36:58.999Z</time></trkpt><trkpt lat="42.26833817520409" lon="13.743764413161779"><ele>440.0</ele><time>2026-04-27T16:36:59.999Z</time></trkpt><trkpt lat="42.268417732843304" lon="13.743783104714526"><ele>441.0</ele><time>2026-04-27T16:37:00.999Z</time></trkpt><trkpt lat="42.268511891504446" lon="13.743777514347975"><ele>442.0</ele><time>2026-04-27T16:37:01.999Z</time></trkpt><trkpt lat="42.26861423132017" lon="13.7437947201158"><ele>443.0</ele><time>2026-04-27T16:37:02.999Z</time></trkpt><trkpt lat="42.26871164163861" lon="13.743810339653042"><ele>444.0</ele><time>2026-04-27T16:37:03.999Z</time></trkpt><trkpt lat="42.26880464152895" lon="13.743777635041896"><ele>444.0</ele><time>2026-04-27T16:37:04.999Z</time></trkpt><trkpt lat="42.26889664789482" lon="13.743700542139434"><ele>444.0</ele><time>2026-04-27T16:37:05.999Z</time></trkpt><trkpt lat="42.26897967567776" lon="13.743604145313688"><ele>444.0</ele><time>2026-04-27T16:37:06.999Z</time></trkpt><trkpt lat="42.26904482157657" lon="13.74351977707216"><ele>444.0</ele><time>2026-04-27T16:37:07.999Z</time></trkpt><trkpt lat="42.26908520190508" lon="13.74343739165054"><ele>444.0</ele><time>2026-04-27T16:37:08.999Z</time></trkpt><trkpt lat="42.26910407535151" lon="13.743338162512144"><ele>442.2</ele><time>2026-04-27T16:37:09.999Z</time></trkpt><trkpt lat="42.269147807773344" lon="13.743269385209683"><ele>440.4</ele><time>2026-04-27T16:37:10.999Z</time></trkpt><trkpt lat="42.26921685126301" lon="13.743244755382468"><ele>438.6</ele><time>2026-04-27T16:37:11.999Z</time></trkpt><trkpt lat="42.26930552288632" lon="13.743236723150803"><ele>436.8</ele><time>2026-04-27T16:37:12.999Z</time></trkpt><trkpt lat="42.269421755104275" lon="13.743233578273763"><ele>435.0</ele><time>2026-04-27T16:37:13.999Z</time></trkpt><trkpt lat="42.26953738225029" lon="13.743243940424954"><ele>435.0</ele><time>2026-04-27T16:37:14.999Z</time></trkpt><trkpt lat="42.26964254297508" lon="13.74327924971824"><ele>435.0</ele><time>2026-04-27T16:37:15.999Z</time></trkpt><trkpt lat="42.26975474178298" lon="13.743338165194537"><ele>435.0</ele><time>2026-04-27T16:37:16.999Z</time></trkpt><trkpt lat="42.26987134236258" lon="13.743411464167695"><ele>435.0</ele><time>2026-04-27T16:37:17.999Z</time></trkpt><trkpt lat="42.26997776398809" lon="13.743501167193276"><ele>433.25</ele><time>2026-04-27T16:37:18.999Z</time></trkpt><trkpt lat="42.27007271960109" lon="13.743602206157401"><ele>431.5</ele><time>2026-04-27T16:37:19.999Z</time></trkpt><trkpt lat="42.27017116142059" lon="13.743688793099993"><ele>429.75</ele><time>2026-04-27T16:37:20.999Z</time></trkpt><trkpt lat="42.27028468607579" lon="13.74376357710987"><ele>428.0</ele><time>2026-04-27T16:37:21.999Z</time></trkpt><trkpt lat="42.270389378886854" lon="13.743838745581208"><ele>428.0</ele><time>2026-04-27T16:37:22.999Z</time></trkpt><trkpt lat="42.27048198645633" lon="13.743895010263111"><ele>427.99999999999994</ele><time>2026-04-27T16:37:23.999Z</time></trkpt><trkpt lat="42.270577171006856" lon="13.743925711051277"><ele>427.99999999999994</ele><time>2026-04-27T16:37:24.999Z</time></trkpt><trkpt lat="42.27068617481685" lon="13.743947872085414"><ele>428.0</ele><time>2026-04-27T16:37:25.999Z</time></trkpt><trkpt lat="42.270787011629885" lon="13.743987958167583"><ele>428.0</ele><time>2026-04-27T16:37:26.999Z</time></trkpt><trkpt lat="42.27087105795088" lon="13.744042315167246"><ele>427.79999999999995</ele><time>2026-04-27T16:37:27.999Z</time></trkpt><trkpt lat="42.27093208923533" lon="13.74410881714768"><ele>427.59999999999997</ele><time>2026-04-27T16:37:28.999Z</time></trkpt><trkpt lat="42.27094828701434" lon="13.744267340787902"><ele>427.40000000000003</ele><time>2026-04-27T16:37:30.999Z</time></trkpt><trkpt lat="42.27094650158224" lon="13.744367843633743"><ele>427.20000000000005</ele><time>2026-04-27T16:37:31.999Z</time></trkpt><trkpt lat="42.27097300842373" lon="13.74447517897581"><ele>427.0</ele><time>2026-04-27T16:37:32.999Z</time></trkpt><trkpt lat="42.27102573562131" lon="13.744584163967136"><ele>426.25</ele><time>2026-04-27T16:37:33.999Z</time></trkpt><trkpt lat="42.27105137279304" lon="13.744742784816697"><ele>425.5</ele><time>2026-04-27T16:37:34.999Z</time></trkpt><trkpt lat="42.271119144608576" lon="13.744883400181338"><ele>424.75</ele><time>2026-04-27T16:37:35.999Z</time></trkpt><trkpt lat="42.27119302516462" lon="13.745030928645892"><ele>424.0</ele><time>2026-04-27T16:37:36.999Z</time></trkpt><trkpt lat="42.2712917394951" lon="13.745163892005099"><ele>426.79999999999995</ele><time>2026-04-27T16:37:37.999Z</time></trkpt><trkpt lat="42.271357951166905" lon="13.745297428195455"><ele>429.59999999999997</ele><time>2026-04-27T16:37:38.999Z</time></trkpt><trkpt lat="42.27138295767534" lon="13.745438630086287"><ele>432.4</ele><time>2026-04-27T16:37:39.999Z</time></trkpt><trkpt lat="42.27140960867856" lon="13.745557785208337"><ele>435.2</ele><time>2026-04-27T16:37:40.999Z</time></trkpt><trkpt lat="42.271423491911435" lon="13.745686530084544"><ele>438.0</ele><time>2026-04-27T16:37:41.999Z</time></trkpt><trkpt lat="42.27143324720199" lon="13.745826348548567"><ele>435.0</ele><time>2026-04-27T16:37:42.999Z</time></trkpt><trkpt lat="42.27145162446887" lon="13.74596194899491"><ele>431.99999999999994</ele><time>2026-04-27T16:37:43.999Z</time></trkpt><trkpt lat="42.27147421313302" lon="13.746097418571157"><ele>429.0</ele><time>2026-04-27T16:37:44.999Z</time></trkpt><trkpt lat="42.271511468620346" lon="13.746241842320199"><ele>426.0</ele><time>2026-04-27T16:37:45.999Z</time></trkpt><trkpt lat="42.27155963270159" lon="13.746388676191193"><ele>423.0</ele><time>2026-04-27T16:37:46.999Z</time></trkpt><trkpt lat="42.27161185742149" lon="13.74653079501746"><ele>423.0</ele><time>2026-04-27T16:37:47.999Z</time></trkpt><trkpt lat="42.271674275979656" lon="13.746674360778409"><ele>423.0</ele><time>2026-04-27T16:37:49Z</time></trkpt><trkpt lat="42.27174625812925" lon="13.746813908643828"><ele>423.0</ele><time>2026-04-27T16:37:50Z</time></trkpt><trkpt lat="42.27182044906511" lon="13.74695486617972"><ele>423.0</ele><time>2026-04-27T16:37:51Z</time></trkpt><trkpt lat="42.27189708243386" lon="13.747097272469635"><ele>425.0</ele><time>2026-04-27T16:37:52Z</time></trkpt><trkpt lat="42.27197631497326" lon="13.747243544522473"><ele>427.0</ele><time>2026-04-27T16:37:53Z</time></trkpt><trkpt lat="42.27206399554324" lon="13.74737156018841"><ele>429.0</ele><time>2026-04-27T16:37:54Z</time></trkpt><trkpt lat="42.27214316992174" lon="13.74751736767719"><ele>431.0</ele><time>2026-04-27T16:37:55Z</time></trkpt><trkpt lat="42.27221494211949" lon="13.74764664600356"><ele>430.0</ele><time>2026-04-27T16:37:56Z</time></trkpt><trkpt lat="42.27228059566499" lon="13.747745830507128"><ele>429.0</ele><time>2026-04-27T16:37:57Z</time></trkpt><trkpt lat="42.272341427147104" lon="13.747824216053857"><ele>428.0</ele><time>2026-04-27T16:37:58Z</time></trkpt><trkpt lat="42.27241120189983" lon="13.747885119639559"><ele>427.0</ele><time>2026-04-27T16:37:59Z</time></trkpt><trkpt lat="42.272494627373646" lon="13.747957158845766"><ele>426.0</ele><time>2026-04-27T16:38:00Z</time></trkpt><trkpt lat="42.27259739392783" lon="13.748029709796933"><ele>426.0</ele><time>2026-04-27T16:38:01Z</time></trkpt><trkpt lat="42.27269604194814" lon="13.748130099254746"><ele>426.0</ele><time>2026-04-27T16:38:02Z</time></trkpt><trkpt lat="42.272793500454284" lon="13.748240905113365"><ele>426.0</ele><time>2026-04-27T16:38:03Z</time></trkpt><trkpt lat="42.272888805865634" lon="13.74836100982885"><ele>426.0</ele><time>2026-04-27T16:38:04Z</time></trkpt><trkpt lat="42.27297785930286" lon="13.748495388450479"><ele>424.25</ele><time>2026-04-27T16:38:05Z</time></trkpt><trkpt lat="42.27305607139788" lon="13.748624706811"><ele>422.5</ele><time>2026-04-27T16:38:06Z</time></trkpt><trkpt lat="42.27314764217854" lon="13.748753758122911"><ele>420.75</ele><time>2026-04-27T16:38:07Z</time></trkpt><trkpt lat="42.27324845174802" lon="13.748881111299017"><ele>419.0</ele><time>2026-04-27T16:38:08Z</time></trkpt><trkpt lat="42.27335421940074" lon="13.749001454797853"><ele>419.0</ele><time>2026-04-27T16:38:09Z</time></trkpt><trkpt lat="42.273462495606864" lon="13.74911919051665"><ele>419.0</ele><time>2026-04-27T16:38:10Z</time></trkpt><trkpt lat="42.273578839051076" lon="13.749230502614575"><ele>419.0</ele><time>2026-04-27T16:38:11Z</time></trkpt><trkpt lat="42.273699107977336" lon="13.749314057882145"><ele>419.0</ele><time>2026-04-27T16:38:12Z</time></trkpt><trkpt lat="42.27380650351239" lon="13.749380271515623"><ele>419.0</ele><time>2026-04-27T16:38:13Z</time></trkpt><trkpt lat="42.27388173642217" lon="13.74947111059738"><ele>419.0</ele><time>2026-04-27T16:38:14Z</time></trkpt><trkpt lat="42.27392008977661" lon="13.749554024523231"><ele>419.0</ele><time>2026-04-27T16:38:15Z</time></trkpt><trkpt lat="42.27391773098567" lon="13.74971956582338"><ele>419.0</ele><time>2026-04-27T16:38:17Z</time></trkpt><trkpt lat="42.27388016535412" lon="13.749818014370701"><ele>419.0</ele><time>2026-04-27T16:38:18Z</time></trkpt><trkpt lat="42.273830851272436" lon="13.74995223141942"><ele>419.0</ele><time>2026-04-27T16:38:19Z</time></trkpt><trkpt lat="42.27377081434534" lon="13.75010180471738"><ele>419.0</ele><time>2026-04-27T16:38:20Z</time></trkpt><trkpt lat="42.27370307879283" lon="13.75026723178348"><ele>419.0</ele><time>2026-04-27T16:38:21Z</time></trkpt><trkpt lat="42.27364602364317" lon="13.750410557548442"><ele>419.0</ele><time>2026-04-27T16:38:22Z</time></trkpt><trkpt lat="42.273608995181974" lon="13.750523591217998"><ele>419.0</ele><time>2026-04-27T16:38:23Z</time></trkpt><trkpt lat="42.2735962219916" lon="13.750626205576957"><ele>419.0</ele><time>2026-04-27T16:38:24Z</time></trkpt><trkpt lat="42.27360854986918" lon="13.750737603015299"><ele>419.0</ele><time>2026-04-27T16:38:25Z</time></trkpt><trkpt lat="42.27364841006856" lon="13.750861540770957"><ele>419.0</ele><time>2026-04-27T16:38:26Z</time></trkpt><trkpt lat="42.27370124298196" lon="13.750985604945066"><ele>419.0</ele><time>2026-04-27T16:38:27Z</time></trkpt><trkpt lat="42.27377529952297" lon="13.751113237248811"><ele>418.66666666666663</ele><time>2026-04-27T16:38:28Z</time></trkpt><trkpt lat="42.27386119532859" lon="13.75118827835422"><ele>418.3333333333333</ele><time>2026-04-27T16:38:29Z</time></trkpt><trkpt lat="42.273925134556464" lon="13.751235300355424"><ele>418.0</ele><time>2026-04-27T16:38:30Z</time></trkpt><trkpt lat="42.27400100282938" lon="13.751219423099945"><ele>417.66666666666663</ele><time>2026-04-27T16:38:31Z</time></trkpt><trkpt lat="42.274084198724736" lon="13.751177930042603"><ele>417.3333333333333</ele><time>2026-04-27T16:38:32Z</time></trkpt><trkpt lat="42.27418513242382" lon="13.751127132914748"><ele>417.0</ele><time>2026-04-27T16:38:33Z</time></trkpt><trkpt lat="42.274298813424366" lon="13.75107316390089"><ele>416.75</ele><time>2026-04-27T16:38:34Z</time></trkpt><trkpt lat="42.27441962724954" lon="13.751025971045896"><ele>416.5</ele><time>2026-04-27T16:38:35Z</time></trkpt><trkpt lat="42.27453906243121" lon="13.750993748472105"><ele>416.25</ele><time>2026-04-27T16:38:36Z</time></trkpt><trkpt lat="42.27465314727863" lon="13.750977542761586"><ele>416.0</ele><time>2026-04-27T16:38:37Z</time></trkpt><trkpt lat="42.2747786472053" lon="13.750979379956808"><ele>415.0</ele><time>2026-04-27T16:38:38Z</time></trkpt><trkpt lat="42.274904299988165" lon="13.750966084634532"><ele>414.0</ele><time>2026-04-27T16:38:39Z</time></trkpt><trkpt lat="42.2750311754033" lon="13.750958993835122"><ele>413.0</ele><time>2026-04-27T16:38:40Z</time></trkpt><trkpt lat="42.2751601547295" lon="13.750966143428139"><ele>412.0</ele><time>2026-04-27T16:38:41Z</time></trkpt><trkpt lat="42.2752989212023" lon="13.750972975376584"><ele>412.0</ele><time>2026-04-27T16:38:42Z</time></trkpt><trkpt lat="42.27544216387596" lon="13.750981524447985"><ele>412.0</ele><time>2026-04-27T16:38:43Z</time></trkpt><trkpt lat="42.27558589756258" lon="13.751012994940659"><ele>412.0</ele><time>2026-04-27T16:38:44Z</time></trkpt><trkpt lat="42.2757181232672" lon="13.751003320527307"><ele>412.0</ele><time>2026-04-27T16:38:45Z</time></trkpt><trkpt lat="42.275837893141286" lon="13.751008386051641"><ele>411.40000000000003</ele><time>2026-04-27T16:38:46Z</time></trkpt><trkpt lat="42.27594376078126" lon="13.751027675225616"><ele>410.8</ele><time>2026-04-27T16:38:47Z</time></trkpt><trkpt lat="42.27605064716915" lon="13.751083492934235"><ele>410.2</ele><time>2026-04-27T16:38:48Z</time></trkpt><trkpt lat="42.27614755170404" lon="13.75115275135894"><ele>409.6</ele><time>2026-04-27T16:38:49Z</time></trkpt><trkpt lat="42.276208277253275" lon="13.75126364724942"><ele>409.0</ele><time>2026-04-27T16:38:50Z</time></trkpt><trkpt lat="42.276295215550064" lon="13.751382151214251"><ele>408.0</ele><time>2026-04-27T16:38:51Z</time></trkpt><trkpt lat="42.27639206895054" lon="13.751503637418807"><ele>407.0</ele><time>2026-04-27T16:38:52Z</time></trkpt><trkpt lat="42.27650380044564" lon="13.75158161870867"><ele>406.0</ele><time>2026-04-27T16:38:52.999Z</time></trkpt><trkpt lat="42.27659044710326" lon="13.751650007681134"><ele>405.0</ele><time>2026-04-27T16:38:53.999Z</time></trkpt><trkpt lat="42.27669493888922" lon="13.751691014992405"><ele>404.25</ele><time>2026-04-27T16:38:54.999Z</time></trkpt><trkpt lat="42.27681651078497" lon="13.751712973685708"><ele>403.5</ele><time>2026-04-27T16:38:55.999Z</time></trkpt><trkpt lat="42.27694651223617" lon="13.751749368950913"><ele>402.75</ele><time>2026-04-27T16:38:56.999Z</time></trkpt><trkpt lat="42.27706850558107" lon="13.751798229027164"><ele>402.0</ele><time>2026-04-27T16:38:57.999Z</time></trkpt><trkpt lat="42.2771935652154" lon="13.751819946966727"><ele>401.8</ele><time>2026-04-27T16:38:58.999Z</time></trkpt><trkpt lat="42.27731184961909" lon="13.751820869188125"><ele>401.6</ele><time>2026-04-27T16:38:59.999Z</time></trkpt><trkpt lat="42.277414794333154" lon="13.751830213750571"><ele>401.40000000000003</ele><time>2026-04-27T16:39:00.999Z</time></trkpt><trkpt lat="42.27750755244077" lon="13.751869698220736"><ele>401.20000000000005</ele><time>2026-04-27T16:39:01.999Z</time></trkpt><trkpt lat="42.27757297711901" lon="13.75186939338892"><ele>401.0</ele><time>2026-04-27T16:39:02.999Z</time></trkpt><trkpt lat="42.27762049312503" lon="13.751971795019742"><ele>401.20000000000005</ele><time>2026-04-27T16:39:03.999Z</time></trkpt><trkpt lat="42.277700257609965" lon="13.752008164806858"><ele>401.40000000000003</ele><time>2026-04-27T16:39:04.999Z</time></trkpt><trkpt lat="42.277793016089575" lon="13.752036767512196"><ele>401.6</ele><time>2026-04-27T16:39:05.999Z</time></trkpt><trkpt lat="42.277895151015635" lon="13.752068735559398"><ele>401.8</ele><time>2026-04-27T16:39:06.999Z</time></trkpt><trkpt lat="42.27800640143854" lon="13.752109853494948"><ele>402.0</ele><time>2026-04-27T16:39:07.999Z</time></trkpt><trkpt lat="42.27812292595436" lon="13.752158608588484"><ele>402.0</ele><time>2026-04-27T16:39:08.999Z</time></trkpt><trkpt lat="42.278227317717985" lon="13.752186406067064"><ele>402.0</ele><time>2026-04-27T16:39:09.999Z</time></trkpt><trkpt lat="42.278333324361135" lon="13.7522011333728"><ele>402.0</ele><time>2026-04-27T16:39:10.999Z</time></trkpt><trkpt lat="42.27844616536226" lon="13.752207048042617"><ele>402.0</ele><time>2026-04-27T16:39:11.999Z</time></trkpt><trkpt lat="42.278566812519536" lon="13.752209716613628"><ele>402.0</ele><time>2026-04-27T16:39:12.999Z</time></trkpt><trkpt lat="42.27869554973108" lon="13.752218219650537"><ele>402.0</ele><time>2026-04-27T16:39:13.999Z</time></trkpt><trkpt lat="42.278830094967255" lon="13.752221403206223"><ele>402.0</ele><time>2026-04-27T16:39:14.999Z</time></trkpt><trkpt lat="42.27896865432075" lon="13.752216710221322"><ele>402.0</ele><time>2026-04-27T16:39:15.999Z</time></trkpt><trkpt lat="42.279104925294014" lon="13.752220441141258"><ele>402.0</ele><time>2026-04-27T16:39:16.999Z</time></trkpt><trkpt lat="42.279239399125096" lon="13.752219913605058"><ele>401.0</ele><time>2026-04-27T16:39:17.999Z</time></trkpt><trkpt lat="42.27937174059603" lon="13.752213174631494"><ele>400.0</ele><time>2026-04-27T16:39:18.999Z</time></trkpt><trkpt lat="42.279516208142255" lon="13.752204771840585"><ele>399.0</ele><time>2026-04-27T16:39:19.999Z</time></trkpt><trkpt lat="42.27966897519165" lon="13.752193564363319"><ele>398.0</ele><time>2026-04-27T16:39:20.999Z</time></trkpt><trkpt lat="42.27982587040835" lon="13.752186322343421"><ele>395.66666666666663</ele><time>2026-04-27T16:39:21.999Z</time></trkpt><trkpt lat="42.279985037880174" lon="13.75218561879137"><ele>393.33333333333337</ele><time>2026-04-27T16:39:22.999Z</time></trkpt><trkpt lat="42.280142932859476" lon="13.752192152814233"><ele>391.0</ele><time>2026-04-27T16:39:23.999Z</time></trkpt><trkpt lat="42.28028728735818" lon="13.75220939378112"><ele>391.0</ele><time>2026-04-27T16:39:24.999Z</time></trkpt><trkpt lat="42.28042855207657" lon="13.752243509053491"><ele>391.0</ele><time>2026-04-27T16:39:25.999Z</time></trkpt><trkpt lat="42.280573553310475" lon="13.75229772251336"><ele>391.0</ele><time>2026-04-27T16:39:26.999Z</time></trkpt><trkpt lat="42.280715253726974" lon="13.752371812821927"><ele>391.0</ele><time>2026-04-27T16:39:27.999Z</time></trkpt><trkpt lat="42.280856779878015" lon="13.75245812701911"><ele>390.33333333333337</ele><time>2026-04-27T16:39:28.999Z</time></trkpt><trkpt lat="42.28098249400442" lon="13.752582577270891"><ele>389.66666666666663</ele><time>2026-04-27T16:39:29.999Z</time></trkpt><trkpt lat="42.28111786499596" lon="13.752691069332986"><ele>389.0</ele><time>2026-04-27T16:39:30.999Z</time></trkpt><trkpt lat="42.28124269380712" lon="13.752824830987128"><ele>389.0</ele><time>2026-04-27T16:39:31.999Z</time></trkpt><trkpt lat="42.28135713581087" lon="13.752978561972787"><ele>389.0</ele><time>2026-04-27T16:39:32.999Z</time></trkpt><trkpt lat="42.281477623986476" lon="13.753120401886273"><ele>389.0</ele><time>2026-04-27T16:39:33.999Z</time></trkpt><trkpt lat="42.28159660280956" lon="13.753260282423922"><ele>389.0</ele><time>2026-04-27T16:39:34.999Z</time></trkpt><trkpt lat="42.281717284798106" lon="13.75339546200973"><ele>389.0</ele><time>2026-04-27T16:39:35.999Z</time></trkpt><trkpt lat="42.28183972833275" lon="13.75350262407298"><ele>389.0</ele><time>2026-04-27T16:39:36.999Z</time></trkpt><trkpt lat="42.28194725442212" lon="13.753622246767547"><ele>389.0</ele><time>2026-04-27T16:39:37.999Z</time></trkpt><trkpt lat="42.282066969927314" lon="13.753737644284202"><ele>389.66666666666663</ele><time>2026-04-27T16:39:38.999Z</time></trkpt><trkpt lat="42.28219781431061" lon="13.753836727670874"><ele>390.33333333333337</ele><time>2026-04-27T16:39:39.999Z</time></trkpt><trkpt lat="42.282335523882644" lon="13.75392802854182"><ele>391.0</ele><time>2026-04-27T16:39:40.999Z</time></trkpt><trkpt lat="42.28247673515449" lon="13.754020817062518"><ele>391.0</ele><time>2026-04-27T16:39:41.999Z</time></trkpt><trkpt lat="42.28261974536794" lon="13.754115536588603"><ele>391.0</ele><time>2026-04-27T16:39:42.999Z</time></trkpt><trkpt lat="42.2827687134002" lon="13.754205151109481"><ele>391.0</ele><time>2026-04-27T16:39:43.999Z</time></trkpt><trkpt lat="42.282921838354895" lon="13.75429473900605"><ele>390.0</ele><time>2026-04-27T16:39:44.999Z</time></trkpt><trkpt lat="42.28307168363575" lon="13.754379350750803"><ele>389.0</ele><time>2026-04-27T16:39:45.999Z</time></trkpt><trkpt lat="42.28320351903834" lon="13.754446784265761"><ele>388.0</ele><time>2026-04-27T16:39:46.999Z</time></trkpt><trkpt lat="42.28331327648137" lon="13.754498099092038"><ele>387.0</ele><time>2026-04-27T16:39:47.999Z</time></trkpt><trkpt lat="42.283412096278475" lon="13.754541822969392"><ele>387.0</ele><time>2026-04-27T16:39:48.999Z</time></trkpt><trkpt lat="42.2834897730182" lon="13.754565990704283"><ele>387.0</ele><time>2026-04-27T16:39:49.999Z</time></trkpt><trkpt lat="42.28358059804298" lon="13.754554424579311"><ele>387.0</ele><time>2026-04-27T16:39:51.999Z</time></trkpt><trkpt lat="42.283622300809604" lon="13.754368262489693"><ele>387.0</ele><time>2026-04-27T16:39:55Z</time></trkpt><trkpt lat="42.28359772339702" lon="13.754259057653082"><ele>387.0</ele><time>2026-04-27T16:39:56Z</time></trkpt><trkpt lat="42.2835703643708" lon="13.754125313723925"><ele>386.5</ele><time>2026-04-27T16:39:57Z</time></trkpt><trkpt lat="42.28353929273356" lon="13.753972006902687"><ele>386.0</ele><time>2026-04-27T16:39:58Z</time></trkpt><trkpt lat="42.283519592739545" lon="13.753819235381096"><ele>385.5</ele><time>2026-04-27T16:39:59Z</time></trkpt><trkpt lat="42.28349782696251" lon="13.753638887749885"><ele>385.0</ele><time>2026-04-27T16:40:00Z</time></trkpt><trkpt lat="42.283472069223926" lon="13.753449149653433"><ele>385.0</ele><time>2026-04-27T16:40:01Z</time></trkpt><trkpt lat="42.283450473538764" lon="13.753267737092136"><ele>385.0</ele><time>2026-04-27T16:40:02Z</time></trkpt><trkpt lat="42.28343296201257" lon="13.753087474109629"><ele>385.0</ele><time>2026-04-27T16:40:03Z</time></trkpt><trkpt lat="42.28342127898922" lon="13.75291242010525"><ele>385.0</ele><time>2026-04-27T16:40:04Z</time></trkpt><trkpt lat="42.283415131471585" lon="13.752741503255828"><ele>385.2</ele><time>2026-04-27T16:40:05Z</time></trkpt><trkpt lat="42.28340998308961" lon="13.752586431551252"><ele>385.4</ele><time>2026-04-27T16:40:06Z</time></trkpt><trkpt lat="42.28340805544318" lon="13.752444320529907"><ele>385.6</ele><time>2026-04-27T16:40:07Z</time></trkpt><trkpt lat="42.283416770066474" lon="13.752332214815679"><ele>385.8</ele><time>2026-04-27T16:40:08Z</time></trkpt><trkpt lat="42.28341778413445" lon="13.752236259974914"><ele>386.0</ele><time>2026-04-27T16:40:10Z</time></trkpt><trkpt lat="42.283621499210334" lon="13.752251383989734"><ele>386.0</ele><time>2026-04-27T16:40:11Z</time></trkpt><trkpt lat="42.2837347677287" lon="13.75227082114193"><ele>386.0</ele><time>2026-04-27T16:40:12Z</time></trkpt><trkpt lat="42.28386341454917" lon="13.752305015803806"><ele>386.0</ele><time>2026-04-27T16:40:13Z</time></trkpt><trkpt lat="42.28400307587755" lon="13.752338618565005"><ele>386.0</ele><time>2026-04-27T16:40:14Z</time></trkpt><trkpt lat="42.28414899691736" lon="13.752371180427517"><ele>385.5</ele><time>2026-04-27T16:40:15Z</time></trkpt><trkpt lat="42.28428628610046" lon="13.752410678299443"><ele>385.0</ele><time>2026-04-27T16:40:16Z</time></trkpt><trkpt lat="42.28443264711189" lon="13.75246315108318"><ele>384.5</ele><time>2026-04-27T16:40:17Z</time></trkpt><trkpt lat="42.28458264831915" lon="13.752523497977306"><ele>384.0</ele><time>2026-04-27T16:40:18Z</time></trkpt><trkpt lat="42.28473066036933" lon="13.752578950400222"><ele>384.0</ele><time>2026-04-27T16:40:19Z</time></trkpt><trkpt lat="42.284862719419" lon="13.752630575438001"><ele>384.0</ele><time>2026-04-27T16:40:20Z</time></trkpt><trkpt lat="42.284981682353546" lon="13.752685265632568"><ele>384.0</ele><time>2026-04-27T16:40:21Z</time></trkpt><trkpt lat="42.28508947193133" lon="13.752754584236174"><ele>384.0</ele><time>2026-04-27T16:40:22Z</time></trkpt><trkpt lat="42.28520047379336" lon="13.752816322232361"><ele>383.5</ele><time>2026-04-27T16:40:23Z</time></trkpt><trkpt lat="42.285316149172615" lon="13.752863980864356"><ele>383.0</ele><time>2026-04-27T16:40:24Z</time></trkpt><trkpt lat="42.28543435846385" lon="13.75290790977531"><ele>382.5</ele><time>2026-04-27T16:40:25Z</time></trkpt><trkpt lat="42.285554400260644" lon="13.752950607170854"><ele>382.0</ele><time>2026-04-27T16:40:26Z</time></trkpt><trkpt lat="42.28567626159003" lon="13.752990425960915"><ele>381.6</ele><time>2026-04-27T16:40:27Z</time></trkpt><trkpt lat="42.28578897599123" lon="13.753026605551552"><ele>381.20000000000005</ele><time>2026-04-27T16:40:28Z</time></trkpt><trkpt lat="42.28589298769106" lon="13.753069142382987"><ele>380.8</ele><time>2026-04-27T16:40:29Z</time></trkpt><trkpt lat="42.2859923202055" lon="13.753102401514026"><ele>380.4</ele><time>2026-04-27T16:40:30Z</time></trkpt><trkpt lat="42.286079895129454" lon="13.753126644102482"><ele>380.0</ele><time>2026-04-27T16:40:31Z</time></trkpt><trkpt lat="42.28614705525595" lon="13.753146213041822"><ele>380.0</ele><time>2026-04-27T16:40:32Z</time></trkpt><trkpt lat="42.28621383507249" lon="13.753181952416345"><ele>380.0</ele><time>2026-04-27T16:40:36Z</time></trkpt><trkpt lat="42.28631383436742" lon="13.753192254070832"><ele>380.0</ele><time>2026-04-27T16:40:38Z</time></trkpt><trkpt lat="42.286424915289786" lon="13.753222538019966"><ele>380.0</ele><time>2026-04-27T16:40:40Z</time></trkpt><trkpt lat="42.28649352661532" lon="13.753247599633871"><ele>380.0</ele><time>2026-04-27T16:40:41Z</time></trkpt><trkpt lat="42.2865647321721" lon="13.753267671796044"><ele>380.0</ele><time>2026-04-27T16:40:42Z</time></trkpt><trkpt lat="42.28664291105906" lon="13.753292446976877"><ele>379.6</ele><time>2026-04-27T16:40:43Z</time></trkpt><trkpt lat="42.28672975275871" lon="13.75331234550728"><ele>379.2</ele><time>2026-04-27T16:40:44Z</time></trkpt><trkpt lat="42.286811287030595" lon="13.753326423700086"><ele>378.79999999999995</ele><time>2026-04-27T16:40:45Z</time></trkpt><trkpt lat="42.28690182527989" lon="13.753342624636"><ele>378.4</ele><time>2026-04-27T16:40:46Z</time></trkpt><trkpt lat="42.28700058466923" lon="13.753358867457395"><ele>378.0</ele><time>2026-04-27T16:40:47Z</time></trkpt><trkpt lat="42.287103668894" lon="13.75339885232643"><ele>378.0</ele><time>2026-04-27T16:40:48Z</time></trkpt><trkpt lat="42.28720733334024" lon="13.753462346626144"><ele>378.0</ele><time>2026-04-27T16:40:49Z</time></trkpt><trkpt lat="42.287311653257056" lon="13.753529209845352"><ele>378.0</ele><time>2026-04-27T16:40:50Z</time></trkpt><trkpt lat="42.28740780152158" lon="13.753588638243771"><ele>378.0</ele><time>2026-04-27T16:40:51Z</time></trkpt><trkpt lat="42.28750456013948" lon="13.75364610205631"><ele>378.0</ele><time>2026-04-27T16:40:52Z</time></trkpt><trkpt lat="42.287597149919996" lon="13.753709847901463"><ele>377.5</ele><time>2026-04-27T16:40:53Z</time></trkpt><trkpt lat="42.28768052280534" lon="13.753777138510387"><ele>377.0</ele><time>2026-04-27T16:40:54Z</time></trkpt><trkpt lat="42.28775413550074" lon="13.753821957331049"><ele>376.5</ele><time>2026-04-27T16:40:55Z</time></trkpt><trkpt lat="42.28786920660709" lon="13.753814933399772"><ele>376.0</ele><time>2026-04-27T16:40:57Z</time></trkpt><trkpt lat="42.28792008422636" lon="13.753752271652544"><ele>375.5</ele><time>2026-04-27T16:40:58Z</time></trkpt><trkpt lat="42.28796725683746" lon="13.75367247268433"><ele>375.0</ele><time>2026-04-27T16:40:58.999Z</time></trkpt><trkpt lat="42.28801543412783" lon="13.753590474717543"><ele>375.0</ele><time>2026-04-27T16:40:59.999Z</time></trkpt><trkpt lat="42.28806982762283" lon="13.753519819900115"><ele>375.0</ele><time>2026-04-27T16:41:00.999Z</time></trkpt><trkpt lat="42.28813849702586" lon="13.753488091072265"><ele>375.0</ele><time>2026-04-27T16:41:02.999Z</time></trkpt><trkpt lat="42.28822504480789" lon="13.753575735505278"><ele>375.0</ele><time>2026-04-27T16:41:04.999Z</time></trkpt><trkpt lat="42.28828163285004" lon="13.753627156940478"><ele>375.0</ele><time>2026-04-27T16:41:05.999Z</time></trkpt><trkpt lat="42.288343460784" lon="13.753691739636068"><ele>375.0</ele><time>2026-04-27T16:41:06.999Z</time></trkpt><trkpt lat="42.28840735512792" lon="13.75376668706305"><ele>375.0</ele><time>2026-04-27T16:41:07.999Z</time></trkpt><trkpt lat="42.28847976565498" lon="13.753845032696441"><ele>375.0</ele><time>2026-04-27T16:41:08.999Z</time></trkpt><trkpt lat="42.288563840172756" lon="13.7539234336921"><ele>375.0</ele><time>2026-04-27T16:41:09.999Z</time></trkpt><trkpt lat="42.2886532921878" lon="13.754011636175"><ele>375.0</ele><time>2026-04-27T16:41:10.999Z</time></trkpt><trkpt lat="42.28875131600602" lon="13.7541052476883"><ele>375.0</ele><time>2026-04-27T16:41:11.999Z</time></trkpt><trkpt lat="42.28885759587007" lon="13.754202922353981"><ele>375.5</ele><time>2026-04-27T16:41:12.999Z</time></trkpt><trkpt lat="42.288968078990585" lon="13.754307942147552"><ele>376.0</ele><time>2026-04-27T16:41:13.999Z</time></trkpt><trkpt lat="42.28907900031037" lon="13.754413624754926"><ele>376.5</ele><time>2026-04-27T16:41:14.999Z</time></trkpt><trkpt lat="42.289187785803904" lon="13.754522174645276"><ele>377.0</ele><time>2026-04-27T16:41:15.999Z</time></trkpt><trkpt lat="42.2892930237022" lon="13.754635370214656"><ele>376.33333333333337</ele><time>2026-04-27T16:41:16.999Z</time></trkpt><trkpt lat="42.289381858193266" lon="13.754744109986643"><ele>375.6666666666667</ele><time>2026-04-27T16:41:17.999Z</time></trkpt><trkpt lat="42.28944295825419" lon="13.754818428796062"><ele>375.0</ele><time>2026-04-27T16:41:18.999Z</time></trkpt><trkpt lat="42.28949609086766" lon="13.754885734270571"><ele>374.3333333333333</ele><time>2026-04-27T16:41:19.999Z</time></trkpt><trkpt lat="42.28954859420281" lon="13.754957573951941"><ele>373.66666666666663</ele><time>2026-04-27T16:41:20.999Z</time></trkpt><trkpt lat="42.28959394991614" lon="13.75501972068013"><ele>373.0</ele><time>2026-04-27T16:41:21.999Z</time></trkpt><trkpt lat="42.28965852170482" lon="13.755038688272384"><ele>373.0</ele><time>2026-04-27T16:41:23.999Z</time></trkpt><trkpt lat="42.2895759935879" lon="13.755067521228304"><ele>373.0</ele><time>2026-04-27T16:41:28.999Z</time></trkpt><trkpt lat="42.28947091075559" lon="13.754847414266969"><ele>373.0</ele><time>2026-04-27T16:41:29.999Z</time></trkpt><trkpt lat="42.28939058316344" lon="13.75474008540433"><ele>373.0</ele><time>2026-04-27T16:41:30.999Z</time></trkpt><trkpt lat="42.28930398414276" lon="13.754631216963666"><ele>373.0</ele><time>2026-04-27T16:41:31.999Z</time></trkpt><trkpt lat="42.28920490042406" lon="13.754517711966162"><ele>373.0</ele><time>2026-04-27T16:41:32.999Z</time></trkpt><trkpt lat="42.289088916400374" lon="13.754408893546666"><ele>373.0</ele><time>2026-04-27T16:41:33.999Z</time></trkpt><trkpt lat="42.28896347392574" lon="13.754291112779857"><ele>373.0</ele><time>2026-04-27T16:41:34.999Z</time></trkpt><trkpt lat="42.28883150057559" lon="13.754164705133022"><ele>373.66666666666663</ele><time>2026-04-27T16:41:35.999Z</time></trkpt><trkpt lat="42.28869464735641" lon="13.754034208749179"><ele>374.3333333333333</ele><time>2026-04-27T16:41:36.999Z</time></trkpt><trkpt lat="42.28855978854287" lon="13.753903192352933"><ele>375.0</ele><time>2026-04-27T16:41:37.999Z</time></trkpt><trkpt lat="42.28844885175306" lon="13.753788700447426"><ele>375.0</ele><time>2026-04-27T16:41:38.999Z</time></trkpt><trkpt lat="42.2883503607827" lon="13.753689024139328"><ele>375.0</ele><time>2026-04-27T16:41:39.999Z</time></trkpt><trkpt lat="42.28826677293861" lon="13.753606736678623"><ele>375.0</ele><time>2026-04-27T16:41:40.999Z</time></trkpt><trkpt lat="42.288197297673754" lon="13.75354003882871"><ele>375.0</ele><time>2026-04-27T16:41:41.999Z</time></trkpt><trkpt lat="42.28813868544564" lon="13.753425718618772"><ele>375.0</ele><time>2026-04-27T16:41:43.999Z</time></trkpt><trkpt lat="42.28820699435083" lon="13.753297461496533"><ele>374.75</ele><time>2026-04-27T16:41:45.999Z</time></trkpt><trkpt lat="42.28829553859788" lon="13.75323133082337"><ele>374.5</ele><time>2026-04-27T16:41:46.999Z</time></trkpt><trkpt lat="42.28838052681497" lon="13.753128410214016"><ele>374.25</ele><time>2026-04-27T16:41:47.999Z</time></trkpt><trkpt lat="42.28846453762889" lon="13.752993456168749"><ele>374.0</ele><time>2026-04-27T16:41:48.999Z</time></trkpt><trkpt lat="42.2885566751568" lon="13.75283625005597"><ele>375.0</ele><time>2026-04-27T16:41:49.999Z</time></trkpt><trkpt lat="42.28865708766048" lon="13.752671796177111"><ele>376.0</ele><time>2026-04-27T16:41:50.999Z</time></trkpt><trkpt lat="42.28876234059394" lon="13.752500485382608"><ele>377.0</ele><time>2026-04-27T16:41:51.999Z</time></trkpt><trkpt lat="42.28884363469209" lon="13.752309828243986"><ele>377.0</ele><time>2026-04-27T16:41:52.999Z</time></trkpt><trkpt lat="42.288945035588455" lon="13.752143156715245"><ele>377.0</ele><time>2026-04-27T16:41:53.999Z</time></trkpt><trkpt lat="42.2890291059114" lon="13.751953483047048"><ele>377.0</ele><time>2026-04-27T16:41:54.999Z</time></trkpt><trkpt lat="42.28911621000058" lon="13.751767418795861"><ele>378.6666666666667</ele><time>2026-04-27T16:41:55.999Z</time></trkpt><trkpt lat="42.28919764506194" lon="13.75157514034982"><ele>380.3333333333333</ele><time>2026-04-27T16:41:56.999Z</time></trkpt><trkpt lat="42.289274396505455" lon="13.75137345301284"><ele>382.0</ele><time>2026-04-27T16:41:57.999Z</time></trkpt><trkpt lat="42.289352877086685" lon="13.751176455837562"><ele>382.0</ele><time>2026-04-27T16:41:58.999Z</time></trkpt><trkpt lat="42.28943235854623" lon="13.750988810446184"><ele>382.0</ele><time>2026-04-27T16:41:59.998Z</time></trkpt><trkpt lat="42.28949728949446" lon="13.750812508475702"><ele>382.0</ele><time>2026-04-27T16:42:01Z</time></trkpt><trkpt lat="42.2895618342897" lon="13.750636782620992"><ele>382.0</ele><time>2026-04-27T16:42:02Z</time></trkpt><trkpt lat="42.28965730890711" lon="13.750474678115609"><ele>382.0</ele><time>2026-04-27T16:42:03Z</time></trkpt><trkpt lat="42.28975364953671" lon="13.750301913735486"><ele>382.0</ele><time>2026-04-27T16:42:04Z</time></trkpt><trkpt lat="42.28986975067188" lon="13.750159638797028"><ele>381.66666666666663</ele><time>2026-04-27T16:42:05Z</time></trkpt><trkpt lat="42.28996315429642" lon="13.749983716945836"><ele>381.3333333333333</ele><time>2026-04-27T16:42:06Z</time></trkpt><trkpt lat="42.29002757744917" lon="13.749785142904775"><ele>381.0</ele><time>2026-04-27T16:42:07Z</time></trkpt><trkpt lat="42.29010990239274" lon="13.74962460701753"><ele>381.0</ele><time>2026-04-27T16:42:08Z</time></trkpt><trkpt lat="42.29017122353319" lon="13.749464815470876"><ele>381.0</ele><time>2026-04-27T16:42:09Z</time></trkpt><trkpt lat="42.29025163988731" lon="13.749305486094528"><ele>381.0</ele><time>2026-04-27T16:42:10Z</time></trkpt><trkpt lat="42.29032657544958" lon="13.749134362759648"><ele>381.0</ele><time>2026-04-27T16:42:11Z</time></trkpt><trkpt lat="42.29042973645511" lon="13.748972622273234"><ele>381.0</ele><time>2026-04-27T16:42:12Z</time></trkpt><trkpt lat="42.29053152842395" lon="13.748808883483795"><ele>381.0</ele><time>2026-04-27T16:42:13Z</time></trkpt><trkpt lat="42.29063696357638" lon="13.748638496898598"><ele>381.0</ele><time>2026-04-27T16:42:14Z</time></trkpt><trkpt lat="42.29074439266717" lon="13.748465308836762"><ele>381.3333333333333</ele><time>2026-04-27T16:42:15Z</time></trkpt><trkpt lat="42.290847108976294" lon="13.748289789502278"><ele>381.66666666666663</ele><time>2026-04-27T16:42:16Z</time></trkpt><trkpt lat="42.290948764640554" lon="13.74810907512165"><ele>382.0</ele><time>2026-04-27T16:42:17Z</time></trkpt><trkpt lat="42.29105066690118" lon="13.74792460390301"><ele>382.0</ele><time>2026-04-27T16:42:18Z</time></trkpt><trkpt lat="42.29115215234223" lon="13.747740887166179"><ele>382.0</ele><time>2026-04-27T16:42:19Z</time></trkpt><trkpt lat="42.29125417705187" lon="13.747556194253821"><ele>382.0</ele><time>2026-04-27T16:42:20Z</time></trkpt><trkpt lat="42.29135868196574" lon="13.747381273164596"><ele>382.75</ele><time>2026-04-27T16:42:21Z</time></trkpt><trkpt lat="42.29146605889398" lon="13.74724308321025"><ele>383.5</ele><time>2026-04-27T16:42:22Z</time></trkpt><trkpt lat="42.291536745701734" lon="13.747094716507018"><ele>384.25</ele><time>2026-04-27T16:42:23Z</time></trkpt><trkpt lat="42.29161035573254" lon="13.746961179398417"><ele>385.0</ele><time>2026-04-27T16:42:24Z</time></trkpt><trkpt lat="42.29167580836283" lon="13.746839566685027"><ele>385.4</ele><time>2026-04-27T16:42:25Z</time></trkpt><trkpt lat="42.291739624722304" lon="13.746721000517143"><ele>385.8</ele><time>2026-04-27T16:42:26Z</time></trkpt><trkpt lat="42.291798101105044" lon="13.746622358146263"><ele>386.20000000000005</ele><time>2026-04-27T16:42:27Z</time></trkpt><trkpt lat="42.291842695363876" lon="13.746558069033224"><ele>386.6</ele><time>2026-04-27T16:42:28Z</time></trkpt><trkpt lat="42.29195573891257" lon="13.746676845042154"><ele>387.0</ele><time>2026-04-27T16:42:30Z</time></trkpt><trkpt lat="42.29204228736419" lon="13.746723658286248"><ele>387.0</ele><time>2026-04-27T16:42:31Z</time></trkpt><trkpt lat="42.29213020912391" lon="13.746813506145772"><ele>387.0</ele><time>2026-04-27T16:42:32Z</time></trkpt><trkpt lat="42.292236105154714" lon="13.74688954347656"><ele>387.0</ele><time>2026-04-27T16:42:33Z</time></trkpt><trkpt lat="42.29235715890314" lon="13.746970715206496"><ele>387.0</ele><time>2026-04-27T16:42:34Z</time></trkpt><trkpt lat="42.29248796087762" lon="13.747060089050656"><ele>385.75</ele><time>2026-04-27T16:42:35Z</time></trkpt><trkpt lat="42.2926209701669" lon="13.747144616916502"><ele>384.5</ele><time>2026-04-27T16:42:36Z</time></trkpt><trkpt lat="42.29275078533845" lon="13.747209119343477"><ele>383.25</ele><time>2026-04-27T16:42:37Z</time></trkpt><trkpt lat="42.292876507699255" lon="13.747267175119552"><ele>382.0</ele><time>2026-04-27T16:42:38Z</time></trkpt><trkpt lat="42.29300572492025" lon="13.747319006052049"><ele>383.25</ele><time>2026-04-27T16:42:39Z</time></trkpt><trkpt lat="42.293132235871205" lon="13.747373775333651"><ele>384.5</ele><time>2026-04-27T16:42:40Z</time></trkpt><trkpt lat="42.293255998822154" lon="13.747437911883654"><ele>385.75</ele><time>2026-04-27T16:42:41Z</time></trkpt><trkpt lat="42.29337395031344" lon="13.74753043833133"><ele>387.0</ele><time>2026-04-27T16:42:42Z</time></trkpt><trkpt lat="42.293497164664416" lon="13.747619217962034"><ele>387.0</ele><time>2026-04-27T16:42:43Z</time></trkpt><trkpt lat="42.29362927590802" lon="13.747697740368473"><ele>387.0</ele><time>2026-04-27T16:42:44Z</time></trkpt><trkpt lat="42.29377002176288" lon="13.74778133764287"><ele>387.0</ele><time>2026-04-27T16:42:45Z</time></trkpt><trkpt lat="42.29391530064379" lon="13.747861297542784"><ele>387.0</ele><time>2026-04-27T16:42:46Z</time></trkpt><trkpt lat="42.294065982074734" lon="13.747931287296291"><ele>387.0</ele><time>2026-04-27T16:42:47Z</time></trkpt><trkpt lat="42.29421581189645" lon="13.748005446239402"><ele>387.0</ele><time>2026-04-27T16:42:48Z</time></trkpt><trkpt lat="42.29436610367692" lon="13.74808754782036"><ele>387.0</ele><time>2026-04-27T16:42:49Z</time></trkpt><trkpt lat="42.29451293520201" lon="13.748175131339446"><ele>387.0</ele><time>2026-04-27T16:42:50Z</time></trkpt><trkpt lat="42.29464701963943" lon="13.748278438875573"><ele>387.0</ele><time>2026-04-27T16:42:51Z</time></trkpt><trkpt lat="42.29477521732484" lon="13.748331304447627"><ele>387.0</ele><time>2026-04-27T16:42:52Z</time></trkpt><trkpt lat="42.29488314440424" lon="13.748401774318832"><ele>388.6</ele><time>2026-04-27T16:42:53Z</time></trkpt><trkpt lat="42.29497435716303" lon="13.748463371714823"><ele>390.20000000000005</ele><time>2026-04-27T16:42:54Z</time></trkpt><trkpt lat="42.2950516629144" lon="13.748511016925802"><ele>391.8</ele><time>2026-04-27T16:42:55Z</time></trkpt><trkpt lat="42.2951012013837" lon="13.748587905912634"><ele>393.4</ele><time>2026-04-27T16:42:56Z</time></trkpt><trkpt lat="42.295159008913544" lon="13.748662022231189"><ele>395.0</ele><time>2026-04-27T16:42:58Z</time></trkpt><trkpt lat="42.295244511895305" lon="13.748780191155602"><ele>395.4</ele><time>2026-04-27T16:43:01.999Z</time></trkpt><trkpt lat="42.29534287968844" lon="13.74878114383412"><ele>395.8</ele><time>2026-04-27T16:43:02.999Z</time></trkpt><trkpt lat="42.29542133347709" lon="13.748791313376232"><ele>396.20000000000005</ele><time>2026-04-27T16:43:03.999Z</time></trkpt><trkpt lat="42.29551459030071" lon="13.748839679806856"><ele>396.6</ele><time>2026-04-27T16:43:04.999Z</time></trkpt><trkpt lat="42.295619634891715" lon="13.748892231319129"><ele>397.0</ele><time>2026-04-27T16:43:05.999Z</time></trkpt><trkpt lat="42.295722093409914" lon="13.748941373848417"><ele>400.0</ele><time>2026-04-27T16:43:06.999Z</time></trkpt><trkpt lat="42.295832689443564" lon="13.74899264557703"><ele>403.0</ele><time>2026-04-27T16:43:07.999Z</time></trkpt><trkpt lat="42.295924622159234" lon="13.74909969177071"><ele>406.0</ele><time>2026-04-27T16:43:08.999Z</time></trkpt><trkpt lat="42.296029142500494" lon="13.74918747839362"><ele>409.0</ele><time>2026-04-27T16:43:09.999Z</time></trkpt><trkpt lat="42.29611208994841" lon="13.74931958320622"><ele>411.5</ele><time>2026-04-27T16:43:10.999Z</time></trkpt><trkpt lat="42.29619904562039" lon="13.7494542135192"><ele>414.0</ele><time>2026-04-27T16:43:11.999Z</time></trkpt><trkpt lat="42.29630574158465" lon="13.749559193204892"><ele>416.5</ele><time>2026-04-27T16:43:12.999Z</time></trkpt><trkpt lat="42.29642656787806" lon="13.749635533831984"><ele>419.0</ele><time>2026-04-27T16:43:13.999Z</time></trkpt><trkpt lat="42.296551011404226" lon="13.749700859612476"><ele>420.25</ele><time>2026-04-27T16:43:14.999Z</time></trkpt><trkpt lat="42.29666761136212" lon="13.749786642981112"><ele>421.5</ele><time>2026-04-27T16:43:15.999Z</time></trkpt><trkpt lat="42.296779125058286" lon="13.749892693232269"><ele>422.75</ele><time>2026-04-27T16:43:16.999Z</time></trkpt><trkpt lat="42.29688239555799" lon="13.750007268276187"><ele>424.0</ele><time>2026-04-27T16:43:17.999Z</time></trkpt><trkpt lat="42.29695275306012" lon="13.750107545897514"><ele>424.0</ele><time>2026-04-27T16:43:18.999Z</time></trkpt><trkpt lat="42.29701143282759" lon="13.750195260072157"><ele>424.0</ele><time>2026-04-27T16:43:19.999Z</time></trkpt><trkpt lat="42.29707803170077" lon="13.750272345126277"><ele>424.0</ele><time>2026-04-27T16:43:20.999Z</time></trkpt><trkpt lat="42.29716472370382" lon="13.750337686146684"><ele>424.0</ele><time>2026-04-27T16:43:21.999Z</time></trkpt><trkpt lat="42.297265622548814" lon="13.750395825418487"><ele>424.0</ele><time>2026-04-27T16:43:22.999Z</time></trkpt><trkpt lat="42.29735096896214" lon="13.750444241437508"><ele>424.25</ele><time>2026-04-27T16:43:23.999Z</time></trkpt><trkpt lat="42.29742910634786" lon="13.750484176553813"><ele>424.5</ele><time>2026-04-27T16:43:24.999Z</time></trkpt><trkpt lat="42.29748717360008" lon="13.750532778358348"><ele>424.75</ele><time>2026-04-27T16:43:26.999Z</time></trkpt><trkpt lat="42.29760421839662" lon="13.750266883598433"><ele>425.0</ele><time>2026-04-27T16:43:28.999Z</time></trkpt><trkpt lat="42.29767140371028" lon="13.750168381953847"><ele>425.6</ele><time>2026-04-27T16:43:29.999Z</time></trkpt><trkpt lat="42.29775369335262" lon="13.750113285839419"><ele>426.2</ele><time>2026-04-27T16:43:30.999Z</time></trkpt><trkpt lat="42.29785108976272" lon="13.750085508648418"><ele>426.79999999999995</ele><time>2026-04-27T16:43:31.999Z</time></trkpt><trkpt lat="42.29795576369948" lon="13.750054845193553"><ele>427.4</ele><time>2026-04-27T16:43:32.999Z</time></trkpt><trkpt lat="42.29806617452483" lon="13.750039187513458"><ele>428.0</ele><time>2026-04-27T16:43:33.999Z</time></trkpt><trkpt lat="42.29818928321272" lon="13.750037468834403"><ele>428.5</ele><time>2026-04-27T16:43:34.999Z</time></trkpt><trkpt lat="42.29832101798003" lon="13.750044978771047"><ele>429.0</ele><time>2026-04-27T16:43:35.999Z</time></trkpt><trkpt lat="42.29843019787649" lon="13.750056559742312"><ele>429.5</ele><time>2026-04-27T16:43:36.999Z</time></trkpt><trkpt lat="42.29854365598052" lon="13.750053023461227"><ele>430.0</ele><time>2026-04-27T16:43:37.999Z</time></trkpt><trkpt lat="42.29867092453598" lon="13.75002554189425"><ele>430.0</ele><time>2026-04-27T16:43:38.999Z</time></trkpt><trkpt lat="42.29880180163462" lon="13.749992844874665"><ele>430.0</ele><time>2026-04-27T16:43:39.999Z</time></trkpt><trkpt lat="42.29894359139843" lon="13.74996291838756"><ele>430.0</ele><time>2026-04-27T16:43:40.999Z</time></trkpt><trkpt lat="42.29909121121666" lon="13.749937415592177"><ele>430.0</ele><time>2026-04-27T16:43:41.999Z</time></trkpt><trkpt lat="42.299222959403906" lon="13.749912294823687"><ele>429.25</ele><time>2026-04-27T16:43:42.999Z</time></trkpt><trkpt lat="42.299335654862574" lon="13.749889429888453"><ele>428.5</ele><time>2026-04-27T16:43:43.999Z</time></trkpt><trkpt lat="42.29944913449826" lon="13.749883731014267"><ele>427.75</ele><time>2026-04-27T16:43:44.999Z</time></trkpt><trkpt lat="42.299563353862574" lon="13.749878439478296"><ele>427.0</ele><time>2026-04-27T16:43:45.999Z</time></trkpt><trkpt lat="42.299683924574204" lon="13.749848145865792"><ele>426.0</ele><time>2026-04-27T16:43:46.999Z</time></trkpt><trkpt lat="42.299807926472454" lon="13.749786646557443"><ele>425.0</ele><time>2026-04-27T16:43:47.999Z</time></trkpt><trkpt lat="42.29993985769517" lon="13.749710590799989"><ele>424.0</ele><time>2026-04-27T16:43:48.999Z</time></trkpt><trkpt lat="42.300075345725006" lon="13.74964223951614"><ele>423.0</ele><time>2026-04-27T16:43:49.999Z</time></trkpt><trkpt lat="42.30022373849647" lon="13.74960152314093"><ele>423.0</ele><time>2026-04-27T16:43:50.999Z</time></trkpt><trkpt lat="42.30036642066523" lon="13.749567970756532"><ele>423.0</ele><time>2026-04-27T16:43:51.999Z</time></trkpt><trkpt lat="42.30049624351899" lon="13.749527803851302"><ele>423.0</ele><time>2026-04-27T16:43:52.999Z</time></trkpt><trkpt lat="42.30062239953004" lon="13.749475719857392"><ele>423.0</ele><time>2026-04-27T16:43:53.999Z</time></trkpt><trkpt lat="42.30075060739704" lon="13.749435287320175"><ele>421.5</ele><time>2026-04-27T16:43:54.999Z</time></trkpt><trkpt lat="42.30088749169688" lon="13.749410168331767"><ele>420.0</ele><time>2026-04-27T16:43:55.999Z</time></trkpt><trkpt lat="42.30103270067677" lon="13.7493840399803"><ele>418.5</ele><time>2026-04-27T16:43:56.999Z</time></trkpt><trkpt lat="42.30116335388673" lon="13.749351094189425"><ele>417.0</ele><time>2026-04-27T16:43:57.999Z</time></trkpt><trkpt lat="42.30128611711202" lon="13.749294226564999"><ele>420.5</ele><time>2026-04-27T16:43:58.999Z</time></trkpt><trkpt lat="42.30138576989575" lon="13.7492161761722"><ele>424.0</ele><time>2026-04-27T16:43:59.999Z</time></trkpt><trkpt lat="42.301458651104994" lon="13.749126644780079"><ele>427.5</ele><time>2026-04-27T16:44:00.999Z</time></trkpt><trkpt lat="42.30153420151719" lon="13.748993379641364"><ele>431.0</ele><time>2026-04-27T16:44:01.999Z</time></trkpt><trkpt lat="42.30160035432378" lon="13.748849880228184"><ele>431.0</ele><time>2026-04-27T16:44:02.998Z</time></trkpt><trkpt lat="42.30169024835925" lon="13.748734846725108"><ele>431.0</ele><time>2026-04-27T16:44:03.998Z</time></trkpt><trkpt lat="42.30178576269212" lon="13.748628155301773"><ele>431.0</ele><time>2026-04-27T16:44:04.998Z</time></trkpt><trkpt lat="42.301876937327854" lon="13.74850378376368"><ele>431.0</ele><time>2026-04-27T16:44:05.998Z</time></trkpt><trkpt lat="42.301980970010426" lon="13.748395988815824"><ele>435.75</ele><time>2026-04-27T16:44:07Z</time></trkpt><trkpt lat="42.30210116086785" lon="13.748321054830637"><ele>440.5</ele><time>2026-04-27T16:44:08Z</time></trkpt><trkpt lat="42.30222167935886" lon="13.748248487916904"><ele>445.25</ele><time>2026-04-27T16:44:09Z</time></trkpt><trkpt lat="42.30233570105717" lon="13.74814421352886"><ele>450.0</ele><time>2026-04-27T16:44:10Z</time></trkpt><trkpt lat="42.30244838600718" lon="13.748047521207836"><ele>450.0</ele><time>2026-04-27T16:44:11Z</time></trkpt><trkpt lat="42.30257273572383" lon="13.747979397922307"><ele>450.0</ele><time>2026-04-27T16:44:12Z</time></trkpt><trkpt lat="42.30269565196792" lon="13.747931961576073"><ele>450.0</ele><time>2026-04-27T16:44:13Z</time></trkpt><trkpt lat="42.30279780872934" lon="13.747892048522681"><ele>450.0</ele><time>2026-04-27T16:44:14Z</time></trkpt><trkpt lat="42.30288818217555" lon="13.747873135943424"><ele>450.0</ele><time>2026-04-27T16:44:15Z</time></trkpt><trkpt lat="42.303000814402715" lon="13.747888607485097"><ele>450.0</ele><time>2026-04-27T16:44:16Z</time></trkpt><trkpt lat="42.30313308743514" lon="13.74791702686147"><ele>450.0</ele><time>2026-04-27T16:44:17Z</time></trkpt><trkpt lat="42.303270140532916" lon="13.747941803059962"><ele>450.0</ele><time>2026-04-27T16:44:18Z</time></trkpt><trkpt lat="42.303417226217874" lon="13.747971962281273"><ele>452.0</ele><time>2026-04-27T16:44:19Z</time></trkpt><trkpt lat="42.30356945278186" lon="13.74800747429671"><ele>454.0</ele><time>2026-04-27T16:44:20Z</time></trkpt><trkpt lat="42.30372914572706" lon="13.748037955081877"><ele>456.0</ele><time>2026-04-27T16:44:21Z</time></trkpt><trkpt lat="42.30387103113717" lon="13.748081768358698"><ele>460.0</ele><time>2026-04-27T16:44:22Z</time></trkpt><trkpt lat="42.30398781248728" lon="13.74811189171901"><ele>464.0</ele><time>2026-04-27T16:44:23Z</time></trkpt><trkpt lat="42.30409179848602" lon="13.748136348548893"><ele>468.0</ele><time>2026-04-27T16:44:24Z</time></trkpt><trkpt lat="42.30418292824025" lon="13.748181819472423"><ele>472.0</ele><time>2026-04-27T16:44:25Z</time></trkpt><trkpt lat="42.30429636118762" lon="13.748265628557071"><ele>472.0</ele><time>2026-04-27T16:44:26Z</time></trkpt><trkpt lat="42.30442992678925" lon="13.748343214667178"><ele>472.0</ele><time>2026-04-27T16:44:27Z</time></trkpt><trkpt lat="42.30455331779715" lon="13.748401920739676"><ele>472.0</ele><time>2026-04-27T16:44:28Z</time></trkpt><trkpt lat="42.30465427603073" lon="13.748437206489301"><ele>472.0</ele><time>2026-04-27T16:44:29Z</time></trkpt><trkpt lat="42.30475294502459" lon="13.74844427429812"><ele>475.0</ele><time>2026-04-27T16:44:30Z</time></trkpt><trkpt lat="42.30485550857337" lon="13.748424457631621"><ele>478.00000000000006</ele><time>2026-04-27T16:44:31Z</time></trkpt><trkpt lat="42.30496015467639" lon="13.748384720502822"><ele>481.00000000000006</ele><time>2026-04-27T16:44:32Z</time></trkpt><trkpt lat="42.305044651730825" lon="13.748355082320531"><ele>484.0</ele><time>2026-04-27T16:44:33Z</time></trkpt><trkpt lat="42.30511616601664" lon="13.748347183177824"><ele>487.0</ele><time>2026-04-27T16:44:34Z</time></trkpt><trkpt lat="42.30522735120761" lon="13.748406520794212"><ele>487.0</ele><time>2026-04-27T16:44:36Z</time></trkpt><trkpt lat="42.30528116949879" lon="13.748485822077292"><ele>487.00000000000006</ele><time>2026-04-27T16:44:37Z</time></trkpt><trkpt lat="42.30535340040403" lon="13.748528380921874"><ele>487.00000000000006</ele><time>2026-04-27T16:44:38Z</time></trkpt><trkpt lat="42.305455508892095" lon="13.74853160263137"><ele>487.0</ele><time>2026-04-27T16:44:39Z</time></trkpt><trkpt lat="42.30556620393734" lon="13.748515246738489"><ele>487.0</ele><time>2026-04-27T16:44:40Z</time></trkpt><trkpt lat="42.305674286078506" lon="13.748507984030534"><ele>488.20000000000005</ele><time>2026-04-27T16:44:41Z</time></trkpt><trkpt lat="42.30577596768983" lon="13.748490997966512"><ele>489.40000000000003</ele><time>2026-04-27T16:44:42Z</time></trkpt><trkpt lat="42.30587199094027" lon="13.748451542543025"><ele>490.59999999999997</ele><time>2026-04-27T16:44:43Z</time></trkpt><trkpt lat="42.305982206292086" lon="13.748384621698705"><ele>491.79999999999995</ele><time>2026-04-27T16:44:44Z</time></trkpt><trkpt lat="42.30608105342962" lon="13.748326481709075"><ele>493.0</ele><time>2026-04-27T16:44:45Z</time></trkpt><trkpt lat="42.30619756838133" lon="13.748269766644075"><ele>493.0</ele><time>2026-04-27T16:44:46Z</time></trkpt><trkpt lat="42.306332804563205" lon="13.748221147865808"><ele>493.0</ele><time>2026-04-27T16:44:47Z</time></trkpt><trkpt lat="42.30646739617655" lon="13.748169468381786"><ele>493.0</ele><time>2026-04-27T16:44:48Z</time></trkpt><trkpt lat="42.30658398501753" lon="13.748114273881836"><ele>493.0</ele><time>2026-04-27T16:44:49Z</time></trkpt><trkpt lat="42.306676048955424" lon="13.74806284648213"><ele>492.50000000000006</ele><time>2026-04-27T16:44:50Z</time></trkpt><trkpt lat="42.30675683512926" lon="13.748023320529276"><ele>492.0</ele><time>2026-04-27T16:44:51Z</time></trkpt><trkpt lat="42.30682971700342" lon="13.747994284029232"><ele>491.5</ele><time>2026-04-27T16:44:52Z</time></trkpt><trkpt lat="42.30689938562354" lon="13.74797966996293"><ele>491.0</ele><time>2026-04-27T16:44:53Z</time></trkpt><trkpt lat="42.30700674461432" lon="13.747977682560634"><ele>490.50000000000006</ele><time>2026-04-27T16:44:55Z</time></trkpt><trkpt lat="42.30707888299279" lon="13.747973835353562"><ele>490.0</ele><time>2026-04-27T16:44:57Z</time></trkpt><trkpt lat="42.307247536115185" lon="13.74795147423317"><ele>489.0</ele><time>2026-04-27T16:50:30Z</time></trkpt><trkpt lat="42.30734869311593" lon="13.747963986491406"><ele>488.0</ele><time>2026-04-27T16:50:31Z</time></trkpt><trkpt lat="42.30746243315278" lon="13.747965234186294"><ele>487.0</ele><time>2026-04-27T16:50:32Z</time></trkpt><trkpt lat="42.30758406627292" lon="13.747960860971379"><ele>486.0</ele><time>2026-04-27T16:50:33Z</time></trkpt><trkpt lat="42.307711317942754" lon="13.74795166632734"><ele>486.0</ele><time>2026-04-27T16:50:34Z</time></trkpt><trkpt lat="42.3078518508039" lon="13.747943116743274"><ele>486.0</ele><time>2026-04-27T16:50:35Z</time></trkpt><trkpt lat="42.308005257532535" lon="13.747931459118615"><ele>486.0</ele><time>2026-04-27T16:50:36Z</time></trkpt><trkpt lat="42.30815757560312" lon="13.74791741689083"><ele>486.0</ele><time>2026-04-27T16:50:37Z</time></trkpt><trkpt lat="42.308277178185826" lon="13.747902881695293"><ele>486.25</ele><time>2026-04-27T16:50:38Z</time></trkpt><trkpt lat="42.308383079163534" lon="13.747872990113962"><ele>486.5</ele><time>2026-04-27T16:50:39Z</time></trkpt><trkpt lat="42.30850456124557" lon="13.747829719982883"><ele>486.75</ele><time>2026-04-27T16:50:40Z</time></trkpt><trkpt lat="42.30863718016459" lon="13.747816299169864"><ele>487.0</ele><time>2026-04-27T16:50:41Z</time></trkpt><trkpt lat="42.308753605184535" lon="13.747818023584404"><ele>487.0</ele><time>2026-04-27T16:50:42Z</time></trkpt><trkpt lat="42.30885769727426" lon="13.747820803148384"><ele>487.00000000000006</ele><time>2026-04-27T16:50:43Z</time></trkpt><trkpt lat="42.308939820086394" lon="13.747798106017944"><ele>487.00000000000006</ele><time>2026-04-27T16:50:44Z</time></trkpt><trkpt lat="42.30899549905104" lon="13.747690435674993"><ele>487.0</ele><time>2026-04-27T16:50:46Z</time></trkpt><trkpt lat="42.309004126935044" lon="13.747583808037922"><ele>487.0</ele><time>2026-04-27T16:50:47Z</time></trkpt><trkpt lat="42.30901350309495" lon="13.74745258716888"><ele>489.0</ele><time>2026-04-27T16:50:48Z</time></trkpt><trkpt lat="42.30905641556201" lon="13.747318787469528"><ele>491.0</ele><time>2026-04-27T16:50:49Z</time></trkpt><trkpt lat="42.30913431392185" lon="13.747183541461013"><ele>493.0</ele><time>2026-04-27T16:50:50Z</time></trkpt><trkpt lat="42.309244867192355" lon="13.747033147253081"><ele>495.0</ele><time>2026-04-27T16:50:51Z</time></trkpt><trkpt lat="42.30934268509868" lon="13.746888345952707"><ele>499.4</ele><time>2026-04-27T16:50:52Z</time></trkpt><trkpt lat="42.309436503125426" lon="13.746730229947978"><ele>503.8</ele><time>2026-04-27T16:50:53Z</time></trkpt><trkpt lat="42.30951400435561" lon="13.746611698583774"><ele>508.20000000000005</ele><time>2026-04-27T16:50:54Z</time></trkpt><trkpt lat="42.30958733396855" lon="13.7465163927224"><ele>512.6</ele><time>2026-04-27T16:50:55Z</time></trkpt><trkpt lat="42.30964629736983" lon="13.746459713262846"><ele>517.0</ele><time>2026-04-27T16:50:56Z</time></trkpt><trkpt lat="42.309732061382746" lon="13.746433771918266"><ele>516.8000000000001</ele><time>2026-04-27T16:50:58Z</time></trkpt><trkpt lat="42.30978832622587" lon="13.746475103334342"><ele>516.6</ele><time>2026-04-27T16:50:59Z</time></trkpt><trkpt lat="42.30985870641619" lon="13.746552208321841"><ele>516.4000000000001</ele><time>2026-04-27T16:51:00Z</time></trkpt><trkpt lat="42.3099454670947" lon="13.7466336688314"><ele>516.2</ele><time>2026-04-27T16:51:01Z</time></trkpt><trkpt lat="42.31004010581619" lon="13.746712667331245"><ele>516.0</ele><time>2026-04-27T16:51:02Z</time></trkpt><trkpt lat="42.31013998711948" lon="13.746778884631174"><ele>516.0</ele><time>2026-04-27T16:51:03Z</time></trkpt><trkpt lat="42.31023741644848" lon="13.746838947509756"><ele>516.0</ele><time>2026-04-27T16:51:04Z</time></trkpt><trkpt lat="42.31035168782213" lon="13.746906157977481"><ele>516.0</ele><time>2026-04-27T16:51:05Z</time></trkpt><trkpt lat="42.31047127554598" lon="13.74696710001795"><ele>516.0</ele><time>2026-04-27T16:51:06Z</time></trkpt><trkpt lat="42.310612381387436" lon="13.747036114479283"><ele>509.0</ele><time>2026-04-27T16:51:07Z</time></trkpt><trkpt lat="42.310753214544135" lon="13.747115845672129"><ele>502.0</ele><time>2026-04-27T16:51:08Z</time></trkpt><trkpt lat="42.31090249287896" lon="13.747197373846035"><ele>495.0</ele><time>2026-04-27T16:51:09Z</time></trkpt><trkpt lat="42.311053529085235" lon="13.747270862493151"><ele>495.0</ele><time>2026-04-27T16:51:10Z</time></trkpt><trkpt lat="42.31119964996515" lon="13.74734134972426"><ele>495.0</ele><time>2026-04-27T16:51:11Z</time></trkpt><trkpt lat="42.31133746774324" lon="13.747412929783655"><ele>495.0</ele><time>2026-04-27T16:51:12Z</time></trkpt><trkpt lat="42.31147769517603" lon="13.747485602789466"><ele>498.33333333333337</ele><time>2026-04-27T16:51:12.999Z</time></trkpt><trkpt lat="42.3116190489367" lon="13.747558652851344"><ele>501.6666666666667</ele><time>2026-04-27T16:51:13.999Z</time></trkpt><trkpt lat="42.31176148880006" lon="13.747627776826754"><ele>505.0</ele><time>2026-04-27T16:51:14.999Z</time></trkpt><trkpt lat="42.31189733287192" lon="13.747703491111961"><ele>497.75</ele><time>2026-04-27T16:51:15.999Z</time></trkpt><trkpt lat="42.31202603824703" lon="13.747769423618324"><ele>490.5</ele><time>2026-04-27T16:51:16.999Z</time></trkpt><trkpt lat="42.31214279868846" lon="13.747824069411019"><ele>483.25</ele><time>2026-04-27T16:51:17.999Z</time></trkpt><trkpt lat="42.312260845113" lon="13.747873329320278"><ele>476.0</ele><time>2026-04-27T16:51:18.999Z</time></trkpt><trkpt lat="42.312384546542" lon="13.747936081189167"><ele>475.5</ele><time>2026-04-27T16:51:19.999Z</time></trkpt><trkpt lat="42.31251193588277" lon="13.747998634676478"><ele>475.0</ele><time>2026-04-27T16:51:20.999Z</time></trkpt><trkpt lat="42.312635139512025" lon="13.748060137807878"><ele>474.5</ele><time>2026-04-27T16:51:21.999Z</time></trkpt><trkpt lat="42.31275658691409" lon="13.748126170613991"><ele>474.0</ele><time>2026-04-27T16:51:22.999Z</time></trkpt><trkpt lat="42.312876754203785" lon="13.748194725458701"><ele>474.0</ele><time>2026-04-27T16:51:23.999Z</time></trkpt><trkpt lat="42.31299134442259" lon="13.748267657731358"><ele>474.0</ele><time>2026-04-27T16:51:24.999Z</time></trkpt><trkpt lat="42.3131113594674" lon="13.74833601479578"><ele>474.0</ele><time>2026-04-27T16:51:25.999Z</time></trkpt><trkpt lat="42.313231863744974" lon="13.748400354060411"><ele>474.0</ele><time>2026-04-27T16:51:26.999Z</time></trkpt><trkpt lat="42.31336076731399" lon="13.748453030153959"><ele>473.6</ele><time>2026-04-27T16:51:27.999Z</time></trkpt><trkpt lat="42.313481219201556" lon="13.748520785747182"><ele>473.2</ele><time>2026-04-27T16:51:28.999Z</time></trkpt><trkpt lat="42.31359295397899" lon="13.748592330988236"><ele>472.80000000000007</ele><time>2026-04-27T16:51:29.999Z</time></trkpt><trkpt lat="42.313687560350985" lon="13.748628584674012"><ele>472.40000000000003</ele><time>2026-04-27T16:51:30.999Z</time></trkpt><trkpt lat="42.31378203405642" lon="13.74864411729225"><ele>472.0</ele><time>2026-04-27T16:51:31.999Z</time></trkpt><trkpt lat="42.31390062578526" lon="13.748633632763013"><ele>466.25</ele><time>2026-04-27T16:51:32.999Z</time></trkpt><trkpt lat="42.314039943505115" lon="13.748618268826363"><ele>460.5</ele><time>2026-04-27T16:51:33.999Z</time></trkpt><trkpt lat="42.31418754816717" lon="13.748608445738524"><ele>454.75</ele><time>2026-04-27T16:51:34.999Z</time></trkpt><trkpt lat="42.314344805639195" lon="13.748615891073733"><ele>449.0</ele><time>2026-04-27T16:51:35.999Z</time></trkpt><trkpt lat="42.31450857297475" lon="13.748638270726255"><ele>449.0</ele><time>2026-04-27T16:51:36.999Z</time></trkpt><trkpt lat="42.31466062205488" lon="13.748637062906706"><ele>449.0</ele><time>2026-04-27T16:51:37.999Z</time></trkpt><trkpt lat="42.31479497803527" lon="13.74863491826562"><ele>449.0</ele><time>2026-04-27T16:51:38.999Z</time></trkpt><trkpt lat="42.31491229840099" lon="13.74864104232101"><ele>449.0</ele><time>2026-04-27T16:51:39.999Z</time></trkpt><trkpt lat="42.31503574696016" lon="13.748649564839061"><ele>448.75</ele><time>2026-04-27T16:51:40.999Z</time></trkpt><trkpt lat="42.31515306664209" lon="13.7486527970261"><ele>448.5</ele><time>2026-04-27T16:51:41.999Z</time></trkpt><trkpt lat="42.315259406474745" lon="13.748663490424697"><ele>448.25</ele><time>2026-04-27T16:51:42.999Z</time></trkpt><trkpt lat="42.315381930225044" lon="13.748669232871386"><ele>448.0</ele><time>2026-04-27T16:51:43.999Z</time></trkpt><trkpt lat="42.315514353318186" lon="13.748658032545517"><ele>448.75</ele><time>2026-04-27T16:51:44.999Z</time></trkpt><trkpt lat="42.31565129055378" lon="13.748641863393567"><ele>449.5</ele><time>2026-04-27T16:51:45.999Z</time></trkpt><trkpt lat="42.31578426653726" lon="13.748634298420809"><ele>450.25</ele><time>2026-04-27T16:51:46.999Z</time></trkpt><trkpt lat="42.31591536903653" lon="13.748631265384237"><ele>451.0</ele><time>2026-04-27T16:51:47.999Z</time></trkpt><trkpt lat="42.31604017328349" lon="13.748641733555441"><ele>451.0</ele><time>2026-04-27T16:51:48.999Z</time></trkpt><trkpt lat="42.31616250224756" lon="13.748675628939727"><ele>451.0</ele><time>2026-04-27T16:51:49.999Z</time></trkpt><trkpt lat="42.316281710874" lon="13.748691832852844"><ele>451.0</ele><time>2026-04-27T16:51:50.999Z</time></trkpt><trkpt lat="42.31639446783132" lon="13.748701805979819"><ele>451.0</ele><time>2026-04-27T16:51:51.999Z</time></trkpt><trkpt lat="42.31649258067176" lon="13.74873581129456"><ele>452.20000000000005</ele><time>2026-04-27T16:51:52.999Z</time></trkpt><trkpt lat="42.31658003897873" lon="13.748799509097307"><ele>453.40000000000003</ele><time>2026-04-27T16:51:53.999Z</time></trkpt><trkpt lat="42.31665660817149" lon="13.748883092421458"><ele>454.6</ele><time>2026-04-27T16:51:54.999Z</time></trkpt><trkpt lat="42.31672844922931" lon="13.748987947456698"><ele>455.8</ele><time>2026-04-27T16:51:55.999Z</time></trkpt><trkpt lat="42.316803818565354" lon="13.749088067712934"><ele>457.0</ele><time>2026-04-27T16:51:56.999Z</time></trkpt><trkpt lat="42.316884795682924" lon="13.749188105091367"><ele>457.00000000000006</ele><time>2026-04-27T16:51:57.999Z</time></trkpt><trkpt lat="42.31696233479458" lon="13.749284396280228"><ele>457.0</ele><time>2026-04-27T16:51:58.999Z</time></trkpt><trkpt lat="42.31703325461549" lon="13.749361423915643"><ele>457.0</ele><time>2026-04-27T16:51:59.999Z</time></trkpt><trkpt lat="42.317098206767504" lon="13.749412906512767"><ele>457.0</ele><time>2026-04-27T16:52:00.999Z</time></trkpt><trkpt lat="42.317165440204114" lon="13.74946092050353"><ele>457.00000000000006</ele><time>2026-04-27T16:52:01.999Z</time></trkpt><trkpt lat="42.31725091054588" lon="13.749517341802797"><ele>457.0</ele><time>2026-04-27T16:52:02.999Z</time></trkpt><trkpt lat="42.31736769632357" lon="13.749595365925872"><ele>456.20000000000005</ele><time>2026-04-27T16:52:03.999Z</time></trkpt><trkpt lat="42.31746072221685" lon="13.749674492842077"><ele>455.40000000000003</ele><time>2026-04-27T16:52:04.999Z</time></trkpt><trkpt lat="42.31753714605019" lon="13.749747280075113"><ele>454.59999999999997</ele><time>2026-04-27T16:52:05.999Z</time></trkpt><trkpt lat="42.317633759391704" lon="13.749804660130236"><ele>453.79999999999995</ele><time>2026-04-27T16:52:07.999Z</time></trkpt><trkpt lat="42.31772228659697" lon="13.749808756210696"><ele>453.0</ele><time>2026-04-27T16:52:09.999Z</time></trkpt><trkpt lat="42.31778108457806" lon="13.749878285055797"><ele>453.0</ele><time>2026-04-27T16:52:11.999Z</time></trkpt><trkpt lat="42.31787864361511" lon="13.749966280540741"><ele>453.0</ele><time>2026-04-27T16:52:13.999Z</time></trkpt><trkpt lat="42.31794512174607" lon="13.750027158229354"><ele>453.0</ele><time>2026-04-27T16:52:14.999Z</time></trkpt><trkpt lat="42.31801555440167" lon="13.750071763671144"><ele>453.0</ele><time>2026-04-27T16:52:15.999Z</time></trkpt><trkpt lat="42.3180823991065" lon="13.750128891198637"><ele>453.0</ele><time>2026-04-27T16:52:16.999Z</time></trkpt><trkpt lat="42.31814655857228" lon="13.750176924081421"><ele>453.0</ele><time>2026-04-27T16:52:17.998Z</time></trkpt><trkpt lat="42.31823705169736" lon="13.7502236618033"><ele>452.59999999999997</ele><time>2026-04-27T16:52:19.998Z</time></trkpt><trkpt lat="42.31824567386502" lon="13.750311332761306"><ele>452.19999999999993</ele><time>2026-04-27T16:52:21.998Z</time></trkpt><trkpt lat="42.31814993585587" lon="13.750462309489953"><ele>451.8</ele><time>2026-04-27T16:52:23.998Z</time></trkpt><trkpt lat="42.31808367337335" lon="13.750561124693986"><ele>451.4</ele><time>2026-04-27T16:52:24.998Z</time></trkpt><trkpt lat="42.318034050845846" lon="13.75064349829118"><ele>451.0</ele><time>2026-04-27T16:52:25.998Z</time></trkpt><trkpt lat="42.31799268326761" lon="13.750731631708792"><ele>449.4</ele><time>2026-04-27T16:52:26.998Z</time></trkpt><trkpt lat="42.31795124848769" lon="13.750819687670242"><ele>447.8</ele><time>2026-04-27T16:52:27.998Z</time></trkpt><trkpt lat="42.31790655154265" lon="13.750926209411752"><ele>446.19999999999993</ele><time>2026-04-27T16:52:28.998Z</time></trkpt><trkpt lat="42.317844268038534" lon="13.751053492555663"><ele>444.59999999999997</ele><time>2026-04-27T16:52:30Z</time></trkpt><trkpt lat="42.31779591785973" lon="13.751164066002007"><ele>443.0</ele><time>2026-04-27T16:52:31Z</time></trkpt><trkpt lat="42.317758236697344" lon="13.751251347979291"><ele>441.99999999999994</ele><time>2026-04-27T16:52:32Z</time></trkpt><trkpt lat="42.317729118653126" lon="13.75135372629828"><ele>441.0</ele><time>2026-04-27T16:52:33Z</time></trkpt><trkpt lat="42.3177044273639" lon="13.751440009754795"><ele>440.0</ele><time>2026-04-27T16:52:34Z</time></trkpt><trkpt lat="42.31767897002645" lon="13.751521888348499"><ele>439.0</ele><time>2026-04-27T16:52:38Z</time></trkpt><trkpt lat="42.31781232697529" lon="13.751573864981012"><ele>437.99999999999994</ele><time>2026-04-27T16:52:41Z</time></trkpt><trkpt lat="42.31789612645943" lon="13.751560033824692"><ele>437.0</ele><time>2026-04-27T16:52:42Z</time></trkpt><trkpt lat="42.31801224265108" lon="13.751528553863768"><ele>437.75</ele><time>2026-04-27T16:52:43Z</time></trkpt><trkpt lat="42.31813277682214" lon="13.751482272182809"><ele>438.5</ele><time>2026-04-27T16:52:44Z</time></trkpt><trkpt lat="42.31826078888722" lon="13.751394815900484"><ele>439.25</ele><time>2026-04-27T16:52:45Z</time></trkpt><trkpt lat="42.31838013204383" lon="13.75131780047453"><ele>440.0</ele><time>2026-04-27T16:52:46Z</time></trkpt><trkpt lat="42.31850060886281" lon="13.751310140410027"><ele>440.0</ele><time>2026-04-27T16:52:47Z</time></trkpt><trkpt lat="42.31860237705434" lon="13.751288029705814"><ele>440.0</ele><time>2026-04-27T16:52:48Z</time></trkpt><trkpt lat="42.31873855903373" lon="13.751294473333564"><ele>440.0</ele><time>2026-04-27T16:52:50Z</time></trkpt><trkpt lat="42.31880477534686" lon="13.751305431107339"><ele>440.0</ele><time>2026-04-27T16:52:51Z</time></trkpt><trkpt lat="42.31888852538144" lon="13.751322101966975"><ele>440.0</ele><time>2026-04-27T16:52:52Z</time></trkpt><trkpt lat="42.31898405839476" lon="13.75133724811194"><ele>440.99999999999994</ele><time>2026-04-27T16:52:53Z</time></trkpt><trkpt lat="42.319063719517096" lon="13.751343803605966"><ele>442.0</ele><time>2026-04-27T16:52:54Z</time></trkpt><trkpt lat="42.31913786325123" lon="13.751354729225168"><ele>443.0</ele><time>2026-04-27T16:52:55Z</time></trkpt><trkpt lat="42.319218182409486" lon="13.751444757184503"><ele>444.0</ele><time>2026-04-27T16:52:57Z</time></trkpt><trkpt lat="42.31917801017573" lon="13.751547653894292"><ele>444.99999999999994</ele><time>2026-04-27T16:52:58Z</time></trkpt><trkpt lat="42.31920998937272" lon="13.75163070634345"><ele>446.0</ele><time>2026-04-27T16:52:59Z</time></trkpt><trkpt lat="42.31923581512931" lon="13.751710607360227"><ele>446.0</ele><time>2026-04-27T16:53:00Z</time></trkpt><trkpt lat="42.319268767632515" lon="13.751809785710863"><ele>446.0</ele><time>2026-04-27T16:53:01Z</time></trkpt><trkpt lat="42.31931447322871" lon="13.751919194409751"><ele>446.0</ele><time>2026-04-27T16:53:02Z</time></trkpt><trkpt lat="42.31937072853692" lon="13.752022786575552"><ele>446.0</ele><time>2026-04-27T16:53:03Z</time></trkpt><trkpt lat="42.319425881018596" lon="13.752136882117812"><ele>446.0</ele><time>2026-04-27T16:53:04Z</time></trkpt><trkpt lat="42.31947447655641" lon="13.752232194705739"><ele>443.4</ele><time>2026-04-27T16:53:05Z</time></trkpt><trkpt lat="42.3195203028545" lon="13.752338682303368"><ele>440.8</ele><time>2026-04-27T16:53:06Z</time></trkpt><trkpt lat="42.31955226217132" lon="13.752447994955556"><ele>438.19999999999993</ele><time>2026-04-27T16:53:07Z</time></trkpt><trkpt lat="42.319589345337484" lon="13.75257670984675"><ele>435.59999999999997</ele><time>2026-04-27T16:53:08Z</time></trkpt><trkpt lat="42.31962479137712" lon="13.752709521324872"><ele>433.0</ele><time>2026-04-27T16:53:09Z</time></trkpt><trkpt lat="42.31965893183422" lon="13.752844822033325"><ele>433.79999999999995</ele><time>2026-04-27T16:53:10Z</time></trkpt><trkpt lat="42.31969125797491" lon="13.752965594965872"><ele>434.59999999999997</ele><time>2026-04-27T16:53:11Z</time></trkpt><trkpt lat="42.31971786305088" lon="13.753062544742441"><ele>435.40000000000003</ele><time>2026-04-27T16:53:12Z</time></trkpt><trkpt lat="42.319751053778646" lon="13.753180594843949"><ele>436.20000000000005</ele><time>2026-04-27T16:53:13Z</time></trkpt><trkpt lat="42.31978657535983" lon="13.753305607264458"><ele>437.0</ele><time>2026-04-27T16:53:14Z</time></trkpt><trkpt lat="42.319822222121914" lon="13.75343866941214"><ele>435.8</ele><time>2026-04-27T16:53:15Z</time></trkpt><trkpt lat="42.31985851800297" lon="13.753578651522734"><ele>434.6</ele><time>2026-04-27T16:53:16Z</time></trkpt><trkpt lat="42.31989486715781" lon="13.753717405982977"><ele>433.40000000000003</ele><time>2026-04-27T16:53:17Z</time></trkpt><trkpt lat="42.3199328584579" lon="13.753853936104754"><ele>432.20000000000005</ele><time>2026-04-27T16:53:17.999Z</time></trkpt><trkpt lat="42.31997175250429" lon="13.753987516773094"><ele>431.0</ele><time>2026-04-27T16:53:18.999Z</time></trkpt><trkpt lat="42.320010766973844" lon="13.754121511003522"><ele>431.0</ele><time>2026-04-27T16:53:19.999Z</time></trkpt><trkpt lat="42.32006094622392" lon="13.754232568283589"><ele>431.0</ele><time>2026-04-27T16:53:20.999Z</time></trkpt><trkpt lat="42.32011712043658" lon="13.754341773317147"><ele>431.0</ele><time>2026-04-27T16:53:21.999Z</time></trkpt><trkpt lat="42.32017789298162" lon="13.754450627185161"><ele>431.0</ele><time>2026-04-27T16:53:22.999Z</time></trkpt><trkpt lat="42.320234724420914" lon="13.754563807063926"><ele>431.0</ele><time>2026-04-27T16:53:23.999Z</time></trkpt><trkpt lat="42.32026221639865" lon="13.754685772368177"><ele>430.99999999999994</ele><time>2026-04-27T16:53:24.999Z</time></trkpt><trkpt lat="42.320302167408784" lon="13.754806728051719"><ele>431.0</ele><time>2026-04-27T16:53:25.999Z</time></trkpt><trkpt lat="42.320359073981194" lon="13.754920732481429"><ele>431.0</ele><time>2026-04-27T16:53:26.999Z</time></trkpt><trkpt lat="42.32038113002283" lon="13.755034083794445"><ele>431.0</ele><time>2026-04-27T16:53:27.999Z</time></trkpt><trkpt lat="42.32042282765178" lon="13.755109506311054"><ele>430.99999999999994</ele><time>2026-04-27T16:53:28.999Z</time></trkpt><trkpt lat="42.32044203690583" lon="13.75519405205927"><ele>431.0</ele><time>2026-04-27T16:53:29.999Z</time></trkpt><trkpt lat="42.32046489200232" lon="13.75527624603644"><ele>431.0</ele><time>2026-04-27T16:53:30.999Z</time></trkpt><trkpt lat="42.32048043001295" lon="13.755370771278022"><ele>431.0</ele><time>2026-04-27T16:53:31.999Z</time></trkpt><trkpt lat="42.32047398799724" lon="13.755491166762928"><ele>431.0</ele><time>2026-04-27T16:53:33.999Z</time></trkpt><trkpt lat="42.32063480964203" lon="13.755191690332525"><ele>431.0</ele><time>2026-04-27T16:53:34.999Z</time></trkpt><trkpt lat="42.320746277377125" lon="13.755196246953338"><ele>434.0</ele><time>2026-04-27T16:53:36.999Z</time></trkpt><trkpt lat="42.320869831070176" lon="13.755221684613431"><ele>437.0</ele><time>2026-04-27T16:53:38.999Z</time></trkpt><trkpt lat="42.32096632884133" lon="13.755830342954539"><ele>437.0</ele><time>2026-04-27T16:53:39.999Z</time></trkpt><trkpt lat="42.321050554733006" lon="13.755890042751508"><ele>437.00000000000006</ele><time>2026-04-27T16:53:40.999Z</time></trkpt><trkpt lat="42.32112664098555" lon="13.755961787089529"><ele>437.00000000000006</ele><time>2026-04-27T16:53:41.999Z</time></trkpt><trkpt lat="42.32119206130117" lon="13.756053833081555"><ele>437.0</ele><time>2026-04-27T16:53:42.999Z</time></trkpt><trkpt lat="42.321249741137585" lon="13.75615917596403"><ele>437.0</ele><time>2026-04-27T16:53:43.999Z</time></trkpt><trkpt lat="42.32130760695285" lon="13.756260290601986"><ele>438.0</ele><time>2026-04-27T16:53:44.999Z</time></trkpt><trkpt lat="42.32137652678804" lon="13.756353529996751"><ele>439.0</ele><time>2026-04-27T16:53:45.999Z</time></trkpt><trkpt lat="42.32146643804491" lon="13.75644623076079"><ele>440.0</ele><time>2026-04-27T16:53:46.999Z</time></trkpt><trkpt lat="42.321573916765416" lon="13.75654685348334"><ele>441.0</ele><time>2026-04-27T16:53:47.999Z</time></trkpt><trkpt lat="42.32168705701773" lon="13.75666130044409"><ele>442.20000000000005</ele><time>2026-04-27T16:53:48.999Z</time></trkpt><trkpt lat="42.32179537094341" lon="13.756770378851945"><ele>443.40000000000003</ele><time>2026-04-27T16:53:49.999Z</time></trkpt><trkpt lat="42.32188189716304" lon="13.75685432176551"><ele>444.6</ele><time>2026-04-27T16:53:50.999Z</time></trkpt><trkpt lat="42.32196920814865" lon="13.756919966561904"><ele>445.8</ele><time>2026-04-27T16:53:51.999Z</time></trkpt><trkpt lat="42.32206777135652" lon="13.756960829111318"><ele>447.0</ele><time>2026-04-27T16:53:52.999Z</time></trkpt><trkpt lat="42.322153438478146" lon="13.756978456045992"><ele>447.8</ele><time>2026-04-27T16:53:53.999Z</time></trkpt><trkpt lat="42.32221938179721" lon="13.757018814614273"><ele>448.6</ele><time>2026-04-27T16:53:54.999Z</time></trkpt><trkpt lat="42.322288277625105" lon="13.757089235178285"><ele>449.40000000000003</ele><time>2026-04-27T16:53:55.999Z</time></trkpt><trkpt lat="42.32235128233831" lon="13.75719677027595"><ele>450.20000000000005</ele><time>2026-04-27T16:53:56.999Z</time></trkpt><trkpt lat="42.322404518887275" lon="13.757321599073428"><ele>451.0</ele><time>2026-04-27T16:53:57.999Z</time></trkpt><trkpt lat="42.32246050574718" lon="13.757415215185093"><ele>452.4</ele><time>2026-04-27T16:53:58.999Z</time></trkpt><trkpt lat="42.322509820846335" lon="13.757514199146428"><ele>453.8</ele><time>2026-04-27T16:53:59.999Z</time></trkpt><trkpt lat="42.322542317228184" lon="13.757637087981859"><ele>455.19999999999993</ele><time>2026-04-27T16:54:00.999Z</time></trkpt><trkpt lat="42.32258151511209" lon="13.757780374436487"><ele>456.59999999999997</ele><time>2026-04-27T16:54:01.999Z</time></trkpt><trkpt lat="42.32263255394875" lon="13.75792328043942"><ele>458.0</ele><time>2026-04-27T16:54:02.999Z</time></trkpt><trkpt lat="42.32266998900331" lon="13.758022307063124"><ele>458.59999999999997</ele><time>2026-04-27T16:54:03.999Z</time></trkpt><trkpt lat="42.32269612685476" lon="13.75811405241525"><ele>459.19999999999993</ele><time>2026-04-27T16:54:04.999Z</time></trkpt><trkpt lat="42.32271925383145" lon="13.75822030711862"><ele>459.8</ele><time>2026-04-27T16:54:06.999Z</time></trkpt><trkpt lat="42.322887737754435" lon="13.75823302031622"><ele>460.4</ele><time>2026-04-27T16:54:08.999Z</time></trkpt><trkpt lat="42.32295952243898" lon="13.758244393281243"><ele>461.0</ele><time>2026-04-27T16:54:09.999Z</time></trkpt><trkpt lat="42.323048716790396" lon="13.758260681549514"><ele>463.0</ele><time>2026-04-27T16:54:10.999Z</time></trkpt><trkpt lat="42.32314167593665" lon="13.758289004065364"><ele>465.0</ele><time>2026-04-27T16:54:11.999Z</time></trkpt><trkpt lat="42.3232333781706" lon="13.758324735660302"><ele>467.0</ele><time>2026-04-27T16:54:12.999Z</time></trkpt><trkpt lat="42.32333067707346" lon="13.758370265449726"><ele>469.0</ele><time>2026-04-27T16:54:13.999Z</time></trkpt><trkpt lat="42.32342436460645" lon="13.758419257810143"><ele>471.0</ele><time>2026-04-27T16:54:14.999Z</time></trkpt><trkpt lat="42.32351806455478" lon="13.758469158927891"><ele>471.0</ele><time>2026-04-27T16:54:15.999Z</time></trkpt><trkpt lat="42.32363303779702" lon="13.758532386150351"><ele>471.0</ele><time>2026-04-27T16:54:16.999Z</time></trkpt><trkpt lat="42.323724365653916" lon="13.758632717005504"><ele>471.0</ele><time>2026-04-27T16:54:17.999Z</time></trkpt><trkpt lat="42.323810177962166" lon="13.758726959269366"><ele>471.0</ele><time>2026-04-27T16:54:18.999Z</time></trkpt><trkpt lat="42.32386876141573" lon="13.758845131006089"><ele>472.8</ele><time>2026-04-27T16:54:19.999Z</time></trkpt><trkpt lat="42.32390604537554" lon="13.758968142975437"><ele>474.6</ele><time>2026-04-27T16:54:20.999Z</time></trkpt><trkpt lat="42.32392387956155" lon="13.759098635244138"><ele>476.4</ele><time>2026-04-27T16:54:21.999Z</time></trkpt><trkpt lat="42.323932456186945" lon="13.759242727406335"><ele>478.2</ele><time>2026-04-27T16:54:22.998Z</time></trkpt><trkpt lat="42.32395453443126" lon="13.759365495105829"><ele>480.0</ele><time>2026-04-27T16:54:23.998Z</time></trkpt><trkpt lat="42.32397971817253" lon="13.759470641549138"><ele>481.1666666666667</ele><time>2026-04-27T16:54:24.998Z</time></trkpt><trkpt lat="42.32400714544699" lon="13.759574830221604"><ele>482.33333333333337</ele><time>2026-04-27T16:54:25.998Z</time></trkpt><trkpt lat="42.32404998716095" lon="13.759679558403258"><ele>483.5</ele><time>2026-04-27T16:54:26.998Z</time></trkpt><trkpt lat="42.32408517133554" lon="13.759776780096418"><ele>484.6666666666667</ele><time>2026-04-27T16:54:27.998Z</time></trkpt><trkpt lat="42.32411708631273" lon="13.75986496826965"><ele>485.83333333333337</ele><time>2026-04-27T16:54:28.998Z</time></trkpt><trkpt lat="42.32414942559515" lon="13.759954328909616"><ele>487.0</ele><time>2026-04-27T16:54:29.998Z</time></trkpt><trkpt lat="42.32418122417557" lon="13.760042195361146"><ele>487.0</ele><time>2026-04-27T16:54:30.998Z</time></trkpt><trkpt lat="42.324212265451" lon="13.760127968807474"><ele>487.00000000000006</ele><time>2026-04-27T16:54:31.998Z</time></trkpt><trkpt lat="42.32437115278077" lon="13.760136432021271"><ele>487.00000000000006</ele><time>2026-04-27T16:54:32.998Z</time></trkpt><trkpt lat="42.32445382764354" lon="13.760185491278254"><ele>487.0</ele><time>2026-04-27T16:54:33.998Z</time></trkpt><trkpt lat="42.324543055278006" lon="13.760233209460166"><ele>487.0</ele><time>2026-04-27T16:54:34.998Z</time></trkpt><trkpt lat="42.32463388167464" lon="13.76028208341283"><ele>489.1666666666667</ele><time>2026-04-27T16:54:36Z</time></trkpt><trkpt lat="42.32472947378106" lon="13.760328790487174"><ele>491.33333333333337</ele><time>2026-04-27T16:54:37Z</time></trkpt><trkpt lat="42.32481930175554" lon="13.760374756788742"><ele>493.5</ele><time>2026-04-27T16:54:38Z</time></trkpt><trkpt lat="42.32488405591661" lon="13.760407625075196"><ele>495.66666666666663</ele><time>2026-04-27T16:54:39Z</time></trkpt><trkpt lat="42.32496851481091" lon="13.760461859533725"><ele>497.8333333333333</ele><time>2026-04-27T16:54:41Z</time></trkpt><trkpt lat="42.324926477993586" lon="13.760552704486482"><ele>500.0</ele><time>2026-04-27T16:54:44Z</time></trkpt><trkpt lat="42.32487579160127" lon="13.760633515161215"><ele>500.0</ele><time>2026-04-27T16:54:46Z</time></trkpt><trkpt lat="42.32478458157978" lon="13.760748167534503"><ele>500.0</ele><time>2026-04-27T16:54:48Z</time></trkpt><trkpt lat="42.32471867477909" lon="13.760800670540831"><ele>500.0</ele><time>2026-04-27T16:54:49Z</time></trkpt><trkpt lat="42.32461823386218" lon="13.760838935760484"><ele>500.0</ele><time>2026-04-27T16:54:51Z</time></trkpt><trkpt lat="42.32452286349436" lon="13.760849038196028"><ele>500.0</ele><time>2026-04-27T16:54:53Z</time></trkpt><trkpt lat="42.32445244774399" lon="13.760846488870488"><ele>499.99999999999994</ele><time>2026-04-27T16:54:54Z</time></trkpt><trkpt lat="42.324373701610796" lon="13.760840368935787"><ele>500.0</ele><time>2026-04-27T16:54:55Z</time></trkpt><trkpt lat="42.324303650028504" lon="13.760833027587552"><ele>500.0</ele><time>2026-04-27T16:54:56Z</time></trkpt><trkpt lat="42.324228885957886" lon="13.760818793183127"><ele>500.0</ele><time>2026-04-27T16:54:57Z</time></trkpt><trkpt lat="42.3241392299397" lon="13.760801869725336"><ele>499.99999999999994</ele><time>2026-04-27T16:54:58Z</time></trkpt><trkpt lat="42.32403798596037" lon="13.760788233804904"><ele>500.0</ele><time>2026-04-27T16:54:59Z</time></trkpt><trkpt lat="42.32392457012968" lon="13.760789007927306"><ele>499.75</ele><time>2026-04-27T16:55:00Z</time></trkpt><trkpt lat="42.32381198982131" lon="13.7607994017663"><ele>499.5</ele><time>2026-04-27T16:55:01Z</time></trkpt><trkpt lat="42.323700242374144" lon="13.760800599731366"><ele>499.25</ele><time>2026-04-27T16:55:02Z</time></trkpt><trkpt lat="42.32358745527645" lon="13.760798109047297"><ele>499.0</ele><time>2026-04-27T16:55:03Z</time></trkpt><trkpt lat="42.323460779036324" lon="13.760795721743465"><ele>499.0</ele><time>2026-04-27T16:55:04Z</time></trkpt><trkpt lat="42.32332646401484" lon="13.76080471633652"><ele>499.0</ele><time>2026-04-27T16:55:05Z</time></trkpt><trkpt lat="42.323194545907654" lon="13.760830994087998"><ele>499.0</ele><time>2026-04-27T16:55:06Z</time></trkpt><trkpt lat="42.32307566576113" lon="13.76087049590369"><ele>499.0</ele><time>2026-04-27T16:55:07Z</time></trkpt><trkpt lat="42.322953117359916" lon="13.760935585456895"><ele>498.5</ele><time>2026-04-27T16:55:08Z</time></trkpt><trkpt lat="42.3228276531799" lon="13.76102330069618"><ele>498.0</ele><time>2026-04-27T16:55:09Z</time></trkpt><trkpt lat="42.32269973483878" lon="13.761118712028942"><ele>497.5</ele><time>2026-04-27T16:55:10Z</time></trkpt><trkpt lat="42.32257720168365" lon="13.7612163552378"><ele>497.0</ele><time>2026-04-27T16:55:11Z</time></trkpt><trkpt lat="42.32244634824041" lon="13.761309477017312"><ele>497.0</ele><time>2026-04-27T16:55:12Z</time></trkpt><trkpt lat="42.32231272377855" lon="13.761395890058605"><ele>497.0</ele><time>2026-04-27T16:55:13Z</time></trkpt><trkpt lat="42.322176931739314" lon="13.7614799032995"><ele>497.0</ele><time>2026-04-27T16:55:14Z</time></trkpt><trkpt lat="42.322056209971976" lon="13.761557160274382"><ele>497.0</ele><time>2026-04-27T16:55:15Z</time></trkpt><trkpt lat="42.321952709360545" lon="13.761624596136922"><ele>495.16666666666663</ele><time>2026-04-27T16:55:16Z</time></trkpt><trkpt lat="42.32185934993237" lon="13.761687424896628"><ele>493.3333333333333</ele><time>2026-04-27T16:55:17Z</time></trkpt><trkpt lat="42.32178280930339" lon="13.76174081777588"><ele>491.5</ele><time>2026-04-27T16:55:18Z</time></trkpt><trkpt lat="42.32171749901281" lon="13.761782253703014"><ele>489.66666666666663</ele><time>2026-04-27T16:55:19Z</time></trkpt><trkpt lat="42.321620687199896" lon="13.761746202552107"><ele>487.8333333333333</ele><time>2026-04-27T16:55:21Z</time></trkpt><trkpt lat="42.321555449099584" lon="13.761675053798387"><ele>486.0</ele><time>2026-04-27T16:55:22Z</time></trkpt><trkpt lat="42.32150422976803" lon="13.761594772614211"><ele>486.0</ele><time>2026-04-27T16:55:23Z</time></trkpt><trkpt lat="42.321463212173356" lon="13.761520784099552"><ele>486.0</ele><time>2026-04-27T16:55:23.999Z</time></trkpt><trkpt lat="42.32143907839963" lon="13.761437752604923"><ele>486.0</ele><time>2026-04-27T16:55:24.999Z</time></trkpt><trkpt lat="42.32143660611469" lon="13.761341308910932"><ele>486.0</ele><time>2026-04-27T16:55:25.999Z</time></trkpt><trkpt lat="42.32143638339204" lon="13.76123718976157"><ele>486.0</ele><time>2026-04-27T16:55:26.999Z</time></trkpt><trkpt lat="42.32143277689208" lon="13.761141034372839"><ele>486.0</ele><time>2026-04-27T16:55:27.999Z</time></trkpt><trkpt lat="42.32141227702639" lon="13.761040448529744"><ele>486.0</ele><time>2026-04-27T16:55:28.999Z</time></trkpt><trkpt lat="42.32137990169468" lon="13.760946621502601"><ele>483.71428571428567</ele><time>2026-04-27T16:55:29.999Z</time></trkpt><trkpt lat="42.32135135361054" lon="13.760865988377974"><ele>481.42857142857144</ele><time>2026-04-27T16:55:30.999Z</time></trkpt><trkpt lat="42.32132410725436" lon="13.760776643299192"><ele>479.1428571428571</ele><time>2026-04-27T16:55:31.999Z</time></trkpt><trkpt lat="42.321289288842216" lon="13.760681954552256"><ele>476.85714285714283</ele><time>2026-04-27T16:55:32.999Z</time></trkpt><trkpt lat="42.32127254602246" lon="13.760584488589528"><ele>474.57142857142856</ele><time>2026-04-27T16:55:33.999Z</time></trkpt><trkpt lat="42.321268088853465" lon="13.760484716400171"><ele>472.2857142857143</ele><time>2026-04-27T16:55:35.999Z</time></trkpt><trkpt lat="42.321240782458105" lon="13.760401552119095"><ele>470.0</ele><time>2026-04-27T16:55:39.999Z</time></trkpt><trkpt lat="42.32108723258299" lon="13.76043268275908"><ele>469.99999999999994</ele><time>2026-04-27T16:55:40.999Z</time></trkpt><trkpt lat="42.32100164312122" lon="13.76047912657247"><ele>470.0</ele><time>2026-04-27T16:55:41.999Z</time></trkpt><trkpt lat="42.32091413465361" lon="13.760534283141464"><ele>470.0</ele><time>2026-04-27T16:55:42.999Z</time></trkpt><trkpt lat="42.320835362570634" lon="13.76058819746387"><ele>470.0</ele><time>2026-04-27T16:55:43.999Z</time></trkpt><trkpt lat="42.320762220183326" lon="13.760639712910535"><ele>469.99999999999994</ele><time>2026-04-27T16:55:44.999Z</time></trkpt><trkpt lat="42.320693846921955" lon="13.760688095551565"><ele>470.0</ele><time>2026-04-27T16:55:45.999Z</time></trkpt><trkpt lat="42.32062702533461" lon="13.760735380260222"><ele>469.99999999999994</ele><time>2026-04-27T16:55:46.999Z</time></trkpt><trkpt lat="42.32056745557323" lon="13.76077753329919"><ele>470.0</ele><time>2026-04-27T16:55:47.999Z</time></trkpt><trkpt lat="42.32050514406938" lon="13.760821627530474"><ele>470.0</ele><time>2026-04-27T16:55:48.999Z</time></trkpt><trkpt lat="42.32043557613549" lon="13.760870451460132"><ele>470.0</ele><time>2026-04-27T16:55:49.999Z</time></trkpt><trkpt lat="42.32036600945538" lon="13.760929782378124"><ele>469.99999999999994</ele><time>2026-04-27T16:55:50.999Z</time></trkpt><trkpt lat="42.320294858640274" lon="13.760997527060388"><ele>470.0</ele><time>2026-04-27T16:55:51.999Z</time></trkpt><trkpt lat="42.3202275066665" lon="13.761072391192721"><ele>469.0</ele><time>2026-04-27T16:55:52.999Z</time></trkpt><trkpt lat="42.32015390744779" lon="13.761175591268378"><ele>468.0</ele><time>2026-04-27T16:55:53.999Z</time></trkpt><trkpt lat="42.320078841808446" lon="13.761285940365585"><ele>467.0</ele><time>2026-04-27T16:55:54.999Z</time></trkpt><trkpt lat="42.31999233671846" lon="13.76139208023365"><ele>466.0</ele><time>2026-04-27T16:55:55.999Z</time></trkpt><trkpt lat="42.31988412161997" lon="13.761491835410325"><ele>466.0</ele><time>2026-04-27T16:55:56.999Z</time></trkpt><trkpt lat="42.319761348274994" lon="13.76159007403858"><ele>466.0</ele><time>2026-04-27T16:55:57.999Z</time></trkpt><trkpt lat="42.31963049168295" lon="13.761692420530048"><ele>466.0</ele><time>2026-04-27T16:55:58.999Z</time></trkpt><trkpt lat="42.31951307951266" lon="13.761786332411395"><ele>466.0</ele><time>2026-04-27T16:55:59.999Z</time></trkpt><trkpt lat="42.31940197691939" lon="13.761876045606362"><ele>465.5</ele><time>2026-04-27T16:56:00.999Z</time></trkpt><trkpt lat="42.31930307814746" lon="13.761954750061587"><ele>465.0</ele><time>2026-04-27T16:56:01.999Z</time></trkpt><trkpt lat="42.31919349002628" lon="13.762036440616642"><ele>464.5</ele><time>2026-04-27T16:56:02.999Z</time></trkpt><trkpt lat="42.31907677051091" lon="13.762114759834265"><ele>464.0</ele><time>2026-04-27T16:56:03.999Z</time></trkpt><trkpt lat="42.31894915914138" lon="13.76219868112226"><ele>460.66666666666663</ele><time>2026-04-27T16:56:04.999Z</time></trkpt><trkpt lat="42.31881596184415" lon="13.762294682229832"><ele>457.33333333333337</ele><time>2026-04-27T16:56:05.999Z</time></trkpt><trkpt lat="42.31868313143057" lon="13.76239865091794"><ele>454.0</ele><time>2026-04-27T16:56:06.999Z</time></trkpt><trkpt lat="42.31855101939185" lon="13.762511190342934"><ele>454.0</ele><time>2026-04-27T16:56:07.999Z</time></trkpt><trkpt lat="42.31841940014769" lon="13.762642242291754"><ele>454.0</ele><time>2026-04-27T16:56:08.999Z</time></trkpt><trkpt lat="42.318296012873105" lon="13.762770235485643"><ele>454.0</ele><time>2026-04-27T16:56:09.999Z</time></trkpt><trkpt lat="42.31816365774475" lon="13.76289070899061"><ele>454.75</ele><time>2026-04-27T16:56:10.999Z</time></trkpt><trkpt lat="42.31803203748943" lon="13.76300740396519"><ele>455.5</ele><time>2026-04-27T16:56:11.999Z</time></trkpt><trkpt lat="42.317908150983534" lon="13.763116255448875"><ele>456.25</ele><time>2026-04-27T16:56:12.999Z</time></trkpt><trkpt lat="42.317813387754754" lon="13.763238816007128"><ele>457.0</ele><time>2026-04-27T16:56:13.999Z</time></trkpt><trkpt lat="42.317721625897306" lon="13.763331895657187"><ele>457.0</ele><time>2026-04-27T16:56:14.999Z</time></trkpt><trkpt lat="42.3176455855507" lon="13.763418845173199"><ele>457.00000000000006</ele><time>2026-04-27T16:56:15.999Z</time></trkpt><trkpt lat="42.31758898603403" lon="13.763515184771745"><ele>457.00000000000006</ele><time>2026-04-27T16:56:16.999Z</time></trkpt><trkpt lat="42.31754249873498" lon="13.763616859801152"><ele>457.0</ele><time>2026-04-27T16:56:17.999Z</time></trkpt><trkpt lat="42.31747585832788" lon="13.763701032705638"><ele>457.0</ele><time>2026-04-27T16:56:18.999Z</time></trkpt><trkpt lat="42.31741318802876" lon="13.763806181038435"><ele>457.5</ele><time>2026-04-27T16:56:19.999Z</time></trkpt><trkpt lat="42.317340961454434" lon="13.763928273709812"><ele>458.0</ele><time>2026-04-27T16:56:20.999Z</time></trkpt><trkpt lat="42.3172743300675" lon="13.764074350850533"><ele>458.5</ele><time>2026-04-27T16:56:21.999Z</time></trkpt><trkpt lat="42.31718769659595" lon="13.764213699133542"><ele>459.0</ele><time>2026-04-27T16:56:22.999Z</time></trkpt><trkpt lat="42.31709577113117" lon="13.764357167486192"><ele>457.33333333333337</ele><time>2026-04-27T16:56:23.999Z</time></trkpt><trkpt lat="42.31699963651633" lon="13.764509677986899"><ele>455.6666666666667</ele><time>2026-04-27T16:56:24.999Z</time></trkpt><trkpt lat="42.31689603803061" lon="13.764662742924862"><ele>454.0</ele><time>2026-04-27T16:56:25.999Z</time></trkpt><trkpt lat="42.31678273528124" lon="13.764813986468628"><ele>454.0</ele><time>2026-04-27T16:56:26.999Z</time></trkpt><trkpt lat="42.316656924651504" lon="13.764951766151478"><ele>454.0</ele><time>2026-04-27T16:56:27.999Z</time></trkpt><trkpt lat="42.316522472954965" lon="13.765074328177128"><ele>454.0</ele><time>2026-04-27T16:56:28.998Z</time></trkpt><trkpt lat="42.31638335424683" lon="13.76518498532076"><ele>455.0</ele><time>2026-04-27T16:56:29.998Z</time></trkpt><trkpt lat="42.31622829361392" lon="13.76527065213532"><ele>456.0</ele><time>2026-04-27T16:56:30.998Z</time></trkpt><trkpt lat="42.316101618055036" lon="13.765402382571745"><ele>457.0</ele><time>2026-04-27T16:56:31.998Z</time></trkpt><trkpt lat="42.31597716991118" lon="13.765527561400118"><ele>457.0</ele><time>2026-04-27T16:56:32.998Z</time></trkpt><trkpt lat="42.31586069533064" lon="13.765667197661946"><ele>457.0</ele><time>2026-04-27T16:56:33.998Z</time></trkpt><trkpt lat="42.31579007456905" lon="13.765870045418612"><ele>457.0</ele><time>2026-04-27T16:56:34.998Z</time></trkpt><trkpt lat="42.315696440125556" lon="13.766044299680587"><ele>458.33333333333337</ele><time>2026-04-27T16:56:35.998Z</time></trkpt><trkpt lat="42.315606569009525" lon="13.766222811484997"><ele>459.66666666666663</ele><time>2026-04-27T16:56:36.998Z</time></trkpt><trkpt lat="42.31551473885697" lon="13.766401741048858"><ele>461.0</ele><time>2026-04-27T16:56:37.998Z</time></trkpt><trkpt lat="42.31541947531123" lon="13.766570514381197"><ele>461.0</ele><time>2026-04-27T16:56:38.998Z</time></trkpt><trkpt lat="42.31529691964465" lon="13.766669333807915"><ele>461.0</ele><time>2026-04-27T16:56:39.998Z</time></trkpt><trkpt lat="42.315185811998234" lon="13.766761810602834"><ele>461.0</ele><time>2026-04-27T16:56:40.998Z</time></trkpt><trkpt lat="42.31507442501244" lon="13.766855780353053"><ele>461.0</ele><time>2026-04-27T16:56:42Z</time></trkpt><trkpt lat="42.31498143952614" lon="13.766947223618283"><ele>461.75</ele><time>2026-04-27T16:56:43Z</time></trkpt><trkpt lat="42.314898712635525" lon="13.76706658787727"><ele>462.5</ele><time>2026-04-27T16:56:44Z</time></trkpt><trkpt lat="42.31480436606513" lon="13.76718484199885"><ele>463.25</ele><time>2026-04-27T16:56:45Z</time></trkpt><trkpt lat="42.31471689426187" lon="13.767315333202383"><ele>464.0</ele><time>2026-04-27T16:56:46Z</time></trkpt><trkpt lat="42.314618124657386" lon="13.767420654570909"><ele>464.0</ele><time>2026-04-27T16:56:47Z</time></trkpt><trkpt lat="42.31453625984491" lon="13.767507877391148"><ele>464.0</ele><time>2026-04-27T16:56:48Z</time></trkpt><trkpt lat="42.31446615494397" lon="13.767567879476095"><ele>464.0</ele><time>2026-04-27T16:56:49Z</time></trkpt><trkpt lat="42.314392262989045" lon="13.767621543301308"><ele>464.0</ele><time>2026-04-27T16:56:50Z</time></trkpt><trkpt lat="42.314311366484944" lon="13.767682298848209"><ele>464.0</ele><time>2026-04-27T16:56:51Z</time></trkpt><trkpt lat="42.31421707489257" lon="13.767712708416441"><ele>465.0</ele><time>2026-04-27T16:56:52Z</time></trkpt><trkpt lat="42.314131847102345" lon="13.767760840394812"><ele>466.0</ele><time>2026-04-27T16:56:53Z</time></trkpt><trkpt lat="42.3140439797803" lon="13.767858163486038"><ele>467.0</ele><time>2026-04-27T16:56:54Z</time></trkpt><trkpt lat="42.3139716591263" lon="13.767972746080993"><ele>468.0</ele><time>2026-04-27T16:56:55Z</time></trkpt><trkpt lat="42.31391837562829" lon="13.768099556321443"><ele>469.0</ele><time>2026-04-27T16:56:56Z</time></trkpt><trkpt lat="42.31387265488459" lon="13.768223683740006"><ele>464.2</ele><time>2026-04-27T16:56:57Z</time></trkpt><trkpt lat="42.313828599846936" lon="13.76834324406522"><ele>459.4</ele><time>2026-04-27T16:56:58Z</time></trkpt><trkpt lat="42.31376362652325" lon="13.768449346081654"><ele>454.6</ele><time>2026-04-27T16:56:59Z</time></trkpt><trkpt lat="42.313708430202254" lon="13.76856930019449"><ele>449.8</ele><time>2026-04-27T16:57:00Z</time></trkpt><trkpt lat="42.31365440640179" lon="13.76870111479641"><ele>445.0</ele><time>2026-04-27T16:57:01Z</time></trkpt><trkpt lat="42.31358745868646" lon="13.768842414974916"><ele>445.0</ele><time>2026-04-27T16:57:02Z</time></trkpt><trkpt lat="42.31353106932646" lon="13.768999250448083"><ele>445.0</ele><time>2026-04-27T16:57:03Z</time></trkpt><trkpt lat="42.3134763982792" lon="13.769144767361174"><ele>445.0</ele><time>2026-04-27T16:57:04Z</time></trkpt><trkpt lat="42.313410853154494" lon="13.76928357000362"><ele>445.0</ele><time>2026-04-27T16:57:05Z</time></trkpt><trkpt lat="42.31334281752113" lon="13.769414908711767"><ele>445.5</ele><time>2026-04-27T16:57:06Z</time></trkpt><trkpt lat="42.31327324794022" lon="13.769541962997266"><ele>446.0</ele><time>2026-04-27T16:57:07Z</time></trkpt><trkpt lat="42.31319789839153" lon="13.769666468506621"><ele>446.5</ele><time>2026-04-27T16:57:08Z</time></trkpt><trkpt lat="42.31311060273137" lon="13.769774672189897"><ele>447.0</ele><time>2026-04-27T16:57:09Z</time></trkpt><trkpt lat="42.31300554425544" lon="13.769861083119553"><ele>443.25</ele><time>2026-04-27T16:57:10Z</time></trkpt><trkpt lat="42.31288590645916" lon="13.769946715967741"><ele>439.5</ele><time>2026-04-27T16:57:11Z</time></trkpt><trkpt lat="42.31274935903929" lon="13.770029911235815"><ele>435.75</ele><time>2026-04-27T16:57:12Z</time></trkpt><trkpt lat="42.312607886184495" lon="13.770100621456098"><ele>432.0</ele><time>2026-04-27T16:57:13Z</time></trkpt><trkpt lat="42.31246021476148" lon="13.770152958662408"><ele>432.0</ele><time>2026-04-27T16:57:14Z</time></trkpt><trkpt lat="42.31231267632274" lon="13.770173520764304"><ele>432.0</ele><time>2026-04-27T16:57:15Z</time></trkpt><trkpt lat="42.31216345513315" lon="13.770193751380578"><ele>432.0</ele><time>2026-04-27T16:57:16Z</time></trkpt><trkpt lat="42.312013629478855" lon="13.770217842298045"><ele>432.0</ele><time>2026-04-27T16:57:17Z</time></trkpt><trkpt lat="42.31188542125507" lon="13.770251323675005"><ele>433.8</ele><time>2026-04-27T16:57:18Z</time></trkpt><trkpt lat="42.31178375391844" lon="13.77028206648066"><ele>435.6</ele><time>2026-04-27T16:57:19Z</time></trkpt><trkpt lat="42.311691650515165" lon="13.770290325835264"><ele>437.40000000000003</ele><time>2026-04-27T16:57:20Z</time></trkpt><trkpt lat="42.3116071410597" lon="13.77031539417509"><ele>439.20000000000005</ele><time>2026-04-27T16:57:21Z</time></trkpt><trkpt lat="42.31152184396433" lon="13.770381397444847"><ele>441.0</ele><time>2026-04-27T16:57:22Z</time></trkpt><trkpt lat="42.31142098996413" lon="13.770466286113747"><ele>440.0</ele><time>2026-04-27T16:57:23Z</time></trkpt><trkpt lat="42.3113094552308" lon="13.770561487762803"><ele>439.0</ele><time>2026-04-27T16:57:24Z</time></trkpt><trkpt lat="42.31119743191688" lon="13.77066095748175"><ele>438.0</ele><time>2026-04-27T16:57:25Z</time></trkpt><trkpt lat="42.3110873437805" lon="13.77073040389358"><ele>437.0</ele><time>2026-04-27T16:57:26Z</time></trkpt><trkpt lat="42.311002027784276" lon="13.770788113719748"><ele>437.0</ele><time>2026-04-27T16:57:27Z</time></trkpt><trkpt lat="42.31092710112777" lon="13.770840352508609"><ele>437.00000000000006</ele><time>2026-04-27T16:57:27.999Z</time></trkpt><trkpt lat="42.310824301972275" lon="13.77082235333959"><ele>437.00000000000006</ele><time>2026-04-27T16:57:28.999Z</time></trkpt><trkpt lat="42.31071237832004" lon="13.770788485538084"><ele>437.0</ele><time>2026-04-27T16:57:29.999Z</time></trkpt><trkpt lat="42.310612563657926" lon="13.770779285244378"><ele>437.0</ele><time>2026-04-27T16:57:30.999Z</time></trkpt><trkpt lat="42.31051313793216" lon="13.77080884367023"><ele>436.25</ele><time>2026-04-27T16:57:31.999Z</time></trkpt><trkpt lat="42.310399286247396" lon="13.770822149177821"><ele>435.5</ele><time>2026-04-27T16:57:32.999Z</time></trkpt><trkpt lat="42.31027417035173" lon="13.770837525040923"><ele>434.75</ele><time>2026-04-27T16:57:33.999Z</time></trkpt><trkpt lat="42.310141750359016" lon="13.770863132706372"><ele>434.0</ele><time>2026-04-27T16:57:34.999Z</time></trkpt><trkpt lat="42.310010109159556" lon="13.770917224948924"><ele>434.0</ele><time>2026-04-27T16:57:35.999Z</time></trkpt><trkpt lat="42.30989158534005" lon="13.770961722314388"><ele>434.0</ele><time>2026-04-27T16:57:36.999Z</time></trkpt><trkpt lat="42.309808134453725" lon="13.77104263572993"><ele>434.0</ele><time>2026-04-27T16:57:37.999Z</time></trkpt><trkpt lat="42.30973085244434" lon="13.77111851276829"><ele>434.0</ele><time>2026-04-27T16:57:38.999Z</time></trkpt><trkpt lat="42.30965053942194" lon="13.771194680123102"><ele>434.0</ele><time>2026-04-27T16:57:40.999Z</time></trkpt><trkpt lat="42.30961318355878" lon="13.771263335795966"><ele>436.0</ele><time>2026-04-27T16:58:06.999Z</time></trkpt><trkpt lat="42.30959995295965" lon="13.771354324858894"><ele>438.0</ele><time>2026-04-27T16:58:08.999Z</time></trkpt><trkpt lat="42.30950165949857" lon="13.771425094072749"><ele>440.0</ele><time>2026-04-27T16:58:10.999Z</time></trkpt><trkpt lat="42.30942799409819" lon="13.771479911004322"><ele>442.0</ele><time>2026-04-27T16:58:11.999Z</time></trkpt><trkpt lat="42.309322564292124" lon="13.771432655699607"><ele>444.0</ele><time>2026-04-27T16:58:12.999Z</time></trkpt><trkpt lat="42.30924512052054" lon="13.771487774075858"><ele>444.0</ele><time>2026-04-27T16:58:13.999Z</time></trkpt><trkpt lat="42.309145954798346" lon="13.771560221215276"><ele>444.0</ele><time>2026-04-27T16:58:14.999Z</time></trkpt><trkpt lat="42.3090628111397" lon="13.771628994447495"><ele>444.0</ele><time>2026-04-27T16:58:15.999Z</time></trkpt><trkpt lat="42.308987398850874" lon="13.77169965686568"><ele>444.0</ele><time>2026-04-27T16:58:16.999Z</time></trkpt><trkpt lat="42.308903303648435" lon="13.77179384713395"><ele>444.0</ele><time>2026-04-27T16:58:17.999Z</time></trkpt><trkpt lat="42.308815170483044" lon="13.771904308735326"><ele>443.75</ele><time>2026-04-27T16:58:18.999Z</time></trkpt><trkpt lat="42.308734837776086" lon="13.772012083185755"><ele>443.5</ele><time>2026-04-27T16:58:19.999Z</time></trkpt><trkpt lat="42.30864467131372" lon="13.772131888146024"><ele>443.25</ele><time>2026-04-27T16:58:20.999Z</time></trkpt><trkpt lat="42.308550608136876" lon="13.772247562735696"><ele>443.0</ele><time>2026-04-27T16:58:21.999Z</time></trkpt><trkpt lat="42.308449610802285" lon="13.772336842561486"><ele>443.0</ele><time>2026-04-27T16:58:22.999Z</time></trkpt><trkpt lat="42.30834545794385" lon="13.772374495554118"><ele>442.99999999999994</ele><time>2026-04-27T16:58:23.999Z</time></trkpt><trkpt lat="42.3082374877608" lon="13.772453651940037"><ele>442.99999999999994</ele><time>2026-04-27T16:58:24.999Z</time></trkpt><trkpt lat="42.30816161170417" lon="13.7725447088999"><ele>443.0</ele><time>2026-04-27T16:58:25.999Z</time></trkpt><trkpt lat="42.308095060994276" lon="13.772640173485245"><ele>443.0</ele><time>2026-04-27T16:58:26.999Z</time></trkpt><trkpt lat="42.30804331139743" lon="13.772719054761849"><ele>440.99999999999994</ele><time>2026-04-27T16:58:27.999Z</time></trkpt><trkpt lat="42.30799131940613" lon="13.772798391510607"><ele>439.0</ele><time>2026-04-27T16:58:28.999Z</time></trkpt><trkpt lat="42.30794038369922" lon="13.772870856109504"><ele>437.0</ele><time>2026-04-27T16:58:29.999Z</time></trkpt><trkpt lat="42.30788055804515" lon="13.772946948449382"><ele>435.0</ele><time>2026-04-27T16:58:30.999Z</time></trkpt><trkpt lat="42.30782072501389" lon="13.773019902780904"><ele>432.99999999999994</ele><time>2026-04-27T16:58:31.998Z</time></trkpt><trkpt lat="42.30775492855681" lon="13.773097764327673"><ele>431.0</ele><time>2026-04-27T16:58:32.998Z</time></trkpt><trkpt lat="42.307691411818304" lon="13.773171149998587"><ele>431.0</ele><time>2026-04-27T16:58:33.998Z</time></trkpt><trkpt lat="42.30762446162933" lon="13.77324867962764"><ele>431.0</ele><time>2026-04-27T16:58:34.998Z</time></trkpt><trkpt lat="42.30753171387195" lon="13.773348585697795"><ele>431.0</ele><time>2026-04-27T16:58:35.998Z</time></trkpt><trkpt lat="42.3074238552768" lon="13.773460919371686"><ele>431.0</ele><time>2026-04-27T16:58:36.998Z</time></trkpt><trkpt lat="42.30731189747678" lon="13.773560834034116"><ele>429.5</ele><time>2026-04-27T16:58:37.998Z</time></trkpt><trkpt lat="42.3071758427027" lon="13.773645860836112"><ele>428.0</ele><time>2026-04-27T16:58:38.998Z</time></trkpt><trkpt lat="42.307058551269414" lon="13.773760097284027"><ele>426.5</ele><time>2026-04-27T16:58:39.998Z</time></trkpt><trkpt lat="42.306975864240655" lon="13.773920035027247"><ele>425.0</ele><time>2026-04-27T16:58:40.998Z</time></trkpt><trkpt lat="42.306933239036056" lon="13.774050960537469"><ele>425.0</ele><time>2026-04-27T16:58:41.998Z</time></trkpt><trkpt lat="42.30686254207519" lon="13.774179476051465"><ele>425.0</ele><time>2026-04-27T16:58:42.998Z</time></trkpt><trkpt lat="42.30675606378669" lon="13.774311356115685"><ele>425.0</ele><time>2026-04-27T16:58:43.998Z</time></trkpt><trkpt lat="42.30664517792443" lon="13.774438078286975"><ele>425.0</ele><time>2026-04-27T16:58:44.998Z</time></trkpt><trkpt lat="42.30653559008563" lon="13.77457866696283"><ele>426.0</ele><time>2026-04-27T16:58:45.998Z</time></trkpt><trkpt lat="42.30643873480113" lon="13.774756365718341"><ele>427.0</ele><time>2026-04-27T16:58:46.998Z</time></trkpt><trkpt lat="42.30635931090467" lon="13.774970599067663"><ele>428.0</ele><time>2026-04-27T16:58:48Z</time></trkpt><trkpt lat="42.30630048172896" lon="13.775178295979359"><ele>427.0</ele><time>2026-04-27T16:58:49Z</time></trkpt><trkpt lat="42.30625371257932" lon="13.775357551154341"><ele>426.0</ele><time>2026-04-27T16:58:50Z</time></trkpt><trkpt lat="42.30621573928357" lon="13.775514875289199"><ele>425.0</ele><time>2026-04-27T16:58:51Z</time></trkpt><trkpt lat="42.30618304824539" lon="13.775663917129778"><ele>424.0</ele><time>2026-04-27T16:58:52Z</time></trkpt><trkpt lat="42.306147466526525" lon="13.77583459273278"><ele>424.0</ele><time>2026-04-27T16:58:53Z</time></trkpt><trkpt lat="42.30610965219971" lon="13.776012772273"><ele>424.0</ele><time>2026-04-27T16:58:54Z</time></trkpt><trkpt lat="42.30606796152248" lon="13.776194248204693"><ele>424.0</ele><time>2026-04-27T16:58:55Z</time></trkpt><trkpt lat="42.30602536957909" lon="13.776353985985875"><ele>424.0</ele><time>2026-04-27T16:58:56Z</time></trkpt><trkpt lat="42.305982035313335" lon="13.776470424841442"><ele>423.75</ele><time>2026-04-27T16:58:57Z</time></trkpt><trkpt lat="42.30594331992999" lon="13.776550303730184"><ele>423.5</ele><time>2026-04-27T16:58:58Z</time></trkpt><trkpt lat="42.30590353988948" lon="13.776631945957854"><ele>423.25</ele><time>2026-04-27T16:58:59Z</time></trkpt><trkpt lat="42.30580298058705" lon="13.776791919704893"><ele>423.0</ele><time>2026-04-27T16:59:01Z</time></trkpt><trkpt lat="42.306155606243415" lon="13.777170769432988"><ele>422.79999999999995</ele><time>2026-04-27T16:59:02Z</time></trkpt><trkpt lat="42.30616963500346" lon="13.777282733144599"><ele>422.6</ele><time>2026-04-27T16:59:03Z</time></trkpt><trkpt lat="42.30615758756688" lon="13.777385939356684"><ele>422.4</ele><time>2026-04-27T16:59:04Z</time></trkpt><trkpt lat="42.30611380415876" lon="13.77748851540031"><ele>422.20000000000005</ele><time>2026-04-27T16:59:05Z</time></trkpt><trkpt lat="42.30605012307665" lon="13.777630449573447"><ele>422.0</ele><time>2026-04-27T16:59:06Z</time></trkpt><trkpt lat="42.305961703190455" lon="13.777753976638092"><ele>421.75</ele><time>2026-04-27T16:59:07Z</time></trkpt><trkpt lat="42.30586357922327" lon="13.777841519373165"><ele>421.5</ele><time>2026-04-27T16:59:08Z</time></trkpt><trkpt lat="42.30576740009012" lon="13.777925367096385"><ele>421.25</ele><time>2026-04-27T16:59:09Z</time></trkpt><trkpt lat="42.305677791737224" lon="13.77801984450546"><ele>421.0</ele><time>2026-04-27T16:59:10Z</time></trkpt><trkpt lat="42.30559571206892" lon="13.778116529845729"><ele>419.6</ele><time>2026-04-27T16:59:11Z</time></trkpt><trkpt lat="42.30549924777182" lon="13.778202805044405"><ele>418.20000000000005</ele><time>2026-04-27T16:59:12Z</time></trkpt><trkpt lat="42.30540768185365" lon="13.778277863967194"><ele>416.79999999999995</ele><time>2026-04-27T16:59:13Z</time></trkpt><trkpt lat="42.30532273028463" lon="13.778362048305347"><ele>415.4</ele><time>2026-04-27T16:59:14Z</time></trkpt><trkpt lat="42.30524074317488" lon="13.77846963228705"><ele>414.0</ele><time>2026-04-27T16:59:15Z</time></trkpt><trkpt lat="42.3051816928607" lon="13.778592845486735"><ele>414.0</ele><time>2026-04-27T16:59:16Z</time></trkpt><trkpt lat="42.3051182788292" lon="13.778725283800258"><ele>414.0</ele><time>2026-04-27T16:59:17Z</time></trkpt><trkpt lat="42.305004219564715" lon="13.778827445264644"><ele>414.0</ele><time>2026-04-27T16:59:18Z</time></trkpt><trkpt lat="42.304910466186215" lon="13.778974655258205"><ele>414.0</ele><time>2026-04-27T16:59:19Z</time></trkpt><trkpt lat="42.30479753552311" lon="13.779130253257817"><ele>412.0</ele><time>2026-04-27T16:59:20Z</time></trkpt><trkpt lat="42.30468815554368" lon="13.779274628299278"><ele>410.0</ele><time>2026-04-27T16:59:21Z</time></trkpt><trkpt lat="42.30460079178966" lon="13.779366566030037"><ele>408.0</ele><time>2026-04-27T16:59:22Z</time></trkpt><trkpt lat="42.304523867354" lon="13.779417043927426"><ele>406.0</ele><time>2026-04-27T16:59:23Z</time></trkpt><trkpt lat="42.304413479443376" lon="13.779416793512556"><ele>406.0</ele><time>2026-04-27T16:59:24Z</time></trkpt><trkpt lat="42.30426415798353" lon="13.779540029942023"><ele>406.0</ele><time>2026-04-27T16:59:25Z</time></trkpt><trkpt lat="42.30419205912423" lon="13.779641691062947"><ele>406.0</ele><time>2026-04-27T16:59:26Z</time></trkpt><trkpt lat="42.30413211665" lon="13.779744910938366"><ele>406.0</ele><time>2026-04-27T16:59:27Z</time></trkpt><trkpt lat="42.304067230413" lon="13.779842813474342"><ele>406.0</ele><time>2026-04-27T16:59:28Z</time></trkpt><trkpt lat="42.303979823684095" lon="13.779957085021827"><ele>406.0</ele><time>2026-04-27T16:59:29Z</time></trkpt><trkpt lat="42.303889310970284" lon="13.780073464977468"><ele>406.0</ele><time>2026-04-27T16:59:30Z</time></trkpt><trkpt lat="42.303833743431845" lon="13.780154010449534"><ele>406.0</ele><time>2026-04-27T16:59:31Z</time></trkpt><trkpt lat="42.303775956134515" lon="13.780251572590581"><ele>406.0</ele><time>2026-04-27T16:59:32.999Z</time></trkpt><trkpt lat="42.30371378476897" lon="13.780395772297705"><ele>405.4</ele><time>2026-04-27T16:59:34.999Z</time></trkpt><trkpt lat="42.3036752952739" lon="13.780503441122057"><ele>404.8</ele><time>2026-04-27T16:59:35.999Z</time></trkpt><trkpt lat="42.30364698044871" lon="13.78063066161748"><ele>404.2</ele><time>2026-04-27T16:59:36.999Z</time></trkpt><trkpt lat="42.30359750046933" lon="13.780751579451236"><ele>403.59999999999997</ele><time>2026-04-27T16:59:37.999Z</time></trkpt><trkpt lat="42.30353391214046" lon="13.780846638042775"><ele>403.0</ele><time>2026-04-27T16:59:38.999Z</time></trkpt><trkpt lat="42.30348856653269" lon="13.780918713615682"><ele>403.00000000000006</ele><time>2026-04-27T16:59:39.999Z</time></trkpt><trkpt lat="42.303436815632224" lon="13.780975584616042"><ele>403.0</ele><time>2026-04-27T16:59:40.999Z</time></trkpt><trkpt lat="42.303369611190355" lon="13.781039964848436"><ele>403.0</ele><time>2026-04-27T16:59:41.999Z</time></trkpt><trkpt lat="42.30330022984061" lon="13.78110365128192"><ele>403.0</ele><time>2026-04-27T16:59:42.999Z</time></trkpt><trkpt lat="42.30323321415128" lon="13.78116404256115"><ele>403.00000000000006</ele><time>2026-04-27T16:59:43.999Z</time></trkpt><trkpt lat="42.30316829643229" lon="13.781255206672366"><ele>403.0</ele><time>2026-04-27T16:59:44.999Z</time></trkpt><trkpt lat="42.30307964923802" lon="13.781331026070118"><ele>401.0</ele><time>2026-04-27T16:59:45.999Z</time></trkpt><trkpt lat="42.30299920065526" lon="13.781444188675263"><ele>399.0</ele><time>2026-04-27T16:59:46.999Z</time></trkpt><trkpt lat="42.30291598845553" lon="13.781568912498809"><ele>397.0</ele><time>2026-04-27T16:59:47.999Z</time></trkpt><trkpt lat="42.30283348735347" lon="13.781694221164535"><ele>395.0</ele><time>2026-04-27T16:59:48.999Z</time></trkpt><trkpt lat="42.302748232737656" lon="13.781822121869334"><ele>396.0</ele><time>2026-04-27T16:59:49.999Z</time></trkpt><trkpt lat="42.30266301107822" lon="13.781943933041328"><ele>397.0</ele><time>2026-04-27T16:59:50.999Z</time></trkpt><trkpt lat="42.30257827624355" lon="13.782052636475397"><ele>398.0</ele><time>2026-04-27T16:59:51.999Z</time></trkpt><trkpt lat="42.30248558266584" lon="13.782163055386466"><ele>399.0</ele><time>2026-04-27T16:59:52.999Z</time></trkpt><trkpt lat="42.302389872543266" lon="13.782265593568866"><ele>399.0</ele><time>2026-04-27T16:59:53.999Z</time></trkpt><trkpt lat="42.302293318976844" lon="13.782357280192137"><ele>399.0</ele><time>2026-04-27T16:59:54.999Z</time></trkpt><trkpt lat="42.30220926075999" lon="13.78242880544005"><ele>399.0</ele><time>2026-04-27T16:59:55.999Z</time></trkpt><trkpt lat="42.302149446210656" lon="13.782459702934618"><ele>399.0</ele><time>2026-04-27T16:59:56.999Z</time></trkpt><trkpt lat="42.30211948139808" lon="13.782315051356475"><ele>399.0</ele><time>2026-04-27T16:59:59.999Z</time></trkpt><trkpt lat="42.30212854787221" lon="13.782199662311486"><ele>397.2</ele><time>2026-04-27T17:00:00.999Z</time></trkpt><trkpt lat="42.30211001025739" lon="13.782074764718022"><ele>395.4</ele><time>2026-04-27T17:00:01.999Z</time></trkpt><trkpt lat="42.30208120631743" lon="13.781961842741522"><ele>393.6</ele><time>2026-04-27T17:00:02.999Z</time></trkpt><trkpt lat="42.30206304289666" lon="13.781859091275823"><ele>391.8</ele><time>2026-04-27T17:00:03.999Z</time></trkpt><trkpt lat="42.302045502104406" lon="13.781740888351438"><ele>390.0</ele><time>2026-04-27T17:00:04.999Z</time></trkpt><trkpt lat="42.30202645112297" lon="13.781607321006964"><ele>388.5</ele><time>2026-04-27T17:00:05.999Z</time></trkpt><trkpt lat="42.30200171745253" lon="13.781455202167406"><ele>387.0</ele><time>2026-04-27T17:00:06.999Z</time></trkpt><trkpt lat="42.30199370433905" lon="13.781287942043122"><ele>385.5</ele><time>2026-04-27T17:00:07.999Z</time></trkpt><trkpt lat="42.301972407638516" lon="13.781114332491661"><ele>384.0</ele><time>2026-04-27T17:00:08.999Z</time></trkpt><trkpt lat="42.30193771642398" lon="13.780950201313814"><ele>384.0</ele><time>2026-04-27T17:00:09.999Z</time></trkpt><trkpt lat="42.301920147457174" lon="13.780790834719104"><ele>384.0</ele><time>2026-04-27T17:00:10.999Z</time></trkpt><trkpt lat="42.3019082480505" lon="13.780641614423592"><ele>384.0</ele><time>2026-04-27T17:00:11.999Z</time></trkpt><trkpt lat="42.301908014734636" lon="13.780509120289688"><ele>384.0</ele><time>2026-04-27T17:00:12.999Z</time></trkpt><trkpt lat="42.30189791207148" lon="13.780405434952288"><ele>384.0</ele><time>2026-04-27T17:00:13.999Z</time></trkpt><trkpt lat="42.30194778297343" lon="13.780301520013468"><ele>384.0</ele><time>2026-04-27T17:00:15.999Z</time></trkpt><trkpt lat="42.30196131174404" lon="13.780212243275612"><ele>384.0</ele><time>2026-04-27T17:00:16.999Z</time></trkpt><trkpt lat="42.30199036296311" lon="13.780124960360137"><ele>384.0</ele><time>2026-04-27T17:00:17.999Z</time></trkpt><trkpt lat="42.301967057946165" lon="13.780034148085893"><ele>384.0</ele><time>2026-04-27T17:00:18.999Z</time></trkpt><trkpt lat="42.301913000460566" lon="13.77991602913689"><ele>384.0</ele><time>2026-04-27T17:00:19.999Z</time></trkpt><trkpt lat="42.30186379575353" lon="13.779781432755621"><ele>384.0</ele><time>2026-04-27T17:00:20.999Z</time></trkpt><trkpt lat="42.3018157277712" lon="13.779653848043766"><ele>383.5</ele><time>2026-04-27T17:00:21.999Z</time></trkpt><trkpt lat="42.301767088947045" lon="13.779519248047848"><ele>383.0</ele><time>2026-04-27T17:00:22.999Z</time></trkpt><trkpt lat="42.30171256386955" lon="13.77937158356622"><ele>382.5</ele><time>2026-04-27T17:00:23.999Z</time></trkpt><trkpt lat="42.301665446540525" lon="13.779212640863582"><ele>382.0</ele><time>2026-04-27T17:00:24.999Z</time></trkpt><trkpt lat="42.301626004255034" lon="13.779043190855274"><ele>381.25</ele><time>2026-04-27T17:00:25.999Z</time></trkpt><trkpt lat="42.30158971428427" lon="13.778870891792835"><ele>380.5</ele><time>2026-04-27T17:00:26.999Z</time></trkpt><trkpt lat="42.30154834633352" lon="13.778695261533153"><ele>379.75</ele><time>2026-04-27T17:00:27.999Z</time></trkpt><trkpt lat="42.30150358996783" lon="13.778518097186234"><ele>379.0</ele><time>2026-04-27T17:00:28.999Z</time></trkpt><trkpt lat="42.30146328837094" lon="13.778335451538503"><ele>378.0</ele><time>2026-04-27T17:00:29.999Z</time></trkpt><trkpt lat="42.30141592297296" lon="13.778161970510604"><ele>377.0</ele><time>2026-04-27T17:00:30.999Z</time></trkpt><trkpt lat="42.301357682912595" lon="13.777997610154307"><ele>376.0</ele><time>2026-04-27T17:00:31.999Z</time></trkpt><trkpt lat="42.301310576904825" lon="13.77784625241251"><ele>375.0</ele><time>2026-04-27T17:00:32.999Z</time></trkpt><trkpt lat="42.30129889793519" lon="13.777695860255841"><ele>372.75</ele><time>2026-04-27T17:00:33.999Z</time></trkpt><trkpt lat="42.301282145883555" lon="13.77755085120429"><ele>370.5</ele><time>2026-04-27T17:00:34.998Z</time></trkpt><trkpt lat="42.30127108414876" lon="13.77739834480427"><ele>368.25</ele><time>2026-04-27T17:00:35.998Z</time></trkpt><trkpt lat="42.3012553890162" lon="13.77723586597988"><ele>366.0</ele><time>2026-04-27T17:00:36.998Z</time></trkpt><trkpt lat="42.301304276170754" lon="13.777082179100509"><ele>366.0</ele><time>2026-04-27T17:00:37.998Z</time></trkpt><trkpt lat="42.30131483503635" lon="13.776950187371765"><ele>366.0</ele><time>2026-04-27T17:00:38.998Z</time></trkpt><trkpt lat="42.30127597700195" lon="13.776843460116808"><ele>366.0</ele><time>2026-04-27T17:00:39.998Z</time></trkpt><trkpt lat="42.3012493504102" lon="13.776742729316439"><ele>366.0</ele><time>2026-04-27T17:00:40.998Z</time></trkpt><trkpt lat="42.301199991418734" lon="13.77663183153942"><ele>366.0</ele><time>2026-04-27T17:00:41.998Z</time></trkpt><trkpt lat="42.301144441264675" lon="13.77650944962002"><ele>366.20000000000005</ele><time>2026-04-27T17:00:42.998Z</time></trkpt><trkpt lat="42.3010807712218" lon="13.776386218746904"><ele>366.40000000000003</ele><time>2026-04-27T17:00:43.998Z</time></trkpt><trkpt lat="42.30099915060712" lon="13.776286939387637"><ele>366.6</ele><time>2026-04-27T17:00:44.998Z</time></trkpt><trkpt lat="42.30092076290054" lon="13.776215553028726"><ele>366.8</ele><time>2026-04-27T17:00:45.998Z</time></trkpt><trkpt lat="42.300857114879044" lon="13.776145826853474"><ele>367.0</ele><time>2026-04-27T17:00:46.998Z</time></trkpt><trkpt lat="42.30086840090946" lon="13.776033524329742"><ele>367.5</ele><time>2026-04-27T17:00:48.998Z</time></trkpt><trkpt lat="42.30091825992531" lon="13.775886525295316"><ele>368.0</ele><time>2026-04-27T17:00:50.998Z</time></trkpt><trkpt lat="42.30088612081287" lon="13.775804693065664"><ele>368.5</ele><time>2026-04-27T17:00:51.998Z</time></trkpt><trkpt lat="42.30082977883146" lon="13.775755947485537"><ele>369.0</ele><time>2026-04-27T17:00:52.998Z</time></trkpt><trkpt lat="42.30075805865833" lon="13.775677564615046"><ele>369.5</ele><time>2026-04-27T17:00:54Z</time></trkpt><trkpt lat="42.30067974272831" lon="13.77564338739224"><ele>370.0</ele><time>2026-04-27T17:00:55Z</time></trkpt><trkpt lat="42.30058428071217" lon="13.77555903733276"><ele>368.3333333333333</ele><time>2026-04-27T17:00:57Z</time></trkpt><trkpt lat="42.300472464338185" lon="13.775504576768366"><ele>366.66666666666663</ele><time>2026-04-27T17:00:59Z</time></trkpt><trkpt lat="42.300428363755756" lon="13.775423759960184"><ele>365.0</ele><time>2026-04-27T17:01:00Z</time></trkpt><trkpt lat="42.300392641029354" lon="13.775333785727383"><ele>363.3333333333333</ele><time>2026-04-27T17:01:01Z</time></trkpt><trkpt lat="42.30033560734825" lon="13.775250617307158"><ele>361.6666666666667</ele><time>2026-04-27T17:01:02Z</time></trkpt><trkpt lat="42.300263185715224" lon="13.775178367078492"><ele>360.0</ele><time>2026-04-27T17:01:03Z</time></trkpt><trkpt lat="42.30018721463502" lon="13.775103945896449"><ele>360.0</ele><time>2026-04-27T17:01:04Z</time></trkpt><trkpt lat="42.30013004666888" lon="13.775027706980147"><ele>360.0</ele><time>2026-04-27T17:01:05Z</time></trkpt><trkpt lat="42.300068742383225" lon="13.775000174254611"><ele>360.0</ele><time>2026-04-27T17:01:06Z</time></trkpt><trkpt lat="42.30001056197806" lon="13.775041085016777"><ele>360.0</ele><time>2026-04-27T17:01:07Z</time></trkpt><trkpt lat="42.29995624476709" lon="13.775091616049721"><ele>360.0</ele><time>2026-04-27T17:01:08Z</time></trkpt><trkpt lat="42.299896720316816" lon="13.77517500050952"><ele>360.0</ele><time>2026-04-27T17:01:09Z</time></trkpt><trkpt lat="42.29981994586923" lon="13.775263307342993"><ele>359.6</ele><time>2026-04-27T17:01:10Z</time></trkpt><trkpt lat="42.29973241192127" lon="13.77536060342142"><ele>359.2</ele><time>2026-04-27T17:01:11Z</time></trkpt><trkpt lat="42.29964424606242" lon="13.775453606278187"><ele>358.79999999999995</ele><time>2026-04-27T17:01:12Z</time></trkpt><trkpt lat="42.299561921408824" lon="13.775525612319393"><ele>358.4</ele><time>2026-04-27T17:01:13Z</time></trkpt><trkpt lat="42.29950114655789" lon="13.77555635015192"><ele>358.0</ele><time>2026-04-27T17:01:14Z</time></trkpt><trkpt lat="42.29939402903331" lon="13.775519923479795"><ele>358.0</ele><time>2026-04-27T17:01:16Z</time></trkpt><trkpt lat="42.29932587298159" lon="13.775470694670268"><ele>358.0</ele><time>2026-04-27T17:01:17Z</time></trkpt><trkpt lat="42.29925544293757" lon="13.775415277704045"><ele>358.0</ele><time>2026-04-27T17:01:18Z</time></trkpt><trkpt lat="42.29918189559413" lon="13.775353467078805"><ele>358.0</ele><time>2026-04-27T17:01:19Z</time></trkpt><trkpt lat="42.299131071916555" lon="13.775274276230505"><ele>358.0</ele><time>2026-04-27T17:01:20Z</time></trkpt><trkpt lat="42.2990240294335" lon="13.775294492469541"><ele>358.0</ele><time>2026-04-27T17:01:22Z</time></trkpt><trkpt lat="42.2989686160754" lon="13.775414117958308"><ele>357.16666666666663</ele><time>2026-04-27T17:01:24Z</time></trkpt><trkpt lat="42.29890357034843" lon="13.775476921630837"><ele>356.3333333333333</ele><time>2026-04-27T17:01:25Z</time></trkpt><trkpt lat="42.298875807727384" lon="13.775563143959435"><ele>355.5</ele><time>2026-04-27T17:01:26Z</time></trkpt><trkpt lat="42.298848932694355" lon="13.77566087015658"><ele>354.6666666666667</ele><time>2026-04-27T17:01:27Z</time></trkpt><trkpt lat="42.29882629705547" lon="13.77576008845414"><ele>353.83333333333337</ele><time>2026-04-27T17:01:28Z</time></trkpt><trkpt lat="42.298801474552654" lon="13.775868190590295"><ele>353.0</ele><time>2026-04-27T17:01:29Z</time></trkpt><trkpt lat="42.29877599373147" lon="13.775979159695996"><ele>353.5</ele><time>2026-04-27T17:01:30Z</time></trkpt><trkpt lat="42.2987492793987" lon="13.776095500743185"><ele>354.0</ele><time>2026-04-27T17:01:31Z</time></trkpt><trkpt lat="42.298722185346776" lon="13.776213495327537"><ele>354.5</ele><time>2026-04-27T17:01:32Z</time></trkpt><trkpt lat="42.2986967469915" lon="13.776324279504342"><ele>355.0</ele><time>2026-04-27T17:01:33Z</time></trkpt><trkpt lat="42.29867204619898" lon="13.776431851519092"><ele>355.5</ele><time>2026-04-27T17:01:34Z</time></trkpt><trkpt lat="42.298648409957764" lon="13.77653478747185"><ele>356.0</ele><time>2026-04-27T17:01:35Z</time></trkpt><trkpt lat="42.298625638894" lon="13.776633955504069"><ele>356.0</ele><time>2026-04-27T17:01:35.999Z</time></trkpt><trkpt lat="42.2985984850861" lon="13.776752210427365"><ele>356.0</ele><time>2026-04-27T17:01:36.999Z</time></trkpt><trkpt lat="42.29856657131521" lon="13.776889086178185"><ele>356.0</ele><time>2026-04-27T17:01:37.999Z</time></trkpt><trkpt lat="42.29853385554166" lon="13.777024490736945"><ele>356.0</ele><time>2026-04-27T17:01:38.999Z</time></trkpt><trkpt lat="42.29849557241516" lon="13.77718293750827"><ele>356.0</ele><time>2026-04-27T17:01:39.999Z</time></trkpt><trkpt lat="42.298454180978666" lon="13.777351811233006"><ele>356.25</ele><time>2026-04-27T17:01:40.999Z</time></trkpt><trkpt lat="42.29841086655693" lon="13.777510000270555"><ele>356.5</ele><time>2026-04-27T17:01:41.999Z</time></trkpt><trkpt lat="42.2983666642153" lon="13.777636655829944"><ele>356.75</ele><time>2026-04-27T17:01:42.999Z</time></trkpt><trkpt lat="42.29831886174258" lon="13.77772377347426"><ele>357.0</ele><time>2026-04-27T17:01:43.999Z</time></trkpt><trkpt lat="42.2981758864314" lon="13.777779739378737"><ele>356.25</ele><time>2026-04-27T17:01:45.999Z</time></trkpt><trkpt lat="42.298066324267964" lon="13.777900645986904"><ele>355.5</ele><time>2026-04-27T17:01:46.999Z</time></trkpt><trkpt lat="42.2979649640946" lon="13.77802641986095"><ele>354.75</ele><time>2026-04-27T17:01:47.999Z</time></trkpt><trkpt lat="42.29786153336456" lon="13.778159531505388"><ele>354.0</ele><time>2026-04-27T17:01:48.999Z</time></trkpt><trkpt lat="42.29775152747556" lon="13.778301886135282"><ele>354.0</ele><time>2026-04-27T17:01:49.999Z</time></trkpt><trkpt lat="42.297640195815056" lon="13.778445956305461"><ele>354.0</ele><time>2026-04-27T17:01:50.999Z</time></trkpt><trkpt lat="42.29753007227022" lon="13.778591804952207"><ele>354.0</ele><time>2026-04-27T17:01:51.999Z</time></trkpt><trkpt lat="42.2974209681122" lon="13.778730405387247"><ele>353.3333333333333</ele><time>2026-04-27T17:01:52.999Z</time></trkpt><trkpt lat="42.29731664385665" lon="13.778868421994808"><ele>352.66666666666663</ele><time>2026-04-27T17:01:53.999Z</time></trkpt><trkpt lat="42.297184967364466" lon="13.778984188584941"><ele>352.0</ele><time>2026-04-27T17:01:54.999Z</time></trkpt><trkpt lat="42.2970418688005" lon="13.77908145388795"><ele>351.66666666666663</ele><time>2026-04-27T17:01:55.999Z</time></trkpt><trkpt lat="42.296927264580404" lon="13.779234298691593"><ele>351.3333333333333</ele><time>2026-04-27T17:01:56.999Z</time></trkpt><trkpt lat="42.29681287657598" lon="13.779377892500602"><ele>351.0</ele><time>2026-04-27T17:01:57.999Z</time></trkpt><trkpt lat="42.29669237927089" lon="13.779520488135056"><ele>351.0</ele><time>2026-04-27T17:01:58.999Z</time></trkpt><trkpt lat="42.296588782482296" lon="13.77969111047"><ele>351.0</ele><time>2026-04-27T17:01:59.999Z</time></trkpt><trkpt lat="42.29649129921388" lon="13.779878432076858"><ele>351.0</ele><time>2026-04-27T17:02:00.999Z</time></trkpt><trkpt lat="42.29639748505517" lon="13.780060647730965"><ele>351.6666666666667</ele><time>2026-04-27T17:02:01.999Z</time></trkpt><trkpt lat="42.29630468930415" lon="13.780247393205102"><ele>352.33333333333337</ele><time>2026-04-27T17:02:02.999Z</time></trkpt><trkpt lat="42.2962061083219" lon="13.780427617990313"><ele>353.0</ele><time>2026-04-27T17:02:03.999Z</time></trkpt><trkpt lat="42.296099844236565" lon="13.7806008507204"><ele>353.0</ele><time>2026-04-27T17:02:04.999Z</time></trkpt><trkpt lat="42.29599826905158" lon="13.780764595063518"><ele>353.0</ele><time>2026-04-27T17:02:05.999Z</time></trkpt><trkpt lat="42.29589044483663" lon="13.780935834961191"><ele>353.0</ele><time>2026-04-27T17:02:06.999Z</time></trkpt><trkpt lat="42.295787193264445" lon="13.781118831682235"><ele>352.6666666666667</ele><time>2026-04-27T17:02:07.999Z</time></trkpt><trkpt lat="42.2956925038197" lon="13.781315808037023"><ele>352.3333333333333</ele><time>2026-04-27T17:02:08.999Z</time></trkpt><trkpt lat="42.29558058127824" lon="13.781486742834653"><ele>352.0</ele><time>2026-04-27T17:02:09.999Z</time></trkpt><trkpt lat="42.29544280435003" lon="13.781617206077586"><ele>352.0</ele><time>2026-04-27T17:02:10.999Z</time></trkpt><trkpt lat="42.29529695648127" lon="13.78175052752306"><ele>352.0</ele><time>2026-04-27T17:02:11.999Z</time></trkpt><trkpt lat="42.29516375725666" lon="13.781892351981174"><ele>352.0</ele><time>2026-04-27T17:02:12.999Z</time></trkpt><trkpt lat="42.29503597029261" lon="13.782050235645867"><ele>352.0</ele><time>2026-04-27T17:02:13.999Z</time></trkpt><trkpt lat="42.29490435211574" lon="13.782200804723159"><ele>352.0</ele><time>2026-04-27T17:02:14.999Z</time></trkpt><trkpt lat="42.29477756354335" lon="13.78234734201741"><ele>352.0</ele><time>2026-04-27T17:02:15.999Z</time></trkpt><trkpt lat="42.29465101410647" lon="13.78249753006259"><ele>351.3333333333333</ele><time>2026-04-27T17:02:16.999Z</time></trkpt><trkpt lat="42.29453148301582" lon="13.782656645212935"><ele>350.6666666666667</ele><time>2026-04-27T17:02:17.999Z</time></trkpt><trkpt lat="42.294398223475525" lon="13.782795171260668"><ele>350.0</ele><time>2026-04-27T17:02:18.999Z</time></trkpt><trkpt lat="42.294278187530224" lon="13.782949602375488"><ele>350.0</ele><time>2026-04-27T17:02:19.999Z</time></trkpt><trkpt lat="42.29415928349971" lon="13.78311239142015"><ele>350.0</ele><time>2026-04-27T17:02:20.999Z</time></trkpt><trkpt lat="42.2940435025002" lon="13.783273938709254"><ele>350.0</ele><time>2026-04-27T17:02:21.999Z</time></trkpt><trkpt lat="42.29392340639484" lon="13.783437527700633"><ele>350.33333333333337</ele><time>2026-04-27T17:02:22.999Z</time></trkpt><trkpt lat="42.29380331493921" lon="13.78359732534495"><ele>350.6666666666667</ele><time>2026-04-27T17:02:23.999Z</time></trkpt><trkpt lat="42.29368516925882" lon="13.78375909504506"><ele>351.0</ele><time>2026-04-27T17:02:24.999Z</time></trkpt><trkpt lat="42.293564057266344" lon="13.783923216081739"><ele>351.0</ele><time>2026-04-27T17:02:25.999Z</time></trkpt><trkpt lat="42.293443304277226" lon="13.784074279849122"><ele>351.0</ele><time>2026-04-27T17:02:26.999Z</time></trkpt><trkpt lat="42.29330910489011" lon="13.784219587136377"><ele>351.0</ele><time>2026-04-27T17:02:27.999Z</time></trkpt><trkpt lat="42.29316469767217" lon="13.784350517409322"><ele>351.3333333333333</ele><time>2026-04-27T17:02:28.999Z</time></trkpt><trkpt lat="42.29301900340839" lon="13.78446664201781"><ele>351.66666666666663</ele><time>2026-04-27T17:02:29.999Z</time></trkpt><trkpt lat="42.29287447266686" lon="13.784571257966695"><ele>352.0</ele><time>2026-04-27T17:02:30.999Z</time></trkpt><trkpt lat="42.29272248989638" lon="13.784673934198912"><ele>352.0</ele><time>2026-04-27T17:02:31.999Z</time></trkpt><trkpt lat="42.29257352502252" lon="13.784769560550485"><ele>352.0</ele><time>2026-04-27T17:02:32.999Z</time></trkpt><trkpt lat="42.292433571864976" lon="13.784855770999243"><ele>352.0</ele><time>2026-04-27T17:02:33.999Z</time></trkpt><trkpt lat="42.292282339714966" lon="13.784937370510562"><ele>351.3333333333333</ele><time>2026-04-27T17:02:34.999Z</time></trkpt><trkpt lat="42.29212916349926" lon="13.784997799133926"><ele>350.6666666666667</ele><time>2026-04-27T17:02:35.999Z</time></trkpt><trkpt lat="42.291974842781705" lon="13.785053128561046"><ele>350.0</ele><time>2026-04-27T17:02:36.999Z</time></trkpt><trkpt lat="42.29182591070845" lon="13.785119611599312"><ele>350.33333333333337</ele><time>2026-04-27T17:02:37.999Z</time></trkpt><trkpt lat="42.291680419511444" lon="13.785202015736356"><ele>350.6666666666667</ele><time>2026-04-27T17:02:38.998Z</time></trkpt><trkpt lat="42.29153526572131" lon="13.785294706743436"><ele>351.0</ele><time>2026-04-27T17:02:39.998Z</time></trkpt><trkpt lat="42.29139408362479" lon="13.785393947426417"><ele>351.0</ele><time>2026-04-27T17:02:40.998Z</time></trkpt><trkpt lat="42.29125283726608" lon="13.78549882782243"><ele>351.0</ele><time>2026-04-27T17:02:41.998Z</time></trkpt><trkpt lat="42.29111595495061" lon="13.7856023743635"><ele>351.0</ele><time>2026-04-27T17:02:42.998Z</time></trkpt><trkpt lat="42.29098534045068" lon="13.785723220424947"><ele>351.0</ele><time>2026-04-27T17:02:43.998Z</time></trkpt><trkpt lat="42.290848385563116" lon="13.78583109039361"><ele>351.0</ele><time>2026-04-27T17:02:44.998Z</time></trkpt><trkpt lat="42.29070242010946" lon="13.78592403223868"><ele>351.0</ele><time>2026-04-27T17:02:45.998Z</time></trkpt><trkpt lat="42.29056846921795" lon="13.786030345161251"><ele>351.25</ele><time>2026-04-27T17:02:46.998Z</time></trkpt><trkpt lat="42.290429431026034" lon="13.78614069572883"><ele>351.5</ele><time>2026-04-27T17:02:47.998Z</time></trkpt><trkpt lat="42.290303441859535" lon="13.786240689654731"><ele>351.75</ele><time>2026-04-27T17:02:48.998Z</time></trkpt><trkpt lat="42.29018873608325" lon="13.786331728303796"><ele>352.0</ele><time>2026-04-27T17:02:49.998Z</time></trkpt><trkpt lat="42.29007702743292" lon="13.786420387863332"><ele>352.0</ele><time>2026-04-27T17:02:50.998Z</time></trkpt><trkpt lat="42.28995481498409" lon="13.78651550693814"><ele>352.0</ele><time>2026-04-27T17:02:51.998Z</time></trkpt><trkpt lat="42.28982986386353" lon="13.786613184274595"><ele>352.0</ele><time>2026-04-27T17:02:52.998Z</time></trkpt><trkpt lat="42.28969711153703" lon="13.78671426635786"><ele>352.0</ele><time>2026-04-27T17:02:53.998Z</time></trkpt><trkpt lat="42.28955619440375" lon="13.786819536772198"><ele>353.0</ele><time>2026-04-27T17:02:54.998Z</time></trkpt><trkpt lat="42.2894202009414" lon="13.786920224206861"><ele>354.0</ele><time>2026-04-27T17:02:55.998Z</time></trkpt><trkpt lat="42.28928553150298" lon="13.787020683430312"><ele>355.0</ele><time>2026-04-27T17:02:56.998Z</time></trkpt><trkpt lat="42.28915212611141" lon="13.787126137983527"><ele>355.0</ele><time>2026-04-27T17:02:57.998Z</time></trkpt><trkpt lat="42.289023236419524" lon="13.787235355308306"><ele>355.0</ele><time>2026-04-27T17:02:58.998Z</time></trkpt><trkpt lat="42.288896252607564" lon="13.78734900567032"><ele>355.0</ele><time>2026-04-27T17:03:00Z</time></trkpt><trkpt lat="42.28876779996398" lon="13.7874646384927"><ele>355.0</ele><time>2026-04-27T17:03:01Z</time></trkpt><trkpt lat="42.2886399355473" lon="13.787579741810081"><ele>355.0</ele><time>2026-04-27T17:03:02Z</time></trkpt><trkpt lat="42.28851155739067" lon="13.78769168140802"><ele>355.0</ele><time>2026-04-27T17:03:03Z</time></trkpt><trkpt lat="42.288383644958245" lon="13.787809021547424"><ele>356.25</ele><time>2026-04-27T17:03:04Z</time></trkpt><trkpt lat="42.28825054950316" lon="13.787903267124506"><ele>357.5</ele><time>2026-04-27T17:03:05Z</time></trkpt><trkpt lat="42.28812436694254" lon="13.787980961940345"><ele>358.75</ele><time>2026-04-27T17:03:06Z</time></trkpt><trkpt lat="42.287990783712345" lon="13.788040747289793"><ele>360.0</ele><time>2026-04-27T17:03:07Z</time></trkpt><trkpt lat="42.287857043717935" lon="13.788055692633"><ele>360.5</ele><time>2026-04-27T17:03:08Z</time></trkpt><trkpt lat="42.28771415358776" lon="13.7881057660584"><ele>361.0</ele><time>2026-04-27T17:03:09Z</time></trkpt><trkpt lat="42.28757284287927" lon="13.788168725426802"><ele>361.5</ele><time>2026-04-27T17:03:10Z</time></trkpt><trkpt lat="42.28743842605925" lon="13.788237439593543"><ele>362.0</ele><time>2026-04-27T17:03:11Z</time></trkpt><trkpt lat="42.28731648174826" lon="13.788305142035199"><ele>362.0</ele><time>2026-04-27T17:03:12Z</time></trkpt><trkpt lat="42.28718436014443" lon="13.788383303948276"><ele>362.0</ele><time>2026-04-27T17:03:13Z</time></trkpt><trkpt lat="42.28705067584773" lon="13.788464993494369"><ele>362.0</ele><time>2026-04-27T17:03:14Z</time></trkpt><trkpt lat="42.286930793107125" lon="13.788539450386565"><ele>362.0</ele><time>2026-04-27T17:03:15Z</time></trkpt><trkpt lat="42.2868250530901" lon="13.788605365865388"><ele>362.0</ele><time>2026-04-27T17:03:16Z</time></trkpt><trkpt lat="42.286731061870334" lon="13.788667636167855"><ele>362.0</ele><time>2026-04-27T17:03:17Z</time></trkpt><trkpt lat="42.2866530358911" lon="13.788721039060523"><ele>362.0</ele><time>2026-04-27T17:03:18Z</time></trkpt><trkpt lat="42.28659252655079" lon="13.788783047295274"><ele>362.0</ele><time>2026-04-27T17:03:20Z</time></trkpt><trkpt lat="42.28657286430715" lon="13.788634964571552"><ele>362.0</ele><time>2026-04-27T17:03:22Z</time></trkpt><trkpt lat="42.28660138281051" lon="13.7884989155676"><ele>361.0</ele><time>2026-04-27T17:03:23Z</time></trkpt><trkpt lat="42.286588136613034" lon="13.788374021434393"><ele>360.0</ele><time>2026-04-27T17:03:24Z</time></trkpt><trkpt lat="42.286574767057644" lon="13.788221677373844"><ele>359.0</ele><time>2026-04-27T17:03:25Z</time></trkpt><trkpt lat="42.28655803643694" lon="13.788062501620184"><ele>358.0</ele><time>2026-04-27T17:03:26Z</time></trkpt><trkpt lat="42.28653672994929" lon="13.787888600750337"><ele>358.0</ele><time>2026-04-27T17:03:27Z</time></trkpt><trkpt lat="42.28651642303704" lon="13.787697495695296"><ele>358.0</ele><time>2026-04-27T17:03:28Z</time></trkpt><trkpt lat="42.28649893076094" lon="13.787515036818432"><ele>358.0</ele><time>2026-04-27T17:03:29Z</time></trkpt><trkpt lat="42.286477861813964" lon="13.78732602913404"><ele>358.0</ele><time>2026-04-27T17:03:30Z</time></trkpt><trkpt lat="42.286459308025066" lon="13.787124432988673"><ele>356.3333333333333</ele><time>2026-04-27T17:03:31Z</time></trkpt><trkpt lat="42.286436752462514" lon="13.786917445601024"><ele>354.6666666666667</ele><time>2026-04-27T17:03:32Z</time></trkpt><trkpt lat="42.286406579270775" lon="13.786706102919693"><ele>353.0</ele><time>2026-04-27T17:03:33Z</time></trkpt><trkpt lat="42.28637325568085" lon="13.786491133374666"><ele>350.0</ele><time>2026-04-27T17:03:34Z</time></trkpt><trkpt lat="42.286342468450584" lon="13.786268590167323"><ele>347.0</ele><time>2026-04-27T17:03:35Z</time></trkpt><trkpt lat="42.28631178094197" lon="13.786044343034547"><ele>344.0</ele><time>2026-04-27T17:03:36Z</time></trkpt><trkpt lat="42.2862743837648" lon="13.78581494151746"><ele>343.6666666666667</ele><time>2026-04-27T17:03:37Z</time></trkpt><trkpt lat="42.28624348316192" lon="13.785582880763812"><ele>343.3333333333333</ele><time>2026-04-27T17:03:37.999Z</time></trkpt><trkpt lat="42.286217927724266" lon="13.785355480331118"><ele>343.0</ele><time>2026-04-27T17:03:38.999Z</time></trkpt><trkpt lat="42.28619269019697" lon="13.785130257353755"><ele>343.0</ele><time>2026-04-27T17:03:39.999Z</time></trkpt><trkpt lat="42.2861577415395" lon="13.784907471235329"><ele>343.0</ele><time>2026-04-27T17:03:40.999Z</time></trkpt><trkpt lat="42.28613806156635" lon="13.784666248584704"><ele>343.0</ele><time>2026-04-27T17:03:41.999Z</time></trkpt><trkpt lat="42.28610217152385" lon="13.78441933915067"><ele>343.66666666666663</ele><time>2026-04-27T17:03:42.999Z</time></trkpt><trkpt lat="42.28607041221854" lon="13.784163237867737"><ele>344.3333333333333</ele><time>2026-04-27T17:03:43.999Z</time></trkpt><trkpt lat="42.286040787116335" lon="13.783901002056059"><ele>345.0</ele><time>2026-04-27T17:03:44.999Z</time></trkpt><trkpt lat="42.28601146586689" lon="13.783631995786603"><ele>345.3333333333333</ele><time>2026-04-27T17:03:45.999Z</time></trkpt><trkpt lat="42.28598410713576" lon="13.783360925983995"><ele>345.66666666666663</ele><time>2026-04-27T17:03:46.999Z</time></trkpt><trkpt lat="42.28595510580209" lon="13.783086982563981"><ele>346.0</ele><time>2026-04-27T17:03:47.999Z</time></trkpt><trkpt lat="42.28591974107474" lon="13.78281049343181"><ele>345.0</ele><time>2026-04-27T17:03:48.999Z</time></trkpt><trkpt lat="42.28587499881096" lon="13.782535424815183"><ele>344.0</ele><time>2026-04-27T17:03:49.999Z</time></trkpt><trkpt lat="42.28580944853666" lon="13.782266069253621"><ele>343.0</ele><time>2026-04-27T17:03:50.999Z</time></trkpt><trkpt lat="42.285724624132165" lon="13.782008604998937"><ele>342.66666666666663</ele><time>2026-04-27T17:03:51.999Z</time></trkpt><trkpt lat="42.28563441410801" lon="13.78176992722261"><ele>342.3333333333333</ele><time>2026-04-27T17:03:52.999Z</time></trkpt><trkpt lat="42.28553284311066" lon="13.781529353093047"><ele>342.0</ele><time>2026-04-27T17:03:53.999Z</time></trkpt><trkpt lat="42.28543002903185" lon="13.781285124913255"><ele>342.3333333333333</ele><time>2026-04-27T17:03:54.999Z</time></trkpt><trkpt lat="42.28532769533919" lon="13.781038299367058"><ele>342.66666666666663</ele><time>2026-04-27T17:03:55.999Z</time></trkpt><trkpt lat="42.28522471031127" lon="13.780786327086334"><ele>343.0</ele><time>2026-04-27T17:03:56.999Z</time></trkpt><trkpt lat="42.285120676399856" lon="13.78053359022549"><ele>343.0</ele><time>2026-04-27T17:03:57.999Z</time></trkpt><trkpt lat="42.28501763141095" lon="13.780279724983497"><ele>343.0</ele><time>2026-04-27T17:03:58.999Z</time></trkpt><trkpt lat="42.284913749283135" lon="13.780021384916457"><ele>343.0</ele><time>2026-04-27T17:03:59.999Z</time></trkpt><trkpt lat="42.28480818640346" lon="13.779764874310823"><ele>343.0</ele><time>2026-04-27T17:04:00.999Z</time></trkpt><trkpt lat="42.28470152484761" lon="13.77950486753294"><ele>343.0</ele><time>2026-04-27T17:04:01.999Z</time></trkpt><trkpt lat="42.28459453755523" lon="13.779244737175043"><ele>343.0</ele><time>2026-04-27T17:04:02.999Z</time></trkpt><trkpt lat="42.28448653737213" lon="13.778982490838006"><ele>343.0</ele><time>2026-04-27T17:04:03.999Z</time></trkpt><trkpt lat="42.28437804582073" lon="13.778716650911322"><ele>343.0</ele><time>2026-04-27T17:04:04.999Z</time></trkpt><trkpt lat="42.28426942291973" lon="13.778450429586739"><ele>343.5</ele><time>2026-04-27T17:04:05.999Z</time></trkpt><trkpt lat="42.284159951270986" lon="13.778181969933017"><ele>344.0</ele><time>2026-04-27T17:04:06.999Z</time></trkpt><trkpt lat="42.28404996396318" lon="13.7779133804098"><ele>344.0</ele><time>2026-04-27T17:04:07.999Z</time></trkpt><trkpt lat="42.28394059892432" lon="13.77764215231256"><ele>344.0</ele><time>2026-04-27T17:04:08.999Z</time></trkpt><trkpt lat="42.28383148964496" lon="13.777371476682413"><ele>344.5</ele><time>2026-04-27T17:04:09.999Z</time></trkpt><trkpt lat="42.28372184261082" lon="13.77710139706656"><ele>345.0</ele><time>2026-04-27T17:04:10.999Z</time></trkpt><trkpt lat="42.283609757361596" lon="13.776830534232072"><ele>345.0</ele><time>2026-04-27T17:04:11.999Z</time></trkpt><trkpt lat="42.28349673576451" lon="13.776559149089573"><ele>345.0</ele><time>2026-04-27T17:04:12.999Z</time></trkpt><trkpt lat="42.283395435433555" lon="13.776309466850995"><ele>345.0</ele><time>2026-04-27T17:04:13.999Z</time></trkpt><trkpt lat="42.283304017156546" lon="13.776075830649644"><ele>345.0</ele><time>2026-04-27T17:04:14.999Z</time></trkpt><trkpt lat="42.28321180382686" lon="13.775848925166825"><ele>345.0</ele><time>2026-04-27T17:04:15.999Z</time></trkpt><trkpt lat="42.283121677650385" lon="13.775626175859571"><ele>345.0</ele><time>2026-04-27T17:04:16.999Z</time></trkpt><trkpt lat="42.28303907636377" lon="13.775414549029433"><ele>345.0</ele><time>2026-04-27T17:04:17.999Z</time></trkpt><trkpt lat="42.282956577972115" lon="13.775230062731167"><ele>345.0</ele><time>2026-04-27T17:04:18.999Z</time></trkpt><trkpt lat="42.28286980513424" lon="13.775070185423298"><ele>345.0</ele><time>2026-04-27T17:04:19.999Z</time></trkpt><trkpt lat="42.28277207215984" lon="13.774925377445626"><ele>346.0</ele><time>2026-04-27T17:04:20.999Z</time></trkpt><trkpt lat="42.2826582362722" lon="13.774804462850483"><ele>347.0</ele><time>2026-04-27T17:04:21.999Z</time></trkpt><trkpt lat="42.28252384115987" lon="13.774709050420752"><ele>348.0</ele><time>2026-04-27T17:04:22.999Z</time></trkpt><trkpt lat="42.282370842092895" lon="13.77464639813615"><ele>348.3333333333333</ele><time>2026-04-27T17:04:23.999Z</time></trkpt><trkpt lat="42.282204749842435" lon="13.774616487761543"><ele>348.66666666666663</ele><time>2026-04-27T17:04:24.999Z</time></trkpt><trkpt lat="42.28203613368937" lon="13.774587184649183"><ele>349.0</ele><time>2026-04-27T17:04:25.999Z</time></trkpt><trkpt lat="42.281881829968604" lon="13.774539422725187"><ele>349.0</ele><time>2026-04-27T17:04:26.999Z</time></trkpt><trkpt lat="42.281748790809296" lon="13.774472656188827"><ele>349.0</ele><time>2026-04-27T17:04:27.999Z</time></trkpt><trkpt lat="42.28163216353499" lon="13.774383411227923"><ele>349.0</ele><time>2026-04-27T17:04:28.999Z</time></trkpt><trkpt lat="42.28151408982489" lon="13.774255294815624"><ele>349.0</ele><time>2026-04-27T17:04:29.999Z</time></trkpt><trkpt lat="42.28140411700116" lon="13.774102744427166"><ele>349.66666666666663</ele><time>2026-04-27T17:04:30.999Z</time></trkpt><trkpt lat="42.28128455201946" lon="13.773943352049084"><ele>350.3333333333333</ele><time>2026-04-27T17:04:31.999Z</time></trkpt><trkpt lat="42.28115601048248" lon="13.773783579084254"><ele>351.0</ele><time>2026-04-27T17:04:32.999Z</time></trkpt><trkpt lat="42.28102860217493" lon="13.77362115640825"><ele>353.3333333333333</ele><time>2026-04-27T17:04:33.999Z</time></trkpt><trkpt lat="42.280911249816675" lon="13.773454915120691"><ele>355.66666666666663</ele><time>2026-04-27T17:04:34.999Z</time></trkpt><trkpt lat="42.280809819028214" lon="13.77326919018465"><ele>358.0</ele><time>2026-04-27T17:04:35.999Z</time></trkpt><trkpt lat="42.28071583972192" lon="13.773077899976878"><ele>358.0</ele><time>2026-04-27T17:04:36.999Z</time></trkpt><trkpt lat="42.280618403594026" lon="13.772889137474309"><ele>358.0</ele><time>2026-04-27T17:04:37.999Z</time></trkpt><trkpt lat="42.28052068247632" lon="13.772700725081878"><ele>358.0</ele><time>2026-04-27T17:04:38.999Z</time></trkpt><trkpt lat="42.280433805888094" lon="13.772529707005626"><ele>357.25</ele><time>2026-04-27T17:04:39.998Z</time></trkpt><trkpt lat="42.280355048195624" lon="13.772382631679639"><ele>356.5</ele><time>2026-04-27T17:04:40.998Z</time></trkpt><trkpt lat="42.28026382487368" lon="13.772259970155044"><ele>355.75</ele><time>2026-04-27T17:04:41.998Z</time></trkpt><trkpt lat="42.28014653474046" lon="13.7721585750229"><ele>355.0</ele><time>2026-04-27T17:04:42.998Z</time></trkpt><trkpt lat="42.280016446390256" lon="13.772066520434626"><ele>355.0</ele><time>2026-04-27T17:04:43.998Z</time></trkpt><trkpt lat="42.27988418009655" lon="13.771961186596835"><ele>355.0</ele><time>2026-04-27T17:04:44.998Z</time></trkpt><trkpt lat="42.27976190665065" lon="13.771831917136343"><ele>355.0</ele><time>2026-04-27T17:04:45.998Z</time></trkpt><trkpt lat="42.279662162816415" lon="13.771670736509288"><ele>355.66666666666663</ele><time>2026-04-27T17:04:46.998Z</time></trkpt><trkpt lat="42.27958495772267" lon="13.77147922175483"><ele>356.3333333333333</ele><time>2026-04-27T17:04:47.998Z</time></trkpt><trkpt lat="42.27952053000501" lon="13.771275838321957"><ele>357.0</ele><time>2026-04-27T17:04:48.998Z</time></trkpt><trkpt lat="42.27945725794153" lon="13.771077078304279"><ele>357.6666666666667</ele><time>2026-04-27T17:04:49.998Z</time></trkpt><trkpt lat="42.27938639214538" lon="13.770874643310336"><ele>358.33333333333337</ele><time>2026-04-27T17:04:50.998Z</time></trkpt><trkpt lat="42.27931455412643" lon="13.770671499915963"><ele>359.0</ele><time>2026-04-27T17:04:51.998Z</time></trkpt><trkpt lat="42.279244640064945" lon="13.770468552314048"><ele>359.0</ele><time>2026-04-27T17:04:52.998Z</time></trkpt><trkpt lat="42.27917506641642" lon="13.770277699699054"><ele>359.0</ele><time>2026-04-27T17:04:53.998Z</time></trkpt><trkpt lat="42.27911542952361" lon="13.7701147281175"><ele>359.0</ele><time>2026-04-27T17:04:54.998Z</time></trkpt><trkpt lat="42.27905732782391" lon="13.769951317686868"><ele>359.0</ele><time>2026-04-27T17:04:55.998Z</time></trkpt><trkpt lat="42.278998882005816" lon="13.769792513673764"><ele>359.2</ele><time>2026-04-27T17:04:56.998Z</time></trkpt><trkpt lat="42.27895229191632" lon="13.769653568302589"><ele>359.4</ele><time>2026-04-27T17:04:57.998Z</time></trkpt><trkpt lat="42.27891707401415" lon="13.769540298287309"><ele>359.6</ele><time>2026-04-27T17:04:58.998Z</time></trkpt><trkpt lat="42.278884509032366" lon="13.769456315469306"><ele>359.8</ele><time>2026-04-27T17:04:59.998Z</time></trkpt><trkpt lat="42.27884848093901" lon="13.769351828225577"><ele>360.0</ele><time>2026-04-27T17:05:01.998Z</time></trkpt><trkpt lat="42.278656774911276" lon="13.769459991360149"><ele>360.0</ele><time>2026-04-27T17:05:03.998Z</time></trkpt><trkpt lat="42.27855466687182" lon="13.769538790895364"><ele>360.0</ele><time>2026-04-27T17:05:04.998Z</time></trkpt><trkpt lat="42.27846219757283" lon="13.769642021413532"><ele>360.0</ele><time>2026-04-27T17:05:06Z</time></trkpt><trkpt lat="42.27835728088977" lon="13.76976284079415"><ele>360.0</ele><time>2026-04-27T17:05:07Z</time></trkpt><trkpt lat="42.27825782350629" lon="13.769879262973362"><ele>360.0</ele><time>2026-04-27T17:05:08Z</time></trkpt><trkpt lat="42.27814593690926" lon="13.770009269641513"><ele>360.0</ele><time>2026-04-27T17:05:09Z</time></trkpt><trkpt lat="42.27802498633865" lon="13.770148373167912"><ele>360.0</ele><time>2026-04-27T17:05:10Z</time></trkpt><trkpt lat="42.27789927181875" lon="13.770294319271715"><ele>358.5</ele><time>2026-04-27T17:05:11Z</time></trkpt><trkpt lat="42.27777968407483" lon="13.770434526691202"><ele>357.0</ele><time>2026-04-27T17:05:12Z</time></trkpt><trkpt lat="42.277668263655265" lon="13.770556132954145"><ele>355.5</ele><time>2026-04-27T17:05:13Z</time></trkpt><trkpt lat="42.2775638004257" lon="13.770664979955317"><ele>354.0</ele><time>2026-04-27T17:05:14Z</time></trkpt><trkpt lat="42.277424016706924" lon="13.770697205174244"><ele>354.0</ele><time>2026-04-27T17:05:15Z</time></trkpt><trkpt lat="42.27727002366784" lon="13.770730617098193"><ele>354.0</ele><time>2026-04-27T17:05:16Z</time></trkpt><trkpt lat="42.27710604838778" lon="13.77070583010773"><ele>354.0</ele><time>2026-04-27T17:05:17Z</time></trkpt><trkpt lat="42.2769363362423" lon="13.77068824683673"><ele>352.0</ele><time>2026-04-27T17:05:18Z</time></trkpt><trkpt lat="42.27676112285524" lon="13.77067770085764"><ele>350.0</ele><time>2026-04-27T17:05:19Z</time></trkpt><trkpt lat="42.276584201419745" lon="13.770658240735028"><ele>348.0</ele><time>2026-04-27T17:05:20Z</time></trkpt><trkpt lat="42.27640900603862" lon="13.770633823205273"><ele>346.6666666666667</ele><time>2026-04-27T17:05:21Z</time></trkpt><trkpt lat="42.276232790363174" lon="13.770612828555471"><ele>345.33333333333337</ele><time>2026-04-27T17:05:22Z</time></trkpt><trkpt lat="42.27606110476157" lon="13.770567724391839"><ele>344.0</ele><time>2026-04-27T17:05:23Z</time></trkpt><trkpt lat="42.2758907124986" lon="13.770559027161498"><ele>344.0</ele><time>2026-04-27T17:05:24Z</time></trkpt><trkpt lat="42.27573285025286" lon="13.770526089929405"><ele>344.0</ele><time>2026-04-27T17:05:25Z</time></trkpt><trkpt lat="42.27558689242538" lon="13.77051692013956"><ele>344.0</ele><time>2026-04-27T17:05:26Z</time></trkpt><trkpt lat="42.27544292312908" lon="13.770511338399636"><ele>346.0</ele><time>2026-04-27T17:05:27Z</time></trkpt><trkpt lat="42.27529592871734" lon="13.770588986230244"><ele>348.0</ele><time>2026-04-27T17:05:28Z</time></trkpt><trkpt lat="42.27515138973924" lon="13.77063287303636"><ele>350.0</ele><time>2026-04-27T17:05:29Z</time></trkpt><trkpt lat="42.275043156168614" lon="13.77069934451398"><ele>352.0</ele><time>2026-04-27T17:05:30Z</time></trkpt><trkpt lat="42.27496503120416" lon="13.7707870492652"><ele>352.0</ele><time>2026-04-27T17:05:31Z</time></trkpt><trkpt lat="42.27490592146605" lon="13.770926971307647"><ele>352.0</ele><time>2026-04-27T17:05:32Z</time></trkpt><trkpt lat="42.274874567026124" lon="13.771081804739975"><ele>352.0</ele><time>2026-04-27T17:05:33Z</time></trkpt><trkpt lat="42.27484498070814" lon="13.771226249111482"><ele>352.0</ele><time>2026-04-27T17:05:34Z</time></trkpt><trkpt lat="42.27481082405671" lon="13.771393074690023"><ele>352.5</ele><time>2026-04-27T17:05:35Z</time></trkpt><trkpt lat="42.27477223667408" lon="13.771569522033051"><ele>353.0</ele><time>2026-04-27T17:05:36Z</time></trkpt><trkpt lat="42.27473110740312" lon="13.77175492128259"><ele>353.5</ele><time>2026-04-27T17:05:37Z</time></trkpt><trkpt lat="42.27468889511419" lon="13.771945202527883"><ele>354.0</ele><time>2026-04-27T17:05:38Z</time></trkpt><trkpt lat="42.274645234428924" lon="13.77213042354672"><ele>354.0</ele><time>2026-04-27T17:05:39Z</time></trkpt><trkpt lat="42.27460381362335" lon="13.772306361593714"><ele>354.0</ele><time>2026-04-27T17:05:40Z</time></trkpt><trkpt lat="42.27455712523827" lon="13.772465045112707"><ele>354.0</ele><time>2026-04-27T17:05:41Z</time></trkpt><trkpt lat="42.27449539946785" lon="13.772604157701922"><ele>354.0</ele><time>2026-04-27T17:05:42Z</time></trkpt><trkpt lat="42.27440425417406" lon="13.772735345191089"><ele>353.5</ele><time>2026-04-27T17:05:42.999Z</time></trkpt><trkpt lat="42.274296878202684" lon="13.772868413390295"><ele>353.0</ele><time>2026-04-27T17:05:43.999Z</time></trkpt><trkpt lat="42.274194252500955" lon="13.77299361084563"><ele>352.5</ele><time>2026-04-27T17:05:44.999Z</time></trkpt><trkpt lat="42.27408427810557" lon="13.773130229986213"><ele>352.0</ele><time>2026-04-27T17:05:45.999Z</time></trkpt><trkpt lat="42.27397077610121" lon="13.773269225924299"><ele>352.66666666666663</ele><time>2026-04-27T17:05:46.999Z</time></trkpt><trkpt lat="42.27384832134214" lon="13.773411669566572"><ele>353.3333333333333</ele><time>2026-04-27T17:05:47.999Z</time></trkpt><trkpt lat="42.273721870917576" lon="13.773557393330492"><ele>354.0</ele><time>2026-04-27T17:05:48.999Z</time></trkpt><trkpt lat="42.273590013362536" lon="13.773707674195302"><ele>354.0</ele><time>2026-04-27T17:05:49.999Z</time></trkpt><trkpt lat="42.27345796072797" lon="13.773858177475253"><ele>354.0</ele><time>2026-04-27T17:05:50.999Z</time></trkpt><trkpt lat="42.27332624840412" lon="13.774010956643872"><ele>354.0</ele><time>2026-04-27T17:05:51.999Z</time></trkpt><trkpt lat="42.2732039389639" lon="13.774173966829482"><ele>355.0</ele><time>2026-04-27T17:05:52.999Z</time></trkpt><trkpt lat="42.27309067706727" lon="13.77434646965692"><ele>356.0</ele><time>2026-04-27T17:05:53.999Z</time></trkpt><trkpt lat="42.27298597416566" lon="13.774524658691163"><ele>357.0</ele><time>2026-04-27T17:05:54.999Z</time></trkpt><trkpt lat="42.27288491181913" lon="13.774702697873161"><ele>357.0</ele><time>2026-04-27T17:05:55.999Z</time></trkpt><trkpt lat="42.272783489678574" lon="13.774879768360345"><ele>357.0</ele><time>2026-04-27T17:05:56.999Z</time></trkpt><trkpt lat="42.27268215115762" lon="13.775056692856541"><ele>357.0</ele><time>2026-04-27T17:05:57.999Z</time></trkpt><trkpt lat="42.272586089464376" lon="13.775218609923263"><ele>356.0</ele><time>2026-04-27T17:05:58.999Z</time></trkpt><trkpt lat="42.27249568395197" lon="13.775363935514589"><ele>355.0</ele><time>2026-04-27T17:05:59.999Z</time></trkpt><trkpt lat="42.272414692578174" lon="13.775498731604307"><ele>354.0</ele><time>2026-04-27T17:06:00.999Z</time></trkpt><trkpt lat="42.27235073303771" lon="13.775652893680082"><ele>353.0</ele><time>2026-04-27T17:06:01.999Z</time></trkpt><trkpt lat="42.27229974385142" lon="13.7758127017424"><ele>352.33333333333337</ele><time>2026-04-27T17:06:02.999Z</time></trkpt><trkpt lat="42.27225824619121" lon="13.775994026248252"><ele>351.6666666666667</ele><time>2026-04-27T17:06:03.999Z</time></trkpt><trkpt lat="42.272224557296454" lon="13.776193418171585"><ele>351.0</ele><time>2026-04-27T17:06:04.999Z</time></trkpt><trkpt lat="42.27221232136242" lon="13.776414781150422"><ele>351.0</ele><time>2026-04-27T17:06:05.999Z</time></trkpt><trkpt lat="42.27219306017766" lon="13.776639747865852"><ele>351.0</ele><time>2026-04-27T17:06:06.999Z</time></trkpt><trkpt lat="42.272169255702934" lon="13.776872066197363"><ele>351.0</ele><time>2026-04-27T17:06:07.999Z</time></trkpt><trkpt lat="42.272144887127794" lon="13.777111576467453"><ele>350.0</ele><time>2026-04-27T17:06:08.999Z</time></trkpt><trkpt lat="42.272121485450285" lon="13.777351895766195"><ele>349.0</ele><time>2026-04-27T17:06:09.999Z</time></trkpt><trkpt lat="42.27209933043114" lon="13.77759181439377"><ele>348.0</ele><time>2026-04-27T17:06:10.999Z</time></trkpt><trkpt lat="42.27207883605656" lon="13.777824683781436"><ele>347.3333333333333</ele><time>2026-04-27T17:06:11.999Z</time></trkpt><trkpt lat="42.2720585573284" lon="13.778055102879057"><ele>346.66666666666663</ele><time>2026-04-27T17:06:12.999Z</time></trkpt><trkpt lat="42.27203896182555" lon="13.778268739240033"><ele>346.0</ele><time>2026-04-27T17:06:13.999Z</time></trkpt><trkpt lat="42.272018233106486" lon="13.778484267769517"><ele>345.0</ele><time>2026-04-27T17:06:14.999Z</time></trkpt><trkpt lat="42.27199618215858" lon="13.778698075273581"><ele>344.0</ele><time>2026-04-27T17:06:15.999Z</time></trkpt><trkpt lat="42.271973944416395" lon="13.778913693689224"><ele>343.0</ele><time>2026-04-27T17:06:16.999Z</time></trkpt><trkpt lat="42.271951908899304" lon="13.779120888070674"><ele>343.0</ele><time>2026-04-27T17:06:17.999Z</time></trkpt><trkpt lat="42.27192749088378" lon="13.779312087718075"><ele>343.0</ele><time>2026-04-27T17:06:18.999Z</time></trkpt><trkpt lat="42.271901011393126" lon="13.779482246343967"><ele>343.0</ele><time>2026-04-27T17:06:19.999Z</time></trkpt><trkpt lat="42.27186664026032" lon="13.779635554244596"><ele>343.0</ele><time>2026-04-27T17:06:20.999Z</time></trkpt><trkpt lat="42.271815126530306" lon="13.779774621378632"><ele>342.5</ele><time>2026-04-27T17:06:21.999Z</time></trkpt><trkpt lat="42.27173454278628" lon="13.779919595859823"><ele>342.0</ele><time>2026-04-27T17:06:22.999Z</time></trkpt><trkpt lat="42.27163834117812" lon="13.780062055301261"><ele>341.5</ele><time>2026-04-27T17:06:23.999Z</time></trkpt><trkpt lat="42.27153655971496" lon="13.780211589380519"><ele>341.0</ele><time>2026-04-27T17:06:24.999Z</time></trkpt><trkpt lat="42.27143182075177" lon="13.780366269219504"><ele>341.0</ele><time>2026-04-27T17:06:25.999Z</time></trkpt><trkpt lat="42.27133099555148" lon="13.780520476226613"><ele>341.0</ele><time>2026-04-27T17:06:26.999Z</time></trkpt><trkpt lat="42.271240063284964" lon="13.780661101195918"><ele>341.0</ele><time>2026-04-27T17:06:27.999Z</time></trkpt><trkpt lat="42.2711572950528" lon="13.780792821580231"><ele>341.0</ele><time>2026-04-27T17:06:28.999Z</time></trkpt><trkpt lat="42.27108660764299" lon="13.78091296339497"><ele>341.0</ele><time>2026-04-27T17:06:29.999Z</time></trkpt><trkpt lat="42.27104909775821" lon="13.78098144054886"><ele>341.0</ele><time>2026-04-27T17:06:30.999Z</time></trkpt><trkpt lat="42.270975853325915" lon="13.781096505994444"><ele>341.0</ele><time>2026-04-27T17:06:33.999Z</time></trkpt><trkpt lat="42.27089936216863" lon="13.781165042147737"><ele>341.0</ele><time>2026-04-27T17:06:34.999Z</time></trkpt><trkpt lat="42.27082657054962" lon="13.78124726253664"><ele>341.0</ele><time>2026-04-27T17:06:35.999Z</time></trkpt><trkpt lat="42.270746784632024" lon="13.781332604986176"><ele>339.75</ele><time>2026-04-27T17:06:36.999Z</time></trkpt><trkpt lat="42.270646827438306" lon="13.781385020476463"><ele>338.5</ele><time>2026-04-27T17:06:37.999Z</time></trkpt><trkpt lat="42.27051554478951" lon="13.781450544491953"><ele>337.25</ele><time>2026-04-27T17:06:38.999Z</time></trkpt><trkpt lat="42.27036588838047" lon="13.781556457281447"><ele>336.0</ele><time>2026-04-27T17:06:39.999Z</time></trkpt><trkpt lat="42.270230244612456" lon="13.781661153183972"><ele>336.0</ele><time>2026-04-27T17:06:40.999Z</time></trkpt><trkpt lat="42.270114340105074" lon="13.781752405818214"><ele>336.0</ele><time>2026-04-27T17:06:41.999Z</time></trkpt><trkpt lat="42.2700037438222" lon="13.78183664723281"><ele>336.0</ele><time>2026-04-27T17:06:42.999Z</time></trkpt><trkpt lat="42.269887301704756" lon="13.781908843603365"><ele>336.0</ele><time>2026-04-27T17:06:43.999Z</time></trkpt><trkpt lat="42.26976678621696" lon="13.781956938955556"><ele>336.8</ele><time>2026-04-27T17:06:44.998Z</time></trkpt><trkpt lat="42.26965042265383" lon="13.781991707015303"><ele>337.6</ele><time>2026-04-27T17:06:45.998Z</time></trkpt><trkpt lat="42.26955410247898" lon="13.782068780303408"><ele>338.4</ele><time>2026-04-27T17:06:46.998Z</time></trkpt><trkpt lat="42.26947402828117" lon="13.782154955948572"><ele>339.2</ele><time>2026-04-27T17:06:47.998Z</time></trkpt><trkpt lat="42.26941641764667" lon="13.782278187412212"><ele>340.0</ele><time>2026-04-27T17:06:48.998Z</time></trkpt><trkpt lat="42.269383587879915" lon="13.782420698160735"><ele>340.0</ele><time>2026-04-27T17:06:49.998Z</time></trkpt><trkpt lat="42.26936457166173" lon="13.782588613216747"><ele>340.0</ele><time>2026-04-27T17:06:50.998Z</time></trkpt><trkpt lat="42.26934108921519" lon="13.782765961635077"><ele>340.0</ele><time>2026-04-27T17:06:51.998Z</time></trkpt><trkpt lat="42.26931222821154" lon="13.782954171796744"><ele>340.0</ele><time>2026-04-27T17:06:52.998Z</time></trkpt><trkpt lat="42.26927207361529" lon="13.783147838265032"><ele>340.0</ele><time>2026-04-27T17:06:53.998Z</time></trkpt><trkpt lat="42.26922316233564" lon="13.783337438310266"><ele>340.0</ele><time>2026-04-27T17:06:54.998Z</time></trkpt><trkpt lat="42.26916404753227" lon="13.78353771456259"><ele>340.0</ele><time>2026-04-27T17:06:55.998Z</time></trkpt><trkpt lat="42.26909123427367" lon="13.783735786585792"><ele>340.0</ele><time>2026-04-27T17:06:56.998Z</time></trkpt><trkpt lat="42.26897475244121" lon="13.783908437800694"><ele>340.0</ele><time>2026-04-27T17:06:57.998Z</time></trkpt><trkpt lat="42.2688786246418" lon="13.784103611797397"><ele>340.0</ele><time>2026-04-27T17:06:58.998Z</time></trkpt><trkpt lat="42.268775441935105" lon="13.784298713105589"><ele>341.0</ele><time>2026-04-27T17:06:59.998Z</time></trkpt><trkpt lat="42.268668893846076" lon="13.784484549945278"><ele>342.0</ele><time>2026-04-27T17:07:00.998Z</time></trkpt><trkpt lat="42.26855169969217" lon="13.78466208249897"><ele>343.0</ele><time>2026-04-27T17:07:01.998Z</time></trkpt><trkpt lat="42.268421832421936" lon="13.784818762749893"><ele>343.0</ele><time>2026-04-27T17:07:02.998Z</time></trkpt><trkpt lat="42.268281330524204" lon="13.784966833877965"><ele>343.0</ele><time>2026-04-27T17:07:03.998Z</time></trkpt><trkpt lat="42.268134054114284" lon="13.785110481440725"><ele>343.0</ele><time>2026-04-27T17:07:04.998Z</time></trkpt><trkpt lat="42.26797781965413" lon="13.78524250429613"><ele>344.3333333333333</ele><time>2026-04-27T17:07:05.998Z</time></trkpt><trkpt lat="42.267815822294764" lon="13.785373936503028"><ele>345.6666666666667</ele><time>2026-04-27T17:07:06.998Z</time></trkpt><trkpt lat="42.26765290385792" lon="13.785520493532479"><ele>347.0</ele><time>2026-04-27T17:07:07.998Z</time></trkpt><trkpt lat="42.26750060535737" lon="13.785686761265136"><ele>347.0</ele><time>2026-04-27T17:07:08.998Z</time></trkpt><trkpt lat="42.26735527753975" lon="13.785851647434322"><ele>347.0</ele><time>2026-04-27T17:07:09.998Z</time></trkpt><trkpt lat="42.26722653069947" lon="13.78599777530329"><ele>347.0</ele><time>2026-04-27T17:07:10.998Z</time></trkpt><trkpt lat="42.26709716237291" lon="13.786143982118595"><ele>347.33333333333337</ele><time>2026-04-27T17:07:12Z</time></trkpt><trkpt lat="42.26696662430353" lon="13.786299889285194"><ele>347.6666666666667</ele><time>2026-04-27T17:07:13Z</time></trkpt><trkpt lat="42.26683855656322" lon="13.786472983970297"><ele>348.0</ele><time>2026-04-27T17:07:14Z</time></trkpt><trkpt lat="42.26671326352492" lon="13.786662525909668"><ele>347.3333333333333</ele><time>2026-04-27T17:07:15Z</time></trkpt><trkpt lat="42.26659302425939" lon="13.786855470265236"><ele>346.66666666666663</ele><time>2026-04-27T17:07:16Z</time></trkpt><trkpt lat="42.266467845765334" lon="13.78705327348234"><ele>346.0</ele><time>2026-04-27T17:07:17Z</time></trkpt><trkpt lat="42.26634692337062" lon="13.787264797454997"><ele>346.3333333333333</ele><time>2026-04-27T17:07:18Z</time></trkpt><trkpt lat="42.26623450388026" lon="13.787483056098031"><ele>346.6666666666667</ele><time>2026-04-27T17:07:19Z</time></trkpt><trkpt lat="42.26612255049297" lon="13.787694371075355"><ele>347.0</ele><time>2026-04-27T17:07:20Z</time></trkpt><trkpt lat="42.266008950732314" lon="13.787902481932598"><ele>347.0</ele><time>2026-04-27T17:07:21Z</time></trkpt><trkpt lat="42.26588807583352" lon="13.788101518889006"><ele>347.0</ele><time>2026-04-27T17:07:22Z</time></trkpt><trkpt lat="42.265763885710186" lon="13.78830317653901"><ele>347.0</ele><time>2026-04-27T17:07:23Z</time></trkpt><trkpt lat="42.265644261503375" lon="13.788508338818037"><ele>348.0</ele><time>2026-04-27T17:07:24Z</time></trkpt><trkpt lat="42.26552857313908" lon="13.788715872685412"><ele>349.0</ele><time>2026-04-27T17:07:25Z</time></trkpt><trkpt lat="42.26541592588385" lon="13.788923274267786"><ele>350.0</ele><time>2026-04-27T17:07:26Z</time></trkpt><trkpt lat="42.26531150523773" lon="13.789138342373995"><ele>349.0</ele><time>2026-04-27T17:07:27Z</time></trkpt><trkpt lat="42.265226380340394" lon="13.78936852529582"><ele>348.0</ele><time>2026-04-27T17:07:28Z</time></trkpt><trkpt lat="42.26515665875949" lon="13.789600563883306"><ele>347.0</ele><time>2026-04-27T17:07:29Z</time></trkpt><trkpt lat="42.2650795671273" lon="13.789823384391202"><ele>347.0</ele><time>2026-04-27T17:07:30Z</time></trkpt><trkpt lat="42.264992868762" lon="13.790048200386785"><ele>347.0</ele><time>2026-04-27T17:07:31Z</time></trkpt><trkpt lat="42.26491012782708" lon="13.790285315771401"><ele>347.0</ele><time>2026-04-27T17:07:32Z</time></trkpt><trkpt lat="42.26483307718893" lon="13.790528291141445"><ele>347.6666666666667</ele><time>2026-04-27T17:07:33Z</time></trkpt><trkpt lat="42.26475627746012" lon="13.790771300624733"><ele>348.3333333333333</ele><time>2026-04-27T17:07:34Z</time></trkpt><trkpt lat="42.2646796979979" lon="13.791013222943157"><ele>349.0</ele><time>2026-04-27T17:07:35Z</time></trkpt><trkpt lat="42.264605629300036" lon="13.79124566217823"><ele>349.0</ele><time>2026-04-27T17:07:36Z</time></trkpt><trkpt lat="42.26453214897049" lon="13.791476254989098"><ele>349.0</ele><time>2026-04-27T17:07:37Z</time></trkpt><trkpt lat="42.2644589129856" lon="13.791706081114983"><ele>349.0</ele><time>2026-04-27T17:07:38Z</time></trkpt><trkpt lat="42.26438805216367" lon="13.791943728926837"><ele>348.0</ele><time>2026-04-27T17:07:39Z</time></trkpt><trkpt lat="42.26432129741034" lon="13.79218857809923"><ele>347.0</ele><time>2026-04-27T17:07:40Z</time></trkpt><trkpt lat="42.264263214828866" lon="13.79243998638574"><ele>346.0</ele><time>2026-04-27T17:07:41Z</time></trkpt><trkpt lat="42.26420493951545" lon="13.792689289293925"><ele>345.3333333333333</ele><time>2026-04-27T17:07:42Z</time></trkpt><trkpt lat="42.26413782446171" lon="13.792932717533729"><ele>344.6666666666667</ele><time>2026-04-27T17:07:43Z</time></trkpt><trkpt lat="42.26405960292261" lon="13.793169268040575"><ele>344.0</ele><time>2026-04-27T17:07:44Z</time></trkpt><trkpt lat="42.26398053357251" lon="13.793410710130566"><ele>344.6666666666667</ele><time>2026-04-27T17:07:44.999Z</time></trkpt><trkpt lat="42.26390058052576" lon="13.793649832103167"><ele>345.3333333333333</ele><time>2026-04-27T17:07:45.999Z</time></trkpt><trkpt lat="42.263821313569885" lon="13.793882571928233"><ele>346.0</ele><time>2026-04-27T17:07:46.999Z</time></trkpt><trkpt lat="42.26374792479115" lon="13.794098052515348"><ele>346.0</ele><time>2026-04-27T17:07:47.999Z</time></trkpt><trkpt lat="42.26367923055957" lon="13.794290856008823"><ele>346.0</ele><time>2026-04-27T17:07:48.999Z</time></trkpt><trkpt lat="42.263596154845345" lon="13.794465540398926"><ele>346.0</ele><time>2026-04-27T17:07:49.999Z</time></trkpt><trkpt lat="42.2634905405335" lon="13.794646908708724"><ele>344.66666666666663</ele><time>2026-04-27T17:07:50.999Z</time></trkpt><trkpt lat="42.26337521978151" lon="13.794826551705054"><ele>343.3333333333333</ele><time>2026-04-27T17:07:51.999Z</time></trkpt><trkpt lat="42.2632557468632" lon="13.795016909300154"><ele>342.0</ele><time>2026-04-27T17:07:52.999Z</time></trkpt><trkpt lat="42.2631378643472" lon="13.795214435704182"><ele>343.3333333333333</ele><time>2026-04-27T17:07:53.999Z</time></trkpt><trkpt lat="42.263022641849496" lon="13.795416175150828"><ele>344.66666666666663</ele><time>2026-04-27T17:07:54.999Z</time></trkpt><trkpt lat="42.26290471725703" lon="13.795609525756838"><ele>346.0</ele><time>2026-04-27T17:07:55.999Z</time></trkpt><trkpt lat="42.26279959197444" lon="13.795782173698289"><ele>346.0</ele><time>2026-04-27T17:07:56.999Z</time></trkpt><trkpt lat="42.2627165659098" lon="13.79592290760569"><ele>346.0</ele><time>2026-04-27T17:07:57.999Z</time></trkpt><trkpt lat="42.26265189217816" lon="13.796039822704715"><ele>346.0</ele><time>2026-04-27T17:07:58.999Z</time></trkpt><trkpt lat="42.26259953772697" lon="13.796138330900169"><ele>346.0</ele><time>2026-04-27T17:07:59.999Z</time></trkpt><trkpt lat="42.26255554659641" lon="13.796231522707343"><ele>346.0</ele><time>2026-04-27T17:08:01.999Z</time></trkpt><trkpt lat="42.26268141787788" lon="13.79634592660428"><ele>345.6</ele><time>2026-04-27T17:08:04.999Z</time></trkpt><trkpt lat="42.26276314807278" lon="13.796336677865138"><ele>345.20000000000005</ele><time>2026-04-27T17:08:05.999Z</time></trkpt><trkpt lat="42.2628408830619" lon="13.796334324019691"><ele>344.79999999999995</ele><time>2026-04-27T17:08:06.999Z</time></trkpt><trkpt lat="42.262933232353454" lon="13.796368468464594"><ele>344.4</ele><time>2026-04-27T17:08:07.999Z</time></trkpt><trkpt lat="42.26302542995257" lon="13.79636142859022"><ele>344.0</ele><time>2026-04-27T17:08:08.999Z</time></trkpt><trkpt lat="42.263139503656674" lon="13.796387694074658"><ele>342.75</ele><time>2026-04-27T17:08:09.999Z</time></trkpt><trkpt lat="42.26326019412743" lon="13.796415261456659"><ele>341.5</ele><time>2026-04-27T17:08:10.999Z</time></trkpt><trkpt lat="42.26337953908654" lon="13.796442628593027"><ele>340.25</ele><time>2026-04-27T17:08:11.999Z</time></trkpt><trkpt lat="42.263509715578415" lon="13.796471220761397"><ele>339.0</ele><time>2026-04-27T17:08:12.999Z</time></trkpt><trkpt lat="42.26364821174522" lon="13.796496138369783"><ele>339.0</ele><time>2026-04-27T17:08:13.999Z</time></trkpt><trkpt lat="42.26379081458482" lon="13.796520929397463"><ele>339.0</ele><time>2026-04-27T17:08:14.999Z</time></trkpt><trkpt lat="42.2639355671095" lon="13.79655298359766"><ele>339.0</ele><time>2026-04-27T17:08:15.999Z</time></trkpt><trkpt lat="42.26407868201893" lon="13.796585118741413"><ele>339.0</ele><time>2026-04-27T17:08:16.999Z</time></trkpt><trkpt lat="42.264209556813434" lon="13.796623171248973"><ele>338.0</ele><time>2026-04-27T17:08:17.999Z</time></trkpt><trkpt lat="42.26432933577371" lon="13.796682086476615"><ele>337.0</ele><time>2026-04-27T17:08:18.999Z</time></trkpt><trkpt lat="42.26444312257326" lon="13.79675784995678"><ele>336.0</ele><time>2026-04-27T17:08:19.999Z</time></trkpt><trkpt lat="42.26455132095399" lon="13.796876004065318"><ele>335.0</ele><time>2026-04-27T17:08:20.999Z</time></trkpt><trkpt lat="42.264637749013964" lon="13.797007902814197"><ele>333.25</ele><time>2026-04-27T17:08:21.999Z</time></trkpt><trkpt lat="42.26471914350959" lon="13.79714080692021"><ele>331.5</ele><time>2026-04-27T17:08:22.999Z</time></trkpt><trkpt lat="42.26478477284397" lon="13.797281924266674"><ele>329.75</ele><time>2026-04-27T17:08:23.999Z</time></trkpt><trkpt lat="42.26480672105926" lon="13.797459610564275"><ele>328.0</ele><time>2026-04-27T17:08:24.999Z</time></trkpt><trkpt lat="42.26482868835954" lon="13.797647875062234"><ele>327.5</ele><time>2026-04-27T17:08:25.999Z</time></trkpt><trkpt lat="42.264849567905884" lon="13.797853608553647"><ele>327.0</ele><time>2026-04-27T17:08:26.999Z</time></trkpt><trkpt lat="42.26486871014583" lon="13.798060018629656"><ele>326.5</ele><time>2026-04-27T17:08:27.999Z</time></trkpt><trkpt lat="42.26488833460635" lon="13.798248499822902"><ele>326.0</ele><time>2026-04-27T17:08:28.999Z</time></trkpt><trkpt lat="42.26492258278743" lon="13.798431303260061"><ele>326.75</ele><time>2026-04-27T17:08:29.999Z</time></trkpt><trkpt lat="42.264987835234685" lon="13.798608651286662"><ele>327.5</ele><time>2026-04-27T17:08:30.999Z</time></trkpt><trkpt lat="42.26505117398877" lon="13.798786067821883"><ele>328.25</ele><time>2026-04-27T17:08:31.999Z</time></trkpt><trkpt lat="42.26511470932888" lon="13.798963897933907"><ele>329.0</ele><time>2026-04-27T17:08:32.999Z</time></trkpt><trkpt lat="42.26517993479661" lon="13.799147427991029"><ele>329.0</ele><time>2026-04-27T17:08:33.999Z</time></trkpt><trkpt lat="42.26524589390178" lon="13.79928427976208"><ele>329.0</ele><time>2026-04-27T17:08:34.999Z</time></trkpt><trkpt lat="42.265263840505725" lon="13.799385361115894"><ele>329.0</ele><time>2026-04-27T17:08:35.999Z</time></trkpt><trkpt lat="42.26527606201922" lon="13.799498864208077"><ele>329.0</ele><time>2026-04-27T17:08:37.999Z</time></trkpt><trkpt lat="42.26553215921536" lon="13.799647322764304"><ele>329.0</ele><time>2026-04-27T17:08:40.999Z</time></trkpt><trkpt lat="42.265194415583935" lon="13.799178395756812"><ele>329.0</ele><time>2026-04-27T17:08:43.999Z</time></trkpt><trkpt lat="42.26512022118729" lon="13.799202006058092"><ele>329.0</ele><time>2026-04-27T17:08:45.999Z</time></trkpt><trkpt lat="42.26505729732854" lon="13.799269335045302"><ele>329.0</ele><time>2026-04-27T17:08:46.998Z</time></trkpt><trkpt lat="42.26497057191005" lon="13.799337621784435"><ele>329.0</ele><time>2026-04-27T17:08:47.998Z</time></trkpt><trkpt lat="42.26487395409785" lon="13.799358245389131"><ele>329.0</ele><time>2026-04-27T17:08:48.998Z</time></trkpt><trkpt lat="42.26476338629178" lon="13.799331039513381"><ele>329.5</ele><time>2026-04-27T17:08:49.998Z</time></trkpt><trkpt lat="42.26465651116376" lon="13.799305042270925"><ele>330.0</ele><time>2026-04-27T17:08:50.998Z</time></trkpt><trkpt lat="42.264546296247886" lon="13.799329026762045"><ele>330.5</ele><time>2026-04-27T17:08:51.998Z</time></trkpt><trkpt lat="42.26443142358717" lon="13.799386397431341"><ele>331.0</ele><time>2026-04-27T17:08:52.998Z</time></trkpt><trkpt lat="42.26431981206603" lon="13.7994911275712"><ele>331.75</ele><time>2026-04-27T17:08:53.998Z</time></trkpt><trkpt lat="42.26422159115401" lon="13.799634341035004"><ele>332.5</ele><time>2026-04-27T17:08:54.998Z</time></trkpt><trkpt lat="42.26411194658585" lon="13.799755762278565"><ele>333.25</ele><time>2026-04-27T17:08:55.998Z</time></trkpt><trkpt lat="42.26398932031926" lon="13.799829382824923"><ele>334.0</ele><time>2026-04-27T17:08:56.998Z</time></trkpt><trkpt lat="42.263862443988856" lon="13.79990637138114"><ele>334.0</ele><time>2026-04-27T17:08:57.998Z</time></trkpt><trkpt lat="42.263725959431625" lon="13.799957391234745"><ele>334.0</ele><time>2026-04-27T17:08:58.998Z</time></trkpt><trkpt lat="42.263620903814925" lon="13.800026854479125"><ele>334.0</ele><time>2026-04-27T17:08:59.998Z</time></trkpt><trkpt lat="42.26352307784772" lon="13.800085905569526"><ele>334.0</ele><time>2026-04-27T17:09:00.998Z</time></trkpt><trkpt lat="42.263410570583545" lon="13.80009975008111"><ele>334.0</ele><time>2026-04-27T17:09:01.998Z</time></trkpt><trkpt lat="42.26331095864116" lon="13.800116085642834"><ele>334.0</ele><time>2026-04-27T17:09:02.998Z</time></trkpt><trkpt lat="42.26321807559752" lon="13.800074565219573"><ele>334.0</ele><time>2026-04-27T17:09:03.998Z</time></trkpt><trkpt lat="42.26314107687302" lon="13.800059779681408"><ele>334.0</ele><time>2026-04-27T17:09:04.998Z</time></trkpt><trkpt lat="42.263062418602146" lon="13.80003649831948"><ele>334.0</ele><time>2026-04-27T17:09:05.998Z</time></trkpt><trkpt lat="42.2629875623273" lon="13.80001853308167"><ele>334.0</ele><time>2026-04-27T17:09:06.998Z</time></trkpt><trkpt lat="42.262918852120315" lon="13.79999212117681"><ele>333.79999999999995</ele><time>2026-04-27T17:09:07.998Z</time></trkpt><trkpt lat="42.2628592681268" lon="13.799953693991954"><ele>333.59999999999997</ele><time>2026-04-27T17:09:08.998Z</time></trkpt><trkpt lat="42.26279751842176" lon="13.799917740187539"><ele>333.4</ele><time>2026-04-27T17:09:09.998Z</time></trkpt><trkpt lat="42.26268493433386" lon="13.799870293596578"><ele>333.2</ele><time>2026-04-27T17:09:11.998Z</time></trkpt><trkpt lat="42.26257637621142" lon="13.799855216906085"><ele>333.0</ele><time>2026-04-27T17:09:13.998Z</time></trkpt><trkpt lat="42.26247712257194" lon="13.79984272143172"><ele>333.0</ele><time>2026-04-27T17:09:15.998Z</time></trkpt><trkpt lat="42.26234061117526" lon="13.799827998348492"><ele>333.0</ele><time>2026-04-27T17:09:18Z</time></trkpt><trkpt lat="42.262264359596806" lon="13.79981928007931"><ele>333.0</ele><time>2026-04-27T17:09:19Z</time></trkpt><trkpt lat="42.26219584451734" lon="13.799810973972546"><ele>333.0</ele><time>2026-04-27T17:09:20Z</time></trkpt><trkpt lat="42.26213051663054" lon="13.799803188738583"><ele>333.0</ele><time>2026-04-27T17:09:21Z</time></trkpt><trkpt lat="42.26201323575973" lon="13.799793869082563"><ele>332.79999999999995</ele><time>2026-04-27T17:09:23Z</time></trkpt><trkpt lat="42.26189790089982" lon="13.799800442994918"><ele>332.6</ele><time>2026-04-27T17:09:25Z</time></trkpt><trkpt lat="42.26183480695331" lon="13.79981217304009"><ele>332.4</ele><time>2026-04-27T17:09:26Z</time></trkpt><trkpt lat="42.26175805610621" lon="13.799862884051107"><ele>332.20000000000005</ele><time>2026-04-27T17:09:27Z</time></trkpt><trkpt lat="42.261659719291465" lon="13.799932480282235"><ele>332.0</ele><time>2026-04-27T17:09:28Z</time></trkpt><trkpt lat="42.26156716321882" lon="13.800028432051327"><ele>332.0</ele><time>2026-04-27T17:09:29Z</time></trkpt><trkpt lat="42.261460316220685" lon="13.800112329036214"><ele>332.0</ele><time>2026-04-27T17:09:30Z</time></trkpt><trkpt lat="42.2613530469879" lon="13.800199802440204"><ele>332.0</ele><time>2026-04-27T17:09:31Z</time></trkpt><trkpt lat="42.26124076262477" lon="13.80029280188969"><ele>332.0</ele><time>2026-04-27T17:09:32Z</time></trkpt><trkpt lat="42.26113167515208" lon="13.800407143345344"><ele>332.0</ele><time>2026-04-27T17:09:33Z</time></trkpt><trkpt lat="42.26103927793397" lon="13.800549104506967"><ele>332.0</ele><time>2026-04-27T17:09:34Z</time></trkpt><trkpt lat="42.26093411790176" lon="13.800691224555013"><ele>332.0</ele><time>2026-04-27T17:09:35Z</time></trkpt><trkpt lat="42.26083336166338" lon="13.800827203413382"><ele>332.0</ele><time>2026-04-27T17:09:36Z</time></trkpt><trkpt lat="42.260730964158874" lon="13.800926044103246"><ele>331.75</ele><time>2026-04-27T17:09:37Z</time></trkpt><trkpt lat="42.26061525178549" lon="13.801036082448707"><ele>331.5</ele><time>2026-04-27T17:09:38Z</time></trkpt><trkpt lat="42.260483168640604" lon="13.801127231191003"><ele>331.25</ele><time>2026-04-27T17:09:39Z</time></trkpt><trkpt lat="42.260337016944604" lon="13.801205476389372"><ele>331.0</ele><time>2026-04-27T17:09:40Z</time></trkpt><trkpt lat="42.260212945692835" lon="13.801334518912165"><ele>331.0</ele><time>2026-04-27T17:09:41Z</time></trkpt><trkpt lat="42.260104318555264" lon="13.80146253370615"><ele>331.0</ele><time>2026-04-27T17:09:42Z</time></trkpt><trkpt lat="42.26001640879866" lon="13.801615237975955"><ele>331.0</ele><time>2026-04-27T17:09:43Z</time></trkpt><trkpt lat="42.25991814895587" lon="13.801763421414421"><ele>331.0</ele><time>2026-04-27T17:09:44Z</time></trkpt><trkpt lat="42.259825969711315" lon="13.801909887854965"><ele>332.0</ele><time>2026-04-27T17:09:45Z</time></trkpt><trkpt lat="42.259714051526046" lon="13.802032240031453"><ele>333.0</ele><time>2026-04-27T17:09:46Z</time></trkpt><trkpt lat="42.259600076153085" lon="13.80214186916098"><ele>334.0</ele><time>2026-04-27T17:09:47Z</time></trkpt><trkpt lat="42.25947920268529" lon="13.80222350910473"><ele>335.0</ele><time>2026-04-27T17:09:47.999Z</time></trkpt><trkpt lat="42.259355541501975" lon="13.802301237845104"><ele>335.0</ele><time>2026-04-27T17:09:48.999Z</time></trkpt><trkpt lat="42.25924090633862" lon="13.802349083039246"><ele>335.0</ele><time>2026-04-27T17:09:49.999Z</time></trkpt><trkpt lat="42.25912496073749" lon="13.802365678899227"><ele>335.0</ele><time>2026-04-27T17:09:50.999Z</time></trkpt><trkpt lat="42.25901269913739" lon="13.80235329982891"><ele>335.0</ele><time>2026-04-27T17:09:51.999Z</time></trkpt><trkpt lat="42.25889812167402" lon="13.802323770466"><ele>335.75</ele><time>2026-04-27T17:09:52.999Z</time></trkpt><trkpt lat="42.258771103612084" lon="13.802280348070454"><ele>336.5</ele><time>2026-04-27T17:09:53.999Z</time></trkpt><trkpt lat="42.258630664323945" lon="13.802219741455154"><ele>337.25</ele><time>2026-04-27T17:09:54.999Z</time></trkpt><trkpt lat="42.258486280978325" lon="13.802155881033782"><ele>338.0</ele><time>2026-04-27T17:09:55.999Z</time></trkpt><trkpt lat="42.258350490682666" lon="13.802096328226085"><ele>338.0</ele><time>2026-04-27T17:09:56.999Z</time></trkpt><trkpt lat="42.25823125022765" lon="13.802042196988847"><ele>338.0</ele><time>2026-04-27T17:09:57.999Z</time></trkpt><trkpt lat="42.258133823257495" lon="13.801953713097193"><ele>338.0</ele><time>2026-04-27T17:09:58.999Z</time></trkpt><trkpt lat="42.258054251298645" lon="13.8018314402965"><ele>338.0</ele><time>2026-04-27T17:09:59.999Z</time></trkpt><trkpt lat="42.25797211093078" lon="13.801678327573205"><ele>337.0</ele><time>2026-04-27T17:10:00.999Z</time></trkpt><trkpt lat="42.25791238259102" lon="13.801515299382524"><ele>336.0</ele><time>2026-04-27T17:10:01.999Z</time></trkpt><trkpt lat="42.25783179192609" lon="13.801359926867331"><ele>335.0</ele><time>2026-04-27T17:10:02.999Z</time></trkpt><trkpt lat="42.257745357913734" lon="13.801253553296911"><ele>334.0</ele><time>2026-04-27T17:10:03.999Z</time></trkpt><trkpt lat="42.257658726030364" lon="13.801199005895478"><ele>334.0</ele><time>2026-04-27T17:10:04.999Z</time></trkpt><trkpt lat="42.25757296775129" lon="13.801147888510327"><ele>334.0</ele><time>2026-04-27T17:10:05.999Z</time></trkpt><trkpt lat="42.25748073040519" lon="13.801137953470295"><ele>334.0</ele><time>2026-04-27T17:10:06.999Z</time></trkpt><trkpt lat="42.25738473654927" lon="13.801183367588147"><ele>334.0</ele><time>2026-04-27T17:10:07.999Z</time></trkpt><trkpt lat="42.25728043392907" lon="13.801273881784423"><ele>334.0</ele><time>2026-04-27T17:10:08.999Z</time></trkpt><trkpt lat="42.257164689977536" lon="13.801368391080992"><ele>334.25</ele><time>2026-04-27T17:10:09.999Z</time></trkpt><trkpt lat="42.25704495342101" lon="13.801479373291615"><ele>334.5</ele><time>2026-04-27T17:10:10.999Z</time></trkpt><trkpt lat="42.25693222643021" lon="13.801607014654724"><ele>334.75</ele><time>2026-04-27T17:10:11.999Z</time></trkpt><trkpt lat="42.25683894242289" lon="13.801744496045309"><ele>335.0</ele><time>2026-04-27T17:10:12.999Z</time></trkpt><trkpt lat="42.2567414130673" lon="13.801890946642667"><ele>335.0</ele><time>2026-04-27T17:10:13.999Z</time></trkpt><trkpt lat="42.25664301040089" lon="13.802036668386375"><ele>335.0</ele><time>2026-04-27T17:10:14.999Z</time></trkpt><trkpt lat="42.25654573618302" lon="13.802160420684903"><ele>335.0</ele><time>2026-04-27T17:10:15.999Z</time></trkpt><trkpt lat="42.25644619505129" lon="13.80225395126818"><ele>335.0</ele><time>2026-04-27T17:10:16.999Z</time></trkpt><trkpt lat="42.25633754889994" lon="13.802321834341651"><ele>333.75</ele><time>2026-04-27T17:10:17.999Z</time></trkpt><trkpt lat="42.25620740979202" lon="13.802373140564068"><ele>332.5</ele><time>2026-04-27T17:10:18.999Z</time></trkpt><trkpt lat="42.25606243692237" lon="13.802421798998157"><ele>331.25</ele><time>2026-04-27T17:10:19.999Z</time></trkpt><trkpt lat="42.25590898886938" lon="13.802466153474338"><ele>330.0</ele><time>2026-04-27T17:10:20.999Z</time></trkpt><trkpt lat="42.255750738053955" lon="13.802512801413469"><ele>328.6666666666667</ele><time>2026-04-27T17:10:21.999Z</time></trkpt><trkpt lat="42.25559774459657" lon="13.802571118466547"><ele>327.33333333333337</ele><time>2026-04-27T17:10:22.999Z</time></trkpt><trkpt lat="42.255453461484066" lon="13.802662972120634"><ele>326.0</ele><time>2026-04-27T17:10:23.999Z</time></trkpt><trkpt lat="42.2553155820855" lon="13.802756926360466"><ele>329.0</ele><time>2026-04-27T17:10:24.999Z</time></trkpt><trkpt lat="42.25517826209808" lon="13.80284125571092"><ele>332.0</ele><time>2026-04-27T17:10:25.999Z</time></trkpt><trkpt lat="42.25503593600077" lon="13.802909176344652"><ele>335.0</ele><time>2026-04-27T17:10:26.999Z</time></trkpt><trkpt lat="42.25488830687854" lon="13.802958345851566"><ele>333.75</ele><time>2026-04-27T17:10:27.999Z</time></trkpt><trkpt lat="42.25476165401952" lon="13.802994347379464"><ele>332.5</ele><time>2026-04-27T17:10:28.999Z</time></trkpt><trkpt lat="42.25463994947944" lon="13.802995886499772"><ele>331.25</ele><time>2026-04-27T17:10:29.999Z</time></trkpt><trkpt lat="42.25451914820388" lon="13.802988137257204"><ele>330.0</ele><time>2026-04-27T17:10:30.999Z</time></trkpt><trkpt lat="42.254386271301854" lon="13.803007888785492"><ele>330.0</ele><time>2026-04-27T17:10:31.999Z</time></trkpt><trkpt lat="42.2542410410179" lon="13.803063553334313"><ele>330.0</ele><time>2026-04-27T17:10:32.999Z</time></trkpt><trkpt lat="42.25408702962828" lon="13.803131841726445"><ele>330.0</ele><time>2026-04-27T17:10:33.999Z</time></trkpt><trkpt lat="42.2539318424731" lon="13.803200916156712"><ele>328.25</ele><time>2026-04-27T17:10:34.999Z</time></trkpt><trkpt lat="42.25378621792481" lon="13.803264581636595"><ele>326.5</ele><time>2026-04-27T17:10:35.999Z</time></trkpt><trkpt lat="42.253659181011045" lon="13.803314158430783"><ele>324.75</ele><time>2026-04-27T17:10:36.999Z</time></trkpt><trkpt lat="42.25352518411889" lon="13.80338810625267"><ele>323.0</ele><time>2026-04-27T17:10:37.999Z</time></trkpt><trkpt lat="42.25340031400947" lon="13.803486084334265"><ele>324.0</ele><time>2026-04-27T17:10:38.999Z</time></trkpt><trkpt lat="42.25326979029087" lon="13.803603422327344"><ele>325.0</ele><time>2026-04-27T17:10:39.999Z</time></trkpt><trkpt lat="42.25314889063569" lon="13.803718414037771"><ele>326.0</ele><time>2026-04-27T17:10:40.999Z</time></trkpt><trkpt lat="42.253035132340415" lon="13.803819859925188"><ele>327.0</ele><time>2026-04-27T17:10:41.999Z</time></trkpt><trkpt lat="42.252915515517536" lon="13.803903218545317"><ele>327.0</ele><time>2026-04-27T17:10:42.999Z</time></trkpt><trkpt lat="42.25277695020123" lon="13.803966832282699"><ele>327.0</ele><time>2026-04-27T17:10:43.999Z</time></trkpt><trkpt lat="42.252629289640694" lon="13.804011127568126"><ele>327.0</ele><time>2026-04-27T17:10:44.999Z</time></trkpt><trkpt lat="42.25249671383403" lon="13.804040852950804"><ele>327.0</ele><time>2026-04-27T17:10:45.999Z</time></trkpt><trkpt lat="42.252378694094816" lon="13.804062223465657"><ele>329.5</ele><time>2026-04-27T17:10:46.999Z</time></trkpt><trkpt lat="42.25226436285642" lon="13.804069594307663"><ele>332.0</ele><time>2026-04-27T17:10:47.999Z</time></trkpt><trkpt lat="42.25214622495667" lon="13.80404313958086"><ele>334.5</ele><time>2026-04-27T17:10:48.998Z</time></trkpt><trkpt lat="42.252020982543186" lon="13.804001923190196"><ele>337.0</ele><time>2026-04-27T17:10:49.998Z</time></trkpt><trkpt lat="42.251902168210044" lon="13.80394411804878"><ele>337.0</ele><time>2026-04-27T17:10:50.998Z</time></trkpt><trkpt lat="42.25179754923154" lon="13.803835375400942"><ele>337.0</ele><time>2026-04-27T17:10:51.998Z</time></trkpt><trkpt lat="42.25173167317443" lon="13.80371213279693"><ele>337.0</ele><time>2026-04-27T17:10:52.998Z</time></trkpt><trkpt lat="42.251667198979106" lon="13.803628354853029"><ele>337.0</ele><time>2026-04-27T17:10:53.998Z</time></trkpt><trkpt lat="42.25159027797876" lon="13.80355519233169"><ele>337.0</ele><time>2026-04-27T17:10:54.998Z</time></trkpt><trkpt lat="42.2514890751752" lon="13.803513550136861"><ele>335.25</ele><time>2026-04-27T17:10:55.998Z</time></trkpt><trkpt lat="42.25137686019602" lon="13.803463929376658"><ele>333.5</ele><time>2026-04-27T17:10:56.998Z</time></trkpt><trkpt lat="42.251257977846834" lon="13.803392857984006"><ele>331.75</ele><time>2026-04-27T17:10:57.998Z</time></trkpt><trkpt lat="42.25112577661561" lon="13.803343989185114"><ele>330.0</ele><time>2026-04-27T17:10:58.998Z</time></trkpt><trkpt lat="42.25099199808421" lon="13.803300984224057"><ele>330.0</ele><time>2026-04-27T17:10:59.998Z</time></trkpt><trkpt lat="42.25086152401306" lon="13.803285990025772"><ele>330.0</ele><time>2026-04-27T17:11:00.998Z</time></trkpt><trkpt lat="42.250725526340005" lon="13.803328081197549"><ele>330.0</ele><time>2026-04-27T17:11:01.998Z</time></trkpt><trkpt lat="42.250578968357324" lon="13.803354563474274"><ele>330.0</ele><time>2026-04-27T17:11:02.998Z</time></trkpt><trkpt lat="42.25043953040454" lon="13.803429754950963"><ele>332.0</ele><time>2026-04-27T17:11:03.998Z</time></trkpt><trkpt lat="42.25030159368321" lon="13.803518802260644"><ele>334.0</ele><time>2026-04-27T17:11:04.998Z</time></trkpt><trkpt lat="42.25016659336252" lon="13.803634089201523"><ele>336.0</ele><time>2026-04-27T17:11:05.998Z</time></trkpt><trkpt lat="42.25003168434816" lon="13.803751497957641"><ele>336.0</ele><time>2026-04-27T17:11:06.998Z</time></trkpt><trkpt lat="42.24990360102619" lon="13.803864789832113"><ele>336.0</ele><time>2026-04-27T17:11:07.998Z</time></trkpt><trkpt lat="42.24980243125509" lon="13.804005824103173"><ele>336.0</ele><time>2026-04-27T17:11:08.998Z</time></trkpt><trkpt lat="42.24971562014653" lon="13.804158603388462"><ele>336.0</ele><time>2026-04-27T17:11:09.998Z</time></trkpt><trkpt lat="42.249630724920024" lon="13.804328884338252"><ele>336.25</ele><time>2026-04-27T17:11:10.998Z</time></trkpt><trkpt lat="42.24953013588609" lon="13.804473153918776"><ele>336.5</ele><time>2026-04-27T17:11:11.998Z</time></trkpt><trkpt lat="42.249454266980216" lon="13.804603664515794"><ele>336.75</ele><time>2026-04-27T17:11:12.998Z</time></trkpt><trkpt lat="42.2494061263581" lon="13.804740500213725"><ele>337.0</ele><time>2026-04-27T17:11:13.998Z</time></trkpt><trkpt lat="42.24930026102463" lon="13.804842002917908"><ele>337.0</ele><time>2026-04-27T17:11:14.998Z</time></trkpt><trkpt lat="42.24919512735244" lon="13.804965608111365"><ele>337.0</ele><time>2026-04-27T17:11:15.998Z</time></trkpt><trkpt lat="42.249092473084815" lon="13.80506585334383"><ele>337.0</ele><time>2026-04-27T17:11:16.998Z</time></trkpt><trkpt lat="42.24899428512311" lon="13.805125645877974"><ele>337.0</ele><time>2026-04-27T17:11:17.998Z</time></trkpt><trkpt lat="42.24889641433723" lon="13.805156063468864"><ele>336.5</ele><time>2026-04-27T17:11:18.998Z</time></trkpt><trkpt lat="42.24877555384422" lon="13.805180295590892"><ele>336.0</ele><time>2026-04-27T17:11:19.998Z</time></trkpt><trkpt lat="42.24864859606021" lon="13.805217535285832"><ele>335.5</ele><time>2026-04-27T17:11:20.998Z</time></trkpt><trkpt lat="42.24853233182885" lon="13.80528059564205"><ele>335.0</ele><time>2026-04-27T17:11:21.998Z</time></trkpt><trkpt lat="42.24841956394983" lon="13.805367784172404"><ele>335.0</ele><time>2026-04-27T17:11:22.998Z</time></trkpt><trkpt lat="42.248314008315546" lon="13.805489933435368"><ele>335.0</ele><time>2026-04-27T17:11:24Z</time></trkpt><trkpt lat="42.248262255373675" lon="13.805609462551937"><ele>335.0</ele><time>2026-04-27T17:11:25Z</time></trkpt><trkpt lat="42.24822516023032" lon="13.805688761752707"><ele>335.0</ele><time>2026-04-27T17:11:26Z</time></trkpt><trkpt lat="42.24816578529004" lon="13.805738503058928"><ele>335.0</ele><time>2026-04-27T17:11:27Z</time></trkpt><trkpt lat="42.24811040741707" lon="13.805879962440022"><ele>333.6</ele><time>2026-04-27T17:11:29Z</time></trkpt><trkpt lat="42.24807151711555" lon="13.805954459954062"><ele>332.2</ele><time>2026-04-27T17:11:30Z</time></trkpt><trkpt lat="42.248063862579144" lon="13.806081389597328"><ele>330.79999999999995</ele><time>2026-04-27T17:11:31Z</time></trkpt><trkpt lat="42.24800270208722" lon="13.806208245756727"><ele>329.4</ele><time>2026-04-27T17:11:32Z</time></trkpt><trkpt lat="42.247926835351436" lon="13.806352768384091"><ele>328.0</ele><time>2026-04-27T17:11:33Z</time></trkpt><trkpt lat="42.24785301055739" lon="13.806476325730117"><ele>328.0</ele><time>2026-04-27T17:11:34Z</time></trkpt><trkpt lat="42.24776615012253" lon="13.806589128547209"><ele>328.0</ele><time>2026-04-27T17:11:35Z</time></trkpt><trkpt lat="42.24773089311481" lon="13.806756733568463"><ele>328.0</ele><time>2026-04-27T17:11:36Z</time></trkpt><trkpt lat="42.24771274858396" lon="13.806949843318629"><ele>328.0</ele><time>2026-04-27T17:11:37Z</time></trkpt><trkpt lat="42.24768817492444" lon="13.807106575639832"><ele>328.0</ele><time>2026-04-27T17:11:38Z</time></trkpt><trkpt lat="42.24765633555502" lon="13.807217511596564"><ele>328.0</ele><time>2026-04-27T17:11:39Z</time></trkpt><trkpt lat="42.24761711737195" lon="13.807294308112974"><ele>328.0</ele><time>2026-04-27T17:11:40Z</time></trkpt><trkpt lat="42.24755429659462" lon="13.807368055560712"><ele>328.0</ele><time>2026-04-27T17:11:41Z</time></trkpt><trkpt lat="42.247459004174985" lon="13.80744755953548"><ele>328.0</ele><time>2026-04-27T17:11:42Z</time></trkpt><trkpt lat="42.24734491239465" lon="13.807531493869352"><ele>327.25</ele><time>2026-04-27T17:11:43Z</time></trkpt><trkpt lat="42.247234003023486" lon="13.807623245621496"><ele>326.5</ele><time>2026-04-27T17:11:44Z</time></trkpt><trkpt lat="42.24713237399039" lon="13.807718473710525"><ele>325.75</ele><time>2026-04-27T17:11:45Z</time></trkpt><trkpt lat="42.247015981759574" lon="13.80784930658774"><ele>325.0</ele><time>2026-04-27T17:11:46Z</time></trkpt><trkpt lat="42.246926375111336" lon="13.807979916762003"><ele>325.0</ele><time>2026-04-27T17:11:47Z</time></trkpt><trkpt lat="42.24685798778457" lon="13.808114981098726"><ele>325.0</ele><time>2026-04-27T17:11:48Z</time></trkpt><trkpt lat="42.24681829975873" lon="13.808258845706336"><ele>325.0</ele><time>2026-04-27T17:11:49Z</time></trkpt><trkpt lat="42.246795317866166" lon="13.80840341630108"><ele>325.0</ele><time>2026-04-27T17:11:50Z</time></trkpt><trkpt lat="42.246761716385855" lon="13.808569476229987"><ele>324.66666666666663</ele><time>2026-04-27T17:11:50.999Z</time></trkpt><trkpt lat="42.24672515238009" lon="13.808747754254439"><ele>324.3333333333333</ele><time>2026-04-27T17:11:51.999Z</time></trkpt><trkpt lat="42.246670342876136" lon="13.808973172789274"><ele>324.0</ele><time>2026-04-27T17:11:52.999Z</time></trkpt><trkpt lat="42.24660916078076" lon="13.809185713472015"><ele>324.3333333333333</ele><time>2026-04-27T17:11:53.999Z</time></trkpt><trkpt lat="42.24654985221777" lon="13.809390508461375"><ele>324.66666666666663</ele><time>2026-04-27T17:11:54.999Z</time></trkpt><trkpt lat="42.24649346987488" lon="13.809600015464536"><ele>325.0</ele><time>2026-04-27T17:11:55.999Z</time></trkpt><trkpt lat="42.2464331739526" lon="13.809805725093442"><ele>325.0</ele><time>2026-04-27T17:11:56.999Z</time></trkpt><trkpt lat="42.246363388051506" lon="13.809991137918837"><ele>325.0</ele><time>2026-04-27T17:11:57.999Z</time></trkpt><trkpt lat="42.24630029260526" lon="13.810120712961766"><ele>325.0</ele><time>2026-04-27T17:11:58.999Z</time></trkpt><trkpt lat="42.24621928009973" lon="13.810258716420977"><ele>325.0</ele><time>2026-04-27T17:11:59.999Z</time></trkpt><trkpt lat="42.24613481616953" lon="13.810404693259821"><ele>325.0</ele><time>2026-04-27T17:12:00.999Z</time></trkpt><trkpt lat="42.24603082021546" lon="13.81052514761626"><ele>325.0</ele><time>2026-04-27T17:12:01.999Z</time></trkpt><trkpt lat="42.2459204786745" lon="13.810652087785272"><ele>325.0</ele><time>2026-04-27T17:12:02.999Z</time></trkpt><trkpt lat="42.245811084199204" lon="13.810791505186721"><ele>325.0</ele><time>2026-04-27T17:12:03.999Z</time></trkpt><trkpt lat="42.24568986205523" lon="13.810916848079868"><ele>324.66666666666663</ele><time>2026-04-27T17:12:04.999Z</time></trkpt><trkpt lat="42.24557400215934" lon="13.811048333186799"><ele>324.3333333333333</ele><time>2026-04-27T17:12:05.999Z</time></trkpt><trkpt lat="42.24544631364228" lon="13.811172777758014"><ele>324.0</ele><time>2026-04-27T17:12:06.999Z</time></trkpt><trkpt lat="42.24532438141751" lon="13.811291041586694"><ele>324.0</ele><time>2026-04-27T17:12:07.999Z</time></trkpt><trkpt lat="42.24522537599585" lon="13.811398167021867"><ele>324.0</ele><time>2026-04-27T17:12:08.999Z</time></trkpt><trkpt lat="42.24514409652937" lon="13.811516098575984"><ele>324.0</ele><time>2026-04-27T17:12:09.999Z</time></trkpt><trkpt lat="42.2450769191114" lon="13.81165217301561"><ele>324.0</ele><time>2026-04-27T17:12:10.999Z</time></trkpt><trkpt lat="42.2450362572268" lon="13.811828613654962"><ele>325.0</ele><time>2026-04-27T17:12:11.999Z</time></trkpt><trkpt lat="42.24502302152536" lon="13.811993894898718"><ele>326.0</ele><time>2026-04-27T17:12:12.999Z</time></trkpt><trkpt lat="42.244989004653114" lon="13.812165391077786"><ele>327.0</ele><time>2026-04-27T17:12:13.999Z</time></trkpt><trkpt lat="42.24494098163377" lon="13.812290090865753"><ele>328.0</ele><time>2026-04-27T17:12:14.999Z</time></trkpt><trkpt lat="42.24488119045444" lon="13.812393269064197"><ele>326.25</ele><time>2026-04-27T17:12:15.999Z</time></trkpt><trkpt lat="42.2447890347275" lon="13.81246611414674"><ele>324.5</ele><time>2026-04-27T17:12:16.999Z</time></trkpt><trkpt lat="42.24467714650828" lon="13.812539917149062"><ele>322.75</ele><time>2026-04-27T17:12:17.999Z</time></trkpt><trkpt lat="42.244555337073805" lon="13.812598948514296"><ele>321.0</ele><time>2026-04-27T17:12:18.999Z</time></trkpt><trkpt lat="42.244427295959646" lon="13.812649225382021"><ele>322.0</ele><time>2026-04-27T17:12:19.999Z</time></trkpt><trkpt lat="42.244308610983026" lon="13.812695084278438"><ele>323.0</ele><time>2026-04-27T17:12:20.999Z</time></trkpt><trkpt lat="42.24418818011333" lon="13.812742339212289"><ele>324.0</ele><time>2026-04-27T17:12:21.999Z</time></trkpt><trkpt lat="42.24406086766833" lon="13.812792938764975"><ele>325.0</ele><time>2026-04-27T17:12:22.999Z</time></trkpt><trkpt lat="42.24392209543812" lon="13.812852221805699"><ele>325.0</ele><time>2026-04-27T17:12:23.999Z</time></trkpt><trkpt lat="42.24378239594798" lon="13.812892968837607"><ele>325.0</ele><time>2026-04-27T17:12:24.999Z</time></trkpt><trkpt lat="42.2436556263624" lon="13.812941723221112"><ele>325.0</ele><time>2026-04-27T17:12:25.999Z</time></trkpt><trkpt lat="42.243553835875616" lon="13.813018205022512"><ele>325.0</ele><time>2026-04-27T17:12:26.999Z</time></trkpt><trkpt lat="42.24346800586998" lon="13.813122116794515"><ele>325.0</ele><time>2026-04-27T17:12:27.999Z</time></trkpt><trkpt lat="42.24337742355819" lon="13.813218274535073"><ele>325.0</ele><time>2026-04-27T17:12:28.999Z</time></trkpt><trkpt lat="42.243272206470834" lon="13.813349200163573"><ele>325.0</ele><time>2026-04-27T17:12:29.999Z</time></trkpt><trkpt lat="42.2431691537909" lon="13.81349359673871"><ele>325.0</ele><time>2026-04-27T17:12:30.999Z</time></trkpt><trkpt lat="42.243074425653205" lon="13.813616593102658"><ele>323.75</ele><time>2026-04-27T17:12:31.999Z</time></trkpt><trkpt lat="42.24297154944664" lon="13.813741049460342"><ele>322.5</ele><time>2026-04-27T17:12:32.999Z</time></trkpt><trkpt lat="42.24285670227703" lon="13.813871848115252"><ele>321.25</ele><time>2026-04-27T17:12:33.999Z</time></trkpt><trkpt lat="42.24274314555965" lon="13.813994204349578"><ele>320.0</ele><time>2026-04-27T17:12:34.999Z</time></trkpt><trkpt lat="42.24262363841882" lon="13.814117622468501"><ele>320.0</ele><time>2026-04-27T17:12:35.999Z</time></trkpt><trkpt lat="42.242496467878006" lon="13.814243390227949"><ele>320.0</ele><time>2026-04-27T17:12:36.999Z</time></trkpt><trkpt lat="42.24237669907137" lon="13.814355587233129"><ele>320.0</ele><time>2026-04-27T17:12:37.999Z</time></trkpt><trkpt lat="42.24226986483615" lon="13.814437910874302"><ele>320.0</ele><time>2026-04-27T17:12:38.999Z</time></trkpt><trkpt lat="42.24219113592382" lon="13.814458964932431"><ele>319.83333333333337</ele><time>2026-04-27T17:12:39.999Z</time></trkpt><trkpt lat="42.24211701762889" lon="13.814478683438592"><ele>319.6666666666667</ele><time>2026-04-27T17:12:40.999Z</time></trkpt><trkpt lat="42.24204926670274" lon="13.814515318627873"><ele>319.5</ele><time>2026-04-27T17:12:41.999Z</time></trkpt><trkpt lat="42.241986258944564" lon="13.81453940530734"><ele>319.3333333333333</ele><time>2026-04-27T17:12:42.999Z</time></trkpt><trkpt lat="42.24193524124521" lon="13.81460949043253"><ele>319.16666666666663</ele><time>2026-04-27T17:12:43.999Z</time></trkpt><trkpt lat="42.24189163250459" lon="13.814707471910044"><ele>319.0</ele><time>2026-04-27T17:12:44.999Z</time></trkpt><trkpt lat="42.24190838530478" lon="13.81481915933895"><ele>319.0</ele><time>2026-04-27T17:12:45.999Z</time></trkpt><trkpt lat="42.241900300050865" lon="13.81496811620448"><ele>319.0</ele><time>2026-04-27T17:12:46.999Z</time></trkpt><trkpt lat="42.241784203354385" lon="13.815098276337729"><ele>319.0</ele><time>2026-04-27T17:12:47.999Z</time></trkpt><trkpt lat="42.24170936629985" lon="13.81524199121914"><ele>319.0</ele><time>2026-04-27T17:12:48.999Z</time></trkpt><trkpt lat="42.24165403925469" lon="13.81542682160092"><ele>319.4</ele><time>2026-04-27T17:12:49.999Z</time></trkpt><trkpt lat="42.24163466166349" lon="13.815600796077891"><ele>319.79999999999995</ele><time>2026-04-27T17:12:50.999Z</time></trkpt><trkpt lat="42.24163773675779" lon="13.815742787226455"><ele>320.20000000000005</ele><time>2026-04-27T17:12:51.999Z</time></trkpt><trkpt lat="42.241620415202895" lon="13.815860950313535"><ele>320.6</ele><time>2026-04-27T17:12:52.998Z</time></trkpt><trkpt lat="42.241569009942445" lon="13.815920840376128"><ele>321.0</ele><time>2026-04-27T17:12:53.998Z</time></trkpt><trkpt lat="42.24149178863757" lon="13.816019241385673"><ele>323.0</ele><time>2026-04-27T17:12:54.998Z</time></trkpt><trkpt lat="42.241386505831294" lon="13.816106758514403"><ele>325.0</ele><time>2026-04-27T17:12:55.998Z</time></trkpt><trkpt lat="42.24126900674733" lon="13.816174367235357"><ele>327.0</ele><time>2026-04-27T17:12:56.998Z</time></trkpt><trkpt lat="42.24115967593594" lon="13.816227192343176"><ele>329.0</ele><time>2026-04-27T17:12:57.998Z</time></trkpt><trkpt lat="42.241042941096985" lon="13.816259764003895"><ele>329.0</ele><time>2026-04-27T17:12:58.998Z</time></trkpt><trkpt lat="42.240913938724646" lon="13.816272084841735"><ele>329.0</ele><time>2026-04-27T17:12:59.998Z</time></trkpt><trkpt lat="42.24076469563002" lon="13.816298112159696"><ele>329.0</ele><time>2026-04-27T17:13:00.998Z</time></trkpt><trkpt lat="42.24061958941604" lon="13.816280274933728"><ele>329.0</ele><time>2026-04-27T17:13:01.998Z</time></trkpt><trkpt lat="42.240468570250925" lon="13.816286978516908"><ele>328.5</ele><time>2026-04-27T17:13:02.998Z</time></trkpt><trkpt lat="42.24031307622712" lon="13.81629479111241"><ele>328.0</ele><time>2026-04-27T17:13:03.998Z</time></trkpt><trkpt lat="42.2401710871023" lon="13.816296196624107"><ele>327.5</ele><time>2026-04-27T17:13:04.998Z</time></trkpt><trkpt lat="42.240039374460565" lon="13.816314459977196"><ele>327.0</ele><time>2026-04-27T17:13:05.998Z</time></trkpt><trkpt lat="42.2399307754712" lon="13.816351675976463"><ele>327.0</ele><time>2026-04-27T17:13:06.998Z</time></trkpt><trkpt lat="42.239824664317794" lon="13.816417389973855"><ele>327.0</ele><time>2026-04-27T17:13:07.998Z</time></trkpt><trkpt lat="42.23970937521562" lon="13.816447655880182"><ele>327.0</ele><time>2026-04-27T17:13:08.998Z</time></trkpt><trkpt lat="42.2396082351509" lon="13.816465247753376"><ele>327.0</ele><time>2026-04-27T17:13:09.998Z</time></trkpt><trkpt lat="42.23953592015597" lon="13.81649149723683"><ele>327.0</ele><time>2026-04-27T17:13:10.998Z</time></trkpt><trkpt lat="42.23944271679575" lon="13.816393865880201"><ele>326.20000000000005</ele><time>2026-04-27T17:13:12.998Z</time></trkpt><trkpt lat="42.23940300683679" lon="13.816292455257699"><ele>325.4</ele><time>2026-04-27T17:13:13.998Z</time></trkpt><trkpt lat="42.23936920018639" lon="13.816212924652211"><ele>324.6</ele><time>2026-04-27T17:13:14.998Z</time></trkpt><trkpt lat="42.239257336212304" lon="13.816154132424893"><ele>323.79999999999995</ele><time>2026-04-27T17:13:15.998Z</time></trkpt><trkpt lat="42.2391346593034" lon="13.816152205584872"><ele>323.0</ele><time>2026-04-27T17:13:16.998Z</time></trkpt><trkpt lat="42.23899779207402" lon="13.816135239502271"><ele>321.6666666666667</ele><time>2026-04-27T17:13:17.998Z</time></trkpt><trkpt lat="42.238844778695025" lon="13.816101163927566"><ele>320.3333333333333</ele><time>2026-04-27T17:13:18.998Z</time></trkpt><trkpt lat="42.238691641890725" lon="13.81607409579317"><ele>319.0</ele><time>2026-04-27T17:13:19.998Z</time></trkpt><trkpt lat="42.23853896611024" lon="13.816060837599585"><ele>319.0</ele><time>2026-04-27T17:13:20.998Z</time></trkpt><trkpt lat="42.23836784880619" lon="13.816115731253994"><ele>319.0</ele><time>2026-04-27T17:13:21.998Z</time></trkpt><trkpt lat="42.23818614808205" lon="13.816213950791754"><ele>319.0</ele><time>2026-04-27T17:13:22.998Z</time></trkpt><trkpt lat="42.2379895517329" lon="13.816301848039917"><ele>319.0</ele><time>2026-04-27T17:13:23.998Z</time></trkpt><trkpt lat="42.23779131282306" lon="13.816392657125833"><ele>319.0</ele><time>2026-04-27T17:13:24.998Z</time></trkpt><trkpt lat="42.237594993906306" lon="13.816493629867388"><ele>319.0</ele><time>2026-04-27T17:13:25.998Z</time></trkpt><trkpt lat="42.2374016926867" lon="13.816586796375582"><ele>319.3333333333333</ele><time>2026-04-27T17:13:26.998Z</time></trkpt><trkpt lat="42.23720946149251" lon="13.816665777507339"><ele>319.6666666666667</ele><time>2026-04-27T17:13:27.998Z</time></trkpt><trkpt lat="42.23701999190176" lon="13.81670706077671"><ele>320.0</ele><time>2026-04-27T17:13:28.998Z</time></trkpt><trkpt lat="42.23684527404117" lon="13.816711360997413"><ele>320.0</ele><time>2026-04-27T17:13:30Z</time></trkpt><trkpt lat="42.23667692313367" lon="13.816688892438831"><ele>320.0</ele><time>2026-04-27T17:13:31Z</time></trkpt><trkpt lat="42.2364998888765" lon="13.81660950721604"><ele>320.0</ele><time>2026-04-27T17:13:32Z</time></trkpt><trkpt lat="42.23633980895203" lon="13.816500935497313"><ele>320.5</ele><time>2026-04-27T17:13:33Z</time></trkpt><trkpt lat="42.236213651611656" lon="13.816374350498347"><ele>321.0</ele><time>2026-04-27T17:13:34Z</time></trkpt><trkpt lat="42.23609431739658" lon="13.81627276545924"><ele>321.5</ele><time>2026-04-27T17:13:35Z</time></trkpt><trkpt lat="42.23597069004128" lon="13.816220302817102"><ele>322.0</ele><time>2026-04-27T17:13:36Z</time></trkpt><trkpt lat="42.23583388742804" lon="13.816183456068083"><ele>322.0</ele><time>2026-04-27T17:13:37Z</time></trkpt><trkpt lat="42.23567266573195" lon="13.816216162084975"><ele>322.0</ele><time>2026-04-27T17:13:38Z</time></trkpt><trkpt lat="42.235519582392335" lon="13.816299924817404"><ele>322.0</ele><time>2026-04-27T17:13:39Z</time></trkpt><trkpt lat="42.23539791896618" lon="13.816427112034434"><ele>321.66666666666663</ele><time>2026-04-27T17:13:40Z</time></trkpt><trkpt lat="42.235289742616054" lon="13.816594840902926"><ele>321.3333333333333</ele><time>2026-04-27T17:13:41Z</time></trkpt><trkpt lat="42.23519385022061" lon="13.816801533467833"><ele>321.0</ele><time>2026-04-27T17:13:42Z</time></trkpt><trkpt lat="42.23510037218747" lon="13.817008232549759"><ele>321.0</ele><time>2026-04-27T17:13:43Z</time></trkpt><trkpt lat="42.235004375714304" lon="13.817219419251423"><ele>321.0</ele><time>2026-04-27T17:13:44Z</time></trkpt><trkpt lat="42.23489658140531" lon="13.817422391827542"><ele>321.0</ele><time>2026-04-27T17:13:45Z</time></trkpt><trkpt lat="42.234773529744615" lon="13.81762424516165"><ele>322.6666666666667</ele><time>2026-04-27T17:13:46Z</time></trkpt><trkpt lat="42.23463983646293" lon="13.8178120613652"><ele>324.33333333333337</ele><time>2026-04-27T17:13:47Z</time></trkpt><trkpt lat="42.23449901281946" lon="13.81798225078787"><ele>326.0</ele><time>2026-04-27T17:13:48Z</time></trkpt><trkpt lat="42.234346027928844" lon="13.818135347216554"><ele>326.0</ele><time>2026-04-27T17:13:49Z</time></trkpt><trkpt lat="42.23418574522938" lon="13.818265845433563"><ele>326.0</ele><time>2026-04-27T17:13:50Z</time></trkpt><trkpt lat="42.234003738071515" lon="13.818387299272953"><ele>326.0</ele><time>2026-04-27T17:13:51Z</time></trkpt><trkpt lat="42.23381353478113" lon="13.818506293661587"><ele>327.6666666666667</ele><time>2026-04-27T17:13:52Z</time></trkpt><trkpt lat="42.233620303748566" lon="13.818624644512917"><ele>329.3333333333333</ele><time>2026-04-27T17:13:53Z</time></trkpt><trkpt lat="42.233423663471925" lon="13.818730467181204"><ele>331.0</ele><time>2026-04-27T17:13:54Z</time></trkpt><trkpt lat="42.2332197387803" lon="13.818822138097648"><ele>327.66666666666663</ele><time>2026-04-27T17:13:54.999Z</time></trkpt><trkpt lat="42.23302512803823" lon="13.818916790964549"><ele>324.3333333333333</ele><time>2026-04-27T17:13:55.999Z</time></trkpt><trkpt lat="42.232832815067475" lon="13.818984258297592"><ele>321.0</ele><time>2026-04-27T17:13:56.999Z</time></trkpt><trkpt lat="42.23262969844208" lon="13.819002360517606"><ele>321.0</ele><time>2026-04-27T17:13:57.999Z</time></trkpt><trkpt lat="42.232422454601384" lon="13.819014964627032"><ele>321.0</ele><time>2026-04-27T17:13:58.999Z</time></trkpt><trkpt lat="42.23221920010691" lon="13.81902353716783"><ele>321.0</ele><time>2026-04-27T17:13:59.999Z</time></trkpt><trkpt lat="42.232014004680785" lon="13.819039326553854"><ele>320.6666666666667</ele><time>2026-04-27T17:14:00.999Z</time></trkpt><trkpt lat="42.231832588408025" lon="13.819064545941483"><ele>320.33333333333337</ele><time>2026-04-27T17:14:01.999Z</time></trkpt><trkpt lat="42.23164637661365" lon="13.819114849699671"><ele>320.0</ele><time>2026-04-27T17:14:02.999Z</time></trkpt><trkpt lat="42.23146525951578" lon="13.819214259722171"><ele>319.0</ele><time>2026-04-27T17:14:03.999Z</time></trkpt><trkpt lat="42.23131347695166" lon="13.819317170083103"><ele>318.0</ele><time>2026-04-27T17:14:04.999Z</time></trkpt><trkpt lat="42.23117591057501" lon="13.819410130549766"><ele>317.0</ele><time>2026-04-27T17:14:05.999Z</time></trkpt><trkpt lat="42.2310380352231" lon="13.819488150685379"><ele>317.33333333333337</ele><time>2026-04-27T17:14:06.999Z</time></trkpt><trkpt lat="42.2308959052877" lon="13.81953210191891"><ele>317.6666666666667</ele><time>2026-04-27T17:14:07.999Z</time></trkpt><trkpt lat="42.23073101125454" lon="13.81955008323747"><ele>318.0</ele><time>2026-04-27T17:14:08.999Z</time></trkpt><trkpt lat="42.230558245555805" lon="13.819564898249716"><ele>318.0</ele><time>2026-04-27T17:14:09.999Z</time></trkpt><trkpt lat="42.2303827741758" lon="13.819594854823192"><ele>318.0</ele><time>2026-04-27T17:14:10.999Z</time></trkpt><trkpt lat="42.23022264655261" lon="13.819625944388031"><ele>318.0</ele><time>2026-04-27T17:14:11.999Z</time></trkpt><trkpt lat="42.23005931605349" lon="13.819655750280061"><ele>318.0</ele><time>2026-04-27T17:14:12.999Z</time></trkpt><trkpt lat="42.2298936889701" lon="13.819658372465142"><ele>318.0</ele><time>2026-04-27T17:14:13.999Z</time></trkpt><trkpt lat="42.22972378047533" lon="13.819656146568343"><ele>318.0</ele><time>2026-04-27T17:14:14.999Z</time></trkpt><trkpt lat="42.22955189765975" lon="13.819663199768929"><ele>318.0</ele><time>2026-04-27T17:14:15.999Z</time></trkpt><trkpt lat="42.22937682624038" lon="13.819675648421773"><ele>318.0</ele><time>2026-04-27T17:14:16.999Z</time></trkpt><trkpt lat="42.229199166367586" lon="13.819696185091425"><ele>318.0</ele><time>2026-04-27T17:14:17.999Z</time></trkpt><trkpt lat="42.22902047115675" lon="13.819715235047838"><ele>320.3333333333333</ele><time>2026-04-27T17:14:18.999Z</time></trkpt><trkpt lat="42.22883952533116" lon="13.819729284015647"><ele>322.66666666666663</ele><time>2026-04-27T17:14:19.999Z</time></trkpt><trkpt lat="42.22866162086612" lon="13.819734229239138"><ele>325.0</ele><time>2026-04-27T17:14:20.999Z</time></trkpt><trkpt lat="42.22848851221022" lon="13.819719047160634"><ele>325.0</ele><time>2026-04-27T17:14:21.999Z</time></trkpt><trkpt lat="42.22831561462848" lon="13.819677818131767"><ele>325.0</ele><time>2026-04-27T17:14:22.999Z</time></trkpt><trkpt lat="42.2281420909983" lon="13.819614944320458"><ele>325.0</ele><time>2026-04-27T17:14:23.999Z</time></trkpt><trkpt lat="42.22796521139256" lon="13.8195606174164"><ele>325.0</ele><time>2026-04-27T17:14:24.999Z</time></trkpt><trkpt lat="42.22778243399519" lon="13.819529617287904"><ele>325.0</ele><time>2026-04-27T17:14:25.999Z</time></trkpt><trkpt lat="42.227598817892535" lon="13.819526987786064"><ele>325.0</ele><time>2026-04-27T17:14:26.999Z</time></trkpt><trkpt lat="42.22741770214693" lon="13.819538732135504"><ele>324.3333333333333</ele><time>2026-04-27T17:14:27.999Z</time></trkpt><trkpt lat="42.22723566273978" lon="13.819557768987456"><ele>323.6666666666667</ele><time>2026-04-27T17:14:28.999Z</time></trkpt><trkpt lat="42.22704947555428" lon="13.81959895906899"><ele>323.0</ele><time>2026-04-27T17:14:29.999Z</time></trkpt><trkpt lat="42.22686893517189" lon="13.819665640801848"><ele>323.0</ele><time>2026-04-27T17:14:30.999Z</time></trkpt><trkpt lat="42.22669773745343" lon="13.819754115139911"><ele>323.0</ele><time>2026-04-27T17:14:31.999Z</time></trkpt><trkpt lat="42.22654231726578" lon="13.819888720658868"><ele>323.0</ele><time>2026-04-27T17:14:32.999Z</time></trkpt><trkpt lat="42.22640313389367" lon="13.820047156194654"><ele>321.33333333333337</ele><time>2026-04-27T17:14:33.999Z</time></trkpt><trkpt lat="42.22627762478151" lon="13.820229506759492"><ele>319.6666666666667</ele><time>2026-04-27T17:14:34.999Z</time></trkpt><trkpt lat="42.22616060847151" lon="13.82044100631877"><ele>318.0</ele><time>2026-04-27T17:14:35.999Z</time></trkpt><trkpt lat="42.226051702382584" lon="13.820659497887576"><ele>318.0</ele><time>2026-04-27T17:14:36.999Z</time></trkpt><trkpt lat="42.225949813536886" lon="13.820873312686858"><ele>318.0</ele><time>2026-04-27T17:14:37.999Z</time></trkpt><trkpt lat="42.225847973725756" lon="13.821059263634464"><ele>318.0</ele><time>2026-04-27T17:14:38.999Z</time></trkpt><trkpt lat="42.225737190832845" lon="13.821212682625633"><ele>318.3333333333333</ele><time>2026-04-27T17:14:39.999Z</time></trkpt><trkpt lat="42.225612841787125" lon="13.821346318203402"><ele>318.66666666666663</ele><time>2026-04-27T17:14:40.999Z</time></trkpt><trkpt lat="42.22547316875672" lon="13.821445454523085"><ele>319.0</ele><time>2026-04-27T17:14:41.999Z</time></trkpt><trkpt lat="42.22531695011017" lon="13.821543348342914"><ele>319.0</ele><time>2026-04-27T17:14:42.999Z</time></trkpt><trkpt lat="42.22515603626665" lon="13.821605886301533"><ele>319.0</ele><time>2026-04-27T17:14:43.999Z</time></trkpt><trkpt lat="42.224976498442885" lon="13.8216532579168"><ele>319.0</ele><time>2026-04-27T17:14:44.999Z</time></trkpt><trkpt lat="42.224798361720964" lon="13.8216992342088"><ele>318.66666666666663</ele><time>2026-04-27T17:14:45.999Z</time></trkpt><trkpt lat="42.22461950628728" lon="13.821759658562986"><ele>318.3333333333333</ele><time>2026-04-27T17:14:46.999Z</time></trkpt><trkpt lat="42.22444854244145" lon="13.821846190330891"><ele>318.0</ele><time>2026-04-27T17:14:47.999Z</time></trkpt><trkpt lat="42.22428669526446" lon="13.821938805535364"><ele>318.6666666666667</ele><time>2026-04-27T17:14:48.999Z</time></trkpt><trkpt lat="42.224134615329106" lon="13.822062062779697"><ele>319.33333333333337</ele><time>2026-04-27T17:14:49.999Z</time></trkpt><trkpt lat="42.22398879608063" lon="13.822193044348355"><ele>320.0</ele><time>2026-04-27T17:14:50.999Z</time></trkpt><trkpt lat="42.22384424705733" lon="13.822328108449932"><ele>320.0</ele><time>2026-04-27T17:14:51.999Z</time></trkpt><trkpt lat="42.223699206548474" lon="13.822454499588245"><ele>320.0</ele><time>2026-04-27T17:14:52.999Z</time></trkpt><trkpt lat="42.223548616428424" lon="13.822563110438972"><ele>320.0</ele><time>2026-04-27T17:14:53.999Z</time></trkpt><trkpt lat="42.223386110854584" lon="13.822653541782909"><ele>322.6666666666667</ele><time>2026-04-27T17:14:54.999Z</time></trkpt><trkpt lat="42.2232276077984" lon="13.822709976366749"><ele>325.3333333333333</ele><time>2026-04-27T17:14:55.999Z</time></trkpt><trkpt lat="42.223080616452435" lon="13.822714839969935"><ele>328.0</ele><time>2026-04-27T17:14:56.998Z</time></trkpt><trkpt lat="42.22292190748732" lon="13.822685534541886"><ele>325.3333333333333</ele><time>2026-04-27T17:14:57.998Z</time></trkpt><trkpt lat="42.22274679242267" lon="13.822644839671355"><ele>322.6666666666667</ele><time>2026-04-27T17:14:58.998Z</time></trkpt><trkpt lat="42.222565532924186" lon="13.822598454850478"><ele>320.0</ele><time>2026-04-27T17:14:59.998Z</time></trkpt><trkpt lat="42.22238031577847" lon="13.822552830703541"><ele>322.0</ele><time>2026-04-27T17:15:00.998Z</time></trkpt><trkpt lat="42.222194948981304" lon="13.822502453779622"><ele>324.0</ele><time>2026-04-27T17:15:01.998Z</time></trkpt><trkpt lat="42.222016782824724" lon="13.822440213570653"><ele>326.0</ele><time>2026-04-27T17:15:02.998Z</time></trkpt><trkpt lat="42.22184851804727" lon="13.822377254294777"><ele>326.0</ele><time>2026-04-27T17:15:03.998Z</time></trkpt><trkpt lat="42.22168898352634" lon="13.822313652424576"><ele>326.0</ele><time>2026-04-27T17:15:04.998Z</time></trkpt><trkpt lat="42.221533499574" lon="13.82226238787346"><ele>326.0</ele><time>2026-04-27T17:15:05.998Z</time></trkpt><trkpt lat="42.22137026900523" lon="13.822231868580985"><ele>327.0</ele><time>2026-04-27T17:15:06.998Z</time></trkpt><trkpt lat="42.22120606620289" lon="13.822209494544266"><ele>328.0</ele><time>2026-04-27T17:15:07.998Z</time></trkpt><trkpt lat="42.22103805129087" lon="13.82220281422558"><ele>329.0</ele><time>2026-04-27T17:15:08.998Z</time></trkpt><trkpt lat="42.22089092058572" lon="13.822220966489228"><ele>329.0</ele><time>2026-04-27T17:15:09.998Z</time></trkpt><trkpt lat="42.22077169345269" lon="13.822264678525524"><ele>329.0</ele><time>2026-04-27T17:15:10.998Z</time></trkpt><trkpt lat="42.22066323995101" lon="13.822361578176633"><ele>329.0</ele><time>2026-04-27T17:15:11.998Z</time></trkpt><trkpt lat="42.220558381065224" lon="13.822486904707286"><ele>329.0</ele><time>2026-04-27T17:15:12.998Z</time></trkpt><trkpt lat="42.22045296694675" lon="13.822621895502914"><ele>327.33333333333337</ele><time>2026-04-27T17:15:13.998Z</time></trkpt><trkpt lat="42.22033975338381" lon="13.82276948162868"><ele>325.6666666666667</ele><time>2026-04-27T17:15:14.998Z</time></trkpt><trkpt lat="42.22021890364262" lon="13.822924986432024"><ele>324.0</ele><time>2026-04-27T17:15:15.998Z</time></trkpt><trkpt lat="42.22008663887943" lon="13.823066185697924"><ele>324.0</ele><time>2026-04-27T17:15:16.998Z</time></trkpt><trkpt lat="42.21993809070919" lon="13.82321847826219"><ele>324.0</ele><time>2026-04-27T17:15:17.998Z</time></trkpt><trkpt lat="42.21980598680498" lon="13.823384831125951"><ele>324.0</ele><time>2026-04-27T17:15:18.998Z</time></trkpt><trkpt lat="42.21967899833056" lon="13.823550594025727"><ele>323.0</ele><time>2026-04-27T17:15:19.998Z</time></trkpt><trkpt lat="42.21954311484582" lon="13.823685509446076"><ele>322.0</ele><time>2026-04-27T17:15:20.998Z</time></trkpt><trkpt lat="42.21938765078104" lon="13.823777831006437"><ele>321.0</ele><time>2026-04-27T17:15:21.998Z</time></trkpt><trkpt lat="42.21922151708273" lon="13.823854742018394"><ele>321.0</ele><time>2026-04-27T17:15:22.998Z</time></trkpt><trkpt lat="42.21905503951225" lon="13.823930585144499"><ele>321.0</ele><time>2026-04-27T17:15:23.998Z</time></trkpt><trkpt lat="42.2188894998811" lon="13.824015743441045"><ele>321.0</ele><time>2026-04-27T17:15:24.998Z</time></trkpt><trkpt lat="42.21872687731478" lon="13.824097284252616"><ele>321.3333333333333</ele><time>2026-04-27T17:15:25.998Z</time></trkpt><trkpt lat="42.21856265350878" lon="13.824173558967429"><ele>321.66666666666663</ele><time>2026-04-27T17:15:26.998Z</time></trkpt><trkpt lat="42.21839746252774" lon="13.824243728641152"><ele>322.0</ele><time>2026-04-27T17:15:27.998Z</time></trkpt><trkpt lat="42.21823367179322" lon="13.824310187133468"><ele>322.5</ele><time>2026-04-27T17:15:28.998Z</time></trkpt><trkpt lat="42.21807689986565" lon="13.824371681575686"><ele>323.0</ele><time>2026-04-27T17:15:29.998Z</time></trkpt><trkpt lat="42.21793905890453" lon="13.82442033970611"><ele>323.5</ele><time>2026-04-27T17:15:30.998Z</time></trkpt><trkpt lat="42.21780776579244" lon="13.824473724932462"><ele>324.0</ele><time>2026-04-27T17:15:31.998Z</time></trkpt><trkpt lat="42.21768521236452" lon="13.824541152020162"><ele>324.0</ele><time>2026-04-27T17:15:32.998Z</time></trkpt><trkpt lat="42.2175738417472" lon="13.824607684798583"><ele>324.0</ele><time>2026-04-27T17:15:33.998Z</time></trkpt><trkpt lat="42.21747083112445" lon="13.82467277966602"><ele>324.0</ele><time>2026-04-27T17:15:34.998Z</time></trkpt><trkpt lat="42.21737712695639" lon="13.824733975659358"><ele>324.0</ele><time>2026-04-27T17:15:36Z</time></trkpt><trkpt lat="42.217293108682085" lon="13.82478870439505"><ele>324.0</ele><time>2026-04-27T17:15:37Z</time></trkpt><trkpt lat="42.21721812676011" lon="13.824837546881911"><ele>323.6</ele><time>2026-04-27T17:15:38Z</time></trkpt><trkpt lat="42.2171526440459" lon="13.824886130078209"><ele>323.2</ele><time>2026-04-27T17:15:39Z</time></trkpt><trkpt lat="42.21708296307053" lon="13.824884039726129"><ele>322.8</ele><time>2026-04-27T17:15:40Z</time></trkpt><trkpt lat="42.216967866072096" lon="13.824741325741696"><ele>322.40000000000003</ele><time>2026-04-27T17:15:42Z</time></trkpt><trkpt lat="42.21692616188627" lon="13.824619558919858"><ele>322.0</ele><time>2026-04-27T17:15:43Z</time></trkpt><trkpt lat="42.21687091934427" lon="13.824487823149411"><ele>322.0</ele><time>2026-04-27T17:15:44Z</time></trkpt><trkpt lat="42.21680204037021" lon="13.824343041402313"><ele>322.0</ele><time>2026-04-27T17:15:45Z</time></trkpt><trkpt lat="42.216740132467585" lon="13.824193914212742"><ele>322.0</ele><time>2026-04-27T17:15:46Z</time></trkpt><trkpt lat="42.21667974032029" lon="13.824041347356046"><ele>322.0</ele><time>2026-04-27T17:15:47Z</time></trkpt><trkpt lat="42.216617204511984" lon="13.82389267954219"><ele>321.25</ele><time>2026-04-27T17:15:48Z</time></trkpt><trkpt lat="42.2165569583473" lon="13.82374245415606"><ele>320.5</ele><time>2026-04-27T17:15:49Z</time></trkpt><trkpt lat="42.21649439477864" lon="13.823593757079555"><ele>319.75</ele><time>2026-04-27T17:15:50Z</time></trkpt><trkpt lat="42.216427868086015" lon="13.823446995267034"><ele>319.0</ele><time>2026-04-27T17:15:51Z</time></trkpt><trkpt lat="42.21636282691688" lon="13.823305364934285"><ele>317.8</ele><time>2026-04-27T17:15:52Z</time></trkpt><trkpt lat="42.21630899345349" lon="13.823175710934745"><ele>316.59999999999997</ele><time>2026-04-27T17:15:53Z</time></trkpt><trkpt lat="42.216258106573925" lon="13.82305602647829"><ele>315.4</ele><time>2026-04-27T17:15:54Z</time></trkpt><trkpt lat="42.2162117913116" lon="13.822947848990877"><ele>314.2</ele><time>2026-04-27T17:15:55Z</time></trkpt><trkpt lat="42.216178793610304" lon="13.822844005538757"><ele>313.0</ele><time>2026-04-27T17:15:56Z</time></trkpt><trkpt lat="42.21613897590807" lon="13.822738222160066"><ele>313.4</ele><time>2026-04-27T17:15:57Z</time></trkpt><trkpt lat="42.21609335156348" lon="13.822624050201522"><ele>313.8</ele><time>2026-04-27T17:15:58Z</time></trkpt><trkpt lat="42.21604052384777" lon="13.822513481733502"><ele>314.2</ele><time>2026-04-27T17:15:58.999Z</time></trkpt><trkpt lat="42.215967181692434" lon="13.822418131572768"><ele>314.6</ele><time>2026-04-27T17:15:59.999Z</time></trkpt><trkpt lat="42.215867719273746" lon="13.822344015530383"><ele>315.0</ele><time>2026-04-27T17:16:00.999Z</time></trkpt><trkpt lat="42.21575164286634" lon="13.82229950528455"><ele>315.5</ele><time>2026-04-27T17:16:01.999Z</time></trkpt><trkpt lat="42.2156326804775" lon="13.822286134714707"><ele>316.0</ele><time>2026-04-27T17:16:02.999Z</time></trkpt><trkpt lat="42.21551058576324" lon="13.822305373051826"><ele>316.5</ele><time>2026-04-27T17:16:03.999Z</time></trkpt><trkpt lat="42.215395285059955" lon="13.822361407136873"><ele>317.0</ele><time>2026-04-27T17:16:04.999Z</time></trkpt><trkpt lat="42.21526767207332" lon="13.82241994638407"><ele>317.0</ele><time>2026-04-27T17:16:05.999Z</time></trkpt><trkpt lat="42.21514709660133" lon="13.822490680061918"><ele>317.0</ele><time>2026-04-27T17:16:06.999Z</time></trkpt><trkpt lat="42.21501742332386" lon="13.822565294130618"><ele>317.0</ele><time>2026-04-27T17:16:07.999Z</time></trkpt><trkpt lat="42.21489613871204" lon="13.822635081200685"><ele>317.0</ele><time>2026-04-27T17:16:08.999Z</time></trkpt><trkpt lat="42.21478807912612" lon="13.822697258574975"><ele>317.0</ele><time>2026-04-27T17:16:09.999Z</time></trkpt><trkpt lat="42.2146896043538" lon="13.822761993584939"><ele>317.0</ele><time>2026-04-27T17:16:10.999Z</time></trkpt><trkpt lat="42.214581476079815" lon="13.822799128796088"><ele>317.0</ele><time>2026-04-27T17:16:11.999Z</time></trkpt><trkpt lat="42.21447837014907" lon="13.822790071625105"><ele>317.0</ele><time>2026-04-27T17:16:12.999Z</time></trkpt><trkpt lat="42.21438606101888" lon="13.822733980681882"><ele>317.0</ele><time>2026-04-27T17:16:13.999Z</time></trkpt><trkpt lat="42.21429370199097" lon="13.82264279869364"><ele>317.0</ele><time>2026-04-27T17:16:14.999Z</time></trkpt><trkpt lat="42.214220496741326" lon="13.82255433730386"><ele>317.0</ele><time>2026-04-27T17:16:15.999Z</time></trkpt><trkpt lat="42.214163908328636" lon="13.822469772394594"><ele>317.0</ele><time>2026-04-27T17:16:16.999Z</time></trkpt><trkpt lat="42.21411855607394" lon="13.822377673859407"><ele>317.0</ele><time>2026-04-27T17:16:17.999Z</time></trkpt><trkpt lat="42.21408145142531" lon="13.822281337896406"><ele>317.0</ele><time>2026-04-27T17:16:18.999Z</time></trkpt><trkpt lat="42.21406151920896" lon="13.82219542376062"><ele>317.0</ele><time>2026-04-27T17:16:19.999Z</time></trkpt><trkpt lat="42.21403949059589" lon="13.822076743407079"><ele>317.0</ele><time>2026-04-27T17:16:21.999Z</time></trkpt><trkpt lat="42.2142033881271" lon="13.821925365185821"><ele>317.0</ele><time>2026-04-27T17:16:23.999Z</time></trkpt><trkpt lat="42.2142849126872" lon="13.821823196405367"><ele>317.0</ele><time>2026-04-27T17:16:24.999Z</time></trkpt><trkpt lat="42.21438461334564" lon="13.821727237500033"><ele>317.0</ele><time>2026-04-27T17:16:25.999Z</time></trkpt><trkpt lat="42.21447777623541" lon="13.821591664697026"><ele>317.5</ele><time>2026-04-27T17:16:26.999Z</time></trkpt><trkpt lat="42.21457277054808" lon="13.821452496275374"><ele>318.0</ele><time>2026-04-27T17:16:27.999Z</time></trkpt><trkpt lat="42.21465886651481" lon="13.82132570558808"><ele>318.5</ele><time>2026-04-27T17:16:28.999Z</time></trkpt><trkpt lat="42.21473850055811" lon="13.821202832080774"><ele>319.0</ele><time>2026-04-27T17:16:29.999Z</time></trkpt><trkpt lat="42.21481374137704" lon="13.821095390241377"><ele>319.0</ele><time>2026-04-27T17:16:30.999Z</time></trkpt><trkpt lat="42.21488001197234" lon="13.82099826700623"><ele>319.0</ele><time>2026-04-27T17:16:31.999Z</time></trkpt><trkpt lat="42.21493273782954" lon="13.820905024798689"><ele>319.0</ele><time>2026-04-27T17:16:32.999Z</time></trkpt><trkpt lat="42.214968748284136" lon="13.820824525456135"><ele>319.0</ele><time>2026-04-27T17:16:33.999Z</time></trkpt><trkpt lat="42.21498804800031" lon="13.820729758158082"><ele>319.0</ele><time>2026-04-27T17:16:34.999Z</time></trkpt><trkpt lat="42.214991067450256" lon="13.820641759473599"><ele>319.0</ele><time>2026-04-27T17:16:35.999Z</time></trkpt><trkpt lat="42.21498266512369" lon="13.82054990022494"><ele>319.0</ele><time>2026-04-27T17:16:36.999Z</time></trkpt><trkpt lat="42.21488562083503" lon="13.82049582906438"><ele>319.0</ele><time>2026-04-27T17:16:38.999Z</time></trkpt><trkpt lat="42.21500761990065" lon="13.820446583217004"><ele>319.0</ele><time>2026-04-27T17:16:39.999Z</time></trkpt><trkpt lat="42.215051939398144" lon="13.820358294950543"><ele>319.0</ele><time>2026-04-27T17:19:13.998Z</time></trkpt><trkpt lat="42.21510320441787" lon="13.820287034985023"><ele>319.0</ele><time>2026-04-27T17:19:23.998Z</time></trkpt><trkpt lat="42.21522987826333" lon="13.820288653484576"><ele>319.0</ele><time>2026-04-27T17:19:25.998Z</time></trkpt><trkpt lat="42.215161088616505" lon="13.82054472228502"><ele>319.0</ele><time>2026-04-27T17:19:31.998Z</time></trkpt><trkpt lat="42.21510774531104" lon="13.820629391451062"><ele>319.0</ele><time>2026-04-27T17:19:32.998Z</time></trkpt><trkpt lat="42.215042611310224" lon="13.820733475247277"><ele>319.0</ele><time>2026-04-27T17:19:33.998Z</time></trkpt><trkpt lat="42.21496795406455" lon="13.82085219763984"><ele>319.0</ele><time>2026-04-27T17:19:34.998Z</time></trkpt><trkpt lat="42.2148847765436" lon="13.82097249138015"><ele>319.0</ele><time>2026-04-27T17:19:35.998Z</time></trkpt><trkpt lat="42.21480598440806" lon="13.821087969391915"><ele>319.0</ele><time>2026-04-27T17:19:36.998Z</time></trkpt><trkpt lat="42.21473276092363" lon="13.821196506431265"><ele>319.0</ele><time>2026-04-27T17:19:37.998Z</time></trkpt><trkpt lat="42.21465734234984" lon="13.821308247840358"><ele>319.0</ele><time>2026-04-27T17:19:38.998Z</time></trkpt><trkpt lat="42.214583270587134" lon="13.821413101572949"><ele>319.0</ele><time>2026-04-27T17:19:39.998Z</time></trkpt><trkpt lat="42.214511290833904" lon="13.821519666857775"><ele>319.0</ele><time>2026-04-27T17:19:40.998Z</time></trkpt><trkpt lat="42.21444025496005" lon="13.821623778949897"><ele>319.0</ele><time>2026-04-27T17:19:41.998Z</time></trkpt><trkpt lat="42.21436366311959" lon="13.821729217622119"><ele>319.0</ele><time>2026-04-27T17:19:42.998Z</time></trkpt><trkpt lat="42.21427710242204" lon="13.821820898771916"><ele>318.59999999999997</ele><time>2026-04-27T17:19:43.998Z</time></trkpt><trkpt lat="42.21418634486985" lon="13.821903051129718"><ele>318.2</ele><time>2026-04-27T17:19:44.998Z</time></trkpt><trkpt lat="42.2140926650569" lon="13.821968906963132"><ele>317.79999999999995</ele><time>2026-04-27T17:19:45.998Z</time></trkpt><trkpt lat="42.21400102460908" lon="13.82201811543444"><ele>317.4</ele><time>2026-04-27T17:19:46.998Z</time></trkpt><trkpt lat="42.21390822457659" lon="13.822050733459692"><ele>317.0</ele><time>2026-04-27T17:19:48Z</time></trkpt><trkpt lat="42.213809835491155" lon="13.8220783668725"><ele>317.0</ele><time>2026-04-27T17:19:49Z</time></trkpt><trkpt lat="42.213709083258586" lon="13.822107852481924"><ele>317.0</ele><time>2026-04-27T17:19:50Z</time></trkpt><trkpt lat="42.213610195834335" lon="13.822144372014815"><ele>317.0</ele><time>2026-04-27T17:19:51Z</time></trkpt><trkpt lat="42.21351052943256" lon="13.82218271154321"><ele>317.0</ele><time>2026-04-27T17:19:52Z</time></trkpt><trkpt lat="42.21340668661182" lon="13.822218050917854"><ele>317.0</ele><time>2026-04-27T17:19:53Z</time></trkpt><trkpt lat="42.21329826576349" lon="13.822245171245227"><ele>317.0</ele><time>2026-04-27T17:19:54Z</time></trkpt><trkpt lat="42.21318597154165" lon="13.82227753676872"><ele>317.0</ele><time>2026-04-27T17:19:55Z</time></trkpt><trkpt lat="42.21307332484461" lon="13.822320554627368"><ele>317.0</ele><time>2026-04-27T17:19:56Z</time></trkpt><trkpt lat="42.21295781654155" lon="13.822360746114967"><ele>317.0</ele><time>2026-04-27T17:19:57Z</time></trkpt><trkpt lat="42.212844056764325" lon="13.822403204231197"><ele>316.5</ele><time>2026-04-27T17:19:58Z</time></trkpt><trkpt lat="42.212724712380584" lon="13.822423396173741"><ele>316.0</ele><time>2026-04-27T17:19:59Z</time></trkpt><trkpt lat="42.21260861467077" lon="13.822462437164042"><ele>315.5</ele><time>2026-04-27T17:20:00Z</time></trkpt><trkpt lat="42.21249411783763" lon="13.822500019551548"><ele>315.0</ele><time>2026-04-27T17:20:01Z</time></trkpt><trkpt lat="42.21238132899389" lon="13.822547544612462"><ele>315.0</ele><time>2026-04-27T17:20:02Z</time></trkpt><trkpt lat="42.21227255326559" lon="13.822569802298698"><ele>315.0</ele><time>2026-04-27T17:20:03Z</time></trkpt><trkpt lat="42.21217228129285" lon="13.822601449147532"><ele>315.0</ele><time>2026-04-27T17:20:04Z</time></trkpt><trkpt lat="42.21208561370017" lon="13.822629614398158"><ele>315.0</ele><time>2026-04-27T17:20:04.999Z</time></trkpt><trkpt lat="42.212004438061285" lon="13.82265599483957"><ele>315.0</ele><time>2026-04-27T17:20:05.999Z</time></trkpt><trkpt lat="42.21193033999292" lon="13.822680641548926"><ele>314.8333333333333</ele><time>2026-04-27T17:20:06.999Z</time></trkpt><trkpt lat="42.211855098227595" lon="13.822705764688997"><ele>314.6666666666667</ele><time>2026-04-27T17:20:07.999Z</time></trkpt><trkpt lat="42.21177345747836" lon="13.822733024436399"><ele>314.5</ele><time>2026-04-27T17:20:08.999Z</time></trkpt><trkpt lat="42.211703713732" lon="13.82275631178075"><ele>314.33333333333337</ele><time>2026-04-27T17:20:09.999Z</time></trkpt><trkpt lat="42.211637531818255" lon="13.82277840977749"><ele>314.1666666666667</ele><time>2026-04-27T17:20:10.999Z</time></trkpt><trkpt lat="42.21155816501431" lon="13.822821071238153"><ele>314.0</ele><time>2026-04-27T17:20:12.999Z</time></trkpt><trkpt lat="42.2116015900593" lon="13.82309458093945"><ele>314.0</ele><time>2026-04-27T17:20:13.999Z</time></trkpt><trkpt lat="42.2116107933357" lon="13.823231688586569"><ele>314.0</ele><time>2026-04-27T17:20:14.999Z</time></trkpt><trkpt lat="42.21163423279985" lon="13.823376209023598"><ele>314.0</ele><time>2026-04-27T17:20:15.999Z</time></trkpt><trkpt lat="42.211660020283496" lon="13.823531858482685"><ele>314.0</ele><time>2026-04-27T17:20:16.999Z</time></trkpt><trkpt lat="42.211687538936744" lon="13.82368757558707"><ele>314.0</ele><time>2026-04-27T17:20:17.999Z</time></trkpt><trkpt lat="42.211715607581354" lon="13.823823143410175"><ele>314.4</ele><time>2026-04-27T17:20:18.999Z</time></trkpt><trkpt lat="42.21174132029629" lon="13.823937862588997"><ele>314.79999999999995</ele><time>2026-04-27T17:20:19.999Z</time></trkpt><trkpt lat="42.21177324489834" lon="13.824035744611464"><ele>315.20000000000005</ele><time>2026-04-27T17:20:20.999Z</time></trkpt><trkpt lat="42.21177296049765" lon="13.824133783445447"><ele>315.6</ele><time>2026-04-27T17:20:21.999Z</time></trkpt><trkpt lat="42.211793336939685" lon="13.824263488303595"><ele>316.0</ele><time>2026-04-27T17:20:23.999Z</time></trkpt><trkpt lat="42.211563150456584" lon="13.82414471968354"><ele>316.0</ele><time>2026-04-27T17:20:24.999Z</time></trkpt><trkpt lat="42.21148026758023" lon="13.82420922338801"><ele>311.0</ele><time>2026-04-27T17:20:26.999Z</time></trkpt><trkpt lat="42.21159260978456" lon="13.824477322099188"><ele>324.0</ele><time>2026-04-27T17:20:42.999Z</time></trkpt></trkseg></trk></gpx>